<?xml version="1.0" encoding="UTF-8"?>
<gpx version="1.1" creator="https://www.youtrack.es" xsi:schemaLocation="http://www.topografix.com/GPX/1/1 http://www.topografix.com/GPX/1/1/gpx.xsd http://www.garmin.com/xmlschemas/GpxExtensions/v3 http://www.garmin.com/xmlschemas/GpxExtensionsv3.xsd http://www.garmin.com/xmlschemas/TrackPointExtension/v1 http://www.garmin.com/xmlschemas/TrackPointExtensionv1.xsd" xmlns:gpxtpx="http://www.garmin.com/xmlschemas/TrackPointExtension/v1" xmlns:gpxx="http://www.garmin.com/xmlschemas/GpxExtensions/v3" xmlns:xsi="http://www.w3.org/2001/XMLSchema-instance">
  <metadata>
    <link href="https://www.youtrack.es">
      <text>YouTrack.es</text>
    </link>
    <time>2026-05-08T02:58:39Z</time>
  </metadata>
  <trk>
    <src>https://www.youtrack.es</src>
    <link href="https://www.youtrack.es/ruta/1230-gtp18">
      <text>YouTrack.es</text>
    </link>
    <trkseg>
      <trkpt lat="40.728741" lon="-4.015555">
        <ele>1193.19995117188</ele>
        <time>2018-06-29T22:30:08.008Z</time>
      </trkpt>
      <trkpt lat="40.728773" lon="-4.015496">
        <ele>1196</ele>
        <time>2018-06-29T22:30:16.008Z</time>
      </trkpt>
      <trkpt lat="40.728823" lon="-4.015367">
        <ele>1195</ele>
        <time>2018-06-29T22:30:24.008Z</time>
      </trkpt>
      <trkpt lat="40.728818" lon="-4.015233">
        <ele>1195</ele>
        <time>2018-06-29T22:30:29.008Z</time>
      </trkpt>
      <trkpt lat="40.728826" lon="-4.015124">
        <ele>1195</ele>
        <time>2018-06-29T22:30:33.008Z</time>
      </trkpt>
      <trkpt lat="40.728827" lon="-4.015036">
        <ele>1195</ele>
        <time>2018-06-29T22:30:36.008Z</time>
      </trkpt>
      <trkpt lat="40.728811" lon="-4.014912">
        <ele>1194</ele>
        <time>2018-06-29T22:30:41.008Z</time>
      </trkpt>
      <trkpt lat="40.728798" lon="-4.014798">
        <ele>1194</ele>
        <time>2018-06-29T22:30:46.008Z</time>
      </trkpt>
      <trkpt lat="40.728812" lon="-4.014688">
        <ele>1193</ele>
        <time>2018-06-29T22:30:51.008Z</time>
      </trkpt>
      <trkpt lat="40.728853" lon="-4.014573">
        <ele>1193</ele>
        <time>2018-06-29T22:30:56.008Z</time>
      </trkpt>
      <trkpt lat="40.728887" lon="-4.014446">
        <ele>1194</ele>
        <time>2018-06-29T22:31:01.008Z</time>
      </trkpt>
      <trkpt lat="40.728926" lon="-4.01431">
        <ele>1194</ele>
        <time>2018-06-29T22:31:06.008Z</time>
      </trkpt>
      <trkpt lat="40.728962" lon="-4.014223">
        <ele>1194</ele>
        <time>2018-06-29T22:31:09.008Z</time>
      </trkpt>
      <trkpt lat="40.728998" lon="-4.014145">
        <ele>1194</ele>
        <time>2018-06-29T22:31:12.008Z</time>
      </trkpt>
      <trkpt lat="40.72903" lon="-4.014058">
        <ele>1194</ele>
        <time>2018-06-29T22:31:15.008Z</time>
      </trkpt>
      <trkpt lat="40.729046" lon="-4.013971">
        <ele>1194</ele>
        <time>2018-06-29T22:31:18.008Z</time>
      </trkpt>
      <trkpt lat="40.729072" lon="-4.013889">
        <ele>1193</ele>
        <time>2018-06-29T22:31:21.008Z</time>
      </trkpt>
      <trkpt lat="40.729101" lon="-4.013799">
        <ele>1193</ele>
        <time>2018-06-29T22:31:24.008Z</time>
      </trkpt>
      <trkpt lat="40.729135" lon="-4.013683">
        <ele>1193</ele>
        <time>2018-06-29T22:31:28.008Z</time>
      </trkpt>
      <trkpt lat="40.729152" lon="-4.013571">
        <ele>1193</ele>
        <time>2018-06-29T22:31:32.008Z</time>
      </trkpt>
      <trkpt lat="40.729218" lon="-4.013445">
        <ele>1193</ele>
        <time>2018-06-29T22:31:38.008Z</time>
      </trkpt>
      <trkpt lat="40.729304" lon="-4.013341">
        <ele>1194</ele>
        <time>2018-06-29T22:31:44.008Z</time>
      </trkpt>
      <trkpt lat="40.729373" lon="-4.013261">
        <ele>1194</ele>
        <time>2018-06-29T22:31:47.008Z</time>
      </trkpt>
      <trkpt lat="40.729413" lon="-4.013199">
        <ele>1194</ele>
        <time>2018-06-29T22:31:49.008Z</time>
      </trkpt>
      <trkpt lat="40.72946" lon="-4.01312">
        <ele>1196</ele>
        <time>2018-06-29T22:31:52.008Z</time>
      </trkpt>
      <trkpt lat="40.729505" lon="-4.013046">
        <ele>1196</ele>
        <time>2018-06-29T22:31:55.008Z</time>
      </trkpt>
      <trkpt lat="40.729545" lon="-4.012962">
        <ele>1196</ele>
        <time>2018-06-29T22:31:58.008Z</time>
      </trkpt>
      <trkpt lat="40.729581" lon="-4.012881">
        <ele>1196</ele>
        <time>2018-06-29T22:32:01.008Z</time>
      </trkpt>
      <trkpt lat="40.729619" lon="-4.012799">
        <ele>1196</ele>
        <time>2018-06-29T22:32:04.008Z</time>
      </trkpt>
      <trkpt lat="40.729653" lon="-4.01271">
        <ele>1196</ele>
        <time>2018-06-29T22:32:07.008Z</time>
      </trkpt>
      <trkpt lat="40.729683" lon="-4.012624">
        <ele>1196.1311137343</ele>
        <time>2018-06-29T22:32:10.008Z</time>
      </trkpt>
      <trkpt lat="40.729698" lon="-4.012536">
        <ele>1197</ele>
        <time>2018-06-29T22:32:13.008Z</time>
      </trkpt>
      <trkpt lat="40.729715" lon="-4.012445">
        <ele>1197</ele>
        <time>2018-06-29T22:32:16.008Z</time>
      </trkpt>
      <trkpt lat="40.729741" lon="-4.012354">
        <ele>1197</ele>
        <time>2018-06-29T22:32:19.008Z</time>
      </trkpt>
      <trkpt lat="40.729771" lon="-4.012263">
        <ele>1197</ele>
        <time>2018-06-29T22:32:22.008Z</time>
      </trkpt>
      <trkpt lat="40.72981" lon="-4.012176">
        <ele>1197</ele>
        <time>2018-06-29T22:32:25.008Z</time>
      </trkpt>
      <trkpt lat="40.729859" lon="-4.012063">
        <ele>1197</ele>
        <time>2018-06-29T22:32:29.008Z</time>
      </trkpt>
      <trkpt lat="40.729913" lon="-4.01195">
        <ele>1196</ele>
        <time>2018-06-29T22:32:33.008Z</time>
      </trkpt>
      <trkpt lat="40.729947" lon="-4.011863">
        <ele>1196</ele>
        <time>2018-06-29T22:32:36.008Z</time>
      </trkpt>
      <trkpt lat="40.729971" lon="-4.011774">
        <ele>1196</ele>
        <time>2018-06-29T22:32:39.008Z</time>
      </trkpt>
      <trkpt lat="40.729999" lon="-4.011682">
        <ele>1196</ele>
        <time>2018-06-29T22:32:42.008Z</time>
      </trkpt>
      <trkpt lat="40.730022" lon="-4.011586">
        <ele>1196</ele>
        <time>2018-06-29T22:32:45.008Z</time>
      </trkpt>
      <trkpt lat="40.730052" lon="-4.011495">
        <ele>1196</ele>
        <time>2018-06-29T22:32:48.008Z</time>
      </trkpt>
      <trkpt lat="40.730075" lon="-4.011407">
        <ele>1196</ele>
        <time>2018-06-29T22:32:51.008Z</time>
      </trkpt>
      <trkpt lat="40.730116" lon="-4.011291">
        <ele>1196</ele>
        <time>2018-06-29T22:32:55.008Z</time>
      </trkpt>
      <trkpt lat="40.730141" lon="-4.011197">
        <ele>1196</ele>
        <time>2018-06-29T22:32:58.008Z</time>
      </trkpt>
      <trkpt lat="40.730169" lon="-4.011101">
        <ele>1197</ele>
        <time>2018-06-29T22:33:01.008Z</time>
      </trkpt>
      <trkpt lat="40.730199" lon="-4.011011">
        <ele>1197</ele>
        <time>2018-06-29T22:33:04.008Z</time>
      </trkpt>
      <trkpt lat="40.730252" lon="-4.010933">
        <ele>1197</ele>
        <time>2018-06-29T22:33:07.008Z</time>
      </trkpt>
      <trkpt lat="40.73031" lon="-4.010865">
        <ele>1197</ele>
        <time>2018-06-29T22:33:10.008Z</time>
      </trkpt>
      <trkpt lat="40.730364" lon="-4.010834">
        <ele>1197</ele>
        <time>2018-06-29T22:33:12.008Z</time>
      </trkpt>
      <trkpt lat="40.730434" lon="-4.010786">
        <ele>1197</ele>
        <time>2018-06-29T22:33:15.008Z</time>
      </trkpt>
      <trkpt lat="40.730501" lon="-4.010737">
        <ele>1197</ele>
        <time>2018-06-29T22:33:18.008Z</time>
      </trkpt>
      <trkpt lat="40.730568" lon="-4.010681">
        <ele>1198</ele>
        <time>2018-06-29T22:33:21.008Z</time>
      </trkpt>
      <trkpt lat="40.730629" lon="-4.010612">
        <ele>1198</ele>
        <time>2018-06-29T22:33:24.008Z</time>
      </trkpt>
      <trkpt lat="40.73067" lon="-4.010559">
        <ele>1198</ele>
        <time>2018-06-29T22:33:26.008Z</time>
      </trkpt>
      <trkpt lat="40.730725" lon="-4.010475">
        <ele>1198</ele>
        <time>2018-06-29T22:33:29.008Z</time>
      </trkpt>
      <trkpt lat="40.730769" lon="-4.010396">
        <ele>1199</ele>
        <time>2018-06-29T22:33:32.008Z</time>
      </trkpt>
      <trkpt lat="40.730804" lon="-4.010342">
        <ele>1199</ele>
        <time>2018-06-29T22:33:34.008Z</time>
      </trkpt>
      <trkpt lat="40.730846" lon="-4.010258">
        <ele>1199</ele>
        <time>2018-06-29T22:33:37.008Z</time>
      </trkpt>
      <trkpt lat="40.730893" lon="-4.010172">
        <ele>1199</ele>
        <time>2018-06-29T22:33:40.008Z</time>
      </trkpt>
      <trkpt lat="40.730944" lon="-4.010095">
        <ele>1199</ele>
        <time>2018-06-29T22:33:43.008Z</time>
      </trkpt>
      <trkpt lat="40.731003" lon="-4.01002">
        <ele>1199</ele>
        <time>2018-06-29T22:33:46.008Z</time>
      </trkpt>
      <trkpt lat="40.731057" lon="-4.009943">
        <ele>1199</ele>
        <time>2018-06-29T22:33:49.008Z</time>
      </trkpt>
      <trkpt lat="40.731137" lon="-4.009855">
        <ele>1201</ele>
        <time>2018-06-29T22:33:53.008Z</time>
      </trkpt>
      <trkpt lat="40.731204" lon="-4.009767">
        <ele>1201</ele>
        <time>2018-06-29T22:33:57.008Z</time>
      </trkpt>
      <trkpt lat="40.731264" lon="-4.009701">
        <ele>1201.21010033099</ele>
        <time>2018-06-29T22:34:00.008Z</time>
      </trkpt>
      <trkpt lat="40.731301" lon="-4.009629">
        <ele>1202</ele>
        <time>2018-06-29T22:34:03.008Z</time>
      </trkpt>
      <trkpt lat="40.731351" lon="-4.009557">
        <ele>1202</ele>
        <time>2018-06-29T22:34:06.008Z</time>
      </trkpt>
      <trkpt lat="40.731398" lon="-4.009491">
        <ele>1202</ele>
        <time>2018-06-29T22:34:09.008Z</time>
      </trkpt>
      <trkpt lat="40.731431" lon="-4.00944">
        <ele>1202.43167819938</ele>
        <time>2018-06-29T22:34:11.008Z</time>
      </trkpt>
      <trkpt lat="40.73147" lon="-4.009389">
        <ele>1204</ele>
        <time>2018-06-29T22:34:13.008Z</time>
      </trkpt>
      <trkpt lat="40.731522" lon="-4.009326">
        <ele>1204</ele>
        <time>2018-06-29T22:34:16.008Z</time>
      </trkpt>
      <trkpt lat="40.731571" lon="-4.009259">
        <ele>1204</ele>
        <time>2018-06-29T22:34:19.008Z</time>
      </trkpt>
      <trkpt lat="40.73162" lon="-4.009185">
        <ele>1206</ele>
        <time>2018-06-29T22:34:22.008Z</time>
      </trkpt>
      <trkpt lat="40.731669" lon="-4.009113">
        <ele>1206</ele>
        <time>2018-06-29T22:34:25.008Z</time>
      </trkpt>
      <trkpt lat="40.731717" lon="-4.009032">
        <ele>1206</ele>
        <time>2018-06-29T22:34:28.008Z</time>
      </trkpt>
      <trkpt lat="40.731766" lon="-4.008959">
        <ele>1206.21372369395</ele>
        <time>2018-06-29T22:34:31.008Z</time>
      </trkpt>
      <trkpt lat="40.73181" lon="-4.008897">
        <ele>1207</ele>
        <time>2018-06-29T22:34:34.008Z</time>
      </trkpt>
      <trkpt lat="40.731862" lon="-4.008827">
        <ele>1207</ele>
        <time>2018-06-29T22:34:37.008Z</time>
      </trkpt>
      <trkpt lat="40.731902" lon="-4.008754">
        <ele>1207</ele>
        <time>2018-06-29T22:34:40.008Z</time>
      </trkpt>
      <trkpt lat="40.731943" lon="-4.008681">
        <ele>1209</ele>
        <time>2018-06-29T22:34:43.008Z</time>
      </trkpt>
      <trkpt lat="40.732013" lon="-4.008603">
        <ele>1209</ele>
        <time>2018-06-29T22:34:47.008Z</time>
      </trkpt>
      <trkpt lat="40.732058" lon="-4.00854">
        <ele>1209</ele>
        <time>2018-06-29T22:34:50.008Z</time>
      </trkpt>
      <trkpt lat="40.732098" lon="-4.008484">
        <ele>1211</ele>
        <time>2018-06-29T22:34:53.008Z</time>
      </trkpt>
      <trkpt lat="40.732141" lon="-4.008433">
        <ele>1211</ele>
        <time>2018-06-29T22:34:56.008Z</time>
      </trkpt>
      <trkpt lat="40.732184" lon="-4.008373">
        <ele>1211</ele>
        <time>2018-06-29T22:34:59.008Z</time>
      </trkpt>
      <trkpt lat="40.732234" lon="-4.008308">
        <ele>1213</ele>
        <time>2018-06-29T22:35:02.008Z</time>
      </trkpt>
      <trkpt lat="40.732271" lon="-4.008258">
        <ele>1213</ele>
        <time>2018-06-29T22:35:04.008Z</time>
      </trkpt>
      <trkpt lat="40.732318" lon="-4.008188">
        <ele>1214</ele>
        <time>2018-06-29T22:35:07.008Z</time>
      </trkpt>
      <trkpt lat="40.732372" lon="-4.008121">
        <ele>1214</ele>
        <time>2018-06-29T22:35:10.008Z</time>
      </trkpt>
      <trkpt lat="40.732421" lon="-4.008062">
        <ele>1216</ele>
        <time>2018-06-29T22:35:13.008Z</time>
      </trkpt>
      <trkpt lat="40.732467" lon="-4.008">
        <ele>1216</ele>
        <time>2018-06-29T22:35:16.008Z</time>
      </trkpt>
      <trkpt lat="40.732515" lon="-4.007938">
        <ele>1216</ele>
        <time>2018-06-29T22:35:19.008Z</time>
      </trkpt>
      <trkpt lat="40.732564" lon="-4.007864">
        <ele>1218</ele>
        <time>2018-06-29T22:35:22.008Z</time>
      </trkpt>
      <trkpt lat="40.732616" lon="-4.007786">
        <ele>1218</ele>
        <time>2018-06-29T22:35:25.008Z</time>
      </trkpt>
      <trkpt lat="40.732666" lon="-4.007709">
        <ele>1218</ele>
        <time>2018-06-29T22:35:28.008Z</time>
      </trkpt>
      <trkpt lat="40.732714" lon="-4.007644">
        <ele>1218.21372369395</ele>
        <time>2018-06-29T22:35:31.008Z</time>
      </trkpt>
      <trkpt lat="40.732764" lon="-4.007574">
        <ele>1219</ele>
        <time>2018-06-29T22:35:34.008Z</time>
      </trkpt>
      <trkpt lat="40.732816" lon="-4.0075">
        <ele>1219</ele>
        <time>2018-06-29T22:35:37.008Z</time>
      </trkpt>
      <trkpt lat="40.732871" lon="-4.00743">
        <ele>1219</ele>
        <time>2018-06-29T22:35:40.008Z</time>
      </trkpt>
      <trkpt lat="40.73293" lon="-4.007358">
        <ele>1219</ele>
        <time>2018-06-29T22:35:43.008Z</time>
      </trkpt>
      <trkpt lat="40.732986" lon="-4.007284">
        <ele>1219</ele>
        <time>2018-06-29T22:35:46.008Z</time>
      </trkpt>
      <trkpt lat="40.733042" lon="-4.007206">
        <ele>1219</ele>
        <time>2018-06-29T22:35:49.008Z</time>
      </trkpt>
      <trkpt lat="40.733083" lon="-4.007158">
        <ele>1219</ele>
        <time>2018-06-29T22:35:51.008Z</time>
      </trkpt>
      <trkpt lat="40.733143" lon="-4.007079">
        <ele>1219</ele>
        <time>2018-06-29T22:35:54.008Z</time>
      </trkpt>
      <trkpt lat="40.73319" lon="-4.00703">
        <ele>1219</ele>
        <time>2018-06-29T22:35:56.008Z</time>
      </trkpt>
      <trkpt lat="40.733256" lon="-4.006966">
        <ele>1219</ele>
        <time>2018-06-29T22:35:59.008Z</time>
      </trkpt>
      <trkpt lat="40.733304" lon="-4.0069">
        <ele>1219</ele>
        <time>2018-06-29T22:36:02.008Z</time>
      </trkpt>
      <trkpt lat="40.733347" lon="-4.006821">
        <ele>1219</ele>
        <time>2018-06-29T22:36:05.008Z</time>
      </trkpt>
      <trkpt lat="40.733377" lon="-4.006733">
        <ele>1219</ele>
        <time>2018-06-29T22:36:08.008Z</time>
      </trkpt>
      <trkpt lat="40.73341" lon="-4.006634">
        <ele>1219.43167819938</ele>
        <time>2018-06-29T22:36:11.008Z</time>
      </trkpt>
      <trkpt lat="40.733452" lon="-4.006549">
        <ele>1221</ele>
        <time>2018-06-29T22:36:14.008Z</time>
      </trkpt>
      <trkpt lat="40.733501" lon="-4.00647">
        <ele>1221</ele>
        <time>2018-06-29T22:36:17.008Z</time>
      </trkpt>
      <trkpt lat="40.733565" lon="-4.006415">
        <ele>1221</ele>
        <time>2018-06-29T22:36:20.008Z</time>
      </trkpt>
      <trkpt lat="40.733642" lon="-4.006389">
        <ele>1221</ele>
        <time>2018-06-29T22:36:23.008Z</time>
      </trkpt>
      <trkpt lat="40.733721" lon="-4.00638">
        <ele>1221</ele>
        <time>2018-06-29T22:36:26.008Z</time>
      </trkpt>
      <trkpt lat="40.733798" lon="-4.006361">
        <ele>1221</ele>
        <time>2018-06-29T22:36:29.008Z</time>
      </trkpt>
      <trkpt lat="40.733864" lon="-4.006329">
        <ele>1221</ele>
        <time>2018-06-29T22:36:32.008Z</time>
      </trkpt>
      <trkpt lat="40.733926" lon="-4.006265">
        <ele>1221</ele>
        <time>2018-06-29T22:36:35.008Z</time>
      </trkpt>
      <trkpt lat="40.73396" lon="-4.006206">
        <ele>1221</ele>
        <time>2018-06-29T22:36:37.008Z</time>
      </trkpt>
      <trkpt lat="40.734006" lon="-4.006119">
        <ele>1221</ele>
        <time>2018-06-29T22:36:40.008Z</time>
      </trkpt>
      <trkpt lat="40.734053" lon="-4.006034">
        <ele>1222</ele>
        <time>2018-06-29T22:36:43.008Z</time>
      </trkpt>
      <trkpt lat="40.734102" lon="-4.005962">
        <ele>1222</ele>
        <time>2018-06-29T22:36:46.008Z</time>
      </trkpt>
      <trkpt lat="40.734154" lon="-4.0059">
        <ele>1222</ele>
        <time>2018-06-29T22:36:49.008Z</time>
      </trkpt>
      <trkpt lat="40.734194" lon="-4.005861">
        <ele>1222.39636012428</ele>
        <time>2018-06-29T22:36:51.008Z</time>
      </trkpt>
      <trkpt lat="40.734248" lon="-4.005807">
        <ele>1224</ele>
        <time>2018-06-29T22:36:54.008Z</time>
      </trkpt>
      <trkpt lat="40.734285" lon="-4.005774">
        <ele>1224</ele>
        <time>2018-06-29T22:36:56.008Z</time>
      </trkpt>
      <trkpt lat="40.734326" lon="-4.005741">
        <ele>1224</ele>
        <time>2018-06-29T22:36:58.008Z</time>
      </trkpt>
      <trkpt lat="40.734366" lon="-4.005706">
        <ele>1224</ele>
        <time>2018-06-29T22:37:00.008Z</time>
      </trkpt>
      <trkpt lat="40.734419" lon="-4.005649">
        <ele>1227</ele>
        <time>2018-06-29T22:37:03.008Z</time>
      </trkpt>
      <trkpt lat="40.734469" lon="-4.005577">
        <ele>1227</ele>
        <time>2018-06-29T22:37:06.008Z</time>
      </trkpt>
      <trkpt lat="40.734527" lon="-4.00551">
        <ele>1227</ele>
        <time>2018-06-29T22:37:09.008Z</time>
      </trkpt>
      <trkpt lat="40.734586" lon="-4.005456">
        <ele>1227</ele>
        <time>2018-06-29T22:37:12.008Z</time>
      </trkpt>
      <trkpt lat="40.734646" lon="-4.005405">
        <ele>1227</ele>
        <time>2018-06-29T22:37:15.008Z</time>
      </trkpt>
      <trkpt lat="40.734711" lon="-4.005341">
        <ele>1227</ele>
        <time>2018-06-29T22:37:18.008Z</time>
      </trkpt>
      <trkpt lat="40.734777" lon="-4.005268">
        <ele>1227.39636012428</ele>
        <time>2018-06-29T22:37:21.008Z</time>
      </trkpt>
      <trkpt lat="40.734843" lon="-4.005201">
        <ele>1229</ele>
        <time>2018-06-29T22:37:24.008Z</time>
      </trkpt>
      <trkpt lat="40.734893" lon="-4.005129">
        <ele>1229</ele>
        <time>2018-06-29T22:37:27.008Z</time>
      </trkpt>
      <trkpt lat="40.734948" lon="-4.005026">
        <ele>1229</ele>
        <time>2018-06-29T22:37:31.008Z</time>
      </trkpt>
      <trkpt lat="40.734994" lon="-4.004916">
        <ele>1229</ele>
        <time>2018-06-29T22:37:35.008Z</time>
      </trkpt>
      <trkpt lat="40.735026" lon="-4.004833">
        <ele>1229</ele>
        <time>2018-06-29T22:37:38.008Z</time>
      </trkpt>
      <trkpt lat="40.735056" lon="-4.004751">
        <ele>1229.43167819938</ele>
        <time>2018-06-29T22:37:41.008Z</time>
      </trkpt>
      <trkpt lat="40.735099" lon="-4.004623">
        <ele>1231</ele>
        <time>2018-06-29T22:37:46.008Z</time>
      </trkpt>
      <trkpt lat="40.735131" lon="-4.004543">
        <ele>1231</ele>
        <time>2018-06-29T22:37:49.008Z</time>
      </trkpt>
      <trkpt lat="40.735164" lon="-4.004426">
        <ele>1234</ele>
        <time>2018-06-29T22:37:53.008Z</time>
      </trkpt>
      <trkpt lat="40.735189" lon="-4.004333">
        <ele>1234.20204276217</ele>
        <time>2018-06-29T22:37:56.008Z</time>
      </trkpt>
      <trkpt lat="40.735209" lon="-4.004234">
        <ele>1235</ele>
        <time>2018-06-29T22:37:59.008Z</time>
      </trkpt>
      <trkpt lat="40.735226" lon="-4.004131">
        <ele>1234</ele>
        <time>2018-06-29T22:38:02.008Z</time>
      </trkpt>
      <trkpt lat="40.735241" lon="-4.004031">
        <ele>1234</ele>
        <time>2018-06-29T22:38:05.008Z</time>
      </trkpt>
      <trkpt lat="40.735243" lon="-4.003927">
        <ele>1234</ele>
        <time>2018-06-29T22:38:08.008Z</time>
      </trkpt>
      <trkpt lat="40.735257" lon="-4.003824">
        <ele>1234</ele>
        <time>2018-06-29T22:38:11.008Z</time>
      </trkpt>
      <trkpt lat="40.735264" lon="-4.003727">
        <ele>1234</ele>
        <time>2018-06-29T22:38:14.008Z</time>
      </trkpt>
      <trkpt lat="40.735274" lon="-4.003614">
        <ele>1234</ele>
        <time>2018-06-29T22:38:17.008Z</time>
      </trkpt>
      <trkpt lat="40.735282" lon="-4.003509">
        <ele>1234</ele>
        <time>2018-06-29T22:38:20.008Z</time>
      </trkpt>
      <trkpt lat="40.735292" lon="-4.003399">
        <ele>1233</ele>
        <time>2018-06-29T22:38:23.008Z</time>
      </trkpt>
      <trkpt lat="40.735299" lon="-4.003288">
        <ele>1233</ele>
        <time>2018-06-29T22:38:26.008Z</time>
      </trkpt>
      <trkpt lat="40.73531" lon="-4.003188">
        <ele>1233</ele>
        <time>2018-06-29T22:38:29.008Z</time>
      </trkpt>
      <trkpt lat="40.73532" lon="-4.003083">
        <ele>1231</ele>
        <time>2018-06-29T22:38:32.008Z</time>
      </trkpt>
      <trkpt lat="40.735342" lon="-4.002975">
        <ele>1231</ele>
        <time>2018-06-29T22:38:35.008Z</time>
      </trkpt>
      <trkpt lat="40.735365" lon="-4.002873">
        <ele>1231</ele>
        <time>2018-06-29T22:38:38.008Z</time>
      </trkpt>
      <trkpt lat="40.735383" lon="-4.002769">
        <ele>1230.78317238233</ele>
        <time>2018-06-29T22:38:41.008Z</time>
      </trkpt>
      <trkpt lat="40.735402" lon="-4.002659">
        <ele>1230</ele>
        <time>2018-06-29T22:38:44.008Z</time>
      </trkpt>
      <trkpt lat="40.735427" lon="-4.002556">
        <ele>1230</ele>
        <time>2018-06-29T22:38:47.008Z</time>
      </trkpt>
      <trkpt lat="40.735457" lon="-4.002457">
        <ele>1230</ele>
        <time>2018-06-29T22:38:50.008Z</time>
      </trkpt>
      <trkpt lat="40.735487" lon="-4.002356">
        <ele>1229</ele>
        <time>2018-06-29T22:38:53.008Z</time>
      </trkpt>
      <trkpt lat="40.73551" lon="-4.002249">
        <ele>1229</ele>
        <time>2018-06-29T22:38:56.008Z</time>
      </trkpt>
      <trkpt lat="40.735533" lon="-4.002145">
        <ele>1229</ele>
        <time>2018-06-29T22:38:59.008Z</time>
      </trkpt>
      <trkpt lat="40.735557" lon="-4.00204">
        <ele>1227</ele>
        <time>2018-06-29T22:39:02.008Z</time>
      </trkpt>
      <trkpt lat="40.735587" lon="-4.001933">
        <ele>1227</ele>
        <time>2018-06-29T22:39:05.008Z</time>
      </trkpt>
      <trkpt lat="40.735609" lon="-4.00183">
        <ele>1227</ele>
        <time>2018-06-29T22:39:08.008Z</time>
      </trkpt>
      <trkpt lat="40.735633" lon="-4.001727">
        <ele>1227</ele>
        <time>2018-06-29T22:39:11.008Z</time>
      </trkpt>
      <trkpt lat="40.735664" lon="-4.001631">
        <ele>1227</ele>
        <time>2018-06-29T22:39:14.008Z</time>
      </trkpt>
      <trkpt lat="40.73569" lon="-4.001532">
        <ele>1227</ele>
        <time>2018-06-29T22:39:17.008Z</time>
      </trkpt>
      <trkpt lat="40.735726" lon="-4.001435">
        <ele>1227</ele>
        <time>2018-06-29T22:39:20.008Z</time>
      </trkpt>
      <trkpt lat="40.735762" lon="-4.001331">
        <ele>1228</ele>
        <time>2018-06-29T22:39:23.008Z</time>
      </trkpt>
      <trkpt lat="40.735787" lon="-4.001229">
        <ele>1228</ele>
        <time>2018-06-29T22:39:26.008Z</time>
      </trkpt>
      <trkpt lat="40.735812" lon="-4.001122">
        <ele>1228</ele>
        <time>2018-06-29T22:39:29.008Z</time>
      </trkpt>
      <trkpt lat="40.735825" lon="-4.001016">
        <ele>1229</ele>
        <time>2018-06-29T22:39:32.008Z</time>
      </trkpt>
      <trkpt lat="40.735847" lon="-4.000889">
        <ele>1229</ele>
        <time>2018-06-29T22:39:36.008Z</time>
      </trkpt>
      <trkpt lat="40.735858" lon="-4.000756">
        <ele>1229</ele>
        <time>2018-06-29T22:39:40.008Z</time>
      </trkpt>
      <trkpt lat="40.735867" lon="-4.000633">
        <ele>1229</ele>
        <time>2018-06-29T22:39:44.008Z</time>
      </trkpt>
      <trkpt lat="40.73585" lon="-4.000519">
        <ele>1229</ele>
        <time>2018-06-29T22:39:48.008Z</time>
      </trkpt>
      <trkpt lat="40.735824" lon="-4.000398">
        <ele>1230</ele>
        <time>2018-06-29T22:39:52.008Z</time>
      </trkpt>
      <trkpt lat="40.735798" lon="-4.000271">
        <ele>1230</ele>
        <time>2018-06-29T22:39:56.008Z</time>
      </trkpt>
      <trkpt lat="40.735774" lon="-4.000113">
        <ele>1230.21372369395</ele>
        <time>2018-06-29T22:40:01.008Z</time>
      </trkpt>
      <trkpt lat="40.735754" lon="-3.999975">
        <ele>1231</ele>
        <time>2018-06-29T22:40:05.008Z</time>
      </trkpt>
      <trkpt lat="40.735736" lon="-3.999809">
        <ele>1231</ele>
        <time>2018-06-29T22:40:09.008Z</time>
      </trkpt>
      <trkpt lat="40.735722" lon="-3.999659">
        <ele>1232</ele>
        <time>2018-06-29T22:40:13.008Z</time>
      </trkpt>
      <trkpt lat="40.735723" lon="-3.999514">
        <ele>1232</ele>
        <time>2018-06-29T22:40:17.008Z</time>
      </trkpt>
      <trkpt lat="40.735741" lon="-3.999377">
        <ele>1232</ele>
        <time>2018-06-29T22:40:21.008Z</time>
      </trkpt>
      <trkpt lat="40.735764" lon="-3.999252">
        <ele>1232</ele>
        <time>2018-06-29T22:40:25.008Z</time>
      </trkpt>
      <trkpt lat="40.735796" lon="-3.999154">
        <ele>1232</ele>
        <time>2018-06-29T22:40:28.008Z</time>
      </trkpt>
      <trkpt lat="40.735827" lon="-3.999061">
        <ele>1232.21372369395</ele>
        <time>2018-06-29T22:40:31.008Z</time>
      </trkpt>
      <trkpt lat="40.73588" lon="-3.998948">
        <ele>1233</ele>
        <time>2018-06-29T22:40:35.008Z</time>
      </trkpt>
      <trkpt lat="40.735916" lon="-3.99886">
        <ele>1233</ele>
        <time>2018-06-29T22:40:38.008Z</time>
      </trkpt>
      <trkpt lat="40.735955" lon="-3.998785">
        <ele>1233.43167819938</ele>
        <time>2018-06-29T22:40:41.008Z</time>
      </trkpt>
      <trkpt lat="40.736" lon="-3.99871">
        <ele>1235</ele>
        <time>2018-06-29T22:40:44.008Z</time>
      </trkpt>
      <trkpt lat="40.736051" lon="-3.998638">
        <ele>1235</ele>
        <time>2018-06-29T22:40:47.008Z</time>
      </trkpt>
      <trkpt lat="40.736098" lon="-3.998568">
        <ele>1235</ele>
        <time>2018-06-29T22:40:50.008Z</time>
      </trkpt>
      <trkpt lat="40.736141" lon="-3.998492">
        <ele>1236</ele>
        <time>2018-06-29T22:40:53.008Z</time>
      </trkpt>
      <trkpt lat="40.736185" lon="-3.998423">
        <ele>1236</ele>
        <time>2018-06-29T22:40:56.008Z</time>
      </trkpt>
      <trkpt lat="40.736234" lon="-3.998358">
        <ele>1236</ele>
        <time>2018-06-29T22:40:59.008Z</time>
      </trkpt>
      <trkpt lat="40.736291" lon="-3.998272">
        <ele>1239</ele>
        <time>2018-06-29T22:41:03.008Z</time>
      </trkpt>
      <trkpt lat="40.736335" lon="-3.998206">
        <ele>1239.208</ele>
        <time>2018-06-29T22:41:06.008Z</time>
      </trkpt>
      <trkpt lat="40.736381" lon="-3.998143">
        <ele>1240</ele>
        <time>2018-06-29T22:41:09.008Z</time>
      </trkpt>
      <trkpt lat="40.736424" lon="-3.998074">
        <ele>1241</ele>
        <time>2018-06-29T22:41:12.008Z</time>
      </trkpt>
      <trkpt lat="40.736467" lon="-3.998009">
        <ele>1241</ele>
        <time>2018-06-29T22:41:15.008Z</time>
      </trkpt>
      <trkpt lat="40.736532" lon="-3.997927">
        <ele>1241</ele>
        <time>2018-06-29T22:41:19.008Z</time>
      </trkpt>
      <trkpt lat="40.736586" lon="-3.997864">
        <ele>1242</ele>
        <time>2018-06-29T22:41:22.008Z</time>
      </trkpt>
      <trkpt lat="40.736641" lon="-3.997815">
        <ele>1242</ele>
        <time>2018-06-29T22:41:25.008Z</time>
      </trkpt>
      <trkpt lat="40.736721" lon="-3.997769">
        <ele>1242</ele>
        <time>2018-06-29T22:41:29.008Z</time>
      </trkpt>
      <trkpt lat="40.736792" lon="-3.997763">
        <ele>1243</ele>
        <time>2018-06-29T22:41:32.008Z</time>
      </trkpt>
      <trkpt lat="40.736857" lon="-3.997756">
        <ele>1243</ele>
        <time>2018-06-29T22:41:35.008Z</time>
      </trkpt>
      <trkpt lat="40.73692" lon="-3.997749">
        <ele>1243</ele>
        <time>2018-06-29T22:41:38.008Z</time>
      </trkpt>
      <trkpt lat="40.736982" lon="-3.997726">
        <ele>1243.43167819938</ele>
        <time>2018-06-29T22:41:41.008Z</time>
      </trkpt>
      <trkpt lat="40.737051" lon="-3.997682">
        <ele>1245</ele>
        <time>2018-06-29T22:41:45.008Z</time>
      </trkpt>
      <trkpt lat="40.737105" lon="-3.997648">
        <ele>1245</ele>
        <time>2018-06-29T22:41:48.008Z</time>
      </trkpt>
      <trkpt lat="40.737161" lon="-3.997605">
        <ele>1245.39636012428</ele>
        <time>2018-06-29T22:41:51.008Z</time>
      </trkpt>
      <trkpt lat="40.737223" lon="-3.997566">
        <ele>1247</ele>
        <time>2018-06-29T22:41:54.008Z</time>
      </trkpt>
      <trkpt lat="40.737287" lon="-3.997528">
        <ele>1247</ele>
        <time>2018-06-29T22:41:57.008Z</time>
      </trkpt>
      <trkpt lat="40.737348" lon="-3.997487">
        <ele>1247</ele>
        <time>2018-06-29T22:42:00.008Z</time>
      </trkpt>
      <trkpt lat="40.737416" lon="-3.997442">
        <ele>1247</ele>
        <time>2018-06-29T22:42:03.008Z</time>
      </trkpt>
      <trkpt lat="40.737475" lon="-3.997394">
        <ele>1247</ele>
        <time>2018-06-29T22:42:06.008Z</time>
      </trkpt>
      <trkpt lat="40.737538" lon="-3.997356">
        <ele>1247</ele>
        <time>2018-06-29T22:42:09.008Z</time>
      </trkpt>
      <trkpt lat="40.737595" lon="-3.997309">
        <ele>1249</ele>
        <time>2018-06-29T22:42:12.008Z</time>
      </trkpt>
      <trkpt lat="40.737676" lon="-3.997257">
        <ele>1249</ele>
        <time>2018-06-29T22:42:16.008Z</time>
      </trkpt>
      <trkpt lat="40.73774" lon="-3.997221">
        <ele>1249</ele>
        <time>2018-06-29T22:42:19.008Z</time>
      </trkpt>
      <trkpt lat="40.737794" lon="-3.997179">
        <ele>1251</ele>
        <time>2018-06-29T22:42:22.008Z</time>
      </trkpt>
      <trkpt lat="40.737854" lon="-3.99714">
        <ele>1251</ele>
        <time>2018-06-29T22:42:25.008Z</time>
      </trkpt>
      <trkpt lat="40.73791" lon="-3.997103">
        <ele>1251</ele>
        <time>2018-06-29T22:42:28.008Z</time>
      </trkpt>
      <trkpt lat="40.737966" lon="-3.997063">
        <ele>1251.41188249309</ele>
        <time>2018-06-29T22:42:31.008Z</time>
      </trkpt>
      <trkpt lat="40.738023" lon="-3.997024">
        <ele>1253</ele>
        <time>2018-06-29T22:42:34.008Z</time>
      </trkpt>
      <trkpt lat="40.738082" lon="-3.996979">
        <ele>1253</ele>
        <time>2018-06-29T22:42:37.008Z</time>
      </trkpt>
      <trkpt lat="40.738142" lon="-3.996938">
        <ele>1253</ele>
        <time>2018-06-29T22:42:40.008Z</time>
      </trkpt>
      <trkpt lat="40.738206" lon="-3.996898">
        <ele>1254</ele>
        <time>2018-06-29T22:42:43.008Z</time>
      </trkpt>
      <trkpt lat="40.73826" lon="-3.996857">
        <ele>1254</ele>
        <time>2018-06-29T22:42:46.008Z</time>
      </trkpt>
      <trkpt lat="40.738315" lon="-3.996813">
        <ele>1254</ele>
        <time>2018-06-29T22:42:49.008Z</time>
      </trkpt>
      <trkpt lat="40.738381" lon="-3.996751">
        <ele>1255</ele>
        <time>2018-06-29T22:42:53.008Z</time>
      </trkpt>
      <trkpt lat="40.738435" lon="-3.996704">
        <ele>1255</ele>
        <time>2018-06-29T22:42:56.008Z</time>
      </trkpt>
      <trkpt lat="40.738485" lon="-3.996651">
        <ele>1255</ele>
        <time>2018-06-29T22:42:59.008Z</time>
      </trkpt>
      <trkpt lat="40.738537" lon="-3.996606">
        <ele>1258</ele>
        <time>2018-06-29T22:43:02.008Z</time>
      </trkpt>
      <trkpt lat="40.738593" lon="-3.996561">
        <ele>1258</ele>
        <time>2018-06-29T22:43:05.008Z</time>
      </trkpt>
      <trkpt lat="40.738649" lon="-3.996517">
        <ele>1258</ele>
        <time>2018-06-29T22:43:08.008Z</time>
      </trkpt>
      <trkpt lat="40.738708" lon="-3.996469">
        <ele>1258</ele>
        <time>2018-06-29T22:43:11.008Z</time>
      </trkpt>
      <trkpt lat="40.738765" lon="-3.996419">
        <ele>1258</ele>
        <time>2018-06-29T22:43:14.008Z</time>
      </trkpt>
      <trkpt lat="40.738824" lon="-3.996368">
        <ele>1258</ele>
        <time>2018-06-29T22:43:17.008Z</time>
      </trkpt>
      <trkpt lat="40.738882" lon="-3.996324">
        <ele>1258</ele>
        <time>2018-06-29T22:43:20.008Z</time>
      </trkpt>
      <trkpt lat="40.738935" lon="-3.996281">
        <ele>1260</ele>
        <time>2018-06-29T22:43:23.008Z</time>
      </trkpt>
      <trkpt lat="40.73899" lon="-3.996237">
        <ele>1260</ele>
        <time>2018-06-29T22:43:26.008Z</time>
      </trkpt>
      <trkpt lat="40.739049" lon="-3.996189">
        <ele>1260</ele>
        <time>2018-06-29T22:43:29.008Z</time>
      </trkpt>
      <trkpt lat="40.739105" lon="-3.996137">
        <ele>1262</ele>
        <time>2018-06-29T22:43:32.008Z</time>
      </trkpt>
      <trkpt lat="40.739163" lon="-3.996087">
        <ele>1262</ele>
        <time>2018-06-29T22:43:35.008Z</time>
      </trkpt>
      <trkpt lat="40.739216" lon="-3.996041">
        <ele>1262</ele>
        <time>2018-06-29T22:43:38.008Z</time>
      </trkpt>
      <trkpt lat="40.739271" lon="-3.995989">
        <ele>1262</ele>
        <time>2018-06-29T22:43:41.008Z</time>
      </trkpt>
      <trkpt lat="40.739325" lon="-3.995943">
        <ele>1262</ele>
        <time>2018-06-29T22:43:44.008Z</time>
      </trkpt>
      <trkpt lat="40.739383" lon="-3.995893">
        <ele>1262</ele>
        <time>2018-06-29T22:43:47.008Z</time>
      </trkpt>
      <trkpt lat="40.739469" lon="-3.995816">
        <ele>1264</ele>
        <time>2018-06-29T22:43:52.008Z</time>
      </trkpt>
      <trkpt lat="40.739546" lon="-3.99576">
        <ele>1264</ele>
        <time>2018-06-29T22:43:56.008Z</time>
      </trkpt>
      <trkpt lat="40.739601" lon="-3.995715">
        <ele>1264</ele>
        <time>2018-06-29T22:43:59.008Z</time>
      </trkpt>
      <trkpt lat="40.739673" lon="-3.995639">
        <ele>1266</ele>
        <time>2018-06-29T22:44:03.008Z</time>
      </trkpt>
      <trkpt lat="40.739739" lon="-3.995563">
        <ele>1266</ele>
        <time>2018-06-29T22:44:07.008Z</time>
      </trkpt>
      <trkpt lat="40.739789" lon="-3.995499">
        <ele>1266</ele>
        <time>2018-06-29T22:44:10.008Z</time>
      </trkpt>
      <trkpt lat="40.739838" lon="-3.99544">
        <ele>1266</ele>
        <time>2018-06-29T22:44:13.008Z</time>
      </trkpt>
      <trkpt lat="40.73989" lon="-3.995384">
        <ele>1266</ele>
        <time>2018-06-29T22:44:16.008Z</time>
      </trkpt>
      <trkpt lat="40.739944" lon="-3.995329">
        <ele>1266</ele>
        <time>2018-06-29T22:44:19.008Z</time>
      </trkpt>
      <trkpt lat="40.740001" lon="-3.995274">
        <ele>1268</ele>
        <time>2018-06-29T22:44:22.008Z</time>
      </trkpt>
      <trkpt lat="40.740059" lon="-3.995225">
        <ele>1268</ele>
        <time>2018-06-29T22:44:25.008Z</time>
      </trkpt>
      <trkpt lat="40.740104" lon="-3.995192">
        <ele>1268</ele>
        <time>2018-06-29T22:44:27.008Z</time>
      </trkpt>
      <trkpt lat="40.740169" lon="-3.995152">
        <ele>1268</ele>
        <time>2018-06-29T22:44:30.008Z</time>
      </trkpt>
      <trkpt lat="40.740236" lon="-3.995125">
        <ele>1270</ele>
        <time>2018-06-29T22:44:33.008Z</time>
      </trkpt>
      <trkpt lat="40.740306" lon="-3.9951">
        <ele>1270</ele>
        <time>2018-06-29T22:44:36.008Z</time>
      </trkpt>
      <trkpt lat="40.740374" lon="-3.995077">
        <ele>1270</ele>
        <time>2018-06-29T22:44:39.008Z</time>
      </trkpt>
      <trkpt lat="40.740437" lon="-3.995064">
        <ele>1271</ele>
        <time>2018-06-29T22:44:42.008Z</time>
      </trkpt>
      <trkpt lat="40.740515" lon="-3.995033">
        <ele>1271</ele>
        <time>2018-06-29T22:44:46.008Z</time>
      </trkpt>
      <trkpt lat="40.740592" lon="-3.995009">
        <ele>1271</ele>
        <time>2018-06-29T22:44:50.008Z</time>
      </trkpt>
      <trkpt lat="40.740675" lon="-3.994978">
        <ele>1273</ele>
        <time>2018-06-29T22:44:54.008Z</time>
      </trkpt>
      <trkpt lat="40.740743" lon="-3.994956">
        <ele>1273</ele>
        <time>2018-06-29T22:44:57.008Z</time>
      </trkpt>
      <trkpt lat="40.740827" lon="-3.994941">
        <ele>1273.61782373964</ele>
        <time>2018-06-29T22:45:01.008Z</time>
      </trkpt>
      <trkpt lat="40.740896" lon="-3.994916">
        <ele>1276</ele>
        <time>2018-06-29T22:45:04.008Z</time>
      </trkpt>
      <trkpt lat="40.740967" lon="-3.994905">
        <ele>1277</ele>
        <time>2018-06-29T22:45:07.008Z</time>
      </trkpt>
      <trkpt lat="40.741028" lon="-3.994888">
        <ele>1277</ele>
        <time>2018-06-29T22:45:10.008Z</time>
      </trkpt>
      <trkpt lat="40.741092" lon="-3.994874">
        <ele>1278</ele>
        <time>2018-06-29T22:45:13.008Z</time>
      </trkpt>
      <trkpt lat="40.741155" lon="-3.994861">
        <ele>1278</ele>
        <time>2018-06-29T22:45:16.008Z</time>
      </trkpt>
      <trkpt lat="40.741217" lon="-3.994849">
        <ele>1278</ele>
        <time>2018-06-29T22:45:19.008Z</time>
      </trkpt>
      <trkpt lat="40.741297" lon="-3.994837">
        <ele>1279</ele>
        <time>2018-06-29T22:45:23.008Z</time>
      </trkpt>
      <trkpt lat="40.741358" lon="-3.994838">
        <ele>1279</ele>
        <time>2018-06-29T22:45:26.008Z</time>
      </trkpt>
      <trkpt lat="40.741426" lon="-3.994833">
        <ele>1279</ele>
        <time>2018-06-29T22:45:29.008Z</time>
      </trkpt>
      <trkpt lat="40.741489" lon="-3.994814">
        <ele>1281</ele>
        <time>2018-06-29T22:45:32.008Z</time>
      </trkpt>
      <trkpt lat="40.741559" lon="-3.994814">
        <ele>1281</ele>
        <time>2018-06-29T22:45:35.008Z</time>
      </trkpt>
      <trkpt lat="40.741627" lon="-3.994812">
        <ele>1281</ele>
        <time>2018-06-29T22:45:38.008Z</time>
      </trkpt>
      <trkpt lat="40.741695" lon="-3.994809">
        <ele>1281.43167819938</ele>
        <time>2018-06-29T22:45:41.008Z</time>
      </trkpt>
      <trkpt lat="40.741779" lon="-3.994797">
        <ele>1283</ele>
        <time>2018-06-29T22:45:45.008Z</time>
      </trkpt>
      <trkpt lat="40.741835" lon="-3.994774">
        <ele>1283</ele>
        <time>2018-06-29T22:45:48.008Z</time>
      </trkpt>
      <trkpt lat="40.741904" lon="-3.994761">
        <ele>1285</ele>
        <time>2018-06-29T22:45:52.008Z</time>
      </trkpt>
      <trkpt lat="40.741972" lon="-3.994746">
        <ele>1285</ele>
        <time>2018-06-29T22:45:55.008Z</time>
      </trkpt>
      <trkpt lat="40.742038" lon="-3.994736">
        <ele>1285</ele>
        <time>2018-06-29T22:45:58.008Z</time>
      </trkpt>
      <trkpt lat="40.742101" lon="-3.99472">
        <ele>1285.20594124655</ele>
        <time>2018-06-29T22:46:01.008Z</time>
      </trkpt>
      <trkpt lat="40.74216" lon="-3.994705">
        <ele>1286</ele>
        <time>2018-06-29T22:46:04.008Z</time>
      </trkpt>
      <trkpt lat="40.742219" lon="-3.994685">
        <ele>1286</ele>
        <time>2018-06-29T22:46:07.008Z</time>
      </trkpt>
      <trkpt lat="40.742296" lon="-3.994655">
        <ele>1286.21583909969</ele>
        <time>2018-06-29T22:46:11.008Z</time>
      </trkpt>
      <trkpt lat="40.742376" lon="-3.994615">
        <ele>1287</ele>
        <time>2018-06-29T22:46:15.008Z</time>
      </trkpt>
      <trkpt lat="40.742434" lon="-3.994585">
        <ele>1287</ele>
        <time>2018-06-29T22:46:18.008Z</time>
      </trkpt>
      <trkpt lat="40.742494" lon="-3.994553">
        <ele>1287.39636012428</ele>
        <time>2018-06-29T22:46:21.008Z</time>
      </trkpt>
      <trkpt lat="40.742568" lon="-3.99451">
        <ele>1289</ele>
        <time>2018-06-29T22:46:25.008Z</time>
      </trkpt>
      <trkpt lat="40.742648" lon="-3.994471">
        <ele>1289</ele>
        <time>2018-06-29T22:46:29.008Z</time>
      </trkpt>
      <trkpt lat="40.742725" lon="-3.994447">
        <ele>1290</ele>
        <time>2018-06-29T22:46:33.008Z</time>
      </trkpt>
      <trkpt lat="40.74279" lon="-3.994415">
        <ele>1290</ele>
        <time>2018-06-29T22:46:36.008Z</time>
      </trkpt>
      <trkpt lat="40.74285" lon="-3.994381">
        <ele>1290</ele>
        <time>2018-06-29T22:46:39.008Z</time>
      </trkpt>
      <trkpt lat="40.742909" lon="-3.99434">
        <ele>1292</ele>
        <time>2018-06-29T22:46:42.008Z</time>
      </trkpt>
      <trkpt lat="40.742972" lon="-3.994307">
        <ele>1292</ele>
        <time>2018-06-29T22:46:45.008Z</time>
      </trkpt>
      <trkpt lat="40.743034" lon="-3.994278">
        <ele>1292</ele>
        <time>2018-06-29T22:46:48.008Z</time>
      </trkpt>
      <trkpt lat="40.7431" lon="-3.994254">
        <ele>1292.19818006214</ele>
        <time>2018-06-29T22:46:51.008Z</time>
      </trkpt>
      <trkpt lat="40.743163" lon="-3.99423">
        <ele>1293</ele>
        <time>2018-06-29T22:46:54.008Z</time>
      </trkpt>
      <trkpt lat="40.743224" lon="-3.99421">
        <ele>1293</ele>
        <time>2018-06-29T22:46:57.008Z</time>
      </trkpt>
      <trkpt lat="40.743288" lon="-3.994194">
        <ele>1293</ele>
        <time>2018-06-29T22:47:00.008Z</time>
      </trkpt>
      <trkpt lat="40.743352" lon="-3.994168">
        <ele>1295</ele>
        <time>2018-06-29T22:47:03.008Z</time>
      </trkpt>
      <trkpt lat="40.74341" lon="-3.994137">
        <ele>1295</ele>
        <time>2018-06-29T22:47:06.008Z</time>
      </trkpt>
      <trkpt lat="40.743471" lon="-3.99411">
        <ele>1295</ele>
        <time>2018-06-29T22:47:09.008Z</time>
      </trkpt>
      <trkpt lat="40.743537" lon="-3.994083">
        <ele>1297</ele>
        <time>2018-06-29T22:47:12.008Z</time>
      </trkpt>
      <trkpt lat="40.74361" lon="-3.994056">
        <ele>1297</ele>
        <time>2018-06-29T22:47:15.008Z</time>
      </trkpt>
      <trkpt lat="40.743676" lon="-3.994033">
        <ele>1297</ele>
        <time>2018-06-29T22:47:18.008Z</time>
      </trkpt>
      <trkpt lat="40.743741" lon="-3.994012">
        <ele>1297.39636012428</ele>
        <time>2018-06-29T22:47:21.008Z</time>
      </trkpt>
      <trkpt lat="40.743807" lon="-3.99399">
        <ele>1299</ele>
        <time>2018-06-29T22:47:24.008Z</time>
      </trkpt>
      <trkpt lat="40.743874" lon="-3.993968">
        <ele>1299</ele>
        <time>2018-06-29T22:47:27.008Z</time>
      </trkpt>
      <trkpt lat="40.74396" lon="-3.993934">
        <ele>1299.20594124655</ele>
        <time>2018-06-29T22:47:31.008Z</time>
      </trkpt>
      <trkpt lat="40.744044" lon="-3.993884">
        <ele>1300</ele>
        <time>2018-06-29T22:47:35.008Z</time>
      </trkpt>
      <trkpt lat="40.744123" lon="-3.993824">
        <ele>1300</ele>
        <time>2018-06-29T22:47:39.008Z</time>
      </trkpt>
      <trkpt lat="40.744194" lon="-3.993767">
        <ele>1302</ele>
        <time>2018-06-29T22:47:43.008Z</time>
      </trkpt>
      <trkpt lat="40.744253" lon="-3.993706">
        <ele>1302</ele>
        <time>2018-06-29T22:47:46.008Z</time>
      </trkpt>
      <trkpt lat="40.74431" lon="-3.993653">
        <ele>1302</ele>
        <time>2018-06-29T22:47:49.008Z</time>
      </trkpt>
      <trkpt lat="40.744362" lon="-3.993602">
        <ele>1304</ele>
        <time>2018-06-29T22:47:52.008Z</time>
      </trkpt>
      <trkpt lat="40.744432" lon="-3.993538">
        <ele>1304</ele>
        <time>2018-06-29T22:47:56.008Z</time>
      </trkpt>
      <trkpt lat="40.744518" lon="-3.99345">
        <ele>1304.41188249309</ele>
        <time>2018-06-29T22:48:01.008Z</time>
      </trkpt>
      <trkpt lat="40.74458" lon="-3.993397">
        <ele>1306</ele>
        <time>2018-06-29T22:48:04.008Z</time>
      </trkpt>
      <trkpt lat="40.744636" lon="-3.993345">
        <ele>1306</ele>
        <time>2018-06-29T22:48:07.008Z</time>
      </trkpt>
      <trkpt lat="40.744694" lon="-3.993293">
        <ele>1306</ele>
        <time>2018-06-29T22:48:10.008Z</time>
      </trkpt>
      <trkpt lat="40.74475" lon="-3.99324">
        <ele>1308</ele>
        <time>2018-06-29T22:48:13.008Z</time>
      </trkpt>
      <trkpt lat="40.74481" lon="-3.993183">
        <ele>1308</ele>
        <time>2018-06-29T22:48:16.008Z</time>
      </trkpt>
      <trkpt lat="40.744864" lon="-3.993128">
        <ele>1308</ele>
        <time>2018-06-29T22:48:19.008Z</time>
      </trkpt>
      <trkpt lat="40.74492" lon="-3.993076">
        <ele>1309</ele>
        <time>2018-06-29T22:48:22.008Z</time>
      </trkpt>
      <trkpt lat="40.744974" lon="-3.993027">
        <ele>1309</ele>
        <time>2018-06-29T22:48:25.008Z</time>
      </trkpt>
      <trkpt lat="40.74503" lon="-3.992975">
        <ele>1309</ele>
        <time>2018-06-29T22:48:28.008Z</time>
      </trkpt>
      <trkpt lat="40.745082" lon="-3.992926">
        <ele>1309.41188249309</ele>
        <time>2018-06-29T22:48:31.008Z</time>
      </trkpt>
      <trkpt lat="40.745136" lon="-3.992877">
        <ele>1311</ele>
        <time>2018-06-29T22:48:34.008Z</time>
      </trkpt>
      <trkpt lat="40.745196" lon="-3.992837">
        <ele>1311</ele>
        <time>2018-06-29T22:48:37.008Z</time>
      </trkpt>
      <trkpt lat="40.74526" lon="-3.9928">
        <ele>1311</ele>
        <time>2018-06-29T22:48:40.008Z</time>
      </trkpt>
      <trkpt lat="40.745326" lon="-3.992766">
        <ele>1313</ele>
        <time>2018-06-29T22:48:43.008Z</time>
      </trkpt>
      <trkpt lat="40.745391" lon="-3.992735">
        <ele>1313</ele>
        <time>2018-06-29T22:48:46.008Z</time>
      </trkpt>
      <trkpt lat="40.745456" lon="-3.992701">
        <ele>1313</ele>
        <time>2018-06-29T22:48:49.008Z</time>
      </trkpt>
      <trkpt lat="40.745524" lon="-3.992672">
        <ele>1313</ele>
        <time>2018-06-29T22:48:52.008Z</time>
      </trkpt>
      <trkpt lat="40.745592" lon="-3.992643">
        <ele>1313</ele>
        <time>2018-06-29T22:48:55.008Z</time>
      </trkpt>
      <trkpt lat="40.745658" lon="-3.992611">
        <ele>1313</ele>
        <time>2018-06-29T22:48:58.008Z</time>
      </trkpt>
      <trkpt lat="40.745723" lon="-3.992585">
        <ele>1313.41188249309</ele>
        <time>2018-06-29T22:49:01.008Z</time>
      </trkpt>
      <trkpt lat="40.745788" lon="-3.992556">
        <ele>1315</ele>
        <time>2018-06-29T22:49:04.008Z</time>
      </trkpt>
      <trkpt lat="40.745852" lon="-3.992525">
        <ele>1315</ele>
        <time>2018-06-29T22:49:07.008Z</time>
      </trkpt>
      <trkpt lat="40.745915" lon="-3.992494">
        <ele>1315</ele>
        <time>2018-06-29T22:49:10.008Z</time>
      </trkpt>
      <trkpt lat="40.745979" lon="-3.992464">
        <ele>1317</ele>
        <time>2018-06-29T22:49:13.008Z</time>
      </trkpt>
      <trkpt lat="40.746041" lon="-3.992441">
        <ele>1317</ele>
        <time>2018-06-29T22:49:16.008Z</time>
      </trkpt>
      <trkpt lat="40.746105" lon="-3.992416">
        <ele>1317</ele>
        <time>2018-06-29T22:49:19.008Z</time>
      </trkpt>
      <trkpt lat="40.746171" lon="-3.992387">
        <ele>1319</ele>
        <time>2018-06-29T22:49:22.008Z</time>
      </trkpt>
      <trkpt lat="40.746236" lon="-3.992355">
        <ele>1319</ele>
        <time>2018-06-29T22:49:25.008Z</time>
      </trkpt>
      <trkpt lat="40.746279" lon="-3.992336">
        <ele>1319</ele>
        <time>2018-06-29T22:49:27.008Z</time>
      </trkpt>
      <trkpt lat="40.746344" lon="-3.992306">
        <ele>1319</ele>
        <time>2018-06-29T22:49:30.008Z</time>
      </trkpt>
      <trkpt lat="40.746406" lon="-3.99228">
        <ele>1320</ele>
        <time>2018-06-29T22:49:33.008Z</time>
      </trkpt>
      <trkpt lat="40.74647" lon="-3.992255">
        <ele>1320</ele>
        <time>2018-06-29T22:49:36.008Z</time>
      </trkpt>
      <trkpt lat="40.746535" lon="-3.992225">
        <ele>1320</ele>
        <time>2018-06-29T22:49:39.008Z</time>
      </trkpt>
      <trkpt lat="40.746602" lon="-3.992197">
        <ele>1321</ele>
        <time>2018-06-29T22:49:42.008Z</time>
      </trkpt>
      <trkpt lat="40.746687" lon="-3.992157">
        <ele>1321</ele>
        <time>2018-06-29T22:49:46.008Z</time>
      </trkpt>
      <trkpt lat="40.746773" lon="-3.992123">
        <ele>1321</ele>
        <time>2018-06-29T22:49:50.008Z</time>
      </trkpt>
      <trkpt lat="40.746854" lon="-3.992092">
        <ele>1323</ele>
        <time>2018-06-29T22:49:54.008Z</time>
      </trkpt>
      <trkpt lat="40.746938" lon="-3.992063">
        <ele>1323</ele>
        <time>2018-06-29T22:49:58.008Z</time>
      </trkpt>
      <trkpt lat="40.74702" lon="-3.992026">
        <ele>1326</ele>
        <time>2018-06-29T22:50:02.008Z</time>
      </trkpt>
      <trkpt lat="40.74711" lon="-3.991998">
        <ele>1326</ele>
        <time>2018-06-29T22:50:06.008Z</time>
      </trkpt>
      <trkpt lat="40.747198" lon="-3.991982">
        <ele>1326</ele>
        <time>2018-06-29T22:50:10.008Z</time>
      </trkpt>
      <trkpt lat="40.747284" lon="-3.991984">
        <ele>1327</ele>
        <time>2018-06-29T22:50:14.008Z</time>
      </trkpt>
      <trkpt lat="40.747366" lon="-3.991992">
        <ele>1327</ele>
        <time>2018-06-29T22:50:18.008Z</time>
      </trkpt>
      <trkpt lat="40.74745" lon="-3.992015">
        <ele>1329</ele>
        <time>2018-06-29T22:50:22.008Z</time>
      </trkpt>
      <trkpt lat="40.74754" lon="-3.992036">
        <ele>1329</ele>
        <time>2018-06-29T22:50:26.008Z</time>
      </trkpt>
      <trkpt lat="40.74762" lon="-3.992067">
        <ele>1329</ele>
        <time>2018-06-29T22:50:30.008Z</time>
      </trkpt>
      <trkpt lat="40.747698" lon="-3.9921">
        <ele>1331</ele>
        <time>2018-06-29T22:50:34.008Z</time>
      </trkpt>
      <trkpt lat="40.747777" lon="-3.992114">
        <ele>1331</ele>
        <time>2018-06-29T22:50:38.008Z</time>
      </trkpt>
      <trkpt lat="40.747862" lon="-3.992139">
        <ele>1333</ele>
        <time>2018-06-29T22:50:42.008Z</time>
      </trkpt>
      <trkpt lat="40.747944" lon="-3.992159">
        <ele>1333</ele>
        <time>2018-06-29T22:50:46.008Z</time>
      </trkpt>
      <trkpt lat="40.748028" lon="-3.992188">
        <ele>1333</ele>
        <time>2018-06-29T22:50:50.008Z</time>
      </trkpt>
      <trkpt lat="40.748108" lon="-3.992213">
        <ele>1335</ele>
        <time>2018-06-29T22:50:54.008Z</time>
      </trkpt>
      <trkpt lat="40.748192" lon="-3.99224">
        <ele>1335</ele>
        <time>2018-06-29T22:50:58.008Z</time>
      </trkpt>
      <trkpt lat="40.748279" lon="-3.99227">
        <ele>1337</ele>
        <time>2018-06-29T22:51:02.008Z</time>
      </trkpt>
      <trkpt lat="40.748364" lon="-3.992296">
        <ele>1337</ele>
        <time>2018-06-29T22:51:06.008Z</time>
      </trkpt>
      <trkpt lat="40.748444" lon="-3.992322">
        <ele>1337</ele>
        <time>2018-06-29T22:51:10.008Z</time>
      </trkpt>
      <trkpt lat="40.74853" lon="-3.992358">
        <ele>1339</ele>
        <time>2018-06-29T22:51:14.008Z</time>
      </trkpt>
      <trkpt lat="40.748623" lon="-3.992393">
        <ele>1339</ele>
        <time>2018-06-29T22:51:19.008Z</time>
      </trkpt>
      <trkpt lat="40.748699" lon="-3.992425">
        <ele>1341</ele>
        <time>2018-06-29T22:51:23.008Z</time>
      </trkpt>
      <trkpt lat="40.748782" lon="-3.992445">
        <ele>1341</ele>
        <time>2018-06-29T22:51:27.008Z</time>
      </trkpt>
      <trkpt lat="40.748864" lon="-3.992477">
        <ele>1341.41188249309</ele>
        <time>2018-06-29T22:51:31.008Z</time>
      </trkpt>
      <trkpt lat="40.748953" lon="-3.992513">
        <ele>1343</ele>
        <time>2018-06-29T22:51:36.008Z</time>
      </trkpt>
      <trkpt lat="40.74903" lon="-3.992534">
        <ele>1343</ele>
        <time>2018-06-29T22:51:40.008Z</time>
      </trkpt>
      <trkpt lat="40.749108" lon="-3.992581">
        <ele>1345</ele>
        <time>2018-06-29T22:51:44.008Z</time>
      </trkpt>
      <trkpt lat="40.749207" lon="-3.992632">
        <ele>1345</ele>
        <time>2018-06-29T22:51:49.008Z</time>
      </trkpt>
      <trkpt lat="40.749285" lon="-3.99268">
        <ele>1347</ele>
        <time>2018-06-29T22:51:53.008Z</time>
      </trkpt>
      <trkpt lat="40.749365" lon="-3.992714">
        <ele>1347</ele>
        <time>2018-06-29T22:51:57.008Z</time>
      </trkpt>
      <trkpt lat="40.749442" lon="-3.992751">
        <ele>1347.41188249309</ele>
        <time>2018-06-29T22:52:01.008Z</time>
      </trkpt>
      <trkpt lat="40.749526" lon="-3.99279">
        <ele>1349</ele>
        <time>2018-06-29T22:52:05.008Z</time>
      </trkpt>
      <trkpt lat="40.749621" lon="-3.992827">
        <ele>1349</ele>
        <time>2018-06-29T22:52:10.008Z</time>
      </trkpt>
      <trkpt lat="40.749702" lon="-3.992856">
        <ele>1350</ele>
        <time>2018-06-29T22:52:14.008Z</time>
      </trkpt>
      <trkpt lat="40.749789" lon="-3.99288">
        <ele>1350</ele>
        <time>2018-06-29T22:52:19.008Z</time>
      </trkpt>
      <trkpt lat="40.749868" lon="-3.992901">
        <ele>1352</ele>
        <time>2018-06-29T22:52:24.008Z</time>
      </trkpt>
      <trkpt lat="40.749945" lon="-3.99292">
        <ele>1352</ele>
        <time>2018-06-29T22:52:30.008Z</time>
      </trkpt>
      <trkpt lat="40.750017" lon="-3.99293">
        <ele>1354</ele>
        <time>2018-06-29T22:52:35.008Z</time>
      </trkpt>
      <trkpt lat="40.750095" lon="-3.992946">
        <ele>1354</ele>
        <time>2018-06-29T22:52:40.008Z</time>
      </trkpt>
      <trkpt lat="40.750155" lon="-3.992952">
        <ele>1356</ele>
        <time>2018-06-29T22:52:44.008Z</time>
      </trkpt>
      <trkpt lat="40.750224" lon="-3.992972">
        <ele>1356</ele>
        <time>2018-06-29T22:52:49.008Z</time>
      </trkpt>
      <trkpt lat="40.750264" lon="-3.992982">
        <ele>1357</ele>
        <time>2018-06-29T22:52:52.008Z</time>
      </trkpt>
      <trkpt lat="40.750308" lon="-3.992992">
        <ele>1357</ele>
        <time>2018-06-29T22:52:55.008Z</time>
      </trkpt>
      <trkpt lat="40.750365" lon="-3.993005">
        <ele>1357</ele>
        <time>2018-06-29T22:52:59.008Z</time>
      </trkpt>
      <trkpt lat="40.75044" lon="-3.993019">
        <ele>1359</ele>
        <time>2018-06-29T22:53:04.008Z</time>
      </trkpt>
      <trkpt lat="40.75051" lon="-3.993029">
        <ele>1359</ele>
        <time>2018-06-29T22:53:09.008Z</time>
      </trkpt>
      <trkpt lat="40.750562" lon="-3.993046">
        <ele>1360</ele>
        <time>2018-06-29T22:53:13.008Z</time>
      </trkpt>
      <trkpt lat="40.750618" lon="-3.993066">
        <ele>1360</ele>
        <time>2018-06-29T22:53:17.008Z</time>
      </trkpt>
      <trkpt lat="40.750675" lon="-3.993113">
        <ele>1362</ele>
        <time>2018-06-29T22:53:22.008Z</time>
      </trkpt>
      <trkpt lat="40.750735" lon="-3.993163">
        <ele>1362</ele>
        <time>2018-06-29T22:53:27.008Z</time>
      </trkpt>
      <trkpt lat="40.750791" lon="-3.993213">
        <ele>1364</ele>
        <time>2018-06-29T22:53:32.008Z</time>
      </trkpt>
      <trkpt lat="40.750838" lon="-3.993276">
        <ele>1364</ele>
        <time>2018-06-29T22:53:37.008Z</time>
      </trkpt>
      <trkpt lat="40.750888" lon="-3.9933">
        <ele>1364.21583909969</ele>
        <time>2018-06-29T22:53:41.008Z</time>
      </trkpt>
      <trkpt lat="40.750945" lon="-3.993312">
        <ele>1365</ele>
        <time>2018-06-29T22:53:45.008Z</time>
      </trkpt>
      <trkpt lat="40.751017" lon="-3.993316">
        <ele>1365</ele>
        <time>2018-06-29T22:53:50.008Z</time>
      </trkpt>
      <trkpt lat="40.751091" lon="-3.993304">
        <ele>1367</ele>
        <time>2018-06-29T22:53:56.008Z</time>
      </trkpt>
      <trkpt lat="40.751153" lon="-3.993299">
        <ele>1367.20594124655</ele>
        <time>2018-06-29T22:54:01.008Z</time>
      </trkpt>
      <trkpt lat="40.751223" lon="-3.993297">
        <ele>1368</ele>
        <time>2018-06-29T22:54:05.008Z</time>
      </trkpt>
      <trkpt lat="40.751288" lon="-3.993292">
        <ele>1368</ele>
        <time>2018-06-29T22:54:09.008Z</time>
      </trkpt>
      <trkpt lat="40.751349" lon="-3.993284">
        <ele>1369</ele>
        <time>2018-06-29T22:54:13.008Z</time>
      </trkpt>
      <trkpt lat="40.751408" lon="-3.993273">
        <ele>1369</ele>
        <time>2018-06-29T22:54:17.008Z</time>
      </trkpt>
      <trkpt lat="40.751475" lon="-3.993263">
        <ele>1371</ele>
        <time>2018-06-29T22:54:22.008Z</time>
      </trkpt>
      <trkpt lat="40.751546" lon="-3.993249">
        <ele>1371</ele>
        <time>2018-06-29T22:54:27.008Z</time>
      </trkpt>
      <trkpt lat="40.751611" lon="-3.993248">
        <ele>1373</ele>
        <time>2018-06-29T22:54:32.008Z</time>
      </trkpt>
      <trkpt lat="40.751691" lon="-3.993244">
        <ele>1373</ele>
        <time>2018-06-29T22:54:38.008Z</time>
      </trkpt>
      <trkpt lat="40.751771" lon="-3.993242">
        <ele>1374</ele>
        <time>2018-06-29T22:54:43.008Z</time>
      </trkpt>
      <trkpt lat="40.751852" lon="-3.993246">
        <ele>1374</ele>
        <time>2018-06-29T22:54:48.008Z</time>
      </trkpt>
      <trkpt lat="40.751931" lon="-3.993247">
        <ele>1375</ele>
        <time>2018-06-29T22:54:53.008Z</time>
      </trkpt>
      <trkpt lat="40.751961" lon="-3.993252">
        <ele>1375</ele>
        <time>2018-06-29T22:54:55.008Z</time>
      </trkpt>
      <trkpt lat="40.752029" lon="-3.993248">
        <ele>1376</ele>
        <time>2018-06-29T22:55:00.008Z</time>
      </trkpt>
      <trkpt lat="40.752083" lon="-3.99324">
        <ele>1377</ele>
        <time>2018-06-29T22:55:05.008Z</time>
      </trkpt>
      <trkpt lat="40.752179" lon="-3.993222">
        <ele>1379</ele>
        <time>2018-06-29T22:55:12.008Z</time>
      </trkpt>
      <trkpt lat="40.75228" lon="-3.993213">
        <ele>1379</ele>
        <time>2018-06-29T22:55:19.008Z</time>
      </trkpt>
      <trkpt lat="40.752392" lon="-3.993211">
        <ele>1380</ele>
        <time>2018-06-29T22:55:27.008Z</time>
      </trkpt>
      <trkpt lat="40.75244" lon="-3.993211">
        <ele>1380</ele>
        <time>2018-06-29T22:55:30.008Z</time>
      </trkpt>
      <trkpt lat="40.752524" lon="-3.993231">
        <ele>1381</ele>
        <time>2018-06-29T22:55:35.008Z</time>
      </trkpt>
      <trkpt lat="40.752622" lon="-3.993263">
        <ele>1383</ele>
        <time>2018-06-29T22:55:42.008Z</time>
      </trkpt>
      <trkpt lat="40.752716" lon="-3.9933">
        <ele>1383</ele>
        <time>2018-06-29T22:55:48.008Z</time>
      </trkpt>
      <trkpt lat="40.752788" lon="-3.993348">
        <ele>1384</ele>
        <time>2018-06-29T22:55:54.008Z</time>
      </trkpt>
      <trkpt lat="40.752873" lon="-3.993392">
        <ele>1384</ele>
        <time>2018-06-29T22:56:00.008Z</time>
      </trkpt>
      <trkpt lat="40.752952" lon="-3.993445">
        <ele>1386</ele>
        <time>2018-06-29T22:56:06.008Z</time>
      </trkpt>
      <trkpt lat="40.753028" lon="-3.993516">
        <ele>1387</ele>
        <time>2018-06-29T22:56:16.008Z</time>
      </trkpt>
      <trkpt lat="40.753114" lon="-3.9936">
        <ele>1389</ele>
        <time>2018-06-29T22:56:23.008Z</time>
      </trkpt>
      <trkpt lat="40.753198" lon="-3.993678">
        <ele>1389</ele>
        <time>2018-06-29T22:56:29.008Z</time>
      </trkpt>
      <trkpt lat="40.753289" lon="-3.993761">
        <ele>1391</ele>
        <time>2018-06-29T22:56:36.008Z</time>
      </trkpt>
      <trkpt lat="40.75336" lon="-3.993834">
        <ele>1391.21583909969</ele>
        <time>2018-06-29T22:56:41.008Z</time>
      </trkpt>
      <trkpt lat="40.753429" lon="-3.993907">
        <ele>1392</ele>
        <time>2018-06-29T22:56:47.008Z</time>
      </trkpt>
      <trkpt lat="40.753492" lon="-3.994">
        <ele>1393</ele>
        <time>2018-06-29T22:56:53.008Z</time>
      </trkpt>
      <trkpt lat="40.753543" lon="-3.994058">
        <ele>1393</ele>
        <time>2018-06-29T22:56:58.008Z</time>
      </trkpt>
      <trkpt lat="40.753609" lon="-3.994103">
        <ele>1394</ele>
        <time>2018-06-29T22:57:03.008Z</time>
      </trkpt>
      <trkpt lat="40.75366" lon="-3.994151">
        <ele>1394</ele>
        <time>2018-06-29T22:57:07.008Z</time>
      </trkpt>
      <trkpt lat="40.753728" lon="-3.9942">
        <ele>1396</ele>
        <time>2018-06-29T22:57:13.008Z</time>
      </trkpt>
      <trkpt lat="40.75381" lon="-3.994237">
        <ele>1396</ele>
        <time>2018-06-29T22:57:19.008Z</time>
      </trkpt>
      <trkpt lat="40.75389" lon="-3.994277">
        <ele>1397</ele>
        <time>2018-06-29T22:57:25.008Z</time>
      </trkpt>
      <trkpt lat="40.753973" lon="-3.994323">
        <ele>1397.21372369395</ele>
        <time>2018-06-29T22:57:31.008Z</time>
      </trkpt>
      <trkpt lat="40.754054" lon="-3.994332">
        <ele>1398</ele>
        <time>2018-06-29T22:57:37.008Z</time>
      </trkpt>
      <trkpt lat="40.754162" lon="-3.99433">
        <ele>1400</ele>
        <time>2018-06-29T22:57:44.008Z</time>
      </trkpt>
      <trkpt lat="40.754261" lon="-3.994338">
        <ele>1400.19818006214</ele>
        <time>2018-06-29T22:57:51.008Z</time>
      </trkpt>
      <trkpt lat="40.754375" lon="-3.994336">
        <ele>1401</ele>
        <time>2018-06-29T22:58:00.008Z</time>
      </trkpt>
      <trkpt lat="40.754489" lon="-3.994316">
        <ele>1402</ele>
        <time>2018-06-29T22:58:08.008Z</time>
      </trkpt>
      <trkpt lat="40.754594" lon="-3.994314">
        <ele>1404</ele>
        <time>2018-06-29T22:58:17.008Z</time>
      </trkpt>
      <trkpt lat="40.754695" lon="-3.994309">
        <ele>1405</ele>
        <time>2018-06-29T22:58:24.008Z</time>
      </trkpt>
      <trkpt lat="40.754805" lon="-3.994304">
        <ele>1405.21372369395</ele>
        <time>2018-06-29T22:58:31.008Z</time>
      </trkpt>
      <trkpt lat="40.75492" lon="-3.994291">
        <ele>1406</ele>
        <time>2018-06-29T22:58:38.008Z</time>
      </trkpt>
      <trkpt lat="40.755017" lon="-3.994258">
        <ele>1408</ele>
        <time>2018-06-29T22:58:44.008Z</time>
      </trkpt>
      <trkpt lat="40.755108" lon="-3.99423">
        <ele>1408</ele>
        <time>2018-06-29T22:58:50.008Z</time>
      </trkpt>
      <trkpt lat="40.755202" lon="-3.994196">
        <ele>1410</ele>
        <time>2018-06-29T22:58:56.008Z</time>
      </trkpt>
      <trkpt lat="40.755298" lon="-3.994148">
        <ele>1410</ele>
        <time>2018-06-29T22:59:03.008Z</time>
      </trkpt>
      <trkpt lat="40.755383" lon="-3.994082">
        <ele>1410</ele>
        <time>2018-06-29T22:59:09.008Z</time>
      </trkpt>
      <trkpt lat="40.755473" lon="-3.994025">
        <ele>1412</ele>
        <time>2018-06-29T22:59:16.008Z</time>
      </trkpt>
      <trkpt lat="40.755571" lon="-3.993992">
        <ele>1414</ele>
        <time>2018-06-29T22:59:24.008Z</time>
      </trkpt>
      <trkpt lat="40.755663" lon="-3.993918">
        <ele>1416</ele>
        <time>2018-06-29T22:59:33.008Z</time>
      </trkpt>
      <trkpt lat="40.755758" lon="-3.993866">
        <ele>1416</ele>
        <time>2018-06-29T22:59:40.008Z</time>
      </trkpt>
      <trkpt lat="40.755864" lon="-3.993822">
        <ele>1417</ele>
        <time>2018-06-29T22:59:47.008Z</time>
      </trkpt>
      <trkpt lat="40.755955" lon="-3.993766">
        <ele>1419</ele>
        <time>2018-06-29T22:59:54.008Z</time>
      </trkpt>
      <trkpt lat="40.756049" lon="-3.99369">
        <ele>1419</ele>
        <time>2018-06-29T23:00:00.008Z</time>
      </trkpt>
      <trkpt lat="40.756144" lon="-3.993629">
        <ele>1421</ele>
        <time>2018-06-29T23:00:08.008Z</time>
      </trkpt>
      <trkpt lat="40.756242" lon="-3.993565">
        <ele>1422</ele>
        <time>2018-06-29T23:00:18.008Z</time>
      </trkpt>
      <trkpt lat="40.756337" lon="-3.993503">
        <ele>1424</ele>
        <time>2018-06-29T23:00:24.008Z</time>
      </trkpt>
      <trkpt lat="40.756449" lon="-3.993466">
        <ele>1424</ele>
        <time>2018-06-29T23:00:31.008Z</time>
      </trkpt>
      <trkpt lat="40.756559" lon="-3.99343">
        <ele>1424</ele>
        <time>2018-06-29T23:00:38.008Z</time>
      </trkpt>
      <trkpt lat="40.756653" lon="-3.993372">
        <ele>1426</ele>
        <time>2018-06-29T23:00:45.008Z</time>
      </trkpt>
      <trkpt lat="40.756751" lon="-3.99333">
        <ele>1426.1311137343</ele>
        <time>2018-06-29T23:00:53.008Z</time>
      </trkpt>
      <trkpt lat="40.756847" lon="-3.993293">
        <ele>1427</ele>
        <time>2018-06-29T23:01:00.008Z</time>
      </trkpt>
      <trkpt lat="40.756951" lon="-3.993287">
        <ele>1428</ele>
        <time>2018-06-29T23:01:08.008Z</time>
      </trkpt>
      <trkpt lat="40.757056" lon="-3.993297">
        <ele>1429</ele>
        <time>2018-06-29T23:01:15.008Z</time>
      </trkpt>
      <trkpt lat="40.757165" lon="-3.993305">
        <ele>1430</ele>
        <time>2018-06-29T23:01:22.008Z</time>
      </trkpt>
      <trkpt lat="40.75726" lon="-3.993293">
        <ele>1430</ele>
        <time>2018-06-29T23:01:28.008Z</time>
      </trkpt>
      <trkpt lat="40.757351" lon="-3.993277">
        <ele>1431</ele>
        <time>2018-06-29T23:01:34.008Z</time>
      </trkpt>
      <trkpt lat="40.757446" lon="-3.993262">
        <ele>1431</ele>
        <time>2018-06-29T23:01:40.008Z</time>
      </trkpt>
      <trkpt lat="40.757541" lon="-3.993234">
        <ele>1433</ele>
        <time>2018-06-29T23:01:46.008Z</time>
      </trkpt>
      <trkpt lat="40.757641" lon="-3.993199">
        <ele>1435</ele>
        <time>2018-06-29T23:01:53.008Z</time>
      </trkpt>
      <trkpt lat="40.757731" lon="-3.993143">
        <ele>1435</ele>
        <time>2018-06-29T23:02:01.008Z</time>
      </trkpt>
      <trkpt lat="40.757803" lon="-3.993104">
        <ele>1435</ele>
        <time>2018-06-29T23:02:06.008Z</time>
      </trkpt>
      <trkpt lat="40.757884" lon="-3.99307">
        <ele>1437</ele>
        <time>2018-06-29T23:02:12.008Z</time>
      </trkpt>
      <trkpt lat="40.757959" lon="-3.993055">
        <ele>1437</ele>
        <time>2018-06-29T23:02:17.008Z</time>
      </trkpt>
      <trkpt lat="40.758014" lon="-3.99306">
        <ele>1437</ele>
        <time>2018-06-29T23:02:21.008Z</time>
      </trkpt>
      <trkpt lat="40.758074" lon="-3.993079">
        <ele>1437</ele>
        <time>2018-06-29T23:02:25.008Z</time>
      </trkpt>
      <trkpt lat="40.758113" lon="-3.993108">
        <ele>1437</ele>
        <time>2018-06-29T23:02:28.008Z</time>
      </trkpt>
      <trkpt lat="40.75816" lon="-3.993137">
        <ele>1437.42020066198</ele>
        <time>2018-06-29T23:02:31.008Z</time>
      </trkpt>
      <trkpt lat="40.758198" lon="-3.993197">
        <ele>1439</ele>
        <time>2018-06-29T23:02:35.008Z</time>
      </trkpt>
      <trkpt lat="40.758219" lon="-3.99326">
        <ele>1439</ele>
        <time>2018-06-29T23:02:38.008Z</time>
      </trkpt>
      <trkpt lat="40.758231" lon="-3.993351">
        <ele>1440</ele>
        <time>2018-06-29T23:02:43.008Z</time>
      </trkpt>
      <trkpt lat="40.758215" lon="-3.993447">
        <ele>1440</ele>
        <time>2018-06-29T23:02:48.008Z</time>
      </trkpt>
      <trkpt lat="40.758188" lon="-3.993519">
        <ele>1441</ele>
        <time>2018-06-29T23:02:52.008Z</time>
      </trkpt>
      <trkpt lat="40.758147" lon="-3.993602">
        <ele>1441</ele>
        <time>2018-06-29T23:02:56.008Z</time>
      </trkpt>
      <trkpt lat="40.758101" lon="-3.993672">
        <ele>1441.42020066198</ele>
        <time>2018-06-29T23:03:01.008Z</time>
      </trkpt>
      <trkpt lat="40.758053" lon="-3.993708">
        <ele>1443</ele>
        <time>2018-06-29T23:03:05.008Z</time>
      </trkpt>
      <trkpt lat="40.758" lon="-3.99374">
        <ele>1443</ele>
        <time>2018-06-29T23:03:09.008Z</time>
      </trkpt>
      <trkpt lat="40.757948" lon="-3.993802">
        <ele>1443</ele>
        <time>2018-06-29T23:03:14.008Z</time>
      </trkpt>
      <trkpt lat="40.757906" lon="-3.993873">
        <ele>1443.19381911272</ele>
        <time>2018-06-29T23:03:21.008Z</time>
      </trkpt>
      <trkpt lat="40.757917" lon="-3.994004">
        <ele>1444</ele>
        <time>2018-06-29T23:03:29.008Z</time>
      </trkpt>
      <trkpt lat="40.757956" lon="-3.994085">
        <ele>1445</ele>
        <time>2018-06-29T23:03:34.008Z</time>
      </trkpt>
      <trkpt lat="40.757999" lon="-3.994158">
        <ele>1445</ele>
        <time>2018-06-29T23:03:39.008Z</time>
      </trkpt>
      <trkpt lat="40.758055" lon="-3.994218">
        <ele>1447</ele>
        <time>2018-06-29T23:03:44.008Z</time>
      </trkpt>
      <trkpt lat="40.758144" lon="-3.994274">
        <ele>1449</ele>
        <time>2018-06-29T23:03:52.008Z</time>
      </trkpt>
      <trkpt lat="40.758216" lon="-3.994306">
        <ele>1449</ele>
        <time>2018-06-29T23:03:57.008Z</time>
      </trkpt>
      <trkpt lat="40.758285" lon="-3.994334">
        <ele>1451</ele>
        <time>2018-06-29T23:04:02.008Z</time>
      </trkpt>
      <trkpt lat="40.758357" lon="-3.994347">
        <ele>1451</ele>
        <time>2018-06-29T23:04:07.008Z</time>
      </trkpt>
      <trkpt lat="40.758417" lon="-3.994364">
        <ele>1451</ele>
        <time>2018-06-29T23:04:11.008Z</time>
      </trkpt>
      <trkpt lat="40.758499" lon="-3.994383">
        <ele>1451</ele>
        <time>2018-06-29T23:04:18.008Z</time>
      </trkpt>
      <trkpt lat="40.758584" lon="-3.994387">
        <ele>1453</ele>
        <time>2018-06-29T23:04:24.008Z</time>
      </trkpt>
      <trkpt lat="40.758669" lon="-3.99439">
        <ele>1453</ele>
        <time>2018-06-29T23:04:30.008Z</time>
      </trkpt>
      <trkpt lat="40.758756" lon="-3.994411">
        <ele>1453</ele>
        <time>2018-06-29T23:04:35.008Z</time>
      </trkpt>
      <trkpt lat="40.758848" lon="-3.994436">
        <ele>1455</ele>
        <time>2018-06-29T23:04:42.008Z</time>
      </trkpt>
      <trkpt lat="40.758932" lon="-3.994464">
        <ele>1455</ele>
        <time>2018-06-29T23:04:48.008Z</time>
      </trkpt>
      <trkpt lat="40.759016" lon="-3.994489">
        <ele>1457</ele>
        <time>2018-06-29T23:04:54.008Z</time>
      </trkpt>
      <trkpt lat="40.759093" lon="-3.994497">
        <ele>1457</ele>
        <time>2018-06-29T23:04:59.008Z</time>
      </trkpt>
      <trkpt lat="40.75919" lon="-3.994511">
        <ele>1457</ele>
        <time>2018-06-29T23:05:07.008Z</time>
      </trkpt>
      <trkpt lat="40.759288" lon="-3.994502">
        <ele>1459</ele>
        <time>2018-06-29T23:05:15.008Z</time>
      </trkpt>
      <trkpt lat="40.759396" lon="-3.994512">
        <ele>1460</ele>
        <time>2018-06-29T23:05:22.008Z</time>
      </trkpt>
      <trkpt lat="40.759502" lon="-3.994526">
        <ele>1460</ele>
        <time>2018-06-29T23:05:30.008Z</time>
      </trkpt>
      <trkpt lat="40.759602" lon="-3.994578">
        <ele>1462</ele>
        <time>2018-06-29T23:05:37.008Z</time>
      </trkpt>
      <trkpt lat="40.759697" lon="-3.994587">
        <ele>1463</ele>
        <time>2018-06-29T23:05:44.008Z</time>
      </trkpt>
      <trkpt lat="40.759813" lon="-3.994608">
        <ele>1465</ele>
        <time>2018-06-29T23:05:52.008Z</time>
      </trkpt>
      <trkpt lat="40.759919" lon="-3.994579">
        <ele>1465</ele>
        <time>2018-06-29T23:06:00.008Z</time>
      </trkpt>
      <trkpt lat="40.760012" lon="-3.994519">
        <ele>1467</ele>
        <time>2018-06-29T23:06:06.008Z</time>
      </trkpt>
      <trkpt lat="40.7601" lon="-3.994479">
        <ele>1467.2622274686</ele>
        <time>2018-06-29T23:06:11.008Z</time>
      </trkpt>
      <trkpt lat="40.760199" lon="-3.994423">
        <ele>1469</ele>
        <time>2018-06-29T23:06:17.008Z</time>
      </trkpt>
      <trkpt lat="40.760296" lon="-3.994358">
        <ele>1469</ele>
        <time>2018-06-29T23:06:24.008Z</time>
      </trkpt>
      <trkpt lat="40.760393" lon="-3.99435">
        <ele>1471</ele>
        <time>2018-06-29T23:06:33.008Z</time>
      </trkpt>
      <trkpt lat="40.760483" lon="-3.994409">
        <ele>1471</ele>
        <time>2018-06-29T23:06:39.008Z</time>
      </trkpt>
      <trkpt lat="40.760568" lon="-3.994452">
        <ele>1473</ele>
        <time>2018-06-29T23:06:45.008Z</time>
      </trkpt>
      <trkpt lat="40.760666" lon="-3.994496">
        <ele>1474</ele>
        <time>2018-06-29T23:06:54.008Z</time>
      </trkpt>
      <trkpt lat="40.760767" lon="-3.994534">
        <ele>1475</ele>
        <time>2018-06-29T23:07:03.008Z</time>
      </trkpt>
      <trkpt lat="40.76087" lon="-3.994575">
        <ele>1476.1311137343</ele>
        <time>2018-06-29T23:07:11.008Z</time>
      </trkpt>
      <trkpt lat="40.760973" lon="-3.994607">
        <ele>1477</ele>
        <time>2018-06-29T23:07:18.008Z</time>
      </trkpt>
      <trkpt lat="40.76107" lon="-3.994658">
        <ele>1479</ele>
        <time>2018-06-29T23:07:25.008Z</time>
      </trkpt>
      <trkpt lat="40.761181" lon="-3.994671">
        <ele>1481</ele>
        <time>2018-06-29T23:07:33.008Z</time>
      </trkpt>
      <trkpt lat="40.761261" lon="-3.994718">
        <ele>1481</ele>
        <time>2018-06-29T23:07:39.008Z</time>
      </trkpt>
      <trkpt lat="40.761358" lon="-3.994732">
        <ele>1482</ele>
        <time>2018-06-29T23:07:48.008Z</time>
      </trkpt>
      <trkpt lat="40.761462" lon="-3.994706">
        <ele>1484</ele>
        <time>2018-06-29T23:07:58.008Z</time>
      </trkpt>
      <trkpt lat="40.761548" lon="-3.99474">
        <ele>1485</ele>
        <time>2018-06-29T23:08:04.008Z</time>
      </trkpt>
      <trkpt lat="40.761646" lon="-3.994752">
        <ele>1486</ele>
        <time>2018-06-29T23:08:10.008Z</time>
      </trkpt>
      <trkpt lat="40.761738" lon="-3.994797">
        <ele>1487</ele>
        <time>2018-06-29T23:08:16.008Z</time>
      </trkpt>
      <trkpt lat="40.761821" lon="-3.994834">
        <ele>1487.40408552434</ele>
        <time>2018-06-29T23:08:21.008Z</time>
      </trkpt>
      <trkpt lat="40.761908" lon="-3.994868">
        <ele>1489</ele>
        <time>2018-06-29T23:08:27.008Z</time>
      </trkpt>
      <trkpt lat="40.761988" lon="-3.994905">
        <ele>1491</ele>
        <time>2018-06-29T23:08:33.008Z</time>
      </trkpt>
      <trkpt lat="40.762076" lon="-3.994948">
        <ele>1491</ele>
        <time>2018-06-29T23:08:39.008Z</time>
      </trkpt>
      <trkpt lat="40.762152" lon="-3.994983">
        <ele>1493</ele>
        <time>2018-06-29T23:08:45.008Z</time>
      </trkpt>
      <trkpt lat="40.762234" lon="-3.995025">
        <ele>1493.40408552434</ele>
        <time>2018-06-29T23:08:51.008Z</time>
      </trkpt>
      <trkpt lat="40.762302" lon="-3.995006">
        <ele>1495</ele>
        <time>2018-06-29T23:08:55.008Z</time>
      </trkpt>
      <trkpt lat="40.762367" lon="-3.994996">
        <ele>1495</ele>
        <time>2018-06-29T23:08:59.008Z</time>
      </trkpt>
      <trkpt lat="40.762433" lon="-3.995018">
        <ele>1495</ele>
        <time>2018-06-29T23:09:04.008Z</time>
      </trkpt>
      <trkpt lat="40.762484" lon="-3.995031">
        <ele>1495</ele>
        <time>2018-06-29T23:09:08.008Z</time>
      </trkpt>
      <trkpt lat="40.762549" lon="-3.995005">
        <ele>1497</ele>
        <time>2018-06-29T23:09:13.008Z</time>
      </trkpt>
      <trkpt lat="40.76262" lon="-3.995004">
        <ele>1497</ele>
        <time>2018-06-29T23:09:19.008Z</time>
      </trkpt>
      <trkpt lat="40.762715" lon="-3.994992">
        <ele>1498</ele>
        <time>2018-06-29T23:09:27.008Z</time>
      </trkpt>
      <trkpt lat="40.762814" lon="-3.994992">
        <ele>1499</ele>
        <time>2018-06-29T23:09:36.008Z</time>
      </trkpt>
      <trkpt lat="40.762914" lon="-3.995027">
        <ele>1501</ele>
        <time>2018-06-29T23:09:43.008Z</time>
      </trkpt>
      <trkpt lat="40.763009" lon="-3.995016">
        <ele>1503</ele>
        <time>2018-06-29T23:09:52.008Z</time>
      </trkpt>
      <trkpt lat="40.763096" lon="-3.994964">
        <ele>1503</ele>
        <time>2018-06-29T23:09:59.008Z</time>
      </trkpt>
      <trkpt lat="40.763185" lon="-3.994931">
        <ele>1504</ele>
        <time>2018-06-29T23:10:04.008Z</time>
      </trkpt>
      <trkpt lat="40.763267" lon="-3.994899">
        <ele>1504</ele>
        <time>2018-06-29T23:10:09.008Z</time>
      </trkpt>
      <trkpt lat="40.763363" lon="-3.994888">
        <ele>1505</ele>
        <time>2018-06-29T23:10:16.008Z</time>
      </trkpt>
      <trkpt lat="40.763474" lon="-3.994901">
        <ele>1505</ele>
        <time>2018-06-29T23:10:24.008Z</time>
      </trkpt>
      <trkpt lat="40.763575" lon="-3.994863">
        <ele>1507</ele>
        <time>2018-06-29T23:10:32.008Z</time>
      </trkpt>
      <trkpt lat="40.763658" lon="-3.994872">
        <ele>1507</ele>
        <time>2018-06-29T23:10:37.008Z</time>
      </trkpt>
      <trkpt lat="40.763741" lon="-3.994896">
        <ele>1509</ele>
        <time>2018-06-29T23:10:44.008Z</time>
      </trkpt>
      <trkpt lat="40.763848" lon="-3.994913">
        <ele>1511</ele>
        <time>2018-06-29T23:10:53.008Z</time>
      </trkpt>
      <trkpt lat="40.763939" lon="-3.99488">
        <ele>1512</ele>
        <time>2018-06-29T23:11:03.008Z</time>
      </trkpt>
      <trkpt lat="40.764034" lon="-3.994823">
        <ele>1513</ele>
        <time>2018-06-29T23:11:11.008Z</time>
      </trkpt>
      <trkpt lat="40.764129" lon="-3.99478">
        <ele>1513</ele>
        <time>2018-06-29T23:11:19.008Z</time>
      </trkpt>
      <trkpt lat="40.76422" lon="-3.994802">
        <ele>1515</ele>
        <time>2018-06-29T23:11:26.008Z</time>
      </trkpt>
      <trkpt lat="40.764307" lon="-3.994841">
        <ele>1516</ele>
        <time>2018-06-29T23:11:33.008Z</time>
      </trkpt>
      <trkpt lat="40.764405" lon="-3.994814">
        <ele>1518</ele>
        <time>2018-06-29T23:11:42.008Z</time>
      </trkpt>
      <trkpt lat="40.764504" lon="-3.994801">
        <ele>1518.20204276217</ele>
        <time>2018-06-29T23:11:51.008Z</time>
      </trkpt>
      <trkpt lat="40.764614" lon="-3.994778">
        <ele>1519</ele>
        <time>2018-06-29T23:12:00.008Z</time>
      </trkpt>
      <trkpt lat="40.764706" lon="-3.99472">
        <ele>1521</ele>
        <time>2018-06-29T23:12:07.008Z</time>
      </trkpt>
      <trkpt lat="40.764804" lon="-3.994723">
        <ele>1523</ele>
        <time>2018-06-29T23:12:16.008Z</time>
      </trkpt>
      <trkpt lat="40.764904" lon="-3.994728">
        <ele>1526</ele>
        <time>2018-06-29T23:12:23.008Z</time>
      </trkpt>
      <trkpt lat="40.765015" lon="-3.994751">
        <ele>1527</ele>
        <time>2018-06-29T23:12:32.008Z</time>
      </trkpt>
      <trkpt lat="40.765102" lon="-3.994757">
        <ele>1527</ele>
        <time>2018-06-29T23:12:40.008Z</time>
      </trkpt>
      <trkpt lat="40.765197" lon="-3.994804">
        <ele>1529</ele>
        <time>2018-06-29T23:12:50.008Z</time>
      </trkpt>
      <trkpt lat="40.765302" lon="-3.994774">
        <ele>1533</ele>
        <time>2018-06-29T23:13:02.008Z</time>
      </trkpt>
      <trkpt lat="40.765413" lon="-3.994795">
        <ele>1533</ele>
        <time>2018-06-29T23:13:10.008Z</time>
      </trkpt>
      <trkpt lat="40.765514" lon="-3.994821">
        <ele>1535</ele>
        <time>2018-06-29T23:13:19.008Z</time>
      </trkpt>
      <trkpt lat="40.765598" lon="-3.994879">
        <ele>1537</ele>
        <time>2018-06-29T23:13:28.008Z</time>
      </trkpt>
      <trkpt lat="40.765692" lon="-3.994936">
        <ele>1539</ele>
        <time>2018-06-29T23:13:37.008Z</time>
      </trkpt>
      <trkpt lat="40.765799" lon="-3.994961">
        <ele>1540</ele>
        <time>2018-06-29T23:13:46.008Z</time>
      </trkpt>
      <trkpt lat="40.765906" lon="-3.994949">
        <ele>1541</ele>
        <time>2018-06-29T23:13:56.008Z</time>
      </trkpt>
      <trkpt lat="40.766" lon="-3.99491">
        <ele>1543</ele>
        <time>2018-06-29T23:14:06.008Z</time>
      </trkpt>
      <trkpt lat="40.766093" lon="-3.994892">
        <ele>1545</ele>
        <time>2018-06-29T23:14:16.008Z</time>
      </trkpt>
      <trkpt lat="40.766182" lon="-3.994878">
        <ele>1547</ele>
        <time>2018-06-29T23:14:23.008Z</time>
      </trkpt>
      <trkpt lat="40.766271" lon="-3.994887">
        <ele>1547</ele>
        <time>2018-06-29T23:14:30.008Z</time>
      </trkpt>
      <trkpt lat="40.766361" lon="-3.994861">
        <ele>1549</ele>
        <time>2018-06-29T23:14:38.008Z</time>
      </trkpt>
      <trkpt lat="40.766452" lon="-3.994852">
        <ele>1550</ele>
        <time>2018-06-29T23:14:47.008Z</time>
      </trkpt>
      <trkpt lat="40.766555" lon="-3.994851">
        <ele>1552.21010033099</ele>
        <time>2018-06-29T23:14:55.008Z</time>
      </trkpt>
      <trkpt lat="40.766638" lon="-3.994824">
        <ele>1553</ele>
        <time>2018-06-29T23:14:59.008Z</time>
      </trkpt>
      <trkpt lat="40.766697" lon="-3.994741">
        <ele>1555</ele>
        <time>2018-06-29T23:15:03.008Z</time>
      </trkpt>
      <trkpt lat="40.766766" lon="-3.994663">
        <ele>1555</ele>
        <time>2018-06-29T23:15:09.008Z</time>
      </trkpt>
      <trkpt lat="40.766835" lon="-3.994611">
        <ele>1556</ele>
        <time>2018-06-29T23:15:14.008Z</time>
      </trkpt>
      <trkpt lat="40.766918" lon="-3.994563">
        <ele>1556.20204276217</ele>
        <time>2018-06-29T23:15:21.008Z</time>
      </trkpt>
      <trkpt lat="40.766992" lon="-3.994485">
        <ele>1557</ele>
        <time>2018-06-29T23:15:27.008Z</time>
      </trkpt>
      <trkpt lat="40.767051" lon="-3.994421">
        <ele>1559</ele>
        <time>2018-06-29T23:15:33.008Z</time>
      </trkpt>
      <trkpt lat="40.767109" lon="-3.994345">
        <ele>1559</ele>
        <time>2018-06-29T23:15:39.008Z</time>
      </trkpt>
      <trkpt lat="40.767167" lon="-3.994267">
        <ele>1560</ele>
        <time>2018-06-29T23:15:44.008Z</time>
      </trkpt>
      <trkpt lat="40.767212" lon="-3.994159">
        <ele>1560</ele>
        <time>2018-06-29T23:15:51.008Z</time>
      </trkpt>
      <trkpt lat="40.767252" lon="-3.994033">
        <ele>1560</ele>
        <time>2018-06-29T23:15:59.008Z</time>
      </trkpt>
      <trkpt lat="40.767293" lon="-3.99391">
        <ele>1561</ele>
        <time>2018-06-29T23:16:06.008Z</time>
      </trkpt>
      <trkpt lat="40.767333" lon="-3.993784">
        <ele>1563</ele>
        <time>2018-06-29T23:16:13.008Z</time>
      </trkpt>
      <trkpt lat="40.767382" lon="-3.993663">
        <ele>1565</ele>
        <time>2018-06-29T23:16:22.008Z</time>
      </trkpt>
      <trkpt lat="40.767404" lon="-3.993547">
        <ele>1565</ele>
        <time>2018-06-29T23:16:28.008Z</time>
      </trkpt>
      <trkpt lat="40.767469" lon="-3.993448">
        <ele>1565.2622274686</ele>
        <time>2018-06-29T23:16:41.008Z</time>
      </trkpt>
      <trkpt lat="40.767537" lon="-3.993335">
        <ele>1569</ele>
        <time>2018-06-29T23:16:57.008Z</time>
      </trkpt>
      <trkpt lat="40.767602" lon="-3.99322">
        <ele>1572</ele>
        <time>2018-06-29T23:17:08.008Z</time>
      </trkpt>
      <trkpt lat="40.767655" lon="-3.993099">
        <ele>1574</ele>
        <time>2018-06-29T23:17:18.008Z</time>
      </trkpt>
      <trkpt lat="40.767746" lon="-3.993013">
        <ele>1578</ele>
        <time>2018-06-29T23:17:29.008Z</time>
      </trkpt>
      <trkpt lat="40.767828" lon="-3.992917">
        <ele>1578</ele>
        <time>2018-06-29T23:17:39.008Z</time>
      </trkpt>
      <trkpt lat="40.767924" lon="-3.992862">
        <ele>1580</ele>
        <time>2018-06-29T23:17:48.008Z</time>
      </trkpt>
      <trkpt lat="40.767994" lon="-3.992767">
        <ele>1583</ele>
        <time>2018-06-29T23:17:54.008Z</time>
      </trkpt>
      <trkpt lat="40.768065" lon="-3.99268">
        <ele>1585</ele>
        <time>2018-06-29T23:18:02.008Z</time>
      </trkpt>
      <trkpt lat="40.768143" lon="-3.992596">
        <ele>1587</ele>
        <time>2018-06-29T23:18:13.008Z</time>
      </trkpt>
      <trkpt lat="40.768205" lon="-3.992498">
        <ele>1587.20204276217</ele>
        <time>2018-06-29T23:18:21.008Z</time>
      </trkpt>
      <trkpt lat="40.768273" lon="-3.992399">
        <ele>1588.63030099297</ele>
        <time>2018-06-29T23:18:31.008Z</time>
      </trkpt>
      <trkpt lat="40.768337" lon="-3.992296">
        <ele>1591</ele>
        <time>2018-06-29T23:18:38.008Z</time>
      </trkpt>
      <trkpt lat="40.768392" lon="-3.992179">
        <ele>1591</ele>
        <time>2018-06-29T23:18:46.008Z</time>
      </trkpt>
      <trkpt lat="40.76844" lon="-3.992085">
        <ele>1591.40408552434</ele>
        <time>2018-06-29T23:18:51.008Z</time>
      </trkpt>
      <trkpt lat="40.768496" lon="-3.992008">
        <ele>1593</ele>
        <time>2018-06-29T23:18:58.008Z</time>
      </trkpt>
      <trkpt lat="40.768548" lon="-3.991916">
        <ele>1596</ele>
        <time>2018-06-29T23:19:06.008Z</time>
      </trkpt>
      <trkpt lat="40.768614" lon="-3.991834">
        <ele>1598</ele>
        <time>2018-06-29T23:19:13.008Z</time>
      </trkpt>
      <trkpt lat="40.768685" lon="-3.991761">
        <ele>1598</ele>
        <time>2018-06-29T23:19:19.008Z</time>
      </trkpt>
      <trkpt lat="40.768742" lon="-3.991678">
        <ele>1600</ele>
        <time>2018-06-29T23:19:25.008Z</time>
      </trkpt>
      <trkpt lat="40.768804" lon="-3.991604">
        <ele>1602</ele>
        <time>2018-06-29T23:19:33.008Z</time>
      </trkpt>
      <trkpt lat="40.768845" lon="-3.991519">
        <ele>1602.2622274686</ele>
        <time>2018-06-29T23:19:41.008Z</time>
      </trkpt>
      <trkpt lat="40.768902" lon="-3.991457">
        <ele>1604</ele>
        <time>2018-06-29T23:19:47.008Z</time>
      </trkpt>
      <trkpt lat="40.768961" lon="-3.99138">
        <ele>1606</ele>
        <time>2018-06-29T23:19:54.008Z</time>
      </trkpt>
      <trkpt lat="40.768997" lon="-3.991315">
        <ele>1606</ele>
        <time>2018-06-29T23:20:00.008Z</time>
      </trkpt>
      <trkpt lat="40.769036" lon="-3.991205">
        <ele>1608.39334120291</ele>
        <time>2018-06-29T23:20:11.008Z</time>
      </trkpt>
      <trkpt lat="40.769088" lon="-3.991088">
        <ele>1612.40408552434</ele>
        <time>2018-06-29T23:20:21.008Z</time>
      </trkpt>
      <trkpt lat="40.769176" lon="-3.991007">
        <ele>1615</ele>
        <time>2018-06-29T23:20:30.008Z</time>
      </trkpt>
      <trkpt lat="40.769242" lon="-3.990948">
        <ele>1615</ele>
        <time>2018-06-29T23:20:36.008Z</time>
      </trkpt>
      <trkpt lat="40.769309" lon="-3.990893">
        <ele>1616</ele>
        <time>2018-06-29T23:20:43.008Z</time>
      </trkpt>
      <trkpt lat="40.769386" lon="-3.990849">
        <ele>1616.40408552434</ele>
        <time>2018-06-29T23:20:51.008Z</time>
      </trkpt>
      <trkpt lat="40.769472" lon="-3.99081">
        <ele>1618</ele>
        <time>2018-06-29T23:20:57.008Z</time>
      </trkpt>
      <trkpt lat="40.769556" lon="-3.990758">
        <ele>1620</ele>
        <time>2018-06-29T23:21:06.008Z</time>
      </trkpt>
      <trkpt lat="40.769637" lon="-3.990712">
        <ele>1620.1311137343</ele>
        <time>2018-06-29T23:21:11.008Z</time>
      </trkpt>
      <trkpt lat="40.769719" lon="-3.99067">
        <ele>1621</ele>
        <time>2018-06-29T23:21:19.008Z</time>
      </trkpt>
      <trkpt lat="40.769777" lon="-3.990606">
        <ele>1623</ele>
        <time>2018-06-29T23:21:26.008Z</time>
      </trkpt>
      <trkpt lat="40.769832" lon="-3.990545">
        <ele>1625</ele>
        <time>2018-06-29T23:21:32.008Z</time>
      </trkpt>
      <trkpt lat="40.769916" lon="-3.99047">
        <ele>1627</ele>
        <time>2018-06-29T23:21:43.008Z</time>
      </trkpt>
      <trkpt lat="40.769965" lon="-3.990372">
        <ele>1627</ele>
        <time>2018-06-29T23:21:49.008Z</time>
      </trkpt>
      <trkpt lat="40.770009" lon="-3.990279">
        <ele>1629</ele>
        <time>2018-06-29T23:21:56.008Z</time>
      </trkpt>
      <trkpt lat="40.77004" lon="-3.9902">
        <ele>1629.63030099297</ele>
        <time>2018-06-29T23:22:01.008Z</time>
      </trkpt>
      <trkpt lat="40.770096" lon="-3.990151">
        <ele>1632</ele>
        <time>2018-06-29T23:22:09.008Z</time>
      </trkpt>
      <trkpt lat="40.770168" lon="-3.990091">
        <ele>1634</ele>
        <time>2018-06-29T23:22:18.008Z</time>
      </trkpt>
      <trkpt lat="40.770234" lon="-3.989993">
        <ele>1636</ele>
        <time>2018-06-29T23:22:28.008Z</time>
      </trkpt>
      <trkpt lat="40.770296" lon="-3.989884">
        <ele>1638</ele>
        <time>2018-06-29T23:22:39.008Z</time>
      </trkpt>
      <trkpt lat="40.77032" lon="-3.989755">
        <ele>1640</ele>
        <time>2018-06-29T23:22:49.008Z</time>
      </trkpt>
      <trkpt lat="40.770344" lon="-3.989654">
        <ele>1642</ele>
        <time>2018-06-29T23:23:00.008Z</time>
      </trkpt>
      <trkpt lat="40.770399" lon="-3.989584">
        <ele>1643</ele>
        <time>2018-06-29T23:24:06.008Z</time>
      </trkpt>
      <trkpt lat="40.770442" lon="-3.9895">
        <ele>1645</ele>
        <time>2018-06-29T23:24:19.008Z</time>
      </trkpt>
      <trkpt lat="40.770468" lon="-3.989421">
        <ele>1646</ele>
        <time>2018-06-29T23:24:28.008Z</time>
      </trkpt>
      <trkpt lat="40.770514" lon="-3.989336">
        <ele>1647</ele>
        <time>2018-06-29T23:24:37.008Z</time>
      </trkpt>
      <trkpt lat="40.770546" lon="-3.989225">
        <ele>1649</ele>
        <time>2018-06-29T23:24:49.008Z</time>
      </trkpt>
      <trkpt lat="40.770605" lon="-3.98912">
        <ele>1652.42020066198</ele>
        <time>2018-06-29T23:25:01.008Z</time>
      </trkpt>
      <trkpt lat="40.770671" lon="-3.98904">
        <ele>1658</ele>
        <time>2018-06-29T23:25:12.008Z</time>
      </trkpt>
      <trkpt lat="40.770727" lon="-3.988942">
        <ele>1659</ele>
        <time>2018-06-29T23:25:23.008Z</time>
      </trkpt>
      <trkpt lat="40.770772" lon="-3.988834">
        <ele>1661</ele>
        <time>2018-06-29T23:25:32.008Z</time>
      </trkpt>
      <trkpt lat="40.770814" lon="-3.988744">
        <ele>1661</ele>
        <time>2018-06-29T23:25:39.008Z</time>
      </trkpt>
      <trkpt lat="40.770829" lon="-3.988642">
        <ele>1663</ele>
        <time>2018-06-29T23:25:49.008Z</time>
      </trkpt>
      <trkpt lat="40.770886" lon="-3.988553">
        <ele>1667</ele>
        <time>2018-06-29T23:25:59.008Z</time>
      </trkpt>
      <trkpt lat="40.770937" lon="-3.988458">
        <ele>1668</ele>
        <time>2018-06-29T23:26:07.008Z</time>
      </trkpt>
      <trkpt lat="40.770991" lon="-3.988356">
        <ele>1670</ele>
        <time>2018-06-29T23:26:20.008Z</time>
      </trkpt>
      <trkpt lat="40.771037" lon="-3.988234">
        <ele>1672</ele>
        <time>2018-06-29T23:26:30.008Z</time>
      </trkpt>
      <trkpt lat="40.771101" lon="-3.988124">
        <ele>1676</ele>
        <time>2018-06-29T23:26:42.008Z</time>
      </trkpt>
      <trkpt lat="40.771154" lon="-3.988041">
        <ele>1676</ele>
        <time>2018-06-29T23:26:49.008Z</time>
      </trkpt>
      <trkpt lat="40.771206" lon="-3.987958">
        <ele>1678</ele>
        <time>2018-06-29T23:26:57.008Z</time>
      </trkpt>
      <trkpt lat="40.771285" lon="-3.987906">
        <ele>1681</ele>
        <time>2018-06-29T23:27:08.008Z</time>
      </trkpt>
      <trkpt lat="40.77135" lon="-3.987847">
        <ele>1683</ele>
        <time>2018-06-29T23:27:15.008Z</time>
      </trkpt>
      <trkpt lat="40.771421" lon="-3.987787">
        <ele>1684</ele>
        <time>2018-06-29T23:27:25.008Z</time>
      </trkpt>
      <trkpt lat="40.771467" lon="-3.987724">
        <ele>1684</ele>
        <time>2018-06-29T23:27:30.008Z</time>
      </trkpt>
      <trkpt lat="40.771507" lon="-3.987666">
        <ele>1685</ele>
        <time>2018-06-29T23:27:35.008Z</time>
      </trkpt>
      <trkpt lat="40.771555" lon="-3.98762">
        <ele>1687</ele>
        <time>2018-06-29T23:27:42.008Z</time>
      </trkpt>
      <trkpt lat="40.771599" lon="-3.987571">
        <ele>1687</ele>
        <time>2018-06-29T23:27:50.008Z</time>
      </trkpt>
      <trkpt lat="40.771635" lon="-3.987517">
        <ele>1687</ele>
        <time>2018-06-29T23:27:57.008Z</time>
      </trkpt>
      <trkpt lat="40.771668" lon="-3.987452">
        <ele>1689</ele>
        <time>2018-06-29T23:28:04.008Z</time>
      </trkpt>
      <trkpt lat="40.77172" lon="-3.987393">
        <ele>1690</ele>
        <time>2018-06-29T23:28:12.008Z</time>
      </trkpt>
      <trkpt lat="40.771744" lon="-3.9873">
        <ele>1692</ele>
        <time>2018-06-29T23:28:22.008Z</time>
      </trkpt>
      <trkpt lat="40.771793" lon="-3.987204">
        <ele>1695</ele>
        <time>2018-06-29T23:28:33.008Z</time>
      </trkpt>
      <trkpt lat="40.771849" lon="-3.987165">
        <ele>1696</ele>
        <time>2018-06-29T23:28:40.008Z</time>
      </trkpt>
      <trkpt lat="40.771892" lon="-3.987102">
        <ele>1696</ele>
        <time>2018-06-29T23:28:47.008Z</time>
      </trkpt>
      <trkpt lat="40.771901" lon="-3.987009">
        <ele>1698</ele>
        <time>2018-06-29T23:28:56.008Z</time>
      </trkpt>
      <trkpt lat="40.771915" lon="-3.986929">
        <ele>1700</ele>
        <time>2018-06-29T23:29:03.008Z</time>
      </trkpt>
      <trkpt lat="40.771954" lon="-3.986856">
        <ele>1700.1311137343</ele>
        <time>2018-06-29T23:29:11.008Z</time>
      </trkpt>
      <trkpt lat="40.771969" lon="-3.986767">
        <ele>1701</ele>
        <time>2018-06-29T23:29:19.008Z</time>
      </trkpt>
      <trkpt lat="40.771995" lon="-3.986694">
        <ele>1703</ele>
        <time>2018-06-29T23:29:27.008Z</time>
      </trkpt>
      <trkpt lat="40.772017" lon="-3.986632">
        <ele>1706</ele>
        <time>2018-06-29T23:29:36.008Z</time>
      </trkpt>
      <trkpt lat="40.772059" lon="-3.9866">
        <ele>1708</ele>
        <time>2018-06-29T23:29:43.008Z</time>
      </trkpt>
      <trkpt lat="40.772086" lon="-3.986544">
        <ele>1708</ele>
        <time>2018-06-29T23:29:50.008Z</time>
      </trkpt>
      <trkpt lat="40.772133" lon="-3.986486">
        <ele>1709</ele>
        <time>2018-06-29T23:29:58.008Z</time>
      </trkpt>
      <trkpt lat="40.772179" lon="-3.986424">
        <ele>1710</ele>
        <time>2018-06-29T23:30:10.008Z</time>
      </trkpt>
      <trkpt lat="40.772223" lon="-3.986322">
        <ele>1712.20204276217</ele>
        <time>2018-06-29T23:30:21.008Z</time>
      </trkpt>
      <trkpt lat="40.772245" lon="-3.986248">
        <ele>1713</ele>
        <time>2018-06-29T23:30:29.008Z</time>
      </trkpt>
      <trkpt lat="40.772245" lon="-3.986181">
        <ele>1715</ele>
        <time>2018-06-29T23:30:37.008Z</time>
      </trkpt>
      <trkpt lat="40.772269" lon="-3.986129">
        <ele>1717</ele>
        <time>2018-06-29T23:30:44.008Z</time>
      </trkpt>
      <trkpt lat="40.77228" lon="-3.98607">
        <ele>1717</ele>
        <time>2018-06-29T23:30:50.008Z</time>
      </trkpt>
      <trkpt lat="40.772308" lon="-3.986016">
        <ele>1719</ele>
        <time>2018-06-29T23:30:56.008Z</time>
      </trkpt>
      <trkpt lat="40.772344" lon="-3.985984">
        <ele>1719.42020066198</ele>
        <time>2018-06-29T23:31:01.008Z</time>
      </trkpt>
      <trkpt lat="40.77238" lon="-3.985938">
        <ele>1721</ele>
        <time>2018-06-29T23:31:06.008Z</time>
      </trkpt>
      <trkpt lat="40.772408" lon="-3.985893">
        <ele>1721</ele>
        <time>2018-06-29T23:31:11.008Z</time>
      </trkpt>
      <trkpt lat="40.772441" lon="-3.985853">
        <ele>1721</ele>
        <time>2018-06-29T23:31:16.008Z</time>
      </trkpt>
      <trkpt lat="40.772478" lon="-3.985822">
        <ele>1721</ele>
        <time>2018-06-29T23:31:20.008Z</time>
      </trkpt>
      <trkpt lat="40.772528" lon="-3.985777">
        <ele>1723.21372369395</ele>
        <time>2018-06-29T23:31:26.008Z</time>
      </trkpt>
      <trkpt lat="40.772585" lon="-3.985749">
        <ele>1725</ele>
        <time>2018-06-29T23:31:32.008Z</time>
      </trkpt>
      <trkpt lat="40.772632" lon="-3.98571">
        <ele>1725</ele>
        <time>2018-06-29T23:31:37.008Z</time>
      </trkpt>
      <trkpt lat="40.772651" lon="-3.985647">
        <ele>1726</ele>
        <time>2018-06-29T23:31:42.008Z</time>
      </trkpt>
      <trkpt lat="40.772682" lon="-3.985586">
        <ele>1726</ele>
        <time>2018-06-29T23:31:48.008Z</time>
      </trkpt>
      <trkpt lat="40.772731" lon="-3.985527">
        <ele>1728</ele>
        <time>2018-06-29T23:31:56.008Z</time>
      </trkpt>
      <trkpt lat="40.77277" lon="-3.985478">
        <ele>1729</ele>
        <time>2018-06-29T23:32:08.008Z</time>
      </trkpt>
      <trkpt lat="40.772787" lon="-3.985399">
        <ele>1729</ele>
        <time>2018-06-29T23:32:20.008Z</time>
      </trkpt>
      <trkpt lat="40.77282" lon="-3.98534">
        <ele>1732</ele>
        <time>2018-06-29T23:32:32.008Z</time>
      </trkpt>
      <trkpt lat="40.772842" lon="-3.985277">
        <ele>1734</ele>
        <time>2018-06-29T23:32:44.008Z</time>
      </trkpt>
      <trkpt lat="40.772866" lon="-3.98522">
        <ele>1734.20204276217</ele>
        <time>2018-06-29T23:32:51.008Z</time>
      </trkpt>
      <trkpt lat="40.772897" lon="-3.985167">
        <ele>1735</ele>
        <time>2018-06-29T23:32:58.008Z</time>
      </trkpt>
      <trkpt lat="40.772916" lon="-3.985128">
        <ele>1738</ele>
        <time>2018-06-29T23:33:02.008Z</time>
      </trkpt>
      <trkpt lat="40.772946" lon="-3.985079">
        <ele>1738</ele>
        <time>2018-06-29T23:33:08.008Z</time>
      </trkpt>
      <trkpt lat="40.772992" lon="-3.985038">
        <ele>1740</ele>
        <time>2018-06-29T23:33:17.008Z</time>
      </trkpt>
      <trkpt lat="40.773047" lon="-3.985029">
        <ele>1741</ele>
        <time>2018-06-29T23:33:22.008Z</time>
      </trkpt>
      <trkpt lat="40.773085" lon="-3.98498">
        <ele>1741</ele>
        <time>2018-06-29T23:33:27.008Z</time>
      </trkpt>
      <trkpt lat="40.773111" lon="-3.984937">
        <ele>1741</ele>
        <time>2018-06-29T23:33:31.008Z</time>
      </trkpt>
      <trkpt lat="40.773134" lon="-3.984882">
        <ele>1741</ele>
        <time>2018-06-29T23:33:36.008Z</time>
      </trkpt>
      <trkpt lat="40.773112" lon="-3.984833">
        <ele>1743</ele>
        <time>2018-06-29T23:33:42.008Z</time>
      </trkpt>
      <trkpt lat="40.77313" lon="-3.984778">
        <ele>1743</ele>
        <time>2018-06-29T23:33:48.008Z</time>
      </trkpt>
      <trkpt lat="40.773158" lon="-3.984735">
        <ele>1746</ele>
        <time>2018-06-29T23:33:53.008Z</time>
      </trkpt>
      <trkpt lat="40.77319" lon="-3.984698">
        <ele>1746</ele>
        <time>2018-06-29T23:33:59.008Z</time>
      </trkpt>
      <trkpt lat="40.773217" lon="-3.984654">
        <ele>1747</ele>
        <time>2018-06-29T23:34:04.008Z</time>
      </trkpt>
      <trkpt lat="40.773237" lon="-3.984585">
        <ele>1748.1311137343</ele>
        <time>2018-06-29T23:34:11.008Z</time>
      </trkpt>
      <trkpt lat="40.773259" lon="-3.984526">
        <ele>1750</ele>
        <time>2018-06-29T23:34:17.008Z</time>
      </trkpt>
      <trkpt lat="40.773282" lon="-3.984478">
        <ele>1752</ele>
        <time>2018-06-29T23:34:23.008Z</time>
      </trkpt>
      <trkpt lat="40.773293" lon="-3.984446">
        <ele>1752</ele>
        <time>2018-06-29T23:34:27.008Z</time>
      </trkpt>
      <trkpt lat="40.773311" lon="-3.984424">
        <ele>1754</ele>
        <time>2018-06-29T23:34:33.008Z</time>
      </trkpt>
      <trkpt lat="40.773347" lon="-3.984377">
        <ele>1754</ele>
        <time>2018-06-29T23:34:44.008Z</time>
      </trkpt>
      <trkpt lat="40.77338" lon="-3.984327">
        <ele>1754</ele>
        <time>2018-06-29T23:34:50.008Z</time>
      </trkpt>
      <trkpt lat="40.77339" lon="-3.984269">
        <ele>1756</ele>
        <time>2018-06-29T23:34:58.008Z</time>
      </trkpt>
      <trkpt lat="40.773345" lon="-3.984221">
        <ele>1758</ele>
        <time>2018-06-29T23:35:08.008Z</time>
      </trkpt>
      <trkpt lat="40.773345" lon="-3.984148">
        <ele>1759</ele>
        <time>2018-06-29T23:35:19.008Z</time>
      </trkpt>
      <trkpt lat="40.773375" lon="-3.984078">
        <ele>1761</ele>
        <time>2018-06-29T23:35:26.008Z</time>
      </trkpt>
      <trkpt lat="40.773392" lon="-3.984013">
        <ele>1763</ele>
        <time>2018-06-29T23:35:32.008Z</time>
      </trkpt>
      <trkpt lat="40.773422" lon="-3.983952">
        <ele>1763</ele>
        <time>2018-06-29T23:35:39.008Z</time>
      </trkpt>
      <trkpt lat="40.773473" lon="-3.983916">
        <ele>1765</ele>
        <time>2018-06-29T23:35:46.008Z</time>
      </trkpt>
      <trkpt lat="40.773503" lon="-3.983873">
        <ele>1765.20204276217</ele>
        <time>2018-06-29T23:35:51.008Z</time>
      </trkpt>
      <trkpt lat="40.773515" lon="-3.983823">
        <ele>1766</ele>
        <time>2018-06-29T23:35:56.008Z</time>
      </trkpt>
      <trkpt lat="40.773525" lon="-3.983775">
        <ele>1769</ele>
        <time>2018-06-29T23:36:04.008Z</time>
      </trkpt>
      <trkpt lat="40.773536" lon="-3.983726">
        <ele>1771</ele>
        <time>2018-06-29T23:36:12.008Z</time>
      </trkpt>
      <trkpt lat="40.773559" lon="-3.983686">
        <ele>1771</ele>
        <time>2018-06-29T23:36:20.008Z</time>
      </trkpt>
      <trkpt lat="40.773569" lon="-3.983641">
        <ele>1772</ele>
        <time>2018-06-29T23:36:27.008Z</time>
      </trkpt>
      <trkpt lat="40.773583" lon="-3.983591">
        <ele>1774</ele>
        <time>2018-06-29T23:36:35.008Z</time>
      </trkpt>
      <trkpt lat="40.773615" lon="-3.983541">
        <ele>1776</ele>
        <time>2018-06-29T23:36:43.008Z</time>
      </trkpt>
      <trkpt lat="40.773636" lon="-3.98349">
        <ele>1776</ele>
        <time>2018-06-29T23:36:48.008Z</time>
      </trkpt>
      <trkpt lat="40.773645" lon="-3.983432">
        <ele>1778</ele>
        <time>2018-06-29T23:36:55.008Z</time>
      </trkpt>
      <trkpt lat="40.773647" lon="-3.983384">
        <ele>1778.63030099297</ele>
        <time>2018-06-29T23:37:01.008Z</time>
      </trkpt>
      <trkpt lat="40.773659" lon="-3.983333">
        <ele>1782</ele>
        <time>2018-06-29T23:37:07.008Z</time>
      </trkpt>
      <trkpt lat="40.773665" lon="-3.983285">
        <ele>1783</ele>
        <time>2018-06-29T23:37:14.008Z</time>
      </trkpt>
      <trkpt lat="40.773683" lon="-3.983242">
        <ele>1784</ele>
        <time>2018-06-29T23:37:20.008Z</time>
      </trkpt>
      <trkpt lat="40.773691" lon="-3.983168">
        <ele>1787</ele>
        <time>2018-06-29T23:37:33.008Z</time>
      </trkpt>
      <trkpt lat="40.773705" lon="-3.983109">
        <ele>1789</ele>
        <time>2018-06-29T23:37:42.008Z</time>
      </trkpt>
      <trkpt lat="40.773733" lon="-3.983064">
        <ele>1790</ele>
        <time>2018-06-29T23:37:53.008Z</time>
      </trkpt>
      <trkpt lat="40.77374" lon="-3.983014">
        <ele>1793</ele>
        <time>2018-06-29T23:38:04.008Z</time>
      </trkpt>
      <trkpt lat="40.773753" lon="-3.982962">
        <ele>1794</ele>
        <time>2018-06-29T23:38:12.008Z</time>
      </trkpt>
      <trkpt lat="40.773779" lon="-3.98291">
        <ele>1794.20204276217</ele>
        <time>2018-06-29T23:38:21.008Z</time>
      </trkpt>
      <trkpt lat="40.773797" lon="-3.982857">
        <ele>1795</ele>
        <time>2018-06-29T23:38:30.008Z</time>
      </trkpt>
      <trkpt lat="40.773823" lon="-3.982819">
        <ele>1798</ele>
        <time>2018-06-29T23:38:37.008Z</time>
      </trkpt>
      <trkpt lat="40.773848" lon="-3.982774">
        <ele>1800</ele>
        <time>2018-06-29T23:38:42.008Z</time>
      </trkpt>
      <trkpt lat="40.773858" lon="-3.982714">
        <ele>1800</ele>
        <time>2018-06-29T23:38:48.008Z</time>
      </trkpt>
      <trkpt lat="40.773889" lon="-3.982672">
        <ele>1802</ele>
        <time>2018-06-29T23:38:56.008Z</time>
      </trkpt>
      <trkpt lat="40.773913" lon="-3.982618">
        <ele>1804</ele>
        <time>2018-06-29T23:39:05.008Z</time>
      </trkpt>
      <trkpt lat="40.773949" lon="-3.982581">
        <ele>1806</ele>
        <time>2018-06-29T23:39:13.008Z</time>
      </trkpt>
      <trkpt lat="40.773955" lon="-3.98252">
        <ele>1808</ele>
        <time>2018-06-29T23:39:22.008Z</time>
      </trkpt>
      <trkpt lat="40.773935" lon="-3.982476">
        <ele>1808</ele>
        <time>2018-06-29T23:39:28.008Z</time>
      </trkpt>
      <trkpt lat="40.773899" lon="-3.982466">
        <ele>1810</ele>
        <time>2018-06-29T23:39:34.008Z</time>
      </trkpt>
      <trkpt lat="40.773852" lon="-3.982479">
        <ele>1810</ele>
        <time>2018-06-29T23:39:40.008Z</time>
      </trkpt>
      <trkpt lat="40.773813" lon="-3.982454">
        <ele>1811</ele>
        <time>2018-06-29T23:39:45.008Z</time>
      </trkpt>
      <trkpt lat="40.773783" lon="-3.982411">
        <ele>1811</ele>
        <time>2018-06-29T23:39:50.008Z</time>
      </trkpt>
      <trkpt lat="40.77378" lon="-3.982348">
        <ele>1815</ele>
        <time>2018-06-29T23:40:02.008Z</time>
      </trkpt>
      <trkpt lat="40.773804" lon="-3.98231">
        <ele>1815</ele>
        <time>2018-06-29T23:40:07.008Z</time>
      </trkpt>
      <trkpt lat="40.773802" lon="-3.982256">
        <ele>1817</ele>
        <time>2018-06-29T23:40:13.008Z</time>
      </trkpt>
      <trkpt lat="40.77376" lon="-3.982244">
        <ele>1817</ele>
        <time>2018-06-29T23:40:19.008Z</time>
      </trkpt>
      <trkpt lat="40.773722" lon="-3.982214">
        <ele>1820.21372369395</ele>
        <time>2018-06-29T23:40:26.008Z</time>
      </trkpt>
      <trkpt lat="40.773692" lon="-3.982174">
        <ele>1822</ele>
        <time>2018-06-29T23:40:33.008Z</time>
      </trkpt>
      <trkpt lat="40.773686" lon="-3.982124">
        <ele>1823.1311137343</ele>
        <time>2018-06-29T23:40:41.008Z</time>
      </trkpt>
      <trkpt lat="40.773658" lon="-3.982078">
        <ele>1824</ele>
        <time>2018-06-29T23:40:50.008Z</time>
      </trkpt>
      <trkpt lat="40.773688" lon="-3.982024">
        <ele>1826</ele>
        <time>2018-06-29T23:40:58.008Z</time>
      </trkpt>
      <trkpt lat="40.773713" lon="-3.981977">
        <ele>1828</ele>
        <time>2018-06-29T23:41:04.008Z</time>
      </trkpt>
      <trkpt lat="40.773668" lon="-3.981949">
        <ele>1830</ele>
        <time>2018-06-29T23:41:13.008Z</time>
      </trkpt>
      <trkpt lat="40.773646" lon="-3.981901">
        <ele>1830</ele>
        <time>2018-06-29T23:41:20.008Z</time>
      </trkpt>
      <trkpt lat="40.773654" lon="-3.981856">
        <ele>1832</ele>
        <time>2018-06-29T23:41:26.008Z</time>
      </trkpt>
      <trkpt lat="40.773662" lon="-3.981808">
        <ele>1834</ele>
        <time>2018-06-29T23:41:34.008Z</time>
      </trkpt>
      <trkpt lat="40.77362" lon="-3.981791">
        <ele>1834.2622274686</ele>
        <time>2018-06-29T23:41:41.008Z</time>
      </trkpt>
      <trkpt lat="40.773589" lon="-3.981752">
        <ele>1836</ele>
        <time>2018-06-29T23:41:49.008Z</time>
      </trkpt>
      <trkpt lat="40.773566" lon="-3.981696">
        <ele>1838</ele>
        <time>2018-06-29T23:41:59.008Z</time>
      </trkpt>
      <trkpt lat="40.773561" lon="-3.981639">
        <ele>1841.1311137343</ele>
        <time>2018-06-29T23:42:11.008Z</time>
      </trkpt>
      <trkpt lat="40.773575" lon="-3.981569">
        <ele>1843</ele>
        <time>2018-06-29T23:42:23.008Z</time>
      </trkpt>
      <trkpt lat="40.773562" lon="-3.981511">
        <ele>1843.42020066198</ele>
        <time>2018-06-29T23:42:31.008Z</time>
      </trkpt>
      <trkpt lat="40.773551" lon="-3.981456">
        <ele>1845</ele>
        <time>2018-06-29T23:42:38.008Z</time>
      </trkpt>
      <trkpt lat="40.773582" lon="-3.981396">
        <ele>1847</ele>
        <time>2018-06-29T23:42:46.008Z</time>
      </trkpt>
      <trkpt lat="40.773604" lon="-3.981343">
        <ele>1849</ele>
        <time>2018-06-29T23:42:54.008Z</time>
      </trkpt>
      <trkpt lat="40.773633" lon="-3.981311">
        <ele>1851</ele>
        <time>2018-06-29T23:43:03.008Z</time>
      </trkpt>
      <trkpt lat="40.773653" lon="-3.981274">
        <ele>1851</ele>
        <time>2018-06-29T23:43:09.008Z</time>
      </trkpt>
      <trkpt lat="40.773653" lon="-3.981206">
        <ele>1853</ele>
        <time>2018-06-29T23:43:19.008Z</time>
      </trkpt>
      <trkpt lat="40.773671" lon="-3.98114">
        <ele>1855</ele>
        <time>2018-06-29T23:43:29.008Z</time>
      </trkpt>
      <trkpt lat="40.773661" lon="-3.981086">
        <ele>1857</ele>
        <time>2018-06-29T23:43:35.008Z</time>
      </trkpt>
      <trkpt lat="40.773629" lon="-3.98105">
        <ele>1857.2622274686</ele>
        <time>2018-06-29T23:43:41.008Z</time>
      </trkpt>
      <trkpt lat="40.773615" lon="-3.980984">
        <ele>1861</ele>
        <time>2018-06-29T23:43:52.008Z</time>
      </trkpt>
      <trkpt lat="40.773649" lon="-3.980938">
        <ele>1861</ele>
        <time>2018-06-29T23:44:00.008Z</time>
      </trkpt>
      <trkpt lat="40.77368" lon="-3.980884">
        <ele>1863</ele>
        <time>2018-06-29T23:44:07.008Z</time>
      </trkpt>
      <trkpt lat="40.773699" lon="-3.980843">
        <ele>1865</ele>
        <time>2018-06-29T23:44:12.008Z</time>
      </trkpt>
      <trkpt lat="40.773715" lon="-3.980783">
        <ele>1866</ele>
        <time>2018-06-29T23:44:20.008Z</time>
      </trkpt>
      <trkpt lat="40.773708" lon="-3.980739">
        <ele>1867</ele>
        <time>2018-06-29T23:44:24.008Z</time>
      </trkpt>
      <trkpt lat="40.77371" lon="-3.980691">
        <ele>1867</ele>
        <time>2018-06-29T23:44:30.008Z</time>
      </trkpt>
      <trkpt lat="40.773699" lon="-3.980641">
        <ele>1869</ele>
        <time>2018-06-29T23:44:37.008Z</time>
      </trkpt>
      <trkpt lat="40.773717" lon="-3.98058">
        <ele>1871</ele>
        <time>2018-06-29T23:44:49.008Z</time>
      </trkpt>
      <trkpt lat="40.773759" lon="-3.980548">
        <ele>1874</ele>
        <time>2018-06-29T23:44:57.008Z</time>
      </trkpt>
      <trkpt lat="40.773804" lon="-3.980518">
        <ele>1876</ele>
        <time>2018-06-29T23:45:03.008Z</time>
      </trkpt>
      <trkpt lat="40.773836" lon="-3.980471">
        <ele>1876</ele>
        <time>2018-06-29T23:45:10.008Z</time>
      </trkpt>
      <trkpt lat="40.773872" lon="-3.980417">
        <ele>1877</ele>
        <time>2018-06-29T23:45:16.008Z</time>
      </trkpt>
      <trkpt lat="40.77389" lon="-3.98036">
        <ele>1877.20204276217</ele>
        <time>2018-06-29T23:45:21.008Z</time>
      </trkpt>
      <trkpt lat="40.773914" lon="-3.980303">
        <ele>1878</ele>
        <time>2018-06-29T23:45:27.008Z</time>
      </trkpt>
      <trkpt lat="40.773907" lon="-3.980261">
        <ele>1878.42020066198</ele>
        <time>2018-06-29T23:45:31.008Z</time>
      </trkpt>
      <trkpt lat="40.773918" lon="-3.980209">
        <ele>1880</ele>
        <time>2018-06-29T23:45:37.008Z</time>
      </trkpt>
      <trkpt lat="40.773886" lon="-3.98018">
        <ele>1882</ele>
        <time>2018-06-29T23:45:43.008Z</time>
      </trkpt>
      <trkpt lat="40.773863" lon="-3.980135">
        <ele>1882</ele>
        <time>2018-06-29T23:45:50.008Z</time>
      </trkpt>
      <trkpt lat="40.773861" lon="-3.980078">
        <ele>1884</ele>
        <time>2018-06-29T23:45:57.008Z</time>
      </trkpt>
      <trkpt lat="40.773899" lon="-3.980034">
        <ele>1887</ele>
        <time>2018-06-29T23:46:05.008Z</time>
      </trkpt>
      <trkpt lat="40.773918" lon="-3.979975">
        <ele>1887.1311137343</ele>
        <time>2018-06-29T23:46:11.008Z</time>
      </trkpt>
      <trkpt lat="40.773941" lon="-3.979923">
        <ele>1888</ele>
        <time>2018-06-29T23:46:17.008Z</time>
      </trkpt>
      <trkpt lat="40.773975" lon="-3.979882">
        <ele>1890</ele>
        <time>2018-06-29T23:46:23.008Z</time>
      </trkpt>
      <trkpt lat="40.773999" lon="-3.979811">
        <ele>1892</ele>
        <time>2018-06-29T23:46:32.008Z</time>
      </trkpt>
      <trkpt lat="40.774048" lon="-3.9798">
        <ele>1892</ele>
        <time>2018-06-29T23:46:40.008Z</time>
      </trkpt>
      <trkpt lat="40.774083" lon="-3.979756">
        <ele>1892</ele>
        <time>2018-06-29T23:46:46.008Z</time>
      </trkpt>
      <trkpt lat="40.774126" lon="-3.979696">
        <ele>1892</ele>
        <time>2018-06-29T23:46:56.008Z</time>
      </trkpt>
      <trkpt lat="40.774144" lon="-3.979624">
        <ele>1894</ele>
        <time>2018-06-29T23:47:09.008Z</time>
      </trkpt>
      <trkpt lat="40.774181" lon="-3.979564">
        <ele>1896</ele>
        <time>2018-06-29T23:47:18.008Z</time>
      </trkpt>
      <trkpt lat="40.774205" lon="-3.97949">
        <ele>1898</ele>
        <time>2018-06-29T23:47:26.008Z</time>
      </trkpt>
      <trkpt lat="40.774233" lon="-3.979439">
        <ele>1900</ele>
        <time>2018-06-29T23:47:43.008Z</time>
      </trkpt>
      <trkpt lat="40.774249" lon="-3.979381">
        <ele>1902</ele>
        <time>2018-06-29T23:47:55.008Z</time>
      </trkpt>
      <trkpt lat="40.774268" lon="-3.979318">
        <ele>1903</ele>
        <time>2018-06-29T23:48:19.008Z</time>
      </trkpt>
      <trkpt lat="40.774268" lon="-3.979258">
        <ele>1906</ele>
        <time>2018-06-29T23:48:38.008Z</time>
      </trkpt>
      <trkpt lat="40.774288" lon="-3.979202">
        <ele>1908</ele>
        <time>2018-06-29T23:48:52.008Z</time>
      </trkpt>
      <trkpt lat="40.774265" lon="-3.979164">
        <ele>1909</ele>
        <time>2018-06-29T23:48:58.008Z</time>
      </trkpt>
      <trkpt lat="40.774276" lon="-3.979109">
        <ele>1912</ele>
        <time>2018-06-29T23:49:08.008Z</time>
      </trkpt>
      <trkpt lat="40.774247" lon="-3.979063">
        <ele>1913.40408552434</ele>
        <time>2018-06-29T23:49:21.008Z</time>
      </trkpt>
      <trkpt lat="40.774252" lon="-3.979005">
        <ele>1915.63030099297</ele>
        <time>2018-06-29T23:49:31.008Z</time>
      </trkpt>
      <trkpt lat="40.77428" lon="-3.978935">
        <ele>1919</ele>
        <time>2018-06-29T23:49:39.008Z</time>
      </trkpt>
      <trkpt lat="40.774309" lon="-3.978875">
        <ele>1920</ele>
        <time>2018-06-29T23:49:46.008Z</time>
      </trkpt>
      <trkpt lat="40.774312" lon="-3.978805">
        <ele>1921</ele>
        <time>2018-06-29T23:49:56.008Z</time>
      </trkpt>
      <trkpt lat="40.774313" lon="-3.978732">
        <ele>1924.1311137343</ele>
        <time>2018-06-29T23:50:11.008Z</time>
      </trkpt>
      <trkpt lat="40.774316" lon="-3.978673">
        <ele>1927</ele>
        <time>2018-06-29T23:50:23.008Z</time>
      </trkpt>
      <trkpt lat="40.774307" lon="-3.978616">
        <ele>1929</ele>
        <time>2018-06-29T23:50:35.008Z</time>
      </trkpt>
      <trkpt lat="40.77431" lon="-3.97855">
        <ele>1931.20204276217</ele>
        <time>2018-06-29T23:50:51.008Z</time>
      </trkpt>
      <trkpt lat="40.774295" lon="-3.978487">
        <ele>1934</ele>
        <time>2018-06-29T23:51:10.008Z</time>
      </trkpt>
      <trkpt lat="40.774264" lon="-3.978428">
        <ele>1938</ele>
        <time>2018-06-29T23:51:23.008Z</time>
      </trkpt>
      <trkpt lat="40.774245" lon="-3.978378">
        <ele>1939</ele>
        <time>2018-06-29T23:51:36.008Z</time>
      </trkpt>
      <trkpt lat="40.774267" lon="-3.978284">
        <ele>1944</ele>
        <time>2018-06-29T23:51:53.008Z</time>
      </trkpt>
      <trkpt lat="40.774292" lon="-3.97824">
        <ele>1945.21010033099</ele>
        <time>2018-06-29T23:52:01.008Z</time>
      </trkpt>
      <trkpt lat="40.774314" lon="-3.978125">
        <ele>1948</ele>
        <time>2018-06-29T23:52:19.008Z</time>
      </trkpt>
      <trkpt lat="40.774339" lon="-3.97806">
        <ele>1950</ele>
        <time>2018-06-29T23:52:28.008Z</time>
      </trkpt>
      <trkpt lat="40.774355" lon="-3.977976">
        <ele>1955</ele>
        <time>2018-06-29T23:52:44.008Z</time>
      </trkpt>
      <trkpt lat="40.774374" lon="-3.977882">
        <ele>1958</ele>
        <time>2018-06-29T23:53:09.008Z</time>
      </trkpt>
      <trkpt lat="40.774373" lon="-3.97781">
        <ele>1961</ele>
        <time>2018-06-29T23:53:25.008Z</time>
      </trkpt>
      <trkpt lat="40.774369" lon="-3.977723">
        <ele>1965</ele>
        <time>2018-06-29T23:53:43.008Z</time>
      </trkpt>
      <trkpt lat="40.774374" lon="-3.97764">
        <ele>1967</ele>
        <time>2018-06-29T23:53:58.008Z</time>
      </trkpt>
      <trkpt lat="40.774418" lon="-3.977554">
        <ele>1970</ele>
        <time>2018-06-29T23:54:12.008Z</time>
      </trkpt>
      <trkpt lat="40.774432" lon="-3.977474">
        <ele>1972</ele>
        <time>2018-06-29T23:54:25.008Z</time>
      </trkpt>
      <trkpt lat="40.774412" lon="-3.977399">
        <ele>1973</ele>
        <time>2018-06-29T23:54:38.008Z</time>
      </trkpt>
      <trkpt lat="40.774398" lon="-3.977327">
        <ele>1975</ele>
        <time>2018-06-29T23:54:50.008Z</time>
      </trkpt>
      <trkpt lat="40.774414" lon="-3.977232">
        <ele>1980</ele>
        <time>2018-06-29T23:55:05.008Z</time>
      </trkpt>
      <trkpt lat="40.774426" lon="-3.977155">
        <ele>1981</ele>
        <time>2018-06-29T23:55:17.008Z</time>
      </trkpt>
      <trkpt lat="40.774454" lon="-3.977065">
        <ele>1985</ele>
        <time>2018-06-29T23:55:32.008Z</time>
      </trkpt>
      <trkpt lat="40.774409" lon="-3.977036">
        <ele>1988</ele>
        <time>2018-06-29T23:55:42.008Z</time>
      </trkpt>
      <trkpt lat="40.774365" lon="-3.977016">
        <ele>1988</ele>
        <time>2018-06-29T23:55:50.008Z</time>
      </trkpt>
      <trkpt lat="40.774313" lon="-3.977">
        <ele>1990</ele>
        <time>2018-06-29T23:56:00.008Z</time>
      </trkpt>
      <trkpt lat="40.774314" lon="-3.976922">
        <ele>1993</ele>
        <time>2018-06-29T23:56:15.008Z</time>
      </trkpt>
      <trkpt lat="40.774294" lon="-3.976849">
        <ele>1995</ele>
        <time>2018-06-29T23:56:25.008Z</time>
      </trkpt>
      <trkpt lat="40.774306" lon="-3.976779">
        <ele>1999</ele>
        <time>2018-06-29T23:56:37.008Z</time>
      </trkpt>
      <trkpt lat="40.774313" lon="-3.976675">
        <ele>2000</ele>
        <time>2018-06-29T23:56:49.008Z</time>
      </trkpt>
      <trkpt lat="40.774303" lon="-3.976597">
        <ele>2002</ele>
        <time>2018-06-29T23:56:56.008Z</time>
      </trkpt>
      <trkpt lat="40.774304" lon="-3.976527">
        <ele>2006</ele>
        <time>2018-06-29T23:57:05.008Z</time>
      </trkpt>
      <trkpt lat="40.774295" lon="-3.976466">
        <ele>2008</ele>
        <time>2018-06-29T23:57:13.008Z</time>
      </trkpt>
      <trkpt lat="40.774306" lon="-3.9764">
        <ele>2008.20204276217</ele>
        <time>2018-06-29T23:57:21.008Z</time>
      </trkpt>
      <trkpt lat="40.774321" lon="-3.976328">
        <ele>2010</ele>
        <time>2018-06-29T23:57:30.008Z</time>
      </trkpt>
      <trkpt lat="40.774288" lon="-3.976275">
        <ele>2012</ele>
        <time>2018-06-29T23:57:40.008Z</time>
      </trkpt>
      <trkpt lat="40.774255" lon="-3.97621">
        <ele>2017</ele>
        <time>2018-06-29T23:57:50.008Z</time>
      </trkpt>
      <trkpt lat="40.77425" lon="-3.976126">
        <ele>2020</ele>
        <time>2018-06-29T23:58:00.008Z</time>
      </trkpt>
      <trkpt lat="40.774229" lon="-3.97606">
        <ele>2022</ele>
        <time>2018-06-29T23:58:10.008Z</time>
      </trkpt>
      <trkpt lat="40.774225" lon="-3.975994">
        <ele>2024.1311137343</ele>
        <time>2018-06-29T23:58:17.008Z</time>
      </trkpt>
      <trkpt lat="40.774224" lon="-3.975926">
        <ele>2027</ele>
        <time>2018-06-29T23:58:26.008Z</time>
      </trkpt>
      <trkpt lat="40.774226" lon="-3.975845">
        <ele>2028</ele>
        <time>2018-06-29T23:58:38.008Z</time>
      </trkpt>
      <trkpt lat="40.774247" lon="-3.975779">
        <ele>2032</ele>
        <time>2018-06-29T23:58:47.008Z</time>
      </trkpt>
      <trkpt lat="40.774259" lon="-3.975687">
        <ele>2033</ele>
        <time>2018-06-29T23:58:59.008Z</time>
      </trkpt>
      <trkpt lat="40.774276" lon="-3.975608">
        <ele>2035</ele>
        <time>2018-06-29T23:59:08.008Z</time>
      </trkpt>
      <trkpt lat="40.774285" lon="-3.975519">
        <ele>2039</ele>
        <time>2018-06-29T23:59:18.008Z</time>
      </trkpt>
      <trkpt lat="40.774297" lon="-3.975426">
        <ele>2040</ele>
        <time>2018-06-29T23:59:30.008Z</time>
      </trkpt>
      <trkpt lat="40.774322" lon="-3.975343">
        <ele>2041</ele>
        <time>2018-06-29T23:59:39.008Z</time>
      </trkpt>
      <trkpt lat="40.774316" lon="-3.975271">
        <ele>2044</ele>
        <time>2018-06-29T23:59:48.008Z</time>
      </trkpt>
      <trkpt lat="40.77431" lon="-3.975195">
        <ele>2046</ele>
        <time>2018-06-29T23:59:58.008Z</time>
      </trkpt>
      <trkpt lat="40.774327" lon="-3.975102">
        <ele>2048</ele>
        <time>2018-06-30T00:00:08.008Z</time>
      </trkpt>
      <trkpt lat="40.774322" lon="-3.975024">
        <ele>2048</ele>
        <time>2018-06-30T00:00:18.008Z</time>
      </trkpt>
      <trkpt lat="40.774316" lon="-3.974953">
        <ele>2051</ele>
        <time>2018-06-30T00:00:25.008Z</time>
      </trkpt>
      <trkpt lat="40.7743" lon="-3.974892">
        <ele>2053.21010033099</ele>
        <time>2018-06-30T00:00:31.008Z</time>
      </trkpt>
      <trkpt lat="40.774304" lon="-3.974808">
        <ele>2056</ele>
        <time>2018-06-30T00:00:39.008Z</time>
      </trkpt>
      <trkpt lat="40.774307" lon="-3.974732">
        <ele>2056.19818006214</ele>
        <time>2018-06-30T00:00:46.008Z</time>
      </trkpt>
      <trkpt lat="40.774304" lon="-3.974661">
        <ele>2058</ele>
        <time>2018-06-30T00:00:53.008Z</time>
      </trkpt>
      <trkpt lat="40.774298" lon="-3.974596">
        <ele>2058</ele>
        <time>2018-06-30T00:01:00.008Z</time>
      </trkpt>
      <trkpt lat="40.774285" lon="-3.974531">
        <ele>2060.43167819938</ele>
        <time>2018-06-30T00:01:06.008Z</time>
      </trkpt>
      <trkpt lat="40.774263" lon="-3.974474">
        <ele>2062</ele>
        <time>2018-06-30T00:01:11.008Z</time>
      </trkpt>
      <trkpt lat="40.774238" lon="-3.974429">
        <ele>2062</ele>
        <time>2018-06-30T00:01:15.008Z</time>
      </trkpt>
      <trkpt lat="40.774207" lon="-3.974382">
        <ele>2062</ele>
        <time>2018-06-30T00:01:20.008Z</time>
      </trkpt>
      <trkpt lat="40.774184" lon="-3.974319">
        <ele>2063</ele>
        <time>2018-06-30T00:01:25.008Z</time>
      </trkpt>
      <trkpt lat="40.774165" lon="-3.974266">
        <ele>2063</ele>
        <time>2018-06-30T00:01:29.008Z</time>
      </trkpt>
      <trkpt lat="40.774143" lon="-3.974222">
        <ele>2065</ele>
        <time>2018-06-30T00:01:33.008Z</time>
      </trkpt>
      <trkpt lat="40.774127" lon="-3.974175">
        <ele>2065</ele>
        <time>2018-06-30T00:01:37.008Z</time>
      </trkpt>
      <trkpt lat="40.774111" lon="-3.974098">
        <ele>2067</ele>
        <time>2018-06-30T00:01:43.008Z</time>
      </trkpt>
      <trkpt lat="40.774098" lon="-3.974046">
        <ele>2068</ele>
        <time>2018-06-30T00:01:47.008Z</time>
      </trkpt>
      <trkpt lat="40.77409" lon="-3.973984">
        <ele>2068</ele>
        <time>2018-06-30T00:01:52.008Z</time>
      </trkpt>
      <trkpt lat="40.774078" lon="-3.973918">
        <ele>2068</ele>
        <time>2018-06-30T00:01:57.008Z</time>
      </trkpt>
      <trkpt lat="40.774053" lon="-3.973864">
        <ele>2070</ele>
        <time>2018-06-30T00:02:02.008Z</time>
      </trkpt>
      <trkpt lat="40.774045" lon="-3.973797">
        <ele>2071</ele>
        <time>2018-06-30T00:02:07.008Z</time>
      </trkpt>
      <trkpt lat="40.774044" lon="-3.973736">
        <ele>2071</ele>
        <time>2018-06-30T00:02:11.008Z</time>
      </trkpt>
      <trkpt lat="40.77405" lon="-3.973661">
        <ele>2071</ele>
        <time>2018-06-30T00:02:16.008Z</time>
      </trkpt>
      <trkpt lat="40.774049" lon="-3.973583">
        <ele>2071.20204276217</ele>
        <time>2018-06-30T00:02:21.008Z</time>
      </trkpt>
      <trkpt lat="40.774055" lon="-3.973503">
        <ele>2072</ele>
        <time>2018-06-30T00:02:26.008Z</time>
      </trkpt>
      <trkpt lat="40.774059" lon="-3.973423">
        <ele>2072</ele>
        <time>2018-06-30T00:02:31.008Z</time>
      </trkpt>
      <trkpt lat="40.77406" lon="-3.973354">
        <ele>2072</ele>
        <time>2018-06-30T00:02:35.008Z</time>
      </trkpt>
      <trkpt lat="40.774058" lon="-3.973287">
        <ele>2072</ele>
        <time>2018-06-30T00:02:39.008Z</time>
      </trkpt>
      <trkpt lat="40.774063" lon="-3.973203">
        <ele>2074</ele>
        <time>2018-06-30T00:02:44.008Z</time>
      </trkpt>
      <trkpt lat="40.774064" lon="-3.973123">
        <ele>2074</ele>
        <time>2018-06-30T00:02:49.008Z</time>
      </trkpt>
      <trkpt lat="40.774061" lon="-3.973046">
        <ele>2074</ele>
        <time>2018-06-30T00:02:54.008Z</time>
      </trkpt>
      <trkpt lat="40.774096" lon="-3.972987">
        <ele>2074</ele>
        <time>2018-06-30T00:02:59.008Z</time>
      </trkpt>
      <trkpt lat="40.774123" lon="-3.972948">
        <ele>2075</ele>
        <time>2018-06-30T00:03:02.008Z</time>
      </trkpt>
      <trkpt lat="40.774133" lon="-3.972882">
        <ele>2075</ele>
        <time>2018-06-30T00:03:06.008Z</time>
      </trkpt>
      <trkpt lat="40.774133" lon="-3.972819">
        <ele>2075</ele>
        <time>2018-06-30T00:03:10.008Z</time>
      </trkpt>
      <trkpt lat="40.774131" lon="-3.972752">
        <ele>2075</ele>
        <time>2018-06-30T00:03:14.008Z</time>
      </trkpt>
      <trkpt lat="40.774126" lon="-3.972689">
        <ele>2075</ele>
        <time>2018-06-30T00:03:18.008Z</time>
      </trkpt>
      <trkpt lat="40.77412" lon="-3.972625">
        <ele>2076</ele>
        <time>2018-06-30T00:03:22.008Z</time>
      </trkpt>
      <trkpt lat="40.774113" lon="-3.972551">
        <ele>2076</ele>
        <time>2018-06-30T00:03:26.008Z</time>
      </trkpt>
      <trkpt lat="40.774111" lon="-3.972472">
        <ele>2076</ele>
        <time>2018-06-30T00:03:30.008Z</time>
      </trkpt>
      <trkpt lat="40.774106" lon="-3.972414">
        <ele>2075</ele>
        <time>2018-06-30T00:03:33.008Z</time>
      </trkpt>
      <trkpt lat="40.7741" lon="-3.972319">
        <ele>2075</ele>
        <time>2018-06-30T00:03:38.008Z</time>
      </trkpt>
      <trkpt lat="40.774091" lon="-3.972243">
        <ele>2074</ele>
        <time>2018-06-30T00:03:42.008Z</time>
      </trkpt>
      <trkpt lat="40.77408" lon="-3.972172">
        <ele>2074</ele>
        <time>2018-06-30T00:03:46.008Z</time>
      </trkpt>
      <trkpt lat="40.774064" lon="-3.972103">
        <ele>2074</ele>
        <time>2018-06-30T00:03:50.008Z</time>
      </trkpt>
      <trkpt lat="40.774037" lon="-3.972058">
        <ele>2073</ele>
        <time>2018-06-30T00:03:53.008Z</time>
      </trkpt>
      <trkpt lat="40.774" lon="-3.972026">
        <ele>2073</ele>
        <time>2018-06-30T00:03:56.008Z</time>
      </trkpt>
      <trkpt lat="40.773948" lon="-3.971994">
        <ele>2073</ele>
        <time>2018-06-30T00:04:00.008Z</time>
      </trkpt>
      <trkpt lat="40.773911" lon="-3.971968">
        <ele>2072</ele>
        <time>2018-06-30T00:04:03.008Z</time>
      </trkpt>
      <trkpt lat="40.773861" lon="-3.971935">
        <ele>2072</ele>
        <time>2018-06-30T00:04:07.008Z</time>
      </trkpt>
      <trkpt lat="40.7738" lon="-3.971886">
        <ele>2073</ele>
        <time>2018-06-30T00:04:12.008Z</time>
      </trkpt>
      <trkpt lat="40.773739" lon="-3.97184">
        <ele>2073</ele>
        <time>2018-06-30T00:04:17.008Z</time>
      </trkpt>
      <trkpt lat="40.7737" lon="-3.971815">
        <ele>2073</ele>
        <time>2018-06-30T00:04:20.008Z</time>
      </trkpt>
      <trkpt lat="40.773645" lon="-3.971805">
        <ele>2073.21583909969</ele>
        <time>2018-06-30T00:04:24.008Z</time>
      </trkpt>
      <trkpt lat="40.773606" lon="-3.971811">
        <ele>2074</ele>
        <time>2018-06-30T00:04:27.008Z</time>
      </trkpt>
      <trkpt lat="40.773548" lon="-3.971811">
        <ele>2075</ele>
        <time>2018-06-30T00:04:32.008Z</time>
      </trkpt>
      <trkpt lat="40.773496" lon="-3.971791">
        <ele>2075</ele>
        <time>2018-06-30T00:04:36.008Z</time>
      </trkpt>
      <trkpt lat="40.77345" lon="-3.97175">
        <ele>2075</ele>
        <time>2018-06-30T00:04:40.008Z</time>
      </trkpt>
      <trkpt lat="40.773412" lon="-3.97172">
        <ele>2075</ele>
        <time>2018-06-30T00:04:43.008Z</time>
      </trkpt>
      <trkpt lat="40.773373" lon="-3.971693">
        <ele>2075</ele>
        <time>2018-06-30T00:04:46.008Z</time>
      </trkpt>
      <trkpt lat="40.773339" lon="-3.971665">
        <ele>2075</ele>
        <time>2018-06-30T00:04:49.008Z</time>
      </trkpt>
      <trkpt lat="40.773306" lon="-3.971637">
        <ele>2076</ele>
        <time>2018-06-30T00:04:52.008Z</time>
      </trkpt>
      <trkpt lat="40.773274" lon="-3.971615">
        <ele>2076</ele>
        <time>2018-06-30T00:04:55.008Z</time>
      </trkpt>
      <trkpt lat="40.773198" lon="-3.971583">
        <ele>2076.21010033099</ele>
        <time>2018-06-30T00:05:01.008Z</time>
      </trkpt>
      <trkpt lat="40.77312" lon="-3.971563">
        <ele>2077</ele>
        <time>2018-06-30T00:05:07.008Z</time>
      </trkpt>
      <trkpt lat="40.773036" lon="-3.971542">
        <ele>2079</ele>
        <time>2018-06-30T00:05:14.008Z</time>
      </trkpt>
      <trkpt lat="40.772956" lon="-3.971548">
        <ele>2079.20204276217</ele>
        <time>2018-06-30T00:05:21.008Z</time>
      </trkpt>
      <trkpt lat="40.772874" lon="-3.971521">
        <ele>2080</ele>
        <time>2018-06-30T00:05:29.008Z</time>
      </trkpt>
      <trkpt lat="40.772796" lon="-3.971493">
        <ele>2081</ele>
        <time>2018-06-30T00:05:36.008Z</time>
      </trkpt>
      <trkpt lat="40.772742" lon="-3.971475">
        <ele>2081.2622274686</ele>
        <time>2018-06-30T00:05:41.008Z</time>
      </trkpt>
      <trkpt lat="40.772674" lon="-3.971476">
        <ele>2084</ele>
        <time>2018-06-30T00:05:48.008Z</time>
      </trkpt>
      <trkpt lat="40.772594" lon="-3.971486">
        <ele>2086</ele>
        <time>2018-06-30T00:05:57.008Z</time>
      </trkpt>
      <trkpt lat="40.772516" lon="-3.971457">
        <ele>2087</ele>
        <time>2018-06-30T00:06:05.008Z</time>
      </trkpt>
      <trkpt lat="40.772472" lon="-3.971442">
        <ele>2087</ele>
        <time>2018-06-30T00:06:09.008Z</time>
      </trkpt>
      <trkpt lat="40.772406" lon="-3.971441">
        <ele>2091</ele>
        <time>2018-06-30T00:06:17.008Z</time>
      </trkpt>
      <trkpt lat="40.772312" lon="-3.971443">
        <ele>2093</ele>
        <time>2018-06-30T00:06:28.008Z</time>
      </trkpt>
      <trkpt lat="40.772237" lon="-3.971413">
        <ele>2095</ele>
        <time>2018-06-30T00:06:38.008Z</time>
      </trkpt>
      <trkpt lat="40.772175" lon="-3.971404">
        <ele>2095</ele>
        <time>2018-06-30T00:06:45.008Z</time>
      </trkpt>
      <trkpt lat="40.772094" lon="-3.97137">
        <ele>2097</ele>
        <time>2018-06-30T00:06:55.008Z</time>
      </trkpt>
      <trkpt lat="40.772027" lon="-3.97138">
        <ele>2099</ele>
        <time>2018-06-30T00:07:03.008Z</time>
      </trkpt>
      <trkpt lat="40.77196" lon="-3.971364">
        <ele>2100.1311137343</ele>
        <time>2018-06-30T00:07:11.008Z</time>
      </trkpt>
      <trkpt lat="40.771905" lon="-3.97131">
        <ele>2101</ele>
        <time>2018-06-30T00:07:18.008Z</time>
      </trkpt>
      <trkpt lat="40.771847" lon="-3.971243">
        <ele>2102</ele>
        <time>2018-06-30T00:07:26.008Z</time>
      </trkpt>
      <trkpt lat="40.771781" lon="-3.97124">
        <ele>2104</ele>
        <time>2018-06-30T00:07:34.008Z</time>
      </trkpt>
      <trkpt lat="40.77173" lon="-3.971271">
        <ele>2106</ele>
        <time>2018-06-30T00:07:42.008Z</time>
      </trkpt>
      <trkpt lat="40.771672" lon="-3.971299">
        <ele>2108</ele>
        <time>2018-06-30T00:07:53.008Z</time>
      </trkpt>
      <trkpt lat="40.771598" lon="-3.971308">
        <ele>2109</ele>
        <time>2018-06-30T00:08:05.008Z</time>
      </trkpt>
      <trkpt lat="40.771539" lon="-3.971363">
        <ele>2114.19818006214</ele>
        <time>2018-06-30T00:08:16.008Z</time>
      </trkpt>
      <trkpt lat="40.771503" lon="-3.971446">
        <ele>2116</ele>
        <time>2018-06-30T00:08:25.008Z</time>
      </trkpt>
      <trkpt lat="40.771485" lon="-3.971527">
        <ele>2118</ele>
        <time>2018-06-30T00:08:33.008Z</time>
      </trkpt>
      <trkpt lat="40.771452" lon="-3.97161">
        <ele>2118.1311137343</ele>
        <time>2018-06-30T00:08:41.008Z</time>
      </trkpt>
      <trkpt lat="40.771425" lon="-3.971695">
        <ele>2119</ele>
        <time>2018-06-30T00:08:49.008Z</time>
      </trkpt>
      <trkpt lat="40.771383" lon="-3.97178">
        <ele>2123</ele>
        <time>2018-06-30T00:08:59.008Z</time>
      </trkpt>
      <trkpt lat="40.771353" lon="-3.971868">
        <ele>2125</ele>
        <time>2018-06-30T00:09:08.008Z</time>
      </trkpt>
      <trkpt lat="40.771309" lon="-3.971945">
        <ele>2127</ele>
        <time>2018-06-30T00:09:17.008Z</time>
      </trkpt>
      <trkpt lat="40.77128" lon="-3.972016">
        <ele>2127</ele>
        <time>2018-06-30T00:09:24.008Z</time>
      </trkpt>
      <trkpt lat="40.771222" lon="-3.972044">
        <ele>2128</ele>
        <time>2018-06-30T00:09:33.008Z</time>
      </trkpt>
      <trkpt lat="40.771156" lon="-3.972052">
        <ele>2131</ele>
        <time>2018-06-30T00:09:42.008Z</time>
      </trkpt>
      <trkpt lat="40.771071" lon="-3.972053">
        <ele>2135</ele>
        <time>2018-06-30T00:09:55.008Z</time>
      </trkpt>
      <trkpt lat="40.771013" lon="-3.972077">
        <ele>2137</ele>
        <time>2018-06-30T00:10:03.008Z</time>
      </trkpt>
      <trkpt lat="40.770946" lon="-3.972097">
        <ele>2139</ele>
        <time>2018-06-30T00:10:13.008Z</time>
      </trkpt>
      <trkpt lat="40.770881" lon="-3.972119">
        <ele>2141</ele>
        <time>2018-06-30T00:10:22.008Z</time>
      </trkpt>
      <trkpt lat="40.770806" lon="-3.972139">
        <ele>2143</ele>
        <time>2018-06-30T00:10:33.008Z</time>
      </trkpt>
      <trkpt lat="40.770736" lon="-3.972174">
        <ele>2145</ele>
        <time>2018-06-30T00:10:42.008Z</time>
      </trkpt>
      <trkpt lat="40.770665" lon="-3.972166">
        <ele>2148</ele>
        <time>2018-06-30T00:10:52.008Z</time>
      </trkpt>
      <trkpt lat="40.770581" lon="-3.972179">
        <ele>2150</ele>
        <time>2018-06-30T00:11:04.008Z</time>
      </trkpt>
      <trkpt lat="40.770498" lon="-3.972153">
        <ele>2151</ele>
        <time>2018-06-30T00:11:14.008Z</time>
      </trkpt>
      <trkpt lat="40.770437" lon="-3.972074">
        <ele>2153</ele>
        <time>2018-06-30T00:11:23.008Z</time>
      </trkpt>
      <trkpt lat="40.770386" lon="-3.972012">
        <ele>2153</ele>
        <time>2018-06-30T00:11:30.008Z</time>
      </trkpt>
      <trkpt lat="40.770327" lon="-3.971964">
        <ele>2153</ele>
        <time>2018-06-30T00:11:38.008Z</time>
      </trkpt>
      <trkpt lat="40.77029" lon="-3.971888">
        <ele>2155</ele>
        <time>2018-06-30T00:11:44.008Z</time>
      </trkpt>
      <trkpt lat="40.77023" lon="-3.97182">
        <ele>2157</ele>
        <time>2018-06-30T00:11:52.008Z</time>
      </trkpt>
      <trkpt lat="40.770187" lon="-3.971738">
        <ele>2157</ele>
        <time>2018-06-30T00:11:59.008Z</time>
      </trkpt>
      <trkpt lat="40.770163" lon="-3.971639">
        <ele>2160</ele>
        <time>2018-06-30T00:12:06.008Z</time>
      </trkpt>
      <trkpt lat="40.770144" lon="-3.97155">
        <ele>2160</ele>
        <time>2018-06-30T00:12:12.008Z</time>
      </trkpt>
      <trkpt lat="40.770111" lon="-3.971446">
        <ele>2160</ele>
        <time>2018-06-30T00:12:19.008Z</time>
      </trkpt>
      <trkpt lat="40.770076" lon="-3.971349">
        <ele>2161</ele>
        <time>2018-06-30T00:12:26.008Z</time>
      </trkpt>
      <trkpt lat="40.770034" lon="-3.971262">
        <ele>2161</ele>
        <time>2018-06-30T00:12:33.008Z</time>
      </trkpt>
      <trkpt lat="40.769986" lon="-3.971191">
        <ele>2161</ele>
        <time>2018-06-30T00:12:40.008Z</time>
      </trkpt>
      <trkpt lat="40.769942" lon="-3.971104">
        <ele>2165</ele>
        <time>2018-06-30T00:12:47.008Z</time>
      </trkpt>
      <trkpt lat="40.769906" lon="-3.971006">
        <ele>2165</ele>
        <time>2018-06-30T00:12:54.008Z</time>
      </trkpt>
      <trkpt lat="40.769865" lon="-3.970928">
        <ele>2165</ele>
        <time>2018-06-30T00:13:00.008Z</time>
      </trkpt>
      <trkpt lat="40.769813" lon="-3.970854">
        <ele>2166</ele>
        <time>2018-06-30T00:13:06.008Z</time>
      </trkpt>
      <trkpt lat="40.769744" lon="-3.970801">
        <ele>2168</ele>
        <time>2018-06-30T00:13:13.008Z</time>
      </trkpt>
      <trkpt lat="40.769671" lon="-3.970738">
        <ele>2169</ele>
        <time>2018-06-30T00:13:21.008Z</time>
      </trkpt>
      <trkpt lat="40.769606" lon="-3.970666">
        <ele>2169</ele>
        <time>2018-06-30T00:13:29.008Z</time>
      </trkpt>
      <trkpt lat="40.769527" lon="-3.970623">
        <ele>2174</ele>
        <time>2018-06-30T00:13:40.008Z</time>
      </trkpt>
      <trkpt lat="40.769445" lon="-3.970586">
        <ele>2176.20204276217</ele>
        <time>2018-06-30T00:13:51.008Z</time>
      </trkpt>
      <trkpt lat="40.769375" lon="-3.97052">
        <ele>2178</ele>
        <time>2018-06-30T00:14:01.008Z</time>
      </trkpt>
      <trkpt lat="40.769292" lon="-3.970471">
        <ele>2178.2622274686</ele>
        <time>2018-06-30T00:14:11.008Z</time>
      </trkpt>
      <trkpt lat="40.769234" lon="-3.970402">
        <ele>2180.40408552434</ele>
        <time>2018-06-30T00:14:21.008Z</time>
      </trkpt>
      <trkpt lat="40.769149" lon="-3.970349">
        <ele>2183.21010033099</ele>
        <time>2018-06-30T00:14:31.008Z</time>
      </trkpt>
      <trkpt lat="40.769109" lon="-3.970246">
        <ele>2184</ele>
        <time>2018-06-30T00:14:39.008Z</time>
      </trkpt>
      <trkpt lat="40.769053" lon="-3.970179">
        <ele>2184</ele>
        <time>2018-06-30T00:14:45.008Z</time>
      </trkpt>
      <trkpt lat="40.76898" lon="-3.970188">
        <ele>2186</ele>
        <time>2018-06-30T00:14:52.008Z</time>
      </trkpt>
      <trkpt lat="40.768893" lon="-3.970188">
        <ele>2189</ele>
        <time>2018-06-30T00:15:02.008Z</time>
      </trkpt>
      <trkpt lat="40.768829" lon="-3.970142">
        <ele>2189</ele>
        <time>2018-06-30T00:15:10.008Z</time>
      </trkpt>
      <trkpt lat="40.768763" lon="-3.970075">
        <ele>2189</ele>
        <time>2018-06-30T00:15:18.008Z</time>
      </trkpt>
      <trkpt lat="40.768727" lon="-3.970039">
        <ele>2192</ele>
        <time>2018-06-30T00:15:22.008Z</time>
      </trkpt>
      <trkpt lat="40.768697" lon="-3.969995">
        <ele>2192.21372369395</ele>
        <time>2018-06-30T00:15:26.008Z</time>
      </trkpt>
      <trkpt lat="40.768673" lon="-3.969944">
        <ele>2193</ele>
        <time>2018-06-30T00:15:30.008Z</time>
      </trkpt>
      <trkpt lat="40.768635" lon="-3.969908">
        <ele>2193</ele>
        <time>2018-06-30T00:15:34.008Z</time>
      </trkpt>
      <trkpt lat="40.768604" lon="-3.969867">
        <ele>2193</ele>
        <time>2018-06-30T00:15:38.008Z</time>
      </trkpt>
      <trkpt lat="40.768576" lon="-3.969842">
        <ele>2193.1311137343</ele>
        <time>2018-06-30T00:15:41.008Z</time>
      </trkpt>
      <trkpt lat="40.768544" lon="-3.969814">
        <ele>2194</ele>
        <time>2018-06-30T00:15:45.008Z</time>
      </trkpt>
      <trkpt lat="40.768517" lon="-3.969783">
        <ele>2194</ele>
        <time>2018-06-30T00:15:49.008Z</time>
      </trkpt>
      <trkpt lat="40.768482" lon="-3.96976">
        <ele>2195</ele>
        <time>2018-06-30T00:15:53.008Z</time>
      </trkpt>
      <trkpt lat="40.768453" lon="-3.969728">
        <ele>2195</ele>
        <time>2018-06-30T00:15:57.008Z</time>
      </trkpt>
      <trkpt lat="40.768424" lon="-3.969689">
        <ele>2195.42020066198</ele>
        <time>2018-06-30T00:16:01.008Z</time>
      </trkpt>
      <trkpt lat="40.768394" lon="-3.969646">
        <ele>2197</ele>
        <time>2018-06-30T00:16:05.008Z</time>
      </trkpt>
      <trkpt lat="40.768364" lon="-3.969616">
        <ele>2197</ele>
        <time>2018-06-30T00:16:09.008Z</time>
      </trkpt>
      <trkpt lat="40.768336" lon="-3.969579">
        <ele>2197</ele>
        <time>2018-06-30T00:16:13.008Z</time>
      </trkpt>
      <trkpt lat="40.768306" lon="-3.969553">
        <ele>2197</ele>
        <time>2018-06-30T00:16:20.008Z</time>
      </trkpt>
      <trkpt lat="40.768258" lon="-3.96945">
        <ele>2200</ele>
        <time>2018-06-30T00:16:30.008Z</time>
      </trkpt>
      <trkpt lat="40.768226" lon="-3.969426">
        <ele>2200</ele>
        <time>2018-06-30T00:16:34.008Z</time>
      </trkpt>
      <trkpt lat="40.76815" lon="-3.969377">
        <ele>2203</ele>
        <time>2018-06-30T00:16:43.008Z</time>
      </trkpt>
      <trkpt lat="40.768099" lon="-3.969337">
        <ele>2204</ele>
        <time>2018-06-30T00:16:50.008Z</time>
      </trkpt>
      <trkpt lat="40.76805" lon="-3.969309">
        <ele>2205.21372369395</ele>
        <time>2018-06-30T00:16:56.008Z</time>
      </trkpt>
      <trkpt lat="40.768007" lon="-3.969289">
        <ele>2206.21010033099</ele>
        <time>2018-06-30T00:17:01.008Z</time>
      </trkpt>
      <trkpt lat="40.767966" lon="-3.969262">
        <ele>2207.21583909969</ele>
        <time>2018-06-30T00:17:06.008Z</time>
      </trkpt>
      <trkpt lat="40.767923" lon="-3.969226">
        <ele>2208.1311137343</ele>
        <time>2018-06-30T00:17:11.008Z</time>
      </trkpt>
      <trkpt lat="40.767879" lon="-3.969191">
        <ele>2209</ele>
        <time>2018-06-30T00:17:15.008Z</time>
      </trkpt>
      <trkpt lat="40.767832" lon="-3.969161">
        <ele>2209</ele>
        <time>2018-06-30T00:17:19.008Z</time>
      </trkpt>
      <trkpt lat="40.767785" lon="-3.969122">
        <ele>2209</ele>
        <time>2018-06-30T00:17:24.008Z</time>
      </trkpt>
      <trkpt lat="40.767749" lon="-3.969082">
        <ele>2209</ele>
        <time>2018-06-30T00:17:28.008Z</time>
      </trkpt>
      <trkpt lat="40.767712" lon="-3.969049">
        <ele>2211</ele>
        <time>2018-06-30T00:17:32.008Z</time>
      </trkpt>
      <trkpt lat="40.767671" lon="-3.969017">
        <ele>2211</ele>
        <time>2018-06-30T00:17:37.008Z</time>
      </trkpt>
      <trkpt lat="40.767628" lon="-3.968985">
        <ele>2212</ele>
        <time>2018-06-30T00:17:42.008Z</time>
      </trkpt>
      <trkpt lat="40.767597" lon="-3.968941">
        <ele>2212</ele>
        <time>2018-06-30T00:17:47.008Z</time>
      </trkpt>
      <trkpt lat="40.767546" lon="-3.968907">
        <ele>2214</ele>
        <time>2018-06-30T00:17:53.008Z</time>
      </trkpt>
      <trkpt lat="40.7675" lon="-3.968875">
        <ele>2216</ele>
        <time>2018-06-30T00:17:59.008Z</time>
      </trkpt>
      <trkpt lat="40.767459" lon="-3.968843">
        <ele>2216</ele>
        <time>2018-06-30T00:18:04.008Z</time>
      </trkpt>
      <trkpt lat="40.76742" lon="-3.968802">
        <ele>2216</ele>
        <time>2018-06-30T00:18:10.008Z</time>
      </trkpt>
      <trkpt lat="40.767384" lon="-3.96877">
        <ele>2220</ele>
        <time>2018-06-30T00:18:17.008Z</time>
      </trkpt>
      <trkpt lat="40.767307" lon="-3.968703">
        <ele>2220.21010033099</ele>
        <time>2018-06-30T00:18:31.008Z</time>
      </trkpt>
      <trkpt lat="40.767243" lon="-3.968684">
        <ele>2223</ele>
        <time>2018-06-30T00:18:50.008Z</time>
      </trkpt>
      <trkpt lat="40.767166" lon="-3.968651">
        <ele>2225</ele>
        <time>2018-06-30T00:19:23.008Z</time>
      </trkpt>
      <trkpt lat="40.767202" lon="-3.968555">
        <ele>2227</ele>
        <time>2018-06-30T00:19:38.008Z</time>
      </trkpt>
      <trkpt lat="40.767296" lon="-3.968514">
        <ele>2224</ele>
        <time>2018-06-30T00:20:02.008Z</time>
      </trkpt>
      <trkpt lat="40.767381" lon="-3.968501">
        <ele>2223</ele>
        <time>2018-06-30T00:20:20.008Z</time>
      </trkpt>
      <trkpt lat="40.76747" lon="-3.968466">
        <ele>2223</ele>
        <time>2018-06-30T00:20:33.008Z</time>
      </trkpt>
      <trkpt lat="40.767543" lon="-3.968421">
        <ele>2219</ele>
        <time>2018-06-30T00:20:44.008Z</time>
      </trkpt>
      <trkpt lat="40.767608" lon="-3.968379">
        <ele>2216</ele>
        <time>2018-06-30T00:20:53.008Z</time>
      </trkpt>
      <trkpt lat="40.767678" lon="-3.968296">
        <ele>2216</ele>
        <time>2018-06-30T00:21:00.008Z</time>
      </trkpt>
      <trkpt lat="40.767763" lon="-3.968217">
        <ele>2216</ele>
        <time>2018-06-30T00:21:07.008Z</time>
      </trkpt>
      <trkpt lat="40.767827" lon="-3.968106">
        <ele>2214</ele>
        <time>2018-06-30T00:21:14.008Z</time>
      </trkpt>
      <trkpt lat="40.767875" lon="-3.967997">
        <ele>2211</ele>
        <time>2018-06-30T00:21:22.008Z</time>
      </trkpt>
      <trkpt lat="40.767945" lon="-3.967896">
        <ele>2211</ele>
        <time>2018-06-30T00:21:30.008Z</time>
      </trkpt>
      <trkpt lat="40.767985" lon="-3.96777">
        <ele>2210</ele>
        <time>2018-06-30T00:21:39.008Z</time>
      </trkpt>
      <trkpt lat="40.767979" lon="-3.967631">
        <ele>2209</ele>
        <time>2018-06-30T00:21:47.008Z</time>
      </trkpt>
      <trkpt lat="40.768064" lon="-3.967557">
        <ele>2208</ele>
        <time>2018-06-30T00:21:57.008Z</time>
      </trkpt>
      <trkpt lat="40.768135" lon="-3.96745">
        <ele>2204</ele>
        <time>2018-06-30T00:22:06.008Z</time>
      </trkpt>
      <trkpt lat="40.768154" lon="-3.967322">
        <ele>2204</ele>
        <time>2018-06-30T00:22:14.008Z</time>
      </trkpt>
      <trkpt lat="40.768177" lon="-3.967192">
        <ele>2204</ele>
        <time>2018-06-30T00:22:20.008Z</time>
      </trkpt>
      <trkpt lat="40.768181" lon="-3.967075">
        <ele>2203</ele>
        <time>2018-06-30T00:22:28.008Z</time>
      </trkpt>
      <trkpt lat="40.768148" lon="-3.966958">
        <ele>2203</ele>
        <time>2018-06-30T00:22:36.008Z</time>
      </trkpt>
      <trkpt lat="40.768072" lon="-3.96687">
        <ele>2195</ele>
        <time>2018-06-30T00:22:49.008Z</time>
      </trkpt>
      <trkpt lat="40.768044" lon="-3.966738">
        <ele>2191</ele>
        <time>2018-06-30T00:22:59.008Z</time>
      </trkpt>
      <trkpt lat="40.768093" lon="-3.966626">
        <ele>2189.60665879709</ele>
        <time>2018-06-30T00:23:11.008Z</time>
      </trkpt>
      <trkpt lat="40.76818" lon="-3.966547">
        <ele>2186</ele>
        <time>2018-06-30T00:23:21.008Z</time>
      </trkpt>
      <trkpt lat="40.768208" lon="-3.966427">
        <ele>2184</ele>
        <time>2018-06-30T00:23:33.008Z</time>
      </trkpt>
      <trkpt lat="40.768239" lon="-3.966306">
        <ele>2176.78627630605</ele>
        <time>2018-06-30T00:23:44.008Z</time>
      </trkpt>
      <trkpt lat="40.768156" lon="-3.966219">
        <ele>2174</ele>
        <time>2018-06-30T00:23:53.008Z</time>
      </trkpt>
      <trkpt lat="40.768198" lon="-3.966095">
        <ele>2171</ele>
        <time>2018-06-30T00:24:04.008Z</time>
      </trkpt>
      <trkpt lat="40.7682" lon="-3.965956">
        <ele>2167</ele>
        <time>2018-06-30T00:24:13.008Z</time>
      </trkpt>
      <trkpt lat="40.76821" lon="-3.965848">
        <ele>2160.8688862657</ele>
        <time>2018-06-30T00:24:23.008Z</time>
      </trkpt>
      <trkpt lat="40.76824" lon="-3.965753">
        <ele>2158.78989966901</ele>
        <time>2018-06-30T00:24:31.008Z</time>
      </trkpt>
      <trkpt lat="40.768254" lon="-3.965654">
        <ele>2158</ele>
        <time>2018-06-30T00:24:38.008Z</time>
      </trkpt>
      <trkpt lat="40.768312" lon="-3.965537">
        <ele>2153</ele>
        <time>2018-06-30T00:24:47.008Z</time>
      </trkpt>
      <trkpt lat="40.768314" lon="-3.965412">
        <ele>2150</ele>
        <time>2018-06-30T00:24:58.008Z</time>
      </trkpt>
      <trkpt lat="40.768257" lon="-3.965332">
        <ele>2148</ele>
        <time>2018-06-30T00:25:09.008Z</time>
      </trkpt>
      <trkpt lat="40.768263" lon="-3.965223">
        <ele>2142</ele>
        <time>2018-06-30T00:25:17.008Z</time>
      </trkpt>
      <trkpt lat="40.768266" lon="-3.965098">
        <ele>2139.78989966901</ele>
        <time>2018-06-30T00:25:31.008Z</time>
      </trkpt>
      <trkpt lat="40.76831" lon="-3.965018">
        <ele>2136</ele>
        <time>2018-06-30T00:25:47.008Z</time>
      </trkpt>
      <trkpt lat="40.768277" lon="-3.964926">
        <ele>2132</ele>
        <time>2018-06-30T00:25:58.008Z</time>
      </trkpt>
      <trkpt lat="40.768276" lon="-3.964816">
        <ele>2128</ele>
        <time>2018-06-30T00:26:09.008Z</time>
      </trkpt>
      <trkpt lat="40.768207" lon="-3.964736">
        <ele>2124</ele>
        <time>2018-06-30T00:26:22.008Z</time>
      </trkpt>
      <trkpt lat="40.768138" lon="-3.964663">
        <ele>2122</ele>
        <time>2018-06-30T00:26:35.008Z</time>
      </trkpt>
      <trkpt lat="40.76808" lon="-3.964667">
        <ele>2119</ele>
        <time>2018-06-30T00:26:43.008Z</time>
      </trkpt>
      <trkpt lat="40.768048" lon="-3.964564">
        <ele>2114.57979933802</ele>
        <time>2018-06-30T00:27:01.008Z</time>
      </trkpt>
      <trkpt lat="40.768017" lon="-3.964447">
        <ele>2112</ele>
        <time>2018-06-30T00:27:18.008Z</time>
      </trkpt>
      <trkpt lat="40.768021" lon="-3.964323">
        <ele>2108</ele>
        <time>2018-06-30T00:27:30.008Z</time>
      </trkpt>
      <trkpt lat="40.767947" lon="-3.964236">
        <ele>2104</ele>
        <time>2018-06-30T00:27:40.008Z</time>
      </trkpt>
      <trkpt lat="40.767955" lon="-3.964106">
        <ele>2100</ele>
        <time>2018-06-30T00:27:53.008Z</time>
      </trkpt>
      <trkpt lat="40.767924" lon="-3.964004">
        <ele>2096</ele>
        <time>2018-06-30T00:28:08.008Z</time>
      </trkpt>
      <trkpt lat="40.76788" lon="-3.963948">
        <ele>2092</ele>
        <time>2018-06-30T00:28:27.008Z</time>
      </trkpt>
      <trkpt lat="40.76783" lon="-3.963898">
        <ele>2088</ele>
        <time>2018-06-30T00:28:40.008Z</time>
      </trkpt>
      <trkpt lat="40.767787" lon="-3.963814">
        <ele>2084</ele>
        <time>2018-06-30T00:29:00.008Z</time>
      </trkpt>
      <trkpt lat="40.767712" lon="-3.96381">
        <ele>2081</ele>
        <time>2018-06-30T00:29:08.008Z</time>
      </trkpt>
      <trkpt lat="40.767649" lon="-3.963815">
        <ele>2077</ele>
        <time>2018-06-30T00:29:17.008Z</time>
      </trkpt>
      <trkpt lat="40.767553" lon="-3.963801">
        <ele>2074</ele>
        <time>2018-06-30T00:29:34.008Z</time>
      </trkpt>
      <trkpt lat="40.767536" lon="-3.963722">
        <ele>2071</ele>
        <time>2018-06-30T00:29:48.008Z</time>
      </trkpt>
      <trkpt lat="40.767533" lon="-3.963619">
        <ele>2066</ele>
        <time>2018-06-30T00:30:13.008Z</time>
      </trkpt>
      <trkpt lat="40.767453" lon="-3.963557">
        <ele>2062</ele>
        <time>2018-06-30T00:30:33.008Z</time>
      </trkpt>
      <trkpt lat="40.767378" lon="-3.963464">
        <ele>2057</ele>
        <time>2018-06-30T00:30:54.008Z</time>
      </trkpt>
      <trkpt lat="40.767324" lon="-3.963393">
        <ele>2052.7377725314</ele>
        <time>2018-06-30T00:31:11.008Z</time>
      </trkpt>
      <trkpt lat="40.767317" lon="-3.963316">
        <ele>2050</ele>
        <time>2018-06-30T00:31:18.008Z</time>
      </trkpt>
      <trkpt lat="40.767265" lon="-3.963287">
        <ele>2046.78989966901</ele>
        <time>2018-06-30T00:31:31.008Z</time>
      </trkpt>
      <trkpt lat="40.767192" lon="-3.963279">
        <ele>2044</ele>
        <time>2018-06-30T00:31:39.008Z</time>
      </trkpt>
      <trkpt lat="40.767175" lon="-3.963187">
        <ele>2042</ele>
        <time>2018-06-30T00:31:48.008Z</time>
      </trkpt>
      <trkpt lat="40.767132" lon="-3.963214">
        <ele>2041</ele>
        <time>2018-06-30T00:31:53.008Z</time>
      </trkpt>
      <trkpt lat="40.767066" lon="-3.963223">
        <ele>2037</ele>
        <time>2018-06-30T00:32:07.008Z</time>
      </trkpt>
      <trkpt lat="40.76702" lon="-3.963152">
        <ele>2035.39387171349</ele>
        <time>2018-06-30T00:32:21.008Z</time>
      </trkpt>
      <trkpt lat="40.766918" lon="-3.963153">
        <ele>2029</ele>
        <time>2018-06-30T00:32:40.008Z</time>
      </trkpt>
      <trkpt lat="40.76686" lon="-3.963131">
        <ele>2026</ele>
        <time>2018-06-30T00:32:54.008Z</time>
      </trkpt>
      <trkpt lat="40.766829" lon="-3.962997">
        <ele>2022</ele>
        <time>2018-06-30T00:33:16.008Z</time>
      </trkpt>
      <trkpt lat="40.766828" lon="-3.962869">
        <ele>2018</ele>
        <time>2018-06-30T00:33:32.008Z</time>
      </trkpt>
      <trkpt lat="40.766831" lon="-3.962755">
        <ele>2016</ele>
        <time>2018-06-30T00:33:46.008Z</time>
      </trkpt>
      <trkpt lat="40.766816" lon="-3.962651">
        <ele>2011</ele>
        <time>2018-06-30T00:34:04.008Z</time>
      </trkpt>
      <trkpt lat="40.766807" lon="-3.962553">
        <ele>2008</ele>
        <time>2018-06-30T00:34:22.008Z</time>
      </trkpt>
      <trkpt lat="40.766769" lon="-3.962482">
        <ele>2006</ele>
        <time>2018-06-30T00:34:36.008Z</time>
      </trkpt>
      <trkpt lat="40.766666" lon="-3.96244">
        <ele>2001</ele>
        <time>2018-06-30T00:34:47.008Z</time>
      </trkpt>
      <trkpt lat="40.76661" lon="-3.962394">
        <ele>1999</ele>
        <time>2018-06-30T00:34:59.008Z</time>
      </trkpt>
      <trkpt lat="40.766612" lon="-3.962338">
        <ele>1996</ele>
        <time>2018-06-30T00:35:05.008Z</time>
      </trkpt>
      <trkpt lat="40.766613" lon="-3.962292">
        <ele>1995</ele>
        <time>2018-06-30T00:35:09.008Z</time>
      </trkpt>
      <trkpt lat="40.766607" lon="-3.962238">
        <ele>1994</ele>
        <time>2018-06-30T00:35:15.008Z</time>
      </trkpt>
      <trkpt lat="40.766619" lon="-3.962188">
        <ele>1994</ele>
        <time>2018-06-30T00:35:19.008Z</time>
      </trkpt>
      <trkpt lat="40.76658" lon="-3.962124">
        <ele>1990.57255261209</ele>
        <time>2018-06-30T00:35:26.008Z</time>
      </trkpt>
      <trkpt lat="40.766582" lon="-3.962075">
        <ele>1988</ele>
        <time>2018-06-30T00:35:32.008Z</time>
      </trkpt>
      <trkpt lat="40.766536" lon="-3.962028">
        <ele>1986.8688862657</ele>
        <time>2018-06-30T00:35:41.008Z</time>
      </trkpt>
      <trkpt lat="40.766527" lon="-3.961971">
        <ele>1986</ele>
        <time>2018-06-30T00:35:47.008Z</time>
      </trkpt>
      <trkpt lat="40.76646" lon="-3.961987">
        <ele>1983</ele>
        <time>2018-06-30T00:35:54.008Z</time>
      </trkpt>
      <trkpt lat="40.766475" lon="-3.961916">
        <ele>1982</ele>
        <time>2018-06-30T00:36:00.008Z</time>
      </trkpt>
      <trkpt lat="40.766441" lon="-3.961859">
        <ele>1979</ele>
        <time>2018-06-30T00:36:07.008Z</time>
      </trkpt>
      <trkpt lat="40.766457" lon="-3.961807">
        <ele>1978</ele>
        <time>2018-06-30T00:36:16.008Z</time>
      </trkpt>
      <trkpt lat="40.766427" lon="-3.961763">
        <ele>1976</ele>
        <time>2018-06-30T00:36:22.008Z</time>
      </trkpt>
      <trkpt lat="40.76643" lon="-3.961717">
        <ele>1976</ele>
        <time>2018-06-30T00:36:30.008Z</time>
      </trkpt>
      <trkpt lat="40.766382" lon="-3.961684">
        <ele>1974</ele>
        <time>2018-06-30T00:36:39.008Z</time>
      </trkpt>
      <trkpt lat="40.766371" lon="-3.961639">
        <ele>1971</ele>
        <time>2018-06-30T00:36:43.008Z</time>
      </trkpt>
      <trkpt lat="40.766348" lon="-3.961593">
        <ele>1970.80181993786</ele>
        <time>2018-06-30T00:36:46.008Z</time>
      </trkpt>
      <trkpt lat="40.76632" lon="-3.961545">
        <ele>1969</ele>
        <time>2018-06-30T00:36:52.008Z</time>
      </trkpt>
      <trkpt lat="40.766341" lon="-3.961477">
        <ele>1969</ele>
        <time>2018-06-30T00:37:00.008Z</time>
      </trkpt>
      <trkpt lat="40.766332" lon="-3.961418">
        <ele>1964</ele>
        <time>2018-06-30T00:37:04.008Z</time>
      </trkpt>
      <trkpt lat="40.766296" lon="-3.961388">
        <ele>1964</ele>
        <time>2018-06-30T00:37:09.008Z</time>
      </trkpt>
      <trkpt lat="40.76628" lon="-3.961332">
        <ele>1963</ele>
        <time>2018-06-30T00:37:14.008Z</time>
      </trkpt>
      <trkpt lat="40.76629" lon="-3.961273">
        <ele>1963</ele>
        <time>2018-06-30T00:37:20.008Z</time>
      </trkpt>
      <trkpt lat="40.766284" lon="-3.961165">
        <ele>1958</ele>
        <time>2018-06-30T00:37:34.008Z</time>
      </trkpt>
      <trkpt lat="40.766264" lon="-3.961061">
        <ele>1954</ele>
        <time>2018-06-30T00:37:47.008Z</time>
      </trkpt>
      <trkpt lat="40.766202" lon="-3.961039">
        <ele>1952</ele>
        <time>2018-06-30T00:37:53.008Z</time>
      </trkpt>
      <trkpt lat="40.766216" lon="-3.960955">
        <ele>1949</ele>
        <time>2018-06-30T00:38:03.008Z</time>
      </trkpt>
      <trkpt lat="40.766174" lon="-3.960839">
        <ele>1948</ele>
        <time>2018-06-30T00:38:20.008Z</time>
      </trkpt>
      <trkpt lat="40.766122" lon="-3.9608">
        <ele>1944</ele>
        <time>2018-06-30T00:38:38.008Z</time>
      </trkpt>
      <trkpt lat="40.7661" lon="-3.960725">
        <ele>1940.80181993786</ele>
        <time>2018-06-30T00:38:46.008Z</time>
      </trkpt>
      <trkpt lat="40.766074" lon="-3.96063">
        <ele>1937</ele>
        <time>2018-06-30T00:39:00.008Z</time>
      </trkpt>
      <trkpt lat="40.766022" lon="-3.960527">
        <ele>1933</ele>
        <time>2018-06-30T00:39:12.008Z</time>
      </trkpt>
      <trkpt lat="40.765976" lon="-3.960409">
        <ele>1930</ele>
        <time>2018-06-30T00:39:24.008Z</time>
      </trkpt>
      <trkpt lat="40.765898" lon="-3.960326">
        <ele>1928</ele>
        <time>2018-06-30T00:39:34.008Z</time>
      </trkpt>
      <trkpt lat="40.76583" lon="-3.960282">
        <ele>1927.60665879709</ele>
        <time>2018-06-30T00:39:41.008Z</time>
      </trkpt>
      <trkpt lat="40.765784" lon="-3.960229">
        <ele>1924</ele>
        <time>2018-06-30T00:39:49.008Z</time>
      </trkpt>
      <trkpt lat="40.765792" lon="-3.960165">
        <ele>1922</ele>
        <time>2018-06-30T00:39:54.008Z</time>
      </trkpt>
      <trkpt lat="40.76577" lon="-3.960087">
        <ele>1921</ele>
        <time>2018-06-30T00:40:00.008Z</time>
      </trkpt>
      <trkpt lat="40.765725" lon="-3.960021">
        <ele>1919</ele>
        <time>2018-06-30T00:40:04.008Z</time>
      </trkpt>
      <trkpt lat="40.765713" lon="-3.959883">
        <ele>1919</ele>
        <time>2018-06-30T00:40:10.008Z</time>
      </trkpt>
      <trkpt lat="40.765693" lon="-3.959799">
        <ele>1916</ele>
        <time>2018-06-30T00:40:15.008Z</time>
      </trkpt>
      <trkpt lat="40.765641" lon="-3.959748">
        <ele>1915</ele>
        <time>2018-06-30T00:40:18.008Z</time>
      </trkpt>
      <trkpt lat="40.765598" lon="-3.959671">
        <ele>1914</ele>
        <time>2018-06-30T00:40:22.008Z</time>
      </trkpt>
      <trkpt lat="40.765574" lon="-3.959573">
        <ele>1914</ele>
        <time>2018-06-30T00:40:26.008Z</time>
      </trkpt>
      <trkpt lat="40.76555" lon="-3.959476">
        <ele>1914</ele>
        <time>2018-06-30T00:40:30.008Z</time>
      </trkpt>
      <trkpt lat="40.765539" lon="-3.959339">
        <ele>1910</ele>
        <time>2018-06-30T00:40:37.008Z</time>
      </trkpt>
      <trkpt lat="40.765551" lon="-3.959241">
        <ele>1910</ele>
        <time>2018-06-30T00:40:41.008Z</time>
      </trkpt>
      <trkpt lat="40.765579" lon="-3.959149">
        <ele>1910</ele>
        <time>2018-06-30T00:40:45.008Z</time>
      </trkpt>
      <trkpt lat="40.765581" lon="-3.959059">
        <ele>1910</ele>
        <time>2018-06-30T00:40:49.008Z</time>
      </trkpt>
      <trkpt lat="40.765588" lon="-3.958986">
        <ele>1908</ele>
        <time>2018-06-30T00:40:52.008Z</time>
      </trkpt>
      <trkpt lat="40.76559" lon="-3.958899">
        <ele>1908</ele>
        <time>2018-06-30T00:40:55.008Z</time>
      </trkpt>
      <trkpt lat="40.76558" lon="-3.958815">
        <ele>1908</ele>
        <time>2018-06-30T00:40:58.008Z</time>
      </trkpt>
      <trkpt lat="40.765566" lon="-3.95873">
        <ele>1904</ele>
        <time>2018-06-30T00:41:03.008Z</time>
      </trkpt>
      <trkpt lat="40.765558" lon="-3.958654">
        <ele>1904</ele>
        <time>2018-06-30T00:41:09.008Z</time>
      </trkpt>
      <trkpt lat="40.76555" lon="-3.958588">
        <ele>1904</ele>
        <time>2018-06-30T00:41:12.008Z</time>
      </trkpt>
      <trkpt lat="40.765561" lon="-3.958516">
        <ele>1904</ele>
        <time>2018-06-30T00:41:15.008Z</time>
      </trkpt>
      <trkpt lat="40.765561" lon="-3.958438">
        <ele>1904</ele>
        <time>2018-06-30T00:41:18.008Z</time>
      </trkpt>
      <trkpt lat="40.765552" lon="-3.958358">
        <ele>1903.59591447566</ele>
        <time>2018-06-30T00:41:21.008Z</time>
      </trkpt>
      <trkpt lat="40.765526" lon="-3.958286">
        <ele>1902</ele>
        <time>2018-06-30T00:41:24.008Z</time>
      </trkpt>
      <trkpt lat="40.765493" lon="-3.958223">
        <ele>1902</ele>
        <time>2018-06-30T00:41:27.008Z</time>
      </trkpt>
      <trkpt lat="40.765472" lon="-3.958148">
        <ele>1902</ele>
        <time>2018-06-30T00:41:30.008Z</time>
      </trkpt>
      <trkpt lat="40.76543" lon="-3.958068">
        <ele>1900</ele>
        <time>2018-06-30T00:41:33.008Z</time>
      </trkpt>
      <trkpt lat="40.765409" lon="-3.957994">
        <ele>1900</ele>
        <time>2018-06-30T00:41:36.008Z</time>
      </trkpt>
      <trkpt lat="40.765403" lon="-3.957924">
        <ele>1900</ele>
        <time>2018-06-30T00:41:39.008Z</time>
      </trkpt>
      <trkpt lat="40.765389" lon="-3.95786">
        <ele>1899</ele>
        <time>2018-06-30T00:41:42.008Z</time>
      </trkpt>
      <trkpt lat="40.765344" lon="-3.957785">
        <ele>1899</ele>
        <time>2018-06-30T00:41:46.008Z</time>
      </trkpt>
      <trkpt lat="40.765323" lon="-3.95769">
        <ele>1899</ele>
        <time>2018-06-30T00:41:50.008Z</time>
      </trkpt>
      <trkpt lat="40.765348" lon="-3.957598">
        <ele>1898</ele>
        <time>2018-06-30T00:41:54.008Z</time>
      </trkpt>
      <trkpt lat="40.765349" lon="-3.957506">
        <ele>1898</ele>
        <time>2018-06-30T00:41:58.008Z</time>
      </trkpt>
      <trkpt lat="40.765349" lon="-3.957418">
        <ele>1897</ele>
        <time>2018-06-30T00:42:03.008Z</time>
      </trkpt>
      <trkpt lat="40.765329" lon="-3.957324">
        <ele>1897</ele>
        <time>2018-06-30T00:42:07.008Z</time>
      </trkpt>
      <trkpt lat="40.765299" lon="-3.957245">
        <ele>1897</ele>
        <time>2018-06-30T00:42:12.008Z</time>
      </trkpt>
      <trkpt lat="40.765283" lon="-3.957168">
        <ele>1897</ele>
        <time>2018-06-30T00:42:16.008Z</time>
      </trkpt>
      <trkpt lat="40.765273" lon="-3.957099">
        <ele>1897</ele>
        <time>2018-06-30T00:42:20.008Z</time>
      </trkpt>
      <trkpt lat="40.765261" lon="-3.957008">
        <ele>1897</ele>
        <time>2018-06-30T00:42:26.008Z</time>
      </trkpt>
      <trkpt lat="40.765237" lon="-3.956938">
        <ele>1897.21010033099</ele>
        <time>2018-06-30T00:42:31.008Z</time>
      </trkpt>
      <trkpt lat="40.765223" lon="-3.956862">
        <ele>1898</ele>
        <time>2018-06-30T00:42:38.008Z</time>
      </trkpt>
      <trkpt lat="40.765223" lon="-3.956736">
        <ele>1903</ele>
        <time>2018-06-30T00:42:50.008Z</time>
      </trkpt>
      <trkpt lat="40.765236" lon="-3.956642">
        <ele>1904</ele>
        <time>2018-06-30T00:42:56.008Z</time>
      </trkpt>
      <trkpt lat="40.76525" lon="-3.956567">
        <ele>1904</ele>
        <time>2018-06-30T00:43:00.008Z</time>
      </trkpt>
      <trkpt lat="40.765257" lon="-3.956492">
        <ele>1904</ele>
        <time>2018-06-30T00:43:04.008Z</time>
      </trkpt>
      <trkpt lat="40.765246" lon="-3.956406">
        <ele>1904</ele>
        <time>2018-06-30T00:43:09.008Z</time>
      </trkpt>
      <trkpt lat="40.765235" lon="-3.95632">
        <ele>1906</ele>
        <time>2018-06-30T00:43:15.008Z</time>
      </trkpt>
      <trkpt lat="40.765201" lon="-3.956257">
        <ele>1906</ele>
        <time>2018-06-30T00:43:20.008Z</time>
      </trkpt>
      <trkpt lat="40.765165" lon="-3.956219">
        <ele>1907</ele>
        <time>2018-06-30T00:43:24.008Z</time>
      </trkpt>
      <trkpt lat="40.76512" lon="-3.956189">
        <ele>1907</ele>
        <time>2018-06-30T00:43:29.008Z</time>
      </trkpt>
      <trkpt lat="40.765085" lon="-3.956138">
        <ele>1909</ele>
        <time>2018-06-30T00:43:35.008Z</time>
      </trkpt>
      <trkpt lat="40.765047" lon="-3.956094">
        <ele>1908</ele>
        <time>2018-06-30T00:43:40.008Z</time>
      </trkpt>
      <trkpt lat="40.765028" lon="-3.956037">
        <ele>1910</ele>
        <time>2018-06-30T00:43:46.008Z</time>
      </trkpt>
      <trkpt lat="40.765032" lon="-3.955953">
        <ele>1913</ele>
        <time>2018-06-30T00:43:53.008Z</time>
      </trkpt>
      <trkpt lat="40.765021" lon="-3.955842">
        <ele>1913</ele>
        <time>2018-06-30T00:44:02.008Z</time>
      </trkpt>
      <trkpt lat="40.765074" lon="-3.95576">
        <ele>1912.79795723783</ele>
        <time>2018-06-30T00:44:09.008Z</time>
      </trkpt>
      <trkpt lat="40.765093" lon="-3.955698">
        <ele>1913</ele>
        <time>2018-06-30T00:44:13.008Z</time>
      </trkpt>
      <trkpt lat="40.765107" lon="-3.95562">
        <ele>1913</ele>
        <time>2018-06-30T00:44:18.008Z</time>
      </trkpt>
      <trkpt lat="40.76508" lon="-3.955529">
        <ele>1915</ele>
        <time>2018-06-30T00:44:25.008Z</time>
      </trkpt>
      <trkpt lat="40.76507" lon="-3.955416">
        <ele>1917</ele>
        <time>2018-06-30T00:44:33.008Z</time>
      </trkpt>
      <trkpt lat="40.76509" lon="-3.955306">
        <ele>1917</ele>
        <time>2018-06-30T00:44:40.008Z</time>
      </trkpt>
      <trkpt lat="40.765072" lon="-3.95524">
        <ele>1917</ele>
        <time>2018-06-30T00:44:44.008Z</time>
      </trkpt>
      <trkpt lat="40.765034" lon="-3.955186">
        <ele>1917</ele>
        <time>2018-06-30T00:44:48.008Z</time>
      </trkpt>
      <trkpt lat="40.765008" lon="-3.955102">
        <ele>1917</ele>
        <time>2018-06-30T00:44:51.008Z</time>
      </trkpt>
      <trkpt lat="40.764988" lon="-3.955016">
        <ele>1916</ele>
        <time>2018-06-30T00:44:55.008Z</time>
      </trkpt>
      <trkpt lat="40.764967" lon="-3.954934">
        <ele>1916</ele>
        <time>2018-06-30T00:45:00.008Z</time>
      </trkpt>
      <trkpt lat="40.764924" lon="-3.954881">
        <ele>1913</ele>
        <time>2018-06-30T00:45:04.008Z</time>
      </trkpt>
      <trkpt lat="40.764882" lon="-3.954834">
        <ele>1912</ele>
        <time>2018-06-30T00:45:08.008Z</time>
      </trkpt>
      <trkpt lat="40.76483" lon="-3.954753">
        <ele>1911</ele>
        <time>2018-06-30T00:45:13.008Z</time>
      </trkpt>
      <trkpt lat="40.764795" lon="-3.954679">
        <ele>1911</ele>
        <time>2018-06-30T00:45:16.008Z</time>
      </trkpt>
      <trkpt lat="40.76474" lon="-3.954605">
        <ele>1911</ele>
        <time>2018-06-30T00:45:20.008Z</time>
      </trkpt>
      <trkpt lat="40.764679" lon="-3.954569">
        <ele>1909</ele>
        <time>2018-06-30T00:45:23.008Z</time>
      </trkpt>
      <trkpt lat="40.764617" lon="-3.954525">
        <ele>1909</ele>
        <time>2018-06-30T00:45:27.008Z</time>
      </trkpt>
      <trkpt lat="40.764549" lon="-3.954457">
        <ele>1908.57979933802</ele>
        <time>2018-06-30T00:45:31.008Z</time>
      </trkpt>
      <trkpt lat="40.764501" lon="-3.954376">
        <ele>1907</ele>
        <time>2018-06-30T00:45:34.008Z</time>
      </trkpt>
      <trkpt lat="40.76443" lon="-3.954332">
        <ele>1907</ele>
        <time>2018-06-30T00:45:38.008Z</time>
      </trkpt>
      <trkpt lat="40.764376" lon="-3.95428">
        <ele>1904</ele>
        <time>2018-06-30T00:45:44.008Z</time>
      </trkpt>
      <trkpt lat="40.764338" lon="-3.954226">
        <ele>1903</ele>
        <time>2018-06-30T00:45:49.008Z</time>
      </trkpt>
      <trkpt lat="40.764286" lon="-3.954184">
        <ele>1903</ele>
        <time>2018-06-30T00:45:55.008Z</time>
      </trkpt>
      <trkpt lat="40.764226" lon="-3.954118">
        <ele>1898</ele>
        <time>2018-06-30T00:46:02.008Z</time>
      </trkpt>
      <trkpt lat="40.764175" lon="-3.954047">
        <ele>1898.21583909969</ele>
        <time>2018-06-30T00:46:06.008Z</time>
      </trkpt>
      <trkpt lat="40.764085" lon="-3.95397">
        <ele>1899</ele>
        <time>2018-06-30T00:46:14.008Z</time>
      </trkpt>
      <trkpt lat="40.764038" lon="-3.953894">
        <ele>1898.79795723783</ele>
        <time>2018-06-30T00:46:21.008Z</time>
      </trkpt>
      <trkpt lat="40.763979" lon="-3.95382">
        <ele>1898</ele>
        <time>2018-06-30T00:46:27.008Z</time>
      </trkpt>
      <trkpt lat="40.76396" lon="-3.953687">
        <ele>1897</ele>
        <time>2018-06-30T00:46:38.008Z</time>
      </trkpt>
      <trkpt lat="40.763909" lon="-3.953603">
        <ele>1899</ele>
        <time>2018-06-30T00:46:44.008Z</time>
      </trkpt>
      <trkpt lat="40.763841" lon="-3.953523">
        <ele>1899</ele>
        <time>2018-06-30T00:46:48.008Z</time>
      </trkpt>
      <trkpt lat="40.763764" lon="-3.953455">
        <ele>1900</ele>
        <time>2018-06-30T00:46:53.008Z</time>
      </trkpt>
      <trkpt lat="40.763676" lon="-3.953387">
        <ele>1900</ele>
        <time>2018-06-30T00:46:58.008Z</time>
      </trkpt>
      <trkpt lat="40.763606" lon="-3.953324">
        <ele>1899</ele>
        <time>2018-06-30T00:47:02.008Z</time>
      </trkpt>
      <trkpt lat="40.763527" lon="-3.953258">
        <ele>1899</ele>
        <time>2018-06-30T00:47:07.008Z</time>
      </trkpt>
      <trkpt lat="40.763459" lon="-3.953204">
        <ele>1899</ele>
        <time>2018-06-30T00:47:11.008Z</time>
      </trkpt>
      <trkpt lat="40.763386" lon="-3.953146">
        <ele>1899</ele>
        <time>2018-06-30T00:47:16.008Z</time>
      </trkpt>
      <trkpt lat="40.763331" lon="-3.953069">
        <ele>1899</ele>
        <time>2018-06-30T00:47:20.008Z</time>
      </trkpt>
      <trkpt lat="40.763267" lon="-3.953">
        <ele>1900</ele>
        <time>2018-06-30T00:47:25.008Z</time>
      </trkpt>
      <trkpt lat="40.763209" lon="-3.952912">
        <ele>1900</ele>
        <time>2018-06-30T00:47:31.008Z</time>
      </trkpt>
      <trkpt lat="40.763157" lon="-3.952852">
        <ele>1900</ele>
        <time>2018-06-30T00:47:38.008Z</time>
      </trkpt>
      <trkpt lat="40.763111" lon="-3.95278">
        <ele>1899</ele>
        <time>2018-06-30T00:47:45.008Z</time>
      </trkpt>
      <trkpt lat="40.763035" lon="-3.952725">
        <ele>1900</ele>
        <time>2018-06-30T00:47:52.008Z</time>
      </trkpt>
      <trkpt lat="40.762984" lon="-3.952647">
        <ele>1900</ele>
        <time>2018-06-30T00:47:55.008Z</time>
      </trkpt>
      <trkpt lat="40.762923" lon="-3.95255">
        <ele>1900</ele>
        <time>2018-06-30T00:48:00.008Z</time>
      </trkpt>
      <trkpt lat="40.762885" lon="-3.952467">
        <ele>1900</ele>
        <time>2018-06-30T00:48:07.008Z</time>
      </trkpt>
      <trkpt lat="40.762853" lon="-3.952387">
        <ele>1900</ele>
        <time>2018-06-30T00:48:13.008Z</time>
      </trkpt>
      <trkpt lat="40.762823" lon="-3.952296">
        <ele>1902</ele>
        <time>2018-06-30T00:48:22.008Z</time>
      </trkpt>
      <trkpt lat="40.762784" lon="-3.952221">
        <ele>1902</ele>
        <time>2018-06-30T00:48:28.008Z</time>
      </trkpt>
      <trkpt lat="40.762753" lon="-3.952145">
        <ele>1903</ele>
        <time>2018-06-30T00:48:34.008Z</time>
      </trkpt>
      <trkpt lat="40.762692" lon="-3.952097">
        <ele>1903</ele>
        <time>2018-06-30T00:48:45.008Z</time>
      </trkpt>
      <trkpt lat="40.76265" lon="-3.952041">
        <ele>1905</ele>
        <time>2018-06-30T00:48:52.008Z</time>
      </trkpt>
      <trkpt lat="40.762608" lon="-3.951972">
        <ele>1905</ele>
        <time>2018-06-30T00:49:14.008Z</time>
      </trkpt>
      <trkpt lat="40.762584" lon="-3.951913">
        <ele>1905</ele>
        <time>2018-06-30T00:49:26.008Z</time>
      </trkpt>
      <trkpt lat="40.762525" lon="-3.95188">
        <ele>1903</ele>
        <time>2018-06-30T00:49:34.008Z</time>
      </trkpt>
      <trkpt lat="40.76246" lon="-3.951836">
        <ele>1901</ele>
        <time>2018-06-30T00:49:42.008Z</time>
      </trkpt>
      <trkpt lat="40.762395" lon="-3.951786">
        <ele>1901</ele>
        <time>2018-06-30T00:49:49.008Z</time>
      </trkpt>
      <trkpt lat="40.762347" lon="-3.951738">
        <ele>1899</ele>
        <time>2018-06-30T00:49:56.008Z</time>
      </trkpt>
      <trkpt lat="40.762271" lon="-3.951715">
        <ele>1895</ele>
        <time>2018-06-30T00:50:10.008Z</time>
      </trkpt>
      <trkpt lat="40.762247" lon="-3.95169">
        <ele>1894</ele>
        <time>2018-06-30T00:50:15.008Z</time>
      </trkpt>
      <trkpt lat="40.762211" lon="-3.951691">
        <ele>1893.59591447566</ele>
        <time>2018-06-30T00:50:21.008Z</time>
      </trkpt>
      <trkpt lat="40.762186" lon="-3.951709">
        <ele>1892</ele>
        <time>2018-06-30T00:50:26.008Z</time>
      </trkpt>
      <trkpt lat="40.762159" lon="-3.951674">
        <ele>1892</ele>
        <time>2018-06-30T00:50:29.008Z</time>
      </trkpt>
      <trkpt lat="40.762086" lon="-3.951612">
        <ele>1889</ele>
        <time>2018-06-30T00:50:34.008Z</time>
      </trkpt>
      <trkpt lat="40.761995" lon="-3.95157">
        <ele>1889</ele>
        <time>2018-06-30T00:50:38.008Z</time>
      </trkpt>
      <trkpt lat="40.761911" lon="-3.951542">
        <ele>1889</ele>
        <time>2018-06-30T00:50:42.008Z</time>
      </trkpt>
      <trkpt lat="40.761888" lon="-3.951436">
        <ele>1889</ele>
        <time>2018-06-30T00:50:49.008Z</time>
      </trkpt>
      <trkpt lat="40.761863" lon="-3.951362">
        <ele>1891</ele>
        <time>2018-06-30T00:50:53.008Z</time>
      </trkpt>
      <trkpt lat="40.761831" lon="-3.951307">
        <ele>1891</ele>
        <time>2018-06-30T00:50:58.008Z</time>
      </trkpt>
      <trkpt lat="40.761743" lon="-3.951265">
        <ele>1890</ele>
        <time>2018-06-30T00:51:05.008Z</time>
      </trkpt>
      <trkpt lat="40.761684" lon="-3.951258">
        <ele>1890</ele>
        <time>2018-06-30T00:51:10.008Z</time>
      </trkpt>
      <trkpt lat="40.761612" lon="-3.951279">
        <ele>1888</ele>
        <time>2018-06-30T00:51:17.008Z</time>
      </trkpt>
      <trkpt lat="40.761564" lon="-3.951309">
        <ele>1885</ele>
        <time>2018-06-30T00:51:24.008Z</time>
      </trkpt>
      <trkpt lat="40.761516" lon="-3.951334">
        <ele>1884</ele>
        <time>2018-06-30T00:51:30.008Z</time>
      </trkpt>
      <trkpt lat="40.761455" lon="-3.951321">
        <ele>1880.8688862657</ele>
        <time>2018-06-30T00:51:41.008Z</time>
      </trkpt>
      <trkpt lat="40.761385" lon="-3.951296">
        <ele>1879</ele>
        <time>2018-06-30T00:51:55.008Z</time>
      </trkpt>
      <trkpt lat="40.761342" lon="-3.95121">
        <ele>1877</ele>
        <time>2018-06-30T00:52:04.008Z</time>
      </trkpt>
      <trkpt lat="40.761268" lon="-3.951184">
        <ele>1875</ele>
        <time>2018-06-30T00:52:12.008Z</time>
      </trkpt>
      <trkpt lat="40.761218" lon="-3.951139">
        <ele>1875</ele>
        <time>2018-06-30T00:52:17.008Z</time>
      </trkpt>
      <trkpt lat="40.761184" lon="-3.951079">
        <ele>1874.59591447566</ele>
        <time>2018-06-30T00:52:21.008Z</time>
      </trkpt>
      <trkpt lat="40.7611" lon="-3.951012">
        <ele>1873</ele>
        <time>2018-06-30T00:52:28.008Z</time>
      </trkpt>
      <trkpt lat="40.761044" lon="-3.950961">
        <ele>1872</ele>
        <time>2018-06-30T00:52:34.008Z</time>
      </trkpt>
      <trkpt lat="40.760984" lon="-3.950898">
        <ele>1872</ele>
        <time>2018-06-30T00:52:40.008Z</time>
      </trkpt>
      <trkpt lat="40.760932" lon="-3.950808">
        <ele>1870</ele>
        <time>2018-06-30T00:52:44.008Z</time>
      </trkpt>
      <trkpt lat="40.76089" lon="-3.950724">
        <ele>1870</ele>
        <time>2018-06-30T00:52:47.008Z</time>
      </trkpt>
      <trkpt lat="40.760844" lon="-3.950642">
        <ele>1869.59591447566</ele>
        <time>2018-06-30T00:52:51.008Z</time>
      </trkpt>
      <trkpt lat="40.760804" lon="-3.950555">
        <ele>1868</ele>
        <time>2018-06-30T00:52:56.008Z</time>
      </trkpt>
      <trkpt lat="40.760784" lon="-3.950459">
        <ele>1867.57979933802</ele>
        <time>2018-06-30T00:53:01.008Z</time>
      </trkpt>
      <trkpt lat="40.760752" lon="-3.950393">
        <ele>1866</ele>
        <time>2018-06-30T00:53:06.008Z</time>
      </trkpt>
      <trkpt lat="40.760709" lon="-3.950334">
        <ele>1865.8688862657</ele>
        <time>2018-06-30T00:53:11.008Z</time>
      </trkpt>
      <trkpt lat="40.760659" lon="-3.950254">
        <ele>1865</ele>
        <time>2018-06-30T00:53:19.008Z</time>
      </trkpt>
      <trkpt lat="40.760608" lon="-3.950205">
        <ele>1863</ele>
        <time>2018-06-30T00:53:24.008Z</time>
      </trkpt>
      <trkpt lat="40.760542" lon="-3.95014">
        <ele>1862.36969900703</ele>
        <time>2018-06-30T00:53:31.008Z</time>
      </trkpt>
      <trkpt lat="40.760502" lon="-3.950103">
        <ele>1860</ele>
        <time>2018-06-30T00:53:34.008Z</time>
      </trkpt>
      <trkpt lat="40.760441" lon="-3.950096">
        <ele>1859</ele>
        <time>2018-06-30T00:53:39.008Z</time>
      </trkpt>
      <trkpt lat="40.760386" lon="-3.950108">
        <ele>1856</ele>
        <time>2018-06-30T00:53:47.008Z</time>
      </trkpt>
      <trkpt lat="40.760328" lon="-3.950096">
        <ele>1855</ele>
        <time>2018-06-30T00:53:57.008Z</time>
      </trkpt>
      <trkpt lat="40.760259" lon="-3.95009">
        <ele>1852</ele>
        <time>2018-06-30T00:54:07.008Z</time>
      </trkpt>
      <trkpt lat="40.760227" lon="-3.950048">
        <ele>1850</ele>
        <time>2018-06-30T00:54:13.008Z</time>
      </trkpt>
      <trkpt lat="40.760174" lon="-3.950046">
        <ele>1850</ele>
        <time>2018-06-30T00:54:20.008Z</time>
      </trkpt>
      <trkpt lat="40.760166" lon="-3.949972">
        <ele>1846</ele>
        <time>2018-06-30T00:54:27.008Z</time>
      </trkpt>
      <trkpt lat="40.760132" lon="-3.949922">
        <ele>1846</ele>
        <time>2018-06-30T00:54:35.008Z</time>
      </trkpt>
      <trkpt lat="40.760097" lon="-3.949893">
        <ele>1846</ele>
        <time>2018-06-30T00:54:40.008Z</time>
      </trkpt>
      <trkpt lat="40.760059" lon="-3.949884">
        <ele>1843</ele>
        <time>2018-06-30T00:54:45.008Z</time>
      </trkpt>
      <trkpt lat="40.760021" lon="-3.94987">
        <ele>1840</ele>
        <time>2018-06-30T00:54:50.008Z</time>
      </trkpt>
      <trkpt lat="40.760009" lon="-3.949822">
        <ele>1838</ele>
        <time>2018-06-30T00:54:57.008Z</time>
      </trkpt>
      <trkpt lat="40.759999" lon="-3.949747">
        <ele>1835</ele>
        <time>2018-06-30T00:55:05.008Z</time>
      </trkpt>
      <trkpt lat="40.759965" lon="-3.949697">
        <ele>1832</ele>
        <time>2018-06-30T00:55:15.008Z</time>
      </trkpt>
      <trkpt lat="40.75996" lon="-3.94963">
        <ele>1831</ele>
        <time>2018-06-30T00:55:22.008Z</time>
      </trkpt>
      <trkpt lat="40.759971" lon="-3.949564">
        <ele>1831</ele>
        <time>2018-06-30T00:55:30.008Z</time>
      </trkpt>
      <trkpt lat="40.75993" lon="-3.949502">
        <ele>1828.60665879709</ele>
        <time>2018-06-30T00:55:41.008Z</time>
      </trkpt>
      <trkpt lat="40.759892" lon="-3.949467">
        <ele>1824</ele>
        <time>2018-06-30T00:55:49.008Z</time>
      </trkpt>
      <trkpt lat="40.759868" lon="-3.949426">
        <ele>1821.57255261209</ele>
        <time>2018-06-30T00:55:56.008Z</time>
      </trkpt>
      <trkpt lat="40.759833" lon="-3.949407">
        <ele>1819.78989966901</ele>
        <time>2018-06-30T00:56:01.008Z</time>
      </trkpt>
      <trkpt lat="40.759773" lon="-3.949338">
        <ele>1815</ele>
        <time>2018-06-30T00:56:17.008Z</time>
      </trkpt>
      <trkpt lat="40.759758" lon="-3.949262">
        <ele>1811</ele>
        <time>2018-06-30T00:56:27.008Z</time>
      </trkpt>
      <trkpt lat="40.759686" lon="-3.949182">
        <ele>1808</ele>
        <time>2018-06-30T00:56:40.008Z</time>
      </trkpt>
      <trkpt lat="40.759641" lon="-3.949128">
        <ele>1805.79795723783</ele>
        <time>2018-06-30T00:56:51.008Z</time>
      </trkpt>
      <trkpt lat="40.759655" lon="-3.949084">
        <ele>1805</ele>
        <time>2018-06-30T00:56:58.008Z</time>
      </trkpt>
      <trkpt lat="40.759661" lon="-3.949024">
        <ele>1802</ele>
        <time>2018-06-30T00:57:06.008Z</time>
      </trkpt>
      <trkpt lat="40.759673" lon="-3.948962">
        <ele>1800</ele>
        <time>2018-06-30T00:57:12.008Z</time>
      </trkpt>
      <trkpt lat="40.759684" lon="-3.948908">
        <ele>1800</ele>
        <time>2018-06-30T00:57:18.008Z</time>
      </trkpt>
      <trkpt lat="40.759641" lon="-3.948863">
        <ele>1798</ele>
        <time>2018-06-30T00:57:26.008Z</time>
      </trkpt>
      <trkpt lat="40.759641" lon="-3.948768">
        <ele>1796</ele>
        <time>2018-06-30T00:57:37.008Z</time>
      </trkpt>
      <trkpt lat="40.759622" lon="-3.948716">
        <ele>1794</ele>
        <time>2018-06-30T00:57:45.008Z</time>
      </trkpt>
      <trkpt lat="40.759604" lon="-3.94867">
        <ele>1794</ele>
        <time>2018-06-30T00:57:50.008Z</time>
      </trkpt>
      <trkpt lat="40.759584" lon="-3.948617">
        <ele>1789</ele>
        <time>2018-06-30T00:57:58.008Z</time>
      </trkpt>
      <trkpt lat="40.759584" lon="-3.94856">
        <ele>1788</ele>
        <time>2018-06-30T00:58:03.008Z</time>
      </trkpt>
      <trkpt lat="40.7596" lon="-3.948442">
        <ele>1786.8688862657</ele>
        <time>2018-06-30T00:58:11.008Z</time>
      </trkpt>
      <trkpt lat="40.759632" lon="-3.948334">
        <ele>1786</ele>
        <time>2018-06-30T00:58:17.008Z</time>
      </trkpt>
      <trkpt lat="40.759642" lon="-3.948246">
        <ele>1783</ele>
        <time>2018-06-30T00:58:22.008Z</time>
      </trkpt>
      <trkpt lat="40.759602" lon="-3.9482">
        <ele>1782</ele>
        <time>2018-06-30T00:58:27.008Z</time>
      </trkpt>
      <trkpt lat="40.75961" lon="-3.948118">
        <ele>1778</ele>
        <time>2018-06-30T00:58:38.008Z</time>
      </trkpt>
      <trkpt lat="40.75956" lon="-3.948058">
        <ele>1777</ele>
        <time>2018-06-30T00:58:47.008Z</time>
      </trkpt>
      <trkpt lat="40.759514" lon="-3.948024">
        <ele>1774</ele>
        <time>2018-06-30T00:58:54.008Z</time>
      </trkpt>
      <trkpt lat="40.759484" lon="-3.947972">
        <ele>1773</ele>
        <time>2018-06-30T00:59:00.008Z</time>
      </trkpt>
      <trkpt lat="40.759417" lon="-3.947949">
        <ele>1770.78416090031</ele>
        <time>2018-06-30T00:59:06.008Z</time>
      </trkpt>
      <trkpt lat="40.759362" lon="-3.94794">
        <ele>1769</ele>
        <time>2018-06-30T00:59:13.008Z</time>
      </trkpt>
      <trkpt lat="40.759306" lon="-3.947905">
        <ele>1769</ele>
        <time>2018-06-30T00:59:19.008Z</time>
      </trkpt>
      <trkpt lat="40.759251" lon="-3.947888">
        <ele>1766</ele>
        <time>2018-06-30T00:59:24.008Z</time>
      </trkpt>
      <trkpt lat="40.75921" lon="-3.947806">
        <ele>1763</ele>
        <time>2018-06-30T00:59:34.008Z</time>
      </trkpt>
      <trkpt lat="40.759159" lon="-3.947775">
        <ele>1763</ele>
        <time>2018-06-30T00:59:39.008Z</time>
      </trkpt>
      <trkpt lat="40.759113" lon="-3.947727">
        <ele>1761</ele>
        <time>2018-06-30T00:59:44.008Z</time>
      </trkpt>
      <trkpt lat="40.759067" lon="-3.947662">
        <ele>1761</ele>
        <time>2018-06-30T00:59:50.008Z</time>
      </trkpt>
      <trkpt lat="40.75903" lon="-3.947629">
        <ele>1759</ele>
        <time>2018-06-30T00:59:55.008Z</time>
      </trkpt>
      <trkpt lat="40.759014" lon="-3.947573">
        <ele>1759</ele>
        <time>2018-06-30T00:59:59.008Z</time>
      </trkpt>
      <trkpt lat="40.759005" lon="-3.947497">
        <ele>1754</ele>
        <time>2018-06-30T01:00:06.008Z</time>
      </trkpt>
      <trkpt lat="40.758975" lon="-3.947438">
        <ele>1752</ele>
        <time>2018-06-30T01:00:14.008Z</time>
      </trkpt>
      <trkpt lat="40.758969" lon="-3.947382">
        <ele>1752</ele>
        <time>2018-06-30T01:00:20.008Z</time>
      </trkpt>
      <trkpt lat="40.758942" lon="-3.94733">
        <ele>1750</ele>
        <time>2018-06-30T01:00:26.008Z</time>
      </trkpt>
      <trkpt lat="40.758879" lon="-3.947249">
        <ele>1748</ele>
        <time>2018-06-30T01:00:35.008Z</time>
      </trkpt>
      <trkpt lat="40.758846" lon="-3.9472">
        <ele>1748</ele>
        <time>2018-06-30T01:00:40.008Z</time>
      </trkpt>
      <trkpt lat="40.758782" lon="-3.947145">
        <ele>1746</ele>
        <time>2018-06-30T01:00:47.008Z</time>
      </trkpt>
      <trkpt lat="40.758728" lon="-3.947146">
        <ele>1746</ele>
        <time>2018-06-30T01:00:50.008Z</time>
      </trkpt>
      <trkpt lat="40.758644" lon="-3.947129">
        <ele>1744</ele>
        <time>2018-06-30T01:00:55.008Z</time>
      </trkpt>
      <trkpt lat="40.758548" lon="-3.947109">
        <ele>1744</ele>
        <time>2018-06-30T01:00:59.008Z</time>
      </trkpt>
      <trkpt lat="40.758485" lon="-3.947054">
        <ele>1743</ele>
        <time>2018-06-30T01:01:02.008Z</time>
      </trkpt>
      <trkpt lat="40.758382" lon="-3.947013">
        <ele>1743</ele>
        <time>2018-06-30T01:01:06.008Z</time>
      </trkpt>
      <trkpt lat="40.758328" lon="-3.946955">
        <ele>1743</ele>
        <time>2018-06-30T01:01:10.008Z</time>
      </trkpt>
      <trkpt lat="40.75827" lon="-3.946908">
        <ele>1742</ele>
        <time>2018-06-30T01:01:18.008Z</time>
      </trkpt>
      <trkpt lat="40.758231" lon="-3.946839">
        <ele>1739</ele>
        <time>2018-06-30T01:01:25.008Z</time>
      </trkpt>
      <trkpt lat="40.758217" lon="-3.946775">
        <ele>1737</ele>
        <time>2018-06-30T01:01:30.008Z</time>
      </trkpt>
      <trkpt lat="40.758194" lon="-3.94667">
        <ele>1734</ele>
        <time>2018-06-30T01:01:38.008Z</time>
      </trkpt>
      <trkpt lat="40.75819" lon="-3.946573">
        <ele>1733</ele>
        <time>2018-06-30T01:01:46.008Z</time>
      </trkpt>
      <trkpt lat="40.758193" lon="-3.946492">
        <ele>1730</ele>
        <time>2018-06-30T01:01:55.008Z</time>
      </trkpt>
      <trkpt lat="40.758186" lon="-3.946436">
        <ele>1728.36969900703</ele>
        <time>2018-06-30T01:02:01.008Z</time>
      </trkpt>
      <trkpt lat="40.758136" lon="-3.94632">
        <ele>1725.8688862657</ele>
        <time>2018-06-30T01:02:11.008Z</time>
      </trkpt>
      <trkpt lat="40.758089" lon="-3.946232">
        <ele>1724.79795723783</ele>
        <time>2018-06-30T01:02:21.008Z</time>
      </trkpt>
      <trkpt lat="40.758056" lon="-3.946172">
        <ele>1724</ele>
        <time>2018-06-30T01:02:27.008Z</time>
      </trkpt>
      <trkpt lat="40.758035" lon="-3.946122">
        <ele>1723.36969900703</ele>
        <time>2018-06-30T01:02:31.008Z</time>
      </trkpt>
      <trkpt lat="40.758002" lon="-3.946076">
        <ele>1719</ele>
        <time>2018-06-30T01:02:37.008Z</time>
      </trkpt>
      <trkpt lat="40.75799" lon="-3.945992">
        <ele>1717</ele>
        <time>2018-06-30T01:02:44.008Z</time>
      </trkpt>
      <trkpt lat="40.758009" lon="-3.945949">
        <ele>1716</ele>
        <time>2018-06-30T01:02:48.008Z</time>
      </trkpt>
      <trkpt lat="40.75802" lon="-3.945876">
        <ele>1714</ele>
        <time>2018-06-30T01:02:53.008Z</time>
      </trkpt>
      <trkpt lat="40.757948" lon="-3.945799">
        <ele>1710</ele>
        <time>2018-06-30T01:03:02.008Z</time>
      </trkpt>
      <trkpt lat="40.75789" lon="-3.945777">
        <ele>1710</ele>
        <time>2018-06-30T01:03:08.008Z</time>
      </trkpt>
      <trkpt lat="40.757843" lon="-3.945728">
        <ele>1709</ele>
        <time>2018-06-30T01:03:14.008Z</time>
      </trkpt>
      <trkpt lat="40.757799" lon="-3.945668">
        <ele>1709</ele>
        <time>2018-06-30T01:03:20.008Z</time>
      </trkpt>
      <trkpt lat="40.757758" lon="-3.945593">
        <ele>1706</ele>
        <time>2018-06-30T01:03:25.008Z</time>
      </trkpt>
      <trkpt lat="40.757736" lon="-3.945545">
        <ele>1704</ele>
        <time>2018-06-30T01:03:29.008Z</time>
      </trkpt>
      <trkpt lat="40.757708" lon="-3.945481">
        <ele>1703</ele>
        <time>2018-06-30T01:03:34.008Z</time>
      </trkpt>
      <trkpt lat="40.757675" lon="-3.94542">
        <ele>1701.7377725314</ele>
        <time>2018-06-30T01:03:41.008Z</time>
      </trkpt>
      <trkpt lat="40.757654" lon="-3.945358">
        <ele>1700</ele>
        <time>2018-06-30T01:03:45.008Z</time>
      </trkpt>
      <trkpt lat="40.757628" lon="-3.945279">
        <ele>1699</ele>
        <time>2018-06-30T01:03:50.008Z</time>
      </trkpt>
      <trkpt lat="40.757593" lon="-3.945211">
        <ele>1698</ele>
        <time>2018-06-30T01:03:54.008Z</time>
      </trkpt>
      <trkpt lat="40.75753" lon="-3.945136">
        <ele>1697.36969900703</ele>
        <time>2018-06-30T01:04:01.008Z</time>
      </trkpt>
      <trkpt lat="40.757496" lon="-3.945053">
        <ele>1695</ele>
        <time>2018-06-30T01:04:07.008Z</time>
      </trkpt>
      <trkpt lat="40.757446" lon="-3.944982">
        <ele>1694</ele>
        <time>2018-06-30T01:04:13.008Z</time>
      </trkpt>
      <trkpt lat="40.757425" lon="-3.944889">
        <ele>1694</ele>
        <time>2018-06-30T01:04:19.008Z</time>
      </trkpt>
      <trkpt lat="40.757404" lon="-3.944772">
        <ele>1691</ele>
        <time>2018-06-30T01:04:25.008Z</time>
      </trkpt>
      <trkpt lat="40.757369" lon="-3.944684">
        <ele>1689</ele>
        <time>2018-06-30T01:04:30.008Z</time>
      </trkpt>
      <trkpt lat="40.757334" lon="-3.944592">
        <ele>1688</ele>
        <time>2018-06-30T01:04:34.008Z</time>
      </trkpt>
      <trkpt lat="40.757285" lon="-3.944489">
        <ele>1687</ele>
        <time>2018-06-30T01:04:38.008Z</time>
      </trkpt>
      <trkpt lat="40.757249" lon="-3.944409">
        <ele>1687</ele>
        <time>2018-06-30T01:04:41.008Z</time>
      </trkpt>
      <trkpt lat="40.75723" lon="-3.944314">
        <ele>1687</ele>
        <time>2018-06-30T01:04:44.008Z</time>
      </trkpt>
      <trkpt lat="40.757219" lon="-3.944202">
        <ele>1687</ele>
        <time>2018-06-30T01:04:48.008Z</time>
      </trkpt>
      <trkpt lat="40.757209" lon="-3.944114">
        <ele>1687.20204276217</ele>
        <time>2018-06-30T01:04:51.008Z</time>
      </trkpt>
      <trkpt lat="40.757185" lon="-3.944028">
        <ele>1688</ele>
        <time>2018-06-30T01:04:55.008Z</time>
      </trkpt>
      <trkpt lat="40.757159" lon="-3.943926">
        <ele>1687.36969900703</ele>
        <time>2018-06-30T01:05:01.008Z</time>
      </trkpt>
      <trkpt lat="40.757128" lon="-3.943852">
        <ele>1685</ele>
        <time>2018-06-30T01:05:08.008Z</time>
      </trkpt>
      <trkpt lat="40.757112" lon="-3.943784">
        <ele>1685</ele>
        <time>2018-06-30T01:05:13.008Z</time>
      </trkpt>
      <trkpt lat="40.757116" lon="-3.943716">
        <ele>1685</ele>
        <time>2018-06-30T01:05:19.008Z</time>
      </trkpt>
      <trkpt lat="40.757114" lon="-3.943642">
        <ele>1683</ele>
        <time>2018-06-30T01:05:24.008Z</time>
      </trkpt>
      <trkpt lat="40.757072" lon="-3.943586">
        <ele>1681</ele>
        <time>2018-06-30T01:05:30.008Z</time>
      </trkpt>
      <trkpt lat="40.757065" lon="-3.943515">
        <ele>1680</ele>
        <time>2018-06-30T01:05:34.008Z</time>
      </trkpt>
      <trkpt lat="40.757025" lon="-3.943432">
        <ele>1680</ele>
        <time>2018-06-30T01:05:39.008Z</time>
      </trkpt>
      <trkpt lat="40.757012" lon="-3.943342">
        <ele>1679</ele>
        <time>2018-06-30T01:05:44.008Z</time>
      </trkpt>
      <trkpt lat="40.756962" lon="-3.943292">
        <ele>1679</ele>
        <time>2018-06-30T01:05:48.008Z</time>
      </trkpt>
      <trkpt lat="40.756918" lon="-3.943227">
        <ele>1679</ele>
        <time>2018-06-30T01:05:53.008Z</time>
      </trkpt>
      <trkpt lat="40.756877" lon="-3.943156">
        <ele>1679</ele>
        <time>2018-06-30T01:05:59.008Z</time>
      </trkpt>
      <trkpt lat="40.75684" lon="-3.943102">
        <ele>1675</ele>
        <time>2018-06-30T01:06:04.008Z</time>
      </trkpt>
      <trkpt lat="40.756776" lon="-3.943064">
        <ele>1675</ele>
        <time>2018-06-30T01:06:09.008Z</time>
      </trkpt>
      <trkpt lat="40.756738" lon="-3.942986">
        <ele>1674</ele>
        <time>2018-06-30T01:06:13.008Z</time>
      </trkpt>
      <trkpt lat="40.756704" lon="-3.942896">
        <ele>1674</ele>
        <time>2018-06-30T01:06:18.008Z</time>
      </trkpt>
      <trkpt lat="40.756685" lon="-3.942812">
        <ele>1672</ele>
        <time>2018-06-30T01:06:23.008Z</time>
      </trkpt>
      <trkpt lat="40.756647" lon="-3.942721">
        <ele>1672</ele>
        <time>2018-06-30T01:06:29.008Z</time>
      </trkpt>
      <trkpt lat="40.756592" lon="-3.942686">
        <ele>1670</ele>
        <time>2018-06-30T01:06:32.008Z</time>
      </trkpt>
      <trkpt lat="40.756549" lon="-3.942623">
        <ele>1670</ele>
        <time>2018-06-30T01:06:36.008Z</time>
      </trkpt>
      <trkpt lat="40.756507" lon="-3.942532">
        <ele>1670</ele>
        <time>2018-06-30T01:06:40.008Z</time>
      </trkpt>
      <trkpt lat="40.756461" lon="-3.942432">
        <ele>1668</ele>
        <time>2018-06-30T01:06:45.008Z</time>
      </trkpt>
      <trkpt lat="40.75643" lon="-3.942332">
        <ele>1668</ele>
        <time>2018-06-30T01:06:49.008Z</time>
      </trkpt>
      <trkpt lat="40.756418" lon="-3.942211">
        <ele>1666</ele>
        <time>2018-06-30T01:06:53.008Z</time>
      </trkpt>
      <trkpt lat="40.756365" lon="-3.942078">
        <ele>1666</ele>
        <time>2018-06-30T01:06:58.008Z</time>
      </trkpt>
      <trkpt lat="40.756336" lon="-3.941955">
        <ele>1663</ele>
        <time>2018-06-30T01:07:03.008Z</time>
      </trkpt>
      <trkpt lat="40.7563" lon="-3.941802">
        <ele>1663</ele>
        <time>2018-06-30T01:07:08.008Z</time>
      </trkpt>
      <trkpt lat="40.75627" lon="-3.941673">
        <ele>1661</ele>
        <time>2018-06-30T01:07:12.008Z</time>
      </trkpt>
      <trkpt lat="40.756231" lon="-3.941551">
        <ele>1661</ele>
        <time>2018-06-30T01:07:17.008Z</time>
      </trkpt>
      <trkpt lat="40.756205" lon="-3.941409">
        <ele>1658</ele>
        <time>2018-06-30T01:07:23.008Z</time>
      </trkpt>
      <trkpt lat="40.756154" lon="-3.941325">
        <ele>1656</ele>
        <time>2018-06-30T01:07:28.008Z</time>
      </trkpt>
      <trkpt lat="40.756115" lon="-3.941229">
        <ele>1655</ele>
        <time>2018-06-30T01:07:32.008Z</time>
      </trkpt>
      <trkpt lat="40.756077" lon="-3.941104">
        <ele>1654</ele>
        <time>2018-06-30T01:07:38.008Z</time>
      </trkpt>
      <trkpt lat="40.756042" lon="-3.940999">
        <ele>1653</ele>
        <time>2018-06-30T01:07:43.008Z</time>
      </trkpt>
      <trkpt lat="40.756016" lon="-3.940907">
        <ele>1653</ele>
        <time>2018-06-30T01:07:47.008Z</time>
      </trkpt>
      <trkpt lat="40.75597" lon="-3.940827">
        <ele>1650</ele>
        <time>2018-06-30T01:07:52.008Z</time>
      </trkpt>
      <trkpt lat="40.755926" lon="-3.940732">
        <ele>1649.78627630605</ele>
        <time>2018-06-30T01:07:56.008Z</time>
      </trkpt>
      <trkpt lat="40.755878" lon="-3.940644">
        <ele>1645</ele>
        <time>2018-06-30T01:08:02.008Z</time>
      </trkpt>
      <trkpt lat="40.755827" lon="-3.940559">
        <ele>1645</ele>
        <time>2018-06-30T01:08:07.008Z</time>
      </trkpt>
      <trkpt lat="40.755769" lon="-3.94047">
        <ele>1643</ele>
        <time>2018-06-30T01:08:12.008Z</time>
      </trkpt>
      <trkpt lat="40.755682" lon="-3.940366">
        <ele>1643</ele>
        <time>2018-06-30T01:08:19.008Z</time>
      </trkpt>
      <trkpt lat="40.755568" lon="-3.940316">
        <ele>1641</ele>
        <time>2018-06-30T01:08:24.008Z</time>
      </trkpt>
      <trkpt lat="40.755474" lon="-3.940243">
        <ele>1641</ele>
        <time>2018-06-30T01:08:30.008Z</time>
      </trkpt>
      <trkpt lat="40.755451" lon="-3.940102">
        <ele>1640</ele>
        <time>2018-06-30T01:08:35.008Z</time>
      </trkpt>
      <trkpt lat="40.755423" lon="-3.939987">
        <ele>1640</ele>
        <time>2018-06-30T01:08:40.008Z</time>
      </trkpt>
      <trkpt lat="40.755409" lon="-3.939926">
        <ele>1637</ele>
        <time>2018-06-30T01:08:43.008Z</time>
      </trkpt>
      <trkpt lat="40.755396" lon="-3.93986">
        <ele>1636.60363987572</ele>
        <time>2018-06-30T01:08:46.008Z</time>
      </trkpt>
      <trkpt lat="40.755382" lon="-3.939803">
        <ele>1635</ele>
        <time>2018-06-30T01:08:48.008Z</time>
      </trkpt>
      <trkpt lat="40.755366" lon="-3.93975">
        <ele>1635</ele>
        <time>2018-06-30T01:08:50.008Z</time>
      </trkpt>
      <trkpt lat="40.755356" lon="-3.939705">
        <ele>1634</ele>
        <time>2018-06-30T01:08:52.008Z</time>
      </trkpt>
      <trkpt lat="40.755342" lon="-3.939664">
        <ele>1634</ele>
        <time>2018-06-30T01:08:54.008Z</time>
      </trkpt>
      <trkpt lat="40.755314" lon="-3.939629">
        <ele>1634</ele>
        <time>2018-06-30T01:08:56.008Z</time>
      </trkpt>
      <trkpt lat="40.755294" lon="-3.939585">
        <ele>1634</ele>
        <time>2018-06-30T01:08:58.008Z</time>
      </trkpt>
      <trkpt lat="40.755279" lon="-3.939541">
        <ele>1634</ele>
        <time>2018-06-30T01:09:00.008Z</time>
      </trkpt>
      <trkpt lat="40.755252" lon="-3.939445">
        <ele>1632</ele>
        <time>2018-06-30T01:09:04.008Z</time>
      </trkpt>
      <trkpt lat="40.755229" lon="-3.939344">
        <ele>1632</ele>
        <time>2018-06-30T01:09:08.008Z</time>
      </trkpt>
      <trkpt lat="40.755217" lon="-3.93921">
        <ele>1631</ele>
        <time>2018-06-30T01:09:15.008Z</time>
      </trkpt>
      <trkpt lat="40.755199" lon="-3.939096">
        <ele>1631</ele>
        <time>2018-06-30T01:09:20.008Z</time>
      </trkpt>
      <trkpt lat="40.755189" lon="-3.939008">
        <ele>1629</ele>
        <time>2018-06-30T01:09:24.008Z</time>
      </trkpt>
      <trkpt lat="40.755165" lon="-3.938912">
        <ele>1629</ele>
        <time>2018-06-30T01:09:28.008Z</time>
      </trkpt>
      <trkpt lat="40.755141" lon="-3.938798">
        <ele>1628</ele>
        <time>2018-06-30T01:09:34.008Z</time>
      </trkpt>
      <trkpt lat="40.755139" lon="-3.938678">
        <ele>1628</ele>
        <time>2018-06-30T01:09:40.008Z</time>
      </trkpt>
      <trkpt lat="40.755142" lon="-3.93855">
        <ele>1626</ele>
        <time>2018-06-30T01:09:45.008Z</time>
      </trkpt>
      <trkpt lat="40.755132" lon="-3.938446">
        <ele>1626</ele>
        <time>2018-06-30T01:09:49.008Z</time>
      </trkpt>
      <trkpt lat="40.755132" lon="-3.938306">
        <ele>1624</ele>
        <time>2018-06-30T01:09:56.008Z</time>
      </trkpt>
      <trkpt lat="40.755139" lon="-3.938155">
        <ele>1621</ele>
        <time>2018-06-30T01:10:02.008Z</time>
      </trkpt>
      <trkpt lat="40.755147" lon="-3.938034">
        <ele>1620</ele>
        <time>2018-06-30T01:10:07.008Z</time>
      </trkpt>
      <trkpt lat="40.75513" lon="-3.937914">
        <ele>1619.8688862657</ele>
        <time>2018-06-30T01:10:11.008Z</time>
      </trkpt>
      <trkpt lat="40.755095" lon="-3.937779">
        <ele>1619</ele>
        <time>2018-06-30T01:10:16.008Z</time>
      </trkpt>
      <trkpt lat="40.755075" lon="-3.937692">
        <ele>1619</ele>
        <time>2018-06-30T01:10:21.008Z</time>
      </trkpt>
      <trkpt lat="40.755077" lon="-3.937609">
        <ele>1619</ele>
        <time>2018-06-30T01:10:27.008Z</time>
      </trkpt>
      <trkpt lat="40.755026" lon="-3.937464">
        <ele>1617</ele>
        <time>2018-06-30T01:10:33.008Z</time>
      </trkpt>
      <trkpt lat="40.754969" lon="-3.937349">
        <ele>1617</ele>
        <time>2018-06-30T01:10:38.008Z</time>
      </trkpt>
      <trkpt lat="40.754914" lon="-3.937238">
        <ele>1615</ele>
        <time>2018-06-30T01:10:43.008Z</time>
      </trkpt>
      <trkpt lat="40.754848" lon="-3.93711">
        <ele>1615</ele>
        <time>2018-06-30T01:10:48.008Z</time>
      </trkpt>
      <trkpt lat="40.754789" lon="-3.936986">
        <ele>1614</ele>
        <time>2018-06-30T01:10:53.008Z</time>
      </trkpt>
      <trkpt lat="40.754732" lon="-3.936847">
        <ele>1614</ele>
        <time>2018-06-30T01:10:58.008Z</time>
      </trkpt>
      <trkpt lat="40.754685" lon="-3.936726">
        <ele>1613</ele>
        <time>2018-06-30T01:11:05.008Z</time>
      </trkpt>
      <trkpt lat="40.754678" lon="-3.93661">
        <ele>1611</ele>
        <time>2018-06-30T01:11:15.008Z</time>
      </trkpt>
      <trkpt lat="40.754655" lon="-3.936503">
        <ele>1609</ele>
        <time>2018-06-30T01:11:23.008Z</time>
      </trkpt>
      <trkpt lat="40.754638" lon="-3.936372">
        <ele>1606</ele>
        <time>2018-06-30T01:11:33.008Z</time>
      </trkpt>
      <trkpt lat="40.754616" lon="-3.936296">
        <ele>1605</ele>
        <time>2018-06-30T01:11:39.008Z</time>
      </trkpt>
      <trkpt lat="40.754617" lon="-3.936207">
        <ele>1604</ele>
        <time>2018-06-30T01:11:45.008Z</time>
      </trkpt>
      <trkpt lat="40.754603" lon="-3.936067">
        <ele>1601</ele>
        <time>2018-06-30T01:11:53.008Z</time>
      </trkpt>
      <trkpt lat="40.754581" lon="-3.93594">
        <ele>1598</ele>
        <time>2018-06-30T01:11:58.008Z</time>
      </trkpt>
      <trkpt lat="40.754557" lon="-3.935812">
        <ele>1596</ele>
        <time>2018-06-30T01:12:05.008Z</time>
      </trkpt>
      <trkpt lat="40.754549" lon="-3.935684">
        <ele>1594.8688862657</ele>
        <time>2018-06-30T01:12:11.008Z</time>
      </trkpt>
      <trkpt lat="40.754543" lon="-3.935574">
        <ele>1594</ele>
        <time>2018-06-30T01:12:17.008Z</time>
      </trkpt>
      <trkpt lat="40.754534" lon="-3.935449">
        <ele>1591</ele>
        <time>2018-06-30T01:12:23.008Z</time>
      </trkpt>
      <trkpt lat="40.754538" lon="-3.935315">
        <ele>1588</ele>
        <time>2018-06-30T01:12:30.008Z</time>
      </trkpt>
      <trkpt lat="40.754537" lon="-3.935159">
        <ele>1585</ele>
        <time>2018-06-30T01:12:37.008Z</time>
      </trkpt>
      <trkpt lat="40.754535" lon="-3.935026">
        <ele>1584.7377725314</ele>
        <time>2018-06-30T01:12:41.008Z</time>
      </trkpt>
      <trkpt lat="40.754531" lon="-3.93487">
        <ele>1580</ele>
        <time>2018-06-30T01:12:47.008Z</time>
      </trkpt>
      <trkpt lat="40.754552" lon="-3.934722">
        <ele>1578</ele>
        <time>2018-06-30T01:12:52.008Z</time>
      </trkpt>
      <trkpt lat="40.754567" lon="-3.934577">
        <ele>1576</ele>
        <time>2018-06-30T01:12:58.008Z</time>
      </trkpt>
      <trkpt lat="40.754583" lon="-3.934431">
        <ele>1573</ele>
        <time>2018-06-30T01:13:04.008Z</time>
      </trkpt>
      <trkpt lat="40.754591" lon="-3.934291">
        <ele>1573</ele>
        <time>2018-06-30T01:13:09.008Z</time>
      </trkpt>
      <trkpt lat="40.754585" lon="-3.934149">
        <ele>1571</ele>
        <time>2018-06-30T01:13:15.008Z</time>
      </trkpt>
      <trkpt lat="40.754596" lon="-3.934">
        <ele>1570.19182895132</ele>
        <time>2018-06-30T01:13:21.008Z</time>
      </trkpt>
      <trkpt lat="40.754621" lon="-3.933874">
        <ele>1566.57255261209</ele>
        <time>2018-06-30T01:13:26.008Z</time>
      </trkpt>
      <trkpt lat="40.754637" lon="-3.933735">
        <ele>1564</ele>
        <time>2018-06-30T01:13:32.008Z</time>
      </trkpt>
      <trkpt lat="40.754657" lon="-3.933601">
        <ele>1562</ele>
        <time>2018-06-30T01:13:37.008Z</time>
      </trkpt>
      <trkpt lat="40.754683" lon="-3.933455">
        <ele>1561</ele>
        <time>2018-06-30T01:13:43.008Z</time>
      </trkpt>
      <trkpt lat="40.754752" lon="-3.933569">
        <ele>1555</ele>
        <time>2018-06-30T01:14:00.008Z</time>
      </trkpt>
      <trkpt lat="40.754793" lon="-3.933693">
        <ele>1552.78416090031</ele>
        <time>2018-06-30T01:14:06.008Z</time>
      </trkpt>
      <trkpt lat="40.75482" lon="-3.93381">
        <ele>1551</ele>
        <time>2018-06-30T01:14:12.008Z</time>
      </trkpt>
      <trkpt lat="40.754826" lon="-3.933958">
        <ele>1551</ele>
        <time>2018-06-30T01:14:18.008Z</time>
      </trkpt>
      <trkpt lat="40.75486" lon="-3.934093">
        <ele>1550</ele>
        <time>2018-06-30T01:14:24.008Z</time>
      </trkpt>
      <trkpt lat="40.754921" lon="-3.934222">
        <ele>1548</ele>
        <time>2018-06-30T01:14:32.008Z</time>
      </trkpt>
      <trkpt lat="40.754971" lon="-3.934337">
        <ele>1548</ele>
        <time>2018-06-30T01:14:37.008Z</time>
      </trkpt>
      <trkpt lat="40.755038" lon="-3.93445">
        <ele>1545</ele>
        <time>2018-06-30T01:14:42.008Z</time>
      </trkpt>
      <trkpt lat="40.755097" lon="-3.934587">
        <ele>1544</ele>
        <time>2018-06-30T01:14:48.008Z</time>
      </trkpt>
      <trkpt lat="40.755148" lon="-3.934707">
        <ele>1542</ele>
        <time>2018-06-30T01:14:53.008Z</time>
      </trkpt>
      <trkpt lat="40.755221" lon="-3.934818">
        <ele>1541</ele>
        <time>2018-06-30T01:15:00.008Z</time>
      </trkpt>
      <trkpt lat="40.755278" lon="-3.934699">
        <ele>1540</ele>
        <time>2018-06-30T01:15:10.008Z</time>
      </trkpt>
      <trkpt lat="40.755292" lon="-3.934547">
        <ele>1534</ele>
        <time>2018-06-30T01:15:17.008Z</time>
      </trkpt>
      <trkpt lat="40.755309" lon="-3.934454">
        <ele>1533.79795723783</ele>
        <time>2018-06-30T01:15:21.008Z</time>
      </trkpt>
      <trkpt lat="40.755331" lon="-3.93431">
        <ele>1532</ele>
        <time>2018-06-30T01:15:27.008Z</time>
      </trkpt>
      <trkpt lat="40.755372" lon="-3.934181">
        <ele>1529</ele>
        <time>2018-06-30T01:15:34.008Z</time>
      </trkpt>
      <trkpt lat="40.755384" lon="-3.934048">
        <ele>1524</ele>
        <time>2018-06-30T01:15:56.008Z</time>
      </trkpt>
      <trkpt lat="40.755389" lon="-3.933911">
        <ele>1523.15959867604</ele>
        <time>2018-06-30T01:16:01.008Z</time>
      </trkpt>
      <trkpt lat="40.755368" lon="-3.933761">
        <ele>1520</ele>
        <time>2018-06-30T01:16:06.008Z</time>
      </trkpt>
      <trkpt lat="40.755352" lon="-3.933661">
        <ele>1520</ele>
        <time>2018-06-30T01:16:09.008Z</time>
      </trkpt>
      <trkpt lat="40.755364" lon="-3.933546">
        <ele>1518</ele>
        <time>2018-06-30T01:16:13.008Z</time>
      </trkpt>
      <trkpt lat="40.755367" lon="-3.933426">
        <ele>1518</ele>
        <time>2018-06-30T01:16:16.008Z</time>
      </trkpt>
      <trkpt lat="40.755358" lon="-3.933281">
        <ele>1518</ele>
        <time>2018-06-30T01:16:20.008Z</time>
      </trkpt>
      <trkpt lat="40.755374" lon="-3.933129">
        <ele>1516</ele>
        <time>2018-06-30T01:16:24.008Z</time>
      </trkpt>
      <trkpt lat="40.75537" lon="-3.932987">
        <ele>1516</ele>
        <time>2018-06-30T01:16:28.008Z</time>
      </trkpt>
      <trkpt lat="40.755372" lon="-3.932838">
        <ele>1515</ele>
        <time>2018-06-30T01:16:32.008Z</time>
      </trkpt>
      <trkpt lat="40.755358" lon="-3.932694">
        <ele>1515</ele>
        <time>2018-06-30T01:16:36.008Z</time>
      </trkpt>
      <trkpt lat="40.755343" lon="-3.932552">
        <ele>1515</ele>
        <time>2018-06-30T01:16:40.008Z</time>
      </trkpt>
      <trkpt lat="40.755332" lon="-3.932394">
        <ele>1513</ele>
        <time>2018-06-30T01:16:44.008Z</time>
      </trkpt>
      <trkpt lat="40.755309" lon="-3.932249">
        <ele>1513</ele>
        <time>2018-06-30T01:16:48.008Z</time>
      </trkpt>
      <trkpt lat="40.755283" lon="-3.932111">
        <ele>1510</ele>
        <time>2018-06-30T01:16:52.008Z</time>
      </trkpt>
      <trkpt lat="40.755257" lon="-3.931967">
        <ele>1509.78627630605</ele>
        <time>2018-06-30T01:16:56.008Z</time>
      </trkpt>
      <trkpt lat="40.755231" lon="-3.931834">
        <ele>1509</ele>
        <time>2018-06-30T01:17:00.008Z</time>
      </trkpt>
      <trkpt lat="40.755211" lon="-3.931702">
        <ele>1508</ele>
        <time>2018-06-30T01:17:04.008Z</time>
      </trkpt>
      <trkpt lat="40.755196" lon="-3.931561">
        <ele>1508</ele>
        <time>2018-06-30T01:17:09.008Z</time>
      </trkpt>
      <trkpt lat="40.755189" lon="-3.931427">
        <ele>1506</ele>
        <time>2018-06-30T01:17:13.008Z</time>
      </trkpt>
      <trkpt lat="40.755161" lon="-3.931269">
        <ele>1506</ele>
        <time>2018-06-30T01:17:17.008Z</time>
      </trkpt>
      <trkpt lat="40.755144" lon="-3.931118">
        <ele>1505.39387171349</ele>
        <time>2018-06-30T01:17:21.008Z</time>
      </trkpt>
      <trkpt lat="40.755128" lon="-3.930992">
        <ele>1503</ele>
        <time>2018-06-30T01:17:24.008Z</time>
      </trkpt>
      <trkpt lat="40.755106" lon="-3.930841">
        <ele>1502</ele>
        <time>2018-06-30T01:17:28.008Z</time>
      </trkpt>
      <trkpt lat="40.755072" lon="-3.930694">
        <ele>1501</ele>
        <time>2018-06-30T01:17:32.008Z</time>
      </trkpt>
      <trkpt lat="40.75504" lon="-3.930541">
        <ele>1501</ele>
        <time>2018-06-30T01:17:37.008Z</time>
      </trkpt>
      <trkpt lat="40.755013" lon="-3.930397">
        <ele>1500.60665879709</ele>
        <time>2018-06-30T01:17:41.008Z</time>
      </trkpt>
      <trkpt lat="40.75498" lon="-3.930264">
        <ele>1498</ele>
        <time>2018-06-30T01:17:45.008Z</time>
      </trkpt>
      <trkpt lat="40.754946" lon="-3.930141">
        <ele>1497</ele>
        <time>2018-06-30T01:17:49.008Z</time>
      </trkpt>
      <trkpt lat="40.754909" lon="-3.930007">
        <ele>1496</ele>
        <time>2018-06-30T01:17:53.008Z</time>
      </trkpt>
      <trkpt lat="40.754879" lon="-3.929865">
        <ele>1496</ele>
        <time>2018-06-30T01:17:57.008Z</time>
      </trkpt>
      <trkpt lat="40.75484" lon="-3.92973">
        <ele>1495.36969900703</ele>
        <time>2018-06-30T01:18:01.008Z</time>
      </trkpt>
      <trkpt lat="40.754809" lon="-3.929629">
        <ele>1493</ele>
        <time>2018-06-30T01:18:04.008Z</time>
      </trkpt>
      <trkpt lat="40.754784" lon="-3.929525">
        <ele>1493</ele>
        <time>2018-06-30T01:18:07.008Z</time>
      </trkpt>
      <trkpt lat="40.754756" lon="-3.929408">
        <ele>1493</ele>
        <time>2018-06-30T01:18:11.008Z</time>
      </trkpt>
      <trkpt lat="40.7548" lon="-3.929291">
        <ele>1493</ele>
        <time>2018-06-30T01:18:17.008Z</time>
      </trkpt>
      <trkpt lat="40.754885" lon="-3.929381">
        <ele>1492.59591447566</ele>
        <time>2018-06-30T01:18:21.008Z</time>
      </trkpt>
      <trkpt lat="40.754925" lon="-3.929521">
        <ele>1491</ele>
        <time>2018-06-30T01:18:25.008Z</time>
      </trkpt>
      <trkpt lat="40.75495" lon="-3.929679">
        <ele>1489</ele>
        <time>2018-06-30T01:18:29.008Z</time>
      </trkpt>
      <trkpt lat="40.754984" lon="-3.929817">
        <ele>1489</ele>
        <time>2018-06-30T01:18:33.008Z</time>
      </trkpt>
      <trkpt lat="40.755039" lon="-3.92994">
        <ele>1489</ele>
        <time>2018-06-30T01:18:37.008Z</time>
      </trkpt>
      <trkpt lat="40.755104" lon="-3.930054">
        <ele>1488.60665879709</ele>
        <time>2018-06-30T01:18:41.008Z</time>
      </trkpt>
      <trkpt lat="40.755171" lon="-3.930162">
        <ele>1486</ele>
        <time>2018-06-30T01:18:45.008Z</time>
      </trkpt>
      <trkpt lat="40.755223" lon="-3.930278">
        <ele>1485</ele>
        <time>2018-06-30T01:18:49.008Z</time>
      </trkpt>
      <trkpt lat="40.755256" lon="-3.930425">
        <ele>1484</ele>
        <time>2018-06-30T01:18:53.008Z</time>
      </trkpt>
      <trkpt lat="40.755302" lon="-3.930547">
        <ele>1484</ele>
        <time>2018-06-30T01:18:57.008Z</time>
      </trkpt>
      <trkpt lat="40.755333" lon="-3.930652">
        <ele>1484</ele>
        <time>2018-06-30T01:19:00.008Z</time>
      </trkpt>
      <trkpt lat="40.755365" lon="-3.93078">
        <ele>1483</ele>
        <time>2018-06-30T01:19:04.008Z</time>
      </trkpt>
      <trkpt lat="40.75539" lon="-3.930878">
        <ele>1483</ele>
        <time>2018-06-30T01:19:07.008Z</time>
      </trkpt>
      <trkpt lat="40.755427" lon="-3.930999">
        <ele>1483</ele>
        <time>2018-06-30T01:19:11.008Z</time>
      </trkpt>
      <trkpt lat="40.755456" lon="-3.931127">
        <ele>1483</ele>
        <time>2018-06-30T01:19:15.008Z</time>
      </trkpt>
      <trkpt lat="40.755482" lon="-3.931262">
        <ele>1483</ele>
        <time>2018-06-30T01:19:19.008Z</time>
      </trkpt>
      <trkpt lat="40.755507" lon="-3.931423">
        <ele>1482</ele>
        <time>2018-06-30T01:19:24.008Z</time>
      </trkpt>
      <trkpt lat="40.755542" lon="-3.931572">
        <ele>1482</ele>
        <time>2018-06-30T01:19:29.008Z</time>
      </trkpt>
      <trkpt lat="40.755583" lon="-3.931704">
        <ele>1484</ele>
        <time>2018-06-30T01:19:34.008Z</time>
      </trkpt>
      <trkpt lat="40.755615" lon="-3.931847">
        <ele>1484</ele>
        <time>2018-06-30T01:19:39.008Z</time>
      </trkpt>
      <trkpt lat="40.75565" lon="-3.931999">
        <ele>1484</ele>
        <time>2018-06-30T01:19:44.008Z</time>
      </trkpt>
      <trkpt lat="40.755692" lon="-3.932125">
        <ele>1484</ele>
        <time>2018-06-30T01:19:49.008Z</time>
      </trkpt>
      <trkpt lat="40.755729" lon="-3.932267">
        <ele>1486</ele>
        <time>2018-06-30T01:19:54.008Z</time>
      </trkpt>
      <trkpt lat="40.755754" lon="-3.932424">
        <ele>1486</ele>
        <time>2018-06-30T01:19:59.008Z</time>
      </trkpt>
      <trkpt lat="40.755793" lon="-3.932577">
        <ele>1486</ele>
        <time>2018-06-30T01:20:04.008Z</time>
      </trkpt>
      <trkpt lat="40.755809" lon="-3.93273">
        <ele>1486</ele>
        <time>2018-06-30T01:20:09.008Z</time>
      </trkpt>
      <trkpt lat="40.755829" lon="-3.932873">
        <ele>1486</ele>
        <time>2018-06-30T01:20:14.008Z</time>
      </trkpt>
      <trkpt lat="40.755867" lon="-3.932976">
        <ele>1486</ele>
        <time>2018-06-30T01:20:25.008Z</time>
      </trkpt>
      <trkpt lat="40.755942" lon="-3.933079">
        <ele>1484</ele>
        <time>2018-06-30T01:20:34.008Z</time>
      </trkpt>
      <trkpt lat="40.755982" lon="-3.93321">
        <ele>1483</ele>
        <time>2018-06-30T01:20:42.008Z</time>
      </trkpt>
      <trkpt lat="40.756018" lon="-3.933334">
        <ele>1483</ele>
        <time>2018-06-30T01:20:47.008Z</time>
      </trkpt>
      <trkpt lat="40.756041" lon="-3.933474">
        <ele>1480</ele>
        <time>2018-06-30T01:20:55.008Z</time>
      </trkpt>
      <trkpt lat="40.756126" lon="-3.933399">
        <ele>1476</ele>
        <time>2018-06-30T01:21:03.008Z</time>
      </trkpt>
      <trkpt lat="40.756177" lon="-3.933255">
        <ele>1475</ele>
        <time>2018-06-30T01:21:09.008Z</time>
      </trkpt>
      <trkpt lat="40.756217" lon="-3.933112">
        <ele>1472.80181993786</ele>
        <time>2018-06-30T01:21:16.008Z</time>
      </trkpt>
      <trkpt lat="40.756227" lon="-3.932968">
        <ele>1470</ele>
        <time>2018-06-30T01:21:22.008Z</time>
      </trkpt>
      <trkpt lat="40.756246" lon="-3.932828">
        <ele>1469</ele>
        <time>2018-06-30T01:21:27.008Z</time>
      </trkpt>
      <trkpt lat="40.756256" lon="-3.932689">
        <ele>1467</ele>
        <time>2018-06-30T01:21:34.008Z</time>
      </trkpt>
      <trkpt lat="40.756284" lon="-3.932562">
        <ele>1465.7377725314</ele>
        <time>2018-06-30T01:21:41.008Z</time>
      </trkpt>
      <trkpt lat="40.756341" lon="-3.932435">
        <ele>1461</ele>
        <time>2018-06-30T01:21:47.008Z</time>
      </trkpt>
      <trkpt lat="40.756368" lon="-3.932304">
        <ele>1461</ele>
        <time>2018-06-30T01:21:54.008Z</time>
      </trkpt>
      <trkpt lat="40.756384" lon="-3.932152">
        <ele>1457.57979933802</ele>
        <time>2018-06-30T01:22:01.008Z</time>
      </trkpt>
      <trkpt lat="40.756423" lon="-3.93202">
        <ele>1455</ele>
        <time>2018-06-30T01:22:07.008Z</time>
      </trkpt>
      <trkpt lat="40.75644" lon="-3.931881">
        <ele>1453</ele>
        <time>2018-06-30T01:22:15.008Z</time>
      </trkpt>
      <trkpt lat="40.756539" lon="-3.93195">
        <ele>1447</ele>
        <time>2018-06-30T01:22:33.008Z</time>
      </trkpt>
      <trkpt lat="40.756615" lon="-3.932081">
        <ele>1445</ele>
        <time>2018-06-30T01:22:39.008Z</time>
      </trkpt>
      <trkpt lat="40.756682" lon="-3.9322">
        <ele>1444</ele>
        <time>2018-06-30T01:22:44.008Z</time>
      </trkpt>
      <trkpt lat="40.756744" lon="-3.932323">
        <ele>1443</ele>
        <time>2018-06-30T01:22:49.008Z</time>
      </trkpt>
      <trkpt lat="40.756821" lon="-3.932434">
        <ele>1440</ele>
        <time>2018-06-30T01:22:54.008Z</time>
      </trkpt>
      <trkpt lat="40.756881" lon="-3.932555">
        <ele>1438</ele>
        <time>2018-06-30T01:22:59.008Z</time>
      </trkpt>
      <trkpt lat="40.756966" lon="-3.932464">
        <ele>1432</ele>
        <time>2018-06-30T01:23:13.008Z</time>
      </trkpt>
      <trkpt lat="40.756973" lon="-3.932328">
        <ele>1430</ele>
        <time>2018-06-30T01:23:18.008Z</time>
      </trkpt>
      <trkpt lat="40.757007" lon="-3.932195">
        <ele>1428</ele>
        <time>2018-06-30T01:23:23.008Z</time>
      </trkpt>
      <trkpt lat="40.757044" lon="-3.932059">
        <ele>1425</ele>
        <time>2018-06-30T01:23:28.008Z</time>
      </trkpt>
      <trkpt lat="40.757079" lon="-3.931926">
        <ele>1424</ele>
        <time>2018-06-30T01:23:33.008Z</time>
      </trkpt>
      <trkpt lat="40.757067" lon="-3.93178">
        <ele>1422</ele>
        <time>2018-06-30T01:23:39.008Z</time>
      </trkpt>
      <trkpt lat="40.757087" lon="-3.931642">
        <ele>1421</ele>
        <time>2018-06-30T01:23:45.008Z</time>
      </trkpt>
      <trkpt lat="40.757098" lon="-3.931496">
        <ele>1418.59591447566</ele>
        <time>2018-06-30T01:23:51.008Z</time>
      </trkpt>
      <trkpt lat="40.757081" lon="-3.931348">
        <ele>1416</ele>
        <time>2018-06-30T01:23:57.008Z</time>
      </trkpt>
      <trkpt lat="40.757179" lon="-3.931398">
        <ele>1412</ele>
        <time>2018-06-30T01:24:10.008Z</time>
      </trkpt>
      <trkpt lat="40.757244" lon="-3.931525">
        <ele>1410</ele>
        <time>2018-06-30T01:24:17.008Z</time>
      </trkpt>
      <trkpt lat="40.757308" lon="-3.931632">
        <ele>1409</ele>
        <time>2018-06-30T01:24:23.008Z</time>
      </trkpt>
      <trkpt lat="40.757363" lon="-3.931743">
        <ele>1409</ele>
        <time>2018-06-30T01:24:29.008Z</time>
      </trkpt>
      <trkpt lat="40.757462" lon="-3.931729">
        <ele>1404</ele>
        <time>2018-06-30T01:24:39.008Z</time>
      </trkpt>
      <trkpt lat="40.757503" lon="-3.931594">
        <ele>1400.80181993786</ele>
        <time>2018-06-30T01:24:46.008Z</time>
      </trkpt>
      <trkpt lat="40.757522" lon="-3.931459">
        <ele>1398</ele>
        <time>2018-06-30T01:24:52.008Z</time>
      </trkpt>
      <trkpt lat="40.757546" lon="-3.931322">
        <ele>1394.57979933802</ele>
        <time>2018-06-30T01:25:01.008Z</time>
      </trkpt>
      <trkpt lat="40.757564" lon="-3.931184">
        <ele>1391</ele>
        <time>2018-06-30T01:25:09.008Z</time>
      </trkpt>
      <trkpt lat="40.757582" lon="-3.931046">
        <ele>1390</ele>
        <time>2018-06-30T01:25:15.008Z</time>
      </trkpt>
      <trkpt lat="40.757598" lon="-3.930906">
        <ele>1383.80181993786</ele>
        <time>2018-06-30T01:25:22.008Z</time>
      </trkpt>
      <trkpt lat="40.757614" lon="-3.930756">
        <ele>1382.80181993786</ele>
        <time>2018-06-30T01:25:28.008Z</time>
      </trkpt>
      <trkpt lat="40.757636" lon="-3.930614">
        <ele>1381</ele>
        <time>2018-06-30T01:25:34.008Z</time>
      </trkpt>
      <trkpt lat="40.757642" lon="-3.930466">
        <ele>1378.7377725314</ele>
        <time>2018-06-30T01:25:41.008Z</time>
      </trkpt>
      <trkpt lat="40.757668" lon="-3.930332">
        <ele>1375</ele>
        <time>2018-06-30T01:25:48.008Z</time>
      </trkpt>
      <trkpt lat="40.75771" lon="-3.930192">
        <ele>1373</ele>
        <time>2018-06-30T01:25:53.008Z</time>
      </trkpt>
      <trkpt lat="40.757714" lon="-3.930034">
        <ele>1371</ele>
        <time>2018-06-30T01:25:58.008Z</time>
      </trkpt>
      <trkpt lat="40.757732" lon="-3.929885">
        <ele>1369</ele>
        <time>2018-06-30T01:26:04.008Z</time>
      </trkpt>
      <trkpt lat="40.75777" lon="-3.929733">
        <ele>1366.8688862657</ele>
        <time>2018-06-30T01:26:11.008Z</time>
      </trkpt>
      <trkpt lat="40.757766" lon="-3.929596">
        <ele>1365</ele>
        <time>2018-06-30T01:26:17.008Z</time>
      </trkpt>
      <trkpt lat="40.75778" lon="-3.929461">
        <ele>1363</ele>
        <time>2018-06-30T01:26:24.008Z</time>
      </trkpt>
      <trkpt lat="40.757796" lon="-3.929312">
        <ele>1360</ele>
        <time>2018-06-30T01:26:29.008Z</time>
      </trkpt>
      <trkpt lat="40.757808" lon="-3.929176">
        <ele>1359</ele>
        <time>2018-06-30T01:26:34.008Z</time>
      </trkpt>
      <trkpt lat="40.757822" lon="-3.929027">
        <ele>1357</ele>
        <time>2018-06-30T01:26:39.008Z</time>
      </trkpt>
      <trkpt lat="40.757852" lon="-3.928874">
        <ele>1356</ele>
        <time>2018-06-30T01:26:44.008Z</time>
      </trkpt>
      <trkpt lat="40.757884" lon="-3.928743">
        <ele>1354</ele>
        <time>2018-06-30T01:26:49.008Z</time>
      </trkpt>
      <trkpt lat="40.757888" lon="-3.9286">
        <ele>1351.57255261209</ele>
        <time>2018-06-30T01:26:56.008Z</time>
      </trkpt>
      <trkpt lat="40.757849" lon="-3.928476">
        <ele>1349.57979933802</ele>
        <time>2018-06-30T01:27:01.008Z</time>
      </trkpt>
      <trkpt lat="40.757826" lon="-3.928344">
        <ele>1348</ele>
        <time>2018-06-30T01:27:07.008Z</time>
      </trkpt>
      <trkpt lat="40.757771" lon="-3.928205">
        <ele>1347</ele>
        <time>2018-06-30T01:27:12.008Z</time>
      </trkpt>
      <trkpt lat="40.757717" lon="-3.928062">
        <ele>1347</ele>
        <time>2018-06-30T01:27:17.008Z</time>
      </trkpt>
      <trkpt lat="40.75768" lon="-3.92794">
        <ele>1347</ele>
        <time>2018-06-30T01:27:22.008Z</time>
      </trkpt>
      <trkpt lat="40.757636" lon="-3.927822">
        <ele>1347</ele>
        <time>2018-06-30T01:27:28.008Z</time>
      </trkpt>
      <trkpt lat="40.757592" lon="-3.927703">
        <ele>1348</ele>
        <time>2018-06-30T01:27:36.008Z</time>
      </trkpt>
      <trkpt lat="40.757567" lon="-3.92757">
        <ele>1346</ele>
        <time>2018-06-30T01:27:42.008Z</time>
      </trkpt>
      <trkpt lat="40.757499" lon="-3.927468">
        <ele>1346</ele>
        <time>2018-06-30T01:27:48.008Z</time>
      </trkpt>
      <trkpt lat="40.757412" lon="-3.927363">
        <ele>1344</ele>
        <time>2018-06-30T01:27:53.008Z</time>
      </trkpt>
      <trkpt lat="40.757345" lon="-3.927253">
        <ele>1344</ele>
        <time>2018-06-30T01:27:58.008Z</time>
      </trkpt>
      <trkpt lat="40.75729" lon="-3.927136">
        <ele>1343</ele>
        <time>2018-06-30T01:28:04.008Z</time>
      </trkpt>
      <trkpt lat="40.757213" lon="-3.927025">
        <ele>1343</ele>
        <time>2018-06-30T01:28:10.008Z</time>
      </trkpt>
      <trkpt lat="40.757193" lon="-3.926891">
        <ele>1343</ele>
        <time>2018-06-30T01:28:17.008Z</time>
      </trkpt>
      <trkpt lat="40.757157" lon="-3.926768">
        <ele>1342</ele>
        <time>2018-06-30T01:28:23.008Z</time>
      </trkpt>
      <trkpt lat="40.757133" lon="-3.926639">
        <ele>1342</ele>
        <time>2018-06-30T01:28:29.008Z</time>
      </trkpt>
      <trkpt lat="40.757086" lon="-3.926495">
        <ele>1341</ele>
        <time>2018-06-30T01:28:35.008Z</time>
      </trkpt>
      <trkpt lat="40.757028" lon="-3.926348">
        <ele>1341</ele>
        <time>2018-06-30T01:28:40.008Z</time>
      </trkpt>
      <trkpt lat="40.756989" lon="-3.926222">
        <ele>1341</ele>
        <time>2018-06-30T01:28:44.008Z</time>
      </trkpt>
      <trkpt lat="40.756966" lon="-3.926087">
        <ele>1341</ele>
        <time>2018-06-30T01:28:48.008Z</time>
      </trkpt>
      <trkpt lat="40.756926" lon="-3.925967">
        <ele>1341</ele>
        <time>2018-06-30T01:28:52.008Z</time>
      </trkpt>
      <trkpt lat="40.756898" lon="-3.925825">
        <ele>1341</ele>
        <time>2018-06-30T01:28:57.008Z</time>
      </trkpt>
      <trkpt lat="40.756888" lon="-3.92569">
        <ele>1339</ele>
        <time>2018-06-30T01:29:02.008Z</time>
      </trkpt>
      <trkpt lat="40.756859" lon="-3.925544">
        <ele>1339</ele>
        <time>2018-06-30T01:29:08.008Z</time>
      </trkpt>
      <trkpt lat="40.75681" lon="-3.925406">
        <ele>1339</ele>
        <time>2018-06-30T01:29:14.008Z</time>
      </trkpt>
      <trkpt lat="40.756738" lon="-3.925294">
        <ele>1339</ele>
        <time>2018-06-30T01:29:19.008Z</time>
      </trkpt>
      <trkpt lat="40.756693" lon="-3.925169">
        <ele>1339</ele>
        <time>2018-06-30T01:29:24.008Z</time>
      </trkpt>
      <trkpt lat="40.756638" lon="-3.925059">
        <ele>1339</ele>
        <time>2018-06-30T01:29:27.008Z</time>
      </trkpt>
      <trkpt lat="40.756599" lon="-3.92491">
        <ele>1339.21010033099</ele>
        <time>2018-06-30T01:29:31.008Z</time>
      </trkpt>
      <trkpt lat="40.756584" lon="-3.924778">
        <ele>1340</ele>
        <time>2018-06-30T01:29:35.008Z</time>
      </trkpt>
      <trkpt lat="40.756567" lon="-3.92466">
        <ele>1340</ele>
        <time>2018-06-30T01:29:40.008Z</time>
      </trkpt>
      <trkpt lat="40.756524" lon="-3.924528">
        <ele>1338</ele>
        <time>2018-06-30T01:29:48.008Z</time>
      </trkpt>
      <trkpt lat="40.756492" lon="-3.924394">
        <ele>1334</ele>
        <time>2018-06-30T01:29:58.008Z</time>
      </trkpt>
      <trkpt lat="40.756444" lon="-3.924277">
        <ele>1333</ele>
        <time>2018-06-30T01:30:04.008Z</time>
      </trkpt>
      <trkpt lat="40.756393" lon="-3.924141">
        <ele>1331.7377725314</ele>
        <time>2018-06-30T01:30:11.008Z</time>
      </trkpt>
      <trkpt lat="40.756329" lon="-3.924024">
        <ele>1329.80181993786</ele>
        <time>2018-06-30T01:30:16.008Z</time>
      </trkpt>
      <trkpt lat="40.756242" lon="-3.923952">
        <ele>1328.79795723783</ele>
        <time>2018-06-30T01:30:21.008Z</time>
      </trkpt>
      <trkpt lat="40.756197" lon="-3.923852">
        <ele>1327.78989966901</ele>
        <time>2018-06-30T01:30:31.008Z</time>
      </trkpt>
      <trkpt lat="40.756168" lon="-3.923743">
        <ele>1327</ele>
        <time>2018-06-30T01:30:39.008Z</time>
      </trkpt>
      <trkpt lat="40.756171" lon="-3.923601">
        <ele>1325</ele>
        <time>2018-06-30T01:31:09.008Z</time>
      </trkpt>
      <trkpt lat="40.756175" lon="-3.92347">
        <ele>1323</ele>
        <time>2018-06-30T01:31:16.008Z</time>
      </trkpt>
      <trkpt lat="40.756211" lon="-3.923349">
        <ele>1319.78627630605</ele>
        <time>2018-06-30T01:31:26.008Z</time>
      </trkpt>
      <trkpt lat="40.756137" lon="-3.923259">
        <ele>1319</ele>
        <time>2018-06-30T01:31:49.008Z</time>
      </trkpt>
      <trkpt lat="40.756125" lon="-3.923107">
        <ele>1314</ele>
        <time>2018-06-30T01:34:12.008Z</time>
      </trkpt>
      <trkpt lat="40.756113" lon="-3.922946">
        <ele>1314</ele>
        <time>2018-06-30T01:34:16.008Z</time>
      </trkpt>
      <trkpt lat="40.756066" lon="-3.922803">
        <ele>1313.79795723783</ele>
        <time>2018-06-30T01:34:21.008Z</time>
      </trkpt>
      <trkpt lat="40.756009" lon="-3.922693">
        <ele>1313</ele>
        <time>2018-06-30T01:34:25.008Z</time>
      </trkpt>
      <trkpt lat="40.755916" lon="-3.922604">
        <ele>1313</ele>
        <time>2018-06-30T01:34:29.008Z</time>
      </trkpt>
      <trkpt lat="40.755858" lon="-3.922535">
        <ele>1310</ele>
        <time>2018-06-30T01:34:32.008Z</time>
      </trkpt>
      <trkpt lat="40.755807" lon="-3.922458">
        <ele>1310</ele>
        <time>2018-06-30T01:34:35.008Z</time>
      </trkpt>
      <trkpt lat="40.755738" lon="-3.922385">
        <ele>1308</ele>
        <time>2018-06-30T01:34:39.008Z</time>
      </trkpt>
      <trkpt lat="40.755695" lon="-3.922284">
        <ele>1307</ele>
        <time>2018-06-30T01:34:44.008Z</time>
      </trkpt>
      <trkpt lat="40.755644" lon="-3.922211">
        <ele>1305</ele>
        <time>2018-06-30T01:34:47.008Z</time>
      </trkpt>
      <trkpt lat="40.755593" lon="-3.922118">
        <ele>1304.59591447566</ele>
        <time>2018-06-30T01:34:51.008Z</time>
      </trkpt>
      <trkpt lat="40.755551" lon="-3.922039">
        <ele>1303</ele>
        <time>2018-06-30T01:34:54.008Z</time>
      </trkpt>
      <trkpt lat="40.755504" lon="-3.921957">
        <ele>1300</ele>
        <time>2018-06-30T01:34:57.008Z</time>
      </trkpt>
      <trkpt lat="40.755422" lon="-3.921878">
        <ele>1299.57979933802</ele>
        <time>2018-06-30T01:35:01.008Z</time>
      </trkpt>
      <trkpt lat="40.755317" lon="-3.921878">
        <ele>1298</ele>
        <time>2018-06-30T01:35:06.008Z</time>
      </trkpt>
      <trkpt lat="40.755213" lon="-3.921914">
        <ele>1299</ele>
        <time>2018-06-30T01:35:13.008Z</time>
      </trkpt>
      <trkpt lat="40.75511" lon="-3.921909">
        <ele>1298</ele>
        <time>2018-06-30T01:35:23.008Z</time>
      </trkpt>
      <trkpt lat="40.755004" lon="-3.92193">
        <ele>1298.21010033099</ele>
        <time>2018-06-30T01:35:31.008Z</time>
      </trkpt>
      <trkpt lat="40.754892" lon="-3.921954">
        <ele>1299</ele>
        <time>2018-06-30T01:35:36.008Z</time>
      </trkpt>
      <trkpt lat="40.754789" lon="-3.921958">
        <ele>1299</ele>
        <time>2018-06-30T01:35:42.008Z</time>
      </trkpt>
      <trkpt lat="40.754666" lon="-3.921946">
        <ele>1299</ele>
        <time>2018-06-30T01:35:46.008Z</time>
      </trkpt>
      <trkpt lat="40.754567" lon="-3.92193">
        <ele>1299</ele>
        <time>2018-06-30T01:35:50.008Z</time>
      </trkpt>
      <trkpt lat="40.754462" lon="-3.921916">
        <ele>1297</ele>
        <time>2018-06-30T01:35:55.008Z</time>
      </trkpt>
      <trkpt lat="40.754362" lon="-3.921955">
        <ele>1297</ele>
        <time>2018-06-30T01:35:59.008Z</time>
      </trkpt>
      <trkpt lat="40.754262" lon="-3.921961">
        <ele>1296</ele>
        <time>2018-06-30T01:36:04.008Z</time>
      </trkpt>
      <trkpt lat="40.754166" lon="-3.922017">
        <ele>1296</ele>
        <time>2018-06-30T01:36:09.008Z</time>
      </trkpt>
      <trkpt lat="40.754051" lon="-3.921988">
        <ele>1297</ele>
        <time>2018-06-30T01:36:16.008Z</time>
      </trkpt>
      <trkpt lat="40.75395" lon="-3.921948">
        <ele>1297</ele>
        <time>2018-06-30T01:36:21.008Z</time>
      </trkpt>
      <trkpt lat="40.753849" lon="-3.921888">
        <ele>1297</ele>
        <time>2018-06-30T01:36:26.008Z</time>
      </trkpt>
      <trkpt lat="40.753762" lon="-3.92182">
        <ele>1296.78989966901</ele>
        <time>2018-06-30T01:36:31.008Z</time>
      </trkpt>
      <trkpt lat="40.75369" lon="-3.921728">
        <ele>1296</ele>
        <time>2018-06-30T01:36:36.008Z</time>
      </trkpt>
      <trkpt lat="40.75359" lon="-3.921646">
        <ele>1295.8688862657</ele>
        <time>2018-06-30T01:36:41.008Z</time>
      </trkpt>
      <trkpt lat="40.7535" lon="-3.921562">
        <ele>1295</ele>
        <time>2018-06-30T01:36:46.008Z</time>
      </trkpt>
      <trkpt lat="40.753406" lon="-3.921462">
        <ele>1294.59591447566</ele>
        <time>2018-06-30T01:36:51.008Z</time>
      </trkpt>
      <trkpt lat="40.753324" lon="-3.921362">
        <ele>1293</ele>
        <time>2018-06-30T01:36:55.008Z</time>
      </trkpt>
      <trkpt lat="40.753242" lon="-3.921253">
        <ele>1293</ele>
        <time>2018-06-30T01:37:00.008Z</time>
      </trkpt>
      <trkpt lat="40.753214" lon="-3.921119">
        <ele>1291</ele>
        <time>2018-06-30T01:37:08.008Z</time>
      </trkpt>
      <trkpt lat="40.753192" lon="-3.920964">
        <ele>1289</ele>
        <time>2018-06-30T01:37:14.008Z</time>
      </trkpt>
      <trkpt lat="40.753177" lon="-3.920832">
        <ele>1289</ele>
        <time>2018-06-30T01:37:19.008Z</time>
      </trkpt>
      <trkpt lat="40.753149" lon="-3.920687">
        <ele>1286.57255261209</ele>
        <time>2018-06-30T01:37:26.008Z</time>
      </trkpt>
      <trkpt lat="40.75313" lon="-3.920546">
        <ele>1284.78989966901</ele>
        <time>2018-06-30T01:37:31.008Z</time>
      </trkpt>
      <trkpt lat="40.753107" lon="-3.920416">
        <ele>1283.78416090031</ele>
        <time>2018-06-30T01:37:36.008Z</time>
      </trkpt>
      <trkpt lat="40.75307" lon="-3.920257">
        <ele>1282.8688862657</ele>
        <time>2018-06-30T01:37:41.008Z</time>
      </trkpt>
      <trkpt lat="40.753001" lon="-3.920154">
        <ele>1282</ele>
        <time>2018-06-30T01:37:46.008Z</time>
      </trkpt>
      <trkpt lat="40.752925" lon="-3.920046">
        <ele>1281.39387171349</ele>
        <time>2018-06-30T01:37:51.008Z</time>
      </trkpt>
      <trkpt lat="40.752862" lon="-3.91991">
        <ele>1278.57255261209</ele>
        <time>2018-06-30T01:37:56.008Z</time>
      </trkpt>
      <trkpt lat="40.752817" lon="-3.919754">
        <ele>1276.78989966901</ele>
        <time>2018-06-30T01:38:01.008Z</time>
      </trkpt>
      <trkpt lat="40.752756" lon="-3.919638">
        <ele>1276</ele>
        <time>2018-06-30T01:38:05.008Z</time>
      </trkpt>
      <trkpt lat="40.752678" lon="-3.919536">
        <ele>1276</ele>
        <time>2018-06-30T01:38:10.008Z</time>
      </trkpt>
      <trkpt lat="40.752614" lon="-3.919414">
        <ele>1276</ele>
        <time>2018-06-30T01:38:17.008Z</time>
      </trkpt>
      <trkpt lat="40.752604" lon="-3.91927">
        <ele>1274</ele>
        <time>2018-06-30T01:38:24.008Z</time>
      </trkpt>
      <trkpt lat="40.7526" lon="-3.919134">
        <ele>1274</ele>
        <time>2018-06-30T01:38:29.008Z</time>
      </trkpt>
      <trkpt lat="40.752573" lon="-3.919006">
        <ele>1272</ele>
        <time>2018-06-30T01:38:33.008Z</time>
      </trkpt>
      <trkpt lat="40.752551" lon="-3.918876">
        <ele>1271</ele>
        <time>2018-06-30T01:38:38.008Z</time>
      </trkpt>
      <trkpt lat="40.752524" lon="-3.91875">
        <ele>1271</ele>
        <time>2018-06-30T01:38:42.008Z</time>
      </trkpt>
      <trkpt lat="40.752512" lon="-3.918598">
        <ele>1271</ele>
        <time>2018-06-30T01:38:46.008Z</time>
      </trkpt>
      <trkpt lat="40.752474" lon="-3.918468">
        <ele>1269</ele>
        <time>2018-06-30T01:38:52.008Z</time>
      </trkpt>
      <trkpt lat="40.752444" lon="-3.91833">
        <ele>1269</ele>
        <time>2018-06-30T01:38:58.008Z</time>
      </trkpt>
      <trkpt lat="40.75246" lon="-3.918199">
        <ele>1268</ele>
        <time>2018-06-30T01:39:08.008Z</time>
      </trkpt>
      <trkpt lat="40.752503" lon="-3.918053">
        <ele>1268</ele>
        <time>2018-06-30T01:39:15.008Z</time>
      </trkpt>
      <trkpt lat="40.752542" lon="-3.917926">
        <ele>1268</ele>
        <time>2018-06-30T01:39:21.008Z</time>
      </trkpt>
      <trkpt lat="40.752608" lon="-3.917805">
        <ele>1268</ele>
        <time>2018-06-30T01:39:27.008Z</time>
      </trkpt>
      <trkpt lat="40.752663" lon="-3.917678">
        <ele>1269</ele>
        <time>2018-06-30T01:39:34.008Z</time>
      </trkpt>
      <trkpt lat="40.7527" lon="-3.917556">
        <ele>1268</ele>
        <time>2018-06-30T01:39:38.008Z</time>
      </trkpt>
      <trkpt lat="40.752735" lon="-3.917407">
        <ele>1268</ele>
        <time>2018-06-30T01:39:42.008Z</time>
      </trkpt>
      <trkpt lat="40.752762" lon="-3.917281">
        <ele>1268</ele>
        <time>2018-06-30T01:39:46.008Z</time>
      </trkpt>
      <trkpt lat="40.752775" lon="-3.917143">
        <ele>1268</ele>
        <time>2018-06-30T01:39:50.008Z</time>
      </trkpt>
      <trkpt lat="40.752782" lon="-3.916985">
        <ele>1267</ele>
        <time>2018-06-30T01:39:55.008Z</time>
      </trkpt>
      <trkpt lat="40.752799" lon="-3.916842">
        <ele>1266.57979933802</ele>
        <time>2018-06-30T01:40:01.008Z</time>
      </trkpt>
      <trkpt lat="40.752796" lon="-3.916721">
        <ele>1265</ele>
        <time>2018-06-30T01:40:10.008Z</time>
      </trkpt>
      <trkpt lat="40.752765" lon="-3.916591">
        <ele>1263.79795723783</ele>
        <time>2018-06-30T01:40:21.008Z</time>
      </trkpt>
      <trkpt lat="40.752691" lon="-3.916471">
        <ele>1263</ele>
        <time>2018-06-30T01:40:28.008Z</time>
      </trkpt>
      <trkpt lat="40.752629" lon="-3.916336">
        <ele>1260</ele>
        <time>2018-06-30T01:40:33.008Z</time>
      </trkpt>
      <trkpt lat="40.752562" lon="-3.916219">
        <ele>1258</ele>
        <time>2018-06-30T01:40:37.008Z</time>
      </trkpt>
      <trkpt lat="40.752477" lon="-3.91611">
        <ele>1257.8688862657</ele>
        <time>2018-06-30T01:40:41.008Z</time>
      </trkpt>
      <trkpt lat="40.752403" lon="-3.915992">
        <ele>1257</ele>
        <time>2018-06-30T01:40:45.008Z</time>
      </trkpt>
      <trkpt lat="40.752397" lon="-3.915852">
        <ele>1255</ele>
        <time>2018-06-30T01:40:49.008Z</time>
      </trkpt>
      <trkpt lat="40.752352" lon="-3.915715">
        <ele>1253</ele>
        <time>2018-06-30T01:40:54.008Z</time>
      </trkpt>
      <trkpt lat="40.752315" lon="-3.915569">
        <ele>1252</ele>
        <time>2018-06-30T01:40:59.008Z</time>
      </trkpt>
      <trkpt lat="40.752279" lon="-3.915416">
        <ele>1250</ele>
        <time>2018-06-30T01:41:03.008Z</time>
      </trkpt>
      <trkpt lat="40.752262" lon="-3.91528">
        <ele>1250</ele>
        <time>2018-06-30T01:41:07.008Z</time>
      </trkpt>
      <trkpt lat="40.752205" lon="-3.91515">
        <ele>1250</ele>
        <time>2018-06-30T01:41:10.008Z</time>
      </trkpt>
      <trkpt lat="40.752177" lon="-3.915022">
        <ele>1250</ele>
        <time>2018-06-30T01:41:14.008Z</time>
      </trkpt>
      <trkpt lat="40.752151" lon="-3.914864">
        <ele>1250</ele>
        <time>2018-06-30T01:41:19.008Z</time>
      </trkpt>
      <trkpt lat="40.752121" lon="-3.914732">
        <ele>1248</ele>
        <time>2018-06-30T01:41:26.008Z</time>
      </trkpt>
      <trkpt lat="40.752108" lon="-3.914578">
        <ele>1246.94949834506</ele>
        <time>2018-06-30T01:41:31.008Z</time>
      </trkpt>
      <trkpt lat="40.752083" lon="-3.91442">
        <ele>1243</ele>
        <time>2018-06-30T01:41:35.008Z</time>
      </trkpt>
      <trkpt lat="40.752025" lon="-3.914286">
        <ele>1241</ele>
        <time>2018-06-30T01:41:40.008Z</time>
      </trkpt>
      <trkpt lat="40.752" lon="-3.914142">
        <ele>1240</ele>
        <time>2018-06-30T01:41:45.008Z</time>
      </trkpt>
      <trkpt lat="40.751977" lon="-3.914005">
        <ele>1239</ele>
        <time>2018-06-30T01:41:49.008Z</time>
      </trkpt>
      <trkpt lat="40.751921" lon="-3.91391">
        <ele>1239</ele>
        <time>2018-06-30T01:41:53.008Z</time>
      </trkpt>
      <trkpt lat="40.751888" lon="-3.913826">
        <ele>1239</ele>
        <time>2018-06-30T01:41:56.008Z</time>
      </trkpt>
      <trkpt lat="40.751866" lon="-3.91368">
        <ele>1236</ele>
        <time>2018-06-30T01:42:02.008Z</time>
      </trkpt>
      <trkpt lat="40.751845" lon="-3.913562">
        <ele>1236</ele>
        <time>2018-06-30T01:42:06.008Z</time>
      </trkpt>
      <trkpt lat="40.75184" lon="-3.913428">
        <ele>1235.7377725314</ele>
        <time>2018-06-30T01:42:11.008Z</time>
      </trkpt>
      <trkpt lat="40.751839" lon="-3.913295">
        <ele>1233.80181993786</ele>
        <time>2018-06-30T01:42:16.008Z</time>
      </trkpt>
      <trkpt lat="40.751819" lon="-3.913159">
        <ele>1232.79795723783</ele>
        <time>2018-06-30T01:42:21.008Z</time>
      </trkpt>
      <trkpt lat="40.751787" lon="-3.913063">
        <ele>1232</ele>
        <time>2018-06-30T01:42:24.008Z</time>
      </trkpt>
      <trkpt lat="40.751743" lon="-3.912939">
        <ele>1232</ele>
        <time>2018-06-30T01:42:28.008Z</time>
      </trkpt>
      <trkpt lat="40.751715" lon="-3.912803">
        <ele>1229</ele>
        <time>2018-06-30T01:42:32.008Z</time>
      </trkpt>
      <trkpt lat="40.751674" lon="-3.91267">
        <ele>1228.78416090031</ele>
        <time>2018-06-30T01:42:36.008Z</time>
      </trkpt>
      <trkpt lat="40.751646" lon="-3.912533">
        <ele>1228</ele>
        <time>2018-06-30T01:42:42.008Z</time>
      </trkpt>
      <trkpt lat="40.751631" lon="-3.912384">
        <ele>1228</ele>
        <time>2018-06-30T01:42:48.008Z</time>
      </trkpt>
      <trkpt lat="40.75162" lon="-3.912242">
        <ele>1225</ele>
        <time>2018-06-30T01:42:53.008Z</time>
      </trkpt>
      <trkpt lat="40.751592" lon="-3.912135">
        <ele>1224</ele>
        <time>2018-06-30T01:42:58.008Z</time>
      </trkpt>
      <trkpt lat="40.75158" lon="-3.91206">
        <ele>1223.36969900703</ele>
        <time>2018-06-30T01:43:01.008Z</time>
      </trkpt>
      <trkpt lat="40.751566" lon="-3.911915">
        <ele>1220.78416090031</ele>
        <time>2018-06-30T01:43:06.008Z</time>
      </trkpt>
      <trkpt lat="40.751519" lon="-3.911795">
        <ele>1219.8688862657</ele>
        <time>2018-06-30T01:43:11.008Z</time>
      </trkpt>
      <trkpt lat="40.751473" lon="-3.911671">
        <ele>1219</ele>
        <time>2018-06-30T01:43:15.008Z</time>
      </trkpt>
      <trkpt lat="40.751432" lon="-3.911525">
        <ele>1219</ele>
        <time>2018-06-30T01:43:20.008Z</time>
      </trkpt>
      <trkpt lat="40.751421" lon="-3.911395">
        <ele>1217</ele>
        <time>2018-06-30T01:43:24.008Z</time>
      </trkpt>
      <trkpt lat="40.751358" lon="-3.911235">
        <ele>1217</ele>
        <time>2018-06-30T01:43:29.008Z</time>
      </trkpt>
      <trkpt lat="40.751335" lon="-3.911078">
        <ele>1216</ele>
        <time>2018-06-30T01:43:34.008Z</time>
      </trkpt>
      <trkpt lat="40.751293" lon="-3.91093">
        <ele>1216</ele>
        <time>2018-06-30T01:43:39.008Z</time>
      </trkpt>
      <trkpt lat="40.751259" lon="-3.910784">
        <ele>1215</ele>
        <time>2018-06-30T01:43:44.008Z</time>
      </trkpt>
      <trkpt lat="40.751247" lon="-3.91063">
        <ele>1215</ele>
        <time>2018-06-30T01:43:50.008Z</time>
      </trkpt>
      <trkpt lat="40.751252" lon="-3.910496">
        <ele>1211</ele>
        <time>2018-06-30T01:43:54.008Z</time>
      </trkpt>
      <trkpt lat="40.751246" lon="-3.910343">
        <ele>1208</ele>
        <time>2018-06-30T01:43:59.008Z</time>
      </trkpt>
      <trkpt lat="40.751218" lon="-3.910194">
        <ele>1206</ele>
        <time>2018-06-30T01:44:04.008Z</time>
      </trkpt>
      <trkpt lat="40.751195" lon="-3.910038">
        <ele>1206</ele>
        <time>2018-06-30T01:44:09.008Z</time>
      </trkpt>
      <trkpt lat="40.751166" lon="-3.909902">
        <ele>1204</ele>
        <time>2018-06-30T01:44:13.008Z</time>
      </trkpt>
      <trkpt lat="40.751142" lon="-3.909774">
        <ele>1204</ele>
        <time>2018-06-30T01:44:17.008Z</time>
      </trkpt>
      <trkpt lat="40.751136" lon="-3.909621">
        <ele>1201</ele>
        <time>2018-06-30T01:44:22.008Z</time>
      </trkpt>
      <trkpt lat="40.751119" lon="-3.909484">
        <ele>1199</ele>
        <time>2018-06-30T01:44:28.008Z</time>
      </trkpt>
      <trkpt lat="40.751099" lon="-3.909325">
        <ele>1197</ele>
        <time>2018-06-30T01:44:33.008Z</time>
      </trkpt>
      <trkpt lat="40.751065" lon="-3.909178">
        <ele>1196</ele>
        <time>2018-06-30T01:44:37.008Z</time>
      </trkpt>
      <trkpt lat="40.75104" lon="-3.909044">
        <ele>1195</ele>
        <time>2018-06-30T01:44:42.008Z</time>
      </trkpt>
      <trkpt lat="40.751016" lon="-3.908916">
        <ele>1195</ele>
        <time>2018-06-30T01:44:47.008Z</time>
      </trkpt>
      <trkpt lat="40.750978" lon="-3.908776">
        <ele>1193</ele>
        <time>2018-06-30T01:44:53.008Z</time>
      </trkpt>
      <trkpt lat="40.750952" lon="-3.908616">
        <ele>1193</ele>
        <time>2018-06-30T01:44:58.008Z</time>
      </trkpt>
      <trkpt lat="40.750921" lon="-3.908453">
        <ele>1191</ele>
        <time>2018-06-30T01:45:02.008Z</time>
      </trkpt>
      <trkpt lat="40.750892" lon="-3.908304">
        <ele>1191</ele>
        <time>2018-06-30T01:45:07.008Z</time>
      </trkpt>
      <trkpt lat="40.750882" lon="-3.908152">
        <ele>1191</ele>
        <time>2018-06-30T01:45:13.008Z</time>
      </trkpt>
      <trkpt lat="40.750895" lon="-3.908018">
        <ele>1191</ele>
        <time>2018-06-30T01:45:18.008Z</time>
      </trkpt>
      <trkpt lat="40.750912" lon="-3.907886">
        <ele>1189</ele>
        <time>2018-06-30T01:45:23.008Z</time>
      </trkpt>
      <trkpt lat="40.750933" lon="-3.907756">
        <ele>1189</ele>
        <time>2018-06-30T01:45:28.008Z</time>
      </trkpt>
      <trkpt lat="40.750866" lon="-3.907624">
        <ele>1187</ele>
        <time>2018-06-30T01:45:35.008Z</time>
      </trkpt>
      <trkpt lat="40.750843" lon="-3.907487">
        <ele>1187</ele>
        <time>2018-06-30T01:45:40.008Z</time>
      </trkpt>
      <trkpt lat="40.750813" lon="-3.907345">
        <ele>1185</ele>
        <time>2018-06-30T01:45:45.008Z</time>
      </trkpt>
      <trkpt lat="40.750777" lon="-3.90721">
        <ele>1184.79795723783</ele>
        <time>2018-06-30T01:45:51.008Z</time>
      </trkpt>
      <trkpt lat="40.750729" lon="-3.90709">
        <ele>1184</ele>
        <time>2018-06-30T01:45:57.008Z</time>
      </trkpt>
      <trkpt lat="40.75072" lon="-3.906954">
        <ele>1181</ele>
        <time>2018-06-30T01:46:03.008Z</time>
      </trkpt>
      <trkpt lat="40.750747" lon="-3.906814">
        <ele>1180</ele>
        <time>2018-06-30T01:46:10.008Z</time>
      </trkpt>
      <trkpt lat="40.750758" lon="-3.906674">
        <ele>1178.60363987572</ele>
        <time>2018-06-30T01:46:16.008Z</time>
      </trkpt>
      <trkpt lat="40.750738" lon="-3.906543">
        <ele>1176</ele>
        <time>2018-06-30T01:46:22.008Z</time>
      </trkpt>
      <trkpt lat="40.750727" lon="-3.906407">
        <ele>1173</ele>
        <time>2018-06-30T01:46:28.008Z</time>
      </trkpt>
      <trkpt lat="40.750671" lon="-3.906291">
        <ele>1172</ele>
        <time>2018-06-30T01:46:34.008Z</time>
      </trkpt>
      <trkpt lat="40.750632" lon="-3.906166">
        <ele>1170.7377725314</ele>
        <time>2018-06-30T01:46:41.008Z</time>
      </trkpt>
      <trkpt lat="40.750597" lon="-3.906039">
        <ele>1168.60720957587</ele>
        <time>2018-06-30T01:46:46.008Z</time>
      </trkpt>
      <trkpt lat="40.750584" lon="-3.905899">
        <ele>1165</ele>
        <time>2018-06-30T01:46:52.008Z</time>
      </trkpt>
      <trkpt lat="40.750555" lon="-3.905773">
        <ele>1164</ele>
        <time>2018-06-30T01:46:57.008Z</time>
      </trkpt>
      <trkpt lat="40.750526" lon="-3.905644">
        <ele>1161</ele>
        <time>2018-06-30T01:47:04.008Z</time>
      </trkpt>
      <trkpt lat="40.750499" lon="-3.905503">
        <ele>1158</ele>
        <time>2018-06-30T01:47:12.008Z</time>
      </trkpt>
      <trkpt lat="40.750458" lon="-3.905376">
        <ele>1156</ele>
        <time>2018-06-30T01:47:20.008Z</time>
      </trkpt>
      <trkpt lat="40.750362" lon="-3.905276">
        <ele>1154.78627630605</ele>
        <time>2018-06-30T01:47:26.008Z</time>
      </trkpt>
      <trkpt lat="40.750328" lon="-3.905142">
        <ele>1153</ele>
        <time>2018-06-30T01:47:32.008Z</time>
      </trkpt>
      <trkpt lat="40.750296" lon="-3.905008">
        <ele>1153</ele>
        <time>2018-06-30T01:47:38.008Z</time>
      </trkpt>
      <trkpt lat="40.750256" lon="-3.904876">
        <ele>1151</ele>
        <time>2018-06-30T01:47:44.008Z</time>
      </trkpt>
      <trkpt lat="40.75022" lon="-3.904748">
        <ele>1151</ele>
        <time>2018-06-30T01:47:50.008Z</time>
      </trkpt>
      <trkpt lat="40.750167" lon="-3.904634">
        <ele>1149</ele>
        <time>2018-06-30T01:47:56.008Z</time>
      </trkpt>
      <trkpt lat="40.750159" lon="-3.904488">
        <ele>1147</ele>
        <time>2018-06-30T01:48:02.008Z</time>
      </trkpt>
      <trkpt lat="40.750149" lon="-3.904345">
        <ele>1147</ele>
        <time>2018-06-30T01:48:08.008Z</time>
      </trkpt>
      <trkpt lat="40.750129" lon="-3.904208">
        <ele>1146</ele>
        <time>2018-06-30T01:48:14.008Z</time>
      </trkpt>
      <trkpt lat="40.750066" lon="-3.904072">
        <ele>1146</ele>
        <time>2018-06-30T01:48:19.008Z</time>
      </trkpt>
      <trkpt lat="40.750029" lon="-3.903942">
        <ele>1143</ele>
        <time>2018-06-30T01:48:24.008Z</time>
      </trkpt>
      <trkpt lat="40.74999" lon="-3.903818">
        <ele>1142</ele>
        <time>2018-06-30T01:48:29.008Z</time>
      </trkpt>
      <trkpt lat="40.749929" lon="-3.903711">
        <ele>1142</ele>
        <time>2018-06-30T01:48:33.008Z</time>
      </trkpt>
      <trkpt lat="40.749894" lon="-3.903581">
        <ele>1142</ele>
        <time>2018-06-30T01:48:38.008Z</time>
      </trkpt>
      <trkpt lat="40.749878" lon="-3.903439">
        <ele>1140</ele>
        <time>2018-06-30T01:48:44.008Z</time>
      </trkpt>
      <trkpt lat="40.749857" lon="-3.90331">
        <ele>1140</ele>
        <time>2018-06-30T01:48:48.008Z</time>
      </trkpt>
      <trkpt lat="40.749854" lon="-3.903167">
        <ele>1139</ele>
        <time>2018-06-30T01:48:52.008Z</time>
      </trkpt>
      <trkpt lat="40.749849" lon="-3.903024">
        <ele>1139</ele>
        <time>2018-06-30T01:48:56.008Z</time>
      </trkpt>
      <trkpt lat="40.749814" lon="-3.90289">
        <ele>1139</ele>
        <time>2018-06-30T01:49:00.008Z</time>
      </trkpt>
      <trkpt lat="40.749808" lon="-3.902744">
        <ele>1138</ele>
        <time>2018-06-30T01:49:06.008Z</time>
      </trkpt>
      <trkpt lat="40.749801" lon="-3.90259">
        <ele>1138</ele>
        <time>2018-06-30T01:49:12.008Z</time>
      </trkpt>
      <trkpt lat="40.749784" lon="-3.902446">
        <ele>1138</ele>
        <time>2018-06-30T01:49:17.008Z</time>
      </trkpt>
      <trkpt lat="40.749763" lon="-3.902298">
        <ele>1135</ele>
        <time>2018-06-30T01:49:24.008Z</time>
      </trkpt>
      <trkpt lat="40.749763" lon="-3.902158">
        <ele>1134</ele>
        <time>2018-06-30T01:49:29.008Z</time>
      </trkpt>
      <trkpt lat="40.749787" lon="-3.902019">
        <ele>1134</ele>
        <time>2018-06-30T01:49:35.008Z</time>
      </trkpt>
      <trkpt lat="40.749785" lon="-3.901884">
        <ele>1133.60665879709</ele>
        <time>2018-06-30T01:49:41.008Z</time>
      </trkpt>
      <trkpt lat="40.749795" lon="-3.901748">
        <ele>1130</ele>
        <time>2018-06-30T01:49:48.008Z</time>
      </trkpt>
      <trkpt lat="40.749784" lon="-3.901596">
        <ele>1128</ele>
        <time>2018-06-30T01:49:54.008Z</time>
      </trkpt>
      <trkpt lat="40.749741" lon="-3.901446">
        <ele>1127</ele>
        <time>2018-06-30T01:49:59.008Z</time>
      </trkpt>
      <trkpt lat="40.749744" lon="-3.901304">
        <ele>1126</ele>
        <time>2018-06-30T01:50:05.008Z</time>
      </trkpt>
      <trkpt lat="40.74971" lon="-3.901177">
        <ele>1124</ele>
        <time>2018-06-30T01:50:14.008Z</time>
      </trkpt>
      <trkpt lat="40.749721" lon="-3.901037">
        <ele>1123</ele>
        <time>2018-06-30T01:50:22.008Z</time>
      </trkpt>
      <trkpt lat="40.749752" lon="-3.900908">
        <ele>1122.36969900703</ele>
        <time>2018-06-30T01:50:31.008Z</time>
      </trkpt>
      <trkpt lat="40.74978" lon="-3.900776">
        <ele>1117</ele>
        <time>2018-06-30T01:50:38.008Z</time>
      </trkpt>
      <trkpt lat="40.749782" lon="-3.900637">
        <ele>1116</ele>
        <time>2018-06-30T01:50:42.008Z</time>
      </trkpt>
      <trkpt lat="40.74979" lon="-3.900505">
        <ele>1116</ele>
        <time>2018-06-30T01:50:50.008Z</time>
      </trkpt>
      <trkpt lat="40.749789" lon="-3.900359">
        <ele>1115</ele>
        <time>2018-06-30T01:50:59.008Z</time>
      </trkpt>
      <trkpt lat="40.749808" lon="-3.900224">
        <ele>1111</ele>
        <time>2018-06-30T01:51:07.008Z</time>
      </trkpt>
      <trkpt lat="40.749796" lon="-3.900088">
        <ele>1110</ele>
        <time>2018-06-30T01:51:15.008Z</time>
      </trkpt>
      <trkpt lat="40.749792" lon="-3.89995">
        <ele>1107</ele>
        <time>2018-06-30T01:51:23.008Z</time>
      </trkpt>
      <trkpt lat="40.749804" lon="-3.899807">
        <ele>1105</ele>
        <time>2018-06-30T01:51:30.008Z</time>
      </trkpt>
      <trkpt lat="40.749782" lon="-3.899675">
        <ele>1102.78416090031</ele>
        <time>2018-06-30T01:51:36.008Z</time>
      </trkpt>
      <trkpt lat="40.749784" lon="-3.899525">
        <ele>1102</ele>
        <time>2018-06-30T01:51:43.008Z</time>
      </trkpt>
      <trkpt lat="40.749774" lon="-3.899369">
        <ele>1102</ele>
        <time>2018-06-30T01:51:49.008Z</time>
      </trkpt>
      <trkpt lat="40.749778" lon="-3.899237">
        <ele>1100</ele>
        <time>2018-06-30T01:51:57.008Z</time>
      </trkpt>
      <trkpt lat="40.749784" lon="-3.899093">
        <ele>1095</ele>
        <time>2018-06-30T01:52:03.008Z</time>
      </trkpt>
      <trkpt lat="40.749773" lon="-3.89896">
        <ele>1095</ele>
        <time>2018-06-30T01:52:08.008Z</time>
      </trkpt>
      <trkpt lat="40.749755" lon="-3.898803">
        <ele>1095</ele>
        <time>2018-06-30T01:52:13.008Z</time>
      </trkpt>
      <trkpt lat="40.749764" lon="-3.898656">
        <ele>1095</ele>
        <time>2018-06-30T01:52:18.008Z</time>
      </trkpt>
      <trkpt lat="40.749753" lon="-3.898519">
        <ele>1092</ele>
        <time>2018-06-30T01:52:23.008Z</time>
      </trkpt>
      <trkpt lat="40.749749" lon="-3.898386">
        <ele>1089</ele>
        <time>2018-06-30T01:52:27.008Z</time>
      </trkpt>
      <trkpt lat="40.749736" lon="-3.898255">
        <ele>1088</ele>
        <time>2018-06-30T01:52:32.008Z</time>
      </trkpt>
      <trkpt lat="40.749733" lon="-3.898108">
        <ele>1087</ele>
        <time>2018-06-30T01:52:37.008Z</time>
      </trkpt>
      <trkpt lat="40.749709" lon="-3.89798">
        <ele>1086.87864580337</ele>
        <time>2018-06-30T01:52:41.008Z</time>
      </trkpt>
      <trkpt lat="40.749697" lon="-3.897861">
        <ele>1086</ele>
        <time>2018-06-30T01:52:46.008Z</time>
      </trkpt>
      <trkpt lat="40.749708" lon="-3.897741">
        <ele>1085.59591447566</ele>
        <time>2018-06-30T01:52:51.008Z</time>
      </trkpt>
      <trkpt lat="40.74973" lon="-3.897591">
        <ele>1084</ele>
        <time>2018-06-30T01:52:57.008Z</time>
      </trkpt>
      <trkpt lat="40.749708" lon="-3.897473">
        <ele>1083.36969900703</ele>
        <time>2018-06-30T01:53:01.008Z</time>
      </trkpt>
      <trkpt lat="40.749659" lon="-3.897361">
        <ele>1081</ele>
        <time>2018-06-30T01:53:05.008Z</time>
      </trkpt>
      <trkpt lat="40.749628" lon="-3.897225">
        <ele>1080</ele>
        <time>2018-06-30T01:53:10.008Z</time>
      </trkpt>
      <trkpt lat="40.749594" lon="-3.897116">
        <ele>1080</ele>
        <time>2018-06-30T01:53:14.008Z</time>
      </trkpt>
      <trkpt lat="40.749558" lon="-3.896996">
        <ele>1080</ele>
        <time>2018-06-30T01:53:18.008Z</time>
      </trkpt>
      <trkpt lat="40.749525" lon="-3.896884">
        <ele>1079</ele>
        <time>2018-06-30T01:53:22.008Z</time>
      </trkpt>
      <trkpt lat="40.749538" lon="-3.896777">
        <ele>1079</ele>
        <time>2018-06-30T01:53:28.008Z</time>
      </trkpt>
      <trkpt lat="40.749535" lon="-3.896678">
        <ele>1077</ele>
        <time>2018-06-30T01:53:34.008Z</time>
      </trkpt>
      <trkpt lat="40.749549" lon="-3.896585">
        <ele>1075</ele>
        <time>2018-06-30T01:53:42.008Z</time>
      </trkpt>
      <trkpt lat="40.749526" lon="-3.896519">
        <ele>1074</ele>
        <time>2018-06-30T01:54:20.008Z</time>
      </trkpt>
      <trkpt lat="40.749501" lon="-3.896391">
        <ele>1066</ele>
        <time>2018-06-30T01:57:35.008Z</time>
      </trkpt>
      <trkpt lat="40.749486" lon="-3.896296">
        <ele>1064.79795723783</ele>
        <time>2018-06-30T01:57:51.008Z</time>
      </trkpt>
      <trkpt lat="40.749469" lon="-3.896182">
        <ele>1063.78989966901</ele>
        <time>2018-06-30T01:58:01.008Z</time>
      </trkpt>
      <trkpt lat="40.74947" lon="-3.896074">
        <ele>1063</ele>
        <time>2018-06-30T01:58:08.008Z</time>
      </trkpt>
      <trkpt lat="40.749492" lon="-3.895954">
        <ele>1063</ele>
        <time>2018-06-30T01:58:15.008Z</time>
      </trkpt>
      <trkpt lat="40.749509" lon="-3.895826">
        <ele>1062</ele>
        <time>2018-06-30T01:58:24.008Z</time>
      </trkpt>
      <trkpt lat="40.749556" lon="-3.895736">
        <ele>1061</ele>
        <time>2018-06-30T01:58:32.008Z</time>
      </trkpt>
      <trkpt lat="40.74957" lon="-3.895652">
        <ele>1059</ele>
        <time>2018-06-30T01:58:58.008Z</time>
      </trkpt>
      <trkpt lat="40.749617" lon="-3.895599">
        <ele>1058</ele>
        <time>2018-06-30T01:59:05.008Z</time>
      </trkpt>
      <trkpt lat="40.749664" lon="-3.895554">
        <ele>1057</ele>
        <time>2018-06-30T01:59:13.008Z</time>
      </trkpt>
      <trkpt lat="40.749707" lon="-3.89552">
        <ele>1057</ele>
        <time>2018-06-30T01:59:17.008Z</time>
      </trkpt>
      <trkpt lat="40.749753" lon="-3.895476">
        <ele>1056</ele>
        <time>2018-06-30T01:59:22.008Z</time>
      </trkpt>
      <trkpt lat="40.749797" lon="-3.895446">
        <ele>1056</ele>
        <time>2018-06-30T01:59:26.008Z</time>
      </trkpt>
      <trkpt lat="40.749845" lon="-3.895415">
        <ele>1055</ele>
        <time>2018-06-30T01:59:30.008Z</time>
      </trkpt>
      <trkpt lat="40.749907" lon="-3.895378">
        <ele>1053</ele>
        <time>2018-06-30T01:59:35.008Z</time>
      </trkpt>
      <trkpt lat="40.749958" lon="-3.895335">
        <ele>1053</ele>
        <time>2018-06-30T01:59:39.008Z</time>
      </trkpt>
      <trkpt lat="40.749997" lon="-3.895274">
        <ele>1051</ele>
        <time>2018-06-30T01:59:43.008Z</time>
      </trkpt>
      <trkpt lat="40.750028" lon="-3.895183">
        <ele>1051</ele>
        <time>2018-06-30T01:59:48.008Z</time>
      </trkpt>
      <trkpt lat="40.75005" lon="-3.895091">
        <ele>1049</ele>
        <time>2018-06-30T01:59:53.008Z</time>
      </trkpt>
      <trkpt lat="40.750069" lon="-3.89498">
        <ele>1049</ele>
        <time>2018-06-30T02:00:00.008Z</time>
      </trkpt>
      <trkpt lat="40.750088" lon="-3.894848">
        <ele>1046</ele>
        <time>2018-06-30T02:00:08.008Z</time>
      </trkpt>
      <trkpt lat="40.750096" lon="-3.894718">
        <ele>1045</ele>
        <time>2018-06-30T02:00:16.008Z</time>
      </trkpt>
      <trkpt lat="40.75008" lon="-3.894606">
        <ele>1046</ele>
        <time>2018-06-30T02:00:46.008Z</time>
      </trkpt>
      <trkpt lat="40.75006" lon="-3.8945">
        <ele>1046</ele>
        <time>2018-06-30T02:00:51.008Z</time>
      </trkpt>
      <trkpt lat="40.750101" lon="-3.894388">
        <ele>1045</ele>
        <time>2018-06-30T02:01:00.008Z</time>
      </trkpt>
      <trkpt lat="40.750157" lon="-3.894328">
        <ele>1043</ele>
        <time>2018-06-30T02:01:06.008Z</time>
      </trkpt>
      <trkpt lat="40.75024" lon="-3.894246">
        <ele>1043</ele>
        <time>2018-06-30T02:01:18.008Z</time>
      </trkpt>
      <trkpt lat="40.750214" lon="-3.894115">
        <ele>1044</ele>
        <time>2018-06-30T02:01:27.008Z</time>
      </trkpt>
      <trkpt lat="40.750137" lon="-3.894016">
        <ele>1044</ele>
        <time>2018-06-30T02:01:38.008Z</time>
      </trkpt>
      <trkpt lat="40.750055" lon="-3.89393">
        <ele>1045</ele>
        <time>2018-06-30T02:01:48.008Z</time>
      </trkpt>
      <trkpt lat="40.749971" lon="-3.893845">
        <ele>1046</ele>
        <time>2018-06-30T02:01:58.008Z</time>
      </trkpt>
      <trkpt lat="40.749897" lon="-3.893747">
        <ele>1046</ele>
        <time>2018-06-30T02:02:06.008Z</time>
      </trkpt>
      <trkpt lat="40.749806" lon="-3.893681">
        <ele>1046</ele>
        <time>2018-06-30T02:02:13.008Z</time>
      </trkpt>
      <trkpt lat="40.749703" lon="-3.893622">
        <ele>1046</ele>
        <time>2018-06-30T02:02:20.008Z</time>
      </trkpt>
      <trkpt lat="40.749604" lon="-3.893544">
        <ele>1045</ele>
        <time>2018-06-30T02:02:28.008Z</time>
      </trkpt>
      <trkpt lat="40.749513" lon="-3.893485">
        <ele>1045</ele>
        <time>2018-06-30T02:02:35.008Z</time>
      </trkpt>
      <trkpt lat="40.749411" lon="-3.893437">
        <ele>1043.78989966901</ele>
        <time>2018-06-30T02:02:43.008Z</time>
      </trkpt>
      <trkpt lat="40.749346" lon="-3.893406">
        <ele>1042</ele>
        <time>2018-06-30T02:02:52.008Z</time>
      </trkpt>
      <trkpt lat="40.749281" lon="-3.893333">
        <ele>1042</ele>
        <time>2018-06-30T02:03:00.008Z</time>
      </trkpt>
      <trkpt lat="40.749288" lon="-3.893207">
        <ele>1040</ele>
        <time>2018-06-30T02:03:10.008Z</time>
      </trkpt>
      <trkpt lat="40.749322" lon="-3.893093">
        <ele>1040</ele>
        <time>2018-06-30T02:03:18.008Z</time>
      </trkpt>
      <trkpt lat="40.74932" lon="-3.892982">
        <ele>1040</ele>
        <time>2018-06-30T02:03:29.008Z</time>
      </trkpt>
      <trkpt lat="40.74927" lon="-3.892912">
        <ele>1045.19818006214</ele>
        <time>2018-06-30T02:03:46.008Z</time>
      </trkpt>
      <trkpt lat="40.749214" lon="-3.89284">
        <ele>1047</ele>
        <time>2018-06-30T02:03:58.008Z</time>
      </trkpt>
      <trkpt lat="40.749172" lon="-3.892768">
        <ele>1051</ele>
        <time>2018-06-30T02:04:16.008Z</time>
      </trkpt>
      <trkpt lat="40.749113" lon="-3.892697">
        <ele>1055</ele>
        <time>2018-06-30T02:04:32.008Z</time>
      </trkpt>
      <trkpt lat="40.749023" lon="-3.892644">
        <ele>1059</ele>
        <time>2018-06-30T02:04:47.008Z</time>
      </trkpt>
      <trkpt lat="40.74905" lon="-3.892511">
        <ele>1062</ele>
        <time>2018-06-30T02:05:13.008Z</time>
      </trkpt>
      <trkpt lat="40.749003" lon="-3.892393">
        <ele>1066</ele>
        <time>2018-06-30T02:05:38.008Z</time>
      </trkpt>
      <trkpt lat="40.749051" lon="-3.892272">
        <ele>1069</ele>
        <time>2018-06-30T02:05:59.008Z</time>
      </trkpt>
      <trkpt lat="40.74908" lon="-3.892142">
        <ele>1074</ele>
        <time>2018-06-30T02:06:16.008Z</time>
      </trkpt>
      <trkpt lat="40.749124" lon="-3.892023">
        <ele>1076</ele>
        <time>2018-06-30T02:06:36.008Z</time>
      </trkpt>
      <trkpt lat="40.749164" lon="-3.891902">
        <ele>1081</ele>
        <time>2018-06-30T02:06:52.008Z</time>
      </trkpt>
      <trkpt lat="40.749147" lon="-3.891767">
        <ele>1083</ele>
        <time>2018-06-30T02:07:10.008Z</time>
      </trkpt>
      <trkpt lat="40.749049" lon="-3.891717">
        <ele>1085</ele>
        <time>2018-06-30T02:07:29.008Z</time>
      </trkpt>
      <trkpt lat="40.749064" lon="-3.891583">
        <ele>1090</ele>
        <time>2018-06-30T02:07:47.008Z</time>
      </trkpt>
      <trkpt lat="40.74898" lon="-3.891511">
        <ele>1096</ele>
        <time>2018-06-30T02:08:13.008Z</time>
      </trkpt>
      <trkpt lat="40.748949" lon="-3.891381">
        <ele>1099</ele>
        <time>2018-06-30T02:08:34.008Z</time>
      </trkpt>
      <trkpt lat="40.748922" lon="-3.891254">
        <ele>1103</ele>
        <time>2018-06-30T02:08:54.008Z</time>
      </trkpt>
      <trkpt lat="40.748932" lon="-3.891122">
        <ele>1107</ele>
        <time>2018-06-30T02:09:19.008Z</time>
      </trkpt>
      <trkpt lat="40.748967" lon="-3.890995">
        <ele>1110</ele>
        <time>2018-06-30T02:09:37.008Z</time>
      </trkpt>
      <trkpt lat="40.748957" lon="-3.89086">
        <ele>1115</ele>
        <time>2018-06-30T02:09:57.008Z</time>
      </trkpt>
      <trkpt lat="40.748949" lon="-3.890728">
        <ele>1118</ele>
        <time>2018-06-30T02:10:16.008Z</time>
      </trkpt>
      <trkpt lat="40.748941" lon="-3.890634">
        <ele>1122</ele>
        <time>2018-06-30T02:10:32.008Z</time>
      </trkpt>
      <trkpt lat="40.748989" lon="-3.890574">
        <ele>1124</ele>
        <time>2018-06-30T02:10:43.008Z</time>
      </trkpt>
      <trkpt lat="40.748985" lon="-3.890469">
        <ele>1126</ele>
        <time>2018-06-30T02:10:56.008Z</time>
      </trkpt>
      <trkpt lat="40.748998" lon="-3.890378">
        <ele>1127</ele>
        <time>2018-06-30T02:11:07.008Z</time>
      </trkpt>
      <trkpt lat="40.748996" lon="-3.890277">
        <ele>1131</ele>
        <time>2018-06-30T02:11:24.008Z</time>
      </trkpt>
      <trkpt lat="40.749002" lon="-3.890167">
        <ele>1132</ele>
        <time>2018-06-30T02:11:32.008Z</time>
      </trkpt>
      <trkpt lat="40.749013" lon="-3.890057">
        <ele>1133</ele>
        <time>2018-06-30T02:11:42.008Z</time>
      </trkpt>
      <trkpt lat="40.748975" lon="-3.889945">
        <ele>1137</ele>
        <time>2018-06-30T02:12:02.008Z</time>
      </trkpt>
      <trkpt lat="40.748965" lon="-3.889822">
        <ele>1139</ele>
        <time>2018-06-30T02:12:16.008Z</time>
      </trkpt>
      <trkpt lat="40.749008" lon="-3.889699">
        <ele>1140.42020066198</ele>
        <time>2018-06-30T02:12:31.008Z</time>
      </trkpt>
      <trkpt lat="40.748989" lon="-3.889563">
        <ele>1144</ele>
        <time>2018-06-30T02:12:47.008Z</time>
      </trkpt>
      <trkpt lat="40.749019" lon="-3.889432">
        <ele>1147</ele>
        <time>2018-06-30T02:13:02.008Z</time>
      </trkpt>
      <trkpt lat="40.74901" lon="-3.8893">
        <ele>1148</ele>
        <time>2018-06-30T02:13:18.008Z</time>
      </trkpt>
      <trkpt lat="40.749073" lon="-3.889186">
        <ele>1150.42020066198</ele>
        <time>2018-06-30T02:13:31.008Z</time>
      </trkpt>
      <trkpt lat="40.749067" lon="-3.889055">
        <ele>1153</ele>
        <time>2018-06-30T02:13:50.008Z</time>
      </trkpt>
      <trkpt lat="40.749092" lon="-3.888921">
        <ele>1158</ele>
        <time>2018-06-30T02:14:05.008Z</time>
      </trkpt>
      <trkpt lat="40.749101" lon="-3.888788">
        <ele>1159.40408552434</ele>
        <time>2018-06-30T02:14:21.008Z</time>
      </trkpt>
      <trkpt lat="40.749064" lon="-3.88866">
        <ele>1162.1311137343</ele>
        <time>2018-06-30T02:14:41.008Z</time>
      </trkpt>
      <trkpt lat="40.74907" lon="-3.888523">
        <ele>1164</ele>
        <time>2018-06-30T02:14:58.008Z</time>
      </trkpt>
      <trkpt lat="40.749103" lon="-3.888392">
        <ele>1168</ele>
        <time>2018-06-30T02:15:14.008Z</time>
      </trkpt>
      <trkpt lat="40.749094" lon="-3.88827">
        <ele>1172</ele>
        <time>2018-06-30T02:15:36.008Z</time>
      </trkpt>
      <trkpt lat="40.749101" lon="-3.888137">
        <ele>1174</ele>
        <time>2018-06-30T02:15:50.008Z</time>
      </trkpt>
      <trkpt lat="40.749113" lon="-3.888058">
        <ele>1175</ele>
        <time>2018-06-30T02:16:00.008Z</time>
      </trkpt>
      <trkpt lat="40.749153" lon="-3.887931">
        <ele>1178</ele>
        <time>2018-06-30T02:16:16.008Z</time>
      </trkpt>
      <trkpt lat="40.749162" lon="-3.887796">
        <ele>1179</ele>
        <time>2018-06-30T02:16:29.008Z</time>
      </trkpt>
      <trkpt lat="40.749172" lon="-3.887662">
        <ele>1183</ele>
        <time>2018-06-30T02:16:46.008Z</time>
      </trkpt>
      <trkpt lat="40.749188" lon="-3.887527">
        <ele>1187</ele>
        <time>2018-06-30T02:17:03.008Z</time>
      </trkpt>
      <trkpt lat="40.749224" lon="-3.887403">
        <ele>1188</ele>
        <time>2018-06-30T02:17:19.008Z</time>
      </trkpt>
      <trkpt lat="40.749256" lon="-3.887348">
        <ele>1190</ele>
        <time>2018-06-30T02:17:25.008Z</time>
      </trkpt>
      <trkpt lat="40.749297" lon="-3.887293">
        <ele>1191</ele>
        <time>2018-06-30T02:17:33.008Z</time>
      </trkpt>
      <trkpt lat="40.749325" lon="-3.887237">
        <ele>1191.2622274686</ele>
        <time>2018-06-30T02:17:41.008Z</time>
      </trkpt>
      <trkpt lat="40.749348" lon="-3.887194">
        <ele>1194</ele>
        <time>2018-06-30T02:17:47.008Z</time>
      </trkpt>
      <trkpt lat="40.749373" lon="-3.887144">
        <ele>1195</ele>
        <time>2018-06-30T02:17:54.008Z</time>
      </trkpt>
      <trkpt lat="40.749401" lon="-3.887082">
        <ele>1197</ele>
        <time>2018-06-30T02:18:02.008Z</time>
      </trkpt>
      <trkpt lat="40.749416" lon="-3.887013">
        <ele>1197</ele>
        <time>2018-06-30T02:18:10.008Z</time>
      </trkpt>
      <trkpt lat="40.749425" lon="-3.886929">
        <ele>1199</ele>
        <time>2018-06-30T02:18:19.008Z</time>
      </trkpt>
      <trkpt lat="40.74945" lon="-3.88685">
        <ele>1201</ele>
        <time>2018-06-30T02:18:28.008Z</time>
      </trkpt>
      <trkpt lat="40.749481" lon="-3.886802">
        <ele>1200</ele>
        <time>2018-06-30T02:18:33.008Z</time>
      </trkpt>
      <trkpt lat="40.749495" lon="-3.886733">
        <ele>1200</ele>
        <time>2018-06-30T02:18:39.008Z</time>
      </trkpt>
      <trkpt lat="40.7495" lon="-3.886644">
        <ele>1202</ele>
        <time>2018-06-30T02:18:46.008Z</time>
      </trkpt>
      <trkpt lat="40.749488" lon="-3.886521">
        <ele>1204</ele>
        <time>2018-06-30T02:18:57.008Z</time>
      </trkpt>
      <trkpt lat="40.749503" lon="-3.886395">
        <ele>1205</ele>
        <time>2018-06-30T02:19:08.008Z</time>
      </trkpt>
      <trkpt lat="40.749543" lon="-3.886274">
        <ele>1206</ele>
        <time>2018-06-30T02:19:19.008Z</time>
      </trkpt>
      <trkpt lat="40.749568" lon="-3.886168">
        <ele>1206</ele>
        <time>2018-06-30T02:19:26.008Z</time>
      </trkpt>
      <trkpt lat="40.749546" lon="-3.886055">
        <ele>1205</ele>
        <time>2018-06-30T02:19:37.008Z</time>
      </trkpt>
      <trkpt lat="40.749563" lon="-3.885944">
        <ele>1207</ele>
        <time>2018-06-30T02:19:47.008Z</time>
      </trkpt>
      <trkpt lat="40.749533" lon="-3.885867">
        <ele>1209</ele>
        <time>2018-06-30T02:19:54.008Z</time>
      </trkpt>
      <trkpt lat="40.749495" lon="-3.885795">
        <ele>1211</ele>
        <time>2018-06-30T02:20:02.008Z</time>
      </trkpt>
      <trkpt lat="40.749493" lon="-3.885707">
        <ele>1213</ele>
        <time>2018-06-30T02:20:13.008Z</time>
      </trkpt>
      <trkpt lat="40.749456" lon="-3.885619">
        <ele>1214</ele>
        <time>2018-06-30T02:20:29.008Z</time>
      </trkpt>
      <trkpt lat="40.74943" lon="-3.885521">
        <ele>1218</ele>
        <time>2018-06-30T02:20:47.008Z</time>
      </trkpt>
      <trkpt lat="40.749452" lon="-3.885448">
        <ele>1219</ele>
        <time>2018-06-30T02:20:57.008Z</time>
      </trkpt>
      <trkpt lat="40.749454" lon="-3.885312">
        <ele>1221</ele>
        <time>2018-06-30T02:21:16.008Z</time>
      </trkpt>
      <trkpt lat="40.749424" lon="-3.885187">
        <ele>1226</ele>
        <time>2018-06-30T02:21:35.008Z</time>
      </trkpt>
      <trkpt lat="40.749406" lon="-3.885051">
        <ele>1228</ele>
        <time>2018-06-30T02:21:52.008Z</time>
      </trkpt>
      <trkpt lat="40.749347" lon="-3.884995">
        <ele>1230</ele>
        <time>2018-06-30T02:22:06.008Z</time>
      </trkpt>
      <trkpt lat="40.749291" lon="-3.884946">
        <ele>1232.40408552434</ele>
        <time>2018-06-30T02:22:21.008Z</time>
      </trkpt>
      <trkpt lat="40.749266" lon="-3.884874">
        <ele>1235</ele>
        <time>2018-06-30T02:22:32.008Z</time>
      </trkpt>
      <trkpt lat="40.749247" lon="-3.88476">
        <ele>1237</ele>
        <time>2018-06-30T02:22:45.008Z</time>
      </trkpt>
      <trkpt lat="40.749281" lon="-3.884644">
        <ele>1239</ele>
        <time>2018-06-30T02:22:54.008Z</time>
      </trkpt>
      <trkpt lat="40.749273" lon="-3.884513">
        <ele>1240</ele>
        <time>2018-06-30T02:23:05.008Z</time>
      </trkpt>
      <trkpt lat="40.749278" lon="-3.884404">
        <ele>1239</ele>
        <time>2018-06-30T02:23:13.008Z</time>
      </trkpt>
      <trkpt lat="40.749286" lon="-3.884303">
        <ele>1239</ele>
        <time>2018-06-30T02:23:20.008Z</time>
      </trkpt>
      <trkpt lat="40.749285" lon="-3.88421">
        <ele>1240</ele>
        <time>2018-06-30T02:23:27.008Z</time>
      </trkpt>
      <trkpt lat="40.749276" lon="-3.884133">
        <ele>1241</ele>
        <time>2018-06-30T02:23:34.008Z</time>
      </trkpt>
      <trkpt lat="40.749254" lon="-3.884047">
        <ele>1243</ele>
        <time>2018-06-30T02:23:42.008Z</time>
      </trkpt>
      <trkpt lat="40.749256" lon="-3.883965">
        <ele>1243.40408552434</ele>
        <time>2018-06-30T02:23:51.008Z</time>
      </trkpt>
      <trkpt lat="40.749263" lon="-3.883869">
        <ele>1245</ele>
        <time>2018-06-30T02:24:00.008Z</time>
      </trkpt>
      <trkpt lat="40.749249" lon="-3.883794">
        <ele>1245.78416090031</ele>
        <time>2018-06-30T02:24:06.008Z</time>
      </trkpt>
      <trkpt lat="40.749234" lon="-3.88371">
        <ele>1246</ele>
        <time>2018-06-30T02:24:14.008Z</time>
      </trkpt>
      <trkpt lat="40.749238" lon="-3.883623">
        <ele>1246.20204276217</ele>
        <time>2018-06-30T02:24:21.008Z</time>
      </trkpt>
      <trkpt lat="40.74923" lon="-3.883539">
        <ele>1247</ele>
        <time>2018-06-30T02:24:28.008Z</time>
      </trkpt>
      <trkpt lat="40.749242" lon="-3.883454">
        <ele>1249</ele>
        <time>2018-06-30T02:24:35.008Z</time>
      </trkpt>
      <trkpt lat="40.749269" lon="-3.883363">
        <ele>1251</ele>
        <time>2018-06-30T02:24:43.008Z</time>
      </trkpt>
      <trkpt lat="40.74927" lon="-3.883289">
        <ele>1251</ele>
        <time>2018-06-30T02:24:49.008Z</time>
      </trkpt>
      <trkpt lat="40.749281" lon="-3.883211">
        <ele>1252</ele>
        <time>2018-06-30T02:24:55.008Z</time>
      </trkpt>
      <trkpt lat="40.749299" lon="-3.883137">
        <ele>1252.21010033099</ele>
        <time>2018-06-30T02:25:01.008Z</time>
      </trkpt>
      <trkpt lat="40.749303" lon="-3.88301">
        <ele>1253.2622274686</ele>
        <time>2018-06-30T02:25:11.008Z</time>
      </trkpt>
      <trkpt lat="40.749294" lon="-3.882874">
        <ele>1255</ele>
        <time>2018-06-30T02:25:22.008Z</time>
      </trkpt>
      <trkpt lat="40.74929" lon="-3.882735">
        <ele>1257</ele>
        <time>2018-06-30T02:25:33.008Z</time>
      </trkpt>
      <trkpt lat="40.749279" lon="-3.882604">
        <ele>1259</ele>
        <time>2018-06-30T02:25:45.008Z</time>
      </trkpt>
      <trkpt lat="40.749274" lon="-3.882464">
        <ele>1260</ele>
        <time>2018-06-30T02:25:57.008Z</time>
      </trkpt>
      <trkpt lat="40.749267" lon="-3.882332">
        <ele>1261</ele>
        <time>2018-06-30T02:26:08.008Z</time>
      </trkpt>
      <trkpt lat="40.749261" lon="-3.882255">
        <ele>1263</ele>
        <time>2018-06-30T02:26:14.008Z</time>
      </trkpt>
      <trkpt lat="40.749261" lon="-3.882124">
        <ele>1264</ele>
        <time>2018-06-30T02:26:25.008Z</time>
      </trkpt>
      <trkpt lat="40.749278" lon="-3.881985">
        <ele>1265</ele>
        <time>2018-06-30T02:26:36.008Z</time>
      </trkpt>
      <trkpt lat="40.749274" lon="-3.881849">
        <ele>1265</ele>
        <time>2018-06-30T02:26:49.008Z</time>
      </trkpt>
      <trkpt lat="40.749297" lon="-3.88172">
        <ele>1269</ele>
        <time>2018-06-30T02:27:02.008Z</time>
      </trkpt>
      <trkpt lat="40.749298" lon="-3.881586">
        <ele>1271</ele>
        <time>2018-06-30T02:27:16.008Z</time>
      </trkpt>
      <trkpt lat="40.74928" lon="-3.881508">
        <ele>1273</ele>
        <time>2018-06-30T02:27:24.008Z</time>
      </trkpt>
      <trkpt lat="40.749272" lon="-3.881374">
        <ele>1275</ele>
        <time>2018-06-30T02:27:38.008Z</time>
      </trkpt>
      <trkpt lat="40.749235" lon="-3.881244">
        <ele>1278</ele>
        <time>2018-06-30T02:27:54.008Z</time>
      </trkpt>
      <trkpt lat="40.749227" lon="-3.881172">
        <ele>1278.21010033099</ele>
        <time>2018-06-30T02:28:01.008Z</time>
      </trkpt>
      <trkpt lat="40.749186" lon="-3.881052">
        <ele>1280</ele>
        <time>2018-06-30T02:28:13.008Z</time>
      </trkpt>
      <trkpt lat="40.749209" lon="-3.880962">
        <ele>1282</ele>
        <time>2018-06-30T02:28:26.008Z</time>
      </trkpt>
      <trkpt lat="40.749224" lon="-3.880832">
        <ele>1284.12135419663</ele>
        <time>2018-06-30T02:28:41.008Z</time>
      </trkpt>
      <trkpt lat="40.749239" lon="-3.880702">
        <ele>1287</ele>
        <time>2018-06-30T02:28:55.008Z</time>
      </trkpt>
      <trkpt lat="40.749254" lon="-3.880568">
        <ele>1291</ele>
        <time>2018-06-30T02:29:13.008Z</time>
      </trkpt>
      <trkpt lat="40.749186" lon="-3.880476">
        <ele>1293</ele>
        <time>2018-06-30T02:29:27.008Z</time>
      </trkpt>
      <trkpt lat="40.749178" lon="-3.880415">
        <ele>1294</ele>
        <time>2018-06-30T02:29:33.008Z</time>
      </trkpt>
      <trkpt lat="40.749155" lon="-3.880318">
        <ele>1295</ele>
        <time>2018-06-30T02:29:44.008Z</time>
      </trkpt>
      <trkpt lat="40.749132" lon="-3.88026">
        <ele>1295</ele>
        <time>2018-06-30T02:29:50.008Z</time>
      </trkpt>
      <trkpt lat="40.749117" lon="-3.8802">
        <ele>1297</ele>
        <time>2018-06-30T02:29:56.008Z</time>
      </trkpt>
      <trkpt lat="40.749078" lon="-3.880103">
        <ele>1299</ele>
        <time>2018-06-30T02:30:07.008Z</time>
      </trkpt>
      <trkpt lat="40.749064" lon="-3.880019">
        <ele>1300</ele>
        <time>2018-06-30T02:30:15.008Z</time>
      </trkpt>
      <trkpt lat="40.749048" lon="-3.879933">
        <ele>1301</ele>
        <time>2018-06-30T02:30:22.008Z</time>
      </trkpt>
      <trkpt lat="40.749031" lon="-3.879809">
        <ele>1302</ele>
        <time>2018-06-30T02:30:35.008Z</time>
      </trkpt>
      <trkpt lat="40.749048" lon="-3.879732">
        <ele>1302.1311137343</ele>
        <time>2018-06-30T02:30:41.008Z</time>
      </trkpt>
      <trkpt lat="40.749078" lon="-3.879653">
        <ele>1303</ele>
        <time>2018-06-30T02:30:49.008Z</time>
      </trkpt>
      <trkpt lat="40.749121" lon="-3.87953">
        <ele>1304</ele>
        <time>2018-06-30T02:31:00.008Z</time>
      </trkpt>
      <trkpt lat="40.749108" lon="-3.87944">
        <ele>1303</ele>
        <time>2018-06-30T02:31:05.008Z</time>
      </trkpt>
      <trkpt lat="40.74912" lon="-3.879327">
        <ele>1303</ele>
        <time>2018-06-30T02:31:09.008Z</time>
      </trkpt>
      <trkpt lat="40.749156" lon="-3.879189">
        <ele>1302</ele>
        <time>2018-06-30T02:31:14.008Z</time>
      </trkpt>
      <trkpt lat="40.74919" lon="-3.87904">
        <ele>1302</ele>
        <time>2018-06-30T02:31:19.008Z</time>
      </trkpt>
      <trkpt lat="40.749219" lon="-3.878884">
        <ele>1301</ele>
        <time>2018-06-30T02:31:24.008Z</time>
      </trkpt>
      <trkpt lat="40.749238" lon="-3.878739">
        <ele>1301</ele>
        <time>2018-06-30T02:31:29.008Z</time>
      </trkpt>
      <trkpt lat="40.749236" lon="-3.878589">
        <ele>1299</ele>
        <time>2018-06-30T02:31:35.008Z</time>
      </trkpt>
      <trkpt lat="40.74921" lon="-3.878484">
        <ele>1299</ele>
        <time>2018-06-30T02:31:39.008Z</time>
      </trkpt>
      <trkpt lat="40.749182" lon="-3.878373">
        <ele>1298</ele>
        <time>2018-06-30T02:31:43.008Z</time>
      </trkpt>
      <trkpt lat="40.749159" lon="-3.878223">
        <ele>1298</ele>
        <time>2018-06-30T02:31:48.008Z</time>
      </trkpt>
      <trkpt lat="40.749139" lon="-3.87809">
        <ele>1299</ele>
        <time>2018-06-30T02:31:53.008Z</time>
      </trkpt>
      <trkpt lat="40.749122" lon="-3.877955">
        <ele>1299</ele>
        <time>2018-06-30T02:31:58.008Z</time>
      </trkpt>
      <trkpt lat="40.74913" lon="-3.877799">
        <ele>1300</ele>
        <time>2018-06-30T02:32:04.008Z</time>
      </trkpt>
      <trkpt lat="40.749147" lon="-3.87766">
        <ele>1300</ele>
        <time>2018-06-30T02:32:09.008Z</time>
      </trkpt>
      <trkpt lat="40.74914" lon="-3.877523">
        <ele>1300</ele>
        <time>2018-06-30T02:32:14.008Z</time>
      </trkpt>
      <trkpt lat="40.749135" lon="-3.877383">
        <ele>1300</ele>
        <time>2018-06-30T02:32:19.008Z</time>
      </trkpt>
      <trkpt lat="40.749144" lon="-3.877252">
        <ele>1299</ele>
        <time>2018-06-30T02:32:24.008Z</time>
      </trkpt>
      <trkpt lat="40.749136" lon="-3.877121">
        <ele>1299</ele>
        <time>2018-06-30T02:32:29.008Z</time>
      </trkpt>
      <trkpt lat="40.749145" lon="-3.876965">
        <ele>1299</ele>
        <time>2018-06-30T02:32:35.008Z</time>
      </trkpt>
      <trkpt lat="40.749155" lon="-3.876857">
        <ele>1299</ele>
        <time>2018-06-30T02:32:39.008Z</time>
      </trkpt>
      <trkpt lat="40.749188" lon="-3.876716">
        <ele>1300</ele>
        <time>2018-06-30T02:32:44.008Z</time>
      </trkpt>
      <trkpt lat="40.749224" lon="-3.87659">
        <ele>1300</ele>
        <time>2018-06-30T02:32:50.008Z</time>
      </trkpt>
      <trkpt lat="40.749228" lon="-3.876438">
        <ele>1300</ele>
        <time>2018-06-30T02:32:58.008Z</time>
      </trkpt>
      <trkpt lat="40.749225" lon="-3.876325">
        <ele>1301</ele>
        <time>2018-06-30T02:33:03.008Z</time>
      </trkpt>
      <trkpt lat="40.749214" lon="-3.876208">
        <ele>1301</ele>
        <time>2018-06-30T02:33:08.008Z</time>
      </trkpt>
      <trkpt lat="40.749224" lon="-3.876065">
        <ele>1302</ele>
        <time>2018-06-30T02:33:14.008Z</time>
      </trkpt>
      <trkpt lat="40.749268" lon="-3.87597">
        <ele>1302</ele>
        <time>2018-06-30T02:33:20.008Z</time>
      </trkpt>
      <trkpt lat="40.749349" lon="-3.875894">
        <ele>1303.21010033099</ele>
        <time>2018-06-30T02:33:31.008Z</time>
      </trkpt>
      <trkpt lat="40.749348" lon="-3.875798">
        <ele>1304</ele>
        <time>2018-06-30T02:33:38.008Z</time>
      </trkpt>
      <trkpt lat="40.749355" lon="-3.87568">
        <ele>1305</ele>
        <time>2018-06-30T02:33:45.008Z</time>
      </trkpt>
      <trkpt lat="40.749372" lon="-3.875575">
        <ele>1305</ele>
        <time>2018-06-30T02:33:53.008Z</time>
      </trkpt>
      <trkpt lat="40.749362" lon="-3.875462">
        <ele>1305</ele>
        <time>2018-06-30T02:34:02.008Z</time>
      </trkpt>
      <trkpt lat="40.749373" lon="-3.875384">
        <ele>1305</ele>
        <time>2018-06-30T02:34:09.008Z</time>
      </trkpt>
      <trkpt lat="40.749368" lon="-3.875306">
        <ele>1306</ele>
        <time>2018-06-30T02:34:14.008Z</time>
      </trkpt>
      <trkpt lat="40.749379" lon="-3.875217">
        <ele>1306</ele>
        <time>2018-06-30T02:34:20.008Z</time>
      </trkpt>
      <trkpt lat="40.749412" lon="-3.875158">
        <ele>1307</ele>
        <time>2018-06-30T02:34:25.008Z</time>
      </trkpt>
      <trkpt lat="40.749398" lon="-3.875067">
        <ele>1307.42020066198</ele>
        <time>2018-06-30T02:34:31.008Z</time>
      </trkpt>
      <trkpt lat="40.749412" lon="-3.874984">
        <ele>1309</ele>
        <time>2018-06-30T02:34:37.008Z</time>
      </trkpt>
      <trkpt lat="40.749421" lon="-3.874894">
        <ele>1310</ele>
        <time>2018-06-30T02:34:43.008Z</time>
      </trkpt>
      <trkpt lat="40.749403" lon="-3.874805">
        <ele>1310</ele>
        <time>2018-06-30T02:34:49.008Z</time>
      </trkpt>
      <trkpt lat="40.749401" lon="-3.874719">
        <ele>1311</ele>
        <time>2018-06-30T02:34:54.008Z</time>
      </trkpt>
      <trkpt lat="40.7494" lon="-3.874627">
        <ele>1311.21010033099</ele>
        <time>2018-06-30T02:35:01.008Z</time>
      </trkpt>
      <trkpt lat="40.749381" lon="-3.874554">
        <ele>1312</ele>
        <time>2018-06-30T02:35:06.008Z</time>
      </trkpt>
      <trkpt lat="40.749366" lon="-3.874451">
        <ele>1314</ele>
        <time>2018-06-30T02:35:13.008Z</time>
      </trkpt>
      <trkpt lat="40.749363" lon="-3.874358">
        <ele>1314</ele>
        <time>2018-06-30T02:35:18.008Z</time>
      </trkpt>
      <trkpt lat="40.749356" lon="-3.874228">
        <ele>1316</ele>
        <time>2018-06-30T02:35:23.008Z</time>
      </trkpt>
      <trkpt lat="40.749335" lon="-3.874121">
        <ele>1316</ele>
        <time>2018-06-30T02:35:27.008Z</time>
      </trkpt>
      <trkpt lat="40.749325" lon="-3.874013">
        <ele>1316</ele>
        <time>2018-06-30T02:35:31.008Z</time>
      </trkpt>
      <trkpt lat="40.749311" lon="-3.873898">
        <ele>1316</ele>
        <time>2018-06-30T02:35:35.008Z</time>
      </trkpt>
      <trkpt lat="40.7493" lon="-3.873812">
        <ele>1316</ele>
        <time>2018-06-30T02:35:38.008Z</time>
      </trkpt>
      <trkpt lat="40.749292" lon="-3.873722">
        <ele>1316</ele>
        <time>2018-06-30T02:35:42.008Z</time>
      </trkpt>
      <trkpt lat="40.749277" lon="-3.873641">
        <ele>1316</ele>
        <time>2018-06-30T02:35:48.008Z</time>
      </trkpt>
      <trkpt lat="40.749263" lon="-3.873565">
        <ele>1316</ele>
        <time>2018-06-30T02:35:53.008Z</time>
      </trkpt>
      <trkpt lat="40.749249" lon="-3.87348">
        <ele>1316</ele>
        <time>2018-06-30T02:35:59.008Z</time>
      </trkpt>
      <trkpt lat="40.749237" lon="-3.87339">
        <ele>1319</ele>
        <time>2018-06-30T02:36:05.008Z</time>
      </trkpt>
      <trkpt lat="40.749239" lon="-3.873297">
        <ele>1319.1311137343</ele>
        <time>2018-06-30T02:36:11.008Z</time>
      </trkpt>
      <trkpt lat="40.749223" lon="-3.873206">
        <ele>1320</ele>
        <time>2018-06-30T02:36:17.008Z</time>
      </trkpt>
      <trkpt lat="40.749206" lon="-3.873127">
        <ele>1320</ele>
        <time>2018-06-30T02:36:22.008Z</time>
      </trkpt>
      <trkpt lat="40.749185" lon="-3.873034">
        <ele>1320</ele>
        <time>2018-06-30T02:36:28.008Z</time>
      </trkpt>
      <trkpt lat="40.749178" lon="-3.872898">
        <ele>1322</ele>
        <time>2018-06-30T02:36:37.008Z</time>
      </trkpt>
      <trkpt lat="40.749179" lon="-3.872767">
        <ele>1323</ele>
        <time>2018-06-30T02:36:45.008Z</time>
      </trkpt>
      <trkpt lat="40.749187" lon="-3.872634">
        <ele>1324</ele>
        <time>2018-06-30T02:36:53.008Z</time>
      </trkpt>
      <trkpt lat="40.749188" lon="-3.872512">
        <ele>1324.21010033099</ele>
        <time>2018-06-30T02:37:01.008Z</time>
      </trkpt>
      <trkpt lat="40.749193" lon="-3.872386">
        <ele>1325</ele>
        <time>2018-06-30T02:37:09.008Z</time>
      </trkpt>
      <trkpt lat="40.749199" lon="-3.872276">
        <ele>1327</ele>
        <time>2018-06-30T02:37:16.008Z</time>
      </trkpt>
      <trkpt lat="40.749196" lon="-3.872179">
        <ele>1328</ele>
        <time>2018-06-30T02:37:22.008Z</time>
      </trkpt>
      <trkpt lat="40.749196" lon="-3.872078">
        <ele>1328</ele>
        <time>2018-06-30T02:37:29.008Z</time>
      </trkpt>
      <trkpt lat="40.749193" lon="-3.871963">
        <ele>1330</ele>
        <time>2018-06-30T02:37:37.008Z</time>
      </trkpt>
      <trkpt lat="40.749192" lon="-3.871839">
        <ele>1331</ele>
        <time>2018-06-30T02:37:45.008Z</time>
      </trkpt>
      <trkpt lat="40.749186" lon="-3.871726">
        <ele>1331</ele>
        <time>2018-06-30T02:37:52.008Z</time>
      </trkpt>
      <trkpt lat="40.74918" lon="-3.871627">
        <ele>1331</ele>
        <time>2018-06-30T02:37:58.008Z</time>
      </trkpt>
      <trkpt lat="40.74918" lon="-3.87149">
        <ele>1332</ele>
        <time>2018-06-30T02:38:03.008Z</time>
      </trkpt>
      <trkpt lat="40.749189" lon="-3.871403">
        <ele>1332</ele>
        <time>2018-06-30T02:38:06.008Z</time>
      </trkpt>
      <trkpt lat="40.749194" lon="-3.871354">
        <ele>1332</ele>
        <time>2018-06-30T02:38:08.008Z</time>
      </trkpt>
      <trkpt lat="40.7492" lon="-3.87131">
        <ele>1332</ele>
        <time>2018-06-30T02:38:10.008Z</time>
      </trkpt>
      <trkpt lat="40.749199" lon="-3.871206">
        <ele>1330</ele>
        <time>2018-06-30T02:38:14.008Z</time>
      </trkpt>
      <trkpt lat="40.749193" lon="-3.871114">
        <ele>1330</ele>
        <time>2018-06-30T02:38:17.008Z</time>
      </trkpt>
      <trkpt lat="40.749189" lon="-3.871054">
        <ele>1330</ele>
        <time>2018-06-30T02:38:19.008Z</time>
      </trkpt>
      <trkpt lat="40.749186" lon="-3.870992">
        <ele>1329.79795723783</ele>
        <time>2018-06-30T02:38:21.008Z</time>
      </trkpt>
      <trkpt lat="40.749187" lon="-3.870935">
        <ele>1329</ele>
        <time>2018-06-30T02:38:23.008Z</time>
      </trkpt>
      <trkpt lat="40.749191" lon="-3.87088">
        <ele>1329</ele>
        <time>2018-06-30T02:38:25.008Z</time>
      </trkpt>
      <trkpt lat="40.74919" lon="-3.870818">
        <ele>1329</ele>
        <time>2018-06-30T02:38:27.008Z</time>
      </trkpt>
      <trkpt lat="40.749183" lon="-3.870758">
        <ele>1329</ele>
        <time>2018-06-30T02:38:29.008Z</time>
      </trkpt>
      <trkpt lat="40.749176" lon="-3.870696">
        <ele>1329</ele>
        <time>2018-06-30T02:38:31.008Z</time>
      </trkpt>
      <trkpt lat="40.749172" lon="-3.870636">
        <ele>1329</ele>
        <time>2018-06-30T02:38:33.008Z</time>
      </trkpt>
      <trkpt lat="40.749161" lon="-3.87058">
        <ele>1329</ele>
        <time>2018-06-30T02:38:35.008Z</time>
      </trkpt>
      <trkpt lat="40.74915" lon="-3.870524">
        <ele>1329</ele>
        <time>2018-06-30T02:38:37.008Z</time>
      </trkpt>
      <trkpt lat="40.749145" lon="-3.870466">
        <ele>1329</ele>
        <time>2018-06-30T02:38:39.008Z</time>
      </trkpt>
      <trkpt lat="40.74914" lon="-3.870314">
        <ele>1326</ele>
        <time>2018-06-30T02:38:45.008Z</time>
      </trkpt>
      <trkpt lat="40.749099" lon="-3.870194">
        <ele>1324.59591447566</ele>
        <time>2018-06-30T02:38:51.008Z</time>
      </trkpt>
      <trkpt lat="40.749074" lon="-3.87006">
        <ele>1322.78627630605</ele>
        <time>2018-06-30T02:38:56.008Z</time>
      </trkpt>
      <trkpt lat="40.749062" lon="-3.869937">
        <ele>1322</ele>
        <time>2018-06-30T02:39:00.008Z</time>
      </trkpt>
      <trkpt lat="40.749059" lon="-3.869815">
        <ele>1319</ele>
        <time>2018-06-30T02:39:04.008Z</time>
      </trkpt>
      <trkpt lat="40.749109" lon="-3.869682">
        <ele>1319</ele>
        <time>2018-06-30T02:39:09.008Z</time>
      </trkpt>
      <trkpt lat="40.749152" lon="-3.869585">
        <ele>1319</ele>
        <time>2018-06-30T02:39:13.008Z</time>
      </trkpt>
      <trkpt lat="40.749212" lon="-3.869491">
        <ele>1319</ele>
        <time>2018-06-30T02:39:17.008Z</time>
      </trkpt>
      <trkpt lat="40.749266" lon="-3.869358">
        <ele>1319</ele>
        <time>2018-06-30T02:39:22.008Z</time>
      </trkpt>
      <trkpt lat="40.749276" lon="-3.869222">
        <ele>1319</ele>
        <time>2018-06-30T02:39:26.008Z</time>
      </trkpt>
      <trkpt lat="40.749273" lon="-3.869111">
        <ele>1317.36969900703</ele>
        <time>2018-06-30T02:39:31.008Z</time>
      </trkpt>
      <trkpt lat="40.749248" lon="-3.86901">
        <ele>1314.35248270094</ele>
        <time>2018-06-30T02:39:36.008Z</time>
      </trkpt>
      <trkpt lat="40.749254" lon="-3.868904">
        <ele>1311</ele>
        <time>2018-06-30T02:39:43.008Z</time>
      </trkpt>
      <trkpt lat="40.749263" lon="-3.868803">
        <ele>1310</ele>
        <time>2018-06-30T02:39:48.008Z</time>
      </trkpt>
      <trkpt lat="40.749258" lon="-3.868694">
        <ele>1311</ele>
        <time>2018-06-30T02:39:52.008Z</time>
      </trkpt>
      <trkpt lat="40.749258" lon="-3.868584">
        <ele>1311</ele>
        <time>2018-06-30T02:39:56.008Z</time>
      </trkpt>
      <trkpt lat="40.749268" lon="-3.86847">
        <ele>1311</ele>
        <time>2018-06-30T02:40:00.008Z</time>
      </trkpt>
      <trkpt lat="40.749295" lon="-3.868341">
        <ele>1309</ele>
        <time>2018-06-30T02:40:05.008Z</time>
      </trkpt>
      <trkpt lat="40.749333" lon="-3.868244">
        <ele>1309</ele>
        <time>2018-06-30T02:40:09.008Z</time>
      </trkpt>
      <trkpt lat="40.74935" lon="-3.868148">
        <ele>1307</ele>
        <time>2018-06-30T02:40:12.008Z</time>
      </trkpt>
      <trkpt lat="40.749341" lon="-3.867999">
        <ele>1307</ele>
        <time>2018-06-30T02:40:17.008Z</time>
      </trkpt>
      <trkpt lat="40.749336" lon="-3.86791">
        <ele>1307</ele>
        <time>2018-06-30T02:40:20.008Z</time>
      </trkpt>
      <trkpt lat="40.749328" lon="-3.867823">
        <ele>1305</ele>
        <time>2018-06-30T02:40:23.008Z</time>
      </trkpt>
      <trkpt lat="40.749322" lon="-3.867743">
        <ele>1305</ele>
        <time>2018-06-30T02:40:26.008Z</time>
      </trkpt>
      <trkpt lat="40.749314" lon="-3.867652">
        <ele>1305</ele>
        <time>2018-06-30T02:40:29.008Z</time>
      </trkpt>
      <trkpt lat="40.749304" lon="-3.867518">
        <ele>1304</ele>
        <time>2018-06-30T02:40:34.008Z</time>
      </trkpt>
      <trkpt lat="40.749289" lon="-3.867416">
        <ele>1304</ele>
        <time>2018-06-30T02:40:38.008Z</time>
      </trkpt>
      <trkpt lat="40.749273" lon="-3.867288">
        <ele>1302</ele>
        <time>2018-06-30T02:40:43.008Z</time>
      </trkpt>
      <trkpt lat="40.749282" lon="-3.867154">
        <ele>1300</ele>
        <time>2018-06-30T02:40:48.008Z</time>
      </trkpt>
      <trkpt lat="40.749296" lon="-3.867017">
        <ele>1299</ele>
        <time>2018-06-30T02:40:53.008Z</time>
      </trkpt>
      <trkpt lat="40.749336" lon="-3.866938">
        <ele>1298</ele>
        <time>2018-06-30T02:40:58.008Z</time>
      </trkpt>
      <trkpt lat="40.74936" lon="-3.866799">
        <ele>1297</ele>
        <time>2018-06-30T02:41:04.008Z</time>
      </trkpt>
      <trkpt lat="40.749384" lon="-3.866668">
        <ele>1297</ele>
        <time>2018-06-30T02:41:10.008Z</time>
      </trkpt>
      <trkpt lat="40.749387" lon="-3.866618">
        <ele>1297</ele>
        <time>2018-06-30T02:41:14.008Z</time>
      </trkpt>
      <trkpt lat="40.749387" lon="-3.866548">
        <ele>1296.39387171349</ele>
        <time>2018-06-30T02:41:21.008Z</time>
      </trkpt>
      <trkpt lat="40.749394" lon="-3.86649">
        <ele>1293.78627630605</ele>
        <time>2018-06-30T02:41:26.008Z</time>
      </trkpt>
      <trkpt lat="40.749405" lon="-3.866437">
        <ele>1293</ele>
        <time>2018-06-30T02:41:29.008Z</time>
      </trkpt>
      <trkpt lat="40.749395" lon="-3.866359">
        <ele>1291</ele>
        <time>2018-06-30T02:41:32.008Z</time>
      </trkpt>
      <trkpt lat="40.749385" lon="-3.86628">
        <ele>1291</ele>
        <time>2018-06-30T02:41:35.008Z</time>
      </trkpt>
      <trkpt lat="40.749375" lon="-3.866173">
        <ele>1289</ele>
        <time>2018-06-30T02:41:40.008Z</time>
      </trkpt>
      <trkpt lat="40.749423" lon="-3.866035">
        <ele>1288</ele>
        <time>2018-06-30T02:41:47.008Z</time>
      </trkpt>
      <trkpt lat="40.749432" lon="-3.865935">
        <ele>1287.79795723783</ele>
        <time>2018-06-30T02:41:51.008Z</time>
      </trkpt>
      <trkpt lat="40.74942" lon="-3.865848">
        <ele>1287</ele>
        <time>2018-06-30T02:41:54.008Z</time>
      </trkpt>
      <trkpt lat="40.749389" lon="-3.865783">
        <ele>1287</ele>
        <time>2018-06-30T02:41:57.008Z</time>
      </trkpt>
      <trkpt lat="40.749378" lon="-3.865744">
        <ele>1287</ele>
        <time>2018-06-30T02:42:00.008Z</time>
      </trkpt>
      <trkpt lat="40.749381" lon="-3.865684">
        <ele>1285</ele>
        <time>2018-06-30T02:42:04.008Z</time>
      </trkpt>
      <trkpt lat="40.749391" lon="-3.865642">
        <ele>1285</ele>
        <time>2018-06-30T02:42:07.008Z</time>
      </trkpt>
      <trkpt lat="40.749404" lon="-3.865609">
        <ele>1285</ele>
        <time>2018-06-30T02:42:09.008Z</time>
      </trkpt>
      <trkpt lat="40.749417" lon="-3.865527">
        <ele>1284</ele>
        <time>2018-06-30T02:42:13.008Z</time>
      </trkpt>
      <trkpt lat="40.749441" lon="-3.865432">
        <ele>1284</ele>
        <time>2018-06-30T02:42:17.008Z</time>
      </trkpt>
      <trkpt lat="40.74946" lon="-3.865377">
        <ele>1284</ele>
        <time>2018-06-30T02:42:19.008Z</time>
      </trkpt>
      <trkpt lat="40.74947" lon="-3.865326">
        <ele>1284</ele>
        <time>2018-06-30T02:42:21.008Z</time>
      </trkpt>
      <trkpt lat="40.749471" lon="-3.86523">
        <ele>1284</ele>
        <time>2018-06-30T02:42:25.008Z</time>
      </trkpt>
      <trkpt lat="40.749474" lon="-3.865142">
        <ele>1283.78989966901</ele>
        <time>2018-06-30T02:42:31.008Z</time>
      </trkpt>
      <trkpt lat="40.74948" lon="-3.865001">
        <ele>1283</ele>
        <time>2018-06-30T02:42:38.008Z</time>
      </trkpt>
      <trkpt lat="40.749481" lon="-3.864864">
        <ele>1279.60363987572</ele>
        <time>2018-06-30T02:42:46.008Z</time>
      </trkpt>
      <trkpt lat="40.749461" lon="-3.864743">
        <ele>1277.79795723783</ele>
        <time>2018-06-30T02:42:51.008Z</time>
      </trkpt>
      <trkpt lat="40.749456" lon="-3.864651">
        <ele>1277</ele>
        <time>2018-06-30T02:42:55.008Z</time>
      </trkpt>
      <trkpt lat="40.749461" lon="-3.864549">
        <ele>1277</ele>
        <time>2018-06-30T02:42:59.008Z</time>
      </trkpt>
      <trkpt lat="40.749458" lon="-3.864453">
        <ele>1275</ele>
        <time>2018-06-30T02:43:03.008Z</time>
      </trkpt>
      <trkpt lat="40.749448" lon="-3.864374">
        <ele>1275</ele>
        <time>2018-06-30T02:43:06.008Z</time>
      </trkpt>
      <trkpt lat="40.749434" lon="-3.864284">
        <ele>1275</ele>
        <time>2018-06-30T02:43:10.008Z</time>
      </trkpt>
      <trkpt lat="40.749437" lon="-3.864146">
        <ele>1275</ele>
        <time>2018-06-30T02:43:17.008Z</time>
      </trkpt>
      <trkpt lat="40.749519" lon="-3.864097">
        <ele>1275</ele>
        <time>2018-06-30T02:43:25.008Z</time>
      </trkpt>
      <trkpt lat="40.749591" lon="-3.864051">
        <ele>1275</ele>
        <time>2018-06-30T02:43:31.008Z</time>
      </trkpt>
      <trkpt lat="40.74965" lon="-3.863981">
        <ele>1275</ele>
        <time>2018-06-30T02:43:37.008Z</time>
      </trkpt>
      <trkpt lat="40.749696" lon="-3.863918">
        <ele>1276</ele>
        <time>2018-06-30T02:43:42.008Z</time>
      </trkpt>
      <trkpt lat="40.749728" lon="-3.863852">
        <ele>1276</ele>
        <time>2018-06-30T02:43:47.008Z</time>
      </trkpt>
      <trkpt lat="40.749749" lon="-3.863779">
        <ele>1278</ele>
        <time>2018-06-30T02:43:52.008Z</time>
      </trkpt>
      <trkpt lat="40.74973" lon="-3.863707">
        <ele>1278</ele>
        <time>2018-06-30T02:43:57.008Z</time>
      </trkpt>
      <trkpt lat="40.749715" lon="-3.863631">
        <ele>1279</ele>
        <time>2018-06-30T02:44:03.008Z</time>
      </trkpt>
      <trkpt lat="40.749795" lon="-3.863559">
        <ele>1279</ele>
        <time>2018-06-30T02:44:40.008Z</time>
      </trkpt>
      <trkpt lat="40.749833" lon="-3.863462">
        <ele>1279</ele>
        <time>2018-06-30T02:44:47.008Z</time>
      </trkpt>
      <trkpt lat="40.749856" lon="-3.863383">
        <ele>1278.59591447566</ele>
        <time>2018-06-30T02:44:51.008Z</time>
      </trkpt>
      <trkpt lat="40.749904" lon="-3.863312">
        <ele>1277</ele>
        <time>2018-06-30T02:44:55.008Z</time>
      </trkpt>
      <trkpt lat="40.749958" lon="-3.863255">
        <ele>1276.36969900703</ele>
        <time>2018-06-30T02:45:01.008Z</time>
      </trkpt>
      <trkpt lat="40.749992" lon="-3.86318">
        <ele>1275</ele>
        <time>2018-06-30T02:45:08.008Z</time>
      </trkpt>
      <trkpt lat="40.750036" lon="-3.863098">
        <ele>1275</ele>
        <time>2018-06-30T02:45:13.008Z</time>
      </trkpt>
      <trkpt lat="40.750059" lon="-3.862986">
        <ele>1275</ele>
        <time>2018-06-30T02:45:18.008Z</time>
      </trkpt>
      <trkpt lat="40.750124" lon="-3.86288">
        <ele>1275</ele>
        <time>2018-06-30T02:45:23.008Z</time>
      </trkpt>
      <trkpt lat="40.750147" lon="-3.862783">
        <ele>1275</ele>
        <time>2018-06-30T02:45:27.008Z</time>
      </trkpt>
      <trkpt lat="40.750201" lon="-3.862702">
        <ele>1274.78989966901</ele>
        <time>2018-06-30T02:45:31.008Z</time>
      </trkpt>
      <trkpt lat="40.75023" lon="-3.862585">
        <ele>1274</ele>
        <time>2018-06-30T02:45:38.008Z</time>
      </trkpt>
      <trkpt lat="40.750299" lon="-3.862482">
        <ele>1270.80181993786</ele>
        <time>2018-06-30T02:45:46.008Z</time>
      </trkpt>
      <trkpt lat="40.750355" lon="-3.862375">
        <ele>1270</ele>
        <time>2018-06-30T02:45:53.008Z</time>
      </trkpt>
      <trkpt lat="40.750361" lon="-3.86224">
        <ele>1270</ele>
        <time>2018-06-30T02:45:59.008Z</time>
      </trkpt>
      <trkpt lat="40.750364" lon="-3.862115">
        <ele>1270</ele>
        <time>2018-06-30T02:46:05.008Z</time>
      </trkpt>
      <trkpt lat="40.750366" lon="-3.861967">
        <ele>1270</ele>
        <time>2018-06-30T02:46:15.008Z</time>
      </trkpt>
      <trkpt lat="40.750377" lon="-3.861835">
        <ele>1271</ele>
        <time>2018-06-30T02:46:23.008Z</time>
      </trkpt>
      <trkpt lat="40.75041" lon="-3.861725">
        <ele>1273</ele>
        <time>2018-06-30T02:46:32.008Z</time>
      </trkpt>
      <trkpt lat="40.75044" lon="-3.861613">
        <ele>1273.1311137343</ele>
        <time>2018-06-30T02:46:41.008Z</time>
      </trkpt>
      <trkpt lat="40.750469" lon="-3.86149">
        <ele>1274</ele>
        <time>2018-06-30T02:46:49.008Z</time>
      </trkpt>
      <trkpt lat="40.750531" lon="-3.861382">
        <ele>1275</ele>
        <time>2018-06-30T02:46:55.008Z</time>
      </trkpt>
      <trkpt lat="40.750608" lon="-3.861293">
        <ele>1273</ele>
        <time>2018-06-30T02:47:02.008Z</time>
      </trkpt>
      <trkpt lat="40.75067" lon="-3.861207">
        <ele>1273</ele>
        <time>2018-06-30T02:47:09.008Z</time>
      </trkpt>
      <trkpt lat="40.750741" lon="-3.861107">
        <ele>1273</ele>
        <time>2018-06-30T02:47:17.008Z</time>
      </trkpt>
      <trkpt lat="40.750751" lon="-3.861004">
        <ele>1273</ele>
        <time>2018-06-30T02:47:24.008Z</time>
      </trkpt>
      <trkpt lat="40.750783" lon="-3.860886">
        <ele>1273</ele>
        <time>2018-06-30T02:47:33.008Z</time>
      </trkpt>
      <trkpt lat="40.750781" lon="-3.860767">
        <ele>1273</ele>
        <time>2018-06-30T02:47:40.008Z</time>
      </trkpt>
      <trkpt lat="40.750769" lon="-3.860663">
        <ele>1273</ele>
        <time>2018-06-30T02:47:46.008Z</time>
      </trkpt>
      <trkpt lat="40.750769" lon="-3.860559">
        <ele>1273</ele>
        <time>2018-06-30T02:47:52.008Z</time>
      </trkpt>
      <trkpt lat="40.750766" lon="-3.860429">
        <ele>1273</ele>
        <time>2018-06-30T02:47:58.008Z</time>
      </trkpt>
      <trkpt lat="40.750775" lon="-3.860298">
        <ele>1272</ele>
        <time>2018-06-30T02:48:04.008Z</time>
      </trkpt>
      <trkpt lat="40.750799" lon="-3.860168">
        <ele>1272</ele>
        <time>2018-06-30T02:48:13.008Z</time>
      </trkpt>
      <trkpt lat="40.750829" lon="-3.860071">
        <ele>1272</ele>
        <time>2018-06-30T02:48:19.008Z</time>
      </trkpt>
      <trkpt lat="40.750832" lon="-3.859972">
        <ele>1271</ele>
        <time>2018-06-30T02:48:25.008Z</time>
      </trkpt>
      <trkpt lat="40.750853" lon="-3.859892">
        <ele>1271</ele>
        <time>2018-06-30T02:48:30.008Z</time>
      </trkpt>
      <trkpt lat="40.750899" lon="-3.859814">
        <ele>1271</ele>
        <time>2018-06-30T02:48:38.008Z</time>
      </trkpt>
      <trkpt lat="40.750894" lon="-3.85973">
        <ele>1270</ele>
        <time>2018-06-30T02:48:48.008Z</time>
      </trkpt>
      <trkpt lat="40.750923" lon="-3.859599">
        <ele>1273</ele>
        <time>2018-06-30T02:49:02.008Z</time>
      </trkpt>
      <trkpt lat="40.750946" lon="-3.859465">
        <ele>1273</ele>
        <time>2018-06-30T02:49:12.008Z</time>
      </trkpt>
      <trkpt lat="40.750954" lon="-3.859346">
        <ele>1275</ele>
        <time>2018-06-30T02:49:29.008Z</time>
      </trkpt>
      <trkpt lat="40.751028" lon="-3.859248">
        <ele>1276</ele>
        <time>2018-06-30T02:49:45.008Z</time>
      </trkpt>
      <trkpt lat="40.751035" lon="-3.859138">
        <ele>1278</ele>
        <time>2018-06-30T02:49:56.008Z</time>
      </trkpt>
      <trkpt lat="40.751058" lon="-3.859054">
        <ele>1279</ele>
        <time>2018-06-30T02:50:03.008Z</time>
      </trkpt>
      <trkpt lat="40.751059" lon="-3.858971">
        <ele>1279</ele>
        <time>2018-06-30T02:50:09.008Z</time>
      </trkpt>
      <trkpt lat="40.751049" lon="-3.858864">
        <ele>1281</ele>
        <time>2018-06-30T02:50:17.008Z</time>
      </trkpt>
      <trkpt lat="40.751045" lon="-3.858766">
        <ele>1283</ele>
        <time>2018-06-30T02:50:24.008Z</time>
      </trkpt>
      <trkpt lat="40.751057" lon="-3.858676">
        <ele>1283.42020066198</ele>
        <time>2018-06-30T02:50:31.008Z</time>
      </trkpt>
      <trkpt lat="40.751068" lon="-3.858581">
        <ele>1285</ele>
        <time>2018-06-30T02:50:38.008Z</time>
      </trkpt>
      <trkpt lat="40.751053" lon="-3.8585">
        <ele>1286</ele>
        <time>2018-06-30T02:50:44.008Z</time>
      </trkpt>
      <trkpt lat="40.751056" lon="-3.858403">
        <ele>1286</ele>
        <time>2018-06-30T02:50:52.008Z</time>
      </trkpt>
      <trkpt lat="40.751053" lon="-3.858286">
        <ele>1286</ele>
        <time>2018-06-30T02:51:00.008Z</time>
      </trkpt>
      <trkpt lat="40.751078" lon="-3.858169">
        <ele>1287</ele>
        <time>2018-06-30T02:51:08.008Z</time>
      </trkpt>
      <trkpt lat="40.75113" lon="-3.858058">
        <ele>1287</ele>
        <time>2018-06-30T02:51:16.008Z</time>
      </trkpt>
      <trkpt lat="40.751153" lon="-3.857942">
        <ele>1287</ele>
        <time>2018-06-30T02:51:25.008Z</time>
      </trkpt>
      <trkpt lat="40.751097" lon="-3.857845">
        <ele>1287</ele>
        <time>2018-06-30T02:51:34.008Z</time>
      </trkpt>
      <trkpt lat="40.751059" lon="-3.857761">
        <ele>1284</ele>
        <time>2018-06-30T02:51:43.008Z</time>
      </trkpt>
      <trkpt lat="40.75104" lon="-3.857639">
        <ele>1283</ele>
        <time>2018-06-30T02:51:56.008Z</time>
      </trkpt>
      <trkpt lat="40.751032" lon="-3.857557">
        <ele>1281</ele>
        <time>2018-06-30T02:52:02.008Z</time>
      </trkpt>
      <trkpt lat="40.751012" lon="-3.857472">
        <ele>1281</ele>
        <time>2018-06-30T02:52:09.008Z</time>
      </trkpt>
      <trkpt lat="40.75096" lon="-3.857356">
        <ele>1281</ele>
        <time>2018-06-30T02:52:16.008Z</time>
      </trkpt>
      <trkpt lat="40.750949" lon="-3.857252">
        <ele>1281</ele>
        <time>2018-06-30T02:52:20.008Z</time>
      </trkpt>
      <trkpt lat="40.750949" lon="-3.857146">
        <ele>1281</ele>
        <time>2018-06-30T02:52:24.008Z</time>
      </trkpt>
      <trkpt lat="40.750914" lon="-3.857036">
        <ele>1281</ele>
        <time>2018-06-30T02:52:29.008Z</time>
      </trkpt>
      <trkpt lat="40.750911" lon="-3.856906">
        <ele>1279</ele>
        <time>2018-06-30T02:52:34.008Z</time>
      </trkpt>
      <trkpt lat="40.750894" lon="-3.856783">
        <ele>1279</ele>
        <time>2018-06-30T02:52:40.008Z</time>
      </trkpt>
      <trkpt lat="40.750865" lon="-3.856676">
        <ele>1278</ele>
        <time>2018-06-30T02:52:46.008Z</time>
      </trkpt>
      <trkpt lat="40.750857" lon="-3.856554">
        <ele>1278</ele>
        <time>2018-06-30T02:52:50.008Z</time>
      </trkpt>
      <trkpt lat="40.750861" lon="-3.856455">
        <ele>1277</ele>
        <time>2018-06-30T02:52:56.008Z</time>
      </trkpt>
      <trkpt lat="40.750883" lon="-3.856359">
        <ele>1277</ele>
        <time>2018-06-30T02:53:02.008Z</time>
      </trkpt>
      <trkpt lat="40.75088" lon="-3.856261">
        <ele>1277</ele>
        <time>2018-06-30T02:53:07.008Z</time>
      </trkpt>
      <trkpt lat="40.750876" lon="-3.856169">
        <ele>1277</ele>
        <time>2018-06-30T02:53:12.008Z</time>
      </trkpt>
      <trkpt lat="40.750875" lon="-3.856084">
        <ele>1277</ele>
        <time>2018-06-30T02:53:17.008Z</time>
      </trkpt>
      <trkpt lat="40.750883" lon="-3.855951">
        <ele>1277</ele>
        <time>2018-06-30T02:53:25.008Z</time>
      </trkpt>
      <trkpt lat="40.75089" lon="-3.85583">
        <ele>1278</ele>
        <time>2018-06-30T02:53:32.008Z</time>
      </trkpt>
      <trkpt lat="40.750923" lon="-3.855726">
        <ele>1278</ele>
        <time>2018-06-30T02:53:39.008Z</time>
      </trkpt>
      <trkpt lat="40.750948" lon="-3.855604">
        <ele>1278</ele>
        <time>2018-06-30T02:53:47.008Z</time>
      </trkpt>
      <trkpt lat="40.750961" lon="-3.855509">
        <ele>1279</ele>
        <time>2018-06-30T02:53:53.008Z</time>
      </trkpt>
      <trkpt lat="40.750982" lon="-3.855413">
        <ele>1279</ele>
        <time>2018-06-30T02:53:59.008Z</time>
      </trkpt>
      <trkpt lat="40.751009" lon="-3.85532">
        <ele>1281</ele>
        <time>2018-06-30T02:54:06.008Z</time>
      </trkpt>
      <trkpt lat="40.751018" lon="-3.855215">
        <ele>1281</ele>
        <time>2018-06-30T02:54:13.008Z</time>
      </trkpt>
      <trkpt lat="40.751055" lon="-3.855086">
        <ele>1281</ele>
        <time>2018-06-30T02:54:22.008Z</time>
      </trkpt>
      <trkpt lat="40.751075" lon="-3.854979">
        <ele>1281</ele>
        <time>2018-06-30T02:54:29.008Z</time>
      </trkpt>
      <trkpt lat="40.751121" lon="-3.854896">
        <ele>1283</ele>
        <time>2018-06-30T02:54:36.008Z</time>
      </trkpt>
      <trkpt lat="40.751116" lon="-3.854786">
        <ele>1284</ele>
        <time>2018-06-30T02:54:43.008Z</time>
      </trkpt>
      <trkpt lat="40.751153" lon="-3.854692">
        <ele>1284</ele>
        <time>2018-06-30T02:54:50.008Z</time>
      </trkpt>
      <trkpt lat="40.751169" lon="-3.854614">
        <ele>1284</ele>
        <time>2018-06-30T02:54:55.008Z</time>
      </trkpt>
      <trkpt lat="40.751167" lon="-3.854524">
        <ele>1284</ele>
        <time>2018-06-30T02:54:59.008Z</time>
      </trkpt>
      <trkpt lat="40.751151" lon="-3.854452">
        <ele>1283</ele>
        <time>2018-06-30T02:55:04.008Z</time>
      </trkpt>
      <trkpt lat="40.751104" lon="-3.854353">
        <ele>1283</ele>
        <time>2018-06-30T02:55:18.008Z</time>
      </trkpt>
      <trkpt lat="40.751157" lon="-3.854308">
        <ele>1281</ele>
        <time>2018-06-30T02:55:27.008Z</time>
      </trkpt>
      <trkpt lat="40.75119" lon="-3.854212">
        <ele>1279</ele>
        <time>2018-06-30T02:55:35.008Z</time>
      </trkpt>
      <trkpt lat="40.751233" lon="-3.854121">
        <ele>1273</ele>
        <time>2018-06-30T02:56:03.008Z</time>
      </trkpt>
      <trkpt lat="40.751196" lon="-3.853997">
        <ele>1271</ele>
        <time>2018-06-30T02:56:16.008Z</time>
      </trkpt>
      <trkpt lat="40.751191" lon="-3.853907">
        <ele>1269</ele>
        <time>2018-06-30T02:56:24.008Z</time>
      </trkpt>
      <trkpt lat="40.751204" lon="-3.853774">
        <ele>1265</ele>
        <time>2018-06-30T02:56:40.008Z</time>
      </trkpt>
      <trkpt lat="40.751274" lon="-3.853672">
        <ele>1262</ele>
        <time>2018-06-30T02:56:52.008Z</time>
      </trkpt>
      <trkpt lat="40.751295" lon="-3.853541">
        <ele>1258</ele>
        <time>2018-06-30T02:57:08.008Z</time>
      </trkpt>
      <trkpt lat="40.751307" lon="-3.853408">
        <ele>1255</ele>
        <time>2018-06-30T02:57:22.008Z</time>
      </trkpt>
      <trkpt lat="40.751288" lon="-3.853276">
        <ele>1251</ele>
        <time>2018-06-30T02:57:40.008Z</time>
      </trkpt>
      <trkpt lat="40.751288" lon="-3.853136">
        <ele>1248</ele>
        <time>2018-06-30T02:57:54.008Z</time>
      </trkpt>
      <trkpt lat="40.751286" lon="-3.853002">
        <ele>1244.8688862657</ele>
        <time>2018-06-30T02:58:11.008Z</time>
      </trkpt>
      <trkpt lat="40.751296" lon="-3.852867">
        <ele>1241</ele>
        <time>2018-06-30T02:58:25.008Z</time>
      </trkpt>
      <trkpt lat="40.751356" lon="-3.852758">
        <ele>1240</ele>
        <time>2018-06-30T02:58:38.008Z</time>
      </trkpt>
      <trkpt lat="40.7514" lon="-3.852635">
        <ele>1237</ele>
        <time>2018-06-30T02:58:52.008Z</time>
      </trkpt>
      <trkpt lat="40.751403" lon="-3.852504">
        <ele>1235</ele>
        <time>2018-06-30T02:59:05.008Z</time>
      </trkpt>
      <trkpt lat="40.751406" lon="-3.852369">
        <ele>1233</ele>
        <time>2018-06-30T02:59:16.008Z</time>
      </trkpt>
      <trkpt lat="40.751448" lon="-3.852245">
        <ele>1230</ele>
        <time>2018-06-30T02:59:27.008Z</time>
      </trkpt>
      <trkpt lat="40.751473" lon="-3.852108">
        <ele>1229</ele>
        <time>2018-06-30T02:59:39.008Z</time>
      </trkpt>
      <trkpt lat="40.751519" lon="-3.851985">
        <ele>1227</ele>
        <time>2018-06-30T02:59:50.008Z</time>
      </trkpt>
      <trkpt lat="40.751551" lon="-3.851926">
        <ele>1226</ele>
        <time>2018-06-30T02:59:55.008Z</time>
      </trkpt>
      <trkpt lat="40.751564" lon="-3.851879">
        <ele>1226</ele>
        <time>2018-06-30T02:59:58.008Z</time>
      </trkpt>
      <trkpt lat="40.751588" lon="-3.851748">
        <ele>1224</ele>
        <time>2018-06-30T03:00:08.008Z</time>
      </trkpt>
      <trkpt lat="40.751598" lon="-3.851703">
        <ele>1223.7377725314</ele>
        <time>2018-06-30T03:00:11.008Z</time>
      </trkpt>
      <trkpt lat="40.7516" lon="-3.851652">
        <ele>1222</ele>
        <time>2018-06-30T03:00:15.008Z</time>
      </trkpt>
      <trkpt lat="40.751627" lon="-3.851517">
        <ele>1220</ele>
        <time>2018-06-30T03:00:29.008Z</time>
      </trkpt>
      <trkpt lat="40.751693" lon="-3.851415">
        <ele>1218</ele>
        <time>2018-06-30T03:00:39.008Z</time>
      </trkpt>
      <trkpt lat="40.751711" lon="-3.851371">
        <ele>1217</ele>
        <time>2018-06-30T03:00:44.008Z</time>
      </trkpt>
      <trkpt lat="40.751704" lon="-3.851329">
        <ele>1217</ele>
        <time>2018-06-30T03:00:48.008Z</time>
      </trkpt>
      <trkpt lat="40.751713" lon="-3.851189">
        <ele>1213</ele>
        <time>2018-06-30T03:00:59.008Z</time>
      </trkpt>
      <trkpt lat="40.751688" lon="-3.851082">
        <ele>1209</ele>
        <time>2018-06-30T03:01:13.008Z</time>
      </trkpt>
      <trkpt lat="40.751707" lon="-3.851008">
        <ele>1209</ele>
        <time>2018-06-30T03:01:19.008Z</time>
      </trkpt>
      <trkpt lat="40.751724" lon="-3.85092">
        <ele>1208</ele>
        <time>2018-06-30T03:01:25.008Z</time>
      </trkpt>
      <trkpt lat="40.751743" lon="-3.850879">
        <ele>1208</ele>
        <time>2018-06-30T03:01:28.008Z</time>
      </trkpt>
      <trkpt lat="40.751756" lon="-3.85082">
        <ele>1206</ele>
        <time>2018-06-30T03:01:32.008Z</time>
      </trkpt>
      <trkpt lat="40.751785" lon="-3.850706">
        <ele>1206</ele>
        <time>2018-06-30T03:01:40.008Z</time>
      </trkpt>
      <trkpt lat="40.751851" lon="-3.850637">
        <ele>1204</ele>
        <time>2018-06-30T03:01:47.008Z</time>
      </trkpt>
      <trkpt lat="40.751877" lon="-3.850544">
        <ele>1203</ele>
        <time>2018-06-30T03:01:54.008Z</time>
      </trkpt>
      <trkpt lat="40.751887" lon="-3.85041">
        <ele>1200</ele>
        <time>2018-06-30T03:02:06.008Z</time>
      </trkpt>
      <trkpt lat="40.751939" lon="-3.850359">
        <ele>1200</ele>
        <time>2018-06-30T03:02:11.008Z</time>
      </trkpt>
      <trkpt lat="40.75192" lon="-3.850273">
        <ele>1200</ele>
        <time>2018-06-30T03:02:16.008Z</time>
      </trkpt>
      <trkpt lat="40.751949" lon="-3.850136">
        <ele>1199</ele>
        <time>2018-06-30T03:02:25.008Z</time>
      </trkpt>
      <trkpt lat="40.752017" lon="-3.850024">
        <ele>1196</ele>
        <time>2018-06-30T03:02:34.008Z</time>
      </trkpt>
      <trkpt lat="40.752057" lon="-3.8499">
        <ele>1194</ele>
        <time>2018-06-30T03:02:43.008Z</time>
      </trkpt>
      <trkpt lat="40.752112" lon="-3.849787">
        <ele>1192</ele>
        <time>2018-06-30T03:02:52.008Z</time>
      </trkpt>
      <trkpt lat="40.752124" lon="-3.849687">
        <ele>1192</ele>
        <time>2018-06-30T03:03:00.008Z</time>
      </trkpt>
      <trkpt lat="40.75216" lon="-3.849593">
        <ele>1189</ele>
        <time>2018-06-30T03:03:08.008Z</time>
      </trkpt>
      <trkpt lat="40.75218" lon="-3.849512">
        <ele>1188</ele>
        <time>2018-06-30T03:03:16.008Z</time>
      </trkpt>
      <trkpt lat="40.752189" lon="-3.849425">
        <ele>1186</ele>
        <time>2018-06-30T03:03:22.008Z</time>
      </trkpt>
      <trkpt lat="40.752208" lon="-3.849362">
        <ele>1186</ele>
        <time>2018-06-30T03:03:29.008Z</time>
      </trkpt>
      <trkpt lat="40.752227" lon="-3.849288">
        <ele>1185</ele>
        <time>2018-06-30T03:03:35.008Z</time>
      </trkpt>
      <trkpt lat="40.752257" lon="-3.849208">
        <ele>1184</ele>
        <time>2018-06-30T03:03:42.008Z</time>
      </trkpt>
      <trkpt lat="40.752214" lon="-3.849139">
        <ele>1184</ele>
        <time>2018-06-30T03:03:49.008Z</time>
      </trkpt>
      <trkpt lat="40.75218" lon="-3.849083">
        <ele>1183</ele>
        <time>2018-06-30T03:03:57.008Z</time>
      </trkpt>
      <trkpt lat="40.752188" lon="-3.849034">
        <ele>1179</ele>
        <time>2018-06-30T03:04:02.008Z</time>
      </trkpt>
      <trkpt lat="40.752222" lon="-3.848984">
        <ele>1179</ele>
        <time>2018-06-30T03:04:10.008Z</time>
      </trkpt>
      <trkpt lat="40.752324" lon="-3.84899">
        <ele>1176</ele>
        <time>2018-06-30T03:04:24.008Z</time>
      </trkpt>
      <trkpt lat="40.752399" lon="-3.8489">
        <ele>1173</ele>
        <time>2018-06-30T03:04:46.008Z</time>
      </trkpt>
      <trkpt lat="40.75241" lon="-3.84877">
        <ele>1171</ele>
        <time>2018-06-30T03:05:00.008Z</time>
      </trkpt>
      <trkpt lat="40.752438" lon="-3.848638">
        <ele>1167</ele>
        <time>2018-06-30T03:05:14.008Z</time>
      </trkpt>
      <trkpt lat="40.752426" lon="-3.848503">
        <ele>1166</ele>
        <time>2018-06-30T03:05:28.008Z</time>
      </trkpt>
      <trkpt lat="40.752372" lon="-3.848391">
        <ele>1161</ele>
        <time>2018-06-30T03:05:43.008Z</time>
      </trkpt>
      <trkpt lat="40.752379" lon="-3.848254">
        <ele>1159</ele>
        <time>2018-06-30T03:06:00.008Z</time>
      </trkpt>
      <trkpt lat="40.752349" lon="-3.848147">
        <ele>1154</ele>
        <time>2018-06-30T03:06:12.008Z</time>
      </trkpt>
      <trkpt lat="40.752354" lon="-3.84802">
        <ele>1153</ele>
        <time>2018-06-30T03:06:27.008Z</time>
      </trkpt>
      <trkpt lat="40.752408" lon="-3.847905">
        <ele>1148.8688862657</ele>
        <time>2018-06-30T03:06:41.008Z</time>
      </trkpt>
      <trkpt lat="40.752417" lon="-3.847797">
        <ele>1146.79795723783</ele>
        <time>2018-06-30T03:06:51.008Z</time>
      </trkpt>
      <trkpt lat="40.752397" lon="-3.847708">
        <ele>1146</ele>
        <time>2018-06-30T03:06:59.008Z</time>
      </trkpt>
      <trkpt lat="40.752346" lon="-3.847634">
        <ele>1143</ele>
        <time>2018-06-30T03:07:08.008Z</time>
      </trkpt>
      <trkpt lat="40.7523" lon="-3.847569">
        <ele>1142</ele>
        <time>2018-06-30T03:07:16.008Z</time>
      </trkpt>
      <trkpt lat="40.752262" lon="-3.847529">
        <ele>1141.39387171349</ele>
        <time>2018-06-30T03:07:21.008Z</time>
      </trkpt>
      <trkpt lat="40.752201" lon="-3.847518">
        <ele>1138</ele>
        <time>2018-06-30T03:07:29.008Z</time>
      </trkpt>
      <trkpt lat="40.752161" lon="-3.847462">
        <ele>1138</ele>
        <time>2018-06-30T03:07:37.008Z</time>
      </trkpt>
      <trkpt lat="40.752137" lon="-3.84738">
        <ele>1134</ele>
        <time>2018-06-30T03:07:47.008Z</time>
      </trkpt>
      <trkpt lat="40.752145" lon="-3.847311">
        <ele>1132</ele>
        <time>2018-06-30T03:07:55.008Z</time>
      </trkpt>
      <trkpt lat="40.752124" lon="-3.847231">
        <ele>1129</ele>
        <time>2018-06-30T03:08:05.008Z</time>
      </trkpt>
      <trkpt lat="40.752116" lon="-3.847157">
        <ele>1127</ele>
        <time>2018-06-30T03:08:14.008Z</time>
      </trkpt>
      <trkpt lat="40.752101" lon="-3.847093">
        <ele>1124</ele>
        <time>2018-06-30T03:08:22.008Z</time>
      </trkpt>
      <trkpt lat="40.75207" lon="-3.847023">
        <ele>1122</ele>
        <time>2018-06-30T03:08:30.008Z</time>
      </trkpt>
      <trkpt lat="40.752022" lon="-3.846949">
        <ele>1120</ele>
        <time>2018-06-30T03:08:43.008Z</time>
      </trkpt>
      <trkpt lat="40.751974" lon="-3.846891">
        <ele>1118</ele>
        <time>2018-06-30T03:08:54.008Z</time>
      </trkpt>
      <trkpt lat="40.751908" lon="-3.84684">
        <ele>1115</ele>
        <time>2018-06-30T03:09:04.008Z</time>
      </trkpt>
      <trkpt lat="40.751882" lon="-3.846782">
        <ele>1113</ele>
        <time>2018-06-30T03:09:12.008Z</time>
      </trkpt>
      <trkpt lat="40.751881" lon="-3.846687">
        <ele>1111</ele>
        <time>2018-06-30T03:09:23.008Z</time>
      </trkpt>
      <trkpt lat="40.751837" lon="-3.846612">
        <ele>1108</ele>
        <time>2018-06-30T03:09:33.008Z</time>
      </trkpt>
      <trkpt lat="40.751782" lon="-3.846565">
        <ele>1106</ele>
        <time>2018-06-30T03:09:41.008Z</time>
      </trkpt>
      <trkpt lat="40.751754" lon="-3.846475">
        <ele>1103.79795723783</ele>
        <time>2018-06-30T03:09:51.008Z</time>
      </trkpt>
      <trkpt lat="40.751715" lon="-3.846414">
        <ele>1101.57979933802</ele>
        <time>2018-06-30T03:10:01.008Z</time>
      </trkpt>
      <trkpt lat="40.751736" lon="-3.846333">
        <ele>1099</ele>
        <time>2018-06-30T03:10:09.008Z</time>
      </trkpt>
      <trkpt lat="40.751755" lon="-3.846251">
        <ele>1098</ele>
        <time>2018-06-30T03:10:17.008Z</time>
      </trkpt>
      <trkpt lat="40.75173" lon="-3.846176">
        <ele>1094.57255261209</ele>
        <time>2018-06-30T03:10:26.008Z</time>
      </trkpt>
      <trkpt lat="40.751738" lon="-3.846064">
        <ele>1091.78416090031</ele>
        <time>2018-06-30T03:10:36.008Z</time>
      </trkpt>
      <trkpt lat="40.751722" lon="-3.845998">
        <ele>1090</ele>
        <time>2018-06-30T03:10:43.008Z</time>
      </trkpt>
      <trkpt lat="40.751705" lon="-3.845925">
        <ele>1088</ele>
        <time>2018-06-30T03:10:52.008Z</time>
      </trkpt>
      <trkpt lat="40.751683" lon="-3.845863">
        <ele>1088</ele>
        <time>2018-06-30T03:11:00.008Z</time>
      </trkpt>
      <trkpt lat="40.751665" lon="-3.845807">
        <ele>1085</ele>
        <time>2018-06-30T03:11:06.008Z</time>
      </trkpt>
      <trkpt lat="40.751636" lon="-3.84575">
        <ele>1084</ele>
        <time>2018-06-30T03:11:16.008Z</time>
      </trkpt>
      <trkpt lat="40.751588" lon="-3.845716">
        <ele>1081</ele>
        <time>2018-06-30T03:11:24.008Z</time>
      </trkpt>
      <trkpt lat="40.751571" lon="-3.845644">
        <ele>1078</ele>
        <time>2018-06-30T03:11:33.008Z</time>
      </trkpt>
      <trkpt lat="40.751574" lon="-3.84557">
        <ele>1076</ele>
        <time>2018-06-30T03:11:41.008Z</time>
      </trkpt>
      <trkpt lat="40.751575" lon="-3.845489">
        <ele>1075</ele>
        <time>2018-06-30T03:11:49.008Z</time>
      </trkpt>
      <trkpt lat="40.751527" lon="-3.845451">
        <ele>1071</ele>
        <time>2018-06-30T03:11:57.008Z</time>
      </trkpt>
      <trkpt lat="40.751473" lon="-3.845427">
        <ele>1069</ele>
        <time>2018-06-30T03:12:07.008Z</time>
      </trkpt>
      <trkpt lat="40.751432" lon="-3.845381">
        <ele>1068</ele>
        <time>2018-06-30T03:12:18.008Z</time>
      </trkpt>
      <trkpt lat="40.751458" lon="-3.845274">
        <ele>1066</ele>
        <time>2018-06-30T03:12:28.008Z</time>
      </trkpt>
      <trkpt lat="40.75147" lon="-3.845187">
        <ele>1062</ele>
        <time>2018-06-30T03:12:37.008Z</time>
      </trkpt>
      <trkpt lat="40.751503" lon="-3.845084">
        <ele>1061</ele>
        <time>2018-06-30T03:12:47.008Z</time>
      </trkpt>
      <trkpt lat="40.751529" lon="-3.844988">
        <ele>1059</ele>
        <time>2018-06-30T03:12:57.008Z</time>
      </trkpt>
      <trkpt lat="40.751532" lon="-3.844898">
        <ele>1056</ele>
        <time>2018-06-30T03:13:05.008Z</time>
      </trkpt>
      <trkpt lat="40.751544" lon="-3.844808">
        <ele>1054</ele>
        <time>2018-06-30T03:13:13.008Z</time>
      </trkpt>
      <trkpt lat="40.751582" lon="-3.844719">
        <ele>1053</ele>
        <time>2018-06-30T03:13:22.008Z</time>
      </trkpt>
      <trkpt lat="40.751576" lon="-3.844623">
        <ele>1052.57979933802</ele>
        <time>2018-06-30T03:13:31.008Z</time>
      </trkpt>
      <trkpt lat="40.751545" lon="-3.84454">
        <ele>1050.60665879709</ele>
        <time>2018-06-30T03:13:41.008Z</time>
      </trkpt>
      <trkpt lat="40.751536" lon="-3.844443">
        <ele>1047</ele>
        <time>2018-06-30T03:13:49.008Z</time>
      </trkpt>
      <trkpt lat="40.75149" lon="-3.844376">
        <ele>1044</ele>
        <time>2018-06-30T03:13:57.008Z</time>
      </trkpt>
      <trkpt lat="40.751458" lon="-3.844332">
        <ele>1043</ele>
        <time>2018-06-30T03:14:03.008Z</time>
      </trkpt>
      <trkpt lat="40.751427" lon="-3.844267">
        <ele>1042.87864580337</ele>
        <time>2018-06-30T03:14:11.008Z</time>
      </trkpt>
      <trkpt lat="40.751461" lon="-3.84416">
        <ele>1041</ele>
        <time>2018-06-30T03:14:20.008Z</time>
      </trkpt>
      <trkpt lat="40.751493" lon="-3.844089">
        <ele>1039</ele>
        <time>2018-06-30T03:14:26.008Z</time>
      </trkpt>
      <trkpt lat="40.751532" lon="-3.844024">
        <ele>1038</ele>
        <time>2018-06-30T03:14:33.008Z</time>
      </trkpt>
      <trkpt lat="40.751556" lon="-3.843938">
        <ele>1038</ele>
        <time>2018-06-30T03:14:40.008Z</time>
      </trkpt>
      <trkpt lat="40.751584" lon="-3.84385">
        <ele>1036</ele>
        <time>2018-06-30T03:14:47.008Z</time>
      </trkpt>
      <trkpt lat="40.751611" lon="-3.843749">
        <ele>1032.78627630605</ele>
        <time>2018-06-30T03:14:56.008Z</time>
      </trkpt>
      <trkpt lat="40.751638" lon="-3.843665">
        <ele>1030</ele>
        <time>2018-06-30T03:15:04.008Z</time>
      </trkpt>
      <trkpt lat="40.751706" lon="-3.843588">
        <ele>1029</ele>
        <time>2018-06-30T03:15:12.008Z</time>
      </trkpt>
      <trkpt lat="40.751778" lon="-3.843528">
        <ele>1029</ele>
        <time>2018-06-30T03:15:17.008Z</time>
      </trkpt>
      <trkpt lat="40.75186" lon="-3.843475">
        <ele>1028</ele>
        <time>2018-06-30T03:15:23.008Z</time>
      </trkpt>
      <trkpt lat="40.751919" lon="-3.843423">
        <ele>1028</ele>
        <time>2018-06-30T03:15:28.008Z</time>
      </trkpt>
      <trkpt lat="40.751973" lon="-3.843364">
        <ele>1026</ele>
        <time>2018-06-30T03:15:33.008Z</time>
      </trkpt>
      <trkpt lat="40.752057" lon="-3.843354">
        <ele>1023</ele>
        <time>2018-06-30T03:15:42.008Z</time>
      </trkpt>
      <trkpt lat="40.752109" lon="-3.843239">
        <ele>1022</ele>
        <time>2018-06-30T03:16:00.008Z</time>
      </trkpt>
      <trkpt lat="40.752151" lon="-3.843117">
        <ele>1016</ele>
        <time>2018-06-30T03:16:16.008Z</time>
      </trkpt>
      <trkpt lat="40.752191" lon="-3.842991">
        <ele>1014</ele>
        <time>2018-06-30T03:16:30.008Z</time>
      </trkpt>
      <trkpt lat="40.752156" lon="-3.842882">
        <ele>1013</ele>
        <time>2018-06-30T03:16:40.008Z</time>
      </trkpt>
      <trkpt lat="40.752155" lon="-3.842744">
        <ele>1009</ele>
        <time>2018-06-30T03:16:50.008Z</time>
      </trkpt>
      <trkpt lat="40.752179" lon="-3.842601">
        <ele>1007</ele>
        <time>2018-06-30T03:16:58.008Z</time>
      </trkpt>
      <trkpt lat="40.752138" lon="-3.842478">
        <ele>1005</ele>
        <time>2018-06-30T03:17:05.008Z</time>
      </trkpt>
      <trkpt lat="40.752106" lon="-3.842354">
        <ele>1004.8688862657</ele>
        <time>2018-06-30T03:17:11.008Z</time>
      </trkpt>
      <trkpt lat="40.752107" lon="-3.842277">
        <ele>1004</ele>
        <time>2018-06-30T03:17:18.008Z</time>
      </trkpt>
      <trkpt lat="40.752138" lon="-3.84221">
        <ele>1002</ele>
        <time>2018-06-30T03:17:23.008Z</time>
      </trkpt>
      <trkpt lat="40.752187" lon="-3.842182">
        <ele>1002</ele>
        <time>2018-06-30T03:17:29.008Z</time>
      </trkpt>
      <trkpt lat="40.752243" lon="-3.842149">
        <ele>1001</ele>
        <time>2018-06-30T03:17:34.008Z</time>
      </trkpt>
      <trkpt lat="40.75231" lon="-3.842144">
        <ele>1000.7377725314</ele>
        <time>2018-06-30T03:17:41.008Z</time>
      </trkpt>
      <trkpt lat="40.752396" lon="-3.842101">
        <ele>996</ele>
        <time>2018-06-30T03:17:53.008Z</time>
      </trkpt>
      <trkpt lat="40.752484" lon="-3.842028">
        <ele>992</ele>
        <time>2018-06-30T03:18:07.008Z</time>
      </trkpt>
      <trkpt lat="40.752548" lon="-3.84192">
        <ele>987</ele>
        <time>2018-06-30T03:18:25.008Z</time>
      </trkpt>
      <trkpt lat="40.752583" lon="-3.841787">
        <ele>985</ele>
        <time>2018-06-30T03:18:37.008Z</time>
      </trkpt>
      <trkpt lat="40.75259" lon="-3.841649">
        <ele>982</ele>
        <time>2018-06-30T03:18:48.008Z</time>
      </trkpt>
      <trkpt lat="40.752634" lon="-3.841531">
        <ele>977</ele>
        <time>2018-06-30T03:19:04.008Z</time>
      </trkpt>
      <trkpt lat="40.752663" lon="-3.8414">
        <ele>975</ele>
        <time>2018-06-30T03:19:16.008Z</time>
      </trkpt>
      <trkpt lat="40.752684" lon="-3.841265">
        <ele>974</ele>
        <time>2018-06-30T03:19:26.008Z</time>
      </trkpt>
      <trkpt lat="40.75274" lon="-3.841155">
        <ele>970.568321800623</ele>
        <time>2018-06-30T03:19:36.008Z</time>
      </trkpt>
      <trkpt lat="40.752796" lon="-3.841064">
        <ele>967</ele>
        <time>2018-06-30T03:19:43.008Z</time>
      </trkpt>
      <trkpt lat="40.752892" lon="-3.841034">
        <ele>965</ele>
        <time>2018-06-30T03:19:52.008Z</time>
      </trkpt>
      <trkpt lat="40.753001" lon="-3.841007">
        <ele>962.789899669011</ele>
        <time>2018-06-30T03:20:01.008Z</time>
      </trkpt>
      <trkpt lat="40.753107" lon="-3.84099">
        <ele>962</ele>
        <time>2018-06-30T03:20:10.008Z</time>
      </trkpt>
      <trkpt lat="40.753194" lon="-3.841068">
        <ele>961</ele>
        <time>2018-06-30T03:20:18.008Z</time>
      </trkpt>
      <trkpt lat="40.753297" lon="-3.841067">
        <ele>960</ele>
        <time>2018-06-30T03:20:25.008Z</time>
      </trkpt>
      <trkpt lat="40.753406" lon="-3.841047">
        <ele>959.789899669011</ele>
        <time>2018-06-30T03:20:31.008Z</time>
      </trkpt>
      <trkpt lat="40.753507" lon="-3.841004">
        <ele>959</ele>
        <time>2018-06-30T03:20:36.008Z</time>
      </trkpt>
      <trkpt lat="40.753615" lon="-3.841042">
        <ele>957</ele>
        <time>2018-06-30T03:20:42.008Z</time>
      </trkpt>
      <trkpt lat="40.753714" lon="-3.841115">
        <ele>957</ele>
        <time>2018-06-30T03:20:48.008Z</time>
      </trkpt>
      <trkpt lat="40.753777" lon="-3.841227">
        <ele>956</ele>
        <time>2018-06-30T03:20:55.008Z</time>
      </trkpt>
      <trkpt lat="40.753881" lon="-3.84123">
        <ele>954.20204276217</ele>
        <time>2018-06-30T03:21:21.008Z</time>
      </trkpt>
      <trkpt lat="40.753917" lon="-3.841096">
        <ele>956</ele>
        <time>2018-06-30T03:21:32.008Z</time>
      </trkpt>
      <trkpt lat="40.753915" lon="-3.840952">
        <ele>956</ele>
        <time>2018-06-30T03:21:41.008Z</time>
      </trkpt>
      <trkpt lat="40.753938" lon="-3.84081">
        <ele>956</ele>
        <time>2018-06-30T03:21:50.008Z</time>
      </trkpt>
      <trkpt lat="40.753979" lon="-3.84068">
        <ele>956</ele>
        <time>2018-06-30T03:21:58.008Z</time>
      </trkpt>
      <trkpt lat="40.754045" lon="-3.840568">
        <ele>956</ele>
        <time>2018-06-30T03:22:06.008Z</time>
      </trkpt>
      <trkpt lat="40.754129" lon="-3.84048">
        <ele>958</ele>
        <time>2018-06-30T03:22:16.008Z</time>
      </trkpt>
      <trkpt lat="40.754208" lon="-3.840397">
        <ele>960</ele>
        <time>2018-06-30T03:22:26.008Z</time>
      </trkpt>
      <trkpt lat="40.754264" lon="-3.840285">
        <ele>961</ele>
        <time>2018-06-30T03:22:34.008Z</time>
      </trkpt>
      <trkpt lat="40.754328" lon="-3.840171">
        <ele>961</ele>
        <time>2018-06-30T03:22:42.008Z</time>
      </trkpt>
      <trkpt lat="40.754373" lon="-3.840047">
        <ele>961</ele>
        <time>2018-06-30T03:22:50.008Z</time>
      </trkpt>
      <trkpt lat="40.75438" lon="-3.839914">
        <ele>961</ele>
        <time>2018-06-30T03:22:57.008Z</time>
      </trkpt>
      <trkpt lat="40.754415" lon="-3.839791">
        <ele>961</ele>
        <time>2018-06-30T03:23:04.008Z</time>
      </trkpt>
      <trkpt lat="40.754463" lon="-3.839668">
        <ele>962</ele>
        <time>2018-06-30T03:23:12.008Z</time>
      </trkpt>
      <trkpt lat="40.754531" lon="-3.839551">
        <ele>962</ele>
        <time>2018-06-30T03:23:20.008Z</time>
      </trkpt>
      <trkpt lat="40.754575" lon="-3.839438">
        <ele>963</ele>
        <time>2018-06-30T03:23:27.008Z</time>
      </trkpt>
      <trkpt lat="40.754617" lon="-3.839346">
        <ele>963</ele>
        <time>2018-06-30T03:23:34.008Z</time>
      </trkpt>
      <trkpt lat="40.754642" lon="-3.839204">
        <ele>964</ele>
        <time>2018-06-30T03:23:45.008Z</time>
      </trkpt>
      <trkpt lat="40.754637" lon="-3.839074">
        <ele>965</ele>
        <time>2018-06-30T03:23:53.008Z</time>
      </trkpt>
      <trkpt lat="40.754635" lon="-3.838931">
        <ele>965</ele>
        <time>2018-06-30T03:24:01.008Z</time>
      </trkpt>
      <trkpt lat="40.754649" lon="-3.838794">
        <ele>965</ele>
        <time>2018-06-30T03:24:08.008Z</time>
      </trkpt>
      <trkpt lat="40.754656" lon="-3.838658">
        <ele>965</ele>
        <time>2018-06-30T03:24:15.008Z</time>
      </trkpt>
      <trkpt lat="40.754664" lon="-3.838524">
        <ele>964</ele>
        <time>2018-06-30T03:24:22.008Z</time>
      </trkpt>
      <trkpt lat="40.754663" lon="-3.838404">
        <ele>964</ele>
        <time>2018-06-30T03:24:28.008Z</time>
      </trkpt>
      <trkpt lat="40.75465" lon="-3.838288">
        <ele>963</ele>
        <time>2018-06-30T03:24:33.008Z</time>
      </trkpt>
      <trkpt lat="40.754637" lon="-3.83818">
        <ele>963</ele>
        <time>2018-06-30T03:24:39.008Z</time>
      </trkpt>
      <trkpt lat="40.754618" lon="-3.838081">
        <ele>962</ele>
        <time>2018-06-30T03:24:45.008Z</time>
      </trkpt>
      <trkpt lat="40.754598" lon="-3.837962">
        <ele>961.393871713491</ele>
        <time>2018-06-30T03:24:51.008Z</time>
      </trkpt>
      <trkpt lat="40.754599" lon="-3.837872">
        <ele>958.786276306047</ele>
        <time>2018-06-30T03:24:56.008Z</time>
      </trkpt>
      <trkpt lat="40.754591" lon="-3.837778">
        <ele>957.789899669011</ele>
        <time>2018-06-30T03:25:01.008Z</time>
      </trkpt>
      <trkpt lat="40.754596" lon="-3.837707">
        <ele>957</ele>
        <time>2018-06-30T03:25:05.008Z</time>
      </trkpt>
      <trkpt lat="40.754606" lon="-3.83764">
        <ele>957</ele>
        <time>2018-06-30T03:25:09.008Z</time>
      </trkpt>
      <trkpt lat="40.754601" lon="-3.837569">
        <ele>957</ele>
        <time>2018-06-30T03:25:13.008Z</time>
      </trkpt>
      <trkpt lat="40.754596" lon="-3.837497">
        <ele>957</ele>
        <time>2018-06-30T03:25:18.008Z</time>
      </trkpt>
      <trkpt lat="40.754609" lon="-3.837433">
        <ele>958</ele>
        <time>2018-06-30T03:25:22.008Z</time>
      </trkpt>
      <trkpt lat="40.754617" lon="-3.837352">
        <ele>958</ele>
        <time>2018-06-30T03:25:27.008Z</time>
      </trkpt>
      <trkpt lat="40.754627" lon="-3.83727">
        <ele>959</ele>
        <time>2018-06-30T03:25:32.008Z</time>
      </trkpt>
      <trkpt lat="40.754635" lon="-3.8372">
        <ele>959</ele>
        <time>2018-06-30T03:25:36.008Z</time>
      </trkpt>
      <trkpt lat="40.754633" lon="-3.837125">
        <ele>959</ele>
        <time>2018-06-30T03:25:40.008Z</time>
      </trkpt>
      <trkpt lat="40.754618" lon="-3.837046">
        <ele>959</ele>
        <time>2018-06-30T03:25:45.008Z</time>
      </trkpt>
      <trkpt lat="40.754564" lon="-3.836997">
        <ele>959</ele>
        <time>2018-06-30T03:25:50.008Z</time>
      </trkpt>
      <trkpt lat="40.754513" lon="-3.836946">
        <ele>959</ele>
        <time>2018-06-30T03:25:56.008Z</time>
      </trkpt>
      <trkpt lat="40.754474" lon="-3.836818">
        <ele>961</ele>
        <time>2018-06-30T03:26:07.008Z</time>
      </trkpt>
      <trkpt lat="40.754484" lon="-3.836676">
        <ele>962</ele>
        <time>2018-06-30T03:26:19.008Z</time>
      </trkpt>
      <trkpt lat="40.754485" lon="-3.83654">
        <ele>963</ele>
        <time>2018-06-30T03:26:29.008Z</time>
      </trkpt>
      <trkpt lat="40.754499" lon="-3.836476">
        <ele>965</ele>
        <time>2018-06-30T03:26:35.008Z</time>
      </trkpt>
      <trkpt lat="40.754519" lon="-3.836402">
        <ele>968</ele>
        <time>2018-06-30T03:26:43.008Z</time>
      </trkpt>
      <trkpt lat="40.754536" lon="-3.836338">
        <ele>969</ele>
        <time>2018-06-30T03:26:49.008Z</time>
      </trkpt>
      <trkpt lat="40.754548" lon="-3.836265">
        <ele>971</ele>
        <time>2018-06-30T03:26:55.008Z</time>
      </trkpt>
      <trkpt lat="40.754561" lon="-3.836202">
        <ele>971.210100330989</ele>
        <time>2018-06-30T03:27:01.008Z</time>
      </trkpt>
      <trkpt lat="40.754579" lon="-3.836127">
        <ele>972</ele>
        <time>2018-06-30T03:27:07.008Z</time>
      </trkpt>
      <trkpt lat="40.754602" lon="-3.836026">
        <ele>973</ele>
        <time>2018-06-30T03:27:16.008Z</time>
      </trkpt>
      <trkpt lat="40.754643" lon="-3.835948">
        <ele>974</ele>
        <time>2018-06-30T03:27:22.008Z</time>
      </trkpt>
      <trkpt lat="40.754657" lon="-3.835869">
        <ele>974</ele>
        <time>2018-06-30T03:27:28.008Z</time>
      </trkpt>
      <trkpt lat="40.754665" lon="-3.835791">
        <ele>975</ele>
        <time>2018-06-30T03:27:34.008Z</time>
      </trkpt>
      <trkpt lat="40.754664" lon="-3.835725">
        <ele>975</ele>
        <time>2018-06-30T03:27:39.008Z</time>
      </trkpt>
      <trkpt lat="40.754667" lon="-3.835657">
        <ele>976</ele>
        <time>2018-06-30T03:27:43.008Z</time>
      </trkpt>
      <trkpt lat="40.75468" lon="-3.835595">
        <ele>976</ele>
        <time>2018-06-30T03:27:46.008Z</time>
      </trkpt>
      <trkpt lat="40.754694" lon="-3.83553">
        <ele>976</ele>
        <time>2018-06-30T03:27:49.008Z</time>
      </trkpt>
      <trkpt lat="40.754691" lon="-3.835444">
        <ele>974</ele>
        <time>2018-06-30T03:27:53.008Z</time>
      </trkpt>
      <trkpt lat="40.754694" lon="-3.835372">
        <ele>974</ele>
        <time>2018-06-30T03:27:56.008Z</time>
      </trkpt>
      <trkpt lat="40.754715" lon="-3.835296">
        <ele>974</ele>
        <time>2018-06-30T03:28:00.008Z</time>
      </trkpt>
      <trkpt lat="40.754745" lon="-3.835234">
        <ele>971</ele>
        <time>2018-06-30T03:28:03.008Z</time>
      </trkpt>
      <trkpt lat="40.754774" lon="-3.835167">
        <ele>971</ele>
        <time>2018-06-30T03:28:06.008Z</time>
      </trkpt>
      <trkpt lat="40.754799" lon="-3.835089">
        <ele>971</ele>
        <time>2018-06-30T03:28:09.008Z</time>
      </trkpt>
      <trkpt lat="40.754818" lon="-3.835006">
        <ele>970</ele>
        <time>2018-06-30T03:28:12.008Z</time>
      </trkpt>
      <trkpt lat="40.75483" lon="-3.834898">
        <ele>970</ele>
        <time>2018-06-30T03:28:19.008Z</time>
      </trkpt>
      <trkpt lat="40.754835" lon="-3.83481">
        <ele>970</ele>
        <time>2018-06-30T03:28:25.008Z</time>
      </trkpt>
      <trkpt lat="40.754829" lon="-3.834728">
        <ele>970.420200661978</ele>
        <time>2018-06-30T03:28:31.008Z</time>
      </trkpt>
      <trkpt lat="40.754853" lon="-3.834631">
        <ele>972</ele>
        <time>2018-06-30T03:28:40.008Z</time>
      </trkpt>
      <trkpt lat="40.754854" lon="-3.834543">
        <ele>973</ele>
        <time>2018-06-30T03:28:46.008Z</time>
      </trkpt>
      <trkpt lat="40.754843" lon="-3.834457">
        <ele>974</ele>
        <time>2018-06-30T03:28:52.008Z</time>
      </trkpt>
      <trkpt lat="40.754859" lon="-3.834378">
        <ele>974</ele>
        <time>2018-06-30T03:28:58.008Z</time>
      </trkpt>
      <trkpt lat="40.754873" lon="-3.834312">
        <ele>976</ele>
        <time>2018-06-30T03:29:03.008Z</time>
      </trkpt>
      <trkpt lat="40.754886" lon="-3.834234">
        <ele>976</ele>
        <time>2018-06-30T03:29:08.008Z</time>
      </trkpt>
      <trkpt lat="40.754887" lon="-3.834155">
        <ele>977</ele>
        <time>2018-06-30T03:29:13.008Z</time>
      </trkpt>
      <trkpt lat="40.754897" lon="-3.834086">
        <ele>977</ele>
        <time>2018-06-30T03:29:18.008Z</time>
      </trkpt>
      <trkpt lat="40.754898" lon="-3.834026">
        <ele>979</ele>
        <time>2018-06-30T03:29:22.008Z</time>
      </trkpt>
      <trkpt lat="40.754901" lon="-3.833963">
        <ele>979</ele>
        <time>2018-06-30T03:29:26.008Z</time>
      </trkpt>
      <trkpt lat="40.754899" lon="-3.833899">
        <ele>979</ele>
        <time>2018-06-30T03:29:30.008Z</time>
      </trkpt>
      <trkpt lat="40.754896" lon="-3.833834">
        <ele>979</ele>
        <time>2018-06-30T03:29:34.008Z</time>
      </trkpt>
      <trkpt lat="40.754895" lon="-3.833755">
        <ele>979</ele>
        <time>2018-06-30T03:29:39.008Z</time>
      </trkpt>
      <trkpt lat="40.754899" lon="-3.833662">
        <ele>979</ele>
        <time>2018-06-30T03:29:44.008Z</time>
      </trkpt>
      <trkpt lat="40.754896" lon="-3.833591">
        <ele>979</ele>
        <time>2018-06-30T03:29:47.008Z</time>
      </trkpt>
      <trkpt lat="40.75491" lon="-3.833513">
        <ele>979</ele>
        <time>2018-06-30T03:29:50.008Z</time>
      </trkpt>
      <trkpt lat="40.754928" lon="-3.833442">
        <ele>979</ele>
        <time>2018-06-30T03:29:54.008Z</time>
      </trkpt>
      <trkpt lat="40.754952" lon="-3.833369">
        <ele>979</ele>
        <time>2018-06-30T03:29:58.008Z</time>
      </trkpt>
      <trkpt lat="40.754977" lon="-3.833293">
        <ele>977</ele>
        <time>2018-06-30T03:30:02.008Z</time>
      </trkpt>
      <trkpt lat="40.75499" lon="-3.83321">
        <ele>977</ele>
        <time>2018-06-30T03:30:07.008Z</time>
      </trkpt>
      <trkpt lat="40.754997" lon="-3.833134">
        <ele>979</ele>
        <time>2018-06-30T03:30:12.008Z</time>
      </trkpt>
      <trkpt lat="40.754997" lon="-3.833063">
        <ele>979</ele>
        <time>2018-06-30T03:30:17.008Z</time>
      </trkpt>
      <trkpt lat="40.754977" lon="-3.833006">
        <ele>979.404085524339</ele>
        <time>2018-06-30T03:30:21.008Z</time>
      </trkpt>
      <trkpt lat="40.754948" lon="-3.832943">
        <ele>981</ele>
        <time>2018-06-30T03:30:25.008Z</time>
      </trkpt>
      <trkpt lat="40.754926" lon="-3.832881">
        <ele>981</ele>
        <time>2018-06-30T03:30:29.008Z</time>
      </trkpt>
      <trkpt lat="40.754901" lon="-3.832823">
        <ele>981</ele>
        <time>2018-06-30T03:30:33.008Z</time>
      </trkpt>
      <trkpt lat="40.754872" lon="-3.832768">
        <ele>981</ele>
        <time>2018-06-30T03:30:37.008Z</time>
      </trkpt>
      <trkpt lat="40.754851" lon="-3.832713">
        <ele>981</ele>
        <time>2018-06-30T03:30:41.008Z</time>
      </trkpt>
      <trkpt lat="40.754841" lon="-3.832656">
        <ele>981</ele>
        <time>2018-06-30T03:30:45.008Z</time>
      </trkpt>
      <trkpt lat="40.75485" lon="-3.832595">
        <ele>981</ele>
        <time>2018-06-30T03:30:49.008Z</time>
      </trkpt>
      <trkpt lat="40.754863" lon="-3.832542">
        <ele>983</ele>
        <time>2018-06-30T03:30:53.008Z</time>
      </trkpt>
      <trkpt lat="40.754881" lon="-3.832478">
        <ele>983</ele>
        <time>2018-06-30T03:30:58.008Z</time>
      </trkpt>
      <trkpt lat="40.754901" lon="-3.83241">
        <ele>985</ele>
        <time>2018-06-30T03:31:03.008Z</time>
      </trkpt>
      <trkpt lat="40.754916" lon="-3.83234">
        <ele>985</ele>
        <time>2018-06-30T03:31:08.008Z</time>
      </trkpt>
      <trkpt lat="40.754931" lon="-3.832271">
        <ele>987</ele>
        <time>2018-06-30T03:31:13.008Z</time>
      </trkpt>
      <trkpt lat="40.754939" lon="-3.832199">
        <ele>987</ele>
        <time>2018-06-30T03:31:18.008Z</time>
      </trkpt>
      <trkpt lat="40.754953" lon="-3.832132">
        <ele>988</ele>
        <time>2018-06-30T03:31:23.008Z</time>
      </trkpt>
      <trkpt lat="40.754958" lon="-3.832053">
        <ele>988</ele>
        <time>2018-06-30T03:31:28.008Z</time>
      </trkpt>
      <trkpt lat="40.754961" lon="-3.831973">
        <ele>989</ele>
        <time>2018-06-30T03:31:33.008Z</time>
      </trkpt>
      <trkpt lat="40.754964" lon="-3.831896">
        <ele>989</ele>
        <time>2018-06-30T03:31:38.008Z</time>
      </trkpt>
      <trkpt lat="40.754956" lon="-3.831821">
        <ele>990</ele>
        <time>2018-06-30T03:31:43.008Z</time>
      </trkpt>
      <trkpt lat="40.75495" lon="-3.831741">
        <ele>990</ele>
        <time>2018-06-30T03:31:48.008Z</time>
      </trkpt>
      <trkpt lat="40.754951" lon="-3.831656">
        <ele>991</ele>
        <time>2018-06-30T03:31:53.008Z</time>
      </trkpt>
      <trkpt lat="40.754959" lon="-3.831572">
        <ele>991</ele>
        <time>2018-06-30T03:31:58.008Z</time>
      </trkpt>
      <trkpt lat="40.75497" lon="-3.831471">
        <ele>992</ele>
        <time>2018-06-30T03:32:04.008Z</time>
      </trkpt>
      <trkpt lat="40.754986" lon="-3.831383">
        <ele>992</ele>
        <time>2018-06-30T03:32:09.008Z</time>
      </trkpt>
      <trkpt lat="40.755001" lon="-3.831282">
        <ele>992.789899669011</ele>
        <time>2018-06-30T03:32:13.008Z</time>
      </trkpt>
      <trkpt lat="40.755038" lon="-3.83117">
        <ele>992</ele>
        <time>2018-06-30T03:32:17.008Z</time>
      </trkpt>
      <trkpt lat="40.755063" lon="-3.831081">
        <ele>992</ele>
        <time>2018-06-30T03:32:20.008Z</time>
      </trkpt>
      <trkpt lat="40.755082" lon="-3.83099">
        <ele>991</ele>
        <time>2018-06-30T03:32:23.008Z</time>
      </trkpt>
      <trkpt lat="40.755101" lon="-3.830904">
        <ele>991</ele>
        <time>2018-06-30T03:32:26.008Z</time>
      </trkpt>
      <trkpt lat="40.75513" lon="-3.830814">
        <ele>991</ele>
        <time>2018-06-30T03:32:29.008Z</time>
      </trkpt>
      <trkpt lat="40.755174" lon="-3.830718">
        <ele>989</ele>
        <time>2018-06-30T03:32:33.008Z</time>
      </trkpt>
      <trkpt lat="40.755224" lon="-3.830627">
        <ele>989</ele>
        <time>2018-06-30T03:32:37.008Z</time>
      </trkpt>
      <trkpt lat="40.755272" lon="-3.830538">
        <ele>988.868886265698</ele>
        <time>2018-06-30T03:32:41.008Z</time>
      </trkpt>
      <trkpt lat="40.755298" lon="-3.830448">
        <ele>988</ele>
        <time>2018-06-30T03:32:45.008Z</time>
      </trkpt>
      <trkpt lat="40.755315" lon="-3.830375">
        <ele>988</ele>
        <time>2018-06-30T03:32:49.008Z</time>
      </trkpt>
      <trkpt lat="40.755318" lon="-3.830284">
        <ele>985</ele>
        <time>2018-06-30T03:32:53.008Z</time>
      </trkpt>
      <trkpt lat="40.755331" lon="-3.830209">
        <ele>984.572552612095</ele>
        <time>2018-06-30T03:32:56.008Z</time>
      </trkpt>
      <trkpt lat="40.755332" lon="-3.830126">
        <ele>983</ele>
        <time>2018-06-30T03:32:59.008Z</time>
      </trkpt>
      <trkpt lat="40.75533" lon="-3.830038">
        <ele>981</ele>
        <time>2018-06-30T03:33:02.008Z</time>
      </trkpt>
      <trkpt lat="40.755335" lon="-3.829954">
        <ele>981</ele>
        <time>2018-06-30T03:33:05.008Z</time>
      </trkpt>
      <trkpt lat="40.755335" lon="-3.829872">
        <ele>981</ele>
        <time>2018-06-30T03:33:08.008Z</time>
      </trkpt>
      <trkpt lat="40.75533" lon="-3.829795">
        <ele>980.737772531395</ele>
        <time>2018-06-30T03:33:11.008Z</time>
      </trkpt>
      <trkpt lat="40.755334" lon="-3.829698">
        <ele>979</ele>
        <time>2018-06-30T03:33:15.008Z</time>
      </trkpt>
      <trkpt lat="40.755358" lon="-3.829584">
        <ele>979</ele>
        <time>2018-06-30T03:33:20.008Z</time>
      </trkpt>
      <trkpt lat="40.755393" lon="-3.829478">
        <ele>977</ele>
        <time>2018-06-30T03:33:24.008Z</time>
      </trkpt>
      <trkpt lat="40.755421" lon="-3.829394">
        <ele>976</ele>
        <time>2018-06-30T03:33:27.008Z</time>
      </trkpt>
      <trkpt lat="40.755494" lon="-3.829272">
        <ele>975</ele>
        <time>2018-06-30T03:33:32.008Z</time>
      </trkpt>
      <trkpt lat="40.755589" lon="-3.829225">
        <ele>975</ele>
        <time>2018-06-30T03:33:37.008Z</time>
      </trkpt>
      <trkpt lat="40.755679" lon="-3.829244">
        <ele>975</ele>
        <time>2018-06-30T03:33:43.008Z</time>
      </trkpt>
      <trkpt lat="40.755757" lon="-3.829258">
        <ele>975</ele>
        <time>2018-06-30T03:33:49.008Z</time>
      </trkpt>
      <trkpt lat="40.755821" lon="-3.829242">
        <ele>976</ele>
        <time>2018-06-30T03:33:54.008Z</time>
      </trkpt>
      <trkpt lat="40.755894" lon="-3.829206">
        <ele>975</ele>
        <time>2018-06-30T03:34:00.008Z</time>
      </trkpt>
      <trkpt lat="40.755955" lon="-3.8292">
        <ele>976</ele>
        <time>2018-06-30T03:34:05.008Z</time>
      </trkpt>
      <trkpt lat="40.756012" lon="-3.829206">
        <ele>976</ele>
        <time>2018-06-30T03:34:10.008Z</time>
      </trkpt>
      <trkpt lat="40.756076" lon="-3.829209">
        <ele>976</ele>
        <time>2018-06-30T03:34:15.008Z</time>
      </trkpt>
      <trkpt lat="40.756128" lon="-3.829206">
        <ele>976</ele>
        <time>2018-06-30T03:34:19.008Z</time>
      </trkpt>
      <trkpt lat="40.756178" lon="-3.829192">
        <ele>977</ele>
        <time>2018-06-30T03:34:23.008Z</time>
      </trkpt>
      <trkpt lat="40.756242" lon="-3.829152">
        <ele>977</ele>
        <time>2018-06-30T03:34:28.008Z</time>
      </trkpt>
      <trkpt lat="40.756286" lon="-3.829101">
        <ele>977</ele>
        <time>2018-06-30T03:34:32.008Z</time>
      </trkpt>
      <trkpt lat="40.756334" lon="-3.829043">
        <ele>977</ele>
        <time>2018-06-30T03:34:37.008Z</time>
      </trkpt>
      <trkpt lat="40.756378" lon="-3.828977">
        <ele>979</ele>
        <time>2018-06-30T03:34:42.008Z</time>
      </trkpt>
      <trkpt lat="40.756414" lon="-3.828918">
        <ele>979</ele>
        <time>2018-06-30T03:34:45.008Z</time>
      </trkpt>
      <trkpt lat="40.756458" lon="-3.828849">
        <ele>979</ele>
        <time>2018-06-30T03:34:48.008Z</time>
      </trkpt>
      <trkpt lat="40.756521" lon="-3.82877">
        <ele>978</ele>
        <time>2018-06-30T03:34:52.008Z</time>
      </trkpt>
      <trkpt lat="40.756594" lon="-3.828686">
        <ele>978</ele>
        <time>2018-06-30T03:34:56.008Z</time>
      </trkpt>
      <trkpt lat="40.756682" lon="-3.828638">
        <ele>978</ele>
        <time>2018-06-30T03:35:00.008Z</time>
      </trkpt>
      <trkpt lat="40.75678" lon="-3.828627">
        <ele>978</ele>
        <time>2018-06-30T03:35:05.008Z</time>
      </trkpt>
      <trkpt lat="40.756856" lon="-3.828581">
        <ele>978</ele>
        <time>2018-06-30T03:35:09.008Z</time>
      </trkpt>
      <trkpt lat="40.756935" lon="-3.828533">
        <ele>978</ele>
        <time>2018-06-30T03:35:13.008Z</time>
      </trkpt>
      <trkpt lat="40.757027" lon="-3.828489">
        <ele>978</ele>
        <time>2018-06-30T03:35:17.008Z</time>
      </trkpt>
      <trkpt lat="40.757114" lon="-3.828454">
        <ele>978.404085524339</ele>
        <time>2018-06-30T03:35:21.008Z</time>
      </trkpt>
      <trkpt lat="40.757181" lon="-3.828425">
        <ele>980</ele>
        <time>2018-06-30T03:35:25.008Z</time>
      </trkpt>
      <trkpt lat="40.757267" lon="-3.828372">
        <ele>980</ele>
        <time>2018-06-30T03:35:40.008Z</time>
      </trkpt>
      <trkpt lat="40.757328" lon="-3.828374">
        <ele>979</ele>
        <time>2018-06-30T03:35:45.008Z</time>
      </trkpt>
      <trkpt lat="40.75738" lon="-3.828366">
        <ele>979</ele>
        <time>2018-06-30T03:35:50.008Z</time>
      </trkpt>
      <trkpt lat="40.757422" lon="-3.828338">
        <ele>980</ele>
        <time>2018-06-30T03:35:54.008Z</time>
      </trkpt>
      <trkpt lat="40.757462" lon="-3.828297">
        <ele>980</ele>
        <time>2018-06-30T03:35:58.008Z</time>
      </trkpt>
      <trkpt lat="40.757544" lon="-3.828239">
        <ele>980</ele>
        <time>2018-06-30T03:36:05.008Z</time>
      </trkpt>
      <trkpt lat="40.757588" lon="-3.828223">
        <ele>980</ele>
        <time>2018-06-30T03:36:09.008Z</time>
      </trkpt>
      <trkpt lat="40.757644" lon="-3.82822">
        <ele>981</ele>
        <time>2018-06-30T03:36:13.008Z</time>
      </trkpt>
      <trkpt lat="40.7577" lon="-3.82821">
        <ele>981</ele>
        <time>2018-06-30T03:36:17.008Z</time>
      </trkpt>
      <trkpt lat="40.757796" lon="-3.828147">
        <ele>981</ele>
        <time>2018-06-30T03:36:25.008Z</time>
      </trkpt>
      <trkpt lat="40.757838" lon="-3.828024">
        <ele>980.579799338022</ele>
        <time>2018-06-30T03:36:31.008Z</time>
      </trkpt>
      <trkpt lat="40.757856" lon="-3.827904">
        <ele>979</ele>
        <time>2018-06-30T03:36:35.008Z</time>
      </trkpt>
      <trkpt lat="40.757874" lon="-3.827824">
        <ele>979</ele>
        <time>2018-06-30T03:36:39.008Z</time>
      </trkpt>
      <trkpt lat="40.75791" lon="-3.827745">
        <ele>977</ele>
        <time>2018-06-30T03:36:44.008Z</time>
      </trkpt>
      <trkpt lat="40.757958" lon="-3.827662">
        <ele>977</ele>
        <time>2018-06-30T03:36:51.008Z</time>
      </trkpt>
      <trkpt lat="40.758024" lon="-3.827576">
        <ele>977</ele>
        <time>2018-06-30T03:37:00.008Z</time>
      </trkpt>
      <trkpt lat="40.758112" lon="-3.827504">
        <ele>977.242708393258</ele>
        <time>2018-06-30T03:37:11.008Z</time>
      </trkpt>
      <trkpt lat="40.758187" lon="-3.827409">
        <ele>979</ele>
        <time>2018-06-30T03:37:20.008Z</time>
      </trkpt>
      <trkpt lat="40.758251" lon="-3.827349">
        <ele>981</ele>
        <time>2018-06-30T03:37:27.008Z</time>
      </trkpt>
      <trkpt lat="40.758319" lon="-3.827315">
        <ele>981</ele>
        <time>2018-06-30T03:37:34.008Z</time>
      </trkpt>
      <trkpt lat="40.758397" lon="-3.827286">
        <ele>981.131113734302</ele>
        <time>2018-06-30T03:37:41.008Z</time>
      </trkpt>
      <trkpt lat="40.758465" lon="-3.827272">
        <ele>982</ele>
        <time>2018-06-30T03:37:46.008Z</time>
      </trkpt>
      <trkpt lat="40.758517" lon="-3.827253">
        <ele>982</ele>
        <time>2018-06-30T03:37:50.008Z</time>
      </trkpt>
      <trkpt lat="40.758593" lon="-3.827231">
        <ele>982</ele>
        <time>2018-06-30T03:37:56.008Z</time>
      </trkpt>
      <trkpt lat="40.758659" lon="-3.827186">
        <ele>983</ele>
        <time>2018-06-30T03:38:02.008Z</time>
      </trkpt>
      <trkpt lat="40.758698" lon="-3.827094">
        <ele>983</ele>
        <time>2018-06-30T03:38:09.008Z</time>
      </trkpt>
      <trkpt lat="40.758691" lon="-3.827024">
        <ele>985</ele>
        <time>2018-06-30T03:38:13.008Z</time>
      </trkpt>
      <trkpt lat="40.758679" lon="-3.826937">
        <ele>985</ele>
        <time>2018-06-30T03:38:18.008Z</time>
      </trkpt>
      <trkpt lat="40.75866" lon="-3.826856">
        <ele>985</ele>
        <time>2018-06-30T03:38:23.008Z</time>
      </trkpt>
      <trkpt lat="40.758653" lon="-3.826791">
        <ele>985</ele>
        <time>2018-06-30T03:38:27.008Z</time>
      </trkpt>
      <trkpt lat="40.758644" lon="-3.826709">
        <ele>985</ele>
        <time>2018-06-30T03:38:32.008Z</time>
      </trkpt>
      <trkpt lat="40.758633" lon="-3.826636">
        <ele>985</ele>
        <time>2018-06-30T03:38:36.008Z</time>
      </trkpt>
      <trkpt lat="40.758618" lon="-3.826559">
        <ele>985</ele>
        <time>2018-06-30T03:38:41.008Z</time>
      </trkpt>
      <trkpt lat="40.758603" lon="-3.826482">
        <ele>985</ele>
        <time>2018-06-30T03:38:46.008Z</time>
      </trkpt>
      <trkpt lat="40.758587" lon="-3.826415">
        <ele>985</ele>
        <time>2018-06-30T03:38:50.008Z</time>
      </trkpt>
      <trkpt lat="40.758567" lon="-3.826353">
        <ele>987</ele>
        <time>2018-06-30T03:38:54.008Z</time>
      </trkpt>
      <trkpt lat="40.758551" lon="-3.826291">
        <ele>987</ele>
        <time>2018-06-30T03:38:58.008Z</time>
      </trkpt>
      <trkpt lat="40.758531" lon="-3.826226">
        <ele>987</ele>
        <time>2018-06-30T03:39:02.008Z</time>
      </trkpt>
      <trkpt lat="40.75852" lon="-3.826174">
        <ele>987</ele>
        <time>2018-06-30T03:39:05.008Z</time>
      </trkpt>
      <trkpt lat="40.758507" lon="-3.826105">
        <ele>987</ele>
        <time>2018-06-30T03:39:09.008Z</time>
      </trkpt>
      <trkpt lat="40.758498" lon="-3.826031">
        <ele>988</ele>
        <time>2018-06-30T03:39:13.008Z</time>
      </trkpt>
      <trkpt lat="40.758487" lon="-3.825963">
        <ele>988</ele>
        <time>2018-06-30T03:39:17.008Z</time>
      </trkpt>
      <trkpt lat="40.758473" lon="-3.825895">
        <ele>988</ele>
        <time>2018-06-30T03:39:21.008Z</time>
      </trkpt>
      <trkpt lat="40.758457" lon="-3.825833">
        <ele>988</ele>
        <time>2018-06-30T03:39:25.008Z</time>
      </trkpt>
      <trkpt lat="40.758449" lon="-3.825768">
        <ele>988</ele>
        <time>2018-06-30T03:39:29.008Z</time>
      </trkpt>
      <trkpt lat="40.758437" lon="-3.825688">
        <ele>989</ele>
        <time>2018-06-30T03:39:34.008Z</time>
      </trkpt>
      <trkpt lat="40.758435" lon="-3.825619">
        <ele>989</ele>
        <time>2018-06-30T03:39:38.008Z</time>
      </trkpt>
      <trkpt lat="40.758434" lon="-3.825549">
        <ele>989</ele>
        <time>2018-06-30T03:39:42.008Z</time>
      </trkpt>
      <trkpt lat="40.758432" lon="-3.825481">
        <ele>989</ele>
        <time>2018-06-30T03:39:46.008Z</time>
      </trkpt>
      <trkpt lat="40.75843" lon="-3.825413">
        <ele>989</ele>
        <time>2018-06-30T03:39:50.008Z</time>
      </trkpt>
      <trkpt lat="40.758433" lon="-3.825345">
        <ele>989</ele>
        <time>2018-06-30T03:39:54.008Z</time>
      </trkpt>
      <trkpt lat="40.75844" lon="-3.825277">
        <ele>989</ele>
        <time>2018-06-30T03:39:58.008Z</time>
      </trkpt>
      <trkpt lat="40.758445" lon="-3.825208">
        <ele>989</ele>
        <time>2018-06-30T03:40:02.008Z</time>
      </trkpt>
      <trkpt lat="40.758444" lon="-3.825142">
        <ele>989</ele>
        <time>2018-06-30T03:40:06.008Z</time>
      </trkpt>
      <trkpt lat="40.758422" lon="-3.825089">
        <ele>989</ele>
        <time>2018-06-30T03:40:10.008Z</time>
      </trkpt>
      <trkpt lat="40.758393" lon="-3.825025">
        <ele>989</ele>
        <time>2018-06-30T03:40:15.008Z</time>
      </trkpt>
      <trkpt lat="40.758365" lon="-3.824972">
        <ele>989</ele>
        <time>2018-06-30T03:40:19.008Z</time>
      </trkpt>
      <trkpt lat="40.758345" lon="-3.824911">
        <ele>990</ele>
        <time>2018-06-30T03:40:23.008Z</time>
      </trkpt>
      <trkpt lat="40.758333" lon="-3.824846">
        <ele>990</ele>
        <time>2018-06-30T03:40:27.008Z</time>
      </trkpt>
      <trkpt lat="40.758332" lon="-3.824766">
        <ele>990</ele>
        <time>2018-06-30T03:40:32.008Z</time>
      </trkpt>
      <trkpt lat="40.75835" lon="-3.824687">
        <ele>990</ele>
        <time>2018-06-30T03:40:37.008Z</time>
      </trkpt>
      <trkpt lat="40.758385" lon="-3.824594">
        <ele>990</ele>
        <time>2018-06-30T03:40:43.008Z</time>
      </trkpt>
      <trkpt lat="40.758411" lon="-3.824497">
        <ele>990</ele>
        <time>2018-06-30T03:40:49.008Z</time>
      </trkpt>
      <trkpt lat="40.758415" lon="-3.824429">
        <ele>990</ele>
        <time>2018-06-30T03:40:53.008Z</time>
      </trkpt>
      <trkpt lat="40.758424" lon="-3.824343">
        <ele>990</ele>
        <time>2018-06-30T03:40:58.008Z</time>
      </trkpt>
      <trkpt lat="40.758425" lon="-3.824246">
        <ele>990</ele>
        <time>2018-06-30T03:41:04.008Z</time>
      </trkpt>
      <trkpt lat="40.758428" lon="-3.824152">
        <ele>990</ele>
        <time>2018-06-30T03:41:09.008Z</time>
      </trkpt>
      <trkpt lat="40.758435" lon="-3.824066">
        <ele>990</ele>
        <time>2018-06-30T03:41:12.008Z</time>
      </trkpt>
      <trkpt lat="40.758416" lon="-3.82395">
        <ele>990</ele>
        <time>2018-06-30T03:41:16.008Z</time>
      </trkpt>
      <trkpt lat="40.758394" lon="-3.82385">
        <ele>990</ele>
        <time>2018-06-30T03:41:19.008Z</time>
      </trkpt>
      <trkpt lat="40.758384" lon="-3.823732">
        <ele>990</ele>
        <time>2018-06-30T03:41:23.008Z</time>
      </trkpt>
      <trkpt lat="40.758373" lon="-3.823626">
        <ele>990</ele>
        <time>2018-06-30T03:41:27.008Z</time>
      </trkpt>
      <trkpt lat="40.758438" lon="-3.823566">
        <ele>989</ele>
        <time>2018-06-30T03:41:32.008Z</time>
      </trkpt>
      <trkpt lat="40.758539" lon="-3.823584">
        <ele>989</ele>
        <time>2018-06-30T03:41:38.008Z</time>
      </trkpt>
      <trkpt lat="40.758617" lon="-3.823604">
        <ele>990</ele>
        <time>2018-06-30T03:41:43.008Z</time>
      </trkpt>
      <trkpt lat="40.758683" lon="-3.823624">
        <ele>990</ele>
        <time>2018-06-30T03:41:48.008Z</time>
      </trkpt>
      <trkpt lat="40.758748" lon="-3.823652">
        <ele>990</ele>
        <time>2018-06-30T03:41:53.008Z</time>
      </trkpt>
      <trkpt lat="40.758801" lon="-3.823666">
        <ele>990</ele>
        <time>2018-06-30T03:41:57.008Z</time>
      </trkpt>
      <trkpt lat="40.758855" lon="-3.823679">
        <ele>990</ele>
        <time>2018-06-30T03:42:01.008Z</time>
      </trkpt>
      <trkpt lat="40.758895" lon="-3.823696">
        <ele>990</ele>
        <time>2018-06-30T03:42:04.008Z</time>
      </trkpt>
      <trkpt lat="40.758935" lon="-3.823708">
        <ele>990</ele>
        <time>2018-06-30T03:42:07.008Z</time>
      </trkpt>
      <trkpt lat="40.75899" lon="-3.82372">
        <ele>990</ele>
        <time>2018-06-30T03:42:11.008Z</time>
      </trkpt>
      <trkpt lat="40.759042" lon="-3.823729">
        <ele>990</ele>
        <time>2018-06-30T03:42:15.008Z</time>
      </trkpt>
      <trkpt lat="40.759092" lon="-3.823738">
        <ele>990</ele>
        <time>2018-06-30T03:42:19.008Z</time>
      </trkpt>
      <trkpt lat="40.759153" lon="-3.82376">
        <ele>990</ele>
        <time>2018-06-30T03:42:24.008Z</time>
      </trkpt>
      <trkpt lat="40.759208" lon="-3.823777">
        <ele>990</ele>
        <time>2018-06-30T03:42:28.008Z</time>
      </trkpt>
      <trkpt lat="40.759262" lon="-3.823794">
        <ele>990</ele>
        <time>2018-06-30T03:42:32.008Z</time>
      </trkpt>
      <trkpt lat="40.759314" lon="-3.823816">
        <ele>990</ele>
        <time>2018-06-30T03:42:36.008Z</time>
      </trkpt>
      <trkpt lat="40.759365" lon="-3.823833">
        <ele>990</ele>
        <time>2018-06-30T03:42:40.008Z</time>
      </trkpt>
      <trkpt lat="40.759417" lon="-3.823852">
        <ele>992</ele>
        <time>2018-06-30T03:42:44.008Z</time>
      </trkpt>
      <trkpt lat="40.759484" lon="-3.823892">
        <ele>992</ele>
        <time>2018-06-30T03:42:49.008Z</time>
      </trkpt>
      <trkpt lat="40.759549" lon="-3.823931">
        <ele>993</ele>
        <time>2018-06-30T03:42:54.008Z</time>
      </trkpt>
      <trkpt lat="40.759598" lon="-3.823948">
        <ele>993</ele>
        <time>2018-06-30T03:42:58.008Z</time>
      </trkpt>
      <trkpt lat="40.75965" lon="-3.823969">
        <ele>993</ele>
        <time>2018-06-30T03:43:02.008Z</time>
      </trkpt>
      <trkpt lat="40.759705" lon="-3.823988">
        <ele>993</ele>
        <time>2018-06-30T03:43:06.008Z</time>
      </trkpt>
      <trkpt lat="40.759769" lon="-3.824019">
        <ele>993</ele>
        <time>2018-06-30T03:43:11.008Z</time>
      </trkpt>
      <trkpt lat="40.759839" lon="-3.824055">
        <ele>993</ele>
        <time>2018-06-30T03:43:17.008Z</time>
      </trkpt>
      <trkpt lat="40.759916" lon="-3.82408">
        <ele>995</ele>
        <time>2018-06-30T03:43:23.008Z</time>
      </trkpt>
      <trkpt lat="40.760011" lon="-3.824144">
        <ele>995</ele>
        <time>2018-06-30T03:43:30.008Z</time>
      </trkpt>
      <trkpt lat="40.760112" lon="-3.824172">
        <ele>996</ele>
        <time>2018-06-30T03:43:39.008Z</time>
      </trkpt>
      <trkpt lat="40.760204" lon="-3.824196">
        <ele>997</ele>
        <time>2018-06-30T03:43:47.008Z</time>
      </trkpt>
      <trkpt lat="40.760297" lon="-3.824207">
        <ele>999</ele>
        <time>2018-06-30T03:43:55.008Z</time>
      </trkpt>
      <trkpt lat="40.760383" lon="-3.824209">
        <ele>999</ele>
        <time>2018-06-30T03:44:02.008Z</time>
      </trkpt>
      <trkpt lat="40.760437" lon="-3.824212">
        <ele>999</ele>
        <time>2018-06-30T03:44:06.008Z</time>
      </trkpt>
      <trkpt lat="40.760489" lon="-3.824218">
        <ele>999</ele>
        <time>2018-06-30T03:44:10.008Z</time>
      </trkpt>
      <trkpt lat="40.760546" lon="-3.824229">
        <ele>1001</ele>
        <time>2018-06-30T03:44:14.008Z</time>
      </trkpt>
      <trkpt lat="40.760625" lon="-3.824246">
        <ele>1001</ele>
        <time>2018-06-30T03:44:20.008Z</time>
      </trkpt>
      <trkpt lat="40.760672" lon="-3.824257">
        <ele>1002</ele>
        <time>2018-06-30T03:44:24.008Z</time>
      </trkpt>
      <trkpt lat="40.760719" lon="-3.824276">
        <ele>1002</ele>
        <time>2018-06-30T03:44:28.008Z</time>
      </trkpt>
      <trkpt lat="40.760767" lon="-3.824304">
        <ele>1002</ele>
        <time>2018-06-30T03:44:32.008Z</time>
      </trkpt>
      <trkpt lat="40.760817" lon="-3.824332">
        <ele>1002</ele>
        <time>2018-06-30T03:44:36.008Z</time>
      </trkpt>
      <trkpt lat="40.760863" lon="-3.824364">
        <ele>1002</ele>
        <time>2018-06-30T03:44:40.008Z</time>
      </trkpt>
      <trkpt lat="40.760916" lon="-3.824405">
        <ele>1002</ele>
        <time>2018-06-30T03:44:45.008Z</time>
      </trkpt>
      <trkpt lat="40.760958" lon="-3.824438">
        <ele>1002</ele>
        <time>2018-06-30T03:44:49.008Z</time>
      </trkpt>
      <trkpt lat="40.761014" lon="-3.824484">
        <ele>1002</ele>
        <time>2018-06-30T03:44:54.008Z</time>
      </trkpt>
      <trkpt lat="40.76107" lon="-3.824535">
        <ele>1002</ele>
        <time>2018-06-30T03:44:59.008Z</time>
      </trkpt>
      <trkpt lat="40.761124" lon="-3.824584">
        <ele>1004</ele>
        <time>2018-06-30T03:45:04.008Z</time>
      </trkpt>
      <trkpt lat="40.761177" lon="-3.824633">
        <ele>1004</ele>
        <time>2018-06-30T03:45:09.008Z</time>
      </trkpt>
      <trkpt lat="40.761222" lon="-3.824671">
        <ele>1004</ele>
        <time>2018-06-30T03:45:13.008Z</time>
      </trkpt>
      <trkpt lat="40.761268" lon="-3.824704">
        <ele>1004</ele>
        <time>2018-06-30T03:45:17.008Z</time>
      </trkpt>
      <trkpt lat="40.761315" lon="-3.824728">
        <ele>1004.20204276217</ele>
        <time>2018-06-30T03:45:21.008Z</time>
      </trkpt>
      <trkpt lat="40.761366" lon="-3.824735">
        <ele>1005</ele>
        <time>2018-06-30T03:45:25.008Z</time>
      </trkpt>
      <trkpt lat="40.761418" lon="-3.824736">
        <ele>1005</ele>
        <time>2018-06-30T03:45:29.008Z</time>
      </trkpt>
      <trkpt lat="40.761481" lon="-3.82474">
        <ele>1006</ele>
        <time>2018-06-30T03:45:34.008Z</time>
      </trkpt>
      <trkpt lat="40.761533" lon="-3.824744">
        <ele>1006</ele>
        <time>2018-06-30T03:45:38.008Z</time>
      </trkpt>
      <trkpt lat="40.761586" lon="-3.824754">
        <ele>1007</ele>
        <time>2018-06-30T03:45:42.008Z</time>
      </trkpt>
      <trkpt lat="40.761637" lon="-3.82477">
        <ele>1007</ele>
        <time>2018-06-30T03:45:46.008Z</time>
      </trkpt>
      <trkpt lat="40.761687" lon="-3.824785">
        <ele>1007</ele>
        <time>2018-06-30T03:45:50.008Z</time>
      </trkpt>
      <trkpt lat="40.761736" lon="-3.824806">
        <ele>1008</ele>
        <time>2018-06-30T03:45:54.008Z</time>
      </trkpt>
      <trkpt lat="40.761773" lon="-3.824823">
        <ele>1008</ele>
        <time>2018-06-30T03:45:57.008Z</time>
      </trkpt>
      <trkpt lat="40.761822" lon="-3.82485">
        <ele>1008</ele>
        <time>2018-06-30T03:46:01.008Z</time>
      </trkpt>
      <trkpt lat="40.761868" lon="-3.824879">
        <ele>1008</ele>
        <time>2018-06-30T03:46:05.008Z</time>
      </trkpt>
      <trkpt lat="40.761916" lon="-3.824913">
        <ele>1008</ele>
        <time>2018-06-30T03:46:09.008Z</time>
      </trkpt>
      <trkpt lat="40.761964" lon="-3.824941">
        <ele>1009</ele>
        <time>2018-06-30T03:46:13.008Z</time>
      </trkpt>
      <trkpt lat="40.762012" lon="-3.824969">
        <ele>1009</ele>
        <time>2018-06-30T03:46:17.008Z</time>
      </trkpt>
      <trkpt lat="40.762062" lon="-3.824988">
        <ele>1009</ele>
        <time>2018-06-30T03:46:21.008Z</time>
      </trkpt>
      <trkpt lat="40.762139" lon="-3.825003">
        <ele>1009</ele>
        <time>2018-06-30T03:46:27.008Z</time>
      </trkpt>
      <trkpt lat="40.762205" lon="-3.825008">
        <ele>1009</ele>
        <time>2018-06-30T03:46:32.008Z</time>
      </trkpt>
      <trkpt lat="40.762274" lon="-3.824996">
        <ele>1009</ele>
        <time>2018-06-30T03:46:37.008Z</time>
      </trkpt>
      <trkpt lat="40.762341" lon="-3.82499">
        <ele>1010</ele>
        <time>2018-06-30T03:46:42.008Z</time>
      </trkpt>
      <trkpt lat="40.762409" lon="-3.824986">
        <ele>1010</ele>
        <time>2018-06-30T03:46:47.008Z</time>
      </trkpt>
      <trkpt lat="40.762474" lon="-3.824977">
        <ele>1011</ele>
        <time>2018-06-30T03:46:52.008Z</time>
      </trkpt>
      <trkpt lat="40.762542" lon="-3.824967">
        <ele>1011</ele>
        <time>2018-06-30T03:46:57.008Z</time>
      </trkpt>
      <trkpt lat="40.762595" lon="-3.82496">
        <ele>1011</ele>
        <time>2018-06-30T03:47:01.008Z</time>
      </trkpt>
      <trkpt lat="40.762647" lon="-3.824952">
        <ele>1011</ele>
        <time>2018-06-30T03:47:05.008Z</time>
      </trkpt>
      <trkpt lat="40.762697" lon="-3.824943">
        <ele>1011</ele>
        <time>2018-06-30T03:47:09.008Z</time>
      </trkpt>
      <trkpt lat="40.762746" lon="-3.82494">
        <ele>1011</ele>
        <time>2018-06-30T03:47:13.008Z</time>
      </trkpt>
      <trkpt lat="40.762798" lon="-3.824934">
        <ele>1011</ele>
        <time>2018-06-30T03:47:17.008Z</time>
      </trkpt>
      <trkpt lat="40.76285" lon="-3.824929">
        <ele>1011.40408552434</ele>
        <time>2018-06-30T03:47:21.008Z</time>
      </trkpt>
      <trkpt lat="40.762901" lon="-3.824923">
        <ele>1013</ele>
        <time>2018-06-30T03:47:25.008Z</time>
      </trkpt>
      <trkpt lat="40.762939" lon="-3.824918">
        <ele>1013</ele>
        <time>2018-06-30T03:47:28.008Z</time>
      </trkpt>
      <trkpt lat="40.762989" lon="-3.824917">
        <ele>1014</ele>
        <time>2018-06-30T03:47:32.008Z</time>
      </trkpt>
      <trkpt lat="40.763076" lon="-3.824922">
        <ele>1014</ele>
        <time>2018-06-30T03:47:39.008Z</time>
      </trkpt>
      <trkpt lat="40.763125" lon="-3.824917">
        <ele>1014</ele>
        <time>2018-06-30T03:47:43.008Z</time>
      </trkpt>
      <trkpt lat="40.763176" lon="-3.824919">
        <ele>1014</ele>
        <time>2018-06-30T03:47:47.008Z</time>
      </trkpt>
      <trkpt lat="40.763225" lon="-3.824921">
        <ele>1014</ele>
        <time>2018-06-30T03:47:51.008Z</time>
      </trkpt>
      <trkpt lat="40.763273" lon="-3.824924">
        <ele>1014</ele>
        <time>2018-06-30T03:47:55.008Z</time>
      </trkpt>
      <trkpt lat="40.763321" lon="-3.824932">
        <ele>1014</ele>
        <time>2018-06-30T03:47:59.008Z</time>
      </trkpt>
      <trkpt lat="40.763372" lon="-3.82494">
        <ele>1016</ele>
        <time>2018-06-30T03:48:03.008Z</time>
      </trkpt>
      <trkpt lat="40.763422" lon="-3.824952">
        <ele>1016</ele>
        <time>2018-06-30T03:48:07.008Z</time>
      </trkpt>
      <trkpt lat="40.763471" lon="-3.824962">
        <ele>1016.1311137343</ele>
        <time>2018-06-30T03:48:11.008Z</time>
      </trkpt>
      <trkpt lat="40.763521" lon="-3.824968">
        <ele>1017</ele>
        <time>2018-06-30T03:48:15.008Z</time>
      </trkpt>
      <trkpt lat="40.76357" lon="-3.824969">
        <ele>1017</ele>
        <time>2018-06-30T03:48:19.008Z</time>
      </trkpt>
      <trkpt lat="40.763619" lon="-3.824968">
        <ele>1017</ele>
        <time>2018-06-30T03:48:23.008Z</time>
      </trkpt>
      <trkpt lat="40.763705" lon="-3.824962">
        <ele>1017</ele>
        <time>2018-06-30T03:48:30.008Z</time>
      </trkpt>
      <trkpt lat="40.76378" lon="-3.824962">
        <ele>1018</ele>
        <time>2018-06-30T03:48:36.008Z</time>
      </trkpt>
      <trkpt lat="40.763831" lon="-3.824962">
        <ele>1018</ele>
        <time>2018-06-30T03:48:40.008Z</time>
      </trkpt>
      <trkpt lat="40.763884" lon="-3.824967">
        <ele>1019</ele>
        <time>2018-06-30T03:48:44.008Z</time>
      </trkpt>
      <trkpt lat="40.763934" lon="-3.82498">
        <ele>1019</ele>
        <time>2018-06-30T03:48:48.008Z</time>
      </trkpt>
      <trkpt lat="40.763978" lon="-3.825004">
        <ele>1020</ele>
        <time>2018-06-30T03:48:52.008Z</time>
      </trkpt>
      <trkpt lat="40.764028" lon="-3.825054">
        <ele>1020</ele>
        <time>2018-06-30T03:48:57.008Z</time>
      </trkpt>
      <trkpt lat="40.764069" lon="-3.825106">
        <ele>1020.21010033099</ele>
        <time>2018-06-30T03:49:01.008Z</time>
      </trkpt>
      <trkpt lat="40.764105" lon="-3.825157">
        <ele>1021</ele>
        <time>2018-06-30T03:49:05.008Z</time>
      </trkpt>
      <trkpt lat="40.764147" lon="-3.825217">
        <ele>1021</ele>
        <time>2018-06-30T03:49:10.008Z</time>
      </trkpt>
      <trkpt lat="40.764191" lon="-3.825276">
        <ele>1021</ele>
        <time>2018-06-30T03:49:15.008Z</time>
      </trkpt>
      <trkpt lat="40.764244" lon="-3.825341">
        <ele>1021.20204276217</ele>
        <time>2018-06-30T03:49:21.008Z</time>
      </trkpt>
      <trkpt lat="40.764288" lon="-3.8254">
        <ele>1022</ele>
        <time>2018-06-30T03:49:26.008Z</time>
      </trkpt>
      <trkpt lat="40.764332" lon="-3.825463">
        <ele>1022</ele>
        <time>2018-06-30T03:49:31.008Z</time>
      </trkpt>
      <trkpt lat="40.764375" lon="-3.825523">
        <ele>1022</ele>
        <time>2018-06-30T03:49:36.008Z</time>
      </trkpt>
      <trkpt lat="40.764404" lon="-3.825576">
        <ele>1022</ele>
        <time>2018-06-30T03:49:40.008Z</time>
      </trkpt>
      <trkpt lat="40.764443" lon="-3.825641">
        <ele>1022</ele>
        <time>2018-06-30T03:49:45.008Z</time>
      </trkpt>
      <trkpt lat="40.764475" lon="-3.825695">
        <ele>1022</ele>
        <time>2018-06-30T03:49:49.008Z</time>
      </trkpt>
      <trkpt lat="40.764513" lon="-3.825749">
        <ele>1023</ele>
        <time>2018-06-30T03:49:53.008Z</time>
      </trkpt>
      <trkpt lat="40.764565" lon="-3.825798">
        <ele>1023</ele>
        <time>2018-06-30T03:49:58.008Z</time>
      </trkpt>
      <trkpt lat="40.764624" lon="-3.825844">
        <ele>1024</ele>
        <time>2018-06-30T03:50:04.008Z</time>
      </trkpt>
      <trkpt lat="40.76469" lon="-3.82588">
        <ele>1024</ele>
        <time>2018-06-30T03:50:10.008Z</time>
      </trkpt>
      <trkpt lat="40.764745" lon="-3.825898">
        <ele>1025</ele>
        <time>2018-06-30T03:50:15.008Z</time>
      </trkpt>
      <trkpt lat="40.764803" lon="-3.825918">
        <ele>1025</ele>
        <time>2018-06-30T03:50:20.008Z</time>
      </trkpt>
      <trkpt lat="40.764859" lon="-3.825941">
        <ele>1025</ele>
        <time>2018-06-30T03:50:25.008Z</time>
      </trkpt>
      <trkpt lat="40.764919" lon="-3.825965">
        <ele>1025</ele>
        <time>2018-06-30T03:50:30.008Z</time>
      </trkpt>
      <trkpt lat="40.764981" lon="-3.825986">
        <ele>1027</ele>
        <time>2018-06-30T03:50:35.008Z</time>
      </trkpt>
      <trkpt lat="40.765029" lon="-3.826012">
        <ele>1027</ele>
        <time>2018-06-30T03:50:39.008Z</time>
      </trkpt>
      <trkpt lat="40.765084" lon="-3.82604">
        <ele>1027</ele>
        <time>2018-06-30T03:50:44.008Z</time>
      </trkpt>
      <trkpt lat="40.765141" lon="-3.82607">
        <ele>1027</ele>
        <time>2018-06-30T03:50:49.008Z</time>
      </trkpt>
      <trkpt lat="40.765199" lon="-3.826097">
        <ele>1028</ele>
        <time>2018-06-30T03:50:54.008Z</time>
      </trkpt>
      <trkpt lat="40.765253" lon="-3.826125">
        <ele>1028</ele>
        <time>2018-06-30T03:50:59.008Z</time>
      </trkpt>
      <trkpt lat="40.765307" lon="-3.826159">
        <ele>1029</ele>
        <time>2018-06-30T03:51:04.008Z</time>
      </trkpt>
      <trkpt lat="40.765365" lon="-3.826192">
        <ele>1029</ele>
        <time>2018-06-30T03:51:09.008Z</time>
      </trkpt>
      <trkpt lat="40.765419" lon="-3.826211">
        <ele>1030</ele>
        <time>2018-06-30T03:51:13.008Z</time>
      </trkpt>
      <trkpt lat="40.765471" lon="-3.82623">
        <ele>1030</ele>
        <time>2018-06-30T03:51:17.008Z</time>
      </trkpt>
      <trkpt lat="40.765532" lon="-3.826254">
        <ele>1031</ele>
        <time>2018-06-30T03:51:22.008Z</time>
      </trkpt>
      <trkpt lat="40.765616" lon="-3.826286">
        <ele>1031</ele>
        <time>2018-06-30T03:51:29.008Z</time>
      </trkpt>
      <trkpt lat="40.765705" lon="-3.826323">
        <ele>1032</ele>
        <time>2018-06-30T03:51:37.008Z</time>
      </trkpt>
      <trkpt lat="40.765801" lon="-3.826368">
        <ele>1032</ele>
        <time>2018-06-30T03:51:45.008Z</time>
      </trkpt>
      <trkpt lat="40.765899" lon="-3.826382">
        <ele>1032</ele>
        <time>2018-06-30T03:51:53.008Z</time>
      </trkpt>
      <trkpt lat="40.765952" lon="-3.826398">
        <ele>1032</ele>
        <time>2018-06-30T03:51:57.008Z</time>
      </trkpt>
      <trkpt lat="40.766002" lon="-3.826414">
        <ele>1032.21010033099</ele>
        <time>2018-06-30T03:52:01.008Z</time>
      </trkpt>
      <trkpt lat="40.766102" lon="-3.826448">
        <ele>1033</ele>
        <time>2018-06-30T03:52:09.008Z</time>
      </trkpt>
      <trkpt lat="40.766201" lon="-3.826488">
        <ele>1033</ele>
        <time>2018-06-30T03:52:17.008Z</time>
      </trkpt>
      <trkpt lat="40.766306" lon="-3.826477">
        <ele>1032</ele>
        <time>2018-06-30T03:52:24.008Z</time>
      </trkpt>
      <trkpt lat="40.76641" lon="-3.826476">
        <ele>1032</ele>
        <time>2018-06-30T03:52:33.008Z</time>
      </trkpt>
      <trkpt lat="40.766503" lon="-3.826524">
        <ele>1032.1311137343</ele>
        <time>2018-06-30T03:52:41.008Z</time>
      </trkpt>
      <trkpt lat="40.766601" lon="-3.826578">
        <ele>1033</ele>
        <time>2018-06-30T03:52:49.008Z</time>
      </trkpt>
      <trkpt lat="40.766709" lon="-3.826594">
        <ele>1033</ele>
        <time>2018-06-30T03:52:57.008Z</time>
      </trkpt>
      <trkpt lat="40.766813" lon="-3.826621">
        <ele>1033</ele>
        <time>2018-06-30T03:53:06.008Z</time>
      </trkpt>
      <trkpt lat="40.766917" lon="-3.826596">
        <ele>1035</ele>
        <time>2018-06-30T03:53:15.008Z</time>
      </trkpt>
      <trkpt lat="40.767007" lon="-3.826539">
        <ele>1036</ele>
        <time>2018-06-30T03:53:23.008Z</time>
      </trkpt>
      <trkpt lat="40.767087" lon="-3.826479">
        <ele>1036.21010033099</ele>
        <time>2018-06-30T03:53:31.008Z</time>
      </trkpt>
      <trkpt lat="40.767144" lon="-3.826381">
        <ele>1037</ele>
        <time>2018-06-30T03:53:39.008Z</time>
      </trkpt>
      <trkpt lat="40.767226" lon="-3.826315">
        <ele>1039</ele>
        <time>2018-06-30T03:53:47.008Z</time>
      </trkpt>
      <trkpt lat="40.767323" lon="-3.826286">
        <ele>1039</ele>
        <time>2018-06-30T03:53:56.008Z</time>
      </trkpt>
      <trkpt lat="40.76742" lon="-3.826258">
        <ele>1039</ele>
        <time>2018-06-30T03:54:04.008Z</time>
      </trkpt>
      <trkpt lat="40.767498" lon="-3.826197">
        <ele>1040</ele>
        <time>2018-06-30T03:54:12.008Z</time>
      </trkpt>
      <trkpt lat="40.767584" lon="-3.826159">
        <ele>1040</ele>
        <time>2018-06-30T03:54:20.008Z</time>
      </trkpt>
      <trkpt lat="40.767666" lon="-3.82611">
        <ele>1041</ele>
        <time>2018-06-30T03:54:28.008Z</time>
      </trkpt>
      <trkpt lat="40.767728" lon="-3.82602">
        <ele>1042</ele>
        <time>2018-06-30T03:54:37.008Z</time>
      </trkpt>
      <trkpt lat="40.767834" lon="-3.826006">
        <ele>1044</ele>
        <time>2018-06-30T03:54:48.008Z</time>
      </trkpt>
      <trkpt lat="40.767914" lon="-3.825928">
        <ele>1046</ele>
        <time>2018-06-30T03:55:00.008Z</time>
      </trkpt>
      <trkpt lat="40.767978" lon="-3.825833">
        <ele>1051</ele>
        <time>2018-06-30T03:55:14.008Z</time>
      </trkpt>
      <trkpt lat="40.768055" lon="-3.825777">
        <ele>1053</ele>
        <time>2018-06-30T03:55:24.008Z</time>
      </trkpt>
      <trkpt lat="40.768127" lon="-3.825743">
        <ele>1055</ele>
        <time>2018-06-30T03:55:32.008Z</time>
      </trkpt>
      <trkpt lat="40.768203" lon="-3.825693">
        <ele>1055</ele>
        <time>2018-06-30T03:55:40.008Z</time>
      </trkpt>
      <trkpt lat="40.768278" lon="-3.825633">
        <ele>1055</ele>
        <time>2018-06-30T03:55:48.008Z</time>
      </trkpt>
      <trkpt lat="40.768341" lon="-3.825532">
        <ele>1055</ele>
        <time>2018-06-30T03:55:58.008Z</time>
      </trkpt>
      <trkpt lat="40.76842" lon="-3.825466">
        <ele>1056</ele>
        <time>2018-06-30T03:56:06.008Z</time>
      </trkpt>
      <trkpt lat="40.768477" lon="-3.825387">
        <ele>1057</ele>
        <time>2018-06-30T03:56:14.008Z</time>
      </trkpt>
      <trkpt lat="40.76857" lon="-3.825328">
        <ele>1059</ele>
        <time>2018-06-30T03:56:24.008Z</time>
      </trkpt>
      <trkpt lat="40.76867" lon="-3.825295">
        <ele>1059</ele>
        <time>2018-06-30T03:56:32.008Z</time>
      </trkpt>
      <trkpt lat="40.768749" lon="-3.825234">
        <ele>1059</ele>
        <time>2018-06-30T03:56:40.008Z</time>
      </trkpt>
      <trkpt lat="40.768802" lon="-3.825118">
        <ele>1060</ele>
        <time>2018-06-30T03:56:49.008Z</time>
      </trkpt>
      <trkpt lat="40.768799" lon="-3.825022">
        <ele>1062</ele>
        <time>2018-06-30T03:56:56.008Z</time>
      </trkpt>
      <trkpt lat="40.768779" lon="-3.824924">
        <ele>1064</ele>
        <time>2018-06-30T03:57:03.008Z</time>
      </trkpt>
      <trkpt lat="40.768834" lon="-3.824814">
        <ele>1064</ele>
        <time>2018-06-30T03:57:13.008Z</time>
      </trkpt>
      <trkpt lat="40.768933" lon="-3.824794">
        <ele>1064.20204276217</ele>
        <time>2018-06-30T03:57:21.008Z</time>
      </trkpt>
      <trkpt lat="40.769022" lon="-3.824782">
        <ele>1065</ele>
        <time>2018-06-30T03:57:28.008Z</time>
      </trkpt>
      <trkpt lat="40.769131" lon="-3.824786">
        <ele>1065</ele>
        <time>2018-06-30T03:57:36.008Z</time>
      </trkpt>
      <trkpt lat="40.769233" lon="-3.824796">
        <ele>1064.8688862657</ele>
        <time>2018-06-30T03:57:41.008Z</time>
      </trkpt>
      <trkpt lat="40.769339" lon="-3.824798">
        <ele>1064</ele>
        <time>2018-06-30T03:57:46.008Z</time>
      </trkpt>
      <trkpt lat="40.769437" lon="-3.824778">
        <ele>1064.20204276217</ele>
        <time>2018-06-30T03:57:51.008Z</time>
      </trkpt>
      <trkpt lat="40.769518" lon="-3.824776">
        <ele>1065</ele>
        <time>2018-06-30T03:57:55.008Z</time>
      </trkpt>
      <trkpt lat="40.769618" lon="-3.824818">
        <ele>1067</ele>
        <time>2018-06-30T03:58:03.008Z</time>
      </trkpt>
      <trkpt lat="40.769712" lon="-3.824884">
        <ele>1068</ele>
        <time>2018-06-30T03:58:12.008Z</time>
      </trkpt>
      <trkpt lat="40.769802" lon="-3.82495">
        <ele>1068</ele>
        <time>2018-06-30T03:58:21.008Z</time>
      </trkpt>
      <trkpt lat="40.769904" lon="-3.825008">
        <ele>1068.42020066198</ele>
        <time>2018-06-30T03:58:31.008Z</time>
      </trkpt>
      <trkpt lat="40.769978" lon="-3.82507">
        <ele>1070</ele>
        <time>2018-06-30T03:58:38.008Z</time>
      </trkpt>
      <trkpt lat="40.770065" lon="-3.82516">
        <ele>1070</ele>
        <time>2018-06-30T03:58:45.008Z</time>
      </trkpt>
      <trkpt lat="40.770161" lon="-3.825208">
        <ele>1070</ele>
        <time>2018-06-30T03:58:50.008Z</time>
      </trkpt>
      <trkpt lat="40.770275" lon="-3.825215">
        <ele>1070</ele>
        <time>2018-06-30T03:58:56.008Z</time>
      </trkpt>
      <trkpt lat="40.770374" lon="-3.825222">
        <ele>1070</ele>
        <time>2018-06-30T03:59:01.008Z</time>
      </trkpt>
      <trkpt lat="40.77047" lon="-3.825256">
        <ele>1070</ele>
        <time>2018-06-30T03:59:06.008Z</time>
      </trkpt>
      <trkpt lat="40.770574" lon="-3.825284">
        <ele>1069.8688862657</ele>
        <time>2018-06-30T03:59:11.008Z</time>
      </trkpt>
      <trkpt lat="40.770685" lon="-3.825275">
        <ele>1069</ele>
        <time>2018-06-30T03:59:16.008Z</time>
      </trkpt>
      <trkpt lat="40.770792" lon="-3.825259">
        <ele>1068.79795723783</ele>
        <time>2018-06-30T03:59:21.008Z</time>
      </trkpt>
      <trkpt lat="40.770897" lon="-3.825252">
        <ele>1068</ele>
        <time>2018-06-30T03:59:26.008Z</time>
      </trkpt>
      <trkpt lat="40.771012" lon="-3.825218">
        <ele>1068</ele>
        <time>2018-06-30T03:59:36.008Z</time>
      </trkpt>
      <trkpt lat="40.771112" lon="-3.825218">
        <ele>1068</ele>
        <time>2018-06-30T03:59:42.008Z</time>
      </trkpt>
      <trkpt lat="40.771215" lon="-3.82523">
        <ele>1068</ele>
        <time>2018-06-30T03:59:49.008Z</time>
      </trkpt>
      <trkpt lat="40.771315" lon="-3.825254">
        <ele>1068</ele>
        <time>2018-06-30T03:59:56.008Z</time>
      </trkpt>
      <trkpt lat="40.771413" lon="-3.825271">
        <ele>1068</ele>
        <time>2018-06-30T04:00:03.008Z</time>
      </trkpt>
      <trkpt lat="40.771507" lon="-3.825294">
        <ele>1068</ele>
        <time>2018-06-30T04:00:10.008Z</time>
      </trkpt>
      <trkpt lat="40.771606" lon="-3.825313">
        <ele>1068</ele>
        <time>2018-06-30T04:00:18.008Z</time>
      </trkpt>
      <trkpt lat="40.771702" lon="-3.825364">
        <ele>1069</ele>
        <time>2018-06-30T04:00:26.008Z</time>
      </trkpt>
      <trkpt lat="40.771791" lon="-3.825419">
        <ele>1070</ele>
        <time>2018-06-30T04:00:34.008Z</time>
      </trkpt>
      <trkpt lat="40.771901" lon="-3.825418">
        <ele>1071</ele>
        <time>2018-06-30T04:00:43.008Z</time>
      </trkpt>
      <trkpt lat="40.772009" lon="-3.825427">
        <ele>1072</ele>
        <time>2018-06-30T04:00:52.008Z</time>
      </trkpt>
      <trkpt lat="40.772114" lon="-3.825434">
        <ele>1074</ele>
        <time>2018-06-30T04:01:02.008Z</time>
      </trkpt>
      <trkpt lat="40.772225" lon="-3.825455">
        <ele>1074.1311137343</ele>
        <time>2018-06-30T04:01:11.008Z</time>
      </trkpt>
      <trkpt lat="40.772323" lon="-3.82547">
        <ele>1075</ele>
        <time>2018-06-30T04:01:18.008Z</time>
      </trkpt>
      <trkpt lat="40.772433" lon="-3.82549">
        <ele>1076</ele>
        <time>2018-06-30T04:01:27.008Z</time>
      </trkpt>
      <trkpt lat="40.772543" lon="-3.825481">
        <ele>1077</ele>
        <time>2018-06-30T04:01:36.008Z</time>
      </trkpt>
      <trkpt lat="40.772642" lon="-3.825507">
        <ele>1077</ele>
        <time>2018-06-30T04:01:44.008Z</time>
      </trkpt>
      <trkpt lat="40.772751" lon="-3.825473">
        <ele>1076</ele>
        <time>2018-06-30T04:01:52.008Z</time>
      </trkpt>
      <trkpt lat="40.772858" lon="-3.825458">
        <ele>1076</ele>
        <time>2018-06-30T04:01:58.008Z</time>
      </trkpt>
      <trkpt lat="40.772976" lon="-3.825491">
        <ele>1074</ele>
        <time>2018-06-30T04:02:03.008Z</time>
      </trkpt>
      <trkpt lat="40.773094" lon="-3.825492">
        <ele>1074</ele>
        <time>2018-06-30T04:02:08.008Z</time>
      </trkpt>
      <trkpt lat="40.773202" lon="-3.825493">
        <ele>1074</ele>
        <time>2018-06-30T04:02:14.008Z</time>
      </trkpt>
      <trkpt lat="40.773305" lon="-3.82546">
        <ele>1073.79795723783</ele>
        <time>2018-06-30T04:02:21.008Z</time>
      </trkpt>
      <trkpt lat="40.773405" lon="-3.825434">
        <ele>1073</ele>
        <time>2018-06-30T04:02:27.008Z</time>
      </trkpt>
      <trkpt lat="40.773512" lon="-3.825375">
        <ele>1072</ele>
        <time>2018-06-30T04:02:33.008Z</time>
      </trkpt>
      <trkpt lat="40.773616" lon="-3.825419">
        <ele>1073</ele>
        <time>2018-06-30T04:02:42.008Z</time>
      </trkpt>
      <trkpt lat="40.77371" lon="-3.825472">
        <ele>1073.40408552434</ele>
        <time>2018-06-30T04:02:51.008Z</time>
      </trkpt>
      <trkpt lat="40.773814" lon="-3.825488">
        <ele>1075</ele>
        <time>2018-06-30T04:03:00.008Z</time>
      </trkpt>
      <trkpt lat="40.77391" lon="-3.82552">
        <ele>1075</ele>
        <time>2018-06-30T04:03:08.008Z</time>
      </trkpt>
      <trkpt lat="40.774005" lon="-3.825566">
        <ele>1077</ele>
        <time>2018-06-30T04:03:16.008Z</time>
      </trkpt>
      <trkpt lat="40.77409" lon="-3.825646">
        <ele>1077</ele>
        <time>2018-06-30T04:03:24.008Z</time>
      </trkpt>
      <trkpt lat="40.774177" lon="-3.825708">
        <ele>1077</ele>
        <time>2018-06-30T04:03:32.008Z</time>
      </trkpt>
      <trkpt lat="40.774267" lon="-3.825771">
        <ele>1079</ele>
        <time>2018-06-30T04:03:42.008Z</time>
      </trkpt>
      <trkpt lat="40.774363" lon="-3.825836">
        <ele>1079.60612828651</ele>
        <time>2018-06-30T04:03:51.008Z</time>
      </trkpt>
      <trkpt lat="40.774451" lon="-3.825908">
        <ele>1082</ele>
        <time>2018-06-30T04:04:00.008Z</time>
      </trkpt>
      <trkpt lat="40.774546" lon="-3.825963">
        <ele>1082</ele>
        <time>2018-06-30T04:04:09.008Z</time>
      </trkpt>
      <trkpt lat="40.774648" lon="-3.826008">
        <ele>1083</ele>
        <time>2018-06-30T04:04:18.008Z</time>
      </trkpt>
      <trkpt lat="40.774753" lon="-3.826045">
        <ele>1084</ele>
        <time>2018-06-30T04:04:27.008Z</time>
      </trkpt>
      <trkpt lat="40.774847" lon="-3.826104">
        <ele>1084</ele>
        <time>2018-06-30T04:04:36.008Z</time>
      </trkpt>
      <trkpt lat="40.774921" lon="-3.826183">
        <ele>1086</ele>
        <time>2018-06-30T04:04:44.008Z</time>
      </trkpt>
      <trkpt lat="40.774986" lon="-3.826285">
        <ele>1086</ele>
        <time>2018-06-30T04:04:53.008Z</time>
      </trkpt>
      <trkpt lat="40.775044" lon="-3.826394">
        <ele>1088</ele>
        <time>2018-06-30T04:05:02.008Z</time>
      </trkpt>
      <trkpt lat="40.775147" lon="-3.826416">
        <ele>1088</ele>
        <time>2018-06-30T04:05:12.008Z</time>
      </trkpt>
      <trkpt lat="40.775237" lon="-3.826484">
        <ele>1088</ele>
        <time>2018-06-30T04:05:20.008Z</time>
      </trkpt>
      <trkpt lat="40.775313" lon="-3.82658">
        <ele>1088</ele>
        <time>2018-06-30T04:05:29.008Z</time>
      </trkpt>
      <trkpt lat="40.775403" lon="-3.82666">
        <ele>1089</ele>
        <time>2018-06-30T04:05:37.008Z</time>
      </trkpt>
      <trkpt lat="40.775507" lon="-3.82669">
        <ele>1090</ele>
        <time>2018-06-30T04:05:45.008Z</time>
      </trkpt>
      <trkpt lat="40.775605" lon="-3.826724">
        <ele>1090</ele>
        <time>2018-06-30T04:05:53.008Z</time>
      </trkpt>
      <trkpt lat="40.775706" lon="-3.826757">
        <ele>1090</ele>
        <time>2018-06-30T04:06:01.008Z</time>
      </trkpt>
      <trkpt lat="40.77581" lon="-3.826791">
        <ele>1090</ele>
        <time>2018-06-30T04:06:10.008Z</time>
      </trkpt>
      <trkpt lat="40.775916" lon="-3.826807">
        <ele>1090</ele>
        <time>2018-06-30T04:06:19.008Z</time>
      </trkpt>
      <trkpt lat="40.776022" lon="-3.826825">
        <ele>1091</ele>
        <time>2018-06-30T04:06:27.008Z</time>
      </trkpt>
      <trkpt lat="40.77612" lon="-3.826842">
        <ele>1093</ele>
        <time>2018-06-30T04:06:35.008Z</time>
      </trkpt>
      <trkpt lat="40.776208" lon="-3.826928">
        <ele>1094</ele>
        <time>2018-06-30T04:06:45.008Z</time>
      </trkpt>
      <trkpt lat="40.776306" lon="-3.826929">
        <ele>1096</ele>
        <time>2018-06-30T04:06:54.008Z</time>
      </trkpt>
      <trkpt lat="40.776401" lon="-3.826968">
        <ele>1097</ele>
        <time>2018-06-30T04:07:04.008Z</time>
      </trkpt>
      <trkpt lat="40.776493" lon="-3.827017">
        <ele>1097</ele>
        <time>2018-06-30T04:07:13.008Z</time>
      </trkpt>
      <trkpt lat="40.776576" lon="-3.827108">
        <ele>1098</ele>
        <time>2018-06-30T04:07:23.008Z</time>
      </trkpt>
      <trkpt lat="40.776673" lon="-3.827174">
        <ele>1099</ele>
        <time>2018-06-30T04:07:33.008Z</time>
      </trkpt>
      <trkpt lat="40.776753" lon="-3.827251">
        <ele>1100</ele>
        <time>2018-06-30T04:07:42.008Z</time>
      </trkpt>
      <trkpt lat="40.776847" lon="-3.827309">
        <ele>1100</ele>
        <time>2018-06-30T04:07:50.008Z</time>
      </trkpt>
      <trkpt lat="40.776941" lon="-3.827367">
        <ele>1101</ele>
        <time>2018-06-30T04:07:58.008Z</time>
      </trkpt>
      <trkpt lat="40.77703" lon="-3.827425">
        <ele>1101</ele>
        <time>2018-06-30T04:08:06.008Z</time>
      </trkpt>
      <trkpt lat="40.777126" lon="-3.827459">
        <ele>1101</ele>
        <time>2018-06-30T04:08:15.008Z</time>
      </trkpt>
      <trkpt lat="40.777216" lon="-3.827516">
        <ele>1102</ele>
        <time>2018-06-30T04:08:25.008Z</time>
      </trkpt>
      <trkpt lat="40.777312" lon="-3.82758">
        <ele>1104</ele>
        <time>2018-06-30T04:08:37.008Z</time>
      </trkpt>
      <trkpt lat="40.777418" lon="-3.827586">
        <ele>1104</ele>
        <time>2018-06-30T04:08:45.008Z</time>
      </trkpt>
      <trkpt lat="40.777518" lon="-3.827604">
        <ele>1104</ele>
        <time>2018-06-30T04:08:54.008Z</time>
      </trkpt>
      <trkpt lat="40.77762" lon="-3.827638">
        <ele>1105</ele>
        <time>2018-06-30T04:09:03.008Z</time>
      </trkpt>
      <trkpt lat="40.777722" lon="-3.827602">
        <ele>1105</ele>
        <time>2018-06-30T04:09:12.008Z</time>
      </trkpt>
      <trkpt lat="40.777828" lon="-3.827571">
        <ele>1105</ele>
        <time>2018-06-30T04:09:20.008Z</time>
      </trkpt>
      <trkpt lat="40.777935" lon="-3.827544">
        <ele>1105</ele>
        <time>2018-06-30T04:09:29.008Z</time>
      </trkpt>
      <trkpt lat="40.778026" lon="-3.827573">
        <ele>1106</ele>
        <time>2018-06-30T04:09:38.008Z</time>
      </trkpt>
      <trkpt lat="40.778112" lon="-3.827573">
        <ele>1107</ele>
        <time>2018-06-30T04:09:46.008Z</time>
      </trkpt>
      <trkpt lat="40.778217" lon="-3.827533">
        <ele>1108</ele>
        <time>2018-06-30T04:09:57.008Z</time>
      </trkpt>
      <trkpt lat="40.778315" lon="-3.827515">
        <ele>1108</ele>
        <time>2018-06-30T04:10:05.008Z</time>
      </trkpt>
      <trkpt lat="40.778406" lon="-3.827548">
        <ele>1110</ele>
        <time>2018-06-30T04:10:14.008Z</time>
      </trkpt>
      <trkpt lat="40.778493" lon="-3.827595">
        <ele>1111</ele>
        <time>2018-06-30T04:10:22.008Z</time>
      </trkpt>
      <trkpt lat="40.778575" lon="-3.827683">
        <ele>1111</ele>
        <time>2018-06-30T04:10:31.008Z</time>
      </trkpt>
      <trkpt lat="40.778666" lon="-3.827756">
        <ele>1111</ele>
        <time>2018-06-30T04:10:39.008Z</time>
      </trkpt>
      <trkpt lat="40.778747" lon="-3.827833">
        <ele>1111</ele>
        <time>2018-06-30T04:10:47.008Z</time>
      </trkpt>
      <trkpt lat="40.77884" lon="-3.827903">
        <ele>1113</ele>
        <time>2018-06-30T04:10:55.008Z</time>
      </trkpt>
      <trkpt lat="40.77894" lon="-3.827941">
        <ele>1114</ele>
        <time>2018-06-30T04:11:04.008Z</time>
      </trkpt>
      <trkpt lat="40.779031" lon="-3.827898">
        <ele>1114</ele>
        <time>2018-06-30T04:11:13.008Z</time>
      </trkpt>
      <trkpt lat="40.779136" lon="-3.827905">
        <ele>1116</ele>
        <time>2018-06-30T04:11:22.008Z</time>
      </trkpt>
      <trkpt lat="40.779219" lon="-3.827965">
        <ele>1116.21010033099</ele>
        <time>2018-06-30T04:11:31.008Z</time>
      </trkpt>
      <trkpt lat="40.779304" lon="-3.828001">
        <ele>1119</ele>
        <time>2018-06-30T04:11:44.008Z</time>
      </trkpt>
      <trkpt lat="40.77937" lon="-3.828097">
        <ele>1119</ele>
        <time>2018-06-30T04:11:55.008Z</time>
      </trkpt>
      <trkpt lat="40.779451" lon="-3.82818">
        <ele>1120</ele>
        <time>2018-06-30T04:12:05.008Z</time>
      </trkpt>
      <trkpt lat="40.779515" lon="-3.828289">
        <ele>1122</ele>
        <time>2018-06-30T04:12:14.008Z</time>
      </trkpt>
      <trkpt lat="40.779561" lon="-3.828407">
        <ele>1123</ele>
        <time>2018-06-30T04:12:24.008Z</time>
      </trkpt>
      <trkpt lat="40.779639" lon="-3.828476">
        <ele>1124</ele>
        <time>2018-06-30T04:12:32.008Z</time>
      </trkpt>
      <trkpt lat="40.779736" lon="-3.828515">
        <ele>1124</ele>
        <time>2018-06-30T04:12:40.008Z</time>
      </trkpt>
      <trkpt lat="40.77982" lon="-3.828577">
        <ele>1124</ele>
        <time>2018-06-30T04:12:48.008Z</time>
      </trkpt>
      <trkpt lat="40.779886" lon="-3.828612">
        <ele>1125</ele>
        <time>2018-06-30T04:12:54.008Z</time>
      </trkpt>
      <trkpt lat="40.779987" lon="-3.82865">
        <ele>1125</ele>
        <time>2018-06-30T04:13:03.008Z</time>
      </trkpt>
      <trkpt lat="40.780084" lon="-3.828707">
        <ele>1126</ele>
        <time>2018-06-30T04:13:13.008Z</time>
      </trkpt>
      <trkpt lat="40.780175" lon="-3.828768">
        <ele>1126.20204276217</ele>
        <time>2018-06-30T04:13:21.008Z</time>
      </trkpt>
      <trkpt lat="40.780257" lon="-3.828841">
        <ele>1127</ele>
        <time>2018-06-30T04:13:29.008Z</time>
      </trkpt>
      <trkpt lat="40.780329" lon="-3.828934">
        <ele>1128</ele>
        <time>2018-06-30T04:13:38.008Z</time>
      </trkpt>
      <trkpt lat="40.780403" lon="-3.829026">
        <ele>1129</ele>
        <time>2018-06-30T04:13:47.008Z</time>
      </trkpt>
      <trkpt lat="40.780477" lon="-3.829128">
        <ele>1130</ele>
        <time>2018-06-30T04:13:57.008Z</time>
      </trkpt>
      <trkpt lat="40.780556" lon="-3.829226">
        <ele>1132</ele>
        <time>2018-06-30T04:14:07.008Z</time>
      </trkpt>
      <trkpt lat="40.780637" lon="-3.829311">
        <ele>1133</ele>
        <time>2018-06-30T04:14:18.008Z</time>
      </trkpt>
      <trkpt lat="40.78071" lon="-3.82939">
        <ele>1133</ele>
        <time>2018-06-30T04:14:31.008Z</time>
      </trkpt>
      <trkpt lat="40.780794" lon="-3.829459">
        <ele>1133</ele>
        <time>2018-06-30T04:14:40.008Z</time>
      </trkpt>
      <trkpt lat="40.780861" lon="-3.829502">
        <ele>1134</ele>
        <time>2018-06-30T04:14:47.008Z</time>
      </trkpt>
      <trkpt lat="40.780927" lon="-3.829566">
        <ele>1135</ele>
        <time>2018-06-30T04:14:54.008Z</time>
      </trkpt>
      <trkpt lat="40.781018" lon="-3.829621">
        <ele>1136</ele>
        <time>2018-06-30T04:15:04.008Z</time>
      </trkpt>
      <trkpt lat="40.781086" lon="-3.829655">
        <ele>1136.1311137343</ele>
        <time>2018-06-30T04:15:11.008Z</time>
      </trkpt>
      <trkpt lat="40.781158" lon="-3.829705">
        <ele>1137</ele>
        <time>2018-06-30T04:15:19.008Z</time>
      </trkpt>
      <trkpt lat="40.781212" lon="-3.82976">
        <ele>1138</ele>
        <time>2018-06-30T04:15:26.008Z</time>
      </trkpt>
      <trkpt lat="40.781306" lon="-3.829822">
        <ele>1138</ele>
        <time>2018-06-30T04:15:37.008Z</time>
      </trkpt>
      <trkpt lat="40.781383" lon="-3.829847">
        <ele>1139</ele>
        <time>2018-06-30T04:15:44.008Z</time>
      </trkpt>
      <trkpt lat="40.781448" lon="-3.829928">
        <ele>1140</ele>
        <time>2018-06-30T04:15:53.008Z</time>
      </trkpt>
      <trkpt lat="40.781512" lon="-3.829959">
        <ele>1142</ele>
        <time>2018-06-30T04:16:03.008Z</time>
      </trkpt>
      <trkpt lat="40.781584" lon="-3.829943">
        <ele>1142</ele>
        <time>2018-06-30T04:16:19.008Z</time>
      </trkpt>
      <trkpt lat="40.781626" lon="-3.829883">
        <ele>1142</ele>
        <time>2018-06-30T04:16:50.008Z</time>
      </trkpt>
      <trkpt lat="40.781675" lon="-3.829941">
        <ele>1143</ele>
        <time>2018-06-30T04:21:09.008Z</time>
      </trkpt>
      <trkpt lat="40.781731" lon="-3.829989">
        <ele>1143</ele>
        <time>2018-06-30T04:21:19.008Z</time>
      </trkpt>
      <trkpt lat="40.781792" lon="-3.830043">
        <ele>1144.1311137343</ele>
        <time>2018-06-30T04:21:41.008Z</time>
      </trkpt>
      <trkpt lat="40.781873" lon="-3.830112">
        <ele>1145</ele>
        <time>2018-06-30T04:21:58.008Z</time>
      </trkpt>
      <trkpt lat="40.781963" lon="-3.83016">
        <ele>1146</ele>
        <time>2018-06-30T04:22:07.008Z</time>
      </trkpt>
      <trkpt lat="40.782048" lon="-3.830218">
        <ele>1147</ele>
        <time>2018-06-30T04:22:15.008Z</time>
      </trkpt>
      <trkpt lat="40.782122" lon="-3.830282">
        <ele>1149</ele>
        <time>2018-06-30T04:22:23.008Z</time>
      </trkpt>
      <trkpt lat="40.782197" lon="-3.830361">
        <ele>1149</ele>
        <time>2018-06-30T04:22:32.008Z</time>
      </trkpt>
      <trkpt lat="40.78227" lon="-3.830402">
        <ele>1149</ele>
        <time>2018-06-30T04:22:39.008Z</time>
      </trkpt>
      <trkpt lat="40.782363" lon="-3.830446">
        <ele>1150</ele>
        <time>2018-06-30T04:22:47.008Z</time>
      </trkpt>
      <trkpt lat="40.782452" lon="-3.830493">
        <ele>1151</ele>
        <time>2018-06-30T04:22:55.008Z</time>
      </trkpt>
      <trkpt lat="40.78254" lon="-3.830537">
        <ele>1151</ele>
        <time>2018-06-30T04:23:03.008Z</time>
      </trkpt>
      <trkpt lat="40.782631" lon="-3.830587">
        <ele>1151.12135419663</ele>
        <time>2018-06-30T04:23:11.008Z</time>
      </trkpt>
      <trkpt lat="40.782713" lon="-3.830647">
        <ele>1152</ele>
        <time>2018-06-30T04:23:19.008Z</time>
      </trkpt>
      <trkpt lat="40.782804" lon="-3.830701">
        <ele>1153</ele>
        <time>2018-06-30T04:23:27.008Z</time>
      </trkpt>
      <trkpt lat="40.782885" lon="-3.830735">
        <ele>1154</ele>
        <time>2018-06-30T04:23:34.008Z</time>
      </trkpt>
      <trkpt lat="40.782972" lon="-3.830787">
        <ele>1155</ele>
        <time>2018-06-30T04:23:42.008Z</time>
      </trkpt>
      <trkpt lat="40.783045" lon="-3.830863">
        <ele>1155</ele>
        <time>2018-06-30T04:23:50.008Z</time>
      </trkpt>
      <trkpt lat="40.783113" lon="-3.830926">
        <ele>1156</ele>
        <time>2018-06-30T04:23:57.008Z</time>
      </trkpt>
      <trkpt lat="40.783186" lon="-3.830991">
        <ele>1156</ele>
        <time>2018-06-30T04:24:05.008Z</time>
      </trkpt>
      <trkpt lat="40.783258" lon="-3.831054">
        <ele>1158</ele>
        <time>2018-06-30T04:24:12.008Z</time>
      </trkpt>
      <trkpt lat="40.783331" lon="-3.831109">
        <ele>1158</ele>
        <time>2018-06-30T04:24:19.008Z</time>
      </trkpt>
      <trkpt lat="40.783407" lon="-3.831159">
        <ele>1160</ele>
        <time>2018-06-30T04:24:26.008Z</time>
      </trkpt>
      <trkpt lat="40.783488" lon="-3.831199">
        <ele>1160</ele>
        <time>2018-06-30T04:24:33.008Z</time>
      </trkpt>
      <trkpt lat="40.783558" lon="-3.831253">
        <ele>1160</ele>
        <time>2018-06-30T04:24:39.008Z</time>
      </trkpt>
      <trkpt lat="40.783613" lon="-3.831288">
        <ele>1162</ele>
        <time>2018-06-30T04:24:44.008Z</time>
      </trkpt>
      <trkpt lat="40.78366" lon="-3.831341">
        <ele>1162</ele>
        <time>2018-06-30T04:24:49.008Z</time>
      </trkpt>
      <trkpt lat="40.783716" lon="-3.831396">
        <ele>1162</ele>
        <time>2018-06-30T04:24:55.008Z</time>
      </trkpt>
      <trkpt lat="40.783754" lon="-3.831431">
        <ele>1162</ele>
        <time>2018-06-30T04:24:59.008Z</time>
      </trkpt>
      <trkpt lat="40.783808" lon="-3.831496">
        <ele>1163</ele>
        <time>2018-06-30T04:25:05.008Z</time>
      </trkpt>
      <trkpt lat="40.783869" lon="-3.831556">
        <ele>1164</ele>
        <time>2018-06-30T04:25:12.008Z</time>
      </trkpt>
      <trkpt lat="40.783898" lon="-3.831594">
        <ele>1164</ele>
        <time>2018-06-30T04:25:16.008Z</time>
      </trkpt>
      <trkpt lat="40.783951" lon="-3.831662">
        <ele>1165</ele>
        <time>2018-06-30T04:25:22.008Z</time>
      </trkpt>
      <trkpt lat="40.784002" lon="-3.831721">
        <ele>1165</ele>
        <time>2018-06-30T04:25:28.008Z</time>
      </trkpt>
      <trkpt lat="40.784056" lon="-3.83179">
        <ele>1166</ele>
        <time>2018-06-30T04:25:34.008Z</time>
      </trkpt>
      <trkpt lat="40.784115" lon="-3.831845">
        <ele>1166</ele>
        <time>2018-06-30T04:25:40.008Z</time>
      </trkpt>
      <trkpt lat="40.784181" lon="-3.8319">
        <ele>1168</ele>
        <time>2018-06-30T04:25:47.008Z</time>
      </trkpt>
      <trkpt lat="40.784242" lon="-3.83196">
        <ele>1170</ele>
        <time>2018-06-30T04:25:54.008Z</time>
      </trkpt>
      <trkpt lat="40.784298" lon="-3.83203">
        <ele>1170</ele>
        <time>2018-06-30T04:26:00.008Z</time>
      </trkpt>
      <trkpt lat="40.784351" lon="-3.832095">
        <ele>1170</ele>
        <time>2018-06-30T04:26:06.008Z</time>
      </trkpt>
      <trkpt lat="40.784399" lon="-3.832166">
        <ele>1171</ele>
        <time>2018-06-30T04:26:12.008Z</time>
      </trkpt>
      <trkpt lat="40.78445" lon="-3.832234">
        <ele>1171</ele>
        <time>2018-06-30T04:26:18.008Z</time>
      </trkpt>
      <trkpt lat="40.784518" lon="-3.832306">
        <ele>1172</ele>
        <time>2018-06-30T04:26:26.008Z</time>
      </trkpt>
      <trkpt lat="40.78459" lon="-3.832402">
        <ele>1174</ele>
        <time>2018-06-30T04:26:35.008Z</time>
      </trkpt>
      <trkpt lat="40.784646" lon="-3.832491">
        <ele>1176</ele>
        <time>2018-06-30T04:26:43.008Z</time>
      </trkpt>
      <trkpt lat="40.784687" lon="-3.832584">
        <ele>1176</ele>
        <time>2018-06-30T04:26:50.008Z</time>
      </trkpt>
      <trkpt lat="40.784726" lon="-3.832709">
        <ele>1177</ele>
        <time>2018-06-30T04:26:59.008Z</time>
      </trkpt>
      <trkpt lat="40.78476" lon="-3.832814">
        <ele>1178</ele>
        <time>2018-06-30T04:27:07.008Z</time>
      </trkpt>
      <trkpt lat="40.784785" lon="-3.83292">
        <ele>1180</ele>
        <time>2018-06-30T04:27:15.008Z</time>
      </trkpt>
      <trkpt lat="40.784827" lon="-3.833018">
        <ele>1180</ele>
        <time>2018-06-30T04:27:22.008Z</time>
      </trkpt>
      <trkpt lat="40.784877" lon="-3.833086">
        <ele>1180</ele>
        <time>2018-06-30T04:27:28.008Z</time>
      </trkpt>
      <trkpt lat="40.784931" lon="-3.833174">
        <ele>1181</ele>
        <time>2018-06-30T04:27:35.008Z</time>
      </trkpt>
      <trkpt lat="40.784999" lon="-3.833266">
        <ele>1183</ele>
        <time>2018-06-30T04:27:43.008Z</time>
      </trkpt>
      <trkpt lat="40.78507" lon="-3.83333">
        <ele>1183</ele>
        <time>2018-06-30T04:27:50.008Z</time>
      </trkpt>
      <trkpt lat="40.785143" lon="-3.833396">
        <ele>1184</ele>
        <time>2018-06-30T04:27:57.008Z</time>
      </trkpt>
      <trkpt lat="40.785205" lon="-3.833484">
        <ele>1184</ele>
        <time>2018-06-30T04:28:04.008Z</time>
      </trkpt>
      <trkpt lat="40.785274" lon="-3.833567">
        <ele>1184.1311137343</ele>
        <time>2018-06-30T04:28:11.008Z</time>
      </trkpt>
      <trkpt lat="40.785326" lon="-3.833636">
        <ele>1185</ele>
        <time>2018-06-30T04:28:17.008Z</time>
      </trkpt>
      <trkpt lat="40.785382" lon="-3.833715">
        <ele>1186</ele>
        <time>2018-06-30T04:28:24.008Z</time>
      </trkpt>
      <trkpt lat="40.785446" lon="-3.833802">
        <ele>1187</ele>
        <time>2018-06-30T04:28:32.008Z</time>
      </trkpt>
      <trkpt lat="40.785504" lon="-3.833876">
        <ele>1187</ele>
        <time>2018-06-30T04:28:39.008Z</time>
      </trkpt>
      <trkpt lat="40.785556" lon="-3.833984">
        <ele>1189</ele>
        <time>2018-06-30T04:28:47.008Z</time>
      </trkpt>
      <trkpt lat="40.785608" lon="-3.834096">
        <ele>1189</ele>
        <time>2018-06-30T04:28:56.008Z</time>
      </trkpt>
      <trkpt lat="40.785656" lon="-3.834178">
        <ele>1192</ele>
        <time>2018-06-30T04:29:03.008Z</time>
      </trkpt>
      <trkpt lat="40.785708" lon="-3.834281">
        <ele>1194</ele>
        <time>2018-06-30T04:29:12.008Z</time>
      </trkpt>
      <trkpt lat="40.78577" lon="-3.834384">
        <ele>1194.20204276217</ele>
        <time>2018-06-30T04:29:21.008Z</time>
      </trkpt>
      <trkpt lat="40.78584" lon="-3.83447">
        <ele>1195</ele>
        <time>2018-06-30T04:29:29.008Z</time>
      </trkpt>
      <trkpt lat="40.785908" lon="-3.834575">
        <ele>1196</ele>
        <time>2018-06-30T04:29:38.008Z</time>
      </trkpt>
      <trkpt lat="40.785984" lon="-3.834662">
        <ele>1196</ele>
        <time>2018-06-30T04:29:47.008Z</time>
      </trkpt>
      <trkpt lat="40.786074" lon="-3.834719">
        <ele>1196</ele>
        <time>2018-06-30T04:29:58.008Z</time>
      </trkpt>
      <trkpt lat="40.78617" lon="-3.834769">
        <ele>1196</ele>
        <time>2018-06-30T04:30:06.008Z</time>
      </trkpt>
      <trkpt lat="40.786239" lon="-3.834863">
        <ele>1196</ele>
        <time>2018-06-30T04:30:14.008Z</time>
      </trkpt>
      <trkpt lat="40.786321" lon="-3.83494">
        <ele>1196</ele>
        <time>2018-06-30T04:30:21.008Z</time>
      </trkpt>
      <trkpt lat="40.786401" lon="-3.835023">
        <ele>1196</ele>
        <time>2018-06-30T04:30:29.008Z</time>
      </trkpt>
      <trkpt lat="40.786474" lon="-3.835112">
        <ele>1197</ele>
        <time>2018-06-30T04:30:37.008Z</time>
      </trkpt>
      <trkpt lat="40.786547" lon="-3.835211">
        <ele>1199</ele>
        <time>2018-06-30T04:30:47.008Z</time>
      </trkpt>
      <trkpt lat="40.786626" lon="-3.8353">
        <ele>1201</ele>
        <time>2018-06-30T04:30:59.008Z</time>
      </trkpt>
      <trkpt lat="40.786705" lon="-3.835385">
        <ele>1202</ele>
        <time>2018-06-30T04:31:07.008Z</time>
      </trkpt>
      <trkpt lat="40.786774" lon="-3.835479">
        <ele>1204</ele>
        <time>2018-06-30T04:31:16.008Z</time>
      </trkpt>
      <trkpt lat="40.786822" lon="-3.835582">
        <ele>1206</ele>
        <time>2018-06-30T04:31:26.008Z</time>
      </trkpt>
      <trkpt lat="40.786887" lon="-3.835692">
        <ele>1208</ele>
        <time>2018-06-30T04:31:39.008Z</time>
      </trkpt>
      <trkpt lat="40.786916" lon="-3.835829">
        <ele>1210</ele>
        <time>2018-06-30T04:31:48.008Z</time>
      </trkpt>
      <trkpt lat="40.786962" lon="-3.835948">
        <ele>1211</ele>
        <time>2018-06-30T04:31:56.008Z</time>
      </trkpt>
      <trkpt lat="40.787028" lon="-3.836063">
        <ele>1213</ele>
        <time>2018-06-30T04:32:06.008Z</time>
      </trkpt>
      <trkpt lat="40.787117" lon="-3.836134">
        <ele>1215</ele>
        <time>2018-06-30T04:32:17.008Z</time>
      </trkpt>
      <trkpt lat="40.787204" lon="-3.836215">
        <ele>1217</ele>
        <time>2018-06-30T04:32:26.008Z</time>
      </trkpt>
      <trkpt lat="40.78729" lon="-3.836308">
        <ele>1219</ele>
        <time>2018-06-30T04:32:34.008Z</time>
      </trkpt>
      <trkpt lat="40.787386" lon="-3.836367">
        <ele>1221</ele>
        <time>2018-06-30T04:32:45.008Z</time>
      </trkpt>
      <trkpt lat="40.787485" lon="-3.836415">
        <ele>1222</ele>
        <time>2018-06-30T04:32:54.008Z</time>
      </trkpt>
      <trkpt lat="40.787576" lon="-3.836472">
        <ele>1223</ele>
        <time>2018-06-30T04:33:02.008Z</time>
      </trkpt>
      <trkpt lat="40.787676" lon="-3.836522">
        <ele>1223.1311137343</ele>
        <time>2018-06-30T04:33:11.008Z</time>
      </trkpt>
      <trkpt lat="40.787761" lon="-3.836594">
        <ele>1224.40408552434</ele>
        <time>2018-06-30T04:33:21.008Z</time>
      </trkpt>
      <trkpt lat="40.787846" lon="-3.836682">
        <ele>1226</ele>
        <time>2018-06-30T04:33:29.008Z</time>
      </trkpt>
      <trkpt lat="40.787932" lon="-3.836768">
        <ele>1226</ele>
        <time>2018-06-30T04:33:38.008Z</time>
      </trkpt>
      <trkpt lat="40.788011" lon="-3.836859">
        <ele>1229</ele>
        <time>2018-06-30T04:33:57.008Z</time>
      </trkpt>
      <trkpt lat="40.7881" lon="-3.836934">
        <ele>1231</ele>
        <time>2018-06-30T04:34:13.008Z</time>
      </trkpt>
      <trkpt lat="40.788163" lon="-3.837046">
        <ele>1232</ele>
        <time>2018-06-30T04:34:24.008Z</time>
      </trkpt>
      <trkpt lat="40.788229" lon="-3.837158">
        <ele>1233</ele>
        <time>2018-06-30T04:34:33.008Z</time>
      </trkpt>
      <trkpt lat="40.788289" lon="-3.83727">
        <ele>1233.24270839326</ele>
        <time>2018-06-30T04:34:41.008Z</time>
      </trkpt>
      <trkpt lat="40.788357" lon="-3.83737">
        <ele>1235</ele>
        <time>2018-06-30T04:34:49.008Z</time>
      </trkpt>
      <trkpt lat="40.788403" lon="-3.837499">
        <ele>1235</ele>
        <time>2018-06-30T04:34:58.008Z</time>
      </trkpt>
      <trkpt lat="40.788453" lon="-3.83762">
        <ele>1236</ele>
        <time>2018-06-30T04:35:08.008Z</time>
      </trkpt>
      <trkpt lat="40.788493" lon="-3.837742">
        <ele>1237</ele>
        <time>2018-06-30T04:35:16.008Z</time>
      </trkpt>
      <trkpt lat="40.788526" lon="-3.837884">
        <ele>1237</ele>
        <time>2018-06-30T04:35:26.008Z</time>
      </trkpt>
      <trkpt lat="40.788544" lon="-3.838013">
        <ele>1238</ele>
        <time>2018-06-30T04:35:35.008Z</time>
      </trkpt>
      <trkpt lat="40.788574" lon="-3.838141">
        <ele>1239</ele>
        <time>2018-06-30T04:35:42.008Z</time>
      </trkpt>
      <trkpt lat="40.788603" lon="-3.838267">
        <ele>1239</ele>
        <time>2018-06-30T04:35:50.008Z</time>
      </trkpt>
      <trkpt lat="40.788614" lon="-3.838406">
        <ele>1238</ele>
        <time>2018-06-30T04:35:58.008Z</time>
      </trkpt>
      <trkpt lat="40.78863" lon="-3.838546">
        <ele>1238</ele>
        <time>2018-06-30T04:36:06.008Z</time>
      </trkpt>
      <trkpt lat="40.788658" lon="-3.83868">
        <ele>1239.20204276217</ele>
        <time>2018-06-30T04:36:21.008Z</time>
      </trkpt>
      <trkpt lat="40.788692" lon="-3.838804">
        <ele>1241</ele>
        <time>2018-06-30T04:36:29.008Z</time>
      </trkpt>
      <trkpt lat="40.788723" lon="-3.838957">
        <ele>1241</ele>
        <time>2018-06-30T04:36:37.008Z</time>
      </trkpt>
      <trkpt lat="40.788768" lon="-3.839079">
        <ele>1242</ele>
        <time>2018-06-30T04:36:44.008Z</time>
      </trkpt>
      <trkpt lat="40.788804" lon="-3.839221">
        <ele>1243</ele>
        <time>2018-06-30T04:36:57.008Z</time>
      </trkpt>
      <trkpt lat="40.788824" lon="-3.839353">
        <ele>1244</ele>
        <time>2018-06-30T04:37:04.008Z</time>
      </trkpt>
      <trkpt lat="40.788878" lon="-3.839471">
        <ele>1244.1311137343</ele>
        <time>2018-06-30T04:37:11.008Z</time>
      </trkpt>
      <trkpt lat="40.788926" lon="-3.839604">
        <ele>1245</ele>
        <time>2018-06-30T04:37:19.008Z</time>
      </trkpt>
      <trkpt lat="40.788972" lon="-3.839728">
        <ele>1247</ele>
        <time>2018-06-30T04:37:28.008Z</time>
      </trkpt>
      <trkpt lat="40.789028" lon="-3.839854">
        <ele>1247</ele>
        <time>2018-06-30T04:37:37.008Z</time>
      </trkpt>
      <trkpt lat="40.78907" lon="-3.839984">
        <ele>1247</ele>
        <time>2018-06-30T04:37:46.008Z</time>
      </trkpt>
      <trkpt lat="40.789128" lon="-3.8401">
        <ele>1249</ele>
        <time>2018-06-30T04:37:54.008Z</time>
      </trkpt>
      <trkpt lat="40.789182" lon="-3.840222">
        <ele>1250</ele>
        <time>2018-06-30T04:38:03.008Z</time>
      </trkpt>
      <trkpt lat="40.789226" lon="-3.840353">
        <ele>1251</ele>
        <time>2018-06-30T04:38:13.008Z</time>
      </trkpt>
      <trkpt lat="40.789253" lon="-3.84048">
        <ele>1251</ele>
        <time>2018-06-30T04:38:23.008Z</time>
      </trkpt>
      <trkpt lat="40.789308" lon="-3.840597">
        <ele>1251</ele>
        <time>2018-06-30T04:38:31.008Z</time>
      </trkpt>
      <trkpt lat="40.789366" lon="-3.840714">
        <ele>1251</ele>
        <time>2018-06-30T04:38:40.008Z</time>
      </trkpt>
      <trkpt lat="40.78942" lon="-3.840842">
        <ele>1253</ele>
        <time>2018-06-30T04:38:49.008Z</time>
      </trkpt>
      <trkpt lat="40.789458" lon="-3.840966">
        <ele>1253</ele>
        <time>2018-06-30T04:38:58.008Z</time>
      </trkpt>
      <trkpt lat="40.789505" lon="-3.841098">
        <ele>1253</ele>
        <time>2018-06-30T04:39:06.008Z</time>
      </trkpt>
      <trkpt lat="40.789537" lon="-3.841224">
        <ele>1254</ele>
        <time>2018-06-30T04:39:14.008Z</time>
      </trkpt>
      <trkpt lat="40.789579" lon="-3.841344">
        <ele>1256</ele>
        <time>2018-06-30T04:39:22.008Z</time>
      </trkpt>
      <trkpt lat="40.789613" lon="-3.841479">
        <ele>1256</ele>
        <time>2018-06-30T04:39:32.008Z</time>
      </trkpt>
      <trkpt lat="40.789664" lon="-3.841598">
        <ele>1256</ele>
        <time>2018-06-30T04:39:40.008Z</time>
      </trkpt>
      <trkpt lat="40.789726" lon="-3.841708">
        <ele>1258</ele>
        <time>2018-06-30T04:39:51.008Z</time>
      </trkpt>
      <trkpt lat="40.789786" lon="-3.841831">
        <ele>1258</ele>
        <time>2018-06-30T04:39:59.008Z</time>
      </trkpt>
      <trkpt lat="40.789842" lon="-3.841952">
        <ele>1260</ele>
        <time>2018-06-30T04:40:09.008Z</time>
      </trkpt>
      <trkpt lat="40.789876" lon="-3.842086">
        <ele>1260</ele>
        <time>2018-06-30T04:40:18.008Z</time>
      </trkpt>
      <trkpt lat="40.789923" lon="-3.84221">
        <ele>1261</ele>
        <time>2018-06-30T04:40:28.008Z</time>
      </trkpt>
      <trkpt lat="40.789939" lon="-3.842352">
        <ele>1262</ele>
        <time>2018-06-30T04:40:36.008Z</time>
      </trkpt>
      <trkpt lat="40.789963" lon="-3.842488">
        <ele>1262</ele>
        <time>2018-06-30T04:40:47.008Z</time>
      </trkpt>
      <trkpt lat="40.789998" lon="-3.842632">
        <ele>1264</ele>
        <time>2018-06-30T04:40:56.008Z</time>
      </trkpt>
      <trkpt lat="40.790017" lon="-3.842761">
        <ele>1264</ele>
        <time>2018-06-30T04:41:04.008Z</time>
      </trkpt>
      <trkpt lat="40.79002" lon="-3.842906">
        <ele>1266</ele>
        <time>2018-06-30T04:41:13.008Z</time>
      </trkpt>
      <trkpt lat="40.79006" lon="-3.843026">
        <ele>1266</ele>
        <time>2018-06-30T04:41:19.008Z</time>
      </trkpt>
      <trkpt lat="40.790115" lon="-3.843143">
        <ele>1267</ele>
        <time>2018-06-30T04:41:27.008Z</time>
      </trkpt>
      <trkpt lat="40.790182" lon="-3.843252">
        <ele>1267</ele>
        <time>2018-06-30T04:41:34.008Z</time>
      </trkpt>
      <trkpt lat="40.790222" lon="-3.843385">
        <ele>1267</ele>
        <time>2018-06-30T04:41:42.008Z</time>
      </trkpt>
      <trkpt lat="40.790279" lon="-3.843497">
        <ele>1267</ele>
        <time>2018-06-30T04:41:51.008Z</time>
      </trkpt>
      <trkpt lat="40.790364" lon="-3.843582">
        <ele>1267</ele>
        <time>2018-06-30T04:41:58.008Z</time>
      </trkpt>
      <trkpt lat="40.790439" lon="-3.843669">
        <ele>1268</ele>
        <time>2018-06-30T04:42:05.008Z</time>
      </trkpt>
      <trkpt lat="40.790514" lon="-3.843766">
        <ele>1270</ele>
        <time>2018-06-30T04:42:14.008Z</time>
      </trkpt>
      <trkpt lat="40.790592" lon="-3.843848">
        <ele>1270</ele>
        <time>2018-06-30T04:42:22.008Z</time>
      </trkpt>
      <trkpt lat="40.790663" lon="-3.84395">
        <ele>1270</ele>
        <time>2018-06-30T04:42:31.008Z</time>
      </trkpt>
      <trkpt lat="40.790715" lon="-3.844046">
        <ele>1270</ele>
        <time>2018-06-30T04:42:38.008Z</time>
      </trkpt>
      <trkpt lat="40.790779" lon="-3.844128">
        <ele>1270</ele>
        <time>2018-06-30T04:42:44.008Z</time>
      </trkpt>
      <trkpt lat="40.790851" lon="-3.844205">
        <ele>1270</ele>
        <time>2018-06-30T04:42:52.008Z</time>
      </trkpt>
      <trkpt lat="40.790947" lon="-3.844272">
        <ele>1270</ele>
        <time>2018-06-30T04:43:01.008Z</time>
      </trkpt>
      <trkpt lat="40.791026" lon="-3.844325">
        <ele>1270</ele>
        <time>2018-06-30T04:43:08.008Z</time>
      </trkpt>
      <trkpt lat="40.791112" lon="-3.844341">
        <ele>1270</ele>
        <time>2018-06-30T04:43:15.008Z</time>
      </trkpt>
      <trkpt lat="40.791193" lon="-3.84433">
        <ele>1270.40408552434</ele>
        <time>2018-06-30T04:43:21.008Z</time>
      </trkpt>
      <trkpt lat="40.791259" lon="-3.844315">
        <ele>1272</ele>
        <time>2018-06-30T04:43:26.008Z</time>
      </trkpt>
      <trkpt lat="40.791327" lon="-3.844293">
        <ele>1272</ele>
        <time>2018-06-30T04:43:31.008Z</time>
      </trkpt>
      <trkpt lat="40.791398" lon="-3.844268">
        <ele>1272</ele>
        <time>2018-06-30T04:43:36.008Z</time>
      </trkpt>
      <trkpt lat="40.791461" lon="-3.844239">
        <ele>1272</ele>
        <time>2018-06-30T04:43:41.008Z</time>
      </trkpt>
      <trkpt lat="40.791523" lon="-3.844211">
        <ele>1272</ele>
        <time>2018-06-30T04:43:46.008Z</time>
      </trkpt>
      <trkpt lat="40.791593" lon="-3.844183">
        <ele>1273</ele>
        <time>2018-06-30T04:43:52.008Z</time>
      </trkpt>
      <trkpt lat="40.791651" lon="-3.844156">
        <ele>1273</ele>
        <time>2018-06-30T04:43:57.008Z</time>
      </trkpt>
      <trkpt lat="40.791711" lon="-3.844126">
        <ele>1274</ele>
        <time>2018-06-30T04:44:02.008Z</time>
      </trkpt>
      <trkpt lat="40.791766" lon="-3.844096">
        <ele>1274</ele>
        <time>2018-06-30T04:44:07.008Z</time>
      </trkpt>
      <trkpt lat="40.791827" lon="-3.844053">
        <ele>1275</ele>
        <time>2018-06-30T04:44:13.008Z</time>
      </trkpt>
      <trkpt lat="40.791891" lon="-3.844004">
        <ele>1275</ele>
        <time>2018-06-30T04:44:19.008Z</time>
      </trkpt>
      <trkpt lat="40.791953" lon="-3.843947">
        <ele>1275</ele>
        <time>2018-06-30T04:44:25.008Z</time>
      </trkpt>
      <trkpt lat="40.792024" lon="-3.843842">
        <ele>1276</ele>
        <time>2018-06-30T04:44:35.008Z</time>
      </trkpt>
      <trkpt lat="40.792103" lon="-3.843747">
        <ele>1278</ele>
        <time>2018-06-30T04:44:44.008Z</time>
      </trkpt>
      <trkpt lat="40.792166" lon="-3.843637">
        <ele>1278.19639521207</ele>
        <time>2018-06-30T04:44:52.008Z</time>
      </trkpt>
      <trkpt lat="40.792228" lon="-3.843528">
        <ele>1279</ele>
        <time>2018-06-30T04:45:00.008Z</time>
      </trkpt>
      <trkpt lat="40.792276" lon="-3.843418">
        <ele>1280</ele>
        <time>2018-06-30T04:45:08.008Z</time>
      </trkpt>
      <trkpt lat="40.79232" lon="-3.843316">
        <ele>1281</ele>
        <time>2018-06-30T04:45:15.008Z</time>
      </trkpt>
      <trkpt lat="40.792354" lon="-3.843188">
        <ele>1281</ele>
        <time>2018-06-30T04:45:24.008Z</time>
      </trkpt>
      <trkpt lat="40.792424" lon="-3.843092">
        <ele>1282</ele>
        <time>2018-06-30T04:45:34.008Z</time>
      </trkpt>
      <trkpt lat="40.792452" lon="-3.84295">
        <ele>1283</ele>
        <time>2018-06-30T04:45:45.008Z</time>
      </trkpt>
      <trkpt lat="40.792509" lon="-3.842826">
        <ele>1284</ele>
        <time>2018-06-30T04:45:54.008Z</time>
      </trkpt>
      <trkpt lat="40.792581" lon="-3.842725">
        <ele>1286</ele>
        <time>2018-06-30T04:46:04.008Z</time>
      </trkpt>
      <trkpt lat="40.792623" lon="-3.842592">
        <ele>1286</ele>
        <time>2018-06-30T04:46:13.008Z</time>
      </trkpt>
      <trkpt lat="40.792697" lon="-3.84249">
        <ele>1286</ele>
        <time>2018-06-30T04:46:20.008Z</time>
      </trkpt>
      <trkpt lat="40.792757" lon="-3.842377">
        <ele>1288</ele>
        <time>2018-06-30T04:46:29.008Z</time>
      </trkpt>
      <trkpt lat="40.7928" lon="-3.842244">
        <ele>1290</ele>
        <time>2018-06-30T04:46:42.008Z</time>
      </trkpt>
      <trkpt lat="40.792832" lon="-3.842115">
        <ele>1290</ele>
        <time>2018-06-30T04:46:50.008Z</time>
      </trkpt>
      <trkpt lat="40.792865" lon="-3.841989">
        <ele>1290</ele>
        <time>2018-06-30T04:46:57.008Z</time>
      </trkpt>
      <trkpt lat="40.792858" lon="-3.841846">
        <ele>1291</ele>
        <time>2018-06-30T04:47:05.008Z</time>
      </trkpt>
      <trkpt lat="40.792862" lon="-3.84171">
        <ele>1291</ele>
        <time>2018-06-30T04:47:12.008Z</time>
      </trkpt>
      <trkpt lat="40.792928" lon="-3.841606">
        <ele>1291</ele>
        <time>2018-06-30T04:47:18.008Z</time>
      </trkpt>
      <trkpt lat="40.792996" lon="-3.841496">
        <ele>1292</ele>
        <time>2018-06-30T04:47:26.008Z</time>
      </trkpt>
      <trkpt lat="40.793042" lon="-3.841378">
        <ele>1293</ele>
        <time>2018-06-30T04:47:35.008Z</time>
      </trkpt>
      <trkpt lat="40.7931" lon="-3.841272">
        <ele>1294</ele>
        <time>2018-06-30T04:47:44.008Z</time>
      </trkpt>
      <trkpt lat="40.793142" lon="-3.841146">
        <ele>1294</ele>
        <time>2018-06-30T04:47:53.008Z</time>
      </trkpt>
      <trkpt lat="40.793214" lon="-3.841036">
        <ele>1295</ele>
        <time>2018-06-30T04:48:06.008Z</time>
      </trkpt>
      <trkpt lat="40.793294" lon="-3.840945">
        <ele>1296</ele>
        <time>2018-06-30T04:48:16.008Z</time>
      </trkpt>
      <trkpt lat="40.793376" lon="-3.840866">
        <ele>1296</ele>
        <time>2018-06-30T04:48:25.008Z</time>
      </trkpt>
      <trkpt lat="40.793447" lon="-3.840768">
        <ele>1298</ele>
        <time>2018-06-30T04:48:32.008Z</time>
      </trkpt>
      <trkpt lat="40.79353" lon="-3.840721">
        <ele>1298</ele>
        <time>2018-06-30T04:48:39.008Z</time>
      </trkpt>
      <trkpt lat="40.793606" lon="-3.840701">
        <ele>1298</ele>
        <time>2018-06-30T04:48:46.008Z</time>
      </trkpt>
      <trkpt lat="40.793667" lon="-3.840703">
        <ele>1298</ele>
        <time>2018-06-30T04:48:51.008Z</time>
      </trkpt>
      <trkpt lat="40.793725" lon="-3.840706">
        <ele>1298</ele>
        <time>2018-06-30T04:48:56.008Z</time>
      </trkpt>
      <trkpt lat="40.793768" lon="-3.840704">
        <ele>1298</ele>
        <time>2018-06-30T04:48:59.008Z</time>
      </trkpt>
      <trkpt lat="40.793829" lon="-3.840707">
        <ele>1298</ele>
        <time>2018-06-30T04:49:04.008Z</time>
      </trkpt>
      <trkpt lat="40.793868" lon="-3.840706">
        <ele>1298</ele>
        <time>2018-06-30T04:49:07.008Z</time>
      </trkpt>
      <trkpt lat="40.793942" lon="-3.840719">
        <ele>1300</ele>
        <time>2018-06-30T04:49:13.008Z</time>
      </trkpt>
      <trkpt lat="40.794001" lon="-3.840715">
        <ele>1300</ele>
        <time>2018-06-30T04:49:18.008Z</time>
      </trkpt>
      <trkpt lat="40.794057" lon="-3.840725">
        <ele>1301</ele>
        <time>2018-06-30T04:49:23.008Z</time>
      </trkpt>
      <trkpt lat="40.794114" lon="-3.84073">
        <ele>1300</ele>
        <time>2018-06-30T04:50:03.008Z</time>
      </trkpt>
      <trkpt lat="40.794196" lon="-3.840728">
        <ele>1300.2622274686</ele>
        <time>2018-06-30T04:50:11.008Z</time>
      </trkpt>
      <trkpt lat="40.794272" lon="-3.840746">
        <ele>1302</ele>
        <time>2018-06-30T04:50:19.008Z</time>
      </trkpt>
      <trkpt lat="40.79437" lon="-3.840776">
        <ele>1303</ele>
        <time>2018-06-30T04:50:29.008Z</time>
      </trkpt>
      <trkpt lat="40.794463" lon="-3.840828">
        <ele>1304</ele>
        <time>2018-06-30T04:50:38.008Z</time>
      </trkpt>
      <trkpt lat="40.794562" lon="-3.840872">
        <ele>1305</ele>
        <time>2018-06-30T04:50:46.008Z</time>
      </trkpt>
      <trkpt lat="40.794641" lon="-3.840897">
        <ele>1307</ele>
        <time>2018-06-30T04:50:52.008Z</time>
      </trkpt>
      <trkpt lat="40.794715" lon="-3.840936">
        <ele>1307</ele>
        <time>2018-06-30T04:50:58.008Z</time>
      </trkpt>
      <trkpt lat="40.794773" lon="-3.840966">
        <ele>1306</ele>
        <time>2018-06-30T04:51:03.008Z</time>
      </trkpt>
      <trkpt lat="40.794831" lon="-3.841012">
        <ele>1306</ele>
        <time>2018-06-30T04:51:09.008Z</time>
      </trkpt>
      <trkpt lat="40.794905" lon="-3.841069">
        <ele>1308</ele>
        <time>2018-06-30T04:51:16.008Z</time>
      </trkpt>
      <trkpt lat="40.794983" lon="-3.841111">
        <ele>1309</ele>
        <time>2018-06-30T04:51:23.008Z</time>
      </trkpt>
      <trkpt lat="40.795057" lon="-3.841145">
        <ele>1309</ele>
        <time>2018-06-30T04:51:29.008Z</time>
      </trkpt>
      <trkpt lat="40.795139" lon="-3.841194">
        <ele>1309</ele>
        <time>2018-06-30T04:51:37.008Z</time>
      </trkpt>
      <trkpt lat="40.79523" lon="-3.841255">
        <ele>1310</ele>
        <time>2018-06-30T04:51:46.008Z</time>
      </trkpt>
      <trkpt lat="40.795325" lon="-3.841307">
        <ele>1311</ele>
        <time>2018-06-30T04:51:56.008Z</time>
      </trkpt>
      <trkpt lat="40.795404" lon="-3.841351">
        <ele>1311</ele>
        <time>2018-06-30T04:52:03.008Z</time>
      </trkpt>
      <trkpt lat="40.795493" lon="-3.841393">
        <ele>1311</ele>
        <time>2018-06-30T04:52:10.008Z</time>
      </trkpt>
      <trkpt lat="40.795584" lon="-3.84142">
        <ele>1313</ele>
        <time>2018-06-30T04:52:18.008Z</time>
      </trkpt>
      <trkpt lat="40.795671" lon="-3.841448">
        <ele>1313</ele>
        <time>2018-06-30T04:52:26.008Z</time>
      </trkpt>
      <trkpt lat="40.795732" lon="-3.84135">
        <ele>1315</ele>
        <time>2018-06-30T04:52:33.008Z</time>
      </trkpt>
      <trkpt lat="40.795773" lon="-3.841228">
        <ele>1315</ele>
        <time>2018-06-30T04:52:39.008Z</time>
      </trkpt>
      <trkpt lat="40.795754" lon="-3.84109">
        <ele>1315</ele>
        <time>2018-06-30T04:52:46.008Z</time>
      </trkpt>
      <trkpt lat="40.795735" lon="-3.840982">
        <ele>1315</ele>
        <time>2018-06-30T04:52:52.008Z</time>
      </trkpt>
      <trkpt lat="40.795715" lon="-3.840885">
        <ele>1315</ele>
        <time>2018-06-30T04:52:57.008Z</time>
      </trkpt>
      <trkpt lat="40.795695" lon="-3.840795">
        <ele>1315</ele>
        <time>2018-06-30T04:53:02.008Z</time>
      </trkpt>
      <trkpt lat="40.795674" lon="-3.840705">
        <ele>1315</ele>
        <time>2018-06-30T04:53:07.008Z</time>
      </trkpt>
      <trkpt lat="40.795659" lon="-3.840629">
        <ele>1315.1311137343</ele>
        <time>2018-06-30T04:53:11.008Z</time>
      </trkpt>
      <trkpt lat="40.795639" lon="-3.840546">
        <ele>1316</ele>
        <time>2018-06-30T04:53:16.008Z</time>
      </trkpt>
      <trkpt lat="40.795623" lon="-3.840479">
        <ele>1316</ele>
        <time>2018-06-30T04:53:20.008Z</time>
      </trkpt>
      <trkpt lat="40.795606" lon="-3.840405">
        <ele>1316</ele>
        <time>2018-06-30T04:53:25.008Z</time>
      </trkpt>
      <trkpt lat="40.795595" lon="-3.840336">
        <ele>1316</ele>
        <time>2018-06-30T04:53:29.008Z</time>
      </trkpt>
      <trkpt lat="40.795579" lon="-3.840268">
        <ele>1316</ele>
        <time>2018-06-30T04:53:33.008Z</time>
      </trkpt>
      <trkpt lat="40.795567" lon="-3.840217">
        <ele>1316.21583909969</ele>
        <time>2018-06-30T04:53:36.008Z</time>
      </trkpt>
      <trkpt lat="40.795551" lon="-3.840153">
        <ele>1317</ele>
        <time>2018-06-30T04:53:40.008Z</time>
      </trkpt>
      <trkpt lat="40.795535" lon="-3.840089">
        <ele>1318</ele>
        <time>2018-06-30T04:53:44.008Z</time>
      </trkpt>
      <trkpt lat="40.795518" lon="-3.840039">
        <ele>1318</ele>
        <time>2018-06-30T04:53:47.008Z</time>
      </trkpt>
      <trkpt lat="40.795497" lon="-3.839977">
        <ele>1318.20204276217</ele>
        <time>2018-06-30T04:53:51.008Z</time>
      </trkpt>
      <trkpt lat="40.795469" lon="-3.839919">
        <ele>1319</ele>
        <time>2018-06-30T04:53:55.008Z</time>
      </trkpt>
      <trkpt lat="40.795445" lon="-3.839857">
        <ele>1319</ele>
        <time>2018-06-30T04:53:59.008Z</time>
      </trkpt>
      <trkpt lat="40.795418" lon="-3.839792">
        <ele>1320</ele>
        <time>2018-06-30T04:54:03.008Z</time>
      </trkpt>
      <trkpt lat="40.79539" lon="-3.839731">
        <ele>1320</ele>
        <time>2018-06-30T04:54:07.008Z</time>
      </trkpt>
      <trkpt lat="40.795366" lon="-3.839685">
        <ele>1320</ele>
        <time>2018-06-30T04:54:10.008Z</time>
      </trkpt>
      <trkpt lat="40.795348" lon="-3.83964">
        <ele>1320</ele>
        <time>2018-06-30T04:54:13.008Z</time>
      </trkpt>
      <trkpt lat="40.795328" lon="-3.839582">
        <ele>1320</ele>
        <time>2018-06-30T04:54:17.008Z</time>
      </trkpt>
      <trkpt lat="40.795302" lon="-3.839525">
        <ele>1320.20204276217</ele>
        <time>2018-06-30T04:54:21.008Z</time>
      </trkpt>
      <trkpt lat="40.795274" lon="-3.839452">
        <ele>1321</ele>
        <time>2018-06-30T04:54:26.008Z</time>
      </trkpt>
      <trkpt lat="40.795252" lon="-3.839387">
        <ele>1321</ele>
        <time>2018-06-30T04:54:30.008Z</time>
      </trkpt>
      <trkpt lat="40.795224" lon="-3.839322">
        <ele>1321</ele>
        <time>2018-06-30T04:54:34.008Z</time>
      </trkpt>
      <trkpt lat="40.795208" lon="-3.839276">
        <ele>1321</ele>
        <time>2018-06-30T04:54:37.008Z</time>
      </trkpt>
      <trkpt lat="40.795188" lon="-3.839211">
        <ele>1321</ele>
        <time>2018-06-30T04:54:41.008Z</time>
      </trkpt>
      <trkpt lat="40.795166" lon="-3.839151">
        <ele>1321</ele>
        <time>2018-06-30T04:54:45.008Z</time>
      </trkpt>
      <trkpt lat="40.79515" lon="-3.839104">
        <ele>1321</ele>
        <time>2018-06-30T04:54:48.008Z</time>
      </trkpt>
      <trkpt lat="40.79513" lon="-3.839039">
        <ele>1322</ele>
        <time>2018-06-30T04:54:52.008Z</time>
      </trkpt>
      <trkpt lat="40.795106" lon="-3.83898">
        <ele>1322</ele>
        <time>2018-06-30T04:54:56.008Z</time>
      </trkpt>
      <trkpt lat="40.79508" lon="-3.838911">
        <ele>1323</ele>
        <time>2018-06-30T04:55:00.008Z</time>
      </trkpt>
      <trkpt lat="40.795059" lon="-3.838861">
        <ele>1323</ele>
        <time>2018-06-30T04:55:03.008Z</time>
      </trkpt>
      <trkpt lat="40.795036" lon="-3.838798">
        <ele>1323</ele>
        <time>2018-06-30T04:55:07.008Z</time>
      </trkpt>
      <trkpt lat="40.795022" lon="-3.838737">
        <ele>1323</ele>
        <time>2018-06-30T04:55:10.008Z</time>
      </trkpt>
      <trkpt lat="40.794989" lon="-3.838659">
        <ele>1323</ele>
        <time>2018-06-30T04:55:13.008Z</time>
      </trkpt>
      <trkpt lat="40.794948" lon="-3.838581">
        <ele>1323</ele>
        <time>2018-06-30T04:55:16.008Z</time>
      </trkpt>
      <trkpt lat="40.794915" lon="-3.838504">
        <ele>1323</ele>
        <time>2018-06-30T04:55:19.008Z</time>
      </trkpt>
      <trkpt lat="40.794866" lon="-3.838428">
        <ele>1323</ele>
        <time>2018-06-30T04:55:22.008Z</time>
      </trkpt>
      <trkpt lat="40.79481" lon="-3.838338">
        <ele>1323</ele>
        <time>2018-06-30T04:55:26.008Z</time>
      </trkpt>
      <trkpt lat="40.794748" lon="-3.838207">
        <ele>1322</ele>
        <time>2018-06-30T04:55:32.008Z</time>
      </trkpt>
      <trkpt lat="40.794695" lon="-3.83808">
        <ele>1322</ele>
        <time>2018-06-30T04:55:37.008Z</time>
      </trkpt>
      <trkpt lat="40.794623" lon="-3.837963">
        <ele>1322</ele>
        <time>2018-06-30T04:55:42.008Z</time>
      </trkpt>
      <trkpt lat="40.794569" lon="-3.83782">
        <ele>1322</ele>
        <time>2018-06-30T04:55:47.008Z</time>
      </trkpt>
      <trkpt lat="40.794541" lon="-3.837683">
        <ele>1321.39387171349</ele>
        <time>2018-06-30T04:55:51.008Z</time>
      </trkpt>
      <trkpt lat="40.794503" lon="-3.837531">
        <ele>1318.78627630605</ele>
        <time>2018-06-30T04:55:56.008Z</time>
      </trkpt>
      <trkpt lat="40.794476" lon="-3.837397">
        <ele>1318</ele>
        <time>2018-06-30T04:56:00.008Z</time>
      </trkpt>
      <trkpt lat="40.794435" lon="-3.837268">
        <ele>1316</ele>
        <time>2018-06-30T04:56:05.008Z</time>
      </trkpt>
      <trkpt lat="40.794379" lon="-3.837123">
        <ele>1316</ele>
        <time>2018-06-30T04:56:10.008Z</time>
      </trkpt>
      <trkpt lat="40.794326" lon="-3.837007">
        <ele>1315</ele>
        <time>2018-06-30T04:56:15.008Z</time>
      </trkpt>
      <trkpt lat="40.794276" lon="-3.836867">
        <ele>1314.59591447566</ele>
        <time>2018-06-30T04:56:21.008Z</time>
      </trkpt>
      <trkpt lat="40.794237" lon="-3.836738">
        <ele>1313</ele>
        <time>2018-06-30T04:56:26.008Z</time>
      </trkpt>
      <trkpt lat="40.794208" lon="-3.8366">
        <ele>1313</ele>
        <time>2018-06-30T04:56:30.008Z</time>
      </trkpt>
      <trkpt lat="40.794176" lon="-3.836446">
        <ele>1312</ele>
        <time>2018-06-30T04:56:34.008Z</time>
      </trkpt>
      <trkpt lat="40.794137" lon="-3.836305">
        <ele>1312</ele>
        <time>2018-06-30T04:56:38.008Z</time>
      </trkpt>
      <trkpt lat="40.794081" lon="-3.836168">
        <ele>1310</ele>
        <time>2018-06-30T04:56:43.008Z</time>
      </trkpt>
      <trkpt lat="40.794018" lon="-3.836052">
        <ele>1310</ele>
        <time>2018-06-30T04:56:48.008Z</time>
      </trkpt>
      <trkpt lat="40.793958" lon="-3.835906">
        <ele>1308</ele>
        <time>2018-06-30T04:56:53.008Z</time>
      </trkpt>
      <trkpt lat="40.793903" lon="-3.835768">
        <ele>1308</ele>
        <time>2018-06-30T04:56:57.008Z</time>
      </trkpt>
      <trkpt lat="40.79386" lon="-3.83562">
        <ele>1307.36969900703</ele>
        <time>2018-06-30T04:57:01.008Z</time>
      </trkpt>
      <trkpt lat="40.793791" lon="-3.835499">
        <ele>1305</ele>
        <time>2018-06-30T04:57:05.008Z</time>
      </trkpt>
      <trkpt lat="40.793717" lon="-3.835391">
        <ele>1305</ele>
        <time>2018-06-30T04:57:09.008Z</time>
      </trkpt>
      <trkpt lat="40.793641" lon="-3.835282">
        <ele>1304</ele>
        <time>2018-06-30T04:57:13.008Z</time>
      </trkpt>
      <trkpt lat="40.793582" lon="-3.835176">
        <ele>1304</ele>
        <time>2018-06-30T04:57:17.008Z</time>
      </trkpt>
      <trkpt lat="40.793514" lon="-3.835049">
        <ele>1303.59591447566</ele>
        <time>2018-06-30T04:57:21.008Z</time>
      </trkpt>
      <trkpt lat="40.793435" lon="-3.834939">
        <ele>1302</ele>
        <time>2018-06-30T04:57:25.008Z</time>
      </trkpt>
      <trkpt lat="40.793351" lon="-3.834832">
        <ele>1302</ele>
        <time>2018-06-30T04:57:30.008Z</time>
      </trkpt>
      <trkpt lat="40.793286" lon="-3.834708">
        <ele>1301</ele>
        <time>2018-06-30T04:57:35.008Z</time>
      </trkpt>
      <trkpt lat="40.793243" lon="-3.834588">
        <ele>1301</ele>
        <time>2018-06-30T04:57:39.008Z</time>
      </trkpt>
      <trkpt lat="40.793207" lon="-3.834466">
        <ele>1300</ele>
        <time>2018-06-30T04:57:43.008Z</time>
      </trkpt>
      <trkpt lat="40.793178" lon="-3.834348">
        <ele>1300</ele>
        <time>2018-06-30T04:57:47.008Z</time>
      </trkpt>
      <trkpt lat="40.793163" lon="-3.834219">
        <ele>1301</ele>
        <time>2018-06-30T04:57:52.008Z</time>
      </trkpt>
      <trkpt lat="40.793136" lon="-3.834105">
        <ele>1301</ele>
        <time>2018-06-30T04:57:56.008Z</time>
      </trkpt>
      <trkpt lat="40.793112" lon="-3.833983">
        <ele>1301</ele>
        <time>2018-06-30T04:58:00.008Z</time>
      </trkpt>
      <trkpt lat="40.793069" lon="-3.833842">
        <ele>1299</ele>
        <time>2018-06-30T04:58:05.008Z</time>
      </trkpt>
      <trkpt lat="40.793029" lon="-3.833728">
        <ele>1299</ele>
        <time>2018-06-30T04:58:09.008Z</time>
      </trkpt>
      <trkpt lat="40.792977" lon="-3.833585">
        <ele>1300</ele>
        <time>2018-06-30T04:58:14.008Z</time>
      </trkpt>
      <trkpt lat="40.792913" lon="-3.833463">
        <ele>1300</ele>
        <time>2018-06-30T04:58:19.008Z</time>
      </trkpt>
      <trkpt lat="40.792855" lon="-3.833332">
        <ele>1300</ele>
        <time>2018-06-30T04:58:24.008Z</time>
      </trkpt>
      <trkpt lat="40.792801" lon="-3.833214">
        <ele>1300</ele>
        <time>2018-06-30T04:58:29.008Z</time>
      </trkpt>
      <trkpt lat="40.792746" lon="-3.833084">
        <ele>1300</ele>
        <time>2018-06-30T04:58:34.008Z</time>
      </trkpt>
      <trkpt lat="40.792683" lon="-3.832981">
        <ele>1300</ele>
        <time>2018-06-30T04:58:39.008Z</time>
      </trkpt>
      <trkpt lat="40.792629" lon="-3.832868">
        <ele>1302</ele>
        <time>2018-06-30T04:58:46.008Z</time>
      </trkpt>
      <trkpt lat="40.792592" lon="-3.832734">
        <ele>1304</ele>
        <time>2018-06-30T04:58:58.008Z</time>
      </trkpt>
      <trkpt lat="40.792526" lon="-3.832627">
        <ele>1304</ele>
        <time>2018-06-30T04:59:07.008Z</time>
      </trkpt>
      <trkpt lat="40.792444" lon="-3.83253">
        <ele>1304</ele>
        <time>2018-06-30T04:59:16.008Z</time>
      </trkpt>
      <trkpt lat="40.792376" lon="-3.832432">
        <ele>1305</ele>
        <time>2018-06-30T04:59:24.008Z</time>
      </trkpt>
      <trkpt lat="40.792318" lon="-3.832312">
        <ele>1305</ele>
        <time>2018-06-30T04:59:32.008Z</time>
      </trkpt>
      <trkpt lat="40.792252" lon="-3.8322">
        <ele>1305</ele>
        <time>2018-06-30T04:59:41.008Z</time>
      </trkpt>
      <trkpt lat="40.792207" lon="-3.832072">
        <ele>1305</ele>
        <time>2018-06-30T04:59:49.008Z</time>
      </trkpt>
      <trkpt lat="40.792175" lon="-3.831946">
        <ele>1306</ele>
        <time>2018-06-30T04:59:57.008Z</time>
      </trkpt>
      <trkpt lat="40.792154" lon="-3.8318">
        <ele>1306</ele>
        <time>2018-06-30T05:00:07.008Z</time>
      </trkpt>
      <trkpt lat="40.792116" lon="-3.831678">
        <ele>1306</ele>
        <time>2018-06-30T05:00:20.008Z</time>
      </trkpt>
      <trkpt lat="40.792052" lon="-3.831575">
        <ele>1306</ele>
        <time>2018-06-30T05:00:30.008Z</time>
      </trkpt>
      <trkpt lat="40.79196" lon="-3.831488">
        <ele>1308</ele>
        <time>2018-06-30T05:00:34.008Z</time>
      </trkpt>
      <trkpt lat="40.79186" lon="-3.831405">
        <ele>1308</ele>
        <time>2018-06-30T05:00:39.008Z</time>
      </trkpt>
      <trkpt lat="40.791776" lon="-3.831328">
        <ele>1308</ele>
        <time>2018-06-30T05:00:43.008Z</time>
      </trkpt>
      <trkpt lat="40.791676" lon="-3.83126">
        <ele>1308</ele>
        <time>2018-06-30T05:00:49.008Z</time>
      </trkpt>
      <trkpt lat="40.791576" lon="-3.831204">
        <ele>1308</ele>
        <time>2018-06-30T05:00:54.008Z</time>
      </trkpt>
      <trkpt lat="40.791482" lon="-3.831135">
        <ele>1309</ele>
        <time>2018-06-30T05:01:02.008Z</time>
      </trkpt>
      <trkpt lat="40.791396" lon="-3.831053">
        <ele>1309</ele>
        <time>2018-06-30T05:01:09.008Z</time>
      </trkpt>
      <trkpt lat="40.791326" lon="-3.830978">
        <ele>1310</ele>
        <time>2018-06-30T05:01:16.008Z</time>
      </trkpt>
      <trkpt lat="40.791244" lon="-3.830905">
        <ele>1311</ele>
        <time>2018-06-30T05:01:25.008Z</time>
      </trkpt>
      <trkpt lat="40.791162" lon="-3.830848">
        <ele>1312</ele>
        <time>2018-06-30T05:01:33.008Z</time>
      </trkpt>
      <trkpt lat="40.791114" lon="-3.830799">
        <ele>1312</ele>
        <time>2018-06-30T05:01:38.008Z</time>
      </trkpt>
      <trkpt lat="40.791062" lon="-3.830755">
        <ele>1312</ele>
        <time>2018-06-30T05:01:43.008Z</time>
      </trkpt>
      <trkpt lat="40.79101" lon="-3.830712">
        <ele>1312</ele>
        <time>2018-06-30T05:01:48.008Z</time>
      </trkpt>
      <trkpt lat="40.790954" lon="-3.830666">
        <ele>1314</ele>
        <time>2018-06-30T05:01:53.008Z</time>
      </trkpt>
      <trkpt lat="40.790898" lon="-3.830638">
        <ele>1314</ele>
        <time>2018-06-30T05:01:57.008Z</time>
      </trkpt>
      <trkpt lat="40.790842" lon="-3.830598">
        <ele>1314</ele>
        <time>2018-06-30T05:02:02.008Z</time>
      </trkpt>
      <trkpt lat="40.790786" lon="-3.83056">
        <ele>1314</ele>
        <time>2018-06-30T05:02:07.008Z</time>
      </trkpt>
      <trkpt lat="40.790726" lon="-3.830515">
        <ele>1314</ele>
        <time>2018-06-30T05:02:12.008Z</time>
      </trkpt>
      <trkpt lat="40.790664" lon="-3.830459">
        <ele>1314</ele>
        <time>2018-06-30T05:02:18.008Z</time>
      </trkpt>
      <trkpt lat="40.790604" lon="-3.830387">
        <ele>1315</ele>
        <time>2018-06-30T05:02:24.008Z</time>
      </trkpt>
      <trkpt lat="40.790551" lon="-3.830306">
        <ele>1315</ele>
        <time>2018-06-30T05:02:30.008Z</time>
      </trkpt>
      <trkpt lat="40.790523" lon="-3.830212">
        <ele>1315</ele>
        <time>2018-06-30T05:02:36.008Z</time>
      </trkpt>
      <trkpt lat="40.790502" lon="-3.830125">
        <ele>1315.1311137343</ele>
        <time>2018-06-30T05:02:41.008Z</time>
      </trkpt>
      <trkpt lat="40.790497" lon="-3.83006">
        <ele>1316</ele>
        <time>2018-06-30T05:02:45.008Z</time>
      </trkpt>
      <trkpt lat="40.7905" lon="-3.829981">
        <ele>1317</ele>
        <time>2018-06-30T05:02:50.008Z</time>
      </trkpt>
      <trkpt lat="40.79052" lon="-3.829876">
        <ele>1317</ele>
        <time>2018-06-30T05:02:56.008Z</time>
      </trkpt>
      <trkpt lat="40.790554" lon="-3.829754">
        <ele>1316</ele>
        <time>2018-06-30T05:03:02.008Z</time>
      </trkpt>
      <trkpt lat="40.790594" lon="-3.829625">
        <ele>1316</ele>
        <time>2018-06-30T05:03:08.008Z</time>
      </trkpt>
      <trkpt lat="40.790645" lon="-3.829485">
        <ele>1316</ele>
        <time>2018-06-30T05:03:14.008Z</time>
      </trkpt>
      <trkpt lat="40.790701" lon="-3.829368">
        <ele>1316</ele>
        <time>2018-06-30T05:03:19.008Z</time>
      </trkpt>
      <trkpt lat="40.790762" lon="-3.829255">
        <ele>1315</ele>
        <time>2018-06-30T05:03:22.008Z</time>
      </trkpt>
      <trkpt lat="40.790822" lon="-3.829126">
        <ele>1315</ele>
        <time>2018-06-30T05:03:26.008Z</time>
      </trkpt>
      <trkpt lat="40.790882" lon="-3.829009">
        <ele>1314.78989966901</ele>
        <time>2018-06-30T05:03:31.008Z</time>
      </trkpt>
      <trkpt lat="40.790949" lon="-3.828891">
        <ele>1314</ele>
        <time>2018-06-30T05:03:35.008Z</time>
      </trkpt>
      <trkpt lat="40.791014" lon="-3.828762">
        <ele>1314</ele>
        <time>2018-06-30T05:03:40.008Z</time>
      </trkpt>
      <trkpt lat="40.791072" lon="-3.828645">
        <ele>1313</ele>
        <time>2018-06-30T05:03:45.008Z</time>
      </trkpt>
      <trkpt lat="40.791124" lon="-3.82852">
        <ele>1312.79795723783</ele>
        <time>2018-06-30T05:03:51.008Z</time>
      </trkpt>
      <trkpt lat="40.791168" lon="-3.828371">
        <ele>1313</ele>
        <time>2018-06-30T05:03:56.008Z</time>
      </trkpt>
      <trkpt lat="40.791218" lon="-3.828217">
        <ele>1313</ele>
        <time>2018-06-30T05:04:00.008Z</time>
      </trkpt>
      <trkpt lat="40.791292" lon="-3.828093">
        <ele>1312</ele>
        <time>2018-06-30T05:04:03.008Z</time>
      </trkpt>
      <trkpt lat="40.791358" lon="-3.827978">
        <ele>1312</ele>
        <time>2018-06-30T05:04:07.008Z</time>
      </trkpt>
      <trkpt lat="40.79144" lon="-3.827849">
        <ele>1312</ele>
        <time>2018-06-30T05:04:11.008Z</time>
      </trkpt>
      <trkpt lat="40.791508" lon="-3.827754">
        <ele>1312</ele>
        <time>2018-06-30T05:04:14.008Z</time>
      </trkpt>
      <trkpt lat="40.791568" lon="-3.827648">
        <ele>1312</ele>
        <time>2018-06-30T05:04:18.008Z</time>
      </trkpt>
      <trkpt lat="40.79164" lon="-3.82752">
        <ele>1310</ele>
        <time>2018-06-30T05:04:22.008Z</time>
      </trkpt>
      <trkpt lat="40.791724" lon="-3.827407">
        <ele>1310</ele>
        <time>2018-06-30T05:04:26.008Z</time>
      </trkpt>
      <trkpt lat="40.791826" lon="-3.827305">
        <ele>1310</ele>
        <time>2018-06-30T05:04:30.008Z</time>
      </trkpt>
      <trkpt lat="40.791908" lon="-3.82719">
        <ele>1308</ele>
        <time>2018-06-30T05:04:34.008Z</time>
      </trkpt>
      <trkpt lat="40.79199" lon="-3.827075">
        <ele>1308</ele>
        <time>2018-06-30T05:04:38.008Z</time>
      </trkpt>
      <trkpt lat="40.792064" lon="-3.826984">
        <ele>1307</ele>
        <time>2018-06-30T05:04:42.008Z</time>
      </trkpt>
      <trkpt lat="40.792148" lon="-3.826884">
        <ele>1307</ele>
        <time>2018-06-30T05:04:48.008Z</time>
      </trkpt>
      <trkpt lat="40.79225" lon="-3.826832">
        <ele>1305</ele>
        <time>2018-06-30T05:04:54.008Z</time>
      </trkpt>
      <trkpt lat="40.792353" lon="-3.826804">
        <ele>1304.36969900703</ele>
        <time>2018-06-30T05:05:01.008Z</time>
      </trkpt>
      <trkpt lat="40.792451" lon="-3.826832">
        <ele>1302</ele>
        <time>2018-06-30T05:05:06.008Z</time>
      </trkpt>
      <trkpt lat="40.792547" lon="-3.826867">
        <ele>1303</ele>
        <time>2018-06-30T05:05:10.008Z</time>
      </trkpt>
      <trkpt lat="40.792658" lon="-3.826913">
        <ele>1302</ele>
        <time>2018-06-30T05:05:16.008Z</time>
      </trkpt>
      <trkpt lat="40.792756" lon="-3.826942">
        <ele>1302</ele>
        <time>2018-06-30T05:05:21.008Z</time>
      </trkpt>
      <trkpt lat="40.792875" lon="-3.826902">
        <ele>1302</ele>
        <time>2018-06-30T05:05:26.008Z</time>
      </trkpt>
      <trkpt lat="40.792969" lon="-3.826794">
        <ele>1302</ele>
        <time>2018-06-30T05:05:31.008Z</time>
      </trkpt>
      <trkpt lat="40.793063" lon="-3.826706">
        <ele>1302</ele>
        <time>2018-06-30T05:05:34.008Z</time>
      </trkpt>
      <trkpt lat="40.793139" lon="-3.826591">
        <ele>1302</ele>
        <time>2018-06-30T05:05:38.008Z</time>
      </trkpt>
      <trkpt lat="40.793172" lon="-3.826453">
        <ele>1301</ele>
        <time>2018-06-30T05:05:42.008Z</time>
      </trkpt>
      <trkpt lat="40.79321" lon="-3.826311">
        <ele>1301</ele>
        <time>2018-06-30T05:05:46.008Z</time>
      </trkpt>
      <trkpt lat="40.793241" lon="-3.826148">
        <ele>1301</ele>
        <time>2018-06-30T05:05:50.008Z</time>
      </trkpt>
      <trkpt lat="40.793236" lon="-3.826004">
        <ele>1299</ele>
        <time>2018-06-30T05:05:54.008Z</time>
      </trkpt>
      <trkpt lat="40.79321" lon="-3.825864">
        <ele>1299</ele>
        <time>2018-06-30T05:05:58.008Z</time>
      </trkpt>
      <trkpt lat="40.793179" lon="-3.825745">
        <ele>1295</ele>
        <time>2018-06-30T05:06:02.008Z</time>
      </trkpt>
      <trkpt lat="40.793127" lon="-3.825625">
        <ele>1295</ele>
        <time>2018-06-30T05:06:06.008Z</time>
      </trkpt>
      <trkpt lat="40.793062" lon="-3.825496">
        <ele>1295</ele>
        <time>2018-06-30T05:06:10.008Z</time>
      </trkpt>
      <trkpt lat="40.792999" lon="-3.825376">
        <ele>1294</ele>
        <time>2018-06-30T05:06:14.008Z</time>
      </trkpt>
      <trkpt lat="40.792944" lon="-3.825242">
        <ele>1294</ele>
        <time>2018-06-30T05:06:18.008Z</time>
      </trkpt>
      <trkpt lat="40.792882" lon="-3.825101">
        <ele>1292</ele>
        <time>2018-06-30T05:06:22.008Z</time>
      </trkpt>
      <trkpt lat="40.792808" lon="-3.825013">
        <ele>1292</ele>
        <time>2018-06-30T05:06:26.008Z</time>
      </trkpt>
      <trkpt lat="40.792719" lon="-3.824951">
        <ele>1292</ele>
        <time>2018-06-30T05:06:30.008Z</time>
      </trkpt>
      <trkpt lat="40.792614" lon="-3.824887">
        <ele>1290</ele>
        <time>2018-06-30T05:06:35.008Z</time>
      </trkpt>
      <trkpt lat="40.792593" lon="-3.824767">
        <ele>1290</ele>
        <time>2018-06-30T05:06:45.008Z</time>
      </trkpt>
      <trkpt lat="40.79264" lon="-3.824672">
        <ele>1290</ele>
        <time>2018-06-30T05:06:54.008Z</time>
      </trkpt>
      <trkpt lat="40.792689" lon="-3.824584">
        <ele>1290.21010033099</ele>
        <time>2018-06-30T05:07:01.008Z</time>
      </trkpt>
      <trkpt lat="40.79275" lon="-3.824492">
        <ele>1291</ele>
        <time>2018-06-30T05:07:10.008Z</time>
      </trkpt>
      <trkpt lat="40.792824" lon="-3.82443">
        <ele>1292</ele>
        <time>2018-06-30T05:07:19.008Z</time>
      </trkpt>
      <trkpt lat="40.792908" lon="-3.824394">
        <ele>1293</ele>
        <time>2018-06-30T05:07:28.008Z</time>
      </trkpt>
      <trkpt lat="40.792998" lon="-3.824416">
        <ele>1294</ele>
        <time>2018-06-30T05:07:37.008Z</time>
      </trkpt>
      <trkpt lat="40.793098" lon="-3.824418">
        <ele>1296</ele>
        <time>2018-06-30T05:07:49.008Z</time>
      </trkpt>
      <trkpt lat="40.793193" lon="-3.824468">
        <ele>1298.21010033099</ele>
        <time>2018-06-30T05:08:01.008Z</time>
      </trkpt>
      <trkpt lat="40.793291" lon="-3.824513">
        <ele>1301</ele>
        <time>2018-06-30T05:08:14.008Z</time>
      </trkpt>
      <trkpt lat="40.793387" lon="-3.82457">
        <ele>1304</ele>
        <time>2018-06-30T05:08:26.008Z</time>
      </trkpt>
      <trkpt lat="40.793474" lon="-3.824612">
        <ele>1306</ele>
        <time>2018-06-30T05:08:33.008Z</time>
      </trkpt>
      <trkpt lat="40.793536" lon="-3.824681">
        <ele>1306</ele>
        <time>2018-06-30T05:08:40.008Z</time>
      </trkpt>
      <trkpt lat="40.793615" lon="-3.824732">
        <ele>1307</ele>
        <time>2018-06-30T05:08:49.008Z</time>
      </trkpt>
      <trkpt lat="40.79368" lon="-3.824807">
        <ele>1308</ele>
        <time>2018-06-30T05:08:58.008Z</time>
      </trkpt>
      <trkpt lat="40.79376" lon="-3.824863">
        <ele>1309</ele>
        <time>2018-06-30T05:09:09.008Z</time>
      </trkpt>
      <trkpt lat="40.793847" lon="-3.824908">
        <ele>1310</ele>
        <time>2018-06-30T05:09:17.008Z</time>
      </trkpt>
      <trkpt lat="40.793928" lon="-3.824953">
        <ele>1312</ele>
        <time>2018-06-30T05:09:25.008Z</time>
      </trkpt>
      <trkpt lat="40.794014" lon="-3.824997">
        <ele>1314</ele>
        <time>2018-06-30T05:09:37.008Z</time>
      </trkpt>
      <trkpt lat="40.794114" lon="-3.82504">
        <ele>1316.40408552434</ele>
        <time>2018-06-30T05:09:51.008Z</time>
      </trkpt>
      <trkpt lat="40.794209" lon="-3.825086">
        <ele>1319</ele>
        <time>2018-06-30T05:10:03.008Z</time>
      </trkpt>
      <trkpt lat="40.794297" lon="-3.825148">
        <ele>1321</ele>
        <time>2018-06-30T05:10:13.008Z</time>
      </trkpt>
      <trkpt lat="40.794392" lon="-3.825195">
        <ele>1323</ele>
        <time>2018-06-30T05:10:24.008Z</time>
      </trkpt>
      <trkpt lat="40.794493" lon="-3.825222">
        <ele>1323</ele>
        <time>2018-06-30T05:10:38.008Z</time>
      </trkpt>
      <trkpt lat="40.794578" lon="-3.825303">
        <ele>1327</ele>
        <time>2018-06-30T05:10:52.008Z</time>
      </trkpt>
      <trkpt lat="40.79468" lon="-3.825336">
        <ele>1329</ele>
        <time>2018-06-30T05:11:08.008Z</time>
      </trkpt>
      <trkpt lat="40.794778" lon="-3.825381">
        <ele>1331</ele>
        <time>2018-06-30T05:11:17.008Z</time>
      </trkpt>
      <trkpt lat="40.794878" lon="-3.825402">
        <ele>1332</ele>
        <time>2018-06-30T05:11:28.008Z</time>
      </trkpt>
      <trkpt lat="40.794966" lon="-3.825464">
        <ele>1336</ele>
        <time>2018-06-30T05:11:42.008Z</time>
      </trkpt>
      <trkpt lat="40.795061" lon="-3.825506">
        <ele>1337</ele>
        <time>2018-06-30T05:11:55.008Z</time>
      </trkpt>
      <trkpt lat="40.795147" lon="-3.825442">
        <ele>1339</ele>
        <time>2018-06-30T05:12:10.008Z</time>
      </trkpt>
      <trkpt lat="40.795249" lon="-3.825445">
        <ele>1342</ele>
        <time>2018-06-30T05:12:26.008Z</time>
      </trkpt>
      <trkpt lat="40.795343" lon="-3.825498">
        <ele>1344</ele>
        <time>2018-06-30T05:12:34.008Z</time>
      </trkpt>
      <trkpt lat="40.795439" lon="-3.825538">
        <ele>1346</ele>
        <time>2018-06-30T05:12:50.008Z</time>
      </trkpt>
      <trkpt lat="40.795552" lon="-3.825532">
        <ele>1350</ele>
        <time>2018-06-30T05:13:09.008Z</time>
      </trkpt>
      <trkpt lat="40.795653" lon="-3.825505">
        <ele>1353.42020066198</ele>
        <time>2018-06-30T05:13:31.008Z</time>
      </trkpt>
      <trkpt lat="40.795735" lon="-3.82543">
        <ele>1356</ele>
        <time>2018-06-30T05:13:42.008Z</time>
      </trkpt>
      <trkpt lat="40.795817" lon="-3.825339">
        <ele>1356</ele>
        <time>2018-06-30T05:13:48.008Z</time>
      </trkpt>
      <trkpt lat="40.795857" lon="-3.825218">
        <ele>1358</ele>
        <time>2018-06-30T05:13:58.008Z</time>
      </trkpt>
      <trkpt lat="40.795832" lon="-3.825086">
        <ele>1358</ele>
        <time>2018-06-30T05:14:07.008Z</time>
      </trkpt>
      <trkpt lat="40.795813" lon="-3.82495">
        <ele>1359</ele>
        <time>2018-06-30T05:14:16.008Z</time>
      </trkpt>
      <trkpt lat="40.795724" lon="-3.824878">
        <ele>1360</ele>
        <time>2018-06-30T05:14:24.008Z</time>
      </trkpt>
      <trkpt lat="40.795663" lon="-3.824775">
        <ele>1361</ele>
        <time>2018-06-30T05:14:33.008Z</time>
      </trkpt>
      <trkpt lat="40.795611" lon="-3.824653">
        <ele>1361</ele>
        <time>2018-06-30T05:14:44.008Z</time>
      </trkpt>
      <trkpt lat="40.795549" lon="-3.824524">
        <ele>1361</ele>
        <time>2018-06-30T05:14:54.008Z</time>
      </trkpt>
      <trkpt lat="40.795488" lon="-3.824407">
        <ele>1361.21010033099</ele>
        <time>2018-06-30T05:15:01.008Z</time>
      </trkpt>
      <trkpt lat="40.795434" lon="-3.824286">
        <ele>1362</ele>
        <time>2018-06-30T05:15:08.008Z</time>
      </trkpt>
      <trkpt lat="40.795358" lon="-3.824202">
        <ele>1361</ele>
        <time>2018-06-30T05:15:15.008Z</time>
      </trkpt>
      <trkpt lat="40.795291" lon="-3.824101">
        <ele>1361</ele>
        <time>2018-06-30T05:15:23.008Z</time>
      </trkpt>
      <trkpt lat="40.795236" lon="-3.823974">
        <ele>1361.21010033099</ele>
        <time>2018-06-30T05:15:31.008Z</time>
      </trkpt>
      <trkpt lat="40.795169" lon="-3.82387">
        <ele>1362</ele>
        <time>2018-06-30T05:15:37.008Z</time>
      </trkpt>
      <trkpt lat="40.795119" lon="-3.82374">
        <ele>1363</ele>
        <time>2018-06-30T05:15:44.008Z</time>
      </trkpt>
      <trkpt lat="40.79505" lon="-3.823646">
        <ele>1364</ele>
        <time>2018-06-30T05:15:53.008Z</time>
      </trkpt>
      <trkpt lat="40.795007" lon="-3.823521">
        <ele>1364</ele>
        <time>2018-06-30T05:16:01.008Z</time>
      </trkpt>
      <trkpt lat="40.794967" lon="-3.823394">
        <ele>1364</ele>
        <time>2018-06-30T05:16:10.008Z</time>
      </trkpt>
      <trkpt lat="40.795039" lon="-3.823494">
        <ele>1366</ele>
        <time>2018-06-30T05:16:26.008Z</time>
      </trkpt>
      <trkpt lat="40.795121" lon="-3.823568">
        <ele>1367</ele>
        <time>2018-06-30T05:16:36.008Z</time>
      </trkpt>
      <trkpt lat="40.795199" lon="-3.823656">
        <ele>1369</ele>
        <time>2018-06-30T05:16:45.008Z</time>
      </trkpt>
      <trkpt lat="40.795177" lon="-3.823513">
        <ele>1371</ele>
        <time>2018-06-30T05:17:00.008Z</time>
      </trkpt>
      <trkpt lat="40.79516" lon="-3.823377">
        <ele>1371</ele>
        <time>2018-06-30T05:17:07.008Z</time>
      </trkpt>
      <trkpt lat="40.795108" lon="-3.823254">
        <ele>1371</ele>
        <time>2018-06-30T05:17:19.008Z</time>
      </trkpt>
      <trkpt lat="40.79507" lon="-3.823125">
        <ele>1373</ele>
        <time>2018-06-30T05:17:29.008Z</time>
      </trkpt>
      <trkpt lat="40.795042" lon="-3.822983">
        <ele>1373</ele>
        <time>2018-06-30T05:17:37.008Z</time>
      </trkpt>
      <trkpt lat="40.794994" lon="-3.82284">
        <ele>1373</ele>
        <time>2018-06-30T05:17:43.008Z</time>
      </trkpt>
      <trkpt lat="40.794958" lon="-3.822697">
        <ele>1373</ele>
        <time>2018-06-30T05:17:48.008Z</time>
      </trkpt>
      <trkpt lat="40.794926" lon="-3.82255">
        <ele>1373</ele>
        <time>2018-06-30T05:17:54.008Z</time>
      </trkpt>
      <trkpt lat="40.79488" lon="-3.822407">
        <ele>1373</ele>
        <time>2018-06-30T05:18:00.008Z</time>
      </trkpt>
      <trkpt lat="40.794855" lon="-3.822277">
        <ele>1374</ele>
        <time>2018-06-30T05:18:05.008Z</time>
      </trkpt>
      <trkpt lat="40.794894" lon="-3.822398">
        <ele>1377</ele>
        <time>2018-06-30T05:18:26.008Z</time>
      </trkpt>
      <trkpt lat="40.794976" lon="-3.822474">
        <ele>1379</ele>
        <time>2018-06-30T05:18:36.008Z</time>
      </trkpt>
      <trkpt lat="40.795061" lon="-3.822407">
        <ele>1383</ele>
        <time>2018-06-30T05:19:00.008Z</time>
      </trkpt>
      <trkpt lat="40.795056" lon="-3.822269">
        <ele>1383.2622274686</ele>
        <time>2018-06-30T05:19:11.008Z</time>
      </trkpt>
      <trkpt lat="40.795086" lon="-3.822134">
        <ele>1385</ele>
        <time>2018-06-30T05:19:18.008Z</time>
      </trkpt>
      <trkpt lat="40.795062" lon="-3.822">
        <ele>1387</ele>
        <time>2018-06-30T05:19:29.008Z</time>
      </trkpt>
      <trkpt lat="40.795052" lon="-3.821869">
        <ele>1388</ele>
        <time>2018-06-30T05:19:38.008Z</time>
      </trkpt>
      <trkpt lat="40.795012" lon="-3.821711">
        <ele>1389</ele>
        <time>2018-06-30T05:19:46.008Z</time>
      </trkpt>
      <trkpt lat="40.794968" lon="-3.821579">
        <ele>1389</ele>
        <time>2018-06-30T05:19:51.008Z</time>
      </trkpt>
      <trkpt lat="40.794946" lon="-3.821443">
        <ele>1389</ele>
        <time>2018-06-30T05:19:56.008Z</time>
      </trkpt>
      <trkpt lat="40.794905" lon="-3.821293">
        <ele>1389</ele>
        <time>2018-06-30T05:20:02.008Z</time>
      </trkpt>
      <trkpt lat="40.794857" lon="-3.821151">
        <ele>1389</ele>
        <time>2018-06-30T05:20:07.008Z</time>
      </trkpt>
      <trkpt lat="40.794815" lon="-3.821006">
        <ele>1390</ele>
        <time>2018-06-30T05:20:12.008Z</time>
      </trkpt>
      <trkpt lat="40.794789" lon="-3.82085">
        <ele>1390</ele>
        <time>2018-06-30T05:20:18.008Z</time>
      </trkpt>
      <trkpt lat="40.794779" lon="-3.82069">
        <ele>1390</ele>
        <time>2018-06-30T05:20:22.008Z</time>
      </trkpt>
      <trkpt lat="40.794768" lon="-3.820539">
        <ele>1390</ele>
        <time>2018-06-30T05:20:27.008Z</time>
      </trkpt>
      <trkpt lat="40.794742" lon="-3.820392">
        <ele>1390</ele>
        <time>2018-06-30T05:20:32.008Z</time>
      </trkpt>
      <trkpt lat="40.794701" lon="-3.820268">
        <ele>1390</ele>
        <time>2018-06-30T05:20:37.008Z</time>
      </trkpt>
      <trkpt lat="40.79467" lon="-3.820128">
        <ele>1390</ele>
        <time>2018-06-30T05:20:41.008Z</time>
      </trkpt>
      <trkpt lat="40.794653" lon="-3.819996">
        <ele>1390</ele>
        <time>2018-06-30T05:20:45.008Z</time>
      </trkpt>
      <trkpt lat="40.794629" lon="-3.819839">
        <ele>1390</ele>
        <time>2018-06-30T05:20:50.008Z</time>
      </trkpt>
      <trkpt lat="40.794611" lon="-3.819688">
        <ele>1389</ele>
        <time>2018-06-30T05:20:55.008Z</time>
      </trkpt>
      <trkpt lat="40.794592" lon="-3.819549">
        <ele>1388.78989966901</ele>
        <time>2018-06-30T05:21:01.008Z</time>
      </trkpt>
      <trkpt lat="40.794579" lon="-3.819399">
        <ele>1388</ele>
        <time>2018-06-30T05:21:08.008Z</time>
      </trkpt>
      <trkpt lat="40.794581" lon="-3.819258">
        <ele>1388</ele>
        <time>2018-06-30T05:21:15.008Z</time>
      </trkpt>
      <trkpt lat="40.794567" lon="-3.819125">
        <ele>1387.79795723783</ele>
        <time>2018-06-30T05:21:21.008Z</time>
      </trkpt>
      <trkpt lat="40.794549" lon="-3.818975">
        <ele>1387</ele>
        <time>2018-06-30T05:21:26.008Z</time>
      </trkpt>
      <trkpt lat="40.794554" lon="-3.818812">
        <ele>1387</ele>
        <time>2018-06-30T05:21:30.008Z</time>
      </trkpt>
      <trkpt lat="40.794513" lon="-3.818669">
        <ele>1387</ele>
        <time>2018-06-30T05:21:34.008Z</time>
      </trkpt>
      <trkpt lat="40.794471" lon="-3.818535">
        <ele>1387</ele>
        <time>2018-06-30T05:21:38.008Z</time>
      </trkpt>
      <trkpt lat="40.794431" lon="-3.818386">
        <ele>1387</ele>
        <time>2018-06-30T05:21:43.008Z</time>
      </trkpt>
      <trkpt lat="40.794426" lon="-3.818219">
        <ele>1387</ele>
        <time>2018-06-30T05:21:48.008Z</time>
      </trkpt>
      <trkpt lat="40.794431" lon="-3.818059">
        <ele>1387</ele>
        <time>2018-06-30T05:21:52.008Z</time>
      </trkpt>
      <trkpt lat="40.794451" lon="-3.817919">
        <ele>1387</ele>
        <time>2018-06-30T05:21:57.008Z</time>
      </trkpt>
      <trkpt lat="40.794463" lon="-3.817779">
        <ele>1389</ele>
        <time>2018-06-30T05:22:02.008Z</time>
      </trkpt>
      <trkpt lat="40.794505" lon="-3.817643">
        <ele>1389</ele>
        <time>2018-06-30T05:22:08.008Z</time>
      </trkpt>
      <trkpt lat="40.794561" lon="-3.817532">
        <ele>1389</ele>
        <time>2018-06-30T05:22:18.008Z</time>
      </trkpt>
      <trkpt lat="40.794612" lon="-3.817417">
        <ele>1391</ele>
        <time>2018-06-30T05:22:26.008Z</time>
      </trkpt>
      <trkpt lat="40.794665" lon="-3.817295">
        <ele>1392</ele>
        <time>2018-06-30T05:22:36.008Z</time>
      </trkpt>
      <trkpt lat="40.794701" lon="-3.817165">
        <ele>1393</ele>
        <time>2018-06-30T05:22:48.008Z</time>
      </trkpt>
      <trkpt lat="40.794797" lon="-3.817123">
        <ele>1395</ele>
        <time>2018-06-30T05:22:56.008Z</time>
      </trkpt>
      <trkpt lat="40.794879" lon="-3.817035">
        <ele>1397</ele>
        <time>2018-06-30T05:23:06.008Z</time>
      </trkpt>
      <trkpt lat="40.79494" lon="-3.816925">
        <ele>1401</ele>
        <time>2018-06-30T05:23:17.008Z</time>
      </trkpt>
      <trkpt lat="40.795022" lon="-3.816833">
        <ele>1402</ele>
        <time>2018-06-30T05:23:29.008Z</time>
      </trkpt>
      <trkpt lat="40.795104" lon="-3.816753">
        <ele>1405</ele>
        <time>2018-06-30T05:23:46.008Z</time>
      </trkpt>
      <trkpt lat="40.795157" lon="-3.81663">
        <ele>1410</ele>
        <time>2018-06-30T05:24:04.008Z</time>
      </trkpt>
      <trkpt lat="40.795186" lon="-3.816505">
        <ele>1412</ele>
        <time>2018-06-30T05:24:12.008Z</time>
      </trkpt>
      <trkpt lat="40.795211" lon="-3.816375">
        <ele>1413</ele>
        <time>2018-06-30T05:24:23.008Z</time>
      </trkpt>
      <trkpt lat="40.795244" lon="-3.816243">
        <ele>1414</ele>
        <time>2018-06-30T05:24:33.008Z</time>
      </trkpt>
      <trkpt lat="40.795315" lon="-3.81613">
        <ele>1416</ele>
        <time>2018-06-30T05:24:43.008Z</time>
      </trkpt>
      <trkpt lat="40.795402" lon="-3.816052">
        <ele>1416.40408552434</ele>
        <time>2018-06-30T05:24:51.008Z</time>
      </trkpt>
      <trkpt lat="40.795461" lon="-3.815937">
        <ele>1420</ele>
        <time>2018-06-30T05:25:05.008Z</time>
      </trkpt>
      <trkpt lat="40.79551" lon="-3.815815">
        <ele>1421</ele>
        <time>2018-06-30T05:25:14.008Z</time>
      </trkpt>
      <trkpt lat="40.795602" lon="-3.815739">
        <ele>1423</ele>
        <time>2018-06-30T05:25:27.008Z</time>
      </trkpt>
      <trkpt lat="40.795703" lon="-3.81571">
        <ele>1425</ele>
        <time>2018-06-30T05:25:39.008Z</time>
      </trkpt>
      <trkpt lat="40.795757" lon="-3.815596">
        <ele>1429</ele>
        <time>2018-06-30T05:25:52.008Z</time>
      </trkpt>
      <trkpt lat="40.795812" lon="-3.815479">
        <ele>1429</ele>
        <time>2018-06-30T05:26:04.008Z</time>
      </trkpt>
      <trkpt lat="40.795891" lon="-3.815394">
        <ele>1431</ele>
        <time>2018-06-30T05:26:12.008Z</time>
      </trkpt>
      <trkpt lat="40.79596" lon="-3.815298">
        <ele>1431</ele>
        <time>2018-06-30T05:26:19.008Z</time>
      </trkpt>
      <trkpt lat="40.796037" lon="-3.815203">
        <ele>1433</ele>
        <time>2018-06-30T05:26:25.008Z</time>
      </trkpt>
      <trkpt lat="40.796102" lon="-3.815097">
        <ele>1433</ele>
        <time>2018-06-30T05:26:32.008Z</time>
      </trkpt>
      <trkpt lat="40.796174" lon="-3.815031">
        <ele>1433</ele>
        <time>2018-06-30T05:26:38.008Z</time>
      </trkpt>
      <trkpt lat="40.796243" lon="-3.814959">
        <ele>1433</ele>
        <time>2018-06-30T05:26:46.008Z</time>
      </trkpt>
      <trkpt lat="40.796335" lon="-3.814894">
        <ele>1435</ele>
        <time>2018-06-30T05:26:54.008Z</time>
      </trkpt>
      <trkpt lat="40.796429" lon="-3.814847">
        <ele>1435</ele>
        <time>2018-06-30T05:27:05.008Z</time>
      </trkpt>
      <trkpt lat="40.796525" lon="-3.814813">
        <ele>1436</ele>
        <time>2018-06-30T05:27:16.008Z</time>
      </trkpt>
      <trkpt lat="40.796625" lon="-3.814809">
        <ele>1436</ele>
        <time>2018-06-30T05:27:26.008Z</time>
      </trkpt>
      <trkpt lat="40.796729" lon="-3.814812">
        <ele>1438</ele>
        <time>2018-06-30T05:27:36.008Z</time>
      </trkpt>
      <trkpt lat="40.796829" lon="-3.814819">
        <ele>1441</ele>
        <time>2018-06-30T05:27:45.008Z</time>
      </trkpt>
      <trkpt lat="40.796936" lon="-3.814846">
        <ele>1442</ele>
        <time>2018-06-30T05:27:54.008Z</time>
      </trkpt>
      <trkpt lat="40.797037" lon="-3.814855">
        <ele>1443</ele>
        <time>2018-06-30T05:28:03.008Z</time>
      </trkpt>
      <trkpt lat="40.79715" lon="-3.814845">
        <ele>1443</ele>
        <time>2018-06-30T05:28:13.008Z</time>
      </trkpt>
      <trkpt lat="40.797252" lon="-3.814843">
        <ele>1445</ele>
        <time>2018-06-30T05:28:22.008Z</time>
      </trkpt>
      <trkpt lat="40.797355" lon="-3.814866">
        <ele>1445.21583909969</ele>
        <time>2018-06-30T05:28:30.008Z</time>
      </trkpt>
      <trkpt lat="40.797464" lon="-3.814889">
        <ele>1446</ele>
        <time>2018-06-30T05:28:39.008Z</time>
      </trkpt>
      <trkpt lat="40.797565" lon="-3.814891">
        <ele>1447</ele>
        <time>2018-06-30T05:28:49.008Z</time>
      </trkpt>
      <trkpt lat="40.79767" lon="-3.814901">
        <ele>1448.42020066198</ele>
        <time>2018-06-30T05:29:01.008Z</time>
      </trkpt>
      <trkpt lat="40.797769" lon="-3.814932">
        <ele>1450</ele>
        <time>2018-06-30T05:29:09.008Z</time>
      </trkpt>
      <trkpt lat="40.79787" lon="-3.814943">
        <ele>1450</ele>
        <time>2018-06-30T05:29:18.008Z</time>
      </trkpt>
      <trkpt lat="40.797981" lon="-3.814947">
        <ele>1451</ele>
        <time>2018-06-30T05:29:28.008Z</time>
      </trkpt>
      <trkpt lat="40.798076" lon="-3.814985">
        <ele>1452</ele>
        <time>2018-06-30T05:29:37.008Z</time>
      </trkpt>
      <trkpt lat="40.798185" lon="-3.815003">
        <ele>1453</ele>
        <time>2018-06-30T05:29:47.008Z</time>
      </trkpt>
      <trkpt lat="40.798294" lon="-3.815006">
        <ele>1455</ele>
        <time>2018-06-30T05:29:56.008Z</time>
      </trkpt>
      <trkpt lat="40.798397" lon="-3.815025">
        <ele>1455</ele>
        <time>2018-06-30T05:30:04.008Z</time>
      </trkpt>
      <trkpt lat="40.798501" lon="-3.815022">
        <ele>1456</ele>
        <time>2018-06-30T05:30:12.008Z</time>
      </trkpt>
      <trkpt lat="40.798605" lon="-3.814998">
        <ele>1456</ele>
        <time>2018-06-30T05:30:20.008Z</time>
      </trkpt>
      <trkpt lat="40.798701" lon="-3.814967">
        <ele>1457</ele>
        <time>2018-06-30T05:30:31.008Z</time>
      </trkpt>
      <trkpt lat="40.798802" lon="-3.814932">
        <ele>1459</ele>
        <time>2018-06-30T05:30:42.008Z</time>
      </trkpt>
      <trkpt lat="40.798902" lon="-3.814903">
        <ele>1460</ele>
        <time>2018-06-30T05:30:52.008Z</time>
      </trkpt>
      <trkpt lat="40.799" lon="-3.814878">
        <ele>1460</ele>
        <time>2018-06-30T05:30:59.008Z</time>
      </trkpt>
      <trkpt lat="40.799101" lon="-3.814891">
        <ele>1460</ele>
        <time>2018-06-30T05:31:06.008Z</time>
      </trkpt>
      <trkpt lat="40.799202" lon="-3.814898">
        <ele>1461</ele>
        <time>2018-06-30T05:31:14.008Z</time>
      </trkpt>
      <trkpt lat="40.799305" lon="-3.81489">
        <ele>1461</ele>
        <time>2018-06-30T05:31:23.008Z</time>
      </trkpt>
      <trkpt lat="40.799413" lon="-3.814913">
        <ele>1461</ele>
        <time>2018-06-30T05:31:29.008Z</time>
      </trkpt>
      <trkpt lat="40.799505" lon="-3.814976">
        <ele>1461</ele>
        <time>2018-06-30T05:31:37.008Z</time>
      </trkpt>
      <trkpt lat="40.799604" lon="-3.814989">
        <ele>1462</ele>
        <time>2018-06-30T05:31:42.008Z</time>
      </trkpt>
      <trkpt lat="40.799704" lon="-3.815003">
        <ele>1463</ele>
        <time>2018-06-30T05:31:53.008Z</time>
      </trkpt>
      <trkpt lat="40.7998" lon="-3.815038">
        <ele>1464</ele>
        <time>2018-06-30T05:32:03.008Z</time>
      </trkpt>
      <trkpt lat="40.799896" lon="-3.815101">
        <ele>1465</ele>
        <time>2018-06-30T05:32:16.008Z</time>
      </trkpt>
      <trkpt lat="40.799983" lon="-3.815191">
        <ele>1465</ele>
        <time>2018-06-30T05:32:25.008Z</time>
      </trkpt>
      <trkpt lat="40.800073" lon="-3.815255">
        <ele>1466</ele>
        <time>2018-06-30T05:32:37.008Z</time>
      </trkpt>
      <trkpt lat="40.800154" lon="-3.815332">
        <ele>1466</ele>
        <time>2018-06-30T05:32:46.008Z</time>
      </trkpt>
      <trkpt lat="40.800239" lon="-3.815405">
        <ele>1466</ele>
        <time>2018-06-30T05:32:54.008Z</time>
      </trkpt>
      <trkpt lat="40.800316" lon="-3.815502">
        <ele>1466</ele>
        <time>2018-06-30T05:33:03.008Z</time>
      </trkpt>
      <trkpt lat="40.800421" lon="-3.815449">
        <ele>1468</ele>
        <time>2018-06-30T05:33:14.008Z</time>
      </trkpt>
      <trkpt lat="40.800496" lon="-3.815361">
        <ele>1468</ele>
        <time>2018-06-30T05:33:19.008Z</time>
      </trkpt>
      <trkpt lat="40.800614" lon="-3.815322">
        <ele>1468</ele>
        <time>2018-06-30T05:33:24.008Z</time>
      </trkpt>
      <trkpt lat="40.8007" lon="-3.815258">
        <ele>1469</ele>
        <time>2018-06-30T05:33:32.008Z</time>
      </trkpt>
      <trkpt lat="40.800748" lon="-3.815103">
        <ele>1469</ele>
        <time>2018-06-30T05:33:39.008Z</time>
      </trkpt>
      <trkpt lat="40.800792" lon="-3.814971">
        <ele>1469</ele>
        <time>2018-06-30T05:33:46.008Z</time>
      </trkpt>
      <trkpt lat="40.80081" lon="-3.814847">
        <ele>1469</ele>
        <time>2018-06-30T05:33:52.008Z</time>
      </trkpt>
      <trkpt lat="40.800837" lon="-3.814714">
        <ele>1469</ele>
        <time>2018-06-30T05:34:00.008Z</time>
      </trkpt>
      <trkpt lat="40.80087" lon="-3.814587">
        <ele>1470</ele>
        <time>2018-06-30T05:34:08.008Z</time>
      </trkpt>
      <trkpt lat="40.800931" lon="-3.814479">
        <ele>1470</ele>
        <time>2018-06-30T05:34:16.008Z</time>
      </trkpt>
      <trkpt lat="40.800992" lon="-3.814344">
        <ele>1471</ele>
        <time>2018-06-30T05:34:25.008Z</time>
      </trkpt>
      <trkpt lat="40.80101" lon="-3.814207">
        <ele>1472</ele>
        <time>2018-06-30T05:34:35.008Z</time>
      </trkpt>
      <trkpt lat="40.801034" lon="-3.814069">
        <ele>1472</ele>
        <time>2018-06-30T05:34:42.008Z</time>
      </trkpt>
      <trkpt lat="40.801054" lon="-3.813936">
        <ele>1472</ele>
        <time>2018-06-30T05:34:50.008Z</time>
      </trkpt>
      <trkpt lat="40.801054" lon="-3.813815">
        <ele>1474</ele>
        <time>2018-06-30T05:34:58.008Z</time>
      </trkpt>
      <trkpt lat="40.801072" lon="-3.813695">
        <ele>1474</ele>
        <time>2018-06-30T05:35:05.008Z</time>
      </trkpt>
      <trkpt lat="40.801076" lon="-3.813582">
        <ele>1475</ele>
        <time>2018-06-30T05:35:13.008Z</time>
      </trkpt>
      <trkpt lat="40.801111" lon="-3.813477">
        <ele>1476</ele>
        <time>2018-06-30T05:35:22.008Z</time>
      </trkpt>
      <trkpt lat="40.80115" lon="-3.813351">
        <ele>1477</ele>
        <time>2018-06-30T05:35:31.008Z</time>
      </trkpt>
      <trkpt lat="40.801188" lon="-3.813228">
        <ele>1477</ele>
        <time>2018-06-30T05:35:40.008Z</time>
      </trkpt>
      <trkpt lat="40.801257" lon="-3.813121">
        <ele>1478</ele>
        <time>2018-06-30T05:35:48.008Z</time>
      </trkpt>
      <trkpt lat="40.801295" lon="-3.812993">
        <ele>1479</ele>
        <time>2018-06-30T05:35:58.008Z</time>
      </trkpt>
      <trkpt lat="40.801374" lon="-3.812876">
        <ele>1480</ele>
        <time>2018-06-30T05:36:06.008Z</time>
      </trkpt>
      <trkpt lat="40.801433" lon="-3.812789">
        <ele>1479.8688862657</ele>
        <time>2018-06-30T05:36:11.008Z</time>
      </trkpt>
      <trkpt lat="40.801505" lon="-3.812683">
        <ele>1479</ele>
        <time>2018-06-30T05:36:19.008Z</time>
      </trkpt>
      <trkpt lat="40.801563" lon="-3.812577">
        <ele>1478</ele>
        <time>2018-06-30T05:36:28.008Z</time>
      </trkpt>
      <trkpt lat="40.801624" lon="-3.812465">
        <ele>1478</ele>
        <time>2018-06-30T05:36:38.008Z</time>
      </trkpt>
      <trkpt lat="40.801711" lon="-3.812393">
        <ele>1479</ele>
        <time>2018-06-30T05:36:46.008Z</time>
      </trkpt>
      <trkpt lat="40.801791" lon="-3.812304">
        <ele>1479</ele>
        <time>2018-06-30T05:36:53.008Z</time>
      </trkpt>
      <trkpt lat="40.801865" lon="-3.812207">
        <ele>1479</ele>
        <time>2018-06-30T05:37:01.008Z</time>
      </trkpt>
      <trkpt lat="40.801942" lon="-3.812096">
        <ele>1479</ele>
        <time>2018-06-30T05:37:10.008Z</time>
      </trkpt>
      <trkpt lat="40.80203" lon="-3.812004">
        <ele>1480</ele>
        <time>2018-06-30T05:37:16.008Z</time>
      </trkpt>
      <trkpt lat="40.802101" lon="-3.811912">
        <ele>1480</ele>
        <time>2018-06-30T05:37:21.008Z</time>
      </trkpt>
      <trkpt lat="40.802192" lon="-3.811835">
        <ele>1480.21372369395</ele>
        <time>2018-06-30T05:37:26.008Z</time>
      </trkpt>
      <trkpt lat="40.802285" lon="-3.811746">
        <ele>1481</ele>
        <time>2018-06-30T05:37:31.008Z</time>
      </trkpt>
      <trkpt lat="40.802365" lon="-3.811649">
        <ele>1481</ele>
        <time>2018-06-30T05:37:36.008Z</time>
      </trkpt>
      <trkpt lat="40.802448" lon="-3.811541">
        <ele>1481</ele>
        <time>2018-06-30T05:37:41.008Z</time>
      </trkpt>
      <trkpt lat="40.802527" lon="-3.811429">
        <ele>1481</ele>
        <time>2018-06-30T05:37:46.008Z</time>
      </trkpt>
      <trkpt lat="40.802604" lon="-3.811313">
        <ele>1480</ele>
        <time>2018-06-30T05:37:52.008Z</time>
      </trkpt>
      <trkpt lat="40.802692" lon="-3.811221">
        <ele>1480</ele>
        <time>2018-06-30T05:37:57.008Z</time>
      </trkpt>
      <trkpt lat="40.802788" lon="-3.81116">
        <ele>1480</ele>
        <time>2018-06-30T05:38:02.008Z</time>
      </trkpt>
      <trkpt lat="40.802877" lon="-3.811095">
        <ele>1480</ele>
        <time>2018-06-30T05:38:07.008Z</time>
      </trkpt>
      <trkpt lat="40.802982" lon="-3.811059">
        <ele>1480</ele>
        <time>2018-06-30T05:38:12.008Z</time>
      </trkpt>
      <trkpt lat="40.803102" lon="-3.811031">
        <ele>1480</ele>
        <time>2018-06-30T05:38:17.008Z</time>
      </trkpt>
      <trkpt lat="40.803223" lon="-3.811015">
        <ele>1480</ele>
        <time>2018-06-30T05:38:22.008Z</time>
      </trkpt>
      <trkpt lat="40.803329" lon="-3.810999">
        <ele>1480</ele>
        <time>2018-06-30T05:38:27.008Z</time>
      </trkpt>
      <trkpt lat="40.803425" lon="-3.811016">
        <ele>1479.78989966901</ele>
        <time>2018-06-30T05:38:31.008Z</time>
      </trkpt>
      <trkpt lat="40.803526" lon="-3.81104">
        <ele>1479</ele>
        <time>2018-06-30T05:38:36.008Z</time>
      </trkpt>
      <trkpt lat="40.803619" lon="-3.811078">
        <ele>1479</ele>
        <time>2018-06-30T05:38:40.008Z</time>
      </trkpt>
      <trkpt lat="40.80373" lon="-3.811127">
        <ele>1478</ele>
        <time>2018-06-30T05:38:45.008Z</time>
      </trkpt>
      <trkpt lat="40.803834" lon="-3.811163">
        <ele>1477.79795723783</ele>
        <time>2018-06-30T05:38:51.008Z</time>
      </trkpt>
      <trkpt lat="40.803933" lon="-3.811149">
        <ele>1477</ele>
        <time>2018-06-30T05:38:57.008Z</time>
      </trkpt>
      <trkpt lat="40.804037" lon="-3.811087">
        <ele>1476</ele>
        <time>2018-06-30T05:39:04.008Z</time>
      </trkpt>
      <trkpt lat="40.804067" lon="-3.810952">
        <ele>1476</ele>
        <time>2018-06-30T05:39:08.008Z</time>
      </trkpt>
      <trkpt lat="40.804062" lon="-3.810782">
        <ele>1476</ele>
        <time>2018-06-30T05:39:12.008Z</time>
      </trkpt>
      <trkpt lat="40.804068" lon="-3.810627">
        <ele>1476</ele>
        <time>2018-06-30T05:39:16.008Z</time>
      </trkpt>
      <trkpt lat="40.804025" lon="-3.810478">
        <ele>1476</ele>
        <time>2018-06-30T05:39:21.008Z</time>
      </trkpt>
      <trkpt lat="40.804002" lon="-3.810323">
        <ele>1476</ele>
        <time>2018-06-30T05:39:26.008Z</time>
      </trkpt>
      <trkpt lat="40.803967" lon="-3.810176">
        <ele>1476</ele>
        <time>2018-06-30T05:39:31.008Z</time>
      </trkpt>
      <trkpt lat="40.80392" lon="-3.810062">
        <ele>1476</ele>
        <time>2018-06-30T05:39:35.008Z</time>
      </trkpt>
      <trkpt lat="40.803889" lon="-3.809978">
        <ele>1476</ele>
        <time>2018-06-30T05:39:38.008Z</time>
      </trkpt>
      <trkpt lat="40.803852" lon="-3.809906">
        <ele>1475.8688862657</ele>
        <time>2018-06-30T05:39:41.008Z</time>
      </trkpt>
      <trkpt lat="40.803813" lon="-3.809794">
        <ele>1475</ele>
        <time>2018-06-30T05:39:45.008Z</time>
      </trkpt>
      <trkpt lat="40.803775" lon="-3.809717">
        <ele>1475</ele>
        <time>2018-06-30T05:39:48.008Z</time>
      </trkpt>
      <trkpt lat="40.803708" lon="-3.809589">
        <ele>1474</ele>
        <time>2018-06-30T05:39:53.008Z</time>
      </trkpt>
      <trkpt lat="40.80365" lon="-3.809464">
        <ele>1474</ele>
        <time>2018-06-30T05:39:58.008Z</time>
      </trkpt>
      <trkpt lat="40.803586" lon="-3.809347">
        <ele>1472</ele>
        <time>2018-06-30T05:40:03.008Z</time>
      </trkpt>
      <trkpt lat="40.80353" lon="-3.809235">
        <ele>1472</ele>
        <time>2018-06-30T05:40:08.008Z</time>
      </trkpt>
      <trkpt lat="40.803462" lon="-3.809118">
        <ele>1472</ele>
        <time>2018-06-30T05:40:13.008Z</time>
      </trkpt>
      <trkpt lat="40.803399" lon="-3.80899">
        <ele>1472</ele>
        <time>2018-06-30T05:40:18.008Z</time>
      </trkpt>
      <trkpt lat="40.803337" lon="-3.808871">
        <ele>1471</ele>
        <time>2018-06-30T05:40:23.008Z</time>
      </trkpt>
      <trkpt lat="40.803263" lon="-3.808747">
        <ele>1471</ele>
        <time>2018-06-30T05:40:29.008Z</time>
      </trkpt>
      <trkpt lat="40.803164" lon="-3.808653">
        <ele>1470.19818006214</ele>
        <time>2018-06-30T05:40:34.008Z</time>
      </trkpt>
      <trkpt lat="40.803066" lon="-3.808582">
        <ele>1471</ele>
        <time>2018-06-30T05:40:38.008Z</time>
      </trkpt>
      <trkpt lat="40.802967" lon="-3.808519">
        <ele>1471</ele>
        <time>2018-06-30T05:40:42.008Z</time>
      </trkpt>
      <trkpt lat="40.802882" lon="-3.808417">
        <ele>1471</ele>
        <time>2018-06-30T05:40:47.008Z</time>
      </trkpt>
      <trkpt lat="40.802792" lon="-3.808348">
        <ele>1471</ele>
        <time>2018-06-30T05:40:51.008Z</time>
      </trkpt>
      <trkpt lat="40.802706" lon="-3.808259">
        <ele>1471</ele>
        <time>2018-06-30T05:40:55.008Z</time>
      </trkpt>
      <trkpt lat="40.802619" lon="-3.808163">
        <ele>1471</ele>
        <time>2018-06-30T05:41:00.008Z</time>
      </trkpt>
      <trkpt lat="40.802566" lon="-3.808035">
        <ele>1471</ele>
        <time>2018-06-30T05:41:05.008Z</time>
      </trkpt>
      <trkpt lat="40.802526" lon="-3.807912">
        <ele>1471</ele>
        <time>2018-06-30T05:41:09.008Z</time>
      </trkpt>
      <trkpt lat="40.802468" lon="-3.807788">
        <ele>1472</ele>
        <time>2018-06-30T05:41:14.008Z</time>
      </trkpt>
      <trkpt lat="40.802416" lon="-3.807651">
        <ele>1472</ele>
        <time>2018-06-30T05:41:19.008Z</time>
      </trkpt>
      <trkpt lat="40.802369" lon="-3.807532">
        <ele>1472</ele>
        <time>2018-06-30T05:41:24.008Z</time>
      </trkpt>
      <trkpt lat="40.802313" lon="-3.807383">
        <ele>1472</ele>
        <time>2018-06-30T05:41:29.008Z</time>
      </trkpt>
      <trkpt lat="40.802263" lon="-3.807253">
        <ele>1473</ele>
        <time>2018-06-30T05:41:33.008Z</time>
      </trkpt>
      <trkpt lat="40.802254" lon="-3.807112">
        <ele>1473</ele>
        <time>2018-06-30T05:41:37.008Z</time>
      </trkpt>
      <trkpt lat="40.802261" lon="-3.806972">
        <ele>1473</ele>
        <time>2018-06-30T05:41:41.008Z</time>
      </trkpt>
      <trkpt lat="40.802275" lon="-3.806831">
        <ele>1473</ele>
        <time>2018-06-30T05:41:46.008Z</time>
      </trkpt>
      <trkpt lat="40.8023" lon="-3.806694">
        <ele>1473</ele>
        <time>2018-06-30T05:41:52.008Z</time>
      </trkpt>
      <trkpt lat="40.802341" lon="-3.806548">
        <ele>1473</ele>
        <time>2018-06-30T05:41:57.008Z</time>
      </trkpt>
      <trkpt lat="40.802346" lon="-3.806417">
        <ele>1473</ele>
        <time>2018-06-30T05:42:02.008Z</time>
      </trkpt>
      <trkpt lat="40.802374" lon="-3.80629">
        <ele>1473</ele>
        <time>2018-06-30T05:42:08.008Z</time>
      </trkpt>
      <trkpt lat="40.802452" lon="-3.806152">
        <ele>1474</ele>
        <time>2018-06-30T05:42:13.008Z</time>
      </trkpt>
      <trkpt lat="40.802543" lon="-3.806055">
        <ele>1474</ele>
        <time>2018-06-30T05:42:16.008Z</time>
      </trkpt>
      <trkpt lat="40.802625" lon="-3.805972">
        <ele>1474</ele>
        <time>2018-06-30T05:42:19.008Z</time>
      </trkpt>
      <trkpt lat="40.802679" lon="-3.80586">
        <ele>1474</ele>
        <time>2018-06-30T05:42:24.008Z</time>
      </trkpt>
      <trkpt lat="40.802781" lon="-3.805777">
        <ele>1474</ele>
        <time>2018-06-30T05:42:31.008Z</time>
      </trkpt>
      <trkpt lat="40.802881" lon="-3.805735">
        <ele>1474</ele>
        <time>2018-06-30T05:42:35.008Z</time>
      </trkpt>
      <trkpt lat="40.802979" lon="-3.805698">
        <ele>1474</ele>
        <time>2018-06-30T05:42:39.008Z</time>
      </trkpt>
      <trkpt lat="40.803084" lon="-3.805683">
        <ele>1474</ele>
        <time>2018-06-30T05:42:44.008Z</time>
      </trkpt>
      <trkpt lat="40.803193" lon="-3.805678">
        <ele>1474</ele>
        <time>2018-06-30T05:42:49.008Z</time>
      </trkpt>
      <trkpt lat="40.803294" lon="-3.805647">
        <ele>1474</ele>
        <time>2018-06-30T05:42:55.008Z</time>
      </trkpt>
      <trkpt lat="40.803412" lon="-3.80563">
        <ele>1474</ele>
        <time>2018-06-30T05:43:01.008Z</time>
      </trkpt>
      <trkpt lat="40.803519" lon="-3.805613">
        <ele>1474</ele>
        <time>2018-06-30T05:43:06.008Z</time>
      </trkpt>
      <trkpt lat="40.80363" lon="-3.805614">
        <ele>1474</ele>
        <time>2018-06-30T05:43:11.008Z</time>
      </trkpt>
      <trkpt lat="40.803731" lon="-3.805615">
        <ele>1474</ele>
        <time>2018-06-30T05:43:15.008Z</time>
      </trkpt>
      <trkpt lat="40.803845" lon="-3.805614">
        <ele>1474</ele>
        <time>2018-06-30T05:43:20.008Z</time>
      </trkpt>
      <trkpt lat="40.803942" lon="-3.805652">
        <ele>1473</ele>
        <time>2018-06-30T05:43:24.008Z</time>
      </trkpt>
      <trkpt lat="40.804047" lon="-3.805676">
        <ele>1473</ele>
        <time>2018-06-30T05:43:28.008Z</time>
      </trkpt>
      <trkpt lat="40.80415" lon="-3.80569">
        <ele>1473</ele>
        <time>2018-06-30T05:43:32.008Z</time>
      </trkpt>
      <trkpt lat="40.804258" lon="-3.805678">
        <ele>1473</ele>
        <time>2018-06-30T05:43:35.008Z</time>
      </trkpt>
      <trkpt lat="40.804359" lon="-3.805696">
        <ele>1473</ele>
        <time>2018-06-30T05:43:38.008Z</time>
      </trkpt>
      <trkpt lat="40.804465" lon="-3.8057">
        <ele>1474</ele>
        <time>2018-06-30T05:43:42.008Z</time>
      </trkpt>
      <trkpt lat="40.804587" lon="-3.805709">
        <ele>1474</ele>
        <time>2018-06-30T05:43:46.008Z</time>
      </trkpt>
      <trkpt lat="40.804705" lon="-3.805728">
        <ele>1474</ele>
        <time>2018-06-30T05:43:50.008Z</time>
      </trkpt>
      <trkpt lat="40.804814" lon="-3.805748">
        <ele>1474</ele>
        <time>2018-06-30T05:43:55.008Z</time>
      </trkpt>
      <trkpt lat="40.804937" lon="-3.805756">
        <ele>1474</ele>
        <time>2018-06-30T05:44:00.008Z</time>
      </trkpt>
      <trkpt lat="40.805044" lon="-3.805766">
        <ele>1473</ele>
        <time>2018-06-30T05:44:05.008Z</time>
      </trkpt>
      <trkpt lat="40.805155" lon="-3.805778">
        <ele>1473</ele>
        <time>2018-06-30T05:44:10.008Z</time>
      </trkpt>
      <trkpt lat="40.805266" lon="-3.805789">
        <ele>1475</ele>
        <time>2018-06-30T05:44:15.008Z</time>
      </trkpt>
      <trkpt lat="40.805379" lon="-3.805804">
        <ele>1475</ele>
        <time>2018-06-30T05:44:20.008Z</time>
      </trkpt>
      <trkpt lat="40.805497" lon="-3.8058">
        <ele>1475</ele>
        <time>2018-06-30T05:44:25.008Z</time>
      </trkpt>
      <trkpt lat="40.805606" lon="-3.805764">
        <ele>1475</ele>
        <time>2018-06-30T05:44:31.008Z</time>
      </trkpt>
      <trkpt lat="40.805706" lon="-3.805735">
        <ele>1475</ele>
        <time>2018-06-30T05:44:35.008Z</time>
      </trkpt>
      <trkpt lat="40.805817" lon="-3.805681">
        <ele>1475</ele>
        <time>2018-06-30T05:44:40.008Z</time>
      </trkpt>
      <trkpt lat="40.805925" lon="-3.805635">
        <ele>1475</ele>
        <time>2018-06-30T05:44:43.008Z</time>
      </trkpt>
      <trkpt lat="40.806025" lon="-3.805589">
        <ele>1475</ele>
        <time>2018-06-30T05:44:46.008Z</time>
      </trkpt>
      <trkpt lat="40.806143" lon="-3.805536">
        <ele>1475</ele>
        <time>2018-06-30T05:44:50.008Z</time>
      </trkpt>
      <trkpt lat="40.806243" lon="-3.805473">
        <ele>1475</ele>
        <time>2018-06-30T05:44:54.008Z</time>
      </trkpt>
      <trkpt lat="40.806341" lon="-3.805415">
        <ele>1475</ele>
        <time>2018-06-30T05:44:58.008Z</time>
      </trkpt>
      <trkpt lat="40.806442" lon="-3.805344">
        <ele>1475</ele>
        <time>2018-06-30T05:45:02.008Z</time>
      </trkpt>
      <trkpt lat="40.806537" lon="-3.805282">
        <ele>1475</ele>
        <time>2018-06-30T05:45:06.008Z</time>
      </trkpt>
      <trkpt lat="40.806628" lon="-3.805227">
        <ele>1475</ele>
        <time>2018-06-30T05:45:10.008Z</time>
      </trkpt>
      <trkpt lat="40.806725" lon="-3.805157">
        <ele>1475</ele>
        <time>2018-06-30T05:45:15.008Z</time>
      </trkpt>
      <trkpt lat="40.806822" lon="-3.805092">
        <ele>1475</ele>
        <time>2018-06-30T05:45:19.008Z</time>
      </trkpt>
      <trkpt lat="40.806929" lon="-3.805019">
        <ele>1475</ele>
        <time>2018-06-30T05:45:24.008Z</time>
      </trkpt>
      <trkpt lat="40.807039" lon="-3.804957">
        <ele>1475</ele>
        <time>2018-06-30T05:45:29.008Z</time>
      </trkpt>
      <trkpt lat="40.807148" lon="-3.804909">
        <ele>1475</ele>
        <time>2018-06-30T05:45:34.008Z</time>
      </trkpt>
      <trkpt lat="40.807251" lon="-3.804874">
        <ele>1475</ele>
        <time>2018-06-30T05:45:38.008Z</time>
      </trkpt>
      <trkpt lat="40.807346" lon="-3.804835">
        <ele>1476</ele>
        <time>2018-06-30T05:45:42.008Z</time>
      </trkpt>
      <trkpt lat="40.807445" lon="-3.804801">
        <ele>1476</ele>
        <time>2018-06-30T05:45:46.008Z</time>
      </trkpt>
      <trkpt lat="40.807543" lon="-3.804769">
        <ele>1476</ele>
        <time>2018-06-30T05:45:50.008Z</time>
      </trkpt>
      <trkpt lat="40.807639" lon="-3.804736">
        <ele>1476</ele>
        <time>2018-06-30T05:45:55.008Z</time>
      </trkpt>
      <trkpt lat="40.807746" lon="-3.804688">
        <ele>1476</ele>
        <time>2018-06-30T05:45:59.008Z</time>
      </trkpt>
      <trkpt lat="40.807842" lon="-3.804624">
        <ele>1475</ele>
        <time>2018-06-30T05:46:03.008Z</time>
      </trkpt>
      <trkpt lat="40.80794" lon="-3.804541">
        <ele>1475</ele>
        <time>2018-06-30T05:46:08.008Z</time>
      </trkpt>
      <trkpt lat="40.80804" lon="-3.804452">
        <ele>1475</ele>
        <time>2018-06-30T05:46:12.008Z</time>
      </trkpt>
      <trkpt lat="40.808144" lon="-3.804381">
        <ele>1475</ele>
        <time>2018-06-30T05:46:16.008Z</time>
      </trkpt>
      <trkpt lat="40.808234" lon="-3.804284">
        <ele>1474.79795723783</ele>
        <time>2018-06-30T05:46:21.008Z</time>
      </trkpt>
      <trkpt lat="40.80832" lon="-3.804189">
        <ele>1474</ele>
        <time>2018-06-30T05:46:26.008Z</time>
      </trkpt>
      <trkpt lat="40.808424" lon="-3.804102">
        <ele>1474.21010033099</ele>
        <time>2018-06-30T05:46:31.008Z</time>
      </trkpt>
      <trkpt lat="40.808522" lon="-3.804033">
        <ele>1475</ele>
        <time>2018-06-30T05:46:35.008Z</time>
      </trkpt>
      <trkpt lat="40.80863" lon="-3.803961">
        <ele>1475</ele>
        <time>2018-06-30T05:46:39.008Z</time>
      </trkpt>
      <trkpt lat="40.808734" lon="-3.803904">
        <ele>1475</ele>
        <time>2018-06-30T05:46:43.008Z</time>
      </trkpt>
      <trkpt lat="40.808842" lon="-3.80386">
        <ele>1475</ele>
        <time>2018-06-30T05:46:47.008Z</time>
      </trkpt>
      <trkpt lat="40.808946" lon="-3.803822">
        <ele>1475</ele>
        <time>2018-06-30T05:46:51.008Z</time>
      </trkpt>
      <trkpt lat="40.809058" lon="-3.803808">
        <ele>1475</ele>
        <time>2018-06-30T05:46:57.008Z</time>
      </trkpt>
      <trkpt lat="40.809169" lon="-3.803796">
        <ele>1474</ele>
        <time>2018-06-30T05:47:03.008Z</time>
      </trkpt>
      <trkpt lat="40.809282" lon="-3.803784">
        <ele>1474</ele>
        <time>2018-06-30T05:47:08.008Z</time>
      </trkpt>
      <trkpt lat="40.809404" lon="-3.803786">
        <ele>1474</ele>
        <time>2018-06-30T05:47:13.008Z</time>
      </trkpt>
      <trkpt lat="40.809504" lon="-3.803774">
        <ele>1474</ele>
        <time>2018-06-30T05:47:17.008Z</time>
      </trkpt>
      <trkpt lat="40.809612" lon="-3.803767">
        <ele>1473</ele>
        <time>2018-06-30T05:47:22.008Z</time>
      </trkpt>
      <trkpt lat="40.809713" lon="-3.803752">
        <ele>1473</ele>
        <time>2018-06-30T05:47:27.008Z</time>
      </trkpt>
      <trkpt lat="40.809822" lon="-3.803724">
        <ele>1474</ele>
        <time>2018-06-30T05:47:32.008Z</time>
      </trkpt>
      <trkpt lat="40.809924" lon="-3.803706">
        <ele>1474</ele>
        <time>2018-06-30T05:47:36.008Z</time>
      </trkpt>
      <trkpt lat="40.810028" lon="-3.80369">
        <ele>1474</ele>
        <time>2018-06-30T05:47:39.008Z</time>
      </trkpt>
      <trkpt lat="40.810155" lon="-3.803669">
        <ele>1474</ele>
        <time>2018-06-30T05:47:43.008Z</time>
      </trkpt>
      <trkpt lat="40.810274" lon="-3.803668">
        <ele>1474</ele>
        <time>2018-06-30T05:47:47.008Z</time>
      </trkpt>
      <trkpt lat="40.810379" lon="-3.803671">
        <ele>1474</ele>
        <time>2018-06-30T05:47:51.008Z</time>
      </trkpt>
      <trkpt lat="40.810496" lon="-3.80367">
        <ele>1474</ele>
        <time>2018-06-30T05:47:56.008Z</time>
      </trkpt>
      <trkpt lat="40.810604" lon="-3.803667">
        <ele>1473.57979933802</ele>
        <time>2018-06-30T05:48:01.008Z</time>
      </trkpt>
      <trkpt lat="40.810719" lon="-3.803692">
        <ele>1472</ele>
        <time>2018-06-30T05:48:06.008Z</time>
      </trkpt>
      <trkpt lat="40.810821" lon="-3.803716">
        <ele>1472</ele>
        <time>2018-06-30T05:48:10.008Z</time>
      </trkpt>
      <trkpt lat="40.810936" lon="-3.803754">
        <ele>1473</ele>
        <time>2018-06-30T05:48:14.008Z</time>
      </trkpt>
      <trkpt lat="40.811067" lon="-3.803797">
        <ele>1473</ele>
        <time>2018-06-30T05:48:19.008Z</time>
      </trkpt>
      <trkpt lat="40.81117" lon="-3.803828">
        <ele>1473</ele>
        <time>2018-06-30T05:48:23.008Z</time>
      </trkpt>
      <trkpt lat="40.811294" lon="-3.803874">
        <ele>1473</ele>
        <time>2018-06-30T05:48:27.008Z</time>
      </trkpt>
      <trkpt lat="40.811413" lon="-3.803881">
        <ele>1472</ele>
        <time>2018-06-30T05:48:32.008Z</time>
      </trkpt>
      <trkpt lat="40.811523" lon="-3.80386">
        <ele>1472</ele>
        <time>2018-06-30T05:48:36.008Z</time>
      </trkpt>
      <trkpt lat="40.811635" lon="-3.803825">
        <ele>1472</ele>
        <time>2018-06-30T05:48:41.008Z</time>
      </trkpt>
      <trkpt lat="40.811742" lon="-3.803782">
        <ele>1472</ele>
        <time>2018-06-30T05:48:45.008Z</time>
      </trkpt>
      <trkpt lat="40.811838" lon="-3.803713">
        <ele>1472</ele>
        <time>2018-06-30T05:48:49.008Z</time>
      </trkpt>
      <trkpt lat="40.811916" lon="-3.803601">
        <ele>1471</ele>
        <time>2018-06-30T05:48:52.008Z</time>
      </trkpt>
      <trkpt lat="40.811999" lon="-3.80349">
        <ele>1471</ele>
        <time>2018-06-30T05:48:56.008Z</time>
      </trkpt>
      <trkpt lat="40.812077" lon="-3.803395">
        <ele>1471</ele>
        <time>2018-06-30T05:49:00.008Z</time>
      </trkpt>
      <trkpt lat="40.812166" lon="-3.803292">
        <ele>1467</ele>
        <time>2018-06-30T05:49:06.008Z</time>
      </trkpt>
      <trkpt lat="40.81226" lon="-3.803232">
        <ele>1467</ele>
        <time>2018-06-30T05:49:10.008Z</time>
      </trkpt>
      <trkpt lat="40.812362" lon="-3.803194">
        <ele>1466</ele>
        <time>2018-06-30T05:49:17.008Z</time>
      </trkpt>
      <trkpt lat="40.812462" lon="-3.803188">
        <ele>1465</ele>
        <time>2018-06-30T05:49:27.008Z</time>
      </trkpt>
      <trkpt lat="40.812567" lon="-3.803199">
        <ele>1465</ele>
        <time>2018-06-30T05:49:35.008Z</time>
      </trkpt>
      <trkpt lat="40.812675" lon="-3.803239">
        <ele>1465</ele>
        <time>2018-06-30T05:49:45.008Z</time>
      </trkpt>
      <trkpt lat="40.812781" lon="-3.803264">
        <ele>1466</ele>
        <time>2018-06-30T05:49:53.008Z</time>
      </trkpt>
      <trkpt lat="40.812883" lon="-3.803302">
        <ele>1467</ele>
        <time>2018-06-30T05:50:04.008Z</time>
      </trkpt>
      <trkpt lat="40.812992" lon="-3.803341">
        <ele>1468</ele>
        <time>2018-06-30T05:50:13.008Z</time>
      </trkpt>
      <trkpt lat="40.813094" lon="-3.803398">
        <ele>1470</ele>
        <time>2018-06-30T05:50:22.008Z</time>
      </trkpt>
      <trkpt lat="40.813191" lon="-3.803458">
        <ele>1470</ele>
        <time>2018-06-30T05:50:28.008Z</time>
      </trkpt>
      <trkpt lat="40.813296" lon="-3.803504">
        <ele>1470</ele>
        <time>2018-06-30T05:50:37.008Z</time>
      </trkpt>
      <trkpt lat="40.813402" lon="-3.803556">
        <ele>1472</ele>
        <time>2018-06-30T05:50:47.008Z</time>
      </trkpt>
      <trkpt lat="40.813492" lon="-3.803619">
        <ele>1473</ele>
        <time>2018-06-30T05:50:57.008Z</time>
      </trkpt>
      <trkpt lat="40.813576" lon="-3.803695">
        <ele>1474</ele>
        <time>2018-06-30T05:51:07.008Z</time>
      </trkpt>
      <trkpt lat="40.813668" lon="-3.803758">
        <ele>1475</ele>
        <time>2018-06-30T05:51:20.008Z</time>
      </trkpt>
      <trkpt lat="40.813763" lon="-3.803827">
        <ele>1475</ele>
        <time>2018-06-30T05:51:29.008Z</time>
      </trkpt>
      <trkpt lat="40.813859" lon="-3.803874">
        <ele>1476</ele>
        <time>2018-06-30T05:51:46.008Z</time>
      </trkpt>
      <trkpt lat="40.813949" lon="-3.803953">
        <ele>1477</ele>
        <time>2018-06-30T05:51:56.008Z</time>
      </trkpt>
      <trkpt lat="40.814037" lon="-3.804039">
        <ele>1478</ele>
        <time>2018-06-30T05:52:07.008Z</time>
      </trkpt>
      <trkpt lat="40.81412" lon="-3.804112">
        <ele>1479</ele>
        <time>2018-06-30T05:52:15.008Z</time>
      </trkpt>
      <trkpt lat="40.814211" lon="-3.80419">
        <ele>1479</ele>
        <time>2018-06-30T05:52:25.008Z</time>
      </trkpt>
      <trkpt lat="40.814304" lon="-3.804245">
        <ele>1479</ele>
        <time>2018-06-30T05:52:34.008Z</time>
      </trkpt>
      <trkpt lat="40.814402" lon="-3.804334">
        <ele>1479</ele>
        <time>2018-06-30T05:52:42.008Z</time>
      </trkpt>
      <trkpt lat="40.814486" lon="-3.804423">
        <ele>1479</ele>
        <time>2018-06-30T05:52:48.008Z</time>
      </trkpt>
      <trkpt lat="40.814579" lon="-3.804481">
        <ele>1481</ele>
        <time>2018-06-30T05:52:58.008Z</time>
      </trkpt>
      <trkpt lat="40.814689" lon="-3.804469">
        <ele>1482</ele>
        <time>2018-06-30T05:53:05.008Z</time>
      </trkpt>
      <trkpt lat="40.814781" lon="-3.804382">
        <ele>1483</ele>
        <time>2018-06-30T05:53:12.008Z</time>
      </trkpt>
      <trkpt lat="40.814879" lon="-3.804314">
        <ele>1484</ele>
        <time>2018-06-30T05:53:20.008Z</time>
      </trkpt>
      <trkpt lat="40.814949" lon="-3.804202">
        <ele>1484</ele>
        <time>2018-06-30T05:53:28.008Z</time>
      </trkpt>
      <trkpt lat="40.81503" lon="-3.804125">
        <ele>1484</ele>
        <time>2018-06-30T05:53:37.008Z</time>
      </trkpt>
      <trkpt lat="40.815131" lon="-3.80407">
        <ele>1484</ele>
        <time>2018-06-30T05:53:45.008Z</time>
      </trkpt>
      <trkpt lat="40.815229" lon="-3.804049">
        <ele>1484</ele>
        <time>2018-06-30T05:53:50.008Z</time>
      </trkpt>
      <trkpt lat="40.815349" lon="-3.804062">
        <ele>1484</ele>
        <time>2018-06-30T05:53:56.008Z</time>
      </trkpt>
      <trkpt lat="40.815461" lon="-3.804023">
        <ele>1483</ele>
        <time>2018-06-30T05:54:02.008Z</time>
      </trkpt>
      <trkpt lat="40.815558" lon="-3.803984">
        <ele>1483</ele>
        <time>2018-06-30T05:54:06.008Z</time>
      </trkpt>
      <trkpt lat="40.815668" lon="-3.803949">
        <ele>1483</ele>
        <time>2018-06-30T05:54:11.008Z</time>
      </trkpt>
      <trkpt lat="40.81577" lon="-3.803897">
        <ele>1483</ele>
        <time>2018-06-30T05:54:16.008Z</time>
      </trkpt>
      <trkpt lat="40.815881" lon="-3.803872">
        <ele>1483</ele>
        <time>2018-06-30T05:54:21.008Z</time>
      </trkpt>
      <trkpt lat="40.81598" lon="-3.803841">
        <ele>1483</ele>
        <time>2018-06-30T05:54:25.008Z</time>
      </trkpt>
      <trkpt lat="40.816077" lon="-3.803786">
        <ele>1483</ele>
        <time>2018-06-30T05:54:29.008Z</time>
      </trkpt>
      <trkpt lat="40.816179" lon="-3.803732">
        <ele>1482</ele>
        <time>2018-06-30T05:54:32.008Z</time>
      </trkpt>
      <trkpt lat="40.816288" lon="-3.803692">
        <ele>1482</ele>
        <time>2018-06-30T05:54:36.008Z</time>
      </trkpt>
      <trkpt lat="40.816406" lon="-3.803683">
        <ele>1482</ele>
        <time>2018-06-30T05:54:41.008Z</time>
      </trkpt>
      <trkpt lat="40.816528" lon="-3.803699">
        <ele>1482</ele>
        <time>2018-06-30T05:54:46.008Z</time>
      </trkpt>
      <trkpt lat="40.816629" lon="-3.803727">
        <ele>1482</ele>
        <time>2018-06-30T05:54:50.008Z</time>
      </trkpt>
      <trkpt lat="40.816737" lon="-3.803782">
        <ele>1481</ele>
        <time>2018-06-30T05:54:55.008Z</time>
      </trkpt>
      <trkpt lat="40.816838" lon="-3.803842">
        <ele>1481</ele>
        <time>2018-06-30T05:55:00.008Z</time>
      </trkpt>
      <trkpt lat="40.816953" lon="-3.803897">
        <ele>1480</ele>
        <time>2018-06-30T05:55:06.008Z</time>
      </trkpt>
      <trkpt lat="40.817058" lon="-3.803955">
        <ele>1479</ele>
        <time>2018-06-30T05:55:12.008Z</time>
      </trkpt>
      <trkpt lat="40.817149" lon="-3.804011">
        <ele>1479</ele>
        <time>2018-06-30T05:55:16.008Z</time>
      </trkpt>
      <trkpt lat="40.817251" lon="-3.804065">
        <ele>1479</ele>
        <time>2018-06-30T05:55:20.008Z</time>
      </trkpt>
      <trkpt lat="40.817357" lon="-3.804136">
        <ele>1477</ele>
        <time>2018-06-30T05:55:24.008Z</time>
      </trkpt>
      <trkpt lat="40.817457" lon="-3.804191">
        <ele>1477</ele>
        <time>2018-06-30T05:55:28.008Z</time>
      </trkpt>
      <trkpt lat="40.817555" lon="-3.804247">
        <ele>1475</ele>
        <time>2018-06-30T05:55:32.008Z</time>
      </trkpt>
      <trkpt lat="40.817649" lon="-3.804303">
        <ele>1475</ele>
        <time>2018-06-30T05:55:36.008Z</time>
      </trkpt>
      <trkpt lat="40.817755" lon="-3.804353">
        <ele>1475</ele>
        <time>2018-06-30T05:55:41.008Z</time>
      </trkpt>
      <trkpt lat="40.81786" lon="-3.804397">
        <ele>1475</ele>
        <time>2018-06-30T05:55:46.008Z</time>
      </trkpt>
      <trkpt lat="40.817961" lon="-3.804446">
        <ele>1475</ele>
        <time>2018-06-30T05:55:50.008Z</time>
      </trkpt>
      <trkpt lat="40.818068" lon="-3.804509">
        <ele>1475</ele>
        <time>2018-06-30T05:55:54.008Z</time>
      </trkpt>
      <trkpt lat="40.81817" lon="-3.804566">
        <ele>1475</ele>
        <time>2018-06-30T05:55:58.008Z</time>
      </trkpt>
      <trkpt lat="40.818277" lon="-3.804622">
        <ele>1476</ele>
        <time>2018-06-30T05:56:03.008Z</time>
      </trkpt>
      <trkpt lat="40.818379" lon="-3.804667">
        <ele>1476</ele>
        <time>2018-06-30T05:56:08.008Z</time>
      </trkpt>
      <trkpt lat="40.818489" lon="-3.804739">
        <ele>1476</ele>
        <time>2018-06-30T05:56:13.008Z</time>
      </trkpt>
      <trkpt lat="40.818596" lon="-3.804806">
        <ele>1476</ele>
        <time>2018-06-30T05:56:18.008Z</time>
      </trkpt>
      <trkpt lat="40.818701" lon="-3.804863">
        <ele>1477</ele>
        <time>2018-06-30T05:56:23.008Z</time>
      </trkpt>
      <trkpt lat="40.818785" lon="-3.804933">
        <ele>1477</ele>
        <time>2018-06-30T05:56:27.008Z</time>
      </trkpt>
      <trkpt lat="40.818881" lon="-3.805019">
        <ele>1475</ele>
        <time>2018-06-30T05:56:32.008Z</time>
      </trkpt>
      <trkpt lat="40.818979" lon="-3.805091">
        <ele>1475</ele>
        <time>2018-06-30T05:56:36.008Z</time>
      </trkpt>
      <trkpt lat="40.819055" lon="-3.805177">
        <ele>1475</ele>
        <time>2018-06-30T05:56:40.008Z</time>
      </trkpt>
      <trkpt lat="40.819152" lon="-3.805268">
        <ele>1474</ele>
        <time>2018-06-30T05:56:45.008Z</time>
      </trkpt>
      <trkpt lat="40.819245" lon="-3.805356">
        <ele>1474</ele>
        <time>2018-06-30T05:56:50.008Z</time>
      </trkpt>
      <trkpt lat="40.819321" lon="-3.805441">
        <ele>1474</ele>
        <time>2018-06-30T05:56:54.008Z</time>
      </trkpt>
      <trkpt lat="40.819401" lon="-3.805565">
        <ele>1474</ele>
        <time>2018-06-30T05:56:59.008Z</time>
      </trkpt>
      <trkpt lat="40.819476" lon="-3.805672">
        <ele>1475</ele>
        <time>2018-06-30T05:57:03.008Z</time>
      </trkpt>
      <trkpt lat="40.819527" lon="-3.80579">
        <ele>1475</ele>
        <time>2018-06-30T05:57:07.008Z</time>
      </trkpt>
      <trkpt lat="40.819569" lon="-3.805928">
        <ele>1475</ele>
        <time>2018-06-30T05:57:12.008Z</time>
      </trkpt>
      <trkpt lat="40.819609" lon="-3.806052">
        <ele>1475</ele>
        <time>2018-06-30T05:57:20.008Z</time>
      </trkpt>
      <trkpt lat="40.819639" lon="-3.806163">
        <ele>1476</ele>
        <time>2018-06-30T05:57:29.008Z</time>
      </trkpt>
      <trkpt lat="40.81968" lon="-3.806261">
        <ele>1476</ele>
        <time>2018-06-30T05:57:36.008Z</time>
      </trkpt>
      <trkpt lat="40.819701" lon="-3.806389">
        <ele>1477</ele>
        <time>2018-06-30T05:57:45.008Z</time>
      </trkpt>
      <trkpt lat="40.81971" lon="-3.806506">
        <ele>1478</ele>
        <time>2018-06-30T05:57:52.008Z</time>
      </trkpt>
      <trkpt lat="40.819753" lon="-3.80658">
        <ele>1478</ele>
        <time>2018-06-30T05:57:57.008Z</time>
      </trkpt>
      <trkpt lat="40.819786" lon="-3.806659">
        <ele>1479</ele>
        <time>2018-06-30T05:58:02.008Z</time>
      </trkpt>
      <trkpt lat="40.819829" lon="-3.806726">
        <ele>1479</ele>
        <time>2018-06-30T05:58:07.008Z</time>
      </trkpt>
      <trkpt lat="40.819867" lon="-3.806814">
        <ele>1480</ele>
        <time>2018-06-30T05:58:13.008Z</time>
      </trkpt>
      <trkpt lat="40.819893" lon="-3.806907">
        <ele>1480</ele>
        <time>2018-06-30T05:58:19.008Z</time>
      </trkpt>
      <trkpt lat="40.819921" lon="-3.806981">
        <ele>1481</ele>
        <time>2018-06-30T05:58:24.008Z</time>
      </trkpt>
      <trkpt lat="40.819949" lon="-3.807037">
        <ele>1481</ele>
        <time>2018-06-30T05:58:28.008Z</time>
      </trkpt>
      <trkpt lat="40.819984" lon="-3.807102">
        <ele>1482</ele>
        <time>2018-06-30T05:58:33.008Z</time>
      </trkpt>
      <trkpt lat="40.820017" lon="-3.807165">
        <ele>1482</ele>
        <time>2018-06-30T05:58:38.008Z</time>
      </trkpt>
      <trkpt lat="40.820047" lon="-3.807244">
        <ele>1484</ele>
        <time>2018-06-30T05:59:09.008Z</time>
      </trkpt>
      <trkpt lat="40.820111" lon="-3.807323">
        <ele>1484</ele>
        <time>2018-06-30T05:59:17.008Z</time>
      </trkpt>
      <trkpt lat="40.820182" lon="-3.807401">
        <ele>1485</ele>
        <time>2018-06-30T05:59:26.008Z</time>
      </trkpt>
      <trkpt lat="40.820273" lon="-3.807454">
        <ele>1487</ele>
        <time>2018-06-30T05:59:36.008Z</time>
      </trkpt>
      <trkpt lat="40.82037" lon="-3.807467">
        <ele>1487</ele>
        <time>2018-06-30T05:59:44.008Z</time>
      </trkpt>
      <trkpt lat="40.82047" lon="-3.80751">
        <ele>1487</ele>
        <time>2018-06-30T05:59:50.008Z</time>
      </trkpt>
      <trkpt lat="40.820558" lon="-3.807532">
        <ele>1488</ele>
        <time>2018-06-30T05:59:56.008Z</time>
      </trkpt>
      <trkpt lat="40.82065" lon="-3.807574">
        <ele>1489</ele>
        <time>2018-06-30T06:00:03.008Z</time>
      </trkpt>
      <trkpt lat="40.820748" lon="-3.807632">
        <ele>1491</ele>
        <time>2018-06-30T06:00:12.008Z</time>
      </trkpt>
      <trkpt lat="40.820829" lon="-3.807712">
        <ele>1491</ele>
        <time>2018-06-30T06:00:20.008Z</time>
      </trkpt>
      <trkpt lat="40.820911" lon="-3.80781">
        <ele>1492</ele>
        <time>2018-06-30T06:00:29.008Z</time>
      </trkpt>
      <trkpt lat="40.820993" lon="-3.807891">
        <ele>1492</ele>
        <time>2018-06-30T06:00:37.008Z</time>
      </trkpt>
      <trkpt lat="40.821052" lon="-3.808015">
        <ele>1492</ele>
        <time>2018-06-30T06:00:46.008Z</time>
      </trkpt>
      <trkpt lat="40.821124" lon="-3.808113">
        <ele>1492</ele>
        <time>2018-06-30T06:00:51.008Z</time>
      </trkpt>
      <trkpt lat="40.821174" lon="-3.808229">
        <ele>1492</ele>
        <time>2018-06-30T06:00:56.008Z</time>
      </trkpt>
      <trkpt lat="40.821191" lon="-3.808359">
        <ele>1495</ele>
        <time>2018-06-30T06:01:10.008Z</time>
      </trkpt>
      <trkpt lat="40.821269" lon="-3.808475">
        <ele>1494</ele>
        <time>2018-06-30T06:01:15.008Z</time>
      </trkpt>
      <trkpt lat="40.821344" lon="-3.808585">
        <ele>1494</ele>
        <time>2018-06-30T06:01:20.008Z</time>
      </trkpt>
      <trkpt lat="40.821408" lon="-3.808685">
        <ele>1495</ele>
        <time>2018-06-30T06:01:24.008Z</time>
      </trkpt>
      <trkpt lat="40.821462" lon="-3.808823">
        <ele>1495</ele>
        <time>2018-06-30T06:01:29.008Z</time>
      </trkpt>
      <trkpt lat="40.821494" lon="-3.808969">
        <ele>1495</ele>
        <time>2018-06-30T06:01:34.008Z</time>
      </trkpt>
      <trkpt lat="40.821544" lon="-3.809098">
        <ele>1495</ele>
        <time>2018-06-30T06:01:39.008Z</time>
      </trkpt>
      <trkpt lat="40.821593" lon="-3.809223">
        <ele>1496</ele>
        <time>2018-06-30T06:01:45.008Z</time>
      </trkpt>
      <trkpt lat="40.82165" lon="-3.809335">
        <ele>1497</ele>
        <time>2018-06-30T06:01:57.008Z</time>
      </trkpt>
      <trkpt lat="40.82167" lon="-3.809473">
        <ele>1497</ele>
        <time>2018-06-30T06:02:05.008Z</time>
      </trkpt>
      <trkpt lat="40.821672" lon="-3.809615">
        <ele>1499</ele>
        <time>2018-06-30T06:02:14.008Z</time>
      </trkpt>
      <trkpt lat="40.821712" lon="-3.80975">
        <ele>1500</ele>
        <time>2018-06-30T06:02:24.008Z</time>
      </trkpt>
      <trkpt lat="40.821737" lon="-3.809851">
        <ele>1500</ele>
        <time>2018-06-30T06:02:30.008Z</time>
      </trkpt>
      <trkpt lat="40.821764" lon="-3.809944">
        <ele>1501</ele>
        <time>2018-06-30T06:02:37.008Z</time>
      </trkpt>
      <trkpt lat="40.821778" lon="-3.810015">
        <ele>1502</ele>
        <time>2018-06-30T06:02:42.008Z</time>
      </trkpt>
      <trkpt lat="40.821769" lon="-3.810103">
        <ele>1502</ele>
        <time>2018-06-30T06:02:49.008Z</time>
      </trkpt>
      <trkpt lat="40.821764" lon="-3.810206">
        <ele>1504</ele>
        <time>2018-06-30T06:02:59.008Z</time>
      </trkpt>
      <trkpt lat="40.821699" lon="-3.810319">
        <ele>1507</ele>
        <time>2018-06-30T06:03:16.008Z</time>
      </trkpt>
      <trkpt lat="40.821651" lon="-3.810437">
        <ele>1509</ele>
        <time>2018-06-30T06:03:26.008Z</time>
      </trkpt>
      <trkpt lat="40.821602" lon="-3.810553">
        <ele>1511</ele>
        <time>2018-06-30T06:03:37.008Z</time>
      </trkpt>
      <trkpt lat="40.821571" lon="-3.810694">
        <ele>1513</ele>
        <time>2018-06-30T06:03:49.008Z</time>
      </trkpt>
      <trkpt lat="40.821602" lon="-3.810834">
        <ele>1515</ele>
        <time>2018-06-30T06:03:58.008Z</time>
      </trkpt>
      <trkpt lat="40.821656" lon="-3.810948">
        <ele>1518.21583909969</ele>
        <time>2018-06-30T06:04:06.008Z</time>
      </trkpt>
      <trkpt lat="40.821708" lon="-3.811067">
        <ele>1519</ele>
        <time>2018-06-30T06:04:17.008Z</time>
      </trkpt>
      <trkpt lat="40.821747" lon="-3.811189">
        <ele>1521</ele>
        <time>2018-06-30T06:04:28.008Z</time>
      </trkpt>
      <trkpt lat="40.821809" lon="-3.811294">
        <ele>1524.21583909969</ele>
        <time>2018-06-30T06:04:36.008Z</time>
      </trkpt>
      <trkpt lat="40.821832" lon="-3.811424">
        <ele>1526</ele>
        <time>2018-06-30T06:04:50.008Z</time>
      </trkpt>
      <trkpt lat="40.821902" lon="-3.811534">
        <ele>1528</ele>
        <time>2018-06-30T06:04:58.008Z</time>
      </trkpt>
      <trkpt lat="40.821967" lon="-3.811643">
        <ele>1530</ele>
        <time>2018-06-30T06:05:07.008Z</time>
      </trkpt>
      <trkpt lat="40.821988" lon="-3.811783">
        <ele>1531.20204276217</ele>
        <time>2018-06-30T06:05:21.008Z</time>
      </trkpt>
      <trkpt lat="40.82202" lon="-3.811908">
        <ele>1532</ele>
        <time>2018-06-30T06:05:30.008Z</time>
      </trkpt>
      <trkpt lat="40.822046" lon="-3.81204">
        <ele>1536</ele>
        <time>2018-06-30T06:05:44.008Z</time>
      </trkpt>
      <trkpt lat="40.822103" lon="-3.81216">
        <ele>1538</ele>
        <time>2018-06-30T06:05:53.008Z</time>
      </trkpt>
      <trkpt lat="40.822133" lon="-3.812285">
        <ele>1539</ele>
        <time>2018-06-30T06:06:06.008Z</time>
      </trkpt>
      <trkpt lat="40.822175" lon="-3.812407">
        <ele>1541</ele>
        <time>2018-06-30T06:06:15.008Z</time>
      </trkpt>
      <trkpt lat="40.822182" lon="-3.81254">
        <ele>1543</ele>
        <time>2018-06-30T06:06:27.008Z</time>
      </trkpt>
      <trkpt lat="40.822217" lon="-3.812663">
        <ele>1544</ele>
        <time>2018-06-30T06:06:39.008Z</time>
      </trkpt>
      <trkpt lat="40.822268" lon="-3.812776">
        <ele>1546</ele>
        <time>2018-06-30T06:06:46.008Z</time>
      </trkpt>
      <trkpt lat="40.822284" lon="-3.81291">
        <ele>1547</ele>
        <time>2018-06-30T06:06:54.008Z</time>
      </trkpt>
      <trkpt lat="40.822328" lon="-3.81305">
        <ele>1548</ele>
        <time>2018-06-30T06:07:06.008Z</time>
      </trkpt>
      <trkpt lat="40.822389" lon="-3.813154">
        <ele>1550</ele>
        <time>2018-06-30T06:07:15.008Z</time>
      </trkpt>
      <trkpt lat="40.822431" lon="-3.813276">
        <ele>1551</ele>
        <time>2018-06-30T06:07:25.008Z</time>
      </trkpt>
      <trkpt lat="40.822438" lon="-3.81342">
        <ele>1552</ele>
        <time>2018-06-30T06:07:35.008Z</time>
      </trkpt>
      <trkpt lat="40.822411" lon="-3.813551">
        <ele>1554</ele>
        <time>2018-06-30T06:07:44.008Z</time>
      </trkpt>
      <trkpt lat="40.822393" lon="-3.813695">
        <ele>1555.21583909969</ele>
        <time>2018-06-30T06:07:54.008Z</time>
      </trkpt>
      <trkpt lat="40.822382" lon="-3.813825">
        <ele>1555</ele>
        <time>2018-06-30T06:08:08.008Z</time>
      </trkpt>
      <trkpt lat="40.822375" lon="-3.813962">
        <ele>1555</ele>
        <time>2018-06-30T06:08:19.008Z</time>
      </trkpt>
      <trkpt lat="40.822375" lon="-3.814097">
        <ele>1557.42020066198</ele>
        <time>2018-06-30T06:08:31.008Z</time>
      </trkpt>
      <trkpt lat="40.822333" lon="-3.814218">
        <ele>1559.2622274686</ele>
        <time>2018-06-30T06:08:41.008Z</time>
      </trkpt>
      <trkpt lat="40.82226" lon="-3.814334">
        <ele>1563</ele>
        <time>2018-06-30T06:08:52.008Z</time>
      </trkpt>
      <trkpt lat="40.822213" lon="-3.814452">
        <ele>1563</ele>
        <time>2018-06-30T06:09:05.008Z</time>
      </trkpt>
      <trkpt lat="40.822176" lon="-3.814588">
        <ele>1565</ele>
        <time>2018-06-30T06:09:16.008Z</time>
      </trkpt>
      <trkpt lat="40.822128" lon="-3.814703">
        <ele>1567</ele>
        <time>2018-06-30T06:09:26.008Z</time>
      </trkpt>
      <trkpt lat="40.8221" lon="-3.814834">
        <ele>1567</ele>
        <time>2018-06-30T06:09:37.008Z</time>
      </trkpt>
      <trkpt lat="40.822035" lon="-3.814934">
        <ele>1569</ele>
        <time>2018-06-30T06:09:46.008Z</time>
      </trkpt>
      <trkpt lat="40.821988" lon="-3.815016">
        <ele>1570</ele>
        <time>2018-06-30T06:09:54.008Z</time>
      </trkpt>
      <trkpt lat="40.821937" lon="-3.815132">
        <ele>1572</ele>
        <time>2018-06-30T06:10:09.008Z</time>
      </trkpt>
      <trkpt lat="40.82191" lon="-3.815262">
        <ele>1575</ele>
        <time>2018-06-30T06:10:22.008Z</time>
      </trkpt>
      <trkpt lat="40.82187" lon="-3.815385">
        <ele>1577</ele>
        <time>2018-06-30T06:10:36.008Z</time>
      </trkpt>
      <trkpt lat="40.821844" lon="-3.815515">
        <ele>1581</ele>
        <time>2018-06-30T06:10:48.008Z</time>
      </trkpt>
      <trkpt lat="40.821796" lon="-3.815643">
        <ele>1582</ele>
        <time>2018-06-30T06:10:59.008Z</time>
      </trkpt>
      <trkpt lat="40.821792" lon="-3.815778">
        <ele>1584</ele>
        <time>2018-06-30T06:11:13.008Z</time>
      </trkpt>
      <trkpt lat="40.821822" lon="-3.815908">
        <ele>1586</ele>
        <time>2018-06-30T06:11:22.008Z</time>
      </trkpt>
      <trkpt lat="40.821796" lon="-3.81605">
        <ele>1586</ele>
        <time>2018-06-30T06:11:30.008Z</time>
      </trkpt>
      <trkpt lat="40.821809" lon="-3.816172">
        <ele>1588</ele>
        <time>2018-06-30T06:11:40.008Z</time>
      </trkpt>
      <trkpt lat="40.82183" lon="-3.816291">
        <ele>1590</ele>
        <time>2018-06-30T06:11:56.008Z</time>
      </trkpt>
      <trkpt lat="40.821811" lon="-3.816427">
        <ele>1592</ele>
        <time>2018-06-30T06:12:07.008Z</time>
      </trkpt>
      <trkpt lat="40.821824" lon="-3.816543">
        <ele>1594</ele>
        <time>2018-06-30T06:12:18.008Z</time>
      </trkpt>
      <trkpt lat="40.821824" lon="-3.816672">
        <ele>1596.42020066198</ele>
        <time>2018-06-30T06:12:31.008Z</time>
      </trkpt>
      <trkpt lat="40.821812" lon="-3.816795">
        <ele>1599</ele>
        <time>2018-06-30T06:12:43.008Z</time>
      </trkpt>
      <trkpt lat="40.821758" lon="-3.816897">
        <ele>1601</ele>
        <time>2018-06-30T06:12:55.008Z</time>
      </trkpt>
      <trkpt lat="40.821686" lon="-3.816973">
        <ele>1602</ele>
        <time>2018-06-30T06:13:05.008Z</time>
      </trkpt>
      <trkpt lat="40.821632" lon="-3.81705">
        <ele>1604</ele>
        <time>2018-06-30T06:13:13.008Z</time>
      </trkpt>
      <trkpt lat="40.821583" lon="-3.817132">
        <ele>1606</ele>
        <time>2018-06-30T06:13:23.008Z</time>
      </trkpt>
      <trkpt lat="40.82154" lon="-3.817196">
        <ele>1606.21010033099</ele>
        <time>2018-06-30T06:13:31.008Z</time>
      </trkpt>
      <trkpt lat="40.821485" lon="-3.817264">
        <ele>1607</ele>
        <time>2018-06-30T06:13:40.008Z</time>
      </trkpt>
      <trkpt lat="40.821433" lon="-3.817342">
        <ele>1609</ele>
        <time>2018-06-30T06:13:50.008Z</time>
      </trkpt>
      <trkpt lat="40.821438" lon="-3.817459">
        <ele>1612</ele>
        <time>2018-06-30T06:14:02.008Z</time>
      </trkpt>
      <trkpt lat="40.821546" lon="-3.817492">
        <ele>1611</ele>
        <time>2018-06-30T06:14:15.008Z</time>
      </trkpt>
      <trkpt lat="40.821661" lon="-3.817453">
        <ele>1611</ele>
        <time>2018-06-30T06:14:20.008Z</time>
      </trkpt>
      <trkpt lat="40.821759" lon="-3.81742">
        <ele>1609</ele>
        <time>2018-06-30T06:14:26.008Z</time>
      </trkpt>
      <trkpt lat="40.821881" lon="-3.817405">
        <ele>1608.57979933802</ele>
        <time>2018-06-30T06:14:31.008Z</time>
      </trkpt>
      <trkpt lat="40.821996" lon="-3.817361">
        <ele>1607</ele>
        <time>2018-06-30T06:14:37.008Z</time>
      </trkpt>
      <trkpt lat="40.822098" lon="-3.81735">
        <ele>1605</ele>
        <time>2018-06-30T06:14:42.008Z</time>
      </trkpt>
      <trkpt lat="40.822202" lon="-3.81735">
        <ele>1605</ele>
        <time>2018-06-30T06:14:47.008Z</time>
      </trkpt>
      <trkpt lat="40.822308" lon="-3.817351">
        <ele>1605</ele>
        <time>2018-06-30T06:14:53.008Z</time>
      </trkpt>
      <trkpt lat="40.822412" lon="-3.817387">
        <ele>1605</ele>
        <time>2018-06-30T06:14:57.008Z</time>
      </trkpt>
      <trkpt lat="40.822514" lon="-3.817419">
        <ele>1604</ele>
        <time>2018-06-30T06:15:02.008Z</time>
      </trkpt>
      <trkpt lat="40.822624" lon="-3.817435">
        <ele>1604</ele>
        <time>2018-06-30T06:15:08.008Z</time>
      </trkpt>
      <trkpt lat="40.822722" lon="-3.817468">
        <ele>1606</ele>
        <time>2018-06-30T06:15:12.008Z</time>
      </trkpt>
      <trkpt lat="40.82282" lon="-3.817517">
        <ele>1606</ele>
        <time>2018-06-30T06:15:18.008Z</time>
      </trkpt>
      <trkpt lat="40.822912" lon="-3.817567">
        <ele>1606</ele>
        <time>2018-06-30T06:15:29.008Z</time>
      </trkpt>
      <trkpt lat="40.823006" lon="-3.817623">
        <ele>1608</ele>
        <time>2018-06-30T06:15:37.008Z</time>
      </trkpt>
      <trkpt lat="40.823094" lon="-3.81769">
        <ele>1608</ele>
        <time>2018-06-30T06:15:45.008Z</time>
      </trkpt>
      <trkpt lat="40.823178" lon="-3.817771">
        <ele>1609</ele>
        <time>2018-06-30T06:15:54.008Z</time>
      </trkpt>
      <trkpt lat="40.82324" lon="-3.81788">
        <ele>1611</ele>
        <time>2018-06-30T06:16:06.008Z</time>
      </trkpt>
      <trkpt lat="40.823293" lon="-3.818002">
        <ele>1611</ele>
        <time>2018-06-30T06:16:16.008Z</time>
      </trkpt>
      <trkpt lat="40.823369" lon="-3.818103">
        <ele>1613</ele>
        <time>2018-06-30T06:16:24.008Z</time>
      </trkpt>
      <trkpt lat="40.823386" lon="-3.818241">
        <ele>1615</ele>
        <time>2018-06-30T06:16:34.008Z</time>
      </trkpt>
      <trkpt lat="40.823406" lon="-3.818373">
        <ele>1616</ele>
        <time>2018-06-30T06:16:45.008Z</time>
      </trkpt>
      <trkpt lat="40.823459" lon="-3.818485">
        <ele>1618</ele>
        <time>2018-06-30T06:16:55.008Z</time>
      </trkpt>
      <trkpt lat="40.823512" lon="-3.8186">
        <ele>1619</ele>
        <time>2018-06-30T06:17:03.008Z</time>
      </trkpt>
      <trkpt lat="40.823556" lon="-3.818717">
        <ele>1619.1311137343</ele>
        <time>2018-06-30T06:17:11.008Z</time>
      </trkpt>
      <trkpt lat="40.823586" lon="-3.818827">
        <ele>1620</ele>
        <time>2018-06-30T06:17:18.008Z</time>
      </trkpt>
      <trkpt lat="40.823583" lon="-3.818945">
        <ele>1621</ele>
        <time>2018-06-30T06:17:26.008Z</time>
      </trkpt>
      <trkpt lat="40.823606" lon="-3.819055">
        <ele>1621</ele>
        <time>2018-06-30T06:17:34.008Z</time>
      </trkpt>
      <trkpt lat="40.823589" lon="-3.819133">
        <ele>1621</ele>
        <time>2018-06-30T06:17:40.008Z</time>
      </trkpt>
      <trkpt lat="40.823583" lon="-3.819233">
        <ele>1623</ele>
        <time>2018-06-30T06:17:47.008Z</time>
      </trkpt>
      <trkpt lat="40.82358" lon="-3.819298">
        <ele>1623.20204276217</ele>
        <time>2018-06-30T06:17:51.008Z</time>
      </trkpt>
      <trkpt lat="40.823617" lon="-3.819358">
        <ele>1624</ele>
        <time>2018-06-30T06:17:56.008Z</time>
      </trkpt>
      <trkpt lat="40.823631" lon="-3.819453">
        <ele>1625</ele>
        <time>2018-06-30T06:18:03.008Z</time>
      </trkpt>
      <trkpt lat="40.82366" lon="-3.819538">
        <ele>1625</ele>
        <time>2018-06-30T06:18:10.008Z</time>
      </trkpt>
      <trkpt lat="40.82367" lon="-3.819622">
        <ele>1626</ele>
        <time>2018-06-30T06:18:16.008Z</time>
      </trkpt>
      <trkpt lat="40.823657" lon="-3.819745">
        <ele>1628</ele>
        <time>2018-06-30T06:18:26.008Z</time>
      </trkpt>
      <trkpt lat="40.823676" lon="-3.819869">
        <ele>1630</ele>
        <time>2018-06-30T06:18:37.008Z</time>
      </trkpt>
      <trkpt lat="40.823644" lon="-3.819981">
        <ele>1631</ele>
        <time>2018-06-30T06:18:45.008Z</time>
      </trkpt>
      <trkpt lat="40.823642" lon="-3.820082">
        <ele>1633</ele>
        <time>2018-06-30T06:18:53.008Z</time>
      </trkpt>
      <trkpt lat="40.823624" lon="-3.820218">
        <ele>1634</ele>
        <time>2018-06-30T06:19:05.008Z</time>
      </trkpt>
      <trkpt lat="40.823638" lon="-3.820351">
        <ele>1636</ele>
        <time>2018-06-30T06:19:17.008Z</time>
      </trkpt>
      <trkpt lat="40.823633" lon="-3.820488">
        <ele>1637</ele>
        <time>2018-06-30T06:19:28.008Z</time>
      </trkpt>
      <trkpt lat="40.823639" lon="-3.82062">
        <ele>1639</ele>
        <time>2018-06-30T06:19:38.008Z</time>
      </trkpt>
      <trkpt lat="40.823641" lon="-3.820744">
        <ele>1640</ele>
        <time>2018-06-30T06:19:49.008Z</time>
      </trkpt>
      <trkpt lat="40.823661" lon="-3.82088">
        <ele>1644</ele>
        <time>2018-06-30T06:20:02.008Z</time>
      </trkpt>
      <trkpt lat="40.82362" lon="-3.820999">
        <ele>1645</ele>
        <time>2018-06-30T06:20:14.008Z</time>
      </trkpt>
      <trkpt lat="40.823613" lon="-3.821137">
        <ele>1646</ele>
        <time>2018-06-30T06:20:26.008Z</time>
      </trkpt>
      <trkpt lat="40.823596" lon="-3.821273">
        <ele>1647</ele>
        <time>2018-06-30T06:20:36.008Z</time>
      </trkpt>
      <trkpt lat="40.823592" lon="-3.821403">
        <ele>1649</ele>
        <time>2018-06-30T06:20:44.008Z</time>
      </trkpt>
      <trkpt lat="40.823586" lon="-3.821528">
        <ele>1651</ele>
        <time>2018-06-30T06:20:54.008Z</time>
      </trkpt>
      <trkpt lat="40.823588" lon="-3.821646">
        <ele>1652</ele>
        <time>2018-06-30T06:21:03.008Z</time>
      </trkpt>
      <trkpt lat="40.823593" lon="-3.82178">
        <ele>1654</ele>
        <time>2018-06-30T06:21:12.008Z</time>
      </trkpt>
      <trkpt lat="40.823601" lon="-3.821896">
        <ele>1654.20204276217</ele>
        <time>2018-06-30T06:21:21.008Z</time>
      </trkpt>
      <trkpt lat="40.82361" lon="-3.822021">
        <ele>1655</ele>
        <time>2018-06-30T06:21:30.008Z</time>
      </trkpt>
      <trkpt lat="40.823605" lon="-3.822147">
        <ele>1655</ele>
        <time>2018-06-30T06:21:38.008Z</time>
      </trkpt>
      <trkpt lat="40.823616" lon="-3.822269">
        <ele>1656</ele>
        <time>2018-06-30T06:21:46.008Z</time>
      </trkpt>
      <trkpt lat="40.823651" lon="-3.822363">
        <ele>1657</ele>
        <time>2018-06-30T06:21:52.008Z</time>
      </trkpt>
      <trkpt lat="40.823722" lon="-3.822473">
        <ele>1657.21010033099</ele>
        <time>2018-06-30T06:22:01.008Z</time>
      </trkpt>
      <trkpt lat="40.82381" lon="-3.822549">
        <ele>1658</ele>
        <time>2018-06-30T06:22:10.008Z</time>
      </trkpt>
      <trkpt lat="40.82387" lon="-3.822621">
        <ele>1659</ele>
        <time>2018-06-30T06:22:17.008Z</time>
      </trkpt>
      <trkpt lat="40.82394" lon="-3.8227">
        <ele>1660</ele>
        <time>2018-06-30T06:22:25.008Z</time>
      </trkpt>
      <trkpt lat="40.82403" lon="-3.82278">
        <ele>1660</ele>
        <time>2018-06-30T06:22:34.008Z</time>
      </trkpt>
      <trkpt lat="40.824122" lon="-3.822832">
        <ele>1660</ele>
        <time>2018-06-30T06:22:42.008Z</time>
      </trkpt>
      <trkpt lat="40.824198" lon="-3.822922">
        <ele>1660.20204276217</ele>
        <time>2018-06-30T06:22:51.008Z</time>
      </trkpt>
      <trkpt lat="40.824275" lon="-3.82301">
        <ele>1661.21010033099</ele>
        <time>2018-06-30T06:23:01.008Z</time>
      </trkpt>
      <trkpt lat="40.824365" lon="-3.823064">
        <ele>1662</ele>
        <time>2018-06-30T06:23:07.008Z</time>
      </trkpt>
      <trkpt lat="40.824453" lon="-3.823145">
        <ele>1662</ele>
        <time>2018-06-30T06:23:12.008Z</time>
      </trkpt>
      <trkpt lat="40.824552" lon="-3.823184">
        <ele>1662</ele>
        <time>2018-06-30T06:23:16.008Z</time>
      </trkpt>
      <trkpt lat="40.824648" lon="-3.823214">
        <ele>1662</ele>
        <time>2018-06-30T06:23:20.008Z</time>
      </trkpt>
      <trkpt lat="40.824752" lon="-3.823217">
        <ele>1661</ele>
        <time>2018-06-30T06:23:24.008Z</time>
      </trkpt>
      <trkpt lat="40.824844" lon="-3.823245">
        <ele>1661.21010033099</ele>
        <time>2018-06-30T06:23:31.008Z</time>
      </trkpt>
      <trkpt lat="40.824907" lon="-3.823293">
        <ele>1662</ele>
        <time>2018-06-30T06:23:40.008Z</time>
      </trkpt>
      <trkpt lat="40.824934" lon="-3.823407">
        <ele>1665</ele>
        <time>2018-06-30T06:23:53.008Z</time>
      </trkpt>
      <trkpt lat="40.824915" lon="-3.823543">
        <ele>1667</ele>
        <time>2018-06-30T06:24:10.008Z</time>
      </trkpt>
      <trkpt lat="40.824917" lon="-3.823677">
        <ele>1670</ele>
        <time>2018-06-30T06:24:24.008Z</time>
      </trkpt>
      <trkpt lat="40.824978" lon="-3.823789">
        <ele>1672</ele>
        <time>2018-06-30T06:24:36.008Z</time>
      </trkpt>
      <trkpt lat="40.82504" lon="-3.823893">
        <ele>1675</ele>
        <time>2018-06-30T06:24:47.008Z</time>
      </trkpt>
      <trkpt lat="40.825079" lon="-3.824014">
        <ele>1677</ele>
        <time>2018-06-30T06:24:59.008Z</time>
      </trkpt>
      <trkpt lat="40.825155" lon="-3.824104">
        <ele>1679</ele>
        <time>2018-06-30T06:25:10.008Z</time>
      </trkpt>
      <trkpt lat="40.825219" lon="-3.824216">
        <ele>1682</ele>
        <time>2018-06-30T06:25:22.008Z</time>
      </trkpt>
      <trkpt lat="40.825251" lon="-3.824327">
        <ele>1682.42020066198</ele>
        <time>2018-06-30T06:25:31.008Z</time>
      </trkpt>
      <trkpt lat="40.825267" lon="-3.824421">
        <ele>1684</ele>
        <time>2018-06-30T06:25:39.008Z</time>
      </trkpt>
      <trkpt lat="40.825268" lon="-3.824514">
        <ele>1686</ele>
        <time>2018-06-30T06:25:47.008Z</time>
      </trkpt>
      <trkpt lat="40.825314" lon="-3.824622">
        <ele>1687</ele>
        <time>2018-06-30T06:25:59.008Z</time>
      </trkpt>
      <trkpt lat="40.825386" lon="-3.824731">
        <ele>1689</ele>
        <time>2018-06-30T06:26:10.008Z</time>
      </trkpt>
      <trkpt lat="40.825433" lon="-3.824853">
        <ele>1692</ele>
        <time>2018-06-30T06:26:24.008Z</time>
      </trkpt>
      <trkpt lat="40.825489" lon="-3.824974">
        <ele>1694</ele>
        <time>2018-06-30T06:26:35.008Z</time>
      </trkpt>
      <trkpt lat="40.825552" lon="-3.825085">
        <ele>1695</ele>
        <time>2018-06-30T06:26:44.008Z</time>
      </trkpt>
      <trkpt lat="40.825606" lon="-3.825189">
        <ele>1697</ele>
        <time>2018-06-30T06:26:53.008Z</time>
      </trkpt>
      <trkpt lat="40.82565" lon="-3.825302">
        <ele>1699</ele>
        <time>2018-06-30T06:27:02.008Z</time>
      </trkpt>
      <trkpt lat="40.825682" lon="-3.825408">
        <ele>1699</ele>
        <time>2018-06-30T06:27:10.008Z</time>
      </trkpt>
      <trkpt lat="40.825688" lon="-3.825523">
        <ele>1701</ele>
        <time>2018-06-30T06:27:19.008Z</time>
      </trkpt>
      <trkpt lat="40.825711" lon="-3.825641">
        <ele>1703</ele>
        <time>2018-06-30T06:27:30.008Z</time>
      </trkpt>
      <trkpt lat="40.82573" lon="-3.825761">
        <ele>1707</ele>
        <time>2018-06-30T06:27:42.008Z</time>
      </trkpt>
      <trkpt lat="40.825772" lon="-3.825893">
        <ele>1709</ele>
        <time>2018-06-30T06:27:54.008Z</time>
      </trkpt>
      <trkpt lat="40.825859" lon="-3.82597">
        <ele>1710</ele>
        <time>2018-06-30T06:28:06.008Z</time>
      </trkpt>
      <trkpt lat="40.825908" lon="-3.826061">
        <ele>1711</ele>
        <time>2018-06-30T06:28:14.008Z</time>
      </trkpt>
      <trkpt lat="40.825963" lon="-3.826138">
        <ele>1714</ele>
        <time>2018-06-30T06:28:22.008Z</time>
      </trkpt>
      <trkpt lat="40.826027" lon="-3.826212">
        <ele>1714.42020066198</ele>
        <time>2018-06-30T06:28:31.008Z</time>
      </trkpt>
      <trkpt lat="40.826086" lon="-3.826315">
        <ele>1716</ele>
        <time>2018-06-30T06:28:40.008Z</time>
      </trkpt>
      <trkpt lat="40.826154" lon="-3.826353">
        <ele>1716</ele>
        <time>2018-06-30T06:28:46.008Z</time>
      </trkpt>
      <trkpt lat="40.826219" lon="-3.82638">
        <ele>1716</ele>
        <time>2018-06-30T06:28:52.008Z</time>
      </trkpt>
      <trkpt lat="40.82628" lon="-3.826406">
        <ele>1716</ele>
        <time>2018-06-30T06:28:58.008Z</time>
      </trkpt>
      <trkpt lat="40.826355" lon="-3.826422">
        <ele>1719</ele>
        <time>2018-06-30T06:29:05.008Z</time>
      </trkpt>
      <trkpt lat="40.826413" lon="-3.826484">
        <ele>1720</ele>
        <time>2018-06-30T06:29:13.008Z</time>
      </trkpt>
      <trkpt lat="40.826496" lon="-3.826542">
        <ele>1722</ele>
        <time>2018-06-30T06:29:22.008Z</time>
      </trkpt>
      <trkpt lat="40.826551" lon="-3.826598">
        <ele>1722</ele>
        <time>2018-06-30T06:29:29.008Z</time>
      </trkpt>
      <trkpt lat="40.826605" lon="-3.826666">
        <ele>1724</ele>
        <time>2018-06-30T06:29:37.008Z</time>
      </trkpt>
      <trkpt lat="40.826676" lon="-3.82674">
        <ele>1726</ele>
        <time>2018-06-30T06:29:47.008Z</time>
      </trkpt>
      <trkpt lat="40.826728" lon="-3.826814">
        <ele>1728</ele>
        <time>2018-06-30T06:29:56.008Z</time>
      </trkpt>
      <trkpt lat="40.826765" lon="-3.82689">
        <ele>1729</ele>
        <time>2018-06-30T06:30:03.008Z</time>
      </trkpt>
      <trkpt lat="40.826816" lon="-3.826974">
        <ele>1729.2622274686</ele>
        <time>2018-06-30T06:30:11.008Z</time>
      </trkpt>
      <trkpt lat="40.826867" lon="-3.827062">
        <ele>1731</ele>
        <time>2018-06-30T06:30:20.008Z</time>
      </trkpt>
      <trkpt lat="40.826905" lon="-3.827144">
        <ele>1732</ele>
        <time>2018-06-30T06:30:27.008Z</time>
      </trkpt>
      <trkpt lat="40.826946" lon="-3.82724">
        <ele>1734</ele>
        <time>2018-06-30T06:30:35.008Z</time>
      </trkpt>
      <trkpt lat="40.826981" lon="-3.827314">
        <ele>1734</ele>
        <time>2018-06-30T06:30:42.008Z</time>
      </trkpt>
      <trkpt lat="40.827022" lon="-3.827394">
        <ele>1734</ele>
        <time>2018-06-30T06:30:49.008Z</time>
      </trkpt>
      <trkpt lat="40.827056" lon="-3.827466">
        <ele>1735</ele>
        <time>2018-06-30T06:30:55.008Z</time>
      </trkpt>
      <trkpt lat="40.827093" lon="-3.827533">
        <ele>1735</ele>
        <time>2018-06-30T06:31:01.008Z</time>
      </trkpt>
      <trkpt lat="40.827128" lon="-3.827636">
        <ele>1735</ele>
        <time>2018-06-30T06:31:09.008Z</time>
      </trkpt>
      <trkpt lat="40.827181" lon="-3.827734">
        <ele>1736</ele>
        <time>2018-06-30T06:31:17.008Z</time>
      </trkpt>
      <trkpt lat="40.827228" lon="-3.827841">
        <ele>1736</ele>
        <time>2018-06-30T06:31:25.008Z</time>
      </trkpt>
      <trkpt lat="40.82727" lon="-3.827952">
        <ele>1736</ele>
        <time>2018-06-30T06:31:33.008Z</time>
      </trkpt>
      <trkpt lat="40.827314" lon="-3.828032">
        <ele>1736</ele>
        <time>2018-06-30T06:31:39.008Z</time>
      </trkpt>
      <trkpt lat="40.827348" lon="-3.8281">
        <ele>1736</ele>
        <time>2018-06-30T06:31:44.008Z</time>
      </trkpt>
      <trkpt lat="40.827392" lon="-3.828196">
        <ele>1736.20204276217</ele>
        <time>2018-06-30T06:31:51.008Z</time>
      </trkpt>
      <trkpt lat="40.827439" lon="-3.828298">
        <ele>1737</ele>
        <time>2018-06-30T06:31:59.008Z</time>
      </trkpt>
      <trkpt lat="40.827463" lon="-3.828402">
        <ele>1738</ele>
        <time>2018-06-30T06:32:06.008Z</time>
      </trkpt>
      <trkpt lat="40.8275" lon="-3.828483">
        <ele>1738</ele>
        <time>2018-06-30T06:32:12.008Z</time>
      </trkpt>
      <trkpt lat="40.827535" lon="-3.82856">
        <ele>1738</ele>
        <time>2018-06-30T06:32:18.008Z</time>
      </trkpt>
      <trkpt lat="40.827565" lon="-3.828657">
        <ele>1740</ele>
        <time>2018-06-30T06:32:34.008Z</time>
      </trkpt>
      <trkpt lat="40.827587" lon="-3.828737">
        <ele>1740.2622274686</ele>
        <time>2018-06-30T06:32:41.008Z</time>
      </trkpt>
      <trkpt lat="40.827616" lon="-3.828824">
        <ele>1742</ele>
        <time>2018-06-30T06:32:49.008Z</time>
      </trkpt>
      <trkpt lat="40.827635" lon="-3.828907">
        <ele>1743</ele>
        <time>2018-06-30T06:32:56.008Z</time>
      </trkpt>
      <trkpt lat="40.827637" lon="-3.828993">
        <ele>1745</ele>
        <time>2018-06-30T06:33:03.008Z</time>
      </trkpt>
      <trkpt lat="40.827645" lon="-3.829073">
        <ele>1745</ele>
        <time>2018-06-30T06:33:10.008Z</time>
      </trkpt>
      <trkpt lat="40.827656" lon="-3.829147">
        <ele>1747</ele>
        <time>2018-06-30T06:33:16.008Z</time>
      </trkpt>
      <trkpt lat="40.827676" lon="-3.82923">
        <ele>1749</ele>
        <time>2018-06-30T06:33:23.008Z</time>
      </trkpt>
      <trkpt lat="40.827688" lon="-3.829314">
        <ele>1749</ele>
        <time>2018-06-30T06:33:30.008Z</time>
      </trkpt>
      <trkpt lat="40.827702" lon="-3.829388">
        <ele>1751</ele>
        <time>2018-06-30T06:33:37.008Z</time>
      </trkpt>
      <trkpt lat="40.827721" lon="-3.829477">
        <ele>1753</ele>
        <time>2018-06-30T06:33:45.008Z</time>
      </trkpt>
      <trkpt lat="40.827734" lon="-3.829555">
        <ele>1754</ele>
        <time>2018-06-30T06:33:53.008Z</time>
      </trkpt>
      <trkpt lat="40.827753" lon="-3.829633">
        <ele>1754</ele>
        <time>2018-06-30T06:34:00.008Z</time>
      </trkpt>
      <trkpt lat="40.827768" lon="-3.829712">
        <ele>1757</ele>
        <time>2018-06-30T06:34:13.008Z</time>
      </trkpt>
      <trkpt lat="40.827773" lon="-3.829787">
        <ele>1757</ele>
        <time>2018-06-30T06:34:20.008Z</time>
      </trkpt>
      <trkpt lat="40.827772" lon="-3.829877">
        <ele>1759</ele>
        <time>2018-06-30T06:34:28.008Z</time>
      </trkpt>
      <trkpt lat="40.827777" lon="-3.829972">
        <ele>1761</ele>
        <time>2018-06-30T06:34:36.008Z</time>
      </trkpt>
      <trkpt lat="40.827789" lon="-3.830052">
        <ele>1763</ele>
        <time>2018-06-30T06:34:43.008Z</time>
      </trkpt>
      <trkpt lat="40.827805" lon="-3.830126">
        <ele>1763</ele>
        <time>2018-06-30T06:34:49.008Z</time>
      </trkpt>
      <trkpt lat="40.827838" lon="-3.830207">
        <ele>1764</ele>
        <time>2018-06-30T06:34:56.008Z</time>
      </trkpt>
      <trkpt lat="40.827877" lon="-3.830281">
        <ele>1764</ele>
        <time>2018-06-30T06:35:02.008Z</time>
      </trkpt>
      <trkpt lat="40.827909" lon="-3.830361">
        <ele>1764</ele>
        <time>2018-06-30T06:35:09.008Z</time>
      </trkpt>
      <trkpt lat="40.827932" lon="-3.830445">
        <ele>1766</ele>
        <time>2018-06-30T06:35:16.008Z</time>
      </trkpt>
      <trkpt lat="40.82796" lon="-3.830515">
        <ele>1767</ele>
        <time>2018-06-30T06:35:23.008Z</time>
      </trkpt>
      <trkpt lat="40.827975" lon="-3.830581">
        <ele>1767</ele>
        <time>2018-06-30T06:35:30.008Z</time>
      </trkpt>
      <trkpt lat="40.827961" lon="-3.830659">
        <ele>1768</ele>
        <time>2018-06-30T06:35:39.008Z</time>
      </trkpt>
      <trkpt lat="40.827974" lon="-3.83074">
        <ele>1773</ele>
        <time>2018-06-30T06:35:49.008Z</time>
      </trkpt>
      <trkpt lat="40.827971" lon="-3.830825">
        <ele>1773</ele>
        <time>2018-06-30T06:35:58.008Z</time>
      </trkpt>
      <trkpt lat="40.827973" lon="-3.830907">
        <ele>1775</ele>
        <time>2018-06-30T06:36:05.008Z</time>
      </trkpt>
      <trkpt lat="40.827978" lon="-3.830986">
        <ele>1777</ele>
        <time>2018-06-30T06:36:12.008Z</time>
      </trkpt>
      <trkpt lat="40.827981" lon="-3.831054">
        <ele>1777</ele>
        <time>2018-06-30T06:36:17.008Z</time>
      </trkpt>
      <trkpt lat="40.827982" lon="-3.831121">
        <ele>1779</ele>
        <time>2018-06-30T06:36:22.008Z</time>
      </trkpt>
      <trkpt lat="40.827993" lon="-3.831205">
        <ele>1779</ele>
        <time>2018-06-30T06:36:28.008Z</time>
      </trkpt>
      <trkpt lat="40.827992" lon="-3.831285">
        <ele>1779</ele>
        <time>2018-06-30T06:36:33.008Z</time>
      </trkpt>
      <trkpt lat="40.827992" lon="-3.83137">
        <ele>1779</ele>
        <time>2018-06-30T06:36:38.008Z</time>
      </trkpt>
      <trkpt lat="40.827992" lon="-3.831439">
        <ele>1779</ele>
        <time>2018-06-30T06:36:42.008Z</time>
      </trkpt>
      <trkpt lat="40.827991" lon="-3.831501">
        <ele>1779</ele>
        <time>2018-06-30T06:36:46.008Z</time>
      </trkpt>
      <trkpt lat="40.827991" lon="-3.831564">
        <ele>1779</ele>
        <time>2018-06-30T06:36:50.008Z</time>
      </trkpt>
      <trkpt lat="40.828005" lon="-3.831645">
        <ele>1779</ele>
        <time>2018-06-30T06:36:54.008Z</time>
      </trkpt>
      <trkpt lat="40.828035" lon="-3.831726">
        <ele>1779</ele>
        <time>2018-06-30T06:36:58.008Z</time>
      </trkpt>
      <trkpt lat="40.828088" lon="-3.831843">
        <ele>1777</ele>
        <time>2018-06-30T06:37:03.008Z</time>
      </trkpt>
      <trkpt lat="40.828135" lon="-3.831977">
        <ele>1777</ele>
        <time>2018-06-30T06:37:08.008Z</time>
      </trkpt>
      <trkpt lat="40.828188" lon="-3.832101">
        <ele>1777</ele>
        <time>2018-06-30T06:37:13.008Z</time>
      </trkpt>
      <trkpt lat="40.828248" lon="-3.832216">
        <ele>1777</ele>
        <time>2018-06-30T06:37:18.008Z</time>
      </trkpt>
      <trkpt lat="40.828301" lon="-3.83234">
        <ele>1777</ele>
        <time>2018-06-30T06:37:23.008Z</time>
      </trkpt>
      <trkpt lat="40.828345" lon="-3.832464">
        <ele>1777</ele>
        <time>2018-06-30T06:37:28.008Z</time>
      </trkpt>
      <trkpt lat="40.828382" lon="-3.832589">
        <ele>1776</ele>
        <time>2018-06-30T06:37:33.008Z</time>
      </trkpt>
      <trkpt lat="40.828421" lon="-3.832711">
        <ele>1776</ele>
        <time>2018-06-30T06:37:38.008Z</time>
      </trkpt>
      <trkpt lat="40.828495" lon="-3.832816">
        <ele>1776</ele>
        <time>2018-06-30T06:37:43.008Z</time>
      </trkpt>
      <trkpt lat="40.828551" lon="-3.832944">
        <ele>1776</ele>
        <time>2018-06-30T06:37:49.008Z</time>
      </trkpt>
      <trkpt lat="40.828591" lon="-3.833064">
        <ele>1775</ele>
        <time>2018-06-30T06:37:54.008Z</time>
      </trkpt>
      <trkpt lat="40.828631" lon="-3.833194">
        <ele>1775</ele>
        <time>2018-06-30T06:37:59.008Z</time>
      </trkpt>
      <trkpt lat="40.828671" lon="-3.833323">
        <ele>1775</ele>
        <time>2018-06-30T06:38:04.008Z</time>
      </trkpt>
      <trkpt lat="40.828711" lon="-3.833454">
        <ele>1775</ele>
        <time>2018-06-30T06:38:09.008Z</time>
      </trkpt>
      <trkpt lat="40.828753" lon="-3.833583">
        <ele>1775</ele>
        <time>2018-06-30T06:38:14.008Z</time>
      </trkpt>
      <trkpt lat="40.828793" lon="-3.833715">
        <ele>1775</ele>
        <time>2018-06-30T06:38:19.008Z</time>
      </trkpt>
      <trkpt lat="40.828828" lon="-3.833819">
        <ele>1774</ele>
        <time>2018-06-30T06:38:23.008Z</time>
      </trkpt>
      <trkpt lat="40.828864" lon="-3.833961">
        <ele>1774</ele>
        <time>2018-06-30T06:38:28.008Z</time>
      </trkpt>
      <trkpt lat="40.82891" lon="-3.834091">
        <ele>1774</ele>
        <time>2018-06-30T06:38:33.008Z</time>
      </trkpt>
      <trkpt lat="40.82895" lon="-3.8342">
        <ele>1774</ele>
        <time>2018-06-30T06:38:37.008Z</time>
      </trkpt>
      <trkpt lat="40.828994" lon="-3.834305">
        <ele>1774</ele>
        <time>2018-06-30T06:38:41.008Z</time>
      </trkpt>
      <trkpt lat="40.82904" lon="-3.834439">
        <ele>1774</ele>
        <time>2018-06-30T06:38:46.008Z</time>
      </trkpt>
      <trkpt lat="40.829104" lon="-3.834558">
        <ele>1773.79795723783</ele>
        <time>2018-06-30T06:38:51.008Z</time>
      </trkpt>
      <trkpt lat="40.829156" lon="-3.834674">
        <ele>1773</ele>
        <time>2018-06-30T06:38:56.008Z</time>
      </trkpt>
      <trkpt lat="40.82922" lon="-3.834795">
        <ele>1772.78989966901</ele>
        <time>2018-06-30T06:39:01.008Z</time>
      </trkpt>
      <trkpt lat="40.829287" lon="-3.834902">
        <ele>1772</ele>
        <time>2018-06-30T06:39:06.008Z</time>
      </trkpt>
      <trkpt lat="40.829358" lon="-3.835011">
        <ele>1772</ele>
        <time>2018-06-30T06:39:11.008Z</time>
      </trkpt>
      <trkpt lat="40.829425" lon="-3.835125">
        <ele>1772</ele>
        <time>2018-06-30T06:39:16.008Z</time>
      </trkpt>
      <trkpt lat="40.8295" lon="-3.835247">
        <ele>1771.79795723783</ele>
        <time>2018-06-30T06:39:21.008Z</time>
      </trkpt>
      <trkpt lat="40.829574" lon="-3.835354">
        <ele>1771</ele>
        <time>2018-06-30T06:39:26.008Z</time>
      </trkpt>
      <trkpt lat="40.829647" lon="-3.835465">
        <ele>1770.78989966901</ele>
        <time>2018-06-30T06:39:31.008Z</time>
      </trkpt>
      <trkpt lat="40.829711" lon="-3.835568">
        <ele>1770</ele>
        <time>2018-06-30T06:39:36.008Z</time>
      </trkpt>
      <trkpt lat="40.829774" lon="-3.835671">
        <ele>1769</ele>
        <time>2018-06-30T06:39:42.008Z</time>
      </trkpt>
      <trkpt lat="40.82985" lon="-3.835768">
        <ele>1769</ele>
        <time>2018-06-30T06:39:49.008Z</time>
      </trkpt>
      <trkpt lat="40.829925" lon="-3.83588">
        <ele>1770</ele>
        <time>2018-06-30T06:39:55.008Z</time>
      </trkpt>
      <trkpt lat="40.829981" lon="-3.835993">
        <ele>1770</ele>
        <time>2018-06-30T06:40:00.008Z</time>
      </trkpt>
      <trkpt lat="40.830062" lon="-3.836083">
        <ele>1770</ele>
        <time>2018-06-30T06:40:04.008Z</time>
      </trkpt>
      <trkpt lat="40.830132" lon="-3.836205">
        <ele>1770</ele>
        <time>2018-06-30T06:40:09.008Z</time>
      </trkpt>
      <trkpt lat="40.830206" lon="-3.836316">
        <ele>1771</ele>
        <time>2018-06-30T06:40:15.008Z</time>
      </trkpt>
      <trkpt lat="40.830287" lon="-3.836411">
        <ele>1771</ele>
        <time>2018-06-30T06:40:21.008Z</time>
      </trkpt>
      <trkpt lat="40.830373" lon="-3.836495">
        <ele>1771</ele>
        <time>2018-06-30T06:40:27.008Z</time>
      </trkpt>
      <trkpt lat="40.830448" lon="-3.836586">
        <ele>1770.78989966901</ele>
        <time>2018-06-30T06:40:31.008Z</time>
      </trkpt>
      <trkpt lat="40.830549" lon="-3.83667">
        <ele>1770</ele>
        <time>2018-06-30T06:40:36.008Z</time>
      </trkpt>
      <trkpt lat="40.83066" lon="-3.836727">
        <ele>1769.8688862657</ele>
        <time>2018-06-30T06:40:41.008Z</time>
      </trkpt>
      <trkpt lat="40.830756" lon="-3.836763">
        <ele>1769</ele>
        <time>2018-06-30T06:40:46.008Z</time>
      </trkpt>
      <trkpt lat="40.830863" lon="-3.836768">
        <ele>1768.59591447566</ele>
        <time>2018-06-30T06:40:51.008Z</time>
      </trkpt>
      <trkpt lat="40.830972" lon="-3.83676">
        <ele>1767</ele>
        <time>2018-06-30T06:40:56.008Z</time>
      </trkpt>
      <trkpt lat="40.831088" lon="-3.836748">
        <ele>1767.57979933802</ele>
        <time>2018-06-30T06:41:01.008Z</time>
      </trkpt>
      <trkpt lat="40.831202" lon="-3.836731">
        <ele>1766</ele>
        <time>2018-06-30T06:41:06.008Z</time>
      </trkpt>
      <trkpt lat="40.831312" lon="-3.836716">
        <ele>1765.8688862657</ele>
        <time>2018-06-30T06:41:11.008Z</time>
      </trkpt>
      <trkpt lat="40.83141" lon="-3.836695">
        <ele>1765</ele>
        <time>2018-06-30T06:41:15.008Z</time>
      </trkpt>
      <trkpt lat="40.831516" lon="-3.836665">
        <ele>1765</ele>
        <time>2018-06-30T06:41:20.008Z</time>
      </trkpt>
      <trkpt lat="40.83161" lon="-3.836628">
        <ele>1764</ele>
        <time>2018-06-30T06:41:24.008Z</time>
      </trkpt>
      <trkpt lat="40.831718" lon="-3.836656">
        <ele>1764</ele>
        <time>2018-06-30T06:41:29.008Z</time>
      </trkpt>
      <trkpt lat="40.831827" lon="-3.836646">
        <ele>1763</ele>
        <time>2018-06-30T06:41:34.008Z</time>
      </trkpt>
      <trkpt lat="40.831944" lon="-3.836627">
        <ele>1763</ele>
        <time>2018-06-30T06:41:39.008Z</time>
      </trkpt>
      <trkpt lat="40.832054" lon="-3.836606">
        <ele>1762</ele>
        <time>2018-06-30T06:41:44.008Z</time>
      </trkpt>
      <trkpt lat="40.832164" lon="-3.836587">
        <ele>1762</ele>
        <time>2018-06-30T06:41:49.008Z</time>
      </trkpt>
      <trkpt lat="40.832269" lon="-3.836558">
        <ele>1761</ele>
        <time>2018-06-30T06:41:54.008Z</time>
      </trkpt>
      <trkpt lat="40.832384" lon="-3.836534">
        <ele>1761</ele>
        <time>2018-06-30T06:42:00.008Z</time>
      </trkpt>
      <trkpt lat="40.832479" lon="-3.83658">
        <ele>1759</ele>
        <time>2018-06-30T06:42:08.008Z</time>
      </trkpt>
      <trkpt lat="40.832589" lon="-3.836606">
        <ele>1756</ele>
        <time>2018-06-30T06:42:14.008Z</time>
      </trkpt>
      <trkpt lat="40.832688" lon="-3.836567">
        <ele>1754</ele>
        <time>2018-06-30T06:42:19.008Z</time>
      </trkpt>
      <trkpt lat="40.832798" lon="-3.83659">
        <ele>1753</ele>
        <time>2018-06-30T06:42:24.008Z</time>
      </trkpt>
      <trkpt lat="40.83291" lon="-3.836611">
        <ele>1753</ele>
        <time>2018-06-30T06:42:29.008Z</time>
      </trkpt>
      <trkpt lat="40.833017" lon="-3.836606">
        <ele>1753</ele>
        <time>2018-06-30T06:42:34.008Z</time>
      </trkpt>
      <trkpt lat="40.833132" lon="-3.836589">
        <ele>1753</ele>
        <time>2018-06-30T06:42:40.008Z</time>
      </trkpt>
      <trkpt lat="40.833241" lon="-3.836563">
        <ele>1753</ele>
        <time>2018-06-30T06:42:45.008Z</time>
      </trkpt>
      <trkpt lat="40.83335" lon="-3.836529">
        <ele>1753</ele>
        <time>2018-06-30T06:42:50.008Z</time>
      </trkpt>
      <trkpt lat="40.833446" lon="-3.836491">
        <ele>1752</ele>
        <time>2018-06-30T06:42:55.008Z</time>
      </trkpt>
      <trkpt lat="40.833535" lon="-3.83642">
        <ele>1751.78989966901</ele>
        <time>2018-06-30T06:43:01.008Z</time>
      </trkpt>
      <trkpt lat="40.833629" lon="-3.836348">
        <ele>1751</ele>
        <time>2018-06-30T06:43:07.008Z</time>
      </trkpt>
      <trkpt lat="40.833725" lon="-3.836281">
        <ele>1751</ele>
        <time>2018-06-30T06:43:12.008Z</time>
      </trkpt>
      <trkpt lat="40.833811" lon="-3.836179">
        <ele>1752</ele>
        <time>2018-06-30T06:43:17.008Z</time>
      </trkpt>
      <trkpt lat="40.833907" lon="-3.836109">
        <ele>1751</ele>
        <time>2018-06-30T06:43:22.008Z</time>
      </trkpt>
      <trkpt lat="40.833989" lon="-3.83601">
        <ele>1751</ele>
        <time>2018-06-30T06:43:28.008Z</time>
      </trkpt>
      <trkpt lat="40.834087" lon="-3.835917">
        <ele>1750</ele>
        <time>2018-06-30T06:43:34.008Z</time>
      </trkpt>
      <trkpt lat="40.834162" lon="-3.835825">
        <ele>1750</ele>
        <time>2018-06-30T06:43:38.008Z</time>
      </trkpt>
      <trkpt lat="40.834255" lon="-3.835719">
        <ele>1750</ele>
        <time>2018-06-30T06:43:43.008Z</time>
      </trkpt>
      <trkpt lat="40.834342" lon="-3.835624">
        <ele>1750</ele>
        <time>2018-06-30T06:43:48.008Z</time>
      </trkpt>
      <trkpt lat="40.834426" lon="-3.835528">
        <ele>1749</ele>
        <time>2018-06-30T06:43:53.008Z</time>
      </trkpt>
      <trkpt lat="40.834497" lon="-3.835436">
        <ele>1749</ele>
        <time>2018-06-30T06:43:58.008Z</time>
      </trkpt>
      <trkpt lat="40.834597" lon="-3.835383">
        <ele>1748</ele>
        <time>2018-06-30T06:44:03.008Z</time>
      </trkpt>
      <trkpt lat="40.834694" lon="-3.835334">
        <ele>1748</ele>
        <time>2018-06-30T06:44:08.008Z</time>
      </trkpt>
      <trkpt lat="40.834814" lon="-3.835281">
        <ele>1747</ele>
        <time>2018-06-30T06:44:13.008Z</time>
      </trkpt>
      <trkpt lat="40.834906" lon="-3.835226">
        <ele>1747</ele>
        <time>2018-06-30T06:44:18.008Z</time>
      </trkpt>
      <trkpt lat="40.835023" lon="-3.835211">
        <ele>1746</ele>
        <time>2018-06-30T06:44:24.008Z</time>
      </trkpt>
      <trkpt lat="40.835123" lon="-3.835172">
        <ele>1746</ele>
        <time>2018-06-30T06:44:29.008Z</time>
      </trkpt>
      <trkpt lat="40.835228" lon="-3.835117">
        <ele>1746</ele>
        <time>2018-06-30T06:44:34.008Z</time>
      </trkpt>
      <trkpt lat="40.835337" lon="-3.835065">
        <ele>1746</ele>
        <time>2018-06-30T06:44:39.008Z</time>
      </trkpt>
      <trkpt lat="40.835443" lon="-3.835052">
        <ele>1746</ele>
        <time>2018-06-30T06:44:46.008Z</time>
      </trkpt>
      <trkpt lat="40.835556" lon="-3.835049">
        <ele>1745</ele>
        <time>2018-06-30T06:44:52.008Z</time>
      </trkpt>
      <trkpt lat="40.835661" lon="-3.835087">
        <ele>1745</ele>
        <time>2018-06-30T06:44:56.008Z</time>
      </trkpt>
      <trkpt lat="40.83576" lon="-3.835154">
        <ele>1745</ele>
        <time>2018-06-30T06:44:59.008Z</time>
      </trkpt>
      <trkpt lat="40.835861" lon="-3.835215">
        <ele>1743</ele>
        <time>2018-06-30T06:45:04.008Z</time>
      </trkpt>
      <trkpt lat="40.835953" lon="-3.835278">
        <ele>1743</ele>
        <time>2018-06-30T06:45:09.008Z</time>
      </trkpt>
      <trkpt lat="40.836021" lon="-3.835324">
        <ele>1743</ele>
        <time>2018-06-30T06:45:15.008Z</time>
      </trkpt>
      <trkpt lat="40.836078" lon="-3.835359">
        <ele>1741</ele>
        <time>2018-06-30T06:45:23.008Z</time>
      </trkpt>
      <trkpt lat="40.83612" lon="-3.835381">
        <ele>1741</ele>
        <time>2018-06-30T06:45:27.008Z</time>
      </trkpt>
      <trkpt lat="40.836164" lon="-3.835404">
        <ele>1740.78989966901</ele>
        <time>2018-06-30T06:45:31.008Z</time>
      </trkpt>
      <trkpt lat="40.836197" lon="-3.83543">
        <ele>1740</ele>
        <time>2018-06-30T06:45:35.008Z</time>
      </trkpt>
      <trkpt lat="40.836216" lon="-3.835447">
        <ele>1740</ele>
        <time>2018-06-30T06:45:46.008Z</time>
      </trkpt>
      <trkpt lat="40.836247" lon="-3.835442">
        <ele>1740</ele>
        <time>2018-06-30T06:46:17.008Z</time>
      </trkpt>
      <trkpt lat="40.836239" lon="-3.835413">
        <ele>1740</ele>
        <time>2018-06-30T06:47:12.008Z</time>
      </trkpt>
      <trkpt lat="40.83626" lon="-3.835423">
        <ele>1740</ele>
        <time>2018-06-30T06:48:15.008Z</time>
      </trkpt>
      <trkpt lat="40.836234" lon="-3.835424">
        <ele>1740</ele>
        <time>2018-06-30T06:48:29.008Z</time>
      </trkpt>
      <trkpt lat="40.83622" lon="-3.835452">
        <ele>1741</ele>
        <time>2018-06-30T06:50:13.008Z</time>
      </trkpt>
      <trkpt lat="40.836208" lon="-3.835472">
        <ele>1741</ele>
        <time>2018-06-30T06:50:15.008Z</time>
      </trkpt>
      <trkpt lat="40.836222" lon="-3.83559">
        <ele>1738.1311137343</ele>
        <time>2018-06-30T06:51:11.008Z</time>
      </trkpt>
      <trkpt lat="40.836249" lon="-3.835632">
        <ele>1739</ele>
        <time>2018-06-30T06:51:16.008Z</time>
      </trkpt>
      <trkpt lat="40.836271" lon="-3.835675">
        <ele>1739</ele>
        <time>2018-06-30T06:51:20.008Z</time>
      </trkpt>
      <trkpt lat="40.836294" lon="-3.835722">
        <ele>1739</ele>
        <time>2018-06-30T06:51:24.008Z</time>
      </trkpt>
      <trkpt lat="40.836319" lon="-3.835777">
        <ele>1739</ele>
        <time>2018-06-30T06:51:28.008Z</time>
      </trkpt>
      <trkpt lat="40.836342" lon="-3.835833">
        <ele>1739</ele>
        <time>2018-06-30T06:51:32.008Z</time>
      </trkpt>
      <trkpt lat="40.836365" lon="-3.835879">
        <ele>1739</ele>
        <time>2018-06-30T06:51:35.008Z</time>
      </trkpt>
      <trkpt lat="40.836379" lon="-3.835938">
        <ele>1739</ele>
        <time>2018-06-30T06:51:39.008Z</time>
      </trkpt>
      <trkpt lat="40.83641" lon="-3.835987">
        <ele>1738</ele>
        <time>2018-06-30T06:51:44.008Z</time>
      </trkpt>
      <trkpt lat="40.836423" lon="-3.836014">
        <ele>1738</ele>
        <time>2018-06-30T06:51:46.008Z</time>
      </trkpt>
      <trkpt lat="40.836436" lon="-3.83607">
        <ele>1738</ele>
        <time>2018-06-30T06:51:50.008Z</time>
      </trkpt>
      <trkpt lat="40.836439" lon="-3.8361">
        <ele>1737</ele>
        <time>2018-06-30T06:51:52.008Z</time>
      </trkpt>
      <trkpt lat="40.836445" lon="-3.836132">
        <ele>1737</ele>
        <time>2018-06-30T06:51:54.008Z</time>
      </trkpt>
      <trkpt lat="40.836447" lon="-3.836165">
        <ele>1737</ele>
        <time>2018-06-30T06:51:56.008Z</time>
      </trkpt>
      <trkpt lat="40.836461" lon="-3.836221">
        <ele>1737</ele>
        <time>2018-06-30T06:52:00.008Z</time>
      </trkpt>
      <trkpt lat="40.836473" lon="-3.836276">
        <ele>1735</ele>
        <time>2018-06-30T06:52:04.008Z</time>
      </trkpt>
      <trkpt lat="40.836496" lon="-3.836327">
        <ele>1735</ele>
        <time>2018-06-30T06:52:07.008Z</time>
      </trkpt>
      <trkpt lat="40.836516" lon="-3.836381">
        <ele>1735</ele>
        <time>2018-06-30T06:52:09.008Z</time>
      </trkpt>
      <trkpt lat="40.836521" lon="-3.836468">
        <ele>1735</ele>
        <time>2018-06-30T06:52:12.008Z</time>
      </trkpt>
      <trkpt lat="40.836508" lon="-3.836553">
        <ele>1735</ele>
        <time>2018-06-30T06:52:15.008Z</time>
      </trkpt>
      <trkpt lat="40.836469" lon="-3.836631">
        <ele>1735</ele>
        <time>2018-06-30T06:52:18.008Z</time>
      </trkpt>
      <trkpt lat="40.836435" lon="-3.836681">
        <ele>1735</ele>
        <time>2018-06-30T06:52:20.008Z</time>
      </trkpt>
      <trkpt lat="40.836403" lon="-3.83673">
        <ele>1735</ele>
        <time>2018-06-30T06:52:22.008Z</time>
      </trkpt>
      <trkpt lat="40.836367" lon="-3.836777">
        <ele>1735</ele>
        <time>2018-06-30T06:52:24.008Z</time>
      </trkpt>
      <trkpt lat="40.836328" lon="-3.836849">
        <ele>1735</ele>
        <time>2018-06-30T06:52:27.008Z</time>
      </trkpt>
      <trkpt lat="40.836276" lon="-3.836908">
        <ele>1735</ele>
        <time>2018-06-30T06:52:30.008Z</time>
      </trkpt>
      <trkpt lat="40.836223" lon="-3.836968">
        <ele>1735</ele>
        <time>2018-06-30T06:52:33.008Z</time>
      </trkpt>
      <trkpt lat="40.836154" lon="-3.837054">
        <ele>1735</ele>
        <time>2018-06-30T06:52:37.008Z</time>
      </trkpt>
      <trkpt lat="40.836098" lon="-3.837116">
        <ele>1735</ele>
        <time>2018-06-30T06:52:40.008Z</time>
      </trkpt>
      <trkpt lat="40.836046" lon="-3.837176">
        <ele>1735</ele>
        <time>2018-06-30T06:52:43.008Z</time>
      </trkpt>
      <trkpt lat="40.835999" lon="-3.837229">
        <ele>1735</ele>
        <time>2018-06-30T06:52:46.008Z</time>
      </trkpt>
      <trkpt lat="40.83595" lon="-3.837286">
        <ele>1735</ele>
        <time>2018-06-30T06:52:49.008Z</time>
      </trkpt>
      <trkpt lat="40.835903" lon="-3.837347">
        <ele>1733</ele>
        <time>2018-06-30T06:52:52.008Z</time>
      </trkpt>
      <trkpt lat="40.835858" lon="-3.837411">
        <ele>1733</ele>
        <time>2018-06-30T06:52:55.008Z</time>
      </trkpt>
      <trkpt lat="40.835812" lon="-3.837471">
        <ele>1733</ele>
        <time>2018-06-30T06:52:58.008Z</time>
      </trkpt>
      <trkpt lat="40.83576" lon="-3.837534">
        <ele>1732.36969900703</ele>
        <time>2018-06-30T06:53:01.008Z</time>
      </trkpt>
      <trkpt lat="40.83571" lon="-3.837593">
        <ele>1730</ele>
        <time>2018-06-30T06:53:04.008Z</time>
      </trkpt>
      <trkpt lat="40.835659" lon="-3.837654">
        <ele>1731</ele>
        <time>2018-06-30T06:53:07.008Z</time>
      </trkpt>
      <trkpt lat="40.835613" lon="-3.837719">
        <ele>1731</ele>
        <time>2018-06-30T06:53:10.008Z</time>
      </trkpt>
      <trkpt lat="40.835564" lon="-3.837784">
        <ele>1731</ele>
        <time>2018-06-30T06:53:13.008Z</time>
      </trkpt>
      <trkpt lat="40.835516" lon="-3.837844">
        <ele>1731</ele>
        <time>2018-06-30T06:53:16.008Z</time>
      </trkpt>
      <trkpt lat="40.835474" lon="-3.83791">
        <ele>1731</ele>
        <time>2018-06-30T06:53:19.008Z</time>
      </trkpt>
      <trkpt lat="40.835432" lon="-3.837977">
        <ele>1730</ele>
        <time>2018-06-30T06:53:22.008Z</time>
      </trkpt>
      <trkpt lat="40.835394" lon="-3.838059">
        <ele>1730</ele>
        <time>2018-06-30T06:53:25.008Z</time>
      </trkpt>
      <trkpt lat="40.835361" lon="-3.838142">
        <ele>1730</ele>
        <time>2018-06-30T06:53:28.008Z</time>
      </trkpt>
      <trkpt lat="40.835324" lon="-3.838253">
        <ele>1729</ele>
        <time>2018-06-30T06:53:32.008Z</time>
      </trkpt>
      <trkpt lat="40.835292" lon="-3.838365">
        <ele>1729</ele>
        <time>2018-06-30T06:53:36.008Z</time>
      </trkpt>
      <trkpt lat="40.835255" lon="-3.838506">
        <ele>1729</ele>
        <time>2018-06-30T06:53:41.008Z</time>
      </trkpt>
      <trkpt lat="40.835242" lon="-3.838591">
        <ele>1729</ele>
        <time>2018-06-30T06:53:44.008Z</time>
      </trkpt>
      <trkpt lat="40.835228" lon="-3.83872">
        <ele>1729</ele>
        <time>2018-06-30T06:53:48.008Z</time>
      </trkpt>
      <trkpt lat="40.835221" lon="-3.838847">
        <ele>1726</ele>
        <time>2018-06-30T06:53:52.008Z</time>
      </trkpt>
      <trkpt lat="40.835201" lon="-3.838975">
        <ele>1725.78627630605</ele>
        <time>2018-06-30T06:53:56.008Z</time>
      </trkpt>
      <trkpt lat="40.835197" lon="-3.839071">
        <ele>1725</ele>
        <time>2018-06-30T06:53:59.008Z</time>
      </trkpt>
      <trkpt lat="40.835196" lon="-3.83917">
        <ele>1725</ele>
        <time>2018-06-30T06:54:02.008Z</time>
      </trkpt>
      <trkpt lat="40.83519" lon="-3.839269">
        <ele>1725</ele>
        <time>2018-06-30T06:54:05.008Z</time>
      </trkpt>
      <trkpt lat="40.835175" lon="-3.839367">
        <ele>1725</ele>
        <time>2018-06-30T06:54:08.008Z</time>
      </trkpt>
      <trkpt lat="40.835149" lon="-3.839453">
        <ele>1724.8688862657</ele>
        <time>2018-06-30T06:54:11.008Z</time>
      </trkpt>
      <trkpt lat="40.835111" lon="-3.839528">
        <ele>1724</ele>
        <time>2018-06-30T06:54:14.008Z</time>
      </trkpt>
      <trkpt lat="40.835055" lon="-3.83958">
        <ele>1724</ele>
        <time>2018-06-30T06:54:17.008Z</time>
      </trkpt>
      <trkpt lat="40.834995" lon="-3.839622">
        <ele>1724</ele>
        <time>2018-06-30T06:54:20.008Z</time>
      </trkpt>
      <trkpt lat="40.834931" lon="-3.839662">
        <ele>1725</ele>
        <time>2018-06-30T06:54:23.008Z</time>
      </trkpt>
      <trkpt lat="40.834864" lon="-3.839701">
        <ele>1725</ele>
        <time>2018-06-30T06:54:26.008Z</time>
      </trkpt>
      <trkpt lat="40.834801" lon="-3.839732">
        <ele>1725</ele>
        <time>2018-06-30T06:54:29.008Z</time>
      </trkpt>
      <trkpt lat="40.834757" lon="-3.839759">
        <ele>1725</ele>
        <time>2018-06-30T06:54:31.008Z</time>
      </trkpt>
      <trkpt lat="40.834698" lon="-3.8398">
        <ele>1725</ele>
        <time>2018-06-30T06:54:34.008Z</time>
      </trkpt>
      <trkpt lat="40.834642" lon="-3.839836">
        <ele>1725</ele>
        <time>2018-06-30T06:54:37.008Z</time>
      </trkpt>
      <trkpt lat="40.834587" lon="-3.839882">
        <ele>1725</ele>
        <time>2018-06-30T06:54:40.008Z</time>
      </trkpt>
      <trkpt lat="40.834514" lon="-3.83993">
        <ele>1726</ele>
        <time>2018-06-30T06:54:44.008Z</time>
      </trkpt>
      <trkpt lat="40.834445" lon="-3.839956">
        <ele>1726</ele>
        <time>2018-06-30T06:54:47.008Z</time>
      </trkpt>
      <trkpt lat="40.834378" lon="-3.839989">
        <ele>1726</ele>
        <time>2018-06-30T06:54:50.008Z</time>
      </trkpt>
      <trkpt lat="40.834313" lon="-3.840033">
        <ele>1726</ele>
        <time>2018-06-30T06:54:53.008Z</time>
      </trkpt>
      <trkpt lat="40.834245" lon="-3.840074">
        <ele>1726</ele>
        <time>2018-06-30T06:54:56.008Z</time>
      </trkpt>
      <trkpt lat="40.834181" lon="-3.84011">
        <ele>1726</ele>
        <time>2018-06-30T06:54:59.008Z</time>
      </trkpt>
      <trkpt lat="40.8341" lon="-3.840158">
        <ele>1727</ele>
        <time>2018-06-30T06:55:03.008Z</time>
      </trkpt>
      <trkpt lat="40.834018" lon="-3.840209">
        <ele>1727</ele>
        <time>2018-06-30T06:55:07.008Z</time>
      </trkpt>
      <trkpt lat="40.833963" lon="-3.840257">
        <ele>1727</ele>
        <time>2018-06-30T06:55:10.008Z</time>
      </trkpt>
      <trkpt lat="40.833907" lon="-3.840312">
        <ele>1727</ele>
        <time>2018-06-30T06:55:13.008Z</time>
      </trkpt>
      <trkpt lat="40.83386" lon="-3.840383">
        <ele>1727</ele>
        <time>2018-06-30T06:55:16.008Z</time>
      </trkpt>
      <trkpt lat="40.833822" lon="-3.840462">
        <ele>1727</ele>
        <time>2018-06-30T06:55:19.008Z</time>
      </trkpt>
      <trkpt lat="40.833783" lon="-3.840575">
        <ele>1726</ele>
        <time>2018-06-30T06:55:23.008Z</time>
      </trkpt>
      <trkpt lat="40.833754" lon="-3.840657">
        <ele>1726</ele>
        <time>2018-06-30T06:55:26.008Z</time>
      </trkpt>
      <trkpt lat="40.83372" lon="-3.84074">
        <ele>1726</ele>
        <time>2018-06-30T06:55:29.008Z</time>
      </trkpt>
      <trkpt lat="40.833687" lon="-3.840847">
        <ele>1725</ele>
        <time>2018-06-30T06:55:33.008Z</time>
      </trkpt>
      <trkpt lat="40.833648" lon="-3.840958">
        <ele>1725</ele>
        <time>2018-06-30T06:55:37.008Z</time>
      </trkpt>
      <trkpt lat="40.833623" lon="-3.841046">
        <ele>1725</ele>
        <time>2018-06-30T06:55:40.008Z</time>
      </trkpt>
      <trkpt lat="40.833594" lon="-3.841135">
        <ele>1724</ele>
        <time>2018-06-30T06:55:43.008Z</time>
      </trkpt>
      <trkpt lat="40.833562" lon="-3.841217">
        <ele>1724</ele>
        <time>2018-06-30T06:55:46.008Z</time>
      </trkpt>
      <trkpt lat="40.833517" lon="-3.84129">
        <ele>1724</ele>
        <time>2018-06-30T06:55:49.008Z</time>
      </trkpt>
      <trkpt lat="40.833464" lon="-3.841343">
        <ele>1722</ele>
        <time>2018-06-30T06:55:52.008Z</time>
      </trkpt>
      <trkpt lat="40.833404" lon="-3.841358">
        <ele>1722</ele>
        <time>2018-06-30T06:55:55.008Z</time>
      </trkpt>
      <trkpt lat="40.833335" lon="-3.841313">
        <ele>1722</ele>
        <time>2018-06-30T06:55:59.008Z</time>
      </trkpt>
      <trkpt lat="40.833254" lon="-3.841245">
        <ele>1719</ele>
        <time>2018-06-30T06:56:03.008Z</time>
      </trkpt>
      <trkpt lat="40.833157" lon="-3.841203">
        <ele>1719</ele>
        <time>2018-06-30T06:56:07.008Z</time>
      </trkpt>
      <trkpt lat="40.833061" lon="-3.841223">
        <ele>1719</ele>
        <time>2018-06-30T06:56:11.008Z</time>
      </trkpt>
      <trkpt lat="40.83295" lon="-3.841249">
        <ele>1719</ele>
        <time>2018-06-30T06:56:16.008Z</time>
      </trkpt>
      <trkpt lat="40.832857" lon="-3.841291">
        <ele>1719</ele>
        <time>2018-06-30T06:56:20.008Z</time>
      </trkpt>
      <trkpt lat="40.832765" lon="-3.841341">
        <ele>1716</ele>
        <time>2018-06-30T06:56:24.008Z</time>
      </trkpt>
      <trkpt lat="40.832679" lon="-3.841384">
        <ele>1715</ele>
        <time>2018-06-30T06:56:28.008Z</time>
      </trkpt>
      <trkpt lat="40.832591" lon="-3.841438">
        <ele>1714</ele>
        <time>2018-06-30T06:56:32.008Z</time>
      </trkpt>
      <trkpt lat="40.8325" lon="-3.841474">
        <ele>1714</ele>
        <time>2018-06-30T06:56:36.008Z</time>
      </trkpt>
      <trkpt lat="40.832395" lon="-3.841527">
        <ele>1713.8688862657</ele>
        <time>2018-06-30T06:56:41.008Z</time>
      </trkpt>
      <trkpt lat="40.832277" lon="-3.841574">
        <ele>1713</ele>
        <time>2018-06-30T06:56:46.008Z</time>
      </trkpt>
      <trkpt lat="40.832163" lon="-3.841599">
        <ele>1712.59591447566</ele>
        <time>2018-06-30T06:56:51.008Z</time>
      </trkpt>
      <trkpt lat="40.832057" lon="-3.841618">
        <ele>1711</ele>
        <time>2018-06-30T06:56:56.008Z</time>
      </trkpt>
      <trkpt lat="40.831957" lon="-3.841626">
        <ele>1711</ele>
        <time>2018-06-30T06:57:00.008Z</time>
      </trkpt>
      <trkpt lat="40.831832" lon="-3.84166">
        <ele>1707</ele>
        <time>2018-06-30T06:57:05.008Z</time>
      </trkpt>
      <trkpt lat="40.831722" lon="-3.841696">
        <ele>1707</ele>
        <time>2018-06-30T06:57:10.008Z</time>
      </trkpt>
      <trkpt lat="40.83161" lon="-3.841715">
        <ele>1706</ele>
        <time>2018-06-30T06:57:15.008Z</time>
      </trkpt>
      <trkpt lat="40.831498" lon="-3.841748">
        <ele>1706</ele>
        <time>2018-06-30T06:57:20.008Z</time>
      </trkpt>
      <trkpt lat="40.831394" lon="-3.84175">
        <ele>1705</ele>
        <time>2018-06-30T06:57:24.008Z</time>
      </trkpt>
      <trkpt lat="40.831286" lon="-3.841768">
        <ele>1705</ele>
        <time>2018-06-30T06:57:28.008Z</time>
      </trkpt>
      <trkpt lat="40.831196" lon="-3.841828">
        <ele>1703</ele>
        <time>2018-06-30T06:57:32.008Z</time>
      </trkpt>
      <trkpt lat="40.831154" lon="-3.84193">
        <ele>1703</ele>
        <time>2018-06-30T06:57:35.008Z</time>
      </trkpt>
      <trkpt lat="40.831132" lon="-3.84204">
        <ele>1703</ele>
        <time>2018-06-30T06:57:38.008Z</time>
      </trkpt>
      <trkpt lat="40.831102" lon="-3.842134">
        <ele>1702.7377725314</ele>
        <time>2018-06-30T06:57:41.008Z</time>
      </trkpt>
      <trkpt lat="40.831062" lon="-3.842214">
        <ele>1701</ele>
        <time>2018-06-30T06:57:44.008Z</time>
      </trkpt>
      <trkpt lat="40.83101" lon="-3.842277">
        <ele>1701</ele>
        <time>2018-06-30T06:57:47.008Z</time>
      </trkpt>
      <trkpt lat="40.830948" lon="-3.842323">
        <ele>1701</ele>
        <time>2018-06-30T06:57:50.008Z</time>
      </trkpt>
      <trkpt lat="40.830872" lon="-3.842375">
        <ele>1701</ele>
        <time>2018-06-30T06:57:54.008Z</time>
      </trkpt>
      <trkpt lat="40.830792" lon="-3.842437">
        <ele>1701</ele>
        <time>2018-06-30T06:57:58.008Z</time>
      </trkpt>
      <trkpt lat="40.830702" lon="-3.842481">
        <ele>1698</ele>
        <time>2018-06-30T06:58:02.008Z</time>
      </trkpt>
      <trkpt lat="40.830602" lon="-3.842505">
        <ele>1698.21583909969</ele>
        <time>2018-06-30T06:58:06.008Z</time>
      </trkpt>
      <trkpt lat="40.830503" lon="-3.842515">
        <ele>1699</ele>
        <time>2018-06-30T06:58:10.008Z</time>
      </trkpt>
      <trkpt lat="40.830387" lon="-3.842494">
        <ele>1699</ele>
        <time>2018-06-30T06:58:15.008Z</time>
      </trkpt>
      <trkpt lat="40.830279" lon="-3.842475">
        <ele>1699</ele>
        <time>2018-06-30T06:58:19.008Z</time>
      </trkpt>
      <trkpt lat="40.830165" lon="-3.842442">
        <ele>1697</ele>
        <time>2018-06-30T06:58:23.008Z</time>
      </trkpt>
      <trkpt lat="40.830056" lon="-3.842422">
        <ele>1697</ele>
        <time>2018-06-30T06:58:27.008Z</time>
      </trkpt>
      <trkpt lat="40.829948" lon="-3.842396">
        <ele>1695</ele>
        <time>2018-06-30T06:58:32.008Z</time>
      </trkpt>
      <trkpt lat="40.82985" lon="-3.842353">
        <ele>1695</ele>
        <time>2018-06-30T06:58:36.008Z</time>
      </trkpt>
      <trkpt lat="40.829732" lon="-3.842321">
        <ele>1694.8688862657</ele>
        <time>2018-06-30T06:58:41.008Z</time>
      </trkpt>
      <trkpt lat="40.82962" lon="-3.842333">
        <ele>1694</ele>
        <time>2018-06-30T06:58:46.008Z</time>
      </trkpt>
      <trkpt lat="40.829507" lon="-3.842388">
        <ele>1693.79795723783</ele>
        <time>2018-06-30T06:58:51.008Z</time>
      </trkpt>
      <trkpt lat="40.829395" lon="-3.842387">
        <ele>1693</ele>
        <time>2018-06-30T06:58:56.008Z</time>
      </trkpt>
      <trkpt lat="40.829305" lon="-3.842302">
        <ele>1690</ele>
        <time>2018-06-30T06:59:03.008Z</time>
      </trkpt>
      <trkpt lat="40.829182" lon="-3.84228">
        <ele>1690</ele>
        <time>2018-06-30T06:59:08.008Z</time>
      </trkpt>
      <trkpt lat="40.829077" lon="-3.842288">
        <ele>1689</ele>
        <time>2018-06-30T06:59:12.008Z</time>
      </trkpt>
      <trkpt lat="40.828979" lon="-3.842318">
        <ele>1689</ele>
        <time>2018-06-30T06:59:16.008Z</time>
      </trkpt>
      <trkpt lat="40.828911" lon="-3.84234">
        <ele>1689</ele>
        <time>2018-06-30T06:59:19.008Z</time>
      </trkpt>
      <trkpt lat="40.828832" lon="-3.842386">
        <ele>1687</ele>
        <time>2018-06-30T06:59:23.008Z</time>
      </trkpt>
      <trkpt lat="40.828769" lon="-3.84243">
        <ele>1687</ele>
        <time>2018-06-30T06:59:26.008Z</time>
      </trkpt>
      <trkpt lat="40.828704" lon="-3.84247">
        <ele>1687</ele>
        <time>2018-06-30T06:59:29.008Z</time>
      </trkpt>
      <trkpt lat="40.828644" lon="-3.842516">
        <ele>1685</ele>
        <time>2018-06-30T06:59:32.008Z</time>
      </trkpt>
      <trkpt lat="40.828571" lon="-3.842604">
        <ele>1685</ele>
        <time>2018-06-30T06:59:36.008Z</time>
      </trkpt>
      <trkpt lat="40.8285" lon="-3.84269">
        <ele>1685</ele>
        <time>2018-06-30T06:59:40.008Z</time>
      </trkpt>
      <trkpt lat="40.828408" lon="-3.842793">
        <ele>1683</ele>
        <time>2018-06-30T06:59:45.008Z</time>
      </trkpt>
      <trkpt lat="40.828313" lon="-3.842893">
        <ele>1683</ele>
        <time>2018-06-30T06:59:50.008Z</time>
      </trkpt>
      <trkpt lat="40.828216" lon="-3.842984">
        <ele>1682</ele>
        <time>2018-06-30T06:59:55.008Z</time>
      </trkpt>
      <trkpt lat="40.82815" lon="-3.843088">
        <ele>1682</ele>
        <time>2018-06-30T06:59:59.008Z</time>
      </trkpt>
      <trkpt lat="40.828094" lon="-3.843162">
        <ele>1679</ele>
        <time>2018-06-30T07:00:02.008Z</time>
      </trkpt>
      <trkpt lat="40.828026" lon="-3.84324">
        <ele>1679</ele>
        <time>2018-06-30T07:00:06.008Z</time>
      </trkpt>
      <trkpt lat="40.82795" lon="-3.843314">
        <ele>1679</ele>
        <time>2018-06-30T07:00:10.008Z</time>
      </trkpt>
      <trkpt lat="40.827883" lon="-3.84339">
        <ele>1678</ele>
        <time>2018-06-30T07:00:14.008Z</time>
      </trkpt>
      <trkpt lat="40.827805" lon="-3.843466">
        <ele>1678</ele>
        <time>2018-06-30T07:00:18.008Z</time>
      </trkpt>
      <trkpt lat="40.827736" lon="-3.843538">
        <ele>1677</ele>
        <time>2018-06-30T07:00:22.008Z</time>
      </trkpt>
      <trkpt lat="40.827667" lon="-3.84361">
        <ele>1677</ele>
        <time>2018-06-30T07:00:26.008Z</time>
      </trkpt>
      <trkpt lat="40.827601" lon="-3.84365">
        <ele>1677</ele>
        <time>2018-06-30T07:00:29.008Z</time>
      </trkpt>
      <trkpt lat="40.827521" lon="-3.843678">
        <ele>1675</ele>
        <time>2018-06-30T07:00:33.008Z</time>
      </trkpt>
      <trkpt lat="40.827429" lon="-3.843714">
        <ele>1675</ele>
        <time>2018-06-30T07:00:37.008Z</time>
      </trkpt>
      <trkpt lat="40.827332" lon="-3.84373">
        <ele>1674.60665879709</ele>
        <time>2018-06-30T07:00:41.008Z</time>
      </trkpt>
      <trkpt lat="40.827238" lon="-3.843742">
        <ele>1672</ele>
        <time>2018-06-30T07:00:45.008Z</time>
      </trkpt>
      <trkpt lat="40.827143" lon="-3.843742">
        <ele>1671</ele>
        <time>2018-06-30T07:00:49.008Z</time>
      </trkpt>
      <trkpt lat="40.827023" lon="-3.843748">
        <ele>1671</ele>
        <time>2018-06-30T07:00:54.008Z</time>
      </trkpt>
      <trkpt lat="40.826917" lon="-3.843768">
        <ele>1671</ele>
        <time>2018-06-30T07:00:58.008Z</time>
      </trkpt>
      <trkpt lat="40.826834" lon="-3.843872">
        <ele>1667</ele>
        <time>2018-06-30T07:01:02.008Z</time>
      </trkpt>
      <trkpt lat="40.82681" lon="-3.844">
        <ele>1667</ele>
        <time>2018-06-30T07:01:05.008Z</time>
      </trkpt>
      <trkpt lat="40.826834" lon="-3.844139">
        <ele>1667</ele>
        <time>2018-06-30T07:01:09.008Z</time>
      </trkpt>
      <trkpt lat="40.826875" lon="-3.844296">
        <ele>1667</ele>
        <time>2018-06-30T07:01:14.008Z</time>
      </trkpt>
      <trkpt lat="40.82693" lon="-3.844431">
        <ele>1667</ele>
        <time>2018-06-30T07:01:19.008Z</time>
      </trkpt>
      <trkpt lat="40.826998" lon="-3.844557">
        <ele>1665</ele>
        <time>2018-06-30T07:01:24.008Z</time>
      </trkpt>
      <trkpt lat="40.827062" lon="-3.844671">
        <ele>1665</ele>
        <time>2018-06-30T07:01:29.008Z</time>
      </trkpt>
      <trkpt lat="40.827138" lon="-3.844776">
        <ele>1663</ele>
        <time>2018-06-30T07:01:34.008Z</time>
      </trkpt>
      <trkpt lat="40.827218" lon="-3.844881">
        <ele>1663</ele>
        <time>2018-06-30T07:01:40.008Z</time>
      </trkpt>
      <trkpt lat="40.82729" lon="-3.844986">
        <ele>1662</ele>
        <time>2018-06-30T07:01:45.008Z</time>
      </trkpt>
      <trkpt lat="40.827364" lon="-3.8451">
        <ele>1662</ele>
        <time>2018-06-30T07:01:50.008Z</time>
      </trkpt>
      <trkpt lat="40.827406" lon="-3.845192">
        <ele>1661</ele>
        <time>2018-06-30T07:01:54.008Z</time>
      </trkpt>
      <trkpt lat="40.827426" lon="-3.845298">
        <ele>1661</ele>
        <time>2018-06-30T07:01:58.008Z</time>
      </trkpt>
      <trkpt lat="40.827418" lon="-3.845409">
        <ele>1660</ele>
        <time>2018-06-30T07:02:02.008Z</time>
      </trkpt>
      <trkpt lat="40.827385" lon="-3.845523">
        <ele>1660</ele>
        <time>2018-06-30T07:02:06.008Z</time>
      </trkpt>
      <trkpt lat="40.827329" lon="-3.845619">
        <ele>1660</ele>
        <time>2018-06-30T07:02:10.008Z</time>
      </trkpt>
      <trkpt lat="40.827279" lon="-3.845678">
        <ele>1660</ele>
        <time>2018-06-30T07:02:13.008Z</time>
      </trkpt>
      <trkpt lat="40.827199" lon="-3.845737">
        <ele>1660</ele>
        <time>2018-06-30T07:02:17.008Z</time>
      </trkpt>
      <trkpt lat="40.827135" lon="-3.845774">
        <ele>1660</ele>
        <time>2018-06-30T07:02:20.008Z</time>
      </trkpt>
      <trkpt lat="40.827063" lon="-3.845801">
        <ele>1658</ele>
        <time>2018-06-30T07:02:23.008Z</time>
      </trkpt>
      <trkpt lat="40.826986" lon="-3.845814">
        <ele>1658</ele>
        <time>2018-06-30T07:02:26.008Z</time>
      </trkpt>
      <trkpt lat="40.826889" lon="-3.845827">
        <ele>1658</ele>
        <time>2018-06-30T07:02:30.008Z</time>
      </trkpt>
      <trkpt lat="40.826803" lon="-3.845854">
        <ele>1656</ele>
        <time>2018-06-30T07:02:34.008Z</time>
      </trkpt>
      <trkpt lat="40.826715" lon="-3.845886">
        <ele>1656</ele>
        <time>2018-06-30T07:02:38.008Z</time>
      </trkpt>
      <trkpt lat="40.826627" lon="-3.845933">
        <ele>1653</ele>
        <time>2018-06-30T07:02:42.008Z</time>
      </trkpt>
      <trkpt lat="40.826558" lon="-3.846022">
        <ele>1652.80181993786</ele>
        <time>2018-06-30T07:02:46.008Z</time>
      </trkpt>
      <trkpt lat="40.826549" lon="-3.846138">
        <ele>1652</ele>
        <time>2018-06-30T07:02:49.008Z</time>
      </trkpt>
      <trkpt lat="40.826587" lon="-3.846274">
        <ele>1652</ele>
        <time>2018-06-30T07:02:52.008Z</time>
      </trkpt>
      <trkpt lat="40.826659" lon="-3.846386">
        <ele>1652</ele>
        <time>2018-06-30T07:02:56.008Z</time>
      </trkpt>
      <trkpt lat="40.826736" lon="-3.846473">
        <ele>1652</ele>
        <time>2018-06-30T07:03:00.008Z</time>
      </trkpt>
      <trkpt lat="40.826816" lon="-3.846553">
        <ele>1650</ele>
        <time>2018-06-30T07:03:04.008Z</time>
      </trkpt>
      <trkpt lat="40.826913" lon="-3.846642">
        <ele>1650</ele>
        <time>2018-06-30T07:03:09.008Z</time>
      </trkpt>
      <trkpt lat="40.826995" lon="-3.846712">
        <ele>1649</ele>
        <time>2018-06-30T07:03:13.008Z</time>
      </trkpt>
      <trkpt lat="40.827074" lon="-3.846785">
        <ele>1649</ele>
        <time>2018-06-30T07:03:17.008Z</time>
      </trkpt>
      <trkpt lat="40.827172" lon="-3.846867">
        <ele>1648</ele>
        <time>2018-06-30T07:03:22.008Z</time>
      </trkpt>
      <trkpt lat="40.827262" lon="-3.846947">
        <ele>1648</ele>
        <time>2018-06-30T07:03:27.008Z</time>
      </trkpt>
      <trkpt lat="40.827357" lon="-3.847036">
        <ele>1646</ele>
        <time>2018-06-30T07:03:32.008Z</time>
      </trkpt>
      <trkpt lat="40.827453" lon="-3.847112">
        <ele>1646</ele>
        <time>2018-06-30T07:03:37.008Z</time>
      </trkpt>
      <trkpt lat="40.82754" lon="-3.847195">
        <ele>1644</ele>
        <time>2018-06-30T07:03:42.008Z</time>
      </trkpt>
      <trkpt lat="40.827631" lon="-3.847278">
        <ele>1644</ele>
        <time>2018-06-30T07:03:47.008Z</time>
      </trkpt>
      <trkpt lat="40.827717" lon="-3.847374">
        <ele>1643.79795723783</ele>
        <time>2018-06-30T07:03:51.008Z</time>
      </trkpt>
      <trkpt lat="40.827792" lon="-3.847502">
        <ele>1643</ele>
        <time>2018-06-30T07:03:56.008Z</time>
      </trkpt>
      <trkpt lat="40.827853" lon="-3.847606">
        <ele>1643</ele>
        <time>2018-06-30T07:04:00.008Z</time>
      </trkpt>
      <trkpt lat="40.827915" lon="-3.847728">
        <ele>1639</ele>
        <time>2018-06-30T07:04:05.008Z</time>
      </trkpt>
      <trkpt lat="40.827973" lon="-3.847848">
        <ele>1638</ele>
        <time>2018-06-30T07:04:10.008Z</time>
      </trkpt>
      <trkpt lat="40.828041" lon="-3.847972">
        <ele>1637</ele>
        <time>2018-06-30T07:04:15.008Z</time>
      </trkpt>
      <trkpt lat="40.828097" lon="-3.848097">
        <ele>1637</ele>
        <time>2018-06-30T07:04:19.008Z</time>
      </trkpt>
      <trkpt lat="40.828159" lon="-3.848211">
        <ele>1636</ele>
        <time>2018-06-30T07:04:23.008Z</time>
      </trkpt>
      <trkpt lat="40.82822" lon="-3.848324">
        <ele>1636</ele>
        <time>2018-06-30T07:04:27.008Z</time>
      </trkpt>
      <trkpt lat="40.828273" lon="-3.848459">
        <ele>1634</ele>
        <time>2018-06-30T07:04:32.008Z</time>
      </trkpt>
      <trkpt lat="40.828324" lon="-3.848589">
        <ele>1634</ele>
        <time>2018-06-30T07:04:37.008Z</time>
      </trkpt>
      <trkpt lat="40.828377" lon="-3.848722">
        <ele>1633</ele>
        <time>2018-06-30T07:04:42.008Z</time>
      </trkpt>
      <trkpt lat="40.828429" lon="-3.848863">
        <ele>1633</ele>
        <time>2018-06-30T07:04:47.008Z</time>
      </trkpt>
      <trkpt lat="40.828459" lon="-3.848996">
        <ele>1630</ele>
        <time>2018-06-30T07:04:52.008Z</time>
      </trkpt>
      <trkpt lat="40.828464" lon="-3.849159">
        <ele>1629</ele>
        <time>2018-06-30T07:04:57.008Z</time>
      </trkpt>
      <trkpt lat="40.828467" lon="-3.849312">
        <ele>1628</ele>
        <time>2018-06-30T07:05:02.008Z</time>
      </trkpt>
      <trkpt lat="40.82848" lon="-3.849474">
        <ele>1628</ele>
        <time>2018-06-30T07:05:07.008Z</time>
      </trkpt>
      <trkpt lat="40.828463" lon="-3.849609">
        <ele>1627.8688862657</ele>
        <time>2018-06-30T07:05:11.008Z</time>
      </trkpt>
      <trkpt lat="40.828433" lon="-3.849735">
        <ele>1627</ele>
        <time>2018-06-30T07:05:15.008Z</time>
      </trkpt>
      <trkpt lat="40.82844" lon="-3.849895">
        <ele>1627</ele>
        <time>2018-06-30T07:05:20.008Z</time>
      </trkpt>
      <trkpt lat="40.828427" lon="-3.85003">
        <ele>1626</ele>
        <time>2018-06-30T07:05:24.008Z</time>
      </trkpt>
      <trkpt lat="40.828407" lon="-3.850174">
        <ele>1626</ele>
        <time>2018-06-30T07:05:28.008Z</time>
      </trkpt>
      <trkpt lat="40.828455" lon="-3.850297">
        <ele>1625.57979933802</ele>
        <time>2018-06-30T07:05:31.008Z</time>
      </trkpt>
      <trkpt lat="40.828533" lon="-3.850394">
        <ele>1624</ele>
        <time>2018-06-30T07:05:35.008Z</time>
      </trkpt>
      <trkpt lat="40.828614" lon="-3.850475">
        <ele>1624</ele>
        <time>2018-06-30T07:05:39.008Z</time>
      </trkpt>
      <trkpt lat="40.828697" lon="-3.850555">
        <ele>1622</ele>
        <time>2018-06-30T07:05:43.008Z</time>
      </trkpt>
      <trkpt lat="40.828764" lon="-3.850636">
        <ele>1622</ele>
        <time>2018-06-30T07:05:47.008Z</time>
      </trkpt>
      <trkpt lat="40.828829" lon="-3.850725">
        <ele>1621.59591447566</ele>
        <time>2018-06-30T07:05:51.008Z</time>
      </trkpt>
      <trkpt lat="40.828883" lon="-3.850823">
        <ele>1620</ele>
        <time>2018-06-30T07:05:55.008Z</time>
      </trkpt>
      <trkpt lat="40.828913" lon="-3.850901">
        <ele>1620</ele>
        <time>2018-06-30T07:05:58.008Z</time>
      </trkpt>
      <trkpt lat="40.828923" lon="-3.850992">
        <ele>1619.36969900703</ele>
        <time>2018-06-30T07:06:01.008Z</time>
      </trkpt>
      <trkpt lat="40.828934" lon="-3.851118">
        <ele>1617</ele>
        <time>2018-06-30T07:06:05.008Z</time>
      </trkpt>
      <trkpt lat="40.828933" lon="-3.85125">
        <ele>1617</ele>
        <time>2018-06-30T07:06:09.008Z</time>
      </trkpt>
      <trkpt lat="40.828931" lon="-3.851382">
        <ele>1616</ele>
        <time>2018-06-30T07:06:13.008Z</time>
      </trkpt>
      <trkpt lat="40.828934" lon="-3.85152">
        <ele>1616</ele>
        <time>2018-06-30T07:06:17.008Z</time>
      </trkpt>
      <trkpt lat="40.828945" lon="-3.851649">
        <ele>1615.59591447566</ele>
        <time>2018-06-30T07:06:21.008Z</time>
      </trkpt>
      <trkpt lat="40.828974" lon="-3.851795">
        <ele>1614</ele>
        <time>2018-06-30T07:06:26.008Z</time>
      </trkpt>
      <trkpt lat="40.829023" lon="-3.851912">
        <ele>1614</ele>
        <time>2018-06-30T07:06:30.008Z</time>
      </trkpt>
      <trkpt lat="40.829102" lon="-3.852022">
        <ele>1612</ele>
        <time>2018-06-30T07:06:34.008Z</time>
      </trkpt>
      <trkpt lat="40.829188" lon="-3.852096">
        <ele>1612</ele>
        <time>2018-06-30T07:06:38.008Z</time>
      </trkpt>
      <trkpt lat="40.82928" lon="-3.852151">
        <ele>1611</ele>
        <time>2018-06-30T07:06:42.008Z</time>
      </trkpt>
      <trkpt lat="40.829398" lon="-3.852193">
        <ele>1611</ele>
        <time>2018-06-30T07:06:47.008Z</time>
      </trkpt>
      <trkpt lat="40.829497" lon="-3.852242">
        <ele>1610.79795723783</ele>
        <time>2018-06-30T07:06:51.008Z</time>
      </trkpt>
      <trkpt lat="40.8296" lon="-3.85227">
        <ele>1610</ele>
        <time>2018-06-30T07:06:55.008Z</time>
      </trkpt>
      <trkpt lat="40.829694" lon="-3.852297">
        <ele>1610</ele>
        <time>2018-06-30T07:06:59.008Z</time>
      </trkpt>
      <trkpt lat="40.829786" lon="-3.852312">
        <ele>1607</ele>
        <time>2018-06-30T07:07:03.008Z</time>
      </trkpt>
      <trkpt lat="40.829878" lon="-3.852355">
        <ele>1606</ele>
        <time>2018-06-30T07:07:07.008Z</time>
      </trkpt>
      <trkpt lat="40.829959" lon="-3.852419">
        <ele>1605.8688862657</ele>
        <time>2018-06-30T07:07:11.008Z</time>
      </trkpt>
      <trkpt lat="40.830039" lon="-3.852515">
        <ele>1605</ele>
        <time>2018-06-30T07:07:16.008Z</time>
      </trkpt>
      <trkpt lat="40.83012" lon="-3.852618">
        <ele>1604.79795723783</ele>
        <time>2018-06-30T07:07:21.008Z</time>
      </trkpt>
      <trkpt lat="40.830194" lon="-3.852738">
        <ele>1604</ele>
        <time>2018-06-30T07:07:26.008Z</time>
      </trkpt>
      <trkpt lat="40.830252" lon="-3.852845">
        <ele>1604</ele>
        <time>2018-06-30T07:07:30.008Z</time>
      </trkpt>
      <trkpt lat="40.830312" lon="-3.852955">
        <ele>1602</ele>
        <time>2018-06-30T07:07:34.008Z</time>
      </trkpt>
      <trkpt lat="40.830362" lon="-3.853071">
        <ele>1602</ele>
        <time>2018-06-30T07:07:38.008Z</time>
      </trkpt>
      <trkpt lat="40.830441" lon="-3.853195">
        <ele>1601</ele>
        <time>2018-06-30T07:07:43.008Z</time>
      </trkpt>
      <trkpt lat="40.830523" lon="-3.853282">
        <ele>1601</ele>
        <time>2018-06-30T07:07:47.008Z</time>
      </trkpt>
      <trkpt lat="40.830625" lon="-3.853368">
        <ele>1599</ele>
        <time>2018-06-30T07:07:52.008Z</time>
      </trkpt>
      <trkpt lat="40.830717" lon="-3.85343">
        <ele>1599</ele>
        <time>2018-06-30T07:07:56.008Z</time>
      </trkpt>
      <trkpt lat="40.830816" lon="-3.853499">
        <ele>1599</ele>
        <time>2018-06-30T07:08:00.008Z</time>
      </trkpt>
      <trkpt lat="40.830903" lon="-3.853566">
        <ele>1595</ele>
        <time>2018-06-30T07:08:04.008Z</time>
      </trkpt>
      <trkpt lat="40.830992" lon="-3.853634">
        <ele>1597</ele>
        <time>2018-06-30T07:08:08.008Z</time>
      </trkpt>
      <trkpt lat="40.831084" lon="-3.853704">
        <ele>1597</ele>
        <time>2018-06-30T07:08:12.008Z</time>
      </trkpt>
      <trkpt lat="40.831166" lon="-3.853773">
        <ele>1597</ele>
        <time>2018-06-30T07:08:16.008Z</time>
      </trkpt>
      <trkpt lat="40.831242" lon="-3.853842">
        <ele>1597</ele>
        <time>2018-06-30T07:08:20.008Z</time>
      </trkpt>
      <trkpt lat="40.831324" lon="-3.853945">
        <ele>1595</ele>
        <time>2018-06-30T07:08:25.008Z</time>
      </trkpt>
      <trkpt lat="40.831392" lon="-3.854039">
        <ele>1595</ele>
        <time>2018-06-30T07:08:29.008Z</time>
      </trkpt>
      <trkpt lat="40.831448" lon="-3.854139">
        <ele>1593</ele>
        <time>2018-06-30T07:08:33.008Z</time>
      </trkpt>
      <trkpt lat="40.831466" lon="-3.854256">
        <ele>1593</ele>
        <time>2018-06-30T07:08:37.008Z</time>
      </trkpt>
      <trkpt lat="40.831437" lon="-3.854384">
        <ele>1592.8688862657</ele>
        <time>2018-06-30T07:08:41.008Z</time>
      </trkpt>
      <trkpt lat="40.831387" lon="-3.854491">
        <ele>1592</ele>
        <time>2018-06-30T07:08:45.008Z</time>
      </trkpt>
      <trkpt lat="40.831311" lon="-3.854581">
        <ele>1592</ele>
        <time>2018-06-30T07:08:49.008Z</time>
      </trkpt>
      <trkpt lat="40.831235" lon="-3.854654">
        <ele>1590</ele>
        <time>2018-06-30T07:08:53.008Z</time>
      </trkpt>
      <trkpt lat="40.831154" lon="-3.854729">
        <ele>1590</ele>
        <time>2018-06-30T07:08:57.008Z</time>
      </trkpt>
      <trkpt lat="40.831097" lon="-3.854839">
        <ele>1589.36969900703</ele>
        <time>2018-06-30T07:09:01.008Z</time>
      </trkpt>
      <trkpt lat="40.831096" lon="-3.85495">
        <ele>1587</ele>
        <time>2018-06-30T07:09:04.008Z</time>
      </trkpt>
      <trkpt lat="40.831162" lon="-3.855087">
        <ele>1587</ele>
        <time>2018-06-30T07:09:08.008Z</time>
      </trkpt>
      <trkpt lat="40.831241" lon="-3.855205">
        <ele>1586</ele>
        <time>2018-06-30T07:09:13.008Z</time>
      </trkpt>
      <trkpt lat="40.831296" lon="-3.855327">
        <ele>1586</ele>
        <time>2018-06-30T07:09:17.008Z</time>
      </trkpt>
      <trkpt lat="40.831323" lon="-3.855455">
        <ele>1585.79795723783</ele>
        <time>2018-06-30T07:09:21.008Z</time>
      </trkpt>
      <trkpt lat="40.83133" lon="-3.855586">
        <ele>1585</ele>
        <time>2018-06-30T07:09:25.008Z</time>
      </trkpt>
      <trkpt lat="40.831339" lon="-3.855721">
        <ele>1585</ele>
        <time>2018-06-30T07:09:29.008Z</time>
      </trkpt>
      <trkpt lat="40.831395" lon="-3.855842">
        <ele>1585</ele>
        <time>2018-06-30T07:09:33.008Z</time>
      </trkpt>
      <trkpt lat="40.831444" lon="-3.855918">
        <ele>1585</ele>
        <time>2018-06-30T07:09:36.008Z</time>
      </trkpt>
      <trkpt lat="40.831504" lon="-3.856023">
        <ele>1585</ele>
        <time>2018-06-30T07:09:40.008Z</time>
      </trkpt>
      <trkpt lat="40.831558" lon="-3.856135">
        <ele>1584</ele>
        <time>2018-06-30T07:09:44.008Z</time>
      </trkpt>
      <trkpt lat="40.831613" lon="-3.856204">
        <ele>1584</ele>
        <time>2018-06-30T07:09:47.008Z</time>
      </trkpt>
      <trkpt lat="40.831691" lon="-3.856272">
        <ele>1583.59591447566</ele>
        <time>2018-06-30T07:09:51.008Z</time>
      </trkpt>
      <trkpt lat="40.831777" lon="-3.856322">
        <ele>1582</ele>
        <time>2018-06-30T07:09:55.008Z</time>
      </trkpt>
      <trkpt lat="40.831884" lon="-3.856365">
        <ele>1582</ele>
        <time>2018-06-30T07:10:00.008Z</time>
      </trkpt>
      <trkpt lat="40.831987" lon="-3.8564">
        <ele>1580</ele>
        <time>2018-06-30T07:10:05.008Z</time>
      </trkpt>
      <trkpt lat="40.832107" lon="-3.856423">
        <ele>1580</ele>
        <time>2018-06-30T07:10:10.008Z</time>
      </trkpt>
      <trkpt lat="40.832216" lon="-3.856433">
        <ele>1580</ele>
        <time>2018-06-30T07:10:14.008Z</time>
      </trkpt>
      <trkpt lat="40.83232" lon="-3.856439">
        <ele>1580</ele>
        <time>2018-06-30T07:10:18.008Z</time>
      </trkpt>
      <trkpt lat="40.832426" lon="-3.856447">
        <ele>1578</ele>
        <time>2018-06-30T07:10:22.008Z</time>
      </trkpt>
      <trkpt lat="40.832545" lon="-3.856478">
        <ele>1578</ele>
        <time>2018-06-30T07:10:27.008Z</time>
      </trkpt>
      <trkpt lat="40.83266" lon="-3.856529">
        <ele>1577</ele>
        <time>2018-06-30T07:10:32.008Z</time>
      </trkpt>
      <trkpt lat="40.832739" lon="-3.856574">
        <ele>1577</ele>
        <time>2018-06-30T07:10:36.008Z</time>
      </trkpt>
      <trkpt lat="40.832837" lon="-3.856644">
        <ele>1576.7377725314</ele>
        <time>2018-06-30T07:10:41.008Z</time>
      </trkpt>
      <trkpt lat="40.832929" lon="-3.856695">
        <ele>1575</ele>
        <time>2018-06-30T07:10:45.008Z</time>
      </trkpt>
      <trkpt lat="40.833035" lon="-3.856755">
        <ele>1575</ele>
        <time>2018-06-30T07:10:50.008Z</time>
      </trkpt>
      <trkpt lat="40.833142" lon="-3.856836">
        <ele>1573</ele>
        <time>2018-06-30T07:10:55.008Z</time>
      </trkpt>
      <trkpt lat="40.833248" lon="-3.856914">
        <ele>1573</ele>
        <time>2018-06-30T07:10:59.008Z</time>
      </trkpt>
      <trkpt lat="40.833332" lon="-3.857006">
        <ele>1571</ele>
        <time>2018-06-30T07:11:02.008Z</time>
      </trkpt>
      <trkpt lat="40.833432" lon="-3.85709">
        <ele>1571</ele>
        <time>2018-06-30T07:11:07.008Z</time>
      </trkpt>
      <trkpt lat="40.83353" lon="-3.857175">
        <ele>1570.8688862657</ele>
        <time>2018-06-30T07:11:11.008Z</time>
      </trkpt>
      <trkpt lat="40.833628" lon="-3.85724">
        <ele>1570</ele>
        <time>2018-06-30T07:11:15.008Z</time>
      </trkpt>
      <trkpt lat="40.83372" lon="-3.857297">
        <ele>1570</ele>
        <time>2018-06-30T07:11:19.008Z</time>
      </trkpt>
      <trkpt lat="40.833811" lon="-3.857347">
        <ele>1569</ele>
        <time>2018-06-30T07:11:23.008Z</time>
      </trkpt>
      <trkpt lat="40.833904" lon="-3.857391">
        <ele>1569</ele>
        <time>2018-06-30T07:11:27.008Z</time>
      </trkpt>
      <trkpt lat="40.833994" lon="-3.857447">
        <ele>1568.78989966901</ele>
        <time>2018-06-30T07:11:31.008Z</time>
      </trkpt>
      <trkpt lat="40.834064" lon="-3.857522">
        <ele>1568</ele>
        <time>2018-06-30T07:11:35.008Z</time>
      </trkpt>
      <trkpt lat="40.834126" lon="-3.857579">
        <ele>1568</ele>
        <time>2018-06-30T07:11:38.008Z</time>
      </trkpt>
      <trkpt lat="40.834184" lon="-3.857637">
        <ele>1568</ele>
        <time>2018-06-30T07:11:41.008Z</time>
      </trkpt>
      <trkpt lat="40.834248" lon="-3.857684">
        <ele>1568</ele>
        <time>2018-06-30T07:11:44.008Z</time>
      </trkpt>
      <trkpt lat="40.834328" lon="-3.857752">
        <ele>1568</ele>
        <time>2018-06-30T07:11:48.008Z</time>
      </trkpt>
      <trkpt lat="40.834398" lon="-3.857781">
        <ele>1567.39387171349</ele>
        <time>2018-06-30T07:11:51.008Z</time>
      </trkpt>
      <trkpt lat="40.834475" lon="-3.857801">
        <ele>1565</ele>
        <time>2018-06-30T07:11:54.008Z</time>
      </trkpt>
      <trkpt lat="40.834552" lon="-3.857819">
        <ele>1563</ele>
        <time>2018-06-30T07:11:57.008Z</time>
      </trkpt>
      <trkpt lat="40.834628" lon="-3.857833">
        <ele>1563</ele>
        <time>2018-06-30T07:12:00.008Z</time>
      </trkpt>
      <trkpt lat="40.834705" lon="-3.857842">
        <ele>1561</ele>
        <time>2018-06-30T07:12:03.008Z</time>
      </trkpt>
      <trkpt lat="40.834781" lon="-3.857843">
        <ele>1561</ele>
        <time>2018-06-30T07:12:06.008Z</time>
      </trkpt>
      <trkpt lat="40.834858" lon="-3.857826">
        <ele>1561</ele>
        <time>2018-06-30T07:12:09.008Z</time>
      </trkpt>
      <trkpt lat="40.83493" lon="-3.857786">
        <ele>1560</ele>
        <time>2018-06-30T07:12:12.008Z</time>
      </trkpt>
      <trkpt lat="40.834994" lon="-3.857722">
        <ele>1560</ele>
        <time>2018-06-30T07:12:15.008Z</time>
      </trkpt>
      <trkpt lat="40.835046" lon="-3.857638">
        <ele>1560</ele>
        <time>2018-06-30T07:12:18.008Z</time>
      </trkpt>
      <trkpt lat="40.835086" lon="-3.857547">
        <ele>1559.79795723783</ele>
        <time>2018-06-30T07:12:21.008Z</time>
      </trkpt>
      <trkpt lat="40.835113" lon="-3.857456">
        <ele>1559</ele>
        <time>2018-06-30T07:12:24.008Z</time>
      </trkpt>
      <trkpt lat="40.835142" lon="-3.857364">
        <ele>1559</ele>
        <time>2018-06-30T07:12:27.008Z</time>
      </trkpt>
      <trkpt lat="40.835161" lon="-3.857265">
        <ele>1559</ele>
        <time>2018-06-30T07:12:30.008Z</time>
      </trkpt>
      <trkpt lat="40.835173" lon="-3.857162">
        <ele>1557</ele>
        <time>2018-06-30T07:12:33.008Z</time>
      </trkpt>
      <trkpt lat="40.835179" lon="-3.857058">
        <ele>1557</ele>
        <time>2018-06-30T07:12:36.008Z</time>
      </trkpt>
      <trkpt lat="40.835199" lon="-3.856959">
        <ele>1557</ele>
        <time>2018-06-30T07:12:39.008Z</time>
      </trkpt>
      <trkpt lat="40.835231" lon="-3.856835">
        <ele>1555</ele>
        <time>2018-06-30T07:12:43.008Z</time>
      </trkpt>
      <trkpt lat="40.835264" lon="-3.856759">
        <ele>1555</ele>
        <time>2018-06-30T07:12:46.008Z</time>
      </trkpt>
      <trkpt lat="40.835313" lon="-3.856694">
        <ele>1555</ele>
        <time>2018-06-30T07:12:49.008Z</time>
      </trkpt>
      <trkpt lat="40.835371" lon="-3.856641">
        <ele>1552</ele>
        <time>2018-06-30T07:12:52.008Z</time>
      </trkpt>
      <trkpt lat="40.835438" lon="-3.856608">
        <ele>1552</ele>
        <time>2018-06-30T07:12:55.008Z</time>
      </trkpt>
      <trkpt lat="40.835508" lon="-3.856587">
        <ele>1550</ele>
        <time>2018-06-30T07:12:58.008Z</time>
      </trkpt>
      <trkpt lat="40.835582" lon="-3.856578">
        <ele>1549.57979933802</ele>
        <time>2018-06-30T07:13:01.008Z</time>
      </trkpt>
      <trkpt lat="40.835656" lon="-3.856571">
        <ele>1548</ele>
        <time>2018-06-30T07:13:04.008Z</time>
      </trkpt>
      <trkpt lat="40.835729" lon="-3.856569">
        <ele>1548</ele>
        <time>2018-06-30T07:13:07.008Z</time>
      </trkpt>
      <trkpt lat="40.835802" lon="-3.856572">
        <ele>1548</ele>
        <time>2018-06-30T07:13:10.008Z</time>
      </trkpt>
      <trkpt lat="40.835873" lon="-3.856579">
        <ele>1547</ele>
        <time>2018-06-30T07:13:13.008Z</time>
      </trkpt>
      <trkpt lat="40.835943" lon="-3.85659">
        <ele>1547</ele>
        <time>2018-06-30T07:13:16.008Z</time>
      </trkpt>
      <trkpt lat="40.836014" lon="-3.856602">
        <ele>1547</ele>
        <time>2018-06-30T07:13:19.008Z</time>
      </trkpt>
      <trkpt lat="40.836084" lon="-3.856618">
        <ele>1547</ele>
        <time>2018-06-30T07:13:22.008Z</time>
      </trkpt>
      <trkpt lat="40.836153" lon="-3.85663">
        <ele>1547</ele>
        <time>2018-06-30T07:13:25.008Z</time>
      </trkpt>
      <trkpt lat="40.836223" lon="-3.856649">
        <ele>1547</ele>
        <time>2018-06-30T07:13:28.008Z</time>
      </trkpt>
      <trkpt lat="40.836294" lon="-3.856673">
        <ele>1546.57979933802</ele>
        <time>2018-06-30T07:13:31.008Z</time>
      </trkpt>
      <trkpt lat="40.836363" lon="-3.856698">
        <ele>1545</ele>
        <time>2018-06-30T07:13:34.008Z</time>
      </trkpt>
      <trkpt lat="40.83643" lon="-3.856727">
        <ele>1545</ele>
        <time>2018-06-30T07:13:37.008Z</time>
      </trkpt>
      <trkpt lat="40.836495" lon="-3.856762">
        <ele>1545</ele>
        <time>2018-06-30T07:13:40.008Z</time>
      </trkpt>
      <trkpt lat="40.836559" lon="-3.856796">
        <ele>1542</ele>
        <time>2018-06-30T07:13:43.008Z</time>
      </trkpt>
      <trkpt lat="40.836623" lon="-3.856835">
        <ele>1541.80181993786</ele>
        <time>2018-06-30T07:13:46.008Z</time>
      </trkpt>
      <trkpt lat="40.836684" lon="-3.856883">
        <ele>1541</ele>
        <time>2018-06-30T07:13:49.008Z</time>
      </trkpt>
      <trkpt lat="40.836739" lon="-3.856935">
        <ele>1541</ele>
        <time>2018-06-30T07:13:52.008Z</time>
      </trkpt>
      <trkpt lat="40.83679" lon="-3.856996">
        <ele>1541</ele>
        <time>2018-06-30T07:13:55.008Z</time>
      </trkpt>
      <trkpt lat="40.836851" lon="-3.857079">
        <ele>1541</ele>
        <time>2018-06-30T07:13:59.008Z</time>
      </trkpt>
      <trkpt lat="40.836885" lon="-3.857187">
        <ele>1539</ele>
        <time>2018-06-30T07:14:03.008Z</time>
      </trkpt>
      <trkpt lat="40.836884" lon="-3.857271">
        <ele>1539</ele>
        <time>2018-06-30T07:14:06.008Z</time>
      </trkpt>
      <trkpt lat="40.836863" lon="-3.857331">
        <ele>1539</ele>
        <time>2018-06-30T07:14:08.008Z</time>
      </trkpt>
      <trkpt lat="40.836824" lon="-3.857408">
        <ele>1539</ele>
        <time>2018-06-30T07:14:11.008Z</time>
      </trkpt>
      <trkpt lat="40.83678" lon="-3.857483">
        <ele>1538.78627630605</ele>
        <time>2018-06-30T07:14:14.008Z</time>
      </trkpt>
      <trkpt lat="40.836734" lon="-3.857558">
        <ele>1538</ele>
        <time>2018-06-30T07:14:17.008Z</time>
      </trkpt>
      <trkpt lat="40.836691" lon="-3.857636">
        <ele>1538</ele>
        <time>2018-06-30T07:14:20.008Z</time>
      </trkpt>
      <trkpt lat="40.836651" lon="-3.857724">
        <ele>1535</ele>
        <time>2018-06-30T07:14:23.008Z</time>
      </trkpt>
      <trkpt lat="40.836615" lon="-3.857811">
        <ele>1534.57255261209</ele>
        <time>2018-06-30T07:14:26.008Z</time>
      </trkpt>
      <trkpt lat="40.836586" lon="-3.857906">
        <ele>1533</ele>
        <time>2018-06-30T07:14:29.008Z</time>
      </trkpt>
      <trkpt lat="40.836575" lon="-3.858011">
        <ele>1532</ele>
        <time>2018-06-30T07:14:32.008Z</time>
      </trkpt>
      <trkpt lat="40.83658" lon="-3.858085">
        <ele>1532</ele>
        <time>2018-06-30T07:14:34.008Z</time>
      </trkpt>
      <trkpt lat="40.836605" lon="-3.858186">
        <ele>1532</ele>
        <time>2018-06-30T07:14:37.008Z</time>
      </trkpt>
      <trkpt lat="40.836648" lon="-3.858271">
        <ele>1532</ele>
        <time>2018-06-30T07:14:40.008Z</time>
      </trkpt>
      <trkpt lat="40.836695" lon="-3.858351">
        <ele>1532</ele>
        <time>2018-06-30T07:14:43.008Z</time>
      </trkpt>
      <trkpt lat="40.836766" lon="-3.858429">
        <ele>1532</ele>
        <time>2018-06-30T07:14:47.008Z</time>
      </trkpt>
      <trkpt lat="40.836838" lon="-3.858511">
        <ele>1531.79795723783</ele>
        <time>2018-06-30T07:14:51.008Z</time>
      </trkpt>
      <trkpt lat="40.836909" lon="-3.858579">
        <ele>1531</ele>
        <time>2018-06-30T07:14:55.008Z</time>
      </trkpt>
      <trkpt lat="40.836985" lon="-3.858637">
        <ele>1531</ele>
        <time>2018-06-30T07:14:59.008Z</time>
      </trkpt>
      <trkpt lat="40.837076" lon="-3.85872">
        <ele>1527</ele>
        <time>2018-06-30T07:15:04.008Z</time>
      </trkpt>
      <trkpt lat="40.837143" lon="-3.858806">
        <ele>1526</ele>
        <time>2018-06-30T07:15:08.008Z</time>
      </trkpt>
      <trkpt lat="40.837187" lon="-3.858925">
        <ele>1525</ele>
        <time>2018-06-30T07:15:12.008Z</time>
      </trkpt>
      <trkpt lat="40.837209" lon="-3.859065">
        <ele>1525</ele>
        <time>2018-06-30T07:15:16.008Z</time>
      </trkpt>
      <trkpt lat="40.837229" lon="-3.8592">
        <ele>1525</ele>
        <time>2018-06-30T07:15:20.008Z</time>
      </trkpt>
      <trkpt lat="40.837265" lon="-3.859339">
        <ele>1523</ele>
        <time>2018-06-30T07:15:25.008Z</time>
      </trkpt>
      <trkpt lat="40.837317" lon="-3.859473">
        <ele>1523</ele>
        <time>2018-06-30T07:15:30.008Z</time>
      </trkpt>
      <trkpt lat="40.837372" lon="-3.859598">
        <ele>1522</ele>
        <time>2018-06-30T07:15:34.008Z</time>
      </trkpt>
      <trkpt lat="40.837422" lon="-3.859724">
        <ele>1522</ele>
        <time>2018-06-30T07:15:38.008Z</time>
      </trkpt>
      <trkpt lat="40.837455" lon="-3.859833">
        <ele>1520</ele>
        <time>2018-06-30T07:15:42.008Z</time>
      </trkpt>
      <trkpt lat="40.837502" lon="-3.859927">
        <ele>1521</ele>
        <time>2018-06-30T07:15:46.008Z</time>
      </trkpt>
      <trkpt lat="40.837569" lon="-3.860045">
        <ele>1521</ele>
        <time>2018-06-30T07:15:50.008Z</time>
      </trkpt>
      <trkpt lat="40.837654" lon="-3.860124">
        <ele>1519</ele>
        <time>2018-06-30T07:15:55.008Z</time>
      </trkpt>
      <trkpt lat="40.837747" lon="-3.860216">
        <ele>1519</ele>
        <time>2018-06-30T07:16:00.008Z</time>
      </trkpt>
      <trkpt lat="40.837848" lon="-3.860289">
        <ele>1516</ele>
        <time>2018-06-30T07:16:05.008Z</time>
      </trkpt>
      <trkpt lat="40.837936" lon="-3.860362">
        <ele>1516</ele>
        <time>2018-06-30T07:16:10.008Z</time>
      </trkpt>
      <trkpt lat="40.838036" lon="-3.860421">
        <ele>1516</ele>
        <time>2018-06-30T07:16:15.008Z</time>
      </trkpt>
      <trkpt lat="40.838132" lon="-3.860505">
        <ele>1516</ele>
        <time>2018-06-30T07:16:20.008Z</time>
      </trkpt>
      <trkpt lat="40.838227" lon="-3.860581">
        <ele>1514</ele>
        <time>2018-06-30T07:16:25.008Z</time>
      </trkpt>
      <trkpt lat="40.838314" lon="-3.860646">
        <ele>1514</ele>
        <time>2018-06-30T07:16:29.008Z</time>
      </trkpt>
      <trkpt lat="40.838408" lon="-3.860696">
        <ele>1513</ele>
        <time>2018-06-30T07:16:33.008Z</time>
      </trkpt>
      <trkpt lat="40.838512" lon="-3.860713">
        <ele>1513</ele>
        <time>2018-06-30T07:16:39.008Z</time>
      </trkpt>
      <trkpt lat="40.838608" lon="-3.860731">
        <ele>1513</ele>
        <time>2018-06-30T07:16:46.008Z</time>
      </trkpt>
      <trkpt lat="40.838708" lon="-3.860773">
        <ele>1513.40408552434</ele>
        <time>2018-06-30T07:16:51.008Z</time>
      </trkpt>
      <trkpt lat="40.838784" lon="-3.860841">
        <ele>1515</ele>
        <time>2018-06-30T07:16:56.008Z</time>
      </trkpt>
      <trkpt lat="40.838857" lon="-3.860892">
        <ele>1515</ele>
        <time>2018-06-30T07:17:02.008Z</time>
      </trkpt>
      <trkpt lat="40.838917" lon="-3.86095">
        <ele>1517</ele>
        <time>2018-06-30T07:17:12.008Z</time>
      </trkpt>
      <trkpt lat="40.838983" lon="-3.861037">
        <ele>1517</ele>
        <time>2018-06-30T07:17:20.008Z</time>
      </trkpt>
      <trkpt lat="40.839028" lon="-3.86115">
        <ele>1518</ele>
        <time>2018-06-30T07:17:27.008Z</time>
      </trkpt>
      <trkpt lat="40.839068" lon="-3.861265">
        <ele>1518</ele>
        <time>2018-06-30T07:17:33.008Z</time>
      </trkpt>
      <trkpt lat="40.839104" lon="-3.861368">
        <ele>1518</ele>
        <time>2018-06-30T07:17:38.008Z</time>
      </trkpt>
      <trkpt lat="40.839173" lon="-3.861457">
        <ele>1518</ele>
        <time>2018-06-30T07:17:46.008Z</time>
      </trkpt>
      <trkpt lat="40.839242" lon="-3.86156">
        <ele>1518</ele>
        <time>2018-06-30T07:17:55.008Z</time>
      </trkpt>
      <trkpt lat="40.839328" lon="-3.861586">
        <ele>1518</ele>
        <time>2018-06-30T07:18:01.008Z</time>
      </trkpt>
      <trkpt lat="40.839403" lon="-3.861615">
        <ele>1518</ele>
        <time>2018-06-30T07:18:06.008Z</time>
      </trkpt>
      <trkpt lat="40.83946" lon="-3.861675">
        <ele>1518</ele>
        <time>2018-06-30T07:18:10.008Z</time>
      </trkpt>
      <trkpt lat="40.839508" lon="-3.861736">
        <ele>1519</ele>
        <time>2018-06-30T07:18:14.008Z</time>
      </trkpt>
      <trkpt lat="40.83956" lon="-3.861777">
        <ele>1519</ele>
        <time>2018-06-30T07:18:18.008Z</time>
      </trkpt>
      <trkpt lat="40.839625" lon="-3.861813">
        <ele>1520</ele>
        <time>2018-06-30T07:18:23.008Z</time>
      </trkpt>
      <trkpt lat="40.839683" lon="-3.861889">
        <ele>1520</ele>
        <time>2018-06-30T07:18:29.008Z</time>
      </trkpt>
      <trkpt lat="40.839729" lon="-3.861949">
        <ele>1520</ele>
        <time>2018-06-30T07:18:34.008Z</time>
      </trkpt>
      <trkpt lat="40.839801" lon="-3.862015">
        <ele>1520</ele>
        <time>2018-06-30T07:18:42.008Z</time>
      </trkpt>
      <trkpt lat="40.83985" lon="-3.862092">
        <ele>1520</ele>
        <time>2018-06-30T07:18:47.008Z</time>
      </trkpt>
      <trkpt lat="40.839899" lon="-3.862173">
        <ele>1520</ele>
        <time>2018-06-30T07:18:52.008Z</time>
      </trkpt>
      <trkpt lat="40.839954" lon="-3.862261">
        <ele>1520</ele>
        <time>2018-06-30T07:18:58.008Z</time>
      </trkpt>
      <trkpt lat="40.840006" lon="-3.862368">
        <ele>1519</ele>
        <time>2018-06-30T07:19:06.008Z</time>
      </trkpt>
      <trkpt lat="40.840078" lon="-3.862463">
        <ele>1521</ele>
        <time>2018-06-30T07:19:16.008Z</time>
      </trkpt>
      <trkpt lat="40.840146" lon="-3.862578">
        <ele>1523</ele>
        <time>2018-06-30T07:19:26.008Z</time>
      </trkpt>
      <trkpt lat="40.840222" lon="-3.862672">
        <ele>1523</ele>
        <time>2018-06-30T07:19:33.008Z</time>
      </trkpt>
      <trkpt lat="40.840301" lon="-3.862768">
        <ele>1523</ele>
        <time>2018-06-30T07:19:43.008Z</time>
      </trkpt>
      <trkpt lat="40.840356" lon="-3.862886">
        <ele>1525</ele>
        <time>2018-06-30T07:19:53.008Z</time>
      </trkpt>
      <trkpt lat="40.84041" lon="-3.863004">
        <ele>1526</ele>
        <time>2018-06-30T07:20:03.008Z</time>
      </trkpt>
      <trkpt lat="40.84047" lon="-3.863122">
        <ele>1526</ele>
        <time>2018-06-30T07:20:10.008Z</time>
      </trkpt>
      <trkpt lat="40.840529" lon="-3.863232">
        <ele>1528</ele>
        <time>2018-06-30T07:20:18.008Z</time>
      </trkpt>
      <trkpt lat="40.840616" lon="-3.863302">
        <ele>1528</ele>
        <time>2018-06-30T07:20:28.008Z</time>
      </trkpt>
      <trkpt lat="40.84072" lon="-3.863334">
        <ele>1530</ele>
        <time>2018-06-30T07:20:36.008Z</time>
      </trkpt>
      <trkpt lat="40.840806" lon="-3.863401">
        <ele>1532</ele>
        <time>2018-06-30T07:20:45.008Z</time>
      </trkpt>
      <trkpt lat="40.840911" lon="-3.863432">
        <ele>1533</ele>
        <time>2018-06-30T07:20:53.008Z</time>
      </trkpt>
      <trkpt lat="40.841008" lon="-3.86349">
        <ele>1535</ele>
        <time>2018-06-30T07:21:02.008Z</time>
      </trkpt>
      <trkpt lat="40.841099" lon="-3.863562">
        <ele>1535</ele>
        <time>2018-06-30T07:21:08.008Z</time>
      </trkpt>
      <trkpt lat="40.841184" lon="-3.863643">
        <ele>1535</ele>
        <time>2018-06-30T07:21:15.008Z</time>
      </trkpt>
      <trkpt lat="40.841291" lon="-3.863617">
        <ele>1535</ele>
        <time>2018-06-30T07:21:22.008Z</time>
      </trkpt>
      <trkpt lat="40.841399" lon="-3.863645">
        <ele>1535</ele>
        <time>2018-06-30T07:21:30.008Z</time>
      </trkpt>
      <trkpt lat="40.841481" lon="-3.863695">
        <ele>1535</ele>
        <time>2018-06-30T07:21:36.008Z</time>
      </trkpt>
      <trkpt lat="40.841565" lon="-3.863743">
        <ele>1533</ele>
        <time>2018-06-30T07:21:42.008Z</time>
      </trkpt>
      <trkpt lat="40.841617" lon="-3.863839">
        <ele>1533</ele>
        <time>2018-06-30T07:21:48.008Z</time>
      </trkpt>
      <trkpt lat="40.841658" lon="-3.863931">
        <ele>1531</ele>
        <time>2018-06-30T07:21:54.008Z</time>
      </trkpt>
      <trkpt lat="40.841718" lon="-3.864005">
        <ele>1531</ele>
        <time>2018-06-30T07:22:00.008Z</time>
      </trkpt>
      <trkpt lat="40.841751" lon="-3.864078">
        <ele>1530</ele>
        <time>2018-06-30T07:22:05.008Z</time>
      </trkpt>
      <trkpt lat="40.841777" lon="-3.864192">
        <ele>1530</ele>
        <time>2018-06-30T07:22:09.008Z</time>
      </trkpt>
      <trkpt lat="40.841798" lon="-3.864311">
        <ele>1530</ele>
        <time>2018-06-30T07:22:13.008Z</time>
      </trkpt>
      <trkpt lat="40.841793" lon="-3.864433">
        <ele>1530</ele>
        <time>2018-06-30T07:22:17.008Z</time>
      </trkpt>
      <trkpt lat="40.841773" lon="-3.864551">
        <ele>1529.59591447566</ele>
        <time>2018-06-30T07:22:21.008Z</time>
      </trkpt>
      <trkpt lat="40.841734" lon="-3.864678">
        <ele>1528</ele>
        <time>2018-06-30T07:22:25.008Z</time>
      </trkpt>
      <trkpt lat="40.841705" lon="-3.864838">
        <ele>1528</ele>
        <time>2018-06-30T07:22:29.008Z</time>
      </trkpt>
      <trkpt lat="40.841718" lon="-3.864975">
        <ele>1526</ele>
        <time>2018-06-30T07:22:34.008Z</time>
      </trkpt>
      <trkpt lat="40.841787" lon="-3.865075">
        <ele>1525</ele>
        <time>2018-06-30T07:22:40.008Z</time>
      </trkpt>
      <trkpt lat="40.841841" lon="-3.865199">
        <ele>1522.80181993786</ele>
        <time>2018-06-30T07:22:46.008Z</time>
      </trkpt>
      <trkpt lat="40.841902" lon="-3.865339">
        <ele>1522</ele>
        <time>2018-06-30T07:22:51.008Z</time>
      </trkpt>
      <trkpt lat="40.841956" lon="-3.865456">
        <ele>1522</ele>
        <time>2018-06-30T07:22:54.008Z</time>
      </trkpt>
      <trkpt lat="40.842027" lon="-3.86556">
        <ele>1522</ele>
        <time>2018-06-30T07:22:57.008Z</time>
      </trkpt>
      <trkpt lat="40.842083" lon="-3.86568">
        <ele>1520</ele>
        <time>2018-06-30T07:23:02.008Z</time>
      </trkpt>
      <trkpt lat="40.842138" lon="-3.865805">
        <ele>1520</ele>
        <time>2018-06-30T07:23:08.008Z</time>
      </trkpt>
      <trkpt lat="40.842209" lon="-3.865914">
        <ele>1519</ele>
        <time>2018-06-30T07:23:13.008Z</time>
      </trkpt>
      <trkpt lat="40.84227" lon="-3.866038">
        <ele>1519</ele>
        <time>2018-06-30T07:23:17.008Z</time>
      </trkpt>
      <trkpt lat="40.84235" lon="-3.86617">
        <ele>1519</ele>
        <time>2018-06-30T07:23:20.008Z</time>
      </trkpt>
      <trkpt lat="40.842421" lon="-3.866283">
        <ele>1518</ele>
        <time>2018-06-30T07:23:23.008Z</time>
      </trkpt>
      <trkpt lat="40.842472" lon="-3.866427">
        <ele>1518</ele>
        <time>2018-06-30T07:23:28.008Z</time>
      </trkpt>
      <trkpt lat="40.842519" lon="-3.866558">
        <ele>1517</ele>
        <time>2018-06-30T07:23:32.008Z</time>
      </trkpt>
      <trkpt lat="40.842561" lon="-3.866691">
        <ele>1517</ele>
        <time>2018-06-30T07:23:35.008Z</time>
      </trkpt>
      <trkpt lat="40.842619" lon="-3.866829">
        <ele>1517</ele>
        <time>2018-06-30T07:23:39.008Z</time>
      </trkpt>
      <trkpt lat="40.842606" lon="-3.866967">
        <ele>1518</ele>
        <time>2018-06-30T07:23:50.008Z</time>
      </trkpt>
      <trkpt lat="40.842556" lon="-3.867082">
        <ele>1518</ele>
        <time>2018-06-30T07:23:58.008Z</time>
      </trkpt>
      <trkpt lat="40.84249" lon="-3.867194">
        <ele>1520</ele>
        <time>2018-06-30T07:24:13.008Z</time>
      </trkpt>
      <trkpt lat="40.842415" lon="-3.867295">
        <ele>1521</ele>
        <time>2018-06-30T07:24:24.008Z</time>
      </trkpt>
      <trkpt lat="40.842329" lon="-3.867362">
        <ele>1522</ele>
        <time>2018-06-30T07:24:33.008Z</time>
      </trkpt>
      <trkpt lat="40.842366" lon="-3.867485">
        <ele>1523</ele>
        <time>2018-06-30T07:24:42.008Z</time>
      </trkpt>
      <trkpt lat="40.842465" lon="-3.867556">
        <ele>1523</ele>
        <time>2018-06-30T07:24:48.008Z</time>
      </trkpt>
      <trkpt lat="40.842563" lon="-3.867591">
        <ele>1523</ele>
        <time>2018-06-30T07:24:55.008Z</time>
      </trkpt>
      <trkpt lat="40.842652" lon="-3.867644">
        <ele>1524</ele>
        <time>2018-06-30T07:25:04.008Z</time>
      </trkpt>
      <trkpt lat="40.842726" lon="-3.867741">
        <ele>1524</ele>
        <time>2018-06-30T07:25:14.008Z</time>
      </trkpt>
      <trkpt lat="40.842774" lon="-3.867875">
        <ele>1524</ele>
        <time>2018-06-30T07:25:20.008Z</time>
      </trkpt>
      <trkpt lat="40.84288" lon="-3.867898">
        <ele>1524</ele>
        <time>2018-06-30T07:25:28.008Z</time>
      </trkpt>
      <trkpt lat="40.842967" lon="-3.867832">
        <ele>1526</ele>
        <time>2018-06-30T07:25:36.008Z</time>
      </trkpt>
      <trkpt lat="40.843067" lon="-3.867818">
        <ele>1527</ele>
        <time>2018-06-30T07:25:43.008Z</time>
      </trkpt>
      <trkpt lat="40.843168" lon="-3.867864">
        <ele>1527.40408552434</ele>
        <time>2018-06-30T07:25:51.008Z</time>
      </trkpt>
      <trkpt lat="40.843267" lon="-3.86791">
        <ele>1529</ele>
        <time>2018-06-30T07:26:00.008Z</time>
      </trkpt>
      <trkpt lat="40.843374" lon="-3.867932">
        <ele>1530</ele>
        <time>2018-06-30T07:26:09.008Z</time>
      </trkpt>
      <trkpt lat="40.843478" lon="-3.867913">
        <ele>1531</ele>
        <time>2018-06-30T07:26:16.008Z</time>
      </trkpt>
      <trkpt lat="40.843588" lon="-3.867912">
        <ele>1531</ele>
        <time>2018-06-30T07:26:23.008Z</time>
      </trkpt>
      <trkpt lat="40.843682" lon="-3.867924">
        <ele>1531.42020066198</ele>
        <time>2018-06-30T07:26:31.008Z</time>
      </trkpt>
      <trkpt lat="40.843784" lon="-3.867947">
        <ele>1533</ele>
        <time>2018-06-30T07:26:39.008Z</time>
      </trkpt>
      <trkpt lat="40.843877" lon="-3.867995">
        <ele>1534</ele>
        <time>2018-06-30T07:26:47.008Z</time>
      </trkpt>
      <trkpt lat="40.843962" lon="-3.868069">
        <ele>1536</ele>
        <time>2018-06-30T07:26:54.008Z</time>
      </trkpt>
      <trkpt lat="40.84406" lon="-3.868101">
        <ele>1536</ele>
        <time>2018-06-30T07:27:01.008Z</time>
      </trkpt>
      <trkpt lat="40.844163" lon="-3.868143">
        <ele>1536.1311137343</ele>
        <time>2018-06-30T07:27:11.008Z</time>
      </trkpt>
      <trkpt lat="40.844261" lon="-3.868086">
        <ele>1537</ele>
        <time>2018-06-30T07:27:20.008Z</time>
      </trkpt>
      <trkpt lat="40.844362" lon="-3.868097">
        <ele>1539</ele>
        <time>2018-06-30T07:27:26.008Z</time>
      </trkpt>
      <trkpt lat="40.844436" lon="-3.868085">
        <ele>1539</ele>
        <time>2018-06-30T07:27:30.008Z</time>
      </trkpt>
      <trkpt lat="40.844499" lon="-3.86808">
        <ele>1540</ele>
        <time>2018-06-30T07:27:34.008Z</time>
      </trkpt>
      <trkpt lat="40.844554" lon="-3.868099">
        <ele>1540</ele>
        <time>2018-06-30T07:27:38.008Z</time>
      </trkpt>
      <trkpt lat="40.844604" lon="-3.868124">
        <ele>1540</ele>
        <time>2018-06-30T07:27:42.008Z</time>
      </trkpt>
      <trkpt lat="40.844657" lon="-3.868146">
        <ele>1540</ele>
        <time>2018-06-30T07:27:46.008Z</time>
      </trkpt>
      <trkpt lat="40.844707" lon="-3.868168">
        <ele>1540</ele>
        <time>2018-06-30T07:27:50.008Z</time>
      </trkpt>
      <trkpt lat="40.844752" lon="-3.868194">
        <ele>1540</ele>
        <time>2018-06-30T07:27:54.008Z</time>
      </trkpt>
      <trkpt lat="40.844798" lon="-3.868217">
        <ele>1540</ele>
        <time>2018-06-30T07:27:58.008Z</time>
      </trkpt>
      <trkpt lat="40.844842" lon="-3.868234">
        <ele>1539</ele>
        <time>2018-06-30T07:28:02.008Z</time>
      </trkpt>
      <trkpt lat="40.844891" lon="-3.868247">
        <ele>1539</ele>
        <time>2018-06-30T07:28:06.008Z</time>
      </trkpt>
      <trkpt lat="40.844942" lon="-3.868251">
        <ele>1539</ele>
        <time>2018-06-30T07:28:10.008Z</time>
      </trkpt>
      <trkpt lat="40.844992" lon="-3.868256">
        <ele>1538</ele>
        <time>2018-06-30T07:28:14.008Z</time>
      </trkpt>
      <trkpt lat="40.845049" lon="-3.868264">
        <ele>1538</ele>
        <time>2018-06-30T07:28:19.008Z</time>
      </trkpt>
      <trkpt lat="40.845107" lon="-3.868269">
        <ele>1537</ele>
        <time>2018-06-30T07:28:24.008Z</time>
      </trkpt>
      <trkpt lat="40.845168" lon="-3.868255">
        <ele>1537</ele>
        <time>2018-06-30T07:28:28.008Z</time>
      </trkpt>
      <trkpt lat="40.845223" lon="-3.868235">
        <ele>1536</ele>
        <time>2018-06-30T07:28:32.008Z</time>
      </trkpt>
      <trkpt lat="40.845284" lon="-3.86823">
        <ele>1536</ele>
        <time>2018-06-30T07:28:37.008Z</time>
      </trkpt>
      <trkpt lat="40.845349" lon="-3.868223">
        <ele>1533</ele>
        <time>2018-06-30T07:28:43.008Z</time>
      </trkpt>
      <trkpt lat="40.845408" lon="-3.868202">
        <ele>1532</ele>
        <time>2018-06-30T07:28:48.008Z</time>
      </trkpt>
      <trkpt lat="40.845477" lon="-3.868179">
        <ele>1531</ele>
        <time>2018-06-30T07:28:55.008Z</time>
      </trkpt>
      <trkpt lat="40.845555" lon="-3.868148">
        <ele>1531</ele>
        <time>2018-06-30T07:29:00.008Z</time>
      </trkpt>
      <trkpt lat="40.845653" lon="-3.8681">
        <ele>1530</ele>
        <time>2018-06-30T07:29:08.008Z</time>
      </trkpt>
      <trkpt lat="40.845732" lon="-3.868055">
        <ele>1530</ele>
        <time>2018-06-30T07:29:15.008Z</time>
      </trkpt>
      <trkpt lat="40.845824" lon="-3.868011">
        <ele>1529</ele>
        <time>2018-06-30T07:29:23.008Z</time>
      </trkpt>
      <trkpt lat="40.845925" lon="-3.867967">
        <ele>1529</ele>
        <time>2018-06-30T07:29:29.008Z</time>
      </trkpt>
      <trkpt lat="40.846035" lon="-3.867944">
        <ele>1528</ele>
        <time>2018-06-30T07:29:34.008Z</time>
      </trkpt>
      <trkpt lat="40.846151" lon="-3.867931">
        <ele>1528</ele>
        <time>2018-06-30T07:29:39.008Z</time>
      </trkpt>
      <trkpt lat="40.846266" lon="-3.867914">
        <ele>1526</ele>
        <time>2018-06-30T07:29:44.008Z</time>
      </trkpt>
      <trkpt lat="40.846362" lon="-3.867899">
        <ele>1526</ele>
        <time>2018-06-30T07:29:48.008Z</time>
      </trkpt>
      <trkpt lat="40.846469" lon="-3.867888">
        <ele>1524</ele>
        <time>2018-06-30T07:29:53.008Z</time>
      </trkpt>
      <trkpt lat="40.84658" lon="-3.867867">
        <ele>1524</ele>
        <time>2018-06-30T07:29:58.008Z</time>
      </trkpt>
      <trkpt lat="40.8467" lon="-3.867854">
        <ele>1521</ele>
        <time>2018-06-30T07:30:03.008Z</time>
      </trkpt>
      <trkpt lat="40.846813" lon="-3.867842">
        <ele>1520</ele>
        <time>2018-06-30T07:30:08.008Z</time>
      </trkpt>
      <trkpt lat="40.846922" lon="-3.867814">
        <ele>1519</ele>
        <time>2018-06-30T07:30:13.008Z</time>
      </trkpt>
      <trkpt lat="40.847031" lon="-3.867788">
        <ele>1519</ele>
        <time>2018-06-30T07:30:18.008Z</time>
      </trkpt>
      <trkpt lat="40.847134" lon="-3.86776">
        <ele>1517</ele>
        <time>2018-06-30T07:30:22.008Z</time>
      </trkpt>
      <trkpt lat="40.847234" lon="-3.867726">
        <ele>1517</ele>
        <time>2018-06-30T07:30:26.008Z</time>
      </trkpt>
      <trkpt lat="40.847332" lon="-3.86773">
        <ele>1517</ele>
        <time>2018-06-30T07:30:30.008Z</time>
      </trkpt>
      <trkpt lat="40.84743" lon="-3.867738">
        <ele>1514</ele>
        <time>2018-06-30T07:30:34.008Z</time>
      </trkpt>
      <trkpt lat="40.847524" lon="-3.867745">
        <ele>1513</ele>
        <time>2018-06-30T07:30:38.008Z</time>
      </trkpt>
      <trkpt lat="40.847622" lon="-3.867746">
        <ele>1513</ele>
        <time>2018-06-30T07:30:42.008Z</time>
      </trkpt>
      <trkpt lat="40.84771" lon="-3.867745">
        <ele>1513</ele>
        <time>2018-06-30T07:30:46.008Z</time>
      </trkpt>
      <trkpt lat="40.847795" lon="-3.867743">
        <ele>1513</ele>
        <time>2018-06-30T07:30:50.008Z</time>
      </trkpt>
      <trkpt lat="40.847886" lon="-3.867744">
        <ele>1512</ele>
        <time>2018-06-30T07:30:54.008Z</time>
      </trkpt>
      <trkpt lat="40.847997" lon="-3.867742">
        <ele>1512</ele>
        <time>2018-06-30T07:30:59.008Z</time>
      </trkpt>
      <trkpt lat="40.848118" lon="-3.867725">
        <ele>1511</ele>
        <time>2018-06-30T07:31:04.008Z</time>
      </trkpt>
      <trkpt lat="40.848218" lon="-3.867721">
        <ele>1511</ele>
        <time>2018-06-30T07:31:08.008Z</time>
      </trkpt>
      <trkpt lat="40.84833" lon="-3.867717">
        <ele>1509</ele>
        <time>2018-06-30T07:31:13.008Z</time>
      </trkpt>
      <trkpt lat="40.84843" lon="-3.867703">
        <ele>1509</ele>
        <time>2018-06-30T07:31:17.008Z</time>
      </trkpt>
      <trkpt lat="40.848536" lon="-3.867686">
        <ele>1508.39387171349</ele>
        <time>2018-06-30T07:31:21.008Z</time>
      </trkpt>
      <trkpt lat="40.848634" lon="-3.867668">
        <ele>1506</ele>
        <time>2018-06-30T07:31:25.008Z</time>
      </trkpt>
      <trkpt lat="40.848738" lon="-3.867659">
        <ele>1506</ele>
        <time>2018-06-30T07:31:29.008Z</time>
      </trkpt>
      <trkpt lat="40.848846" lon="-3.867635">
        <ele>1506</ele>
        <time>2018-06-30T07:31:34.008Z</time>
      </trkpt>
      <trkpt lat="40.84896" lon="-3.867625">
        <ele>1506</ele>
        <time>2018-06-30T07:31:39.008Z</time>
      </trkpt>
      <trkpt lat="40.849078" lon="-3.867602">
        <ele>1504</ele>
        <time>2018-06-30T07:31:44.008Z</time>
      </trkpt>
      <trkpt lat="40.849182" lon="-3.867586">
        <ele>1504</ele>
        <time>2018-06-30T07:31:49.008Z</time>
      </trkpt>
      <trkpt lat="40.8493" lon="-3.86756">
        <ele>1502</ele>
        <time>2018-06-30T07:31:54.008Z</time>
      </trkpt>
      <trkpt lat="40.849404" lon="-3.867552">
        <ele>1502</ele>
        <time>2018-06-30T07:31:59.008Z</time>
      </trkpt>
      <trkpt lat="40.849511" lon="-3.867532">
        <ele>1499</ele>
        <time>2018-06-30T07:32:03.008Z</time>
      </trkpt>
      <trkpt lat="40.849609" lon="-3.867514">
        <ele>1499</ele>
        <time>2018-06-30T07:32:07.008Z</time>
      </trkpt>
      <trkpt lat="40.849713" lon="-3.867502">
        <ele>1498.8688862657</ele>
        <time>2018-06-30T07:32:11.008Z</time>
      </trkpt>
      <trkpt lat="40.849806" lon="-3.867488">
        <ele>1498</ele>
        <time>2018-06-30T07:32:15.008Z</time>
      </trkpt>
      <trkpt lat="40.849898" lon="-3.867482">
        <ele>1498</ele>
        <time>2018-06-30T07:32:19.008Z</time>
      </trkpt>
      <trkpt lat="40.849985" lon="-3.867497">
        <ele>1497</ele>
        <time>2018-06-30T07:32:23.008Z</time>
      </trkpt>
      <trkpt lat="40.850087" lon="-3.86752">
        <ele>1497</ele>
        <time>2018-06-30T07:32:28.008Z</time>
      </trkpt>
      <trkpt lat="40.850195" lon="-3.86756">
        <ele>1496</ele>
        <time>2018-06-30T07:32:33.008Z</time>
      </trkpt>
      <trkpt lat="40.850284" lon="-3.867607">
        <ele>1496</ele>
        <time>2018-06-30T07:32:37.008Z</time>
      </trkpt>
      <trkpt lat="40.850378" lon="-3.867652">
        <ele>1495.7377725314</ele>
        <time>2018-06-30T07:32:41.008Z</time>
      </trkpt>
      <trkpt lat="40.850471" lon="-3.867694">
        <ele>1494</ele>
        <time>2018-06-30T07:32:45.008Z</time>
      </trkpt>
      <trkpt lat="40.850566" lon="-3.86772">
        <ele>1494</ele>
        <time>2018-06-30T07:32:49.008Z</time>
      </trkpt>
      <trkpt lat="40.850666" lon="-3.867739">
        <ele>1493</ele>
        <time>2018-06-30T07:32:53.008Z</time>
      </trkpt>
      <trkpt lat="40.85076" lon="-3.867742">
        <ele>1493</ele>
        <time>2018-06-30T07:32:57.008Z</time>
      </trkpt>
      <trkpt lat="40.850881" lon="-3.867728">
        <ele>1490</ele>
        <time>2018-06-30T07:33:02.008Z</time>
      </trkpt>
      <trkpt lat="40.851005" lon="-3.86772">
        <ele>1490</ele>
        <time>2018-06-30T07:33:07.008Z</time>
      </trkpt>
      <trkpt lat="40.851121" lon="-3.867716">
        <ele>1490</ele>
        <time>2018-06-30T07:33:12.008Z</time>
      </trkpt>
      <trkpt lat="40.85122" lon="-3.867702">
        <ele>1490</ele>
        <time>2018-06-30T07:33:16.008Z</time>
      </trkpt>
      <trkpt lat="40.851314" lon="-3.86766">
        <ele>1490</ele>
        <time>2018-06-30T07:33:20.008Z</time>
      </trkpt>
      <trkpt lat="40.851434" lon="-3.867608">
        <ele>1490</ele>
        <time>2018-06-30T07:33:25.008Z</time>
      </trkpt>
      <trkpt lat="40.851526" lon="-3.867562">
        <ele>1490</ele>
        <time>2018-06-30T07:33:29.008Z</time>
      </trkpt>
      <trkpt lat="40.851632" lon="-3.867518">
        <ele>1489</ele>
        <time>2018-06-30T07:33:33.008Z</time>
      </trkpt>
      <trkpt lat="40.851727" lon="-3.867475">
        <ele>1489</ele>
        <time>2018-06-30T07:33:37.008Z</time>
      </trkpt>
      <trkpt lat="40.851824" lon="-3.867432">
        <ele>1488.8688862657</ele>
        <time>2018-06-30T07:33:41.008Z</time>
      </trkpt>
      <trkpt lat="40.851934" lon="-3.86738">
        <ele>1488</ele>
        <time>2018-06-30T07:33:46.008Z</time>
      </trkpt>
      <trkpt lat="40.852043" lon="-3.867344">
        <ele>1487.79795723783</ele>
        <time>2018-06-30T07:33:51.008Z</time>
      </trkpt>
      <trkpt lat="40.852145" lon="-3.867324">
        <ele>1487</ele>
        <time>2018-06-30T07:33:55.008Z</time>
      </trkpt>
      <trkpt lat="40.852251" lon="-3.867286">
        <ele>1487</ele>
        <time>2018-06-30T07:34:00.008Z</time>
      </trkpt>
      <trkpt lat="40.852362" lon="-3.867237">
        <ele>1484</ele>
        <time>2018-06-30T07:34:06.008Z</time>
      </trkpt>
      <trkpt lat="40.852473" lon="-3.8672">
        <ele>1483.8688862657</ele>
        <time>2018-06-30T07:34:11.008Z</time>
      </trkpt>
      <trkpt lat="40.852573" lon="-3.867183">
        <ele>1483</ele>
        <time>2018-06-30T07:34:15.008Z</time>
      </trkpt>
      <trkpt lat="40.852671" lon="-3.86716">
        <ele>1483</ele>
        <time>2018-06-30T07:34:20.008Z</time>
      </trkpt>
      <trkpt lat="40.852772" lon="-3.867111">
        <ele>1482</ele>
        <time>2018-06-30T07:34:25.008Z</time>
      </trkpt>
      <trkpt lat="40.852885" lon="-3.867086">
        <ele>1482</ele>
        <time>2018-06-30T07:34:29.008Z</time>
      </trkpt>
      <trkpt lat="40.853004" lon="-3.867059">
        <ele>1481</ele>
        <time>2018-06-30T07:34:33.008Z</time>
      </trkpt>
      <trkpt lat="40.853119" lon="-3.867038">
        <ele>1481</ele>
        <time>2018-06-30T07:34:37.008Z</time>
      </trkpt>
      <trkpt lat="40.853238" lon="-3.867018">
        <ele>1481</ele>
        <time>2018-06-30T07:34:42.008Z</time>
      </trkpt>
      <trkpt lat="40.853341" lon="-3.866964">
        <ele>1481</ele>
        <time>2018-06-30T07:34:48.008Z</time>
      </trkpt>
      <trkpt lat="40.853437" lon="-3.866916">
        <ele>1478</ele>
        <time>2018-06-30T07:34:53.008Z</time>
      </trkpt>
      <trkpt lat="40.853557" lon="-3.866893">
        <ele>1477</ele>
        <time>2018-06-30T07:34:57.008Z</time>
      </trkpt>
      <trkpt lat="40.853659" lon="-3.866872">
        <ele>1476.90730999173</ele>
        <time>2018-06-30T07:35:01.008Z</time>
      </trkpt>
      <trkpt lat="40.853772" lon="-3.866846">
        <ele>1474.56832180062</ele>
        <time>2018-06-30T07:35:06.008Z</time>
      </trkpt>
      <trkpt lat="40.853879" lon="-3.866862">
        <ele>1473</ele>
        <time>2018-06-30T07:35:10.008Z</time>
      </trkpt>
      <trkpt lat="40.853987" lon="-3.866873">
        <ele>1472</ele>
        <time>2018-06-30T07:35:14.008Z</time>
      </trkpt>
      <trkpt lat="40.854087" lon="-3.866879">
        <ele>1471</ele>
        <time>2018-06-30T07:35:18.008Z</time>
      </trkpt>
      <trkpt lat="40.854176" lon="-3.866905">
        <ele>1470</ele>
        <time>2018-06-30T07:35:22.008Z</time>
      </trkpt>
      <trkpt lat="40.854272" lon="-3.866939">
        <ele>1470</ele>
        <time>2018-06-30T07:35:26.008Z</time>
      </trkpt>
      <trkpt lat="40.854356" lon="-3.866983">
        <ele>1470</ele>
        <time>2018-06-30T07:35:30.008Z</time>
      </trkpt>
      <trkpt lat="40.854436" lon="-3.867036">
        <ele>1469</ele>
        <time>2018-06-30T07:35:34.008Z</time>
      </trkpt>
      <trkpt lat="40.854524" lon="-3.867105">
        <ele>1469</ele>
        <time>2018-06-30T07:35:39.008Z</time>
      </trkpt>
      <trkpt lat="40.854619" lon="-3.867189">
        <ele>1468</ele>
        <time>2018-06-30T07:35:44.008Z</time>
      </trkpt>
      <trkpt lat="40.854691" lon="-3.8673">
        <ele>1468</ele>
        <time>2018-06-30T07:35:49.008Z</time>
      </trkpt>
      <trkpt lat="40.85474" lon="-3.867438">
        <ele>1467</ele>
        <time>2018-06-30T07:35:54.008Z</time>
      </trkpt>
      <trkpt lat="40.854731" lon="-3.867591">
        <ele>1467</ele>
        <time>2018-06-30T07:36:00.008Z</time>
      </trkpt>
      <trkpt lat="40.854669" lon="-3.867716">
        <ele>1463</ele>
        <time>2018-06-30T07:36:06.008Z</time>
      </trkpt>
      <trkpt lat="40.854571" lon="-3.867804">
        <ele>1463</ele>
        <time>2018-06-30T07:36:12.008Z</time>
      </trkpt>
      <trkpt lat="40.854472" lon="-3.867864">
        <ele>1463</ele>
        <time>2018-06-30T07:36:18.008Z</time>
      </trkpt>
      <trkpt lat="40.854382" lon="-3.86793">
        <ele>1462</ele>
        <time>2018-06-30T07:36:23.008Z</time>
      </trkpt>
      <trkpt lat="40.854264" lon="-3.86795">
        <ele>1462</ele>
        <time>2018-06-30T07:36:29.008Z</time>
      </trkpt>
      <trkpt lat="40.854129" lon="-3.867942">
        <ele>1461</ele>
        <time>2018-06-30T07:36:34.008Z</time>
      </trkpt>
      <trkpt lat="40.854006" lon="-3.867906">
        <ele>1461</ele>
        <time>2018-06-30T07:36:38.008Z</time>
      </trkpt>
      <trkpt lat="40.853899" lon="-3.867876">
        <ele>1459</ele>
        <time>2018-06-30T07:36:42.008Z</time>
      </trkpt>
      <trkpt lat="40.853793" lon="-3.867848">
        <ele>1459</ele>
        <time>2018-06-30T07:36:46.008Z</time>
      </trkpt>
      <trkpt lat="40.853694" lon="-3.867806">
        <ele>1459</ele>
        <time>2018-06-30T07:36:50.008Z</time>
      </trkpt>
      <trkpt lat="40.853599" lon="-3.867758">
        <ele>1457</ele>
        <time>2018-06-30T07:36:54.008Z</time>
      </trkpt>
      <trkpt lat="40.853499" lon="-3.867719">
        <ele>1457</ele>
        <time>2018-06-30T07:36:58.008Z</time>
      </trkpt>
      <trkpt lat="40.85339" lon="-3.867721">
        <ele>1456</ele>
        <time>2018-06-30T07:37:04.008Z</time>
      </trkpt>
      <trkpt lat="40.853288" lon="-3.867772">
        <ele>1456</ele>
        <time>2018-06-30T07:37:10.008Z</time>
      </trkpt>
      <trkpt lat="40.853171" lon="-3.867825">
        <ele>1456</ele>
        <time>2018-06-30T07:37:16.008Z</time>
      </trkpt>
      <trkpt lat="40.853063" lon="-3.867861">
        <ele>1456</ele>
        <time>2018-06-30T07:37:20.008Z</time>
      </trkpt>
      <trkpt lat="40.852973" lon="-3.86794">
        <ele>1455</ele>
        <time>2018-06-30T07:37:25.008Z</time>
      </trkpt>
      <trkpt lat="40.85289" lon="-3.868015">
        <ele>1455</ele>
        <time>2018-06-30T07:37:29.008Z</time>
      </trkpt>
      <trkpt lat="40.852774" lon="-3.868089">
        <ele>1452</ele>
        <time>2018-06-30T07:37:33.008Z</time>
      </trkpt>
      <trkpt lat="40.852687" lon="-3.868174">
        <ele>1451</ele>
        <time>2018-06-30T07:37:37.008Z</time>
      </trkpt>
      <trkpt lat="40.852607" lon="-3.868262">
        <ele>1451</ele>
        <time>2018-06-30T07:37:41.008Z</time>
      </trkpt>
      <trkpt lat="40.852524" lon="-3.868365">
        <ele>1451</ele>
        <time>2018-06-30T07:37:45.008Z</time>
      </trkpt>
      <trkpt lat="40.852419" lon="-3.868446">
        <ele>1451</ele>
        <time>2018-06-30T07:37:50.008Z</time>
      </trkpt>
      <trkpt lat="40.852328" lon="-3.868502">
        <ele>1450</ele>
        <time>2018-06-30T07:37:54.008Z</time>
      </trkpt>
      <trkpt lat="40.852234" lon="-3.868592">
        <ele>1451</ele>
        <time>2018-06-30T07:37:59.008Z</time>
      </trkpt>
      <trkpt lat="40.852144" lon="-3.868697">
        <ele>1448</ele>
        <time>2018-06-30T07:38:04.008Z</time>
      </trkpt>
      <trkpt lat="40.852061" lon="-3.868809">
        <ele>1448</ele>
        <time>2018-06-30T07:38:09.008Z</time>
      </trkpt>
      <trkpt lat="40.851986" lon="-3.868907">
        <ele>1448</ele>
        <time>2018-06-30T07:38:13.008Z</time>
      </trkpt>
      <trkpt lat="40.851904" lon="-3.869013">
        <ele>1448</ele>
        <time>2018-06-30T07:38:17.008Z</time>
      </trkpt>
      <trkpt lat="40.851834" lon="-3.869128">
        <ele>1447.59429026239</ele>
        <time>2018-06-30T07:38:21.008Z</time>
      </trkpt>
      <trkpt lat="40.851768" lon="-3.869253">
        <ele>1446</ele>
        <time>2018-06-30T07:38:25.008Z</time>
      </trkpt>
      <trkpt lat="40.851706" lon="-3.86937">
        <ele>1446</ele>
        <time>2018-06-30T07:38:29.008Z</time>
      </trkpt>
      <trkpt lat="40.851643" lon="-3.869471">
        <ele>1445</ele>
        <time>2018-06-30T07:38:33.008Z</time>
      </trkpt>
      <trkpt lat="40.851562" lon="-3.869558">
        <ele>1445</ele>
        <time>2018-06-30T07:38:37.008Z</time>
      </trkpt>
      <trkpt lat="40.851492" lon="-3.869682">
        <ele>1443</ele>
        <time>2018-06-30T07:38:42.008Z</time>
      </trkpt>
      <trkpt lat="40.851414" lon="-3.869783">
        <ele>1443</ele>
        <time>2018-06-30T07:38:47.008Z</time>
      </trkpt>
      <trkpt lat="40.851345" lon="-3.869886">
        <ele>1442.7971451312</ele>
        <time>2018-06-30T07:38:51.008Z</time>
      </trkpt>
      <trkpt lat="40.851257" lon="-3.869982">
        <ele>1442</ele>
        <time>2018-06-30T07:38:56.008Z</time>
      </trkpt>
      <trkpt lat="40.851145" lon="-3.870011">
        <ele>1441.15959867604</ele>
        <time>2018-06-30T07:39:01.008Z</time>
      </trkpt>
      <trkpt lat="40.851042" lon="-3.870065">
        <ele>1438</ele>
        <time>2018-06-30T07:39:06.008Z</time>
      </trkpt>
      <trkpt lat="40.850942" lon="-3.870125">
        <ele>1438</ele>
        <time>2018-06-30T07:39:11.008Z</time>
      </trkpt>
      <trkpt lat="40.850834" lon="-3.870165">
        <ele>1438</ele>
        <time>2018-06-30T07:39:15.008Z</time>
      </trkpt>
      <trkpt lat="40.85073" lon="-3.870186">
        <ele>1438</ele>
        <time>2018-06-30T07:39:18.008Z</time>
      </trkpt>
      <trkpt lat="40.850644" lon="-3.870209">
        <ele>1438</ele>
        <time>2018-06-30T07:39:21.008Z</time>
      </trkpt>
      <trkpt lat="40.850542" lon="-3.870226">
        <ele>1438</ele>
        <time>2018-06-30T07:39:25.008Z</time>
      </trkpt>
      <trkpt lat="40.850442" lon="-3.870283">
        <ele>1438</ele>
        <time>2018-06-30T07:39:30.008Z</time>
      </trkpt>
      <trkpt lat="40.850358" lon="-3.870404">
        <ele>1437</ele>
        <time>2018-06-30T07:39:35.008Z</time>
      </trkpt>
      <trkpt lat="40.850356" lon="-3.870569">
        <ele>1437</ele>
        <time>2018-06-30T07:39:39.008Z</time>
      </trkpt>
      <trkpt lat="40.850458" lon="-3.87064">
        <ele>1434</ele>
        <time>2018-06-30T07:39:42.008Z</time>
      </trkpt>
      <trkpt lat="40.850556" lon="-3.870658">
        <ele>1433.80181993786</ele>
        <time>2018-06-30T07:39:46.008Z</time>
      </trkpt>
      <trkpt lat="40.850654" lon="-3.870652">
        <ele>1433</ele>
        <time>2018-06-30T07:39:50.008Z</time>
      </trkpt>
      <trkpt lat="40.850776" lon="-3.870651">
        <ele>1432</ele>
        <time>2018-06-30T07:39:55.008Z</time>
      </trkpt>
      <trkpt lat="40.850862" lon="-3.870656">
        <ele>1432</ele>
        <time>2018-06-30T07:39:58.008Z</time>
      </trkpt>
      <trkpt lat="40.85096" lon="-3.870653">
        <ele>1430</ele>
        <time>2018-06-30T07:40:02.008Z</time>
      </trkpt>
      <trkpt lat="40.851052" lon="-3.870656">
        <ele>1430</ele>
        <time>2018-06-30T07:40:06.008Z</time>
      </trkpt>
      <trkpt lat="40.851142" lon="-3.870649">
        <ele>1430</ele>
        <time>2018-06-30T07:40:10.008Z</time>
      </trkpt>
      <trkpt lat="40.85126" lon="-3.870644">
        <ele>1430</ele>
        <time>2018-06-30T07:40:15.008Z</time>
      </trkpt>
      <trkpt lat="40.851364" lon="-3.870635">
        <ele>1430</ele>
        <time>2018-06-30T07:40:20.008Z</time>
      </trkpt>
      <trkpt lat="40.851462" lon="-3.870607">
        <ele>1429</ele>
        <time>2018-06-30T07:40:25.008Z</time>
      </trkpt>
      <trkpt lat="40.851578" lon="-3.870576">
        <ele>1429</ele>
        <time>2018-06-30T07:40:30.008Z</time>
      </trkpt>
      <trkpt lat="40.851676" lon="-3.870553">
        <ele>1426</ele>
        <time>2018-06-30T07:40:33.008Z</time>
      </trkpt>
      <trkpt lat="40.851787" lon="-3.870493">
        <ele>1425.78416090031</ele>
        <time>2018-06-30T07:40:36.008Z</time>
      </trkpt>
      <trkpt lat="40.851899" lon="-3.870437">
        <ele>1425</ele>
        <time>2018-06-30T07:40:40.008Z</time>
      </trkpt>
      <trkpt lat="40.851997" lon="-3.870379">
        <ele>1425</ele>
        <time>2018-06-30T07:40:44.008Z</time>
      </trkpt>
      <trkpt lat="40.85209" lon="-3.870278">
        <ele>1425</ele>
        <time>2018-06-30T07:40:48.008Z</time>
      </trkpt>
      <trkpt lat="40.852184" lon="-3.870192">
        <ele>1424</ele>
        <time>2018-06-30T07:40:52.008Z</time>
      </trkpt>
      <trkpt lat="40.85227" lon="-3.870112">
        <ele>1424</ele>
        <time>2018-06-30T07:40:56.008Z</time>
      </trkpt>
      <trkpt lat="40.85236" lon="-3.87003">
        <ele>1423.36969900703</ele>
        <time>2018-06-30T07:41:01.008Z</time>
      </trkpt>
      <trkpt lat="40.852447" lon="-3.869964">
        <ele>1421</ele>
        <time>2018-06-30T07:41:06.008Z</time>
      </trkpt>
      <trkpt lat="40.852549" lon="-3.86991">
        <ele>1420.8688862657</ele>
        <time>2018-06-30T07:41:11.008Z</time>
      </trkpt>
      <trkpt lat="40.852643" lon="-3.869842">
        <ele>1420</ele>
        <time>2018-06-30T07:41:16.008Z</time>
      </trkpt>
      <trkpt lat="40.852731" lon="-3.869775">
        <ele>1420</ele>
        <time>2018-06-30T07:41:21.008Z</time>
      </trkpt>
      <trkpt lat="40.852837" lon="-3.869724">
        <ele>1420</ele>
        <time>2018-06-30T07:41:27.008Z</time>
      </trkpt>
      <trkpt lat="40.852939" lon="-3.869715">
        <ele>1419.78989966901</ele>
        <time>2018-06-30T07:41:31.008Z</time>
      </trkpt>
      <trkpt lat="40.853033" lon="-3.869711">
        <ele>1419</ele>
        <time>2018-06-30T07:41:36.008Z</time>
      </trkpt>
      <trkpt lat="40.853134" lon="-3.869783">
        <ele>1417</ele>
        <time>2018-06-30T07:41:42.008Z</time>
      </trkpt>
      <trkpt lat="40.853197" lon="-3.869843">
        <ele>1417</ele>
        <time>2018-06-30T07:41:45.008Z</time>
      </trkpt>
      <trkpt lat="40.853252" lon="-3.869893">
        <ele>1417</ele>
        <time>2018-06-30T07:41:48.008Z</time>
      </trkpt>
      <trkpt lat="40.85331" lon="-3.869942">
        <ele>1415</ele>
        <time>2018-06-30T07:41:52.008Z</time>
      </trkpt>
      <trkpt lat="40.853394" lon="-3.870046">
        <ele>1415</ele>
        <time>2018-06-30T07:41:58.008Z</time>
      </trkpt>
      <trkpt lat="40.853489" lon="-3.870141">
        <ele>1414</ele>
        <time>2018-06-30T07:42:03.008Z</time>
      </trkpt>
      <trkpt lat="40.85358" lon="-3.870215">
        <ele>1414</ele>
        <time>2018-06-30T07:42:07.008Z</time>
      </trkpt>
      <trkpt lat="40.853674" lon="-3.87029">
        <ele>1413</ele>
        <time>2018-06-30T07:42:12.008Z</time>
      </trkpt>
      <trkpt lat="40.853792" lon="-3.870372">
        <ele>1413</ele>
        <time>2018-06-30T07:42:16.008Z</time>
      </trkpt>
      <trkpt lat="40.853902" lon="-3.870418">
        <ele>1412.59429026239</ele>
        <time>2018-06-30T07:42:21.008Z</time>
      </trkpt>
      <trkpt lat="40.85401" lon="-3.870466">
        <ele>1411</ele>
        <time>2018-06-30T07:42:26.008Z</time>
      </trkpt>
      <trkpt lat="40.854124" lon="-3.870493">
        <ele>1410.57979933802</ele>
        <time>2018-06-30T07:42:31.008Z</time>
      </trkpt>
      <trkpt lat="40.854228" lon="-3.87051">
        <ele>1409</ele>
        <time>2018-06-30T07:42:36.008Z</time>
      </trkpt>
      <trkpt lat="40.854328" lon="-3.870551">
        <ele>1409</ele>
        <time>2018-06-30T07:42:40.008Z</time>
      </trkpt>
      <trkpt lat="40.854452" lon="-3.870584">
        <ele>1409</ele>
        <time>2018-06-30T07:42:44.008Z</time>
      </trkpt>
      <trkpt lat="40.854546" lon="-3.870642">
        <ele>1408</ele>
        <time>2018-06-30T07:42:48.008Z</time>
      </trkpt>
      <trkpt lat="40.854614" lon="-3.870759">
        <ele>1407</ele>
        <time>2018-06-30T07:42:53.008Z</time>
      </trkpt>
      <trkpt lat="40.85468" lon="-3.870882">
        <ele>1407</ele>
        <time>2018-06-30T07:42:58.008Z</time>
      </trkpt>
      <trkpt lat="40.854758" lon="-3.870988">
        <ele>1405</ele>
        <time>2018-06-30T07:43:03.008Z</time>
      </trkpt>
      <trkpt lat="40.854847" lon="-3.87106">
        <ele>1405</ele>
        <time>2018-06-30T07:43:07.008Z</time>
      </trkpt>
      <trkpt lat="40.854947" lon="-3.87113">
        <ele>1405</ele>
        <time>2018-06-30T07:43:12.008Z</time>
      </trkpt>
      <trkpt lat="40.85504" lon="-3.87119">
        <ele>1405</ele>
        <time>2018-06-30T07:43:17.008Z</time>
      </trkpt>
      <trkpt lat="40.855142" lon="-3.871238">
        <ele>1404.59429026239</ele>
        <time>2018-06-30T07:43:21.008Z</time>
      </trkpt>
      <trkpt lat="40.855242" lon="-3.871282">
        <ele>1403</ele>
        <time>2018-06-30T07:43:25.008Z</time>
      </trkpt>
      <trkpt lat="40.855357" lon="-3.871304">
        <ele>1403</ele>
        <time>2018-06-30T07:43:30.008Z</time>
      </trkpt>
      <trkpt lat="40.855469" lon="-3.871314">
        <ele>1401</ele>
        <time>2018-06-30T07:43:34.008Z</time>
      </trkpt>
      <trkpt lat="40.855546" lon="-3.871308">
        <ele>1401</ele>
        <time>2018-06-30T07:43:37.008Z</time>
      </trkpt>
      <trkpt lat="40.855647" lon="-3.871286">
        <ele>1400.8688862657</ele>
        <time>2018-06-30T07:43:41.008Z</time>
      </trkpt>
      <trkpt lat="40.855749" lon="-3.87127">
        <ele>1400</ele>
        <time>2018-06-30T07:43:45.008Z</time>
      </trkpt>
      <trkpt lat="40.855861" lon="-3.871246">
        <ele>1400</ele>
        <time>2018-06-30T07:43:50.008Z</time>
      </trkpt>
      <trkpt lat="40.855977" lon="-3.87122">
        <ele>1399</ele>
        <time>2018-06-30T07:43:55.008Z</time>
      </trkpt>
      <trkpt lat="40.856095" lon="-3.871188">
        <ele>1399</ele>
        <time>2018-06-30T07:44:00.008Z</time>
      </trkpt>
      <trkpt lat="40.856214" lon="-3.871161">
        <ele>1396</ele>
        <time>2018-06-30T07:44:05.008Z</time>
      </trkpt>
      <trkpt lat="40.85632" lon="-3.871136">
        <ele>1396</ele>
        <time>2018-06-30T07:44:09.008Z</time>
      </trkpt>
      <trkpt lat="40.856434" lon="-3.87112">
        <ele>1395</ele>
        <time>2018-06-30T07:44:13.008Z</time>
      </trkpt>
      <trkpt lat="40.856536" lon="-3.871096">
        <ele>1395</ele>
        <time>2018-06-30T07:44:18.008Z</time>
      </trkpt>
      <trkpt lat="40.856656" lon="-3.871075">
        <ele>1395</ele>
        <time>2018-06-30T07:44:23.008Z</time>
      </trkpt>
      <trkpt lat="40.856774" lon="-3.871056">
        <ele>1395</ele>
        <time>2018-06-30T07:44:28.008Z</time>
      </trkpt>
      <trkpt lat="40.856892" lon="-3.871046">
        <ele>1394</ele>
        <time>2018-06-30T07:44:33.008Z</time>
      </trkpt>
      <trkpt lat="40.857004" lon="-3.871049">
        <ele>1394</ele>
        <time>2018-06-30T07:44:38.008Z</time>
      </trkpt>
      <trkpt lat="40.85711" lon="-3.871072">
        <ele>1393.8688862657</ele>
        <time>2018-06-30T07:44:41.008Z</time>
      </trkpt>
      <trkpt lat="40.857194" lon="-3.871055">
        <ele>1393</ele>
        <time>2018-06-30T07:44:44.008Z</time>
      </trkpt>
      <trkpt lat="40.857272" lon="-3.871043">
        <ele>1393</ele>
        <time>2018-06-30T07:44:47.008Z</time>
      </trkpt>
      <trkpt lat="40.857383" lon="-3.871004">
        <ele>1392</ele>
        <time>2018-06-30T07:44:52.008Z</time>
      </trkpt>
      <trkpt lat="40.857494" lon="-3.870957">
        <ele>1391</ele>
        <time>2018-06-30T07:44:56.008Z</time>
      </trkpt>
      <trkpt lat="40.85759" lon="-3.870887">
        <ele>1391</ele>
        <time>2018-06-30T07:45:00.008Z</time>
      </trkpt>
      <trkpt lat="40.857668" lon="-3.870808">
        <ele>1389</ele>
        <time>2018-06-30T07:45:04.008Z</time>
      </trkpt>
      <trkpt lat="40.857746" lon="-3.870715">
        <ele>1389</ele>
        <time>2018-06-30T07:45:08.008Z</time>
      </trkpt>
      <trkpt lat="40.85781" lon="-3.870593">
        <ele>1388</ele>
        <time>2018-06-30T07:45:13.008Z</time>
      </trkpt>
      <trkpt lat="40.857872" lon="-3.870483">
        <ele>1387</ele>
        <time>2018-06-30T07:45:20.008Z</time>
      </trkpt>
      <trkpt lat="40.857934" lon="-3.870392">
        <ele>1386</ele>
        <time>2018-06-30T07:45:28.008Z</time>
      </trkpt>
      <trkpt lat="40.857989" lon="-3.870298">
        <ele>1385</ele>
        <time>2018-06-30T07:45:35.008Z</time>
      </trkpt>
      <trkpt lat="40.858032" lon="-3.870201">
        <ele>1385</ele>
        <time>2018-06-30T07:45:42.008Z</time>
      </trkpt>
      <trkpt lat="40.858085" lon="-3.870117">
        <ele>1385</ele>
        <time>2018-06-30T07:45:49.008Z</time>
      </trkpt>
      <trkpt lat="40.858137" lon="-3.870023">
        <ele>1385</ele>
        <time>2018-06-30T07:45:56.008Z</time>
      </trkpt>
      <trkpt lat="40.858192" lon="-3.869938">
        <ele>1383</ele>
        <time>2018-06-30T07:46:02.008Z</time>
      </trkpt>
      <trkpt lat="40.858252" lon="-3.869862">
        <ele>1383</ele>
        <time>2018-06-30T07:46:08.008Z</time>
      </trkpt>
      <trkpt lat="40.858299" lon="-3.869772">
        <ele>1383</ele>
        <time>2018-06-30T07:46:15.008Z</time>
      </trkpt>
      <trkpt lat="40.85836" lon="-3.869696">
        <ele>1382.7971451312</ele>
        <time>2018-06-30T07:46:21.008Z</time>
      </trkpt>
      <trkpt lat="40.858407" lon="-3.869606">
        <ele>1382</ele>
        <time>2018-06-30T07:46:28.008Z</time>
      </trkpt>
      <trkpt lat="40.858454" lon="-3.869526">
        <ele>1381</ele>
        <time>2018-06-30T07:46:35.008Z</time>
      </trkpt>
      <trkpt lat="40.858502" lon="-3.869439">
        <ele>1380</ele>
        <time>2018-06-30T07:46:42.008Z</time>
      </trkpt>
      <trkpt lat="40.85857" lon="-3.869341">
        <ele>1380</ele>
        <time>2018-06-30T07:46:50.008Z</time>
      </trkpt>
      <trkpt lat="40.858638" lon="-3.869253">
        <ele>1379</ele>
        <time>2018-06-30T07:46:57.008Z</time>
      </trkpt>
      <trkpt lat="40.858694" lon="-3.869156">
        <ele>1378</ele>
        <time>2018-06-30T07:47:06.008Z</time>
      </trkpt>
      <trkpt lat="40.858752" lon="-3.869095">
        <ele>1377</ele>
        <time>2018-06-30T07:47:12.008Z</time>
      </trkpt>
      <trkpt lat="40.85881" lon="-3.869028">
        <ele>1377</ele>
        <time>2018-06-30T07:47:17.008Z</time>
      </trkpt>
      <trkpt lat="40.858884" lon="-3.868977">
        <ele>1376</ele>
        <time>2018-06-30T07:47:23.008Z</time>
      </trkpt>
      <trkpt lat="40.858958" lon="-3.868935">
        <ele>1375</ele>
        <time>2018-06-30T07:47:30.008Z</time>
      </trkpt>
      <trkpt lat="40.85903" lon="-3.868961">
        <ele>1375</ele>
        <time>2018-06-30T07:47:35.008Z</time>
      </trkpt>
      <trkpt lat="40.859088" lon="-3.868988">
        <ele>1375</ele>
        <time>2018-06-30T07:47:39.008Z</time>
      </trkpt>
      <trkpt lat="40.859152" lon="-3.86902">
        <ele>1374</ele>
        <time>2018-06-30T07:47:44.008Z</time>
      </trkpt>
      <trkpt lat="40.859198" lon="-3.869008">
        <ele>1374</ele>
        <time>2018-06-30T07:47:49.008Z</time>
      </trkpt>
      <trkpt lat="40.859246" lon="-3.868997">
        <ele>1373</ele>
        <time>2018-06-30T07:47:53.008Z</time>
      </trkpt>
      <trkpt lat="40.859288" lon="-3.868997">
        <ele>1373</ele>
        <time>2018-06-30T07:47:56.008Z</time>
      </trkpt>
      <trkpt lat="40.859342" lon="-3.868997">
        <ele>1373</ele>
        <time>2018-06-30T07:48:00.008Z</time>
      </trkpt>
      <trkpt lat="40.859388" lon="-3.86899">
        <ele>1372</ele>
        <time>2018-06-30T07:48:03.008Z</time>
      </trkpt>
      <trkpt lat="40.859418" lon="-3.86898">
        <ele>1372</ele>
        <time>2018-06-30T07:48:05.008Z</time>
      </trkpt>
      <trkpt lat="40.859446" lon="-3.868971">
        <ele>1372</ele>
        <time>2018-06-30T07:48:07.008Z</time>
      </trkpt>
      <trkpt lat="40.859472" lon="-3.868953">
        <ele>1372</ele>
        <time>2018-06-30T07:48:09.008Z</time>
      </trkpt>
      <trkpt lat="40.859499" lon="-3.868936">
        <ele>1372</ele>
        <time>2018-06-30T07:48:11.008Z</time>
      </trkpt>
      <trkpt lat="40.859538" lon="-3.868911">
        <ele>1372</ele>
        <time>2018-06-30T07:48:14.008Z</time>
      </trkpt>
      <trkpt lat="40.859574" lon="-3.868886">
        <ele>1372</ele>
        <time>2018-06-30T07:48:17.008Z</time>
      </trkpt>
      <trkpt lat="40.859608" lon="-3.868858">
        <ele>1372</ele>
        <time>2018-06-30T07:48:20.008Z</time>
      </trkpt>
      <trkpt lat="40.859655" lon="-3.868823">
        <ele>1370</ele>
        <time>2018-06-30T07:48:24.008Z</time>
      </trkpt>
      <trkpt lat="40.859696" lon="-3.868782">
        <ele>1369</ele>
        <time>2018-06-30T07:48:28.008Z</time>
      </trkpt>
      <trkpt lat="40.859741" lon="-3.868748">
        <ele>1368</ele>
        <time>2018-06-30T07:48:32.008Z</time>
      </trkpt>
      <trkpt lat="40.859809" lon="-3.868712">
        <ele>1368</ele>
        <time>2018-06-30T07:48:38.008Z</time>
      </trkpt>
      <trkpt lat="40.859875" lon="-3.86869">
        <ele>1367</ele>
        <time>2018-06-30T07:48:43.008Z</time>
      </trkpt>
      <trkpt lat="40.859936" lon="-3.868679">
        <ele>1367</ele>
        <time>2018-06-30T07:48:48.008Z</time>
      </trkpt>
      <trkpt lat="40.859989" lon="-3.868669">
        <ele>1366</ele>
        <time>2018-06-30T07:48:53.008Z</time>
      </trkpt>
      <trkpt lat="40.860037" lon="-3.86868">
        <ele>1366</ele>
        <time>2018-06-30T07:48:58.008Z</time>
      </trkpt>
      <trkpt lat="40.860089" lon="-3.868694">
        <ele>1365</ele>
        <time>2018-06-30T07:49:02.008Z</time>
      </trkpt>
      <trkpt lat="40.860136" lon="-3.868697">
        <ele>1365</ele>
        <time>2018-06-30T07:49:06.008Z</time>
      </trkpt>
      <trkpt lat="40.860175" lon="-3.868703">
        <ele>1365</ele>
        <time>2018-06-30T07:49:10.008Z</time>
      </trkpt>
      <trkpt lat="40.86022" lon="-3.868702">
        <ele>1364.78606690198</ele>
        <time>2018-06-30T07:49:14.008Z</time>
      </trkpt>
      <trkpt lat="40.86027" lon="-3.868686">
        <ele>1364</ele>
        <time>2018-06-30T07:49:18.008Z</time>
      </trkpt>
      <trkpt lat="40.860313" lon="-3.868683">
        <ele>1363</ele>
        <time>2018-06-30T07:49:22.008Z</time>
      </trkpt>
      <trkpt lat="40.860364" lon="-3.868698">
        <ele>1363</ele>
        <time>2018-06-30T07:49:26.008Z</time>
      </trkpt>
      <trkpt lat="40.860407" lon="-3.868702">
        <ele>1363</ele>
        <time>2018-06-30T07:49:30.008Z</time>
      </trkpt>
      <trkpt lat="40.860453" lon="-3.868705">
        <ele>1362</ele>
        <time>2018-06-30T07:49:33.008Z</time>
      </trkpt>
      <trkpt lat="40.860496" lon="-3.868701">
        <ele>1362</ele>
        <time>2018-06-30T07:49:37.008Z</time>
      </trkpt>
      <trkpt lat="40.860553" lon="-3.868717">
        <ele>1360</ele>
        <time>2018-06-30T07:49:42.008Z</time>
      </trkpt>
      <trkpt lat="40.860604" lon="-3.868725">
        <ele>1360</ele>
        <time>2018-06-30T07:49:46.008Z</time>
      </trkpt>
      <trkpt lat="40.860663" lon="-3.868747">
        <ele>1359.79795723783</ele>
        <time>2018-06-30T07:49:51.008Z</time>
      </trkpt>
      <trkpt lat="40.860713" lon="-3.86878">
        <ele>1359</ele>
        <time>2018-06-30T07:49:55.008Z</time>
      </trkpt>
      <trkpt lat="40.860759" lon="-3.868813">
        <ele>1359</ele>
        <time>2018-06-30T07:49:59.008Z</time>
      </trkpt>
      <trkpt lat="40.860804" lon="-3.868861">
        <ele>1358</ele>
        <time>2018-06-30T07:50:04.008Z</time>
      </trkpt>
      <trkpt lat="40.860844" lon="-3.868904">
        <ele>1358</ele>
        <time>2018-06-30T07:50:08.008Z</time>
      </trkpt>
      <trkpt lat="40.860893" lon="-3.868945">
        <ele>1357</ele>
        <time>2018-06-30T07:50:25.008Z</time>
      </trkpt>
      <trkpt lat="40.860939" lon="-3.868991">
        <ele>1356</ele>
        <time>2018-06-30T07:50:30.008Z</time>
      </trkpt>
      <trkpt lat="40.860984" lon="-3.86904">
        <ele>1357</ele>
        <time>2018-06-30T07:50:35.008Z</time>
      </trkpt>
      <trkpt lat="40.86103" lon="-3.869098">
        <ele>1357</ele>
        <time>2018-06-30T07:50:40.008Z</time>
      </trkpt>
      <trkpt lat="40.861075" lon="-3.869141">
        <ele>1357</ele>
        <time>2018-06-30T07:50:46.008Z</time>
      </trkpt>
      <trkpt lat="40.861112" lon="-3.86919">
        <ele>1356.80618088728</ele>
        <time>2018-06-30T07:50:51.008Z</time>
      </trkpt>
      <trkpt lat="40.861148" lon="-3.869223">
        <ele>1356</ele>
        <time>2018-06-30T07:50:55.008Z</time>
      </trkpt>
      <trkpt lat="40.861187" lon="-3.869254">
        <ele>1356</ele>
        <time>2018-06-30T07:50:59.008Z</time>
      </trkpt>
      <trkpt lat="40.861237" lon="-3.869296">
        <ele>1353</ele>
        <time>2018-06-30T07:51:04.008Z</time>
      </trkpt>
      <trkpt lat="40.861304" lon="-3.869325">
        <ele>1354</ele>
        <time>2018-06-30T07:51:13.008Z</time>
      </trkpt>
      <trkpt lat="40.861354" lon="-3.869341">
        <ele>1354</ele>
        <time>2018-06-30T07:51:17.008Z</time>
      </trkpt>
      <trkpt lat="40.861412" lon="-3.869333">
        <ele>1354</ele>
        <time>2018-06-30T07:51:21.008Z</time>
      </trkpt>
      <trkpt lat="40.86147" lon="-3.869324">
        <ele>1354</ele>
        <time>2018-06-30T07:51:25.008Z</time>
      </trkpt>
      <trkpt lat="40.861528" lon="-3.869299">
        <ele>1354</ele>
        <time>2018-06-30T07:51:29.008Z</time>
      </trkpt>
      <trkpt lat="40.861574" lon="-3.869271">
        <ele>1353</ele>
        <time>2018-06-30T07:51:33.008Z</time>
      </trkpt>
      <trkpt lat="40.861628" lon="-3.869233">
        <ele>1353</ele>
        <time>2018-06-30T07:51:37.008Z</time>
      </trkpt>
      <trkpt lat="40.861691" lon="-3.869192">
        <ele>1353</ele>
        <time>2018-06-30T07:51:40.008Z</time>
      </trkpt>
      <trkpt lat="40.861762" lon="-3.869158">
        <ele>1352</ele>
        <time>2018-06-30T07:51:43.008Z</time>
      </trkpt>
      <trkpt lat="40.861836" lon="-3.869148">
        <ele>1352</ele>
        <time>2018-06-30T07:51:46.008Z</time>
      </trkpt>
      <trkpt lat="40.861916" lon="-3.869172">
        <ele>1352</ele>
        <time>2018-06-30T07:51:50.008Z</time>
      </trkpt>
      <trkpt lat="40.861966" lon="-3.869215">
        <ele>1350</ele>
        <time>2018-06-30T07:51:53.008Z</time>
      </trkpt>
      <trkpt lat="40.862008" lon="-3.869273">
        <ele>1350</ele>
        <time>2018-06-30T07:51:56.008Z</time>
      </trkpt>
      <trkpt lat="40.862047" lon="-3.869331">
        <ele>1350</ele>
        <time>2018-06-30T07:51:59.008Z</time>
      </trkpt>
      <trkpt lat="40.862092" lon="-3.869396">
        <ele>1348</ele>
        <time>2018-06-30T07:52:02.008Z</time>
      </trkpt>
      <trkpt lat="40.86212" lon="-3.869445">
        <ele>1348</ele>
        <time>2018-06-30T07:52:04.008Z</time>
      </trkpt>
      <trkpt lat="40.862156" lon="-3.869495">
        <ele>1348</ele>
        <time>2018-06-30T07:52:06.008Z</time>
      </trkpt>
      <trkpt lat="40.862189" lon="-3.869541">
        <ele>1348</ele>
        <time>2018-06-30T07:52:08.008Z</time>
      </trkpt>
      <trkpt lat="40.862223" lon="-3.869584">
        <ele>1348</ele>
        <time>2018-06-30T07:52:10.008Z</time>
      </trkpt>
      <trkpt lat="40.862255" lon="-3.869628">
        <ele>1348</ele>
        <time>2018-06-30T07:52:12.008Z</time>
      </trkpt>
      <trkpt lat="40.862283" lon="-3.869671">
        <ele>1348</ele>
        <time>2018-06-30T07:52:14.008Z</time>
      </trkpt>
      <trkpt lat="40.862318" lon="-3.869743">
        <ele>1348</ele>
        <time>2018-06-30T07:52:17.008Z</time>
      </trkpt>
      <trkpt lat="40.862344" lon="-3.869822">
        <ele>1348</ele>
        <time>2018-06-30T07:52:20.008Z</time>
      </trkpt>
      <trkpt lat="40.862368" lon="-3.869899">
        <ele>1347</ele>
        <time>2018-06-30T07:52:23.008Z</time>
      </trkpt>
      <trkpt lat="40.862382" lon="-3.869984">
        <ele>1347</ele>
        <time>2018-06-30T07:52:26.008Z</time>
      </trkpt>
      <trkpt lat="40.862392" lon="-3.870074">
        <ele>1347</ele>
        <time>2018-06-30T07:52:29.008Z</time>
      </trkpt>
      <trkpt lat="40.862401" lon="-3.870137">
        <ele>1346.57979933802</ele>
        <time>2018-06-30T07:52:31.008Z</time>
      </trkpt>
      <trkpt lat="40.862409" lon="-3.870197">
        <ele>1345</ele>
        <time>2018-06-30T07:52:33.008Z</time>
      </trkpt>
      <trkpt lat="40.86242" lon="-3.870284">
        <ele>1345</ele>
        <time>2018-06-30T07:52:36.008Z</time>
      </trkpt>
      <trkpt lat="40.862432" lon="-3.870348">
        <ele>1345</ele>
        <time>2018-06-30T07:52:38.008Z</time>
      </trkpt>
      <trkpt lat="40.862449" lon="-3.870436">
        <ele>1344.7377725314</ele>
        <time>2018-06-30T07:52:41.008Z</time>
      </trkpt>
      <trkpt lat="40.862461" lon="-3.870529">
        <ele>1343</ele>
        <time>2018-06-30T07:52:44.008Z</time>
      </trkpt>
      <trkpt lat="40.862474" lon="-3.870615">
        <ele>1343</ele>
        <time>2018-06-30T07:52:47.008Z</time>
      </trkpt>
      <trkpt lat="40.8625" lon="-3.870705">
        <ele>1343</ele>
        <time>2018-06-30T07:52:50.008Z</time>
      </trkpt>
      <trkpt lat="40.862539" lon="-3.870808">
        <ele>1342</ele>
        <time>2018-06-30T07:52:54.008Z</time>
      </trkpt>
      <trkpt lat="40.862595" lon="-3.870893">
        <ele>1342</ele>
        <time>2018-06-30T07:52:57.008Z</time>
      </trkpt>
      <trkpt lat="40.862653" lon="-3.870961">
        <ele>1342</ele>
        <time>2018-06-30T07:53:00.008Z</time>
      </trkpt>
      <trkpt lat="40.862709" lon="-3.871024">
        <ele>1339</ele>
        <time>2018-06-30T07:53:03.008Z</time>
      </trkpt>
      <trkpt lat="40.86277" lon="-3.87109">
        <ele>1339</ele>
        <time>2018-06-30T07:53:06.008Z</time>
      </trkpt>
      <trkpt lat="40.862833" lon="-3.871146">
        <ele>1339</ele>
        <time>2018-06-30T07:53:09.008Z</time>
      </trkpt>
      <trkpt lat="40.862897" lon="-3.871192">
        <ele>1339</ele>
        <time>2018-06-30T07:53:12.008Z</time>
      </trkpt>
      <trkpt lat="40.862963" lon="-3.87125">
        <ele>1339</ele>
        <time>2018-06-30T07:53:15.008Z</time>
      </trkpt>
      <trkpt lat="40.86303" lon="-3.871296">
        <ele>1339</ele>
        <time>2018-06-30T07:53:18.008Z</time>
      </trkpt>
      <trkpt lat="40.863091" lon="-3.871343">
        <ele>1338.79795723783</ele>
        <time>2018-06-30T07:53:21.008Z</time>
      </trkpt>
      <trkpt lat="40.863143" lon="-3.871401">
        <ele>1338</ele>
        <time>2018-06-30T07:53:24.008Z</time>
      </trkpt>
      <trkpt lat="40.863196" lon="-3.871455">
        <ele>1338</ele>
        <time>2018-06-30T07:53:27.008Z</time>
      </trkpt>
      <trkpt lat="40.863227" lon="-3.871498">
        <ele>1338</ele>
        <time>2018-06-30T07:53:29.008Z</time>
      </trkpt>
      <trkpt lat="40.863261" lon="-3.871568">
        <ele>1337</ele>
        <time>2018-06-30T07:53:32.008Z</time>
      </trkpt>
      <trkpt lat="40.863285" lon="-3.87162">
        <ele>1337</ele>
        <time>2018-06-30T07:53:34.008Z</time>
      </trkpt>
      <trkpt lat="40.863322" lon="-3.871694">
        <ele>1337</ele>
        <time>2018-06-30T07:53:37.008Z</time>
      </trkpt>
      <trkpt lat="40.863355" lon="-3.871768">
        <ele>1337</ele>
        <time>2018-06-30T07:53:40.008Z</time>
      </trkpt>
      <trkpt lat="40.863376" lon="-3.871826">
        <ele>1336</ele>
        <time>2018-06-30T07:53:42.008Z</time>
      </trkpt>
      <trkpt lat="40.86341" lon="-3.871902">
        <ele>1336</ele>
        <time>2018-06-30T07:53:45.008Z</time>
      </trkpt>
      <trkpt lat="40.86345" lon="-3.871982">
        <ele>1336</ele>
        <time>2018-06-30T07:53:48.008Z</time>
      </trkpt>
      <trkpt lat="40.863478" lon="-3.872032">
        <ele>1336</ele>
        <time>2018-06-30T07:53:50.008Z</time>
      </trkpt>
      <trkpt lat="40.863503" lon="-3.872086">
        <ele>1336</ele>
        <time>2018-06-30T07:53:52.008Z</time>
      </trkpt>
      <trkpt lat="40.863535" lon="-3.872162">
        <ele>1336</ele>
        <time>2018-06-30T07:53:55.008Z</time>
      </trkpt>
      <trkpt lat="40.863561" lon="-3.872238">
        <ele>1336</ele>
        <time>2018-06-30T07:53:58.008Z</time>
      </trkpt>
      <trkpt lat="40.863589" lon="-3.872325">
        <ele>1334.57979933802</ele>
        <time>2018-06-30T07:54:01.008Z</time>
      </trkpt>
      <trkpt lat="40.863606" lon="-3.872406">
        <ele>1333</ele>
        <time>2018-06-30T07:54:04.008Z</time>
      </trkpt>
      <trkpt lat="40.863614" lon="-3.872473">
        <ele>1333</ele>
        <time>2018-06-30T07:54:06.008Z</time>
      </trkpt>
      <trkpt lat="40.863625" lon="-3.872563">
        <ele>1333</ele>
        <time>2018-06-30T07:54:09.008Z</time>
      </trkpt>
      <trkpt lat="40.863628" lon="-3.872654">
        <ele>1332</ele>
        <time>2018-06-30T07:54:12.008Z</time>
      </trkpt>
      <trkpt lat="40.863631" lon="-3.872745">
        <ele>1332</ele>
        <time>2018-06-30T07:54:15.008Z</time>
      </trkpt>
      <trkpt lat="40.863634" lon="-3.872839">
        <ele>1332</ele>
        <time>2018-06-30T07:54:18.008Z</time>
      </trkpt>
      <trkpt lat="40.863625" lon="-3.872952">
        <ele>1331</ele>
        <time>2018-06-30T07:54:22.008Z</time>
      </trkpt>
      <trkpt lat="40.863619" lon="-3.873073">
        <ele>1331</ele>
        <time>2018-06-30T07:54:26.008Z</time>
      </trkpt>
      <trkpt lat="40.863592" lon="-3.873195">
        <ele>1330</ele>
        <time>2018-06-30T07:54:30.008Z</time>
      </trkpt>
      <trkpt lat="40.863562" lon="-3.87331">
        <ele>1329</ele>
        <time>2018-06-30T07:54:34.008Z</time>
      </trkpt>
      <trkpt lat="40.863527" lon="-3.873425">
        <ele>1329</ele>
        <time>2018-06-30T07:54:38.008Z</time>
      </trkpt>
      <trkpt lat="40.863476" lon="-3.873525">
        <ele>1329</ele>
        <time>2018-06-30T07:54:42.008Z</time>
      </trkpt>
      <trkpt lat="40.863428" lon="-3.873598">
        <ele>1329</ele>
        <time>2018-06-30T07:54:45.008Z</time>
      </trkpt>
      <trkpt lat="40.863385" lon="-3.873675">
        <ele>1329</ele>
        <time>2018-06-30T07:54:48.008Z</time>
      </trkpt>
      <trkpt lat="40.863341" lon="-3.87374">
        <ele>1328.59591447566</ele>
        <time>2018-06-30T07:54:51.008Z</time>
      </trkpt>
      <trkpt lat="40.863289" lon="-3.873801">
        <ele>1327</ele>
        <time>2018-06-30T07:54:54.008Z</time>
      </trkpt>
      <trkpt lat="40.863246" lon="-3.873876">
        <ele>1327</ele>
        <time>2018-06-30T07:54:57.008Z</time>
      </trkpt>
      <trkpt lat="40.863199" lon="-3.873952">
        <ele>1327</ele>
        <time>2018-06-30T07:55:00.008Z</time>
      </trkpt>
      <trkpt lat="40.863164" lon="-3.874044">
        <ele>1326</ele>
        <time>2018-06-30T07:55:03.008Z</time>
      </trkpt>
      <trkpt lat="40.863137" lon="-3.874146">
        <ele>1326</ele>
        <time>2018-06-30T07:55:06.008Z</time>
      </trkpt>
      <trkpt lat="40.863119" lon="-3.874246">
        <ele>1326</ele>
        <time>2018-06-30T07:55:09.008Z</time>
      </trkpt>
      <trkpt lat="40.863103" lon="-3.874343">
        <ele>1325</ele>
        <time>2018-06-30T07:55:12.008Z</time>
      </trkpt>
      <trkpt lat="40.863105" lon="-3.874464">
        <ele>1325</ele>
        <time>2018-06-30T07:55:16.008Z</time>
      </trkpt>
      <trkpt lat="40.863105" lon="-3.874589">
        <ele>1325</ele>
        <time>2018-06-30T07:55:20.008Z</time>
      </trkpt>
      <trkpt lat="40.863111" lon="-3.874695">
        <ele>1322</ele>
        <time>2018-06-30T07:55:23.008Z</time>
      </trkpt>
      <trkpt lat="40.863122" lon="-3.8748">
        <ele>1321.78627630605</ele>
        <time>2018-06-30T07:55:26.008Z</time>
      </trkpt>
      <trkpt lat="40.863131" lon="-3.874906">
        <ele>1321</ele>
        <time>2018-06-30T07:55:29.008Z</time>
      </trkpt>
      <trkpt lat="40.863135" lon="-3.875012">
        <ele>1321</ele>
        <time>2018-06-30T07:55:32.008Z</time>
      </trkpt>
      <trkpt lat="40.863132" lon="-3.875097">
        <ele>1321</ele>
        <time>2018-06-30T07:55:35.008Z</time>
      </trkpt>
      <trkpt lat="40.863122" lon="-3.875188">
        <ele>1321</ele>
        <time>2018-06-30T07:55:38.008Z</time>
      </trkpt>
      <trkpt lat="40.863112" lon="-3.875277">
        <ele>1320.7377725314</ele>
        <time>2018-06-30T07:55:41.008Z</time>
      </trkpt>
      <trkpt lat="40.863089" lon="-3.875364">
        <ele>1319</ele>
        <time>2018-06-30T07:55:44.008Z</time>
      </trkpt>
      <trkpt lat="40.863078" lon="-3.875447">
        <ele>1319</ele>
        <time>2018-06-30T07:55:47.008Z</time>
      </trkpt>
      <trkpt lat="40.863063" lon="-3.875539">
        <ele>1319</ele>
        <time>2018-06-30T07:55:50.008Z</time>
      </trkpt>
      <trkpt lat="40.863042" lon="-3.875632">
        <ele>1319</ele>
        <time>2018-06-30T07:55:53.008Z</time>
      </trkpt>
      <trkpt lat="40.863022" lon="-3.875721">
        <ele>1319</ele>
        <time>2018-06-30T07:55:56.008Z</time>
      </trkpt>
      <trkpt lat="40.862997" lon="-3.875814">
        <ele>1319</ele>
        <time>2018-06-30T07:55:59.008Z</time>
      </trkpt>
      <trkpt lat="40.862974" lon="-3.875908">
        <ele>1315</ele>
        <time>2018-06-30T07:56:02.008Z</time>
      </trkpt>
      <trkpt lat="40.862952" lon="-3.876">
        <ele>1315</ele>
        <time>2018-06-30T07:56:05.008Z</time>
      </trkpt>
      <trkpt lat="40.862932" lon="-3.876097">
        <ele>1315</ele>
        <time>2018-06-30T07:56:08.008Z</time>
      </trkpt>
      <trkpt lat="40.862905" lon="-3.876187">
        <ele>1315</ele>
        <time>2018-06-30T07:56:11.008Z</time>
      </trkpt>
      <trkpt lat="40.862885" lon="-3.87628">
        <ele>1315</ele>
        <time>2018-06-30T07:56:14.008Z</time>
      </trkpt>
      <trkpt lat="40.862873" lon="-3.876381">
        <ele>1315</ele>
        <time>2018-06-30T07:56:17.008Z</time>
      </trkpt>
      <trkpt lat="40.862843" lon="-3.876463">
        <ele>1315</ele>
        <time>2018-06-30T07:56:20.008Z</time>
      </trkpt>
      <trkpt lat="40.862811" lon="-3.876546">
        <ele>1314</ele>
        <time>2018-06-30T07:56:23.008Z</time>
      </trkpt>
      <trkpt lat="40.86278" lon="-3.876634">
        <ele>1314</ele>
        <time>2018-06-30T07:56:26.008Z</time>
      </trkpt>
      <trkpt lat="40.862752" lon="-3.876718">
        <ele>1314</ele>
        <time>2018-06-30T07:56:29.008Z</time>
      </trkpt>
      <trkpt lat="40.862728" lon="-3.876779">
        <ele>1314</ele>
        <time>2018-06-30T07:56:31.008Z</time>
      </trkpt>
      <trkpt lat="40.862702" lon="-3.876835">
        <ele>1314</ele>
        <time>2018-06-30T07:56:33.008Z</time>
      </trkpt>
      <trkpt lat="40.862677" lon="-3.87689">
        <ele>1313</ele>
        <time>2018-06-30T07:56:35.008Z</time>
      </trkpt>
      <trkpt lat="40.862649" lon="-3.876943">
        <ele>1313</ele>
        <time>2018-06-30T07:56:37.008Z</time>
      </trkpt>
      <trkpt lat="40.862623" lon="-3.876995">
        <ele>1313</ele>
        <time>2018-06-30T07:56:39.008Z</time>
      </trkpt>
      <trkpt lat="40.862596" lon="-3.877049">
        <ele>1312.7377725314</ele>
        <time>2018-06-30T07:56:41.008Z</time>
      </trkpt>
      <trkpt lat="40.862557" lon="-3.877124">
        <ele>1311</ele>
        <time>2018-06-30T07:56:44.008Z</time>
      </trkpt>
      <trkpt lat="40.862514" lon="-3.877204">
        <ele>1310</ele>
        <time>2018-06-30T07:56:47.008Z</time>
      </trkpt>
      <trkpt lat="40.862473" lon="-3.877276">
        <ele>1310</ele>
        <time>2018-06-30T07:56:50.008Z</time>
      </trkpt>
      <trkpt lat="40.862443" lon="-3.877328">
        <ele>1310</ele>
        <time>2018-06-30T07:56:52.008Z</time>
      </trkpt>
      <trkpt lat="40.86241" lon="-3.877377">
        <ele>1310</ele>
        <time>2018-06-30T07:56:54.008Z</time>
      </trkpt>
      <trkpt lat="40.862379" lon="-3.877426">
        <ele>1310</ele>
        <time>2018-06-30T07:56:56.008Z</time>
      </trkpt>
      <trkpt lat="40.862346" lon="-3.877467">
        <ele>1310</ele>
        <time>2018-06-30T07:56:58.008Z</time>
      </trkpt>
      <trkpt lat="40.862313" lon="-3.87751">
        <ele>1310</ele>
        <time>2018-06-30T07:57:00.008Z</time>
      </trkpt>
      <trkpt lat="40.862271" lon="-3.877551">
        <ele>1308</ele>
        <time>2018-06-30T07:57:02.008Z</time>
      </trkpt>
      <trkpt lat="40.862231" lon="-3.877587">
        <ele>1308</ele>
        <time>2018-06-30T07:57:04.008Z</time>
      </trkpt>
      <trkpt lat="40.862187" lon="-3.877613">
        <ele>1308</ele>
        <time>2018-06-30T07:57:06.008Z</time>
      </trkpt>
      <trkpt lat="40.862125" lon="-3.877639">
        <ele>1308</ele>
        <time>2018-06-30T07:57:09.008Z</time>
      </trkpt>
      <trkpt lat="40.862063" lon="-3.877659">
        <ele>1308</ele>
        <time>2018-06-30T07:57:12.008Z</time>
      </trkpt>
      <trkpt lat="40.861998" lon="-3.877684">
        <ele>1307.79795723783</ele>
        <time>2018-06-30T07:57:15.008Z</time>
      </trkpt>
      <trkpt lat="40.861928" lon="-3.877707">
        <ele>1307</ele>
        <time>2018-06-30T07:57:18.008Z</time>
      </trkpt>
      <trkpt lat="40.861869" lon="-3.877737">
        <ele>1306.79795723783</ele>
        <time>2018-06-30T07:57:21.008Z</time>
      </trkpt>
      <trkpt lat="40.861809" lon="-3.877767">
        <ele>1306</ele>
        <time>2018-06-30T07:57:24.008Z</time>
      </trkpt>
      <trkpt lat="40.861727" lon="-3.877795">
        <ele>1305.79795723783</ele>
        <time>2018-06-30T07:57:27.008Z</time>
      </trkpt>
      <trkpt lat="40.86165" lon="-3.877825">
        <ele>1305</ele>
        <time>2018-06-30T07:57:30.008Z</time>
      </trkpt>
      <trkpt lat="40.861578" lon="-3.877827">
        <ele>1304</ele>
        <time>2018-06-30T07:57:33.008Z</time>
      </trkpt>
      <trkpt lat="40.861511" lon="-3.877817">
        <ele>1304</ele>
        <time>2018-06-30T07:57:36.008Z</time>
      </trkpt>
      <trkpt lat="40.86146" lon="-3.877772">
        <ele>1303.79795723783</ele>
        <time>2018-06-30T07:57:39.008Z</time>
      </trkpt>
      <trkpt lat="40.861411" lon="-3.877715">
        <ele>1303</ele>
        <time>2018-06-30T07:57:42.008Z</time>
      </trkpt>
      <trkpt lat="40.861372" lon="-3.877644">
        <ele>1302.79795723783</ele>
        <time>2018-06-30T07:57:45.008Z</time>
      </trkpt>
      <trkpt lat="40.86134" lon="-3.877561">
        <ele>1302</ele>
        <time>2018-06-30T07:57:48.008Z</time>
      </trkpt>
      <trkpt lat="40.861299" lon="-3.877491">
        <ele>1301.59591447566</ele>
        <time>2018-06-30T07:57:51.008Z</time>
      </trkpt>
      <trkpt lat="40.861251" lon="-3.877455">
        <ele>1300</ele>
        <time>2018-06-30T07:57:53.008Z</time>
      </trkpt>
      <trkpt lat="40.861193" lon="-3.877433">
        <ele>1300</ele>
        <time>2018-06-30T07:57:55.008Z</time>
      </trkpt>
      <trkpt lat="40.861139" lon="-3.877424">
        <ele>1299</ele>
        <time>2018-06-30T07:57:57.008Z</time>
      </trkpt>
      <trkpt lat="40.861061" lon="-3.877415">
        <ele>1299</ele>
        <time>2018-06-30T07:58:00.008Z</time>
      </trkpt>
      <trkpt lat="40.860982" lon="-3.877403">
        <ele>1299</ele>
        <time>2018-06-30T07:58:03.008Z</time>
      </trkpt>
      <trkpt lat="40.860912" lon="-3.877393">
        <ele>1299</ele>
        <time>2018-06-30T07:58:06.008Z</time>
      </trkpt>
      <trkpt lat="40.860838" lon="-3.877383">
        <ele>1298.79795723783</ele>
        <time>2018-06-30T07:58:09.008Z</time>
      </trkpt>
      <trkpt lat="40.860766" lon="-3.877372">
        <ele>1298</ele>
        <time>2018-06-30T07:58:12.008Z</time>
      </trkpt>
      <trkpt lat="40.860708" lon="-3.877344">
        <ele>1297.79795723783</ele>
        <time>2018-06-30T07:58:15.008Z</time>
      </trkpt>
      <trkpt lat="40.860638" lon="-3.877305">
        <ele>1297</ele>
        <time>2018-06-30T07:58:18.008Z</time>
      </trkpt>
      <trkpt lat="40.860582" lon="-3.877259">
        <ele>1296.79795723783</ele>
        <time>2018-06-30T07:58:21.008Z</time>
      </trkpt>
      <trkpt lat="40.860536" lon="-3.8772">
        <ele>1296</ele>
        <time>2018-06-30T07:58:24.008Z</time>
      </trkpt>
      <trkpt lat="40.860486" lon="-3.87713">
        <ele>1296</ele>
        <time>2018-06-30T07:58:27.008Z</time>
      </trkpt>
      <trkpt lat="40.860432" lon="-3.877067">
        <ele>1296</ele>
        <time>2018-06-30T07:58:30.008Z</time>
      </trkpt>
      <trkpt lat="40.860364" lon="-3.877068">
        <ele>1295</ele>
        <time>2018-06-30T07:58:32.008Z</time>
      </trkpt>
      <trkpt lat="40.860316" lon="-3.877153">
        <ele>1294</ele>
        <time>2018-06-30T07:58:35.008Z</time>
      </trkpt>
      <trkpt lat="40.860362" lon="-3.877263">
        <ele>1294</ele>
        <time>2018-06-30T07:58:38.008Z</time>
      </trkpt>
      <trkpt lat="40.860406" lon="-3.877343">
        <ele>1293.8688862657</ele>
        <time>2018-06-30T07:58:41.008Z</time>
      </trkpt>
      <trkpt lat="40.860454" lon="-3.877411">
        <ele>1293</ele>
        <time>2018-06-30T07:58:44.008Z</time>
      </trkpt>
      <trkpt lat="40.86052" lon="-3.877498">
        <ele>1292</ele>
        <time>2018-06-30T07:58:48.008Z</time>
      </trkpt>
      <trkpt lat="40.860574" lon="-3.877568">
        <ele>1291.79795723783</ele>
        <time>2018-06-30T07:58:51.008Z</time>
      </trkpt>
      <trkpt lat="40.86065" lon="-3.877644">
        <ele>1291</ele>
        <time>2018-06-30T07:58:55.008Z</time>
      </trkpt>
      <trkpt lat="40.860724" lon="-3.877701">
        <ele>1291</ele>
        <time>2018-06-30T07:58:59.008Z</time>
      </trkpt>
      <trkpt lat="40.860789" lon="-3.877748">
        <ele>1290</ele>
        <time>2018-06-30T07:59:02.008Z</time>
      </trkpt>
      <trkpt lat="40.86086" lon="-3.877781">
        <ele>1290</ele>
        <time>2018-06-30T07:59:05.008Z</time>
      </trkpt>
      <trkpt lat="40.860913" lon="-3.877843">
        <ele>1290</ele>
        <time>2018-06-30T07:59:08.008Z</time>
      </trkpt>
      <trkpt lat="40.86091" lon="-3.877944">
        <ele>1290</ele>
        <time>2018-06-30T07:59:12.008Z</time>
      </trkpt>
      <trkpt lat="40.860876" lon="-3.878016">
        <ele>1290</ele>
        <time>2018-06-30T07:59:15.008Z</time>
      </trkpt>
      <trkpt lat="40.860831" lon="-3.878099">
        <ele>1290</ele>
        <time>2018-06-30T07:59:18.008Z</time>
      </trkpt>
      <trkpt lat="40.860793" lon="-3.87819">
        <ele>1290</ele>
        <time>2018-06-30T07:59:21.008Z</time>
      </trkpt>
      <trkpt lat="40.860769" lon="-3.878285">
        <ele>1290</ele>
        <time>2018-06-30T07:59:24.008Z</time>
      </trkpt>
      <trkpt lat="40.860759" lon="-3.878385">
        <ele>1290</ele>
        <time>2018-06-30T07:59:27.008Z</time>
      </trkpt>
      <trkpt lat="40.860763" lon="-3.878477">
        <ele>1290</ele>
        <time>2018-06-30T07:59:30.008Z</time>
      </trkpt>
      <trkpt lat="40.860758" lon="-3.878574">
        <ele>1289</ele>
        <time>2018-06-30T07:59:33.008Z</time>
      </trkpt>
      <trkpt lat="40.860751" lon="-3.87867">
        <ele>1289</ele>
        <time>2018-06-30T07:59:36.008Z</time>
      </trkpt>
      <trkpt lat="40.860752" lon="-3.878764">
        <ele>1289</ele>
        <time>2018-06-30T07:59:39.008Z</time>
      </trkpt>
      <trkpt lat="40.860743" lon="-3.878865">
        <ele>1289</ele>
        <time>2018-06-30T07:59:42.008Z</time>
      </trkpt>
      <trkpt lat="40.860738" lon="-3.878964">
        <ele>1289</ele>
        <time>2018-06-30T07:59:45.008Z</time>
      </trkpt>
      <trkpt lat="40.860737" lon="-3.879064">
        <ele>1289</ele>
        <time>2018-06-30T07:59:48.008Z</time>
      </trkpt>
      <trkpt lat="40.860743" lon="-3.87916">
        <ele>1289</ele>
        <time>2018-06-30T07:59:51.008Z</time>
      </trkpt>
      <trkpt lat="40.860753" lon="-3.879249">
        <ele>1289</ele>
        <time>2018-06-30T07:59:54.008Z</time>
      </trkpt>
      <trkpt lat="40.860762" lon="-3.879342">
        <ele>1289</ele>
        <time>2018-06-30T07:59:57.008Z</time>
      </trkpt>
      <trkpt lat="40.860771" lon="-3.879399">
        <ele>1289</ele>
        <time>2018-06-30T07:59:59.008Z</time>
      </trkpt>
      <trkpt lat="40.86078" lon="-3.879464">
        <ele>1288.66592</ele>
        <time>2018-06-30T08:00:01.008Z</time>
      </trkpt>
      <trkpt lat="40.860796" lon="-3.879526">
        <ele>1286</ele>
        <time>2018-06-30T08:00:03.008Z</time>
      </trkpt>
      <trkpt lat="40.86081" lon="-3.879587">
        <ele>1286</ele>
        <time>2018-06-30T08:00:05.008Z</time>
      </trkpt>
      <trkpt lat="40.860823" lon="-3.879648">
        <ele>1287</ele>
        <time>2018-06-30T08:00:07.008Z</time>
      </trkpt>
      <trkpt lat="40.860837" lon="-3.879709">
        <ele>1287</ele>
        <time>2018-06-30T08:00:09.008Z</time>
      </trkpt>
      <trkpt lat="40.860851" lon="-3.879767">
        <ele>1287</ele>
        <time>2018-06-30T08:00:11.008Z</time>
      </trkpt>
      <trkpt lat="40.860865" lon="-3.879829">
        <ele>1287</ele>
        <time>2018-06-30T08:00:13.008Z</time>
      </trkpt>
      <trkpt lat="40.860879" lon="-3.879891">
        <ele>1287</ele>
        <time>2018-06-30T08:00:15.008Z</time>
      </trkpt>
      <trkpt lat="40.860898" lon="-3.879952">
        <ele>1287</ele>
        <time>2018-06-30T08:00:17.008Z</time>
      </trkpt>
      <trkpt lat="40.860923" lon="-3.880011">
        <ele>1287</ele>
        <time>2018-06-30T08:00:19.008Z</time>
      </trkpt>
      <trkpt lat="40.860956" lon="-3.880068">
        <ele>1286.79795723783</ele>
        <time>2018-06-30T08:00:21.008Z</time>
      </trkpt>
      <trkpt lat="40.860998" lon="-3.880114">
        <ele>1286</ele>
        <time>2018-06-30T08:00:23.008Z</time>
      </trkpt>
      <trkpt lat="40.861044" lon="-3.880148">
        <ele>1286</ele>
        <time>2018-06-30T08:00:25.008Z</time>
      </trkpt>
      <trkpt lat="40.861092" lon="-3.880176">
        <ele>1286</ele>
        <time>2018-06-30T08:00:27.008Z</time>
      </trkpt>
      <trkpt lat="40.861144" lon="-3.88019">
        <ele>1286</ele>
        <time>2018-06-30T08:00:29.008Z</time>
      </trkpt>
      <trkpt lat="40.861194" lon="-3.880199">
        <ele>1286</ele>
        <time>2018-06-30T08:00:31.008Z</time>
      </trkpt>
      <trkpt lat="40.861246" lon="-3.880204">
        <ele>1286</ele>
        <time>2018-06-30T08:00:33.008Z</time>
      </trkpt>
      <trkpt lat="40.861323" lon="-3.880204">
        <ele>1286</ele>
        <time>2018-06-30T08:00:36.008Z</time>
      </trkpt>
      <trkpt lat="40.861397" lon="-3.880192">
        <ele>1286</ele>
        <time>2018-06-30T08:00:39.008Z</time>
      </trkpt>
      <trkpt lat="40.861472" lon="-3.880186">
        <ele>1285</ele>
        <time>2018-06-30T08:00:42.008Z</time>
      </trkpt>
      <trkpt lat="40.861535" lon="-3.880172">
        <ele>1285</ele>
        <time>2018-06-30T08:00:45.008Z</time>
      </trkpt>
      <trkpt lat="40.86162" lon="-3.88015">
        <ele>1285</ele>
        <time>2018-06-30T08:00:49.008Z</time>
      </trkpt>
      <trkpt lat="40.861691" lon="-3.880133">
        <ele>1283</ele>
        <time>2018-06-30T08:00:52.008Z</time>
      </trkpt>
      <trkpt lat="40.861772" lon="-3.880113">
        <ele>1283</ele>
        <time>2018-06-30T08:00:56.008Z</time>
      </trkpt>
      <trkpt lat="40.861867" lon="-3.8801">
        <ele>1283</ele>
        <time>2018-06-30T08:01:00.008Z</time>
      </trkpt>
      <trkpt lat="40.861968" lon="-3.880098">
        <ele>1281</ele>
        <time>2018-06-30T08:01:04.008Z</time>
      </trkpt>
      <trkpt lat="40.86205" lon="-3.88011">
        <ele>1281</ele>
        <time>2018-06-30T08:01:08.008Z</time>
      </trkpt>
      <trkpt lat="40.862138" lon="-3.880137">
        <ele>1280</ele>
        <time>2018-06-30T08:01:12.008Z</time>
      </trkpt>
      <trkpt lat="40.862229" lon="-3.880149">
        <ele>1280</ele>
        <time>2018-06-30T08:01:16.008Z</time>
      </trkpt>
      <trkpt lat="40.862302" lon="-3.880172">
        <ele>1280</ele>
        <time>2018-06-30T08:01:19.008Z</time>
      </trkpt>
      <trkpt lat="40.86238" lon="-3.88019">
        <ele>1279</ele>
        <time>2018-06-30T08:01:23.008Z</time>
      </trkpt>
      <trkpt lat="40.86247" lon="-3.88021">
        <ele>1279</ele>
        <time>2018-06-30T08:01:27.008Z</time>
      </trkpt>
      <trkpt lat="40.862572" lon="-3.880203">
        <ele>1278.57979933802</ele>
        <time>2018-06-30T08:01:31.008Z</time>
      </trkpt>
      <trkpt lat="40.862648" lon="-3.880192">
        <ele>1277</ele>
        <time>2018-06-30T08:01:34.008Z</time>
      </trkpt>
      <trkpt lat="40.862728" lon="-3.880184">
        <ele>1277</ele>
        <time>2018-06-30T08:01:37.008Z</time>
      </trkpt>
      <trkpt lat="40.86282" lon="-3.88019">
        <ele>1276.8688862657</ele>
        <time>2018-06-30T08:01:41.008Z</time>
      </trkpt>
      <trkpt lat="40.862897" lon="-3.880236">
        <ele>1276</ele>
        <time>2018-06-30T08:01:45.008Z</time>
      </trkpt>
      <trkpt lat="40.862962" lon="-3.880277">
        <ele>1276</ele>
        <time>2018-06-30T08:01:48.008Z</time>
      </trkpt>
      <trkpt lat="40.863022" lon="-3.880315">
        <ele>1275.79795723783</ele>
        <time>2018-06-30T08:01:51.008Z</time>
      </trkpt>
      <trkpt lat="40.863104" lon="-3.880352">
        <ele>1275</ele>
        <time>2018-06-30T08:01:54.008Z</time>
      </trkpt>
      <trkpt lat="40.863174" lon="-3.880371">
        <ele>1275</ele>
        <time>2018-06-30T08:01:57.008Z</time>
      </trkpt>
      <trkpt lat="40.863258" lon="-3.880381">
        <ele>1275</ele>
        <time>2018-06-30T08:02:00.008Z</time>
      </trkpt>
      <trkpt lat="40.86334" lon="-3.880382">
        <ele>1273</ele>
        <time>2018-06-30T08:02:03.008Z</time>
      </trkpt>
      <trkpt lat="40.863416" lon="-3.880366">
        <ele>1273</ele>
        <time>2018-06-30T08:02:06.008Z</time>
      </trkpt>
      <trkpt lat="40.863494" lon="-3.880347">
        <ele>1273</ele>
        <time>2018-06-30T08:02:09.008Z</time>
      </trkpt>
      <trkpt lat="40.863545" lon="-3.880313">
        <ele>1272.8688862657</ele>
        <time>2018-06-30T08:02:11.008Z</time>
      </trkpt>
      <trkpt lat="40.863611" lon="-3.880252">
        <ele>1272</ele>
        <time>2018-06-30T08:02:14.008Z</time>
      </trkpt>
      <trkpt lat="40.863669" lon="-3.880164">
        <ele>1272</ele>
        <time>2018-06-30T08:02:18.008Z</time>
      </trkpt>
      <trkpt lat="40.863726" lon="-3.880099">
        <ele>1271.59591447566</ele>
        <time>2018-06-30T08:02:21.008Z</time>
      </trkpt>
      <trkpt lat="40.863779" lon="-3.88004">
        <ele>1270</ele>
        <time>2018-06-30T08:02:24.008Z</time>
      </trkpt>
      <trkpt lat="40.863855" lon="-3.879962">
        <ele>1270</ele>
        <time>2018-06-30T08:02:28.008Z</time>
      </trkpt>
      <trkpt lat="40.863923" lon="-3.879901">
        <ele>1269.78989966901</ele>
        <time>2018-06-30T08:02:31.008Z</time>
      </trkpt>
      <trkpt lat="40.863997" lon="-3.879839">
        <ele>1269</ele>
        <time>2018-06-30T08:02:34.008Z</time>
      </trkpt>
      <trkpt lat="40.864059" lon="-3.879783">
        <ele>1269</ele>
        <time>2018-06-30T08:02:37.008Z</time>
      </trkpt>
      <trkpt lat="40.864109" lon="-3.879731">
        <ele>1269</ele>
        <time>2018-06-30T08:02:40.008Z</time>
      </trkpt>
      <trkpt lat="40.864173" lon="-3.879674">
        <ele>1267</ele>
        <time>2018-06-30T08:02:43.008Z</time>
      </trkpt>
      <trkpt lat="40.86424" lon="-3.879624">
        <ele>1267</ele>
        <time>2018-06-30T08:02:46.008Z</time>
      </trkpt>
      <trkpt lat="40.864309" lon="-3.879574">
        <ele>1267</ele>
        <time>2018-06-30T08:02:49.008Z</time>
      </trkpt>
      <trkpt lat="40.864362" lon="-3.879513">
        <ele>1266</ele>
        <time>2018-06-30T08:02:52.008Z</time>
      </trkpt>
      <trkpt lat="40.864416" lon="-3.879453">
        <ele>1266</ele>
        <time>2018-06-30T08:02:55.008Z</time>
      </trkpt>
      <trkpt lat="40.864486" lon="-3.879396">
        <ele>1266</ele>
        <time>2018-06-30T08:02:58.008Z</time>
      </trkpt>
      <trkpt lat="40.864563" lon="-3.879342">
        <ele>1265.57979933802</ele>
        <time>2018-06-30T08:03:01.008Z</time>
      </trkpt>
      <trkpt lat="40.864644" lon="-3.879275">
        <ele>1264</ele>
        <time>2018-06-30T08:03:05.008Z</time>
      </trkpt>
      <trkpt lat="40.864712" lon="-3.87923">
        <ele>1263</ele>
        <time>2018-06-30T08:03:08.008Z</time>
      </trkpt>
      <trkpt lat="40.864795" lon="-3.879177">
        <ele>1262</ele>
        <time>2018-06-30T08:03:12.008Z</time>
      </trkpt>
      <trkpt lat="40.864882" lon="-3.879123">
        <ele>1262</ele>
        <time>2018-06-30T08:03:16.008Z</time>
      </trkpt>
      <trkpt lat="40.864961" lon="-3.879071">
        <ele>1262</ele>
        <time>2018-06-30T08:03:20.008Z</time>
      </trkpt>
      <trkpt lat="40.865034" lon="-3.879041">
        <ele>1261</ele>
        <time>2018-06-30T08:03:23.008Z</time>
      </trkpt>
      <trkpt lat="40.865093" lon="-3.87902">
        <ele>1261</ele>
        <time>2018-06-30T08:03:25.008Z</time>
      </trkpt>
      <trkpt lat="40.865184" lon="-3.878988">
        <ele>1261</ele>
        <time>2018-06-30T08:03:28.008Z</time>
      </trkpt>
      <trkpt lat="40.865258" lon="-3.878955">
        <ele>1260.57979933802</ele>
        <time>2018-06-30T08:03:31.008Z</time>
      </trkpt>
      <trkpt lat="40.865341" lon="-3.878921">
        <ele>1259</ele>
        <time>2018-06-30T08:03:35.008Z</time>
      </trkpt>
      <trkpt lat="40.865431" lon="-3.878875">
        <ele>1259</ele>
        <time>2018-06-30T08:03:39.008Z</time>
      </trkpt>
      <trkpt lat="40.865518" lon="-3.87885">
        <ele>1257</ele>
        <time>2018-06-30T08:03:42.008Z</time>
      </trkpt>
      <trkpt lat="40.865594" lon="-3.878827">
        <ele>1257</ele>
        <time>2018-06-30T08:03:45.008Z</time>
      </trkpt>
      <trkpt lat="40.865662" lon="-3.878822">
        <ele>1257</ele>
        <time>2018-06-30T08:03:48.008Z</time>
      </trkpt>
      <trkpt lat="40.865731" lon="-3.878823">
        <ele>1256.59591447566</ele>
        <time>2018-06-30T08:03:51.008Z</time>
      </trkpt>
      <trkpt lat="40.865795" lon="-3.878848">
        <ele>1255</ele>
        <time>2018-06-30T08:03:54.008Z</time>
      </trkpt>
      <trkpt lat="40.865864" lon="-3.878875">
        <ele>1255</ele>
        <time>2018-06-30T08:03:57.008Z</time>
      </trkpt>
      <trkpt lat="40.865911" lon="-3.878896">
        <ele>1255</ele>
        <time>2018-06-30T08:03:59.008Z</time>
      </trkpt>
      <trkpt lat="40.86596" lon="-3.878907">
        <ele>1254.36969900703</ele>
        <time>2018-06-30T08:04:01.008Z</time>
      </trkpt>
      <trkpt lat="40.866013" lon="-3.878899">
        <ele>1252</ele>
        <time>2018-06-30T08:04:03.008Z</time>
      </trkpt>
      <trkpt lat="40.866066" lon="-3.87889">
        <ele>1252</ele>
        <time>2018-06-30T08:04:05.008Z</time>
      </trkpt>
      <trkpt lat="40.866114" lon="-3.87888">
        <ele>1252</ele>
        <time>2018-06-30T08:04:07.008Z</time>
      </trkpt>
      <trkpt lat="40.866166" lon="-3.878853">
        <ele>1252</ele>
        <time>2018-06-30T08:04:09.008Z</time>
      </trkpt>
      <trkpt lat="40.866211" lon="-3.878814">
        <ele>1252</ele>
        <time>2018-06-30T08:04:11.008Z</time>
      </trkpt>
      <trkpt lat="40.866255" lon="-3.878771">
        <ele>1252</ele>
        <time>2018-06-30T08:04:13.008Z</time>
      </trkpt>
      <trkpt lat="40.86631" lon="-3.878703">
        <ele>1252</ele>
        <time>2018-06-30T08:04:16.008Z</time>
      </trkpt>
      <trkpt lat="40.86636" lon="-3.878636">
        <ele>1252</ele>
        <time>2018-06-30T08:04:19.008Z</time>
      </trkpt>
      <trkpt lat="40.866395" lon="-3.878536">
        <ele>1251</ele>
        <time>2018-06-30T08:04:22.008Z</time>
      </trkpt>
      <trkpt lat="40.866418" lon="-3.87846">
        <ele>1251</ele>
        <time>2018-06-30T08:04:24.008Z</time>
      </trkpt>
      <trkpt lat="40.866439" lon="-3.878396">
        <ele>1251</ele>
        <time>2018-06-30T08:04:26.008Z</time>
      </trkpt>
      <trkpt lat="40.866474" lon="-3.878306">
        <ele>1251</ele>
        <time>2018-06-30T08:04:29.008Z</time>
      </trkpt>
      <trkpt lat="40.866495" lon="-3.878208">
        <ele>1250</ele>
        <time>2018-06-30T08:04:32.008Z</time>
      </trkpt>
      <trkpt lat="40.866498" lon="-3.878107">
        <ele>1250</ele>
        <time>2018-06-30T08:04:35.008Z</time>
      </trkpt>
      <trkpt lat="40.866498" lon="-3.878017">
        <ele>1250</ele>
        <time>2018-06-30T08:04:38.008Z</time>
      </trkpt>
      <trkpt lat="40.866516" lon="-3.877911">
        <ele>1249</ele>
        <time>2018-06-30T08:04:42.008Z</time>
      </trkpt>
      <trkpt lat="40.866557" lon="-3.877812">
        <ele>1249</ele>
        <time>2018-06-30T08:04:46.008Z</time>
      </trkpt>
      <trkpt lat="40.866616" lon="-3.877711">
        <ele>1249</ele>
        <time>2018-06-30T08:04:50.008Z</time>
      </trkpt>
      <trkpt lat="40.866668" lon="-3.877629">
        <ele>1248</ele>
        <time>2018-06-30T08:04:53.008Z</time>
      </trkpt>
      <trkpt lat="40.866718" lon="-3.877545">
        <ele>1248</ele>
        <time>2018-06-30T08:04:56.008Z</time>
      </trkpt>
      <trkpt lat="40.86676" lon="-3.87744">
        <ele>1248</ele>
        <time>2018-06-30T08:05:00.008Z</time>
      </trkpt>
      <trkpt lat="40.8668" lon="-3.877356">
        <ele>1245</ele>
        <time>2018-06-30T08:05:03.008Z</time>
      </trkpt>
      <trkpt lat="40.86685" lon="-3.877274">
        <ele>1245</ele>
        <time>2018-06-30T08:05:06.008Z</time>
      </trkpt>
      <trkpt lat="40.866898" lon="-3.877189">
        <ele>1245</ele>
        <time>2018-06-30T08:05:09.008Z</time>
      </trkpt>
      <trkpt lat="40.86696" lon="-3.877091">
        <ele>1245</ele>
        <time>2018-06-30T08:05:13.008Z</time>
      </trkpt>
      <trkpt lat="40.867026" lon="-3.876994">
        <ele>1245</ele>
        <time>2018-06-30T08:05:17.008Z</time>
      </trkpt>
      <trkpt lat="40.867091" lon="-3.876905">
        <ele>1244.79795723783</ele>
        <time>2018-06-30T08:05:21.008Z</time>
      </trkpt>
      <trkpt lat="40.86715" lon="-3.876823">
        <ele>1244</ele>
        <time>2018-06-30T08:05:25.008Z</time>
      </trkpt>
      <trkpt lat="40.867217" lon="-3.876746">
        <ele>1244</ele>
        <time>2018-06-30T08:05:29.008Z</time>
      </trkpt>
      <trkpt lat="40.867272" lon="-3.876672">
        <ele>1242</ele>
        <time>2018-06-30T08:05:32.008Z</time>
      </trkpt>
      <trkpt lat="40.867324" lon="-3.876593">
        <ele>1242</ele>
        <time>2018-06-30T08:05:35.008Z</time>
      </trkpt>
      <trkpt lat="40.867364" lon="-3.876507">
        <ele>1242</ele>
        <time>2018-06-30T08:05:38.008Z</time>
      </trkpt>
      <trkpt lat="40.867387" lon="-3.876417">
        <ele>1241.7377725314</ele>
        <time>2018-06-30T08:05:41.008Z</time>
      </trkpt>
      <trkpt lat="40.86743" lon="-3.876309">
        <ele>1240</ele>
        <time>2018-06-30T08:05:45.008Z</time>
      </trkpt>
      <trkpt lat="40.867471" lon="-3.876194">
        <ele>1240</ele>
        <time>2018-06-30T08:05:49.008Z</time>
      </trkpt>
      <trkpt lat="40.867497" lon="-3.8761">
        <ele>1239</ele>
        <time>2018-06-30T08:05:52.008Z</time>
      </trkpt>
      <trkpt lat="40.867536" lon="-3.875993">
        <ele>1239</ele>
        <time>2018-06-30T08:05:56.008Z</time>
      </trkpt>
      <trkpt lat="40.867594" lon="-3.875885">
        <ele>1239</ele>
        <time>2018-06-30T08:06:00.008Z</time>
      </trkpt>
      <trkpt lat="40.867651" lon="-3.875802">
        <ele>1236</ele>
        <time>2018-06-30T08:06:03.008Z</time>
      </trkpt>
      <trkpt lat="40.867704" lon="-3.875719">
        <ele>1236</ele>
        <time>2018-06-30T08:06:06.008Z</time>
      </trkpt>
      <trkpt lat="40.867765" lon="-3.875653">
        <ele>1236</ele>
        <time>2018-06-30T08:06:09.008Z</time>
      </trkpt>
      <trkpt lat="40.867837" lon="-3.875559">
        <ele>1236</ele>
        <time>2018-06-30T08:06:13.008Z</time>
      </trkpt>
      <trkpt lat="40.867887" lon="-3.875491">
        <ele>1236</ele>
        <time>2018-06-30T08:06:16.008Z</time>
      </trkpt>
      <trkpt lat="40.867942" lon="-3.875426">
        <ele>1236</ele>
        <time>2018-06-30T08:06:19.008Z</time>
      </trkpt>
      <trkpt lat="40.868008" lon="-3.875341">
        <ele>1235</ele>
        <time>2018-06-30T08:06:23.008Z</time>
      </trkpt>
      <trkpt lat="40.868065" lon="-3.875264">
        <ele>1235</ele>
        <time>2018-06-30T08:06:27.008Z</time>
      </trkpt>
      <trkpt lat="40.868121" lon="-3.875211">
        <ele>1233</ele>
        <time>2018-06-30T08:06:32.008Z</time>
      </trkpt>
      <trkpt lat="40.868174" lon="-3.875152">
        <ele>1233</ele>
        <time>2018-06-30T08:06:37.008Z</time>
      </trkpt>
      <trkpt lat="40.868224" lon="-3.875107">
        <ele>1232</ele>
        <time>2018-06-30T08:06:42.008Z</time>
      </trkpt>
      <trkpt lat="40.868268" lon="-3.875063">
        <ele>1232</ele>
        <time>2018-06-30T08:06:46.008Z</time>
      </trkpt>
      <trkpt lat="40.868325" lon="-3.874999">
        <ele>1231</ele>
        <time>2018-06-30T08:06:52.008Z</time>
      </trkpt>
      <trkpt lat="40.868376" lon="-3.874941">
        <ele>1231</ele>
        <time>2018-06-30T08:06:57.008Z</time>
      </trkpt>
      <trkpt lat="40.868427" lon="-3.874886">
        <ele>1229</ele>
        <time>2018-06-30T08:07:02.008Z</time>
      </trkpt>
      <trkpt lat="40.868479" lon="-3.874822">
        <ele>1229</ele>
        <time>2018-06-30T08:07:08.008Z</time>
      </trkpt>
      <trkpt lat="40.868553" lon="-3.874771">
        <ele>1229</ele>
        <time>2018-06-30T08:07:15.008Z</time>
      </trkpt>
      <trkpt lat="40.868629" lon="-3.874731">
        <ele>1229</ele>
        <time>2018-06-30T08:07:20.008Z</time>
      </trkpt>
      <trkpt lat="40.868701" lon="-3.874677">
        <ele>1228</ele>
        <time>2018-06-30T08:07:27.008Z</time>
      </trkpt>
      <trkpt lat="40.868774" lon="-3.874619">
        <ele>1228</ele>
        <time>2018-06-30T08:07:34.008Z</time>
      </trkpt>
      <trkpt lat="40.868854" lon="-3.874558">
        <ele>1228</ele>
        <time>2018-06-30T08:07:40.008Z</time>
      </trkpt>
      <trkpt lat="40.868934" lon="-3.874561">
        <ele>1228</ele>
        <time>2018-06-30T08:07:48.008Z</time>
      </trkpt>
      <trkpt lat="40.869009" lon="-3.87455">
        <ele>1227</ele>
        <time>2018-06-30T08:07:53.008Z</time>
      </trkpt>
      <trkpt lat="40.869074" lon="-3.874515">
        <ele>1227</ele>
        <time>2018-06-30T08:07:57.008Z</time>
      </trkpt>
      <trkpt lat="40.869145" lon="-3.874493">
        <ele>1227</ele>
        <time>2018-06-30T08:08:02.008Z</time>
      </trkpt>
      <trkpt lat="40.869206" lon="-3.874471">
        <ele>1227</ele>
        <time>2018-06-30T08:08:06.008Z</time>
      </trkpt>
      <trkpt lat="40.869265" lon="-3.874445">
        <ele>1227</ele>
        <time>2018-06-30T08:08:11.008Z</time>
      </trkpt>
      <trkpt lat="40.869313" lon="-3.874426">
        <ele>1227</ele>
        <time>2018-06-30T08:08:14.008Z</time>
      </trkpt>
      <trkpt lat="40.869355" lon="-3.874406">
        <ele>1227</ele>
        <time>2018-06-30T08:08:17.008Z</time>
      </trkpt>
      <trkpt lat="40.8694" lon="-3.874387">
        <ele>1226.79795723783</ele>
        <time>2018-06-30T08:08:21.008Z</time>
      </trkpt>
      <trkpt lat="40.869461" lon="-3.874359">
        <ele>1226</ele>
        <time>2018-06-30T08:08:26.008Z</time>
      </trkpt>
      <trkpt lat="40.869533" lon="-3.874336">
        <ele>1226</ele>
        <time>2018-06-30T08:08:33.008Z</time>
      </trkpt>
      <trkpt lat="40.869595" lon="-3.874314">
        <ele>1226</ele>
        <time>2018-06-30T08:08:38.008Z</time>
      </trkpt>
      <trkpt lat="40.869647" lon="-3.87431">
        <ele>1225</ele>
        <time>2018-06-30T08:08:42.008Z</time>
      </trkpt>
      <trkpt lat="40.869701" lon="-3.87431">
        <ele>1225</ele>
        <time>2018-06-30T08:08:46.008Z</time>
      </trkpt>
      <trkpt lat="40.869769" lon="-3.87433">
        <ele>1225</ele>
        <time>2018-06-30T08:08:52.008Z</time>
      </trkpt>
      <trkpt lat="40.869827" lon="-3.874356">
        <ele>1225</ele>
        <time>2018-06-30T08:08:57.008Z</time>
      </trkpt>
      <trkpt lat="40.86989" lon="-3.87438">
        <ele>1223</ele>
        <time>2018-06-30T08:09:02.008Z</time>
      </trkpt>
      <trkpt lat="40.869961" lon="-3.874414">
        <ele>1223</ele>
        <time>2018-06-30T08:09:08.008Z</time>
      </trkpt>
      <trkpt lat="40.870024" lon="-3.874443">
        <ele>1223</ele>
        <time>2018-06-30T08:09:13.008Z</time>
      </trkpt>
      <trkpt lat="40.870087" lon="-3.874482">
        <ele>1223</ele>
        <time>2018-06-30T08:09:18.008Z</time>
      </trkpt>
      <trkpt lat="40.870136" lon="-3.874502">
        <ele>1222</ele>
        <time>2018-06-30T08:09:22.008Z</time>
      </trkpt>
      <trkpt lat="40.870184" lon="-3.874524">
        <ele>1221.78627630605</ele>
        <time>2018-06-30T08:09:26.008Z</time>
      </trkpt>
      <trkpt lat="40.870219" lon="-3.874546">
        <ele>1221</ele>
        <time>2018-06-30T08:09:29.008Z</time>
      </trkpt>
      <trkpt lat="40.870259" lon="-3.874563">
        <ele>1221</ele>
        <time>2018-06-30T08:09:32.008Z</time>
      </trkpt>
      <trkpt lat="40.870301" lon="-3.87457">
        <ele>1221</ele>
        <time>2018-06-30T08:09:35.008Z</time>
      </trkpt>
      <trkpt lat="40.870341" lon="-3.874581">
        <ele>1221</ele>
        <time>2018-06-30T08:09:38.008Z</time>
      </trkpt>
      <trkpt lat="40.870383" lon="-3.874589">
        <ele>1220.8688862657</ele>
        <time>2018-06-30T08:09:41.008Z</time>
      </trkpt>
      <trkpt lat="40.870426" lon="-3.874594">
        <ele>1220</ele>
        <time>2018-06-30T08:09:44.008Z</time>
      </trkpt>
      <trkpt lat="40.870466" lon="-3.874598">
        <ele>1220</ele>
        <time>2018-06-30T08:09:47.008Z</time>
      </trkpt>
      <trkpt lat="40.870513" lon="-3.874609">
        <ele>1219.79795723783</ele>
        <time>2018-06-30T08:09:51.008Z</time>
      </trkpt>
      <trkpt lat="40.870569" lon="-3.874613">
        <ele>1219</ele>
        <time>2018-06-30T08:09:55.008Z</time>
      </trkpt>
      <trkpt lat="40.870621" lon="-3.87462">
        <ele>1219</ele>
        <time>2018-06-30T08:09:59.008Z</time>
      </trkpt>
      <trkpt lat="40.87067" lon="-3.874621">
        <ele>1218</ele>
        <time>2018-06-30T08:10:03.008Z</time>
      </trkpt>
      <trkpt lat="40.870721" lon="-3.87463">
        <ele>1218</ele>
        <time>2018-06-30T08:10:07.008Z</time>
      </trkpt>
      <trkpt lat="40.870771" lon="-3.874657">
        <ele>1217.8688862657</ele>
        <time>2018-06-30T08:10:11.008Z</time>
      </trkpt>
      <trkpt lat="40.87082" lon="-3.874682">
        <ele>1217</ele>
        <time>2018-06-30T08:10:15.008Z</time>
      </trkpt>
      <trkpt lat="40.870868" lon="-3.874708">
        <ele>1217</ele>
        <time>2018-06-30T08:10:19.008Z</time>
      </trkpt>
      <trkpt lat="40.870914" lon="-3.874738">
        <ele>1217</ele>
        <time>2018-06-30T08:10:23.008Z</time>
      </trkpt>
      <trkpt lat="40.870986" lon="-3.874762">
        <ele>1217</ele>
        <time>2018-06-30T08:10:29.008Z</time>
      </trkpt>
      <trkpt lat="40.871046" lon="-3.874792">
        <ele>1217</ele>
        <time>2018-06-30T08:10:33.008Z</time>
      </trkpt>
      <trkpt lat="40.871101" lon="-3.874819">
        <ele>1217</ele>
        <time>2018-06-30T08:10:37.008Z</time>
      </trkpt>
      <trkpt lat="40.87115" lon="-3.874851">
        <ele>1217</ele>
        <time>2018-06-30T08:10:41.008Z</time>
      </trkpt>
      <trkpt lat="40.871205" lon="-3.874884">
        <ele>1217</ele>
        <time>2018-06-30T08:10:45.008Z</time>
      </trkpt>
      <trkpt lat="40.871264" lon="-3.874911">
        <ele>1217</ele>
        <time>2018-06-30T08:10:49.008Z</time>
      </trkpt>
      <trkpt lat="40.871307" lon="-3.874929">
        <ele>1216</ele>
        <time>2018-06-30T08:10:52.008Z</time>
      </trkpt>
      <trkpt lat="40.871348" lon="-3.874953">
        <ele>1216</ele>
        <time>2018-06-30T08:10:55.008Z</time>
      </trkpt>
      <trkpt lat="40.871389" lon="-3.874975">
        <ele>1216</ele>
        <time>2018-06-30T08:10:58.008Z</time>
      </trkpt>
      <trkpt lat="40.871425" lon="-3.875005">
        <ele>1215.57979933802</ele>
        <time>2018-06-30T08:11:01.008Z</time>
      </trkpt>
      <trkpt lat="40.871471" lon="-3.875039">
        <ele>1214</ele>
        <time>2018-06-30T08:11:05.008Z</time>
      </trkpt>
      <trkpt lat="40.87151" lon="-3.875085">
        <ele>1214</ele>
        <time>2018-06-30T08:11:09.008Z</time>
      </trkpt>
      <trkpt lat="40.871559" lon="-3.875132">
        <ele>1214</ele>
        <time>2018-06-30T08:11:13.008Z</time>
      </trkpt>
      <trkpt lat="40.871608" lon="-3.875188">
        <ele>1214</ele>
        <time>2018-06-30T08:11:18.008Z</time>
      </trkpt>
      <trkpt lat="40.871662" lon="-3.875242">
        <ele>1213</ele>
        <time>2018-06-30T08:11:23.008Z</time>
      </trkpt>
      <trkpt lat="40.871705" lon="-3.875302">
        <ele>1213</ele>
        <time>2018-06-30T08:11:28.008Z</time>
      </trkpt>
      <trkpt lat="40.871751" lon="-3.875364">
        <ele>1213</ele>
        <time>2018-06-30T08:11:33.008Z</time>
      </trkpt>
      <trkpt lat="40.871792" lon="-3.87543">
        <ele>1213</ele>
        <time>2018-06-30T08:11:38.008Z</time>
      </trkpt>
      <trkpt lat="40.871832" lon="-3.875484">
        <ele>1212</ele>
        <time>2018-06-30T08:11:42.008Z</time>
      </trkpt>
      <trkpt lat="40.871867" lon="-3.875544">
        <ele>1212</ele>
        <time>2018-06-30T08:11:46.008Z</time>
      </trkpt>
      <trkpt lat="40.871898" lon="-3.875605">
        <ele>1212</ele>
        <time>2018-06-30T08:11:50.008Z</time>
      </trkpt>
      <trkpt lat="40.871934" lon="-3.875661">
        <ele>1212</ele>
        <time>2018-06-30T08:11:54.008Z</time>
      </trkpt>
      <trkpt lat="40.871983" lon="-3.875718">
        <ele>1212</ele>
        <time>2018-06-30T08:11:59.008Z</time>
      </trkpt>
      <trkpt lat="40.872013" lon="-3.87576">
        <ele>1212</ele>
        <time>2018-06-30T08:12:02.008Z</time>
      </trkpt>
      <trkpt lat="40.87205" lon="-3.875816">
        <ele>1212</ele>
        <time>2018-06-30T08:12:06.008Z</time>
      </trkpt>
      <trkpt lat="40.872085" lon="-3.875873">
        <ele>1211</ele>
        <time>2018-06-30T08:12:10.008Z</time>
      </trkpt>
      <trkpt lat="40.872117" lon="-3.875924">
        <ele>1211</ele>
        <time>2018-06-30T08:12:14.008Z</time>
      </trkpt>
      <trkpt lat="40.872154" lon="-3.875984">
        <ele>1211</ele>
        <time>2018-06-30T08:12:19.008Z</time>
      </trkpt>
      <trkpt lat="40.872194" lon="-3.876042">
        <ele>1210</ele>
        <time>2018-06-30T08:12:24.008Z</time>
      </trkpt>
      <trkpt lat="40.87223" lon="-3.876097">
        <ele>1210</ele>
        <time>2018-06-30T08:12:28.008Z</time>
      </trkpt>
      <trkpt lat="40.872268" lon="-3.876149">
        <ele>1209</ele>
        <time>2018-06-30T08:12:32.008Z</time>
      </trkpt>
      <trkpt lat="40.872304" lon="-3.876201">
        <ele>1209</ele>
        <time>2018-06-30T08:12:36.008Z</time>
      </trkpt>
      <trkpt lat="40.872342" lon="-3.876277">
        <ele>1209</ele>
        <time>2018-06-30T08:12:41.008Z</time>
      </trkpt>
      <trkpt lat="40.872388" lon="-3.876353">
        <ele>1209</ele>
        <time>2018-06-30T08:12:46.008Z</time>
      </trkpt>
      <trkpt lat="40.87242" lon="-3.87643">
        <ele>1208.79795723783</ele>
        <time>2018-06-30T08:12:51.008Z</time>
      </trkpt>
      <trkpt lat="40.872457" lon="-3.876511">
        <ele>1208</ele>
        <time>2018-06-30T08:12:57.008Z</time>
      </trkpt>
      <trkpt lat="40.8725" lon="-3.876582">
        <ele>1205</ele>
        <time>2018-06-30T08:13:02.008Z</time>
      </trkpt>
      <trkpt lat="40.872547" lon="-3.876639">
        <ele>1205</ele>
        <time>2018-06-30T08:13:07.008Z</time>
      </trkpt>
      <trkpt lat="40.872597" lon="-3.876687">
        <ele>1205</ele>
        <time>2018-06-30T08:13:12.008Z</time>
      </trkpt>
      <trkpt lat="40.872662" lon="-3.87672">
        <ele>1205</ele>
        <time>2018-06-30T08:13:17.008Z</time>
      </trkpt>
      <trkpt lat="40.872726" lon="-3.876744">
        <ele>1204</ele>
        <time>2018-06-30T08:13:22.008Z</time>
      </trkpt>
      <trkpt lat="40.872791" lon="-3.876769">
        <ele>1204</ele>
        <time>2018-06-30T08:13:27.008Z</time>
      </trkpt>
      <trkpt lat="40.872854" lon="-3.876803">
        <ele>1201</ele>
        <time>2018-06-30T08:13:32.008Z</time>
      </trkpt>
      <trkpt lat="40.872917" lon="-3.876831">
        <ele>1200</ele>
        <time>2018-06-30T08:13:37.008Z</time>
      </trkpt>
      <trkpt lat="40.872999" lon="-3.876821">
        <ele>1200</ele>
        <time>2018-06-30T08:13:43.008Z</time>
      </trkpt>
      <trkpt lat="40.873048" lon="-3.876782">
        <ele>1200</ele>
        <time>2018-06-30T08:13:46.008Z</time>
      </trkpt>
      <trkpt lat="40.873093" lon="-3.876709">
        <ele>1199</ele>
        <time>2018-06-30T08:13:50.008Z</time>
      </trkpt>
      <trkpt lat="40.873134" lon="-3.876645">
        <ele>1199</ele>
        <time>2018-06-30T08:13:54.008Z</time>
      </trkpt>
      <trkpt lat="40.873174" lon="-3.876595">
        <ele>1198</ele>
        <time>2018-06-30T08:13:58.008Z</time>
      </trkpt>
      <trkpt lat="40.873214" lon="-3.876555">
        <ele>1197</ele>
        <time>2018-06-30T08:14:02.008Z</time>
      </trkpt>
      <trkpt lat="40.873264" lon="-3.876522">
        <ele>1197</ele>
        <time>2018-06-30T08:14:06.008Z</time>
      </trkpt>
      <trkpt lat="40.873301" lon="-3.876526">
        <ele>1196</ele>
        <time>2018-06-30T08:14:09.008Z</time>
      </trkpt>
      <trkpt lat="40.873347" lon="-3.876556">
        <ele>1197</ele>
        <time>2018-06-30T08:14:13.008Z</time>
      </trkpt>
      <trkpt lat="40.873378" lon="-3.876612">
        <ele>1197</ele>
        <time>2018-06-30T08:14:17.008Z</time>
      </trkpt>
      <trkpt lat="40.873409" lon="-3.876659">
        <ele>1197</ele>
        <time>2018-06-30T08:14:21.008Z</time>
      </trkpt>
      <trkpt lat="40.873443" lon="-3.876706">
        <ele>1197</ele>
        <time>2018-06-30T08:14:25.008Z</time>
      </trkpt>
      <trkpt lat="40.873484" lon="-3.876751">
        <ele>1197</ele>
        <time>2018-06-30T08:14:29.008Z</time>
      </trkpt>
      <trkpt lat="40.873529" lon="-3.876801">
        <ele>1196</ele>
        <time>2018-06-30T08:14:32.008Z</time>
      </trkpt>
      <trkpt lat="40.873575" lon="-3.876862">
        <ele>1196</ele>
        <time>2018-06-30T08:14:35.008Z</time>
      </trkpt>
      <trkpt lat="40.873622" lon="-3.876923">
        <ele>1196</ele>
        <time>2018-06-30T08:14:38.008Z</time>
      </trkpt>
      <trkpt lat="40.873674" lon="-3.87699">
        <ele>1195.8688862657</ele>
        <time>2018-06-30T08:14:41.008Z</time>
      </trkpt>
      <trkpt lat="40.873733" lon="-3.877051">
        <ele>1195</ele>
        <time>2018-06-30T08:14:44.008Z</time>
      </trkpt>
      <trkpt lat="40.873799" lon="-3.877083">
        <ele>1195</ele>
        <time>2018-06-30T08:14:47.008Z</time>
      </trkpt>
      <trkpt lat="40.873867" lon="-3.877099">
        <ele>1195</ele>
        <time>2018-06-30T08:14:50.008Z</time>
      </trkpt>
      <trkpt lat="40.873939" lon="-3.877108">
        <ele>1195</ele>
        <time>2018-06-30T08:14:53.008Z</time>
      </trkpt>
      <trkpt lat="40.874014" lon="-3.877108">
        <ele>1195</ele>
        <time>2018-06-30T08:14:56.008Z</time>
      </trkpt>
      <trkpt lat="40.874066" lon="-3.877108">
        <ele>1195</ele>
        <time>2018-06-30T08:14:58.008Z</time>
      </trkpt>
      <trkpt lat="40.874117" lon="-3.877109">
        <ele>1195</ele>
        <time>2018-06-30T08:15:00.008Z</time>
      </trkpt>
      <trkpt lat="40.874185" lon="-3.877105">
        <ele>1194</ele>
        <time>2018-06-30T08:15:03.008Z</time>
      </trkpt>
      <trkpt lat="40.874253" lon="-3.877086">
        <ele>1194</ele>
        <time>2018-06-30T08:15:06.008Z</time>
      </trkpt>
      <trkpt lat="40.874319" lon="-3.877049">
        <ele>1194</ele>
        <time>2018-06-30T08:15:09.008Z</time>
      </trkpt>
      <trkpt lat="40.874366" lon="-3.87701">
        <ele>1194</ele>
        <time>2018-06-30T08:15:11.008Z</time>
      </trkpt>
      <trkpt lat="40.874417" lon="-3.876938">
        <ele>1194</ele>
        <time>2018-06-30T08:15:14.008Z</time>
      </trkpt>
      <trkpt lat="40.874465" lon="-3.876869">
        <ele>1194</ele>
        <time>2018-06-30T08:15:17.008Z</time>
      </trkpt>
      <trkpt lat="40.874508" lon="-3.876806">
        <ele>1194</ele>
        <time>2018-06-30T08:15:20.008Z</time>
      </trkpt>
      <trkpt lat="40.874553" lon="-3.876741">
        <ele>1193</ele>
        <time>2018-06-30T08:15:23.008Z</time>
      </trkpt>
      <trkpt lat="40.874601" lon="-3.876687">
        <ele>1193</ele>
        <time>2018-06-30T08:15:26.008Z</time>
      </trkpt>
      <trkpt lat="40.874651" lon="-3.876638">
        <ele>1193</ele>
        <time>2018-06-30T08:15:29.008Z</time>
      </trkpt>
      <trkpt lat="40.87469" lon="-3.876603">
        <ele>1193.21010033099</ele>
        <time>2018-06-30T08:15:31.008Z</time>
      </trkpt>
      <trkpt lat="40.87473" lon="-3.876567">
        <ele>1194</ele>
        <time>2018-06-30T08:15:33.008Z</time>
      </trkpt>
      <trkpt lat="40.874772" lon="-3.876536">
        <ele>1194</ele>
        <time>2018-06-30T08:15:35.008Z</time>
      </trkpt>
      <trkpt lat="40.874812" lon="-3.876504">
        <ele>1194</ele>
        <time>2018-06-30T08:15:37.008Z</time>
      </trkpt>
      <trkpt lat="40.874865" lon="-3.876458">
        <ele>1194</ele>
        <time>2018-06-30T08:15:40.008Z</time>
      </trkpt>
      <trkpt lat="40.874935" lon="-3.876413">
        <ele>1194</ele>
        <time>2018-06-30T08:15:44.008Z</time>
      </trkpt>
      <trkpt lat="40.875012" lon="-3.876389">
        <ele>1194</ele>
        <time>2018-06-30T08:15:48.008Z</time>
      </trkpt>
      <trkpt lat="40.875079" lon="-3.876397">
        <ele>1194</ele>
        <time>2018-06-30T08:15:51.008Z</time>
      </trkpt>
      <trkpt lat="40.875148" lon="-3.876402">
        <ele>1194</ele>
        <time>2018-06-30T08:15:54.008Z</time>
      </trkpt>
      <trkpt lat="40.875213" lon="-3.876401">
        <ele>1194</ele>
        <time>2018-06-30T08:15:57.008Z</time>
      </trkpt>
      <trkpt lat="40.875272" lon="-3.876395">
        <ele>1194</ele>
        <time>2018-06-30T08:16:00.008Z</time>
      </trkpt>
      <trkpt lat="40.875336" lon="-3.876393">
        <ele>1195</ele>
        <time>2018-06-30T08:16:03.008Z</time>
      </trkpt>
      <trkpt lat="40.875402" lon="-3.876388">
        <ele>1195</ele>
        <time>2018-06-30T08:16:06.008Z</time>
      </trkpt>
      <trkpt lat="40.875488" lon="-3.876381">
        <ele>1195</ele>
        <time>2018-06-30T08:16:10.008Z</time>
      </trkpt>
      <trkpt lat="40.875558" lon="-3.876366">
        <ele>1196</ele>
        <time>2018-06-30T08:16:13.008Z</time>
      </trkpt>
      <trkpt lat="40.875628" lon="-3.876329">
        <ele>1196</ele>
        <time>2018-06-30T08:16:16.008Z</time>
      </trkpt>
      <trkpt lat="40.875692" lon="-3.876306">
        <ele>1196</ele>
        <time>2018-06-30T08:16:19.008Z</time>
      </trkpt>
      <trkpt lat="40.875749" lon="-3.876288">
        <ele>1196</ele>
        <time>2018-06-30T08:16:22.008Z</time>
      </trkpt>
      <trkpt lat="40.875814" lon="-3.876276">
        <ele>1196</ele>
        <time>2018-06-30T08:16:25.008Z</time>
      </trkpt>
      <trkpt lat="40.875884" lon="-3.876269">
        <ele>1196</ele>
        <time>2018-06-30T08:16:28.008Z</time>
      </trkpt>
      <trkpt lat="40.875954" lon="-3.876265">
        <ele>1195.78989966901</ele>
        <time>2018-06-30T08:16:31.008Z</time>
      </trkpt>
      <trkpt lat="40.876006" lon="-3.876261">
        <ele>1195</ele>
        <time>2018-06-30T08:16:33.008Z</time>
      </trkpt>
      <trkpt lat="40.876076" lon="-3.876249">
        <ele>1195</ele>
        <time>2018-06-30T08:16:36.008Z</time>
      </trkpt>
      <trkpt lat="40.876142" lon="-3.876239">
        <ele>1195</ele>
        <time>2018-06-30T08:16:39.008Z</time>
      </trkpt>
      <trkpt lat="40.876212" lon="-3.876231">
        <ele>1194</ele>
        <time>2018-06-30T08:16:42.008Z</time>
      </trkpt>
      <trkpt lat="40.876276" lon="-3.876218">
        <ele>1194</ele>
        <time>2018-06-30T08:16:45.008Z</time>
      </trkpt>
      <trkpt lat="40.876344" lon="-3.876203">
        <ele>1194</ele>
        <time>2018-06-30T08:16:48.008Z</time>
      </trkpt>
      <trkpt lat="40.87641" lon="-3.876177">
        <ele>1193.79795723783</ele>
        <time>2018-06-30T08:16:51.008Z</time>
      </trkpt>
      <trkpt lat="40.876474" lon="-3.87614">
        <ele>1193</ele>
        <time>2018-06-30T08:16:54.008Z</time>
      </trkpt>
      <trkpt lat="40.87654" lon="-3.876104">
        <ele>1193</ele>
        <time>2018-06-30T08:16:57.008Z</time>
      </trkpt>
      <trkpt lat="40.876586" lon="-3.876079">
        <ele>1193</ele>
        <time>2018-06-30T08:16:59.008Z</time>
      </trkpt>
      <trkpt lat="40.876629" lon="-3.876052">
        <ele>1193</ele>
        <time>2018-06-30T08:17:01.008Z</time>
      </trkpt>
      <trkpt lat="40.876669" lon="-3.876028">
        <ele>1193</ele>
        <time>2018-06-30T08:17:03.008Z</time>
      </trkpt>
      <trkpt lat="40.876714" lon="-3.876003">
        <ele>1193</ele>
        <time>2018-06-30T08:17:05.008Z</time>
      </trkpt>
      <trkpt lat="40.876755" lon="-3.875974">
        <ele>1193</ele>
        <time>2018-06-30T08:17:07.008Z</time>
      </trkpt>
      <trkpt lat="40.876814" lon="-3.875935">
        <ele>1193</ele>
        <time>2018-06-30T08:17:10.008Z</time>
      </trkpt>
      <trkpt lat="40.876856" lon="-3.875905">
        <ele>1192</ele>
        <time>2018-06-30T08:17:12.008Z</time>
      </trkpt>
      <trkpt lat="40.876897" lon="-3.875875">
        <ele>1192</ele>
        <time>2018-06-30T08:17:14.008Z</time>
      </trkpt>
      <trkpt lat="40.876936" lon="-3.875843">
        <ele>1192</ele>
        <time>2018-06-30T08:17:16.008Z</time>
      </trkpt>
      <trkpt lat="40.876992" lon="-3.875798">
        <ele>1192</ele>
        <time>2018-06-30T08:17:19.008Z</time>
      </trkpt>
      <trkpt lat="40.877057" lon="-3.87577">
        <ele>1191</ele>
        <time>2018-06-30T08:17:22.008Z</time>
      </trkpt>
      <trkpt lat="40.877099" lon="-3.875744">
        <ele>1191</ele>
        <time>2018-06-30T08:17:24.008Z</time>
      </trkpt>
      <trkpt lat="40.87716" lon="-3.875718">
        <ele>1191</ele>
        <time>2018-06-30T08:17:27.008Z</time>
      </trkpt>
      <trkpt lat="40.877207" lon="-3.875707">
        <ele>1191</ele>
        <time>2018-06-30T08:17:29.008Z</time>
      </trkpt>
      <trkpt lat="40.877272" lon="-3.875709">
        <ele>1191</ele>
        <time>2018-06-30T08:17:32.008Z</time>
      </trkpt>
      <trkpt lat="40.877338" lon="-3.875725">
        <ele>1191</ele>
        <time>2018-06-30T08:17:35.008Z</time>
      </trkpt>
      <trkpt lat="40.877383" lon="-3.875735">
        <ele>1191</ele>
        <time>2018-06-30T08:17:37.008Z</time>
      </trkpt>
      <trkpt lat="40.87743" lon="-3.875742">
        <ele>1191</ele>
        <time>2018-06-30T08:17:39.008Z</time>
      </trkpt>
      <trkpt lat="40.877476" lon="-3.875746">
        <ele>1190.8688862657</ele>
        <time>2018-06-30T08:17:41.008Z</time>
      </trkpt>
      <trkpt lat="40.87752" lon="-3.87575">
        <ele>1190</ele>
        <time>2018-06-30T08:17:43.008Z</time>
      </trkpt>
      <trkpt lat="40.877584" lon="-3.875742">
        <ele>1190</ele>
        <time>2018-06-30T08:17:46.008Z</time>
      </trkpt>
      <trkpt lat="40.877649" lon="-3.875723">
        <ele>1190</ele>
        <time>2018-06-30T08:17:49.008Z</time>
      </trkpt>
      <trkpt lat="40.877716" lon="-3.875702">
        <ele>1190</ele>
        <time>2018-06-30T08:17:52.008Z</time>
      </trkpt>
      <trkpt lat="40.877792" lon="-3.875675">
        <ele>1190</ele>
        <time>2018-06-30T08:17:55.008Z</time>
      </trkpt>
      <trkpt lat="40.877856" lon="-3.875643">
        <ele>1190</ele>
        <time>2018-06-30T08:17:58.008Z</time>
      </trkpt>
      <trkpt lat="40.877921" lon="-3.875613">
        <ele>1189.78989966901</ele>
        <time>2018-06-30T08:18:01.008Z</time>
      </trkpt>
      <trkpt lat="40.877984" lon="-3.875586">
        <ele>1189</ele>
        <time>2018-06-30T08:18:04.008Z</time>
      </trkpt>
      <trkpt lat="40.878051" lon="-3.875565">
        <ele>1189</ele>
        <time>2018-06-30T08:18:07.008Z</time>
      </trkpt>
      <trkpt lat="40.878101" lon="-3.875557">
        <ele>1189</ele>
        <time>2018-06-30T08:18:09.008Z</time>
      </trkpt>
      <trkpt lat="40.878164" lon="-3.875535">
        <ele>1189</ele>
        <time>2018-06-30T08:18:12.008Z</time>
      </trkpt>
      <trkpt lat="40.878225" lon="-3.875517">
        <ele>1189</ele>
        <time>2018-06-30T08:18:15.008Z</time>
      </trkpt>
      <trkpt lat="40.878289" lon="-3.875503">
        <ele>1189</ele>
        <time>2018-06-30T08:18:18.008Z</time>
      </trkpt>
      <trkpt lat="40.878371" lon="-3.8755">
        <ele>1188</ele>
        <time>2018-06-30T08:18:22.008Z</time>
      </trkpt>
      <trkpt lat="40.878434" lon="-3.875533">
        <ele>1188</ele>
        <time>2018-06-30T08:18:25.008Z</time>
      </trkpt>
      <trkpt lat="40.878484" lon="-3.875592">
        <ele>1187</ele>
        <time>2018-06-30T08:18:28.008Z</time>
      </trkpt>
      <trkpt lat="40.878519" lon="-3.87566">
        <ele>1187</ele>
        <time>2018-06-30T08:18:31.008Z</time>
      </trkpt>
      <trkpt lat="40.878553" lon="-3.875731">
        <ele>1187</ele>
        <time>2018-06-30T08:18:34.008Z</time>
      </trkpt>
      <trkpt lat="40.878585" lon="-3.875807">
        <ele>1187</ele>
        <time>2018-06-30T08:18:37.008Z</time>
      </trkpt>
      <trkpt lat="40.878616" lon="-3.87589">
        <ele>1187</ele>
        <time>2018-06-30T08:18:40.008Z</time>
      </trkpt>
      <trkpt lat="40.878649" lon="-3.875965">
        <ele>1186</ele>
        <time>2018-06-30T08:18:43.008Z</time>
      </trkpt>
      <trkpt lat="40.878685" lon="-3.876037">
        <ele>1186</ele>
        <time>2018-06-30T08:18:46.008Z</time>
      </trkpt>
      <trkpt lat="40.87872" lon="-3.876114">
        <ele>1186</ele>
        <time>2018-06-30T08:18:49.008Z</time>
      </trkpt>
      <trkpt lat="40.878759" lon="-3.87619">
        <ele>1185</ele>
        <time>2018-06-30T08:18:52.008Z</time>
      </trkpt>
      <trkpt lat="40.878804" lon="-3.876252">
        <ele>1185</ele>
        <time>2018-06-30T08:18:55.008Z</time>
      </trkpt>
      <trkpt lat="40.878844" lon="-3.876317">
        <ele>1185</ele>
        <time>2018-06-30T08:18:58.008Z</time>
      </trkpt>
      <trkpt lat="40.878883" lon="-3.876386">
        <ele>1185</ele>
        <time>2018-06-30T08:19:01.008Z</time>
      </trkpt>
      <trkpt lat="40.878914" lon="-3.876462">
        <ele>1185</ele>
        <time>2018-06-30T08:19:04.008Z</time>
      </trkpt>
      <trkpt lat="40.878945" lon="-3.876541">
        <ele>1185</ele>
        <time>2018-06-30T08:19:07.008Z</time>
      </trkpt>
      <trkpt lat="40.878975" lon="-3.876618">
        <ele>1185</ele>
        <time>2018-06-30T08:19:10.008Z</time>
      </trkpt>
      <trkpt lat="40.87901" lon="-3.876699">
        <ele>1185</ele>
        <time>2018-06-30T08:19:13.008Z</time>
      </trkpt>
      <trkpt lat="40.879057" lon="-3.876763">
        <ele>1185</ele>
        <time>2018-06-30T08:19:16.008Z</time>
      </trkpt>
      <trkpt lat="40.879116" lon="-3.876817">
        <ele>1185</ele>
        <time>2018-06-30T08:19:19.008Z</time>
      </trkpt>
      <trkpt lat="40.879173" lon="-3.876869">
        <ele>1184</ele>
        <time>2018-06-30T08:19:22.008Z</time>
      </trkpt>
      <trkpt lat="40.879234" lon="-3.876915">
        <ele>1184</ele>
        <time>2018-06-30T08:19:25.008Z</time>
      </trkpt>
      <trkpt lat="40.879289" lon="-3.876966">
        <ele>1184</ele>
        <time>2018-06-30T08:19:28.008Z</time>
      </trkpt>
      <trkpt lat="40.879349" lon="-3.877015">
        <ele>1183.78989966901</ele>
        <time>2018-06-30T08:19:31.008Z</time>
      </trkpt>
      <trkpt lat="40.879407" lon="-3.877068">
        <ele>1183</ele>
        <time>2018-06-30T08:19:34.008Z</time>
      </trkpt>
      <trkpt lat="40.879447" lon="-3.877102">
        <ele>1183</ele>
        <time>2018-06-30T08:19:36.008Z</time>
      </trkpt>
      <trkpt lat="40.879506" lon="-3.877141">
        <ele>1183</ele>
        <time>2018-06-30T08:19:39.008Z</time>
      </trkpt>
      <trkpt lat="40.879565" lon="-3.877179">
        <ele>1183</ele>
        <time>2018-06-30T08:19:42.008Z</time>
      </trkpt>
      <trkpt lat="40.879628" lon="-3.877206">
        <ele>1183</ele>
        <time>2018-06-30T08:19:45.008Z</time>
      </trkpt>
      <trkpt lat="40.879691" lon="-3.877233">
        <ele>1183</ele>
        <time>2018-06-30T08:19:48.008Z</time>
      </trkpt>
      <trkpt lat="40.879753" lon="-3.877266">
        <ele>1182.79795723783</ele>
        <time>2018-06-30T08:19:51.008Z</time>
      </trkpt>
      <trkpt lat="40.879813" lon="-3.877292">
        <ele>1182</ele>
        <time>2018-06-30T08:19:54.008Z</time>
      </trkpt>
      <trkpt lat="40.879874" lon="-3.877328">
        <ele>1182</ele>
        <time>2018-06-30T08:19:57.008Z</time>
      </trkpt>
      <trkpt lat="40.879949" lon="-3.877377">
        <ele>1181.78989966901</ele>
        <time>2018-06-30T08:20:01.008Z</time>
      </trkpt>
      <trkpt lat="40.88001" lon="-3.87742">
        <ele>1181</ele>
        <time>2018-06-30T08:20:04.008Z</time>
      </trkpt>
      <trkpt lat="40.880065" lon="-3.877445">
        <ele>1181</ele>
        <time>2018-06-30T08:20:07.008Z</time>
      </trkpt>
      <trkpt lat="40.880123" lon="-3.877474">
        <ele>1181</ele>
        <time>2018-06-30T08:20:11.008Z</time>
      </trkpt>
      <trkpt lat="40.880182" lon="-3.8775">
        <ele>1181</ele>
        <time>2018-06-30T08:20:15.008Z</time>
      </trkpt>
      <trkpt lat="40.880231" lon="-3.877523">
        <ele>1181</ele>
        <time>2018-06-30T08:20:19.008Z</time>
      </trkpt>
      <trkpt lat="40.880283" lon="-3.877552">
        <ele>1180</ele>
        <time>2018-06-30T08:20:23.008Z</time>
      </trkpt>
      <trkpt lat="40.880331" lon="-3.877584">
        <ele>1180</ele>
        <time>2018-06-30T08:20:27.008Z</time>
      </trkpt>
      <trkpt lat="40.880374" lon="-3.877625">
        <ele>1180</ele>
        <time>2018-06-30T08:20:31.008Z</time>
      </trkpt>
      <trkpt lat="40.880418" lon="-3.877675">
        <ele>1180</ele>
        <time>2018-06-30T08:20:36.008Z</time>
      </trkpt>
      <trkpt lat="40.880453" lon="-3.877735">
        <ele>1180.1311137343</ele>
        <time>2018-06-30T08:20:41.008Z</time>
      </trkpt>
      <trkpt lat="40.880479" lon="-3.877791">
        <ele>1181</ele>
        <time>2018-06-30T08:20:45.008Z</time>
      </trkpt>
      <trkpt lat="40.880501" lon="-3.877847">
        <ele>1181</ele>
        <time>2018-06-30T08:20:49.008Z</time>
      </trkpt>
      <trkpt lat="40.880518" lon="-3.877904">
        <ele>1181</ele>
        <time>2018-06-30T08:20:53.008Z</time>
      </trkpt>
      <trkpt lat="40.88052" lon="-3.877955">
        <ele>1181</ele>
        <time>2018-06-30T08:20:56.008Z</time>
      </trkpt>
      <trkpt lat="40.880528" lon="-3.878015">
        <ele>1181</ele>
        <time>2018-06-30T08:21:00.008Z</time>
      </trkpt>
      <trkpt lat="40.880529" lon="-3.878098">
        <ele>1179</ele>
        <time>2018-06-30T08:21:05.008Z</time>
      </trkpt>
      <trkpt lat="40.880532" lon="-3.878179">
        <ele>1179</ele>
        <time>2018-06-30T08:21:10.008Z</time>
      </trkpt>
      <trkpt lat="40.880533" lon="-3.878245">
        <ele>1179</ele>
        <time>2018-06-30T08:21:14.008Z</time>
      </trkpt>
      <trkpt lat="40.880539" lon="-3.878295">
        <ele>1179</ele>
        <time>2018-06-30T08:21:17.008Z</time>
      </trkpt>
      <trkpt lat="40.880546" lon="-3.878363">
        <ele>1179.20204276217</ele>
        <time>2018-06-30T08:21:21.008Z</time>
      </trkpt>
      <trkpt lat="40.880544" lon="-3.87843">
        <ele>1180</ele>
        <time>2018-06-30T08:21:25.008Z</time>
      </trkpt>
      <trkpt lat="40.880551" lon="-3.878509">
        <ele>1180</ele>
        <time>2018-06-30T08:21:30.008Z</time>
      </trkpt>
      <trkpt lat="40.880559" lon="-3.878571">
        <ele>1180</ele>
        <time>2018-06-30T08:21:34.008Z</time>
      </trkpt>
      <trkpt lat="40.880562" lon="-3.878642">
        <ele>1180</ele>
        <time>2018-06-30T08:21:38.008Z</time>
      </trkpt>
      <trkpt lat="40.880564" lon="-3.878709">
        <ele>1180</ele>
        <time>2018-06-30T08:21:42.008Z</time>
      </trkpt>
      <trkpt lat="40.880589" lon="-3.878775">
        <ele>1180</ele>
        <time>2018-06-30T08:21:46.008Z</time>
      </trkpt>
      <trkpt lat="40.880614" lon="-3.878834">
        <ele>1180</ele>
        <time>2018-06-30T08:21:50.008Z</time>
      </trkpt>
      <trkpt lat="40.880639" lon="-3.878891">
        <ele>1179</ele>
        <time>2018-06-30T08:21:54.008Z</time>
      </trkpt>
      <trkpt lat="40.880669" lon="-3.87895">
        <ele>1179</ele>
        <time>2018-06-30T08:21:58.008Z</time>
      </trkpt>
      <trkpt lat="40.880698" lon="-3.879014">
        <ele>1178</ele>
        <time>2018-06-30T08:22:02.008Z</time>
      </trkpt>
      <trkpt lat="40.880728" lon="-3.879074">
        <ele>1178</ele>
        <time>2018-06-30T08:22:06.008Z</time>
      </trkpt>
      <trkpt lat="40.880758" lon="-3.879132">
        <ele>1177</ele>
        <time>2018-06-30T08:22:10.008Z</time>
      </trkpt>
      <trkpt lat="40.88079" lon="-3.879191">
        <ele>1177</ele>
        <time>2018-06-30T08:22:14.008Z</time>
      </trkpt>
      <trkpt lat="40.880823" lon="-3.879255">
        <ele>1176</ele>
        <time>2018-06-30T08:22:18.008Z</time>
      </trkpt>
      <trkpt lat="40.880852" lon="-3.87932">
        <ele>1176</ele>
        <time>2018-06-30T08:22:22.008Z</time>
      </trkpt>
      <trkpt lat="40.880874" lon="-3.87937">
        <ele>1176</ele>
        <time>2018-06-30T08:22:25.008Z</time>
      </trkpt>
      <trkpt lat="40.880894" lon="-3.87942">
        <ele>1176</ele>
        <time>2018-06-30T08:22:28.008Z</time>
      </trkpt>
      <trkpt lat="40.880918" lon="-3.879471">
        <ele>1176</ele>
        <time>2018-06-30T08:22:31.008Z</time>
      </trkpt>
      <trkpt lat="40.880942" lon="-3.879529">
        <ele>1176</ele>
        <time>2018-06-30T08:22:36.008Z</time>
      </trkpt>
      <trkpt lat="40.880968" lon="-3.879618">
        <ele>1177</ele>
        <time>2018-06-30T08:22:43.008Z</time>
      </trkpt>
      <trkpt lat="40.881006" lon="-3.879693">
        <ele>1177</ele>
        <time>2018-06-30T08:22:48.008Z</time>
      </trkpt>
      <trkpt lat="40.881068" lon="-3.879752">
        <ele>1177</ele>
        <time>2018-06-30T08:22:54.008Z</time>
      </trkpt>
      <trkpt lat="40.88114" lon="-3.879825">
        <ele>1177</ele>
        <time>2018-06-30T08:23:01.008Z</time>
      </trkpt>
      <trkpt lat="40.881212" lon="-3.879858">
        <ele>1177</ele>
        <time>2018-06-30T08:23:07.008Z</time>
      </trkpt>
      <trkpt lat="40.881276" lon="-3.879883">
        <ele>1175</ele>
        <time>2018-06-30T08:23:12.008Z</time>
      </trkpt>
      <trkpt lat="40.881339" lon="-3.879916">
        <ele>1175</ele>
        <time>2018-06-30T08:23:19.008Z</time>
      </trkpt>
      <trkpt lat="40.881399" lon="-3.879949">
        <ele>1175</ele>
        <time>2018-06-30T08:23:23.008Z</time>
      </trkpt>
      <trkpt lat="40.881459" lon="-3.879997">
        <ele>1175</ele>
        <time>2018-06-30T08:23:27.008Z</time>
      </trkpt>
      <trkpt lat="40.881515" lon="-3.880031">
        <ele>1175</ele>
        <time>2018-06-30T08:23:31.008Z</time>
      </trkpt>
      <trkpt lat="40.881563" lon="-3.880069">
        <ele>1175</ele>
        <time>2018-06-30T08:23:35.008Z</time>
      </trkpt>
      <trkpt lat="40.881614" lon="-3.88012">
        <ele>1175</ele>
        <time>2018-06-30T08:23:39.008Z</time>
      </trkpt>
      <trkpt lat="40.881659" lon="-3.880157">
        <ele>1174</ele>
        <time>2018-06-30T08:23:43.008Z</time>
      </trkpt>
      <trkpt lat="40.88171" lon="-3.880191">
        <ele>1174</ele>
        <time>2018-06-30T08:23:47.008Z</time>
      </trkpt>
      <trkpt lat="40.881757" lon="-3.880222">
        <ele>1174</ele>
        <time>2018-06-30T08:23:51.008Z</time>
      </trkpt>
      <trkpt lat="40.881802" lon="-3.880261">
        <ele>1174</ele>
        <time>2018-06-30T08:23:55.008Z</time>
      </trkpt>
      <trkpt lat="40.881841" lon="-3.880301">
        <ele>1174</ele>
        <time>2018-06-30T08:23:59.008Z</time>
      </trkpt>
      <trkpt lat="40.881882" lon="-3.880336">
        <ele>1174</ele>
        <time>2018-06-30T08:24:03.008Z</time>
      </trkpt>
      <trkpt lat="40.881923" lon="-3.88036">
        <ele>1174</ele>
        <time>2018-06-30T08:24:07.008Z</time>
      </trkpt>
      <trkpt lat="40.881962" lon="-3.880394">
        <ele>1174</ele>
        <time>2018-06-30T08:24:11.008Z</time>
      </trkpt>
      <trkpt lat="40.882006" lon="-3.880432">
        <ele>1174</ele>
        <time>2018-06-30T08:24:15.008Z</time>
      </trkpt>
      <trkpt lat="40.88204" lon="-3.880461">
        <ele>1174</ele>
        <time>2018-06-30T08:24:18.008Z</time>
      </trkpt>
      <trkpt lat="40.882079" lon="-3.880493">
        <ele>1173</ele>
        <time>2018-06-30T08:24:22.008Z</time>
      </trkpt>
      <trkpt lat="40.882115" lon="-3.880522">
        <ele>1173</ele>
        <time>2018-06-30T08:24:25.008Z</time>
      </trkpt>
      <trkpt lat="40.882157" lon="-3.880558">
        <ele>1173</ele>
        <time>2018-06-30T08:24:29.008Z</time>
      </trkpt>
      <trkpt lat="40.882201" lon="-3.880593">
        <ele>1173</ele>
        <time>2018-06-30T08:24:33.008Z</time>
      </trkpt>
      <trkpt lat="40.882249" lon="-3.880629">
        <ele>1173</ele>
        <time>2018-06-30T08:24:37.008Z</time>
      </trkpt>
      <trkpt lat="40.882289" lon="-3.880666">
        <ele>1172.8688862657</ele>
        <time>2018-06-30T08:24:41.008Z</time>
      </trkpt>
      <trkpt lat="40.882331" lon="-3.880706">
        <ele>1172</ele>
        <time>2018-06-30T08:24:45.008Z</time>
      </trkpt>
      <trkpt lat="40.882364" lon="-3.880734">
        <ele>1172</ele>
        <time>2018-06-30T08:24:48.008Z</time>
      </trkpt>
      <trkpt lat="40.882411" lon="-3.880768">
        <ele>1172</ele>
        <time>2018-06-30T08:24:52.008Z</time>
      </trkpt>
      <trkpt lat="40.882451" lon="-3.880805">
        <ele>1172</ele>
        <time>2018-06-30T08:24:56.008Z</time>
      </trkpt>
      <trkpt lat="40.882494" lon="-3.880842">
        <ele>1172</ele>
        <time>2018-06-30T08:25:00.008Z</time>
      </trkpt>
      <trkpt lat="40.882537" lon="-3.880884">
        <ele>1171</ele>
        <time>2018-06-30T08:25:04.008Z</time>
      </trkpt>
      <trkpt lat="40.882576" lon="-3.880922">
        <ele>1171</ele>
        <time>2018-06-30T08:25:08.008Z</time>
      </trkpt>
      <trkpt lat="40.88262" lon="-3.880966">
        <ele>1170</ele>
        <time>2018-06-30T08:25:12.008Z</time>
      </trkpt>
      <trkpt lat="40.882667" lon="-3.881019">
        <ele>1170</ele>
        <time>2018-06-30T08:25:17.008Z</time>
      </trkpt>
      <trkpt lat="40.882722" lon="-3.881067">
        <ele>1170</ele>
        <time>2018-06-30T08:25:22.008Z</time>
      </trkpt>
      <trkpt lat="40.882765" lon="-3.881107">
        <ele>1170</ele>
        <time>2018-06-30T08:25:26.008Z</time>
      </trkpt>
      <trkpt lat="40.882814" lon="-3.881161">
        <ele>1170</ele>
        <time>2018-06-30T08:25:31.008Z</time>
      </trkpt>
      <trkpt lat="40.882864" lon="-3.881217">
        <ele>1170</ele>
        <time>2018-06-30T08:25:36.008Z</time>
      </trkpt>
      <trkpt lat="40.882918" lon="-3.881256">
        <ele>1169.8688862657</ele>
        <time>2018-06-30T08:25:41.008Z</time>
      </trkpt>
      <trkpt lat="40.882977" lon="-3.88129">
        <ele>1169</ele>
        <time>2018-06-30T08:25:45.008Z</time>
      </trkpt>
      <trkpt lat="40.883022" lon="-3.881312">
        <ele>1169</ele>
        <time>2018-06-30T08:25:49.008Z</time>
      </trkpt>
      <trkpt lat="40.883072" lon="-3.88132">
        <ele>1169</ele>
        <time>2018-06-30T08:25:53.008Z</time>
      </trkpt>
      <trkpt lat="40.883124" lon="-3.881336">
        <ele>1169</ele>
        <time>2018-06-30T08:25:58.008Z</time>
      </trkpt>
      <trkpt lat="40.883172" lon="-3.881345">
        <ele>1169</ele>
        <time>2018-06-30T08:26:02.008Z</time>
      </trkpt>
      <trkpt lat="40.883224" lon="-3.881356">
        <ele>1169</ele>
        <time>2018-06-30T08:26:06.008Z</time>
      </trkpt>
      <trkpt lat="40.883268" lon="-3.881372">
        <ele>1169</ele>
        <time>2018-06-30T08:26:10.008Z</time>
      </trkpt>
      <trkpt lat="40.883322" lon="-3.881389">
        <ele>1169</ele>
        <time>2018-06-30T08:26:15.008Z</time>
      </trkpt>
      <trkpt lat="40.883372" lon="-3.881409">
        <ele>1169</ele>
        <time>2018-06-30T08:26:19.008Z</time>
      </trkpt>
      <trkpt lat="40.88342" lon="-3.881431">
        <ele>1168</ele>
        <time>2018-06-30T08:26:23.008Z</time>
      </trkpt>
      <trkpt lat="40.883464" lon="-3.881447">
        <ele>1168</ele>
        <time>2018-06-30T08:26:26.008Z</time>
      </trkpt>
      <trkpt lat="40.883516" lon="-3.881465">
        <ele>1168</ele>
        <time>2018-06-30T08:26:30.008Z</time>
      </trkpt>
      <trkpt lat="40.88357" lon="-3.881484">
        <ele>1168</ele>
        <time>2018-06-30T08:26:34.008Z</time>
      </trkpt>
      <trkpt lat="40.883612" lon="-3.881503">
        <ele>1168</ele>
        <time>2018-06-30T08:26:37.008Z</time>
      </trkpt>
      <trkpt lat="40.883666" lon="-3.881524">
        <ele>1167.8688862657</ele>
        <time>2018-06-30T08:26:41.008Z</time>
      </trkpt>
      <trkpt lat="40.88371" lon="-3.88153">
        <ele>1167</ele>
        <time>2018-06-30T08:26:45.008Z</time>
      </trkpt>
      <trkpt lat="40.883761" lon="-3.881543">
        <ele>1167</ele>
        <time>2018-06-30T08:26:49.008Z</time>
      </trkpt>
      <trkpt lat="40.883816" lon="-3.881545">
        <ele>1168</ele>
        <time>2018-06-30T08:26:53.008Z</time>
      </trkpt>
      <trkpt lat="40.883868" lon="-3.881543">
        <ele>1168</ele>
        <time>2018-06-30T08:26:57.008Z</time>
      </trkpt>
      <trkpt lat="40.883923" lon="-3.881547">
        <ele>1168</ele>
        <time>2018-06-30T08:27:01.008Z</time>
      </trkpt>
      <trkpt lat="40.883976" lon="-3.881549">
        <ele>1168</ele>
        <time>2018-06-30T08:27:05.008Z</time>
      </trkpt>
      <trkpt lat="40.88402" lon="-3.88155">
        <ele>1168</ele>
        <time>2018-06-30T08:27:09.008Z</time>
      </trkpt>
      <trkpt lat="40.884066" lon="-3.881553">
        <ele>1168</ele>
        <time>2018-06-30T08:27:13.008Z</time>
      </trkpt>
      <trkpt lat="40.884116" lon="-3.881571">
        <ele>1168</ele>
        <time>2018-06-30T08:27:17.008Z</time>
      </trkpt>
      <trkpt lat="40.884163" lon="-3.881584">
        <ele>1168</ele>
        <time>2018-06-30T08:27:21.008Z</time>
      </trkpt>
      <trkpt lat="40.884203" lon="-3.881598">
        <ele>1168</ele>
        <time>2018-06-30T08:27:24.008Z</time>
      </trkpt>
      <trkpt lat="40.884252" lon="-3.88162">
        <ele>1168</ele>
        <time>2018-06-30T08:27:28.008Z</time>
      </trkpt>
      <trkpt lat="40.88429" lon="-3.881638">
        <ele>1167.78989966901</ele>
        <time>2018-06-30T08:27:31.008Z</time>
      </trkpt>
      <trkpt lat="40.884341" lon="-3.881662">
        <ele>1167</ele>
        <time>2018-06-30T08:27:35.008Z</time>
      </trkpt>
      <trkpt lat="40.884378" lon="-3.881697">
        <ele>1167</ele>
        <time>2018-06-30T08:27:39.008Z</time>
      </trkpt>
      <trkpt lat="40.88443" lon="-3.881732">
        <ele>1167</ele>
        <time>2018-06-30T08:27:44.008Z</time>
      </trkpt>
      <trkpt lat="40.884476" lon="-3.881777">
        <ele>1167</ele>
        <time>2018-06-30T08:27:49.008Z</time>
      </trkpt>
      <trkpt lat="40.884524" lon="-3.881804">
        <ele>1167</ele>
        <time>2018-06-30T08:27:53.008Z</time>
      </trkpt>
      <trkpt lat="40.884566" lon="-3.881829">
        <ele>1167</ele>
        <time>2018-06-30T08:27:56.008Z</time>
      </trkpt>
      <trkpt lat="40.884616" lon="-3.881873">
        <ele>1166.78989966901</ele>
        <time>2018-06-30T08:28:01.008Z</time>
      </trkpt>
      <trkpt lat="40.88466" lon="-3.881925">
        <ele>1166</ele>
        <time>2018-06-30T08:28:06.008Z</time>
      </trkpt>
      <trkpt lat="40.884701" lon="-3.881974">
        <ele>1166</ele>
        <time>2018-06-30T08:28:10.008Z</time>
      </trkpt>
      <trkpt lat="40.884743" lon="-3.882025">
        <ele>1166</ele>
        <time>2018-06-30T08:28:15.008Z</time>
      </trkpt>
      <trkpt lat="40.8848" lon="-3.882057">
        <ele>1166</ele>
        <time>2018-06-30T08:28:20.008Z</time>
      </trkpt>
      <trkpt lat="40.884855" lon="-3.882042">
        <ele>1166</ele>
        <time>2018-06-30T08:28:24.008Z</time>
      </trkpt>
      <trkpt lat="40.884908" lon="-3.882015">
        <ele>1166</ele>
        <time>2018-06-30T08:28:28.008Z</time>
      </trkpt>
      <trkpt lat="40.884957" lon="-3.881983">
        <ele>1165.78989966901</ele>
        <time>2018-06-30T08:28:31.008Z</time>
      </trkpt>
      <trkpt lat="40.885018" lon="-3.881944">
        <ele>1165</ele>
        <time>2018-06-30T08:28:34.008Z</time>
      </trkpt>
      <trkpt lat="40.885097" lon="-3.881898">
        <ele>1165</ele>
        <time>2018-06-30T08:28:37.008Z</time>
      </trkpt>
      <trkpt lat="40.885165" lon="-3.881844">
        <ele>1165</ele>
        <time>2018-06-30T08:28:40.008Z</time>
      </trkpt>
      <trkpt lat="40.885234" lon="-3.881796">
        <ele>1165</ele>
        <time>2018-06-30T08:28:44.008Z</time>
      </trkpt>
      <trkpt lat="40.885299" lon="-3.881761">
        <ele>1165</ele>
        <time>2018-06-30T08:28:47.008Z</time>
      </trkpt>
      <trkpt lat="40.885357" lon="-3.881724">
        <ele>1165</ele>
        <time>2018-06-30T08:28:50.008Z</time>
      </trkpt>
      <trkpt lat="40.885417" lon="-3.881691">
        <ele>1165</ele>
        <time>2018-06-30T08:28:53.008Z</time>
      </trkpt>
      <trkpt lat="40.88548" lon="-3.881666">
        <ele>1165</ele>
        <time>2018-06-30T08:28:56.008Z</time>
      </trkpt>
      <trkpt lat="40.885543" lon="-3.881658">
        <ele>1165</ele>
        <time>2018-06-30T08:28:59.008Z</time>
      </trkpt>
      <trkpt lat="40.885592" lon="-3.881652">
        <ele>1165</ele>
        <time>2018-06-30T08:29:01.008Z</time>
      </trkpt>
      <trkpt lat="40.885641" lon="-3.881642">
        <ele>1165</ele>
        <time>2018-06-30T08:29:03.008Z</time>
      </trkpt>
      <trkpt lat="40.885704" lon="-3.881614">
        <ele>1165</ele>
        <time>2018-06-30T08:29:06.008Z</time>
      </trkpt>
      <trkpt lat="40.885771" lon="-3.881583">
        <ele>1165</ele>
        <time>2018-06-30T08:29:09.008Z</time>
      </trkpt>
      <trkpt lat="40.885841" lon="-3.88156">
        <ele>1165</ele>
        <time>2018-06-30T08:29:12.008Z</time>
      </trkpt>
      <trkpt lat="40.885928" lon="-3.881525">
        <ele>1165</ele>
        <time>2018-06-30T08:29:16.008Z</time>
      </trkpt>
      <trkpt lat="40.885991" lon="-3.88151">
        <ele>1165</ele>
        <time>2018-06-30T08:29:19.008Z</time>
      </trkpt>
      <trkpt lat="40.886067" lon="-3.881514">
        <ele>1164</ele>
        <time>2018-06-30T08:29:22.008Z</time>
      </trkpt>
      <trkpt lat="40.886143" lon="-3.88151">
        <ele>1164</ele>
        <time>2018-06-30T08:29:25.008Z</time>
      </trkpt>
      <trkpt lat="40.886212" lon="-3.881477">
        <ele>1164</ele>
        <time>2018-06-30T08:29:28.008Z</time>
      </trkpt>
      <trkpt lat="40.886279" lon="-3.881431">
        <ele>1164</ele>
        <time>2018-06-30T08:29:31.008Z</time>
      </trkpt>
      <trkpt lat="40.886353" lon="-3.881385">
        <ele>1164</ele>
        <time>2018-06-30T08:29:34.008Z</time>
      </trkpt>
      <trkpt lat="40.886417" lon="-3.881337">
        <ele>1164</ele>
        <time>2018-06-30T08:29:37.008Z</time>
      </trkpt>
      <trkpt lat="40.886497" lon="-3.881282">
        <ele>1164</ele>
        <time>2018-06-30T08:29:41.008Z</time>
      </trkpt>
      <trkpt lat="40.886565" lon="-3.881237">
        <ele>1164</ele>
        <time>2018-06-30T08:29:44.008Z</time>
      </trkpt>
      <trkpt lat="40.886623" lon="-3.881193">
        <ele>1164</ele>
        <time>2018-06-30T08:29:47.008Z</time>
      </trkpt>
      <trkpt lat="40.886689" lon="-3.88114">
        <ele>1164</ele>
        <time>2018-06-30T08:29:50.008Z</time>
      </trkpt>
      <trkpt lat="40.886759" lon="-3.881089">
        <ele>1163</ele>
        <time>2018-06-30T08:29:53.008Z</time>
      </trkpt>
      <trkpt lat="40.886845" lon="-3.881048">
        <ele>1163</ele>
        <time>2018-06-30T08:29:57.008Z</time>
      </trkpt>
      <trkpt lat="40.886928" lon="-3.881017">
        <ele>1162.78989966901</ele>
        <time>2018-06-30T08:30:01.008Z</time>
      </trkpt>
      <trkpt lat="40.887006" lon="-3.880985">
        <ele>1162</ele>
        <time>2018-06-30T08:30:05.008Z</time>
      </trkpt>
      <trkpt lat="40.887068" lon="-3.880955">
        <ele>1162</ele>
        <time>2018-06-30T08:30:08.008Z</time>
      </trkpt>
      <trkpt lat="40.887149" lon="-3.880935">
        <ele>1162</ele>
        <time>2018-06-30T08:30:11.008Z</time>
      </trkpt>
      <trkpt lat="40.887214" lon="-3.880917">
        <ele>1162</ele>
        <time>2018-06-30T08:30:14.008Z</time>
      </trkpt>
      <trkpt lat="40.887273" lon="-3.880896">
        <ele>1162</ele>
        <time>2018-06-30T08:30:17.008Z</time>
      </trkpt>
      <trkpt lat="40.887344" lon="-3.880879">
        <ele>1162</ele>
        <time>2018-06-30T08:30:20.008Z</time>
      </trkpt>
      <trkpt lat="40.887415" lon="-3.880858">
        <ele>1162</ele>
        <time>2018-06-30T08:30:23.008Z</time>
      </trkpt>
      <trkpt lat="40.887485" lon="-3.880851">
        <ele>1162</ele>
        <time>2018-06-30T08:30:26.008Z</time>
      </trkpt>
      <trkpt lat="40.887549" lon="-3.880852">
        <ele>1162</ele>
        <time>2018-06-30T08:30:29.008Z</time>
      </trkpt>
      <trkpt lat="40.887611" lon="-3.880868">
        <ele>1162</ele>
        <time>2018-06-30T08:30:32.008Z</time>
      </trkpt>
      <trkpt lat="40.887676" lon="-3.880878">
        <ele>1162</ele>
        <time>2018-06-30T08:30:35.008Z</time>
      </trkpt>
      <trkpt lat="40.887739" lon="-3.880881">
        <ele>1162</ele>
        <time>2018-06-30T08:30:38.008Z</time>
      </trkpt>
      <trkpt lat="40.887801" lon="-3.880885">
        <ele>1161.8688862657</ele>
        <time>2018-06-30T08:30:41.008Z</time>
      </trkpt>
      <trkpt lat="40.887871" lon="-3.880888">
        <ele>1161</ele>
        <time>2018-06-30T08:30:44.008Z</time>
      </trkpt>
      <trkpt lat="40.887935" lon="-3.880901">
        <ele>1161</ele>
        <time>2018-06-30T08:30:47.008Z</time>
      </trkpt>
      <trkpt lat="40.887997" lon="-3.880915">
        <ele>1161</ele>
        <time>2018-06-30T08:30:50.008Z</time>
      </trkpt>
      <trkpt lat="40.888063" lon="-3.880913">
        <ele>1161</ele>
        <time>2018-06-30T08:30:53.008Z</time>
      </trkpt>
      <trkpt lat="40.888126" lon="-3.880908">
        <ele>1161</ele>
        <time>2018-06-30T08:30:56.008Z</time>
      </trkpt>
      <trkpt lat="40.888199" lon="-3.880907">
        <ele>1161</ele>
        <time>2018-06-30T08:31:00.008Z</time>
      </trkpt>
      <trkpt lat="40.888292" lon="-3.880913">
        <ele>1161</ele>
        <time>2018-06-30T08:31:04.008Z</time>
      </trkpt>
      <trkpt lat="40.888371" lon="-3.880909">
        <ele>1161</ele>
        <time>2018-06-30T08:31:07.008Z</time>
      </trkpt>
      <trkpt lat="40.888443" lon="-3.88092">
        <ele>1161</ele>
        <time>2018-06-30T08:31:10.008Z</time>
      </trkpt>
      <trkpt lat="40.888524" lon="-3.880942">
        <ele>1161</ele>
        <time>2018-06-30T08:31:14.008Z</time>
      </trkpt>
      <trkpt lat="40.88861" lon="-3.880925">
        <ele>1161</ele>
        <time>2018-06-30T08:31:18.008Z</time>
      </trkpt>
      <trkpt lat="40.888679" lon="-3.880907">
        <ele>1161.20204276217</ele>
        <time>2018-06-30T08:31:21.008Z</time>
      </trkpt>
      <trkpt lat="40.888742" lon="-3.880899">
        <ele>1162</ele>
        <time>2018-06-30T08:31:24.008Z</time>
      </trkpt>
      <trkpt lat="40.888809" lon="-3.880897">
        <ele>1162</ele>
        <time>2018-06-30T08:31:27.008Z</time>
      </trkpt>
      <trkpt lat="40.88889" lon="-3.880926">
        <ele>1162</ele>
        <time>2018-06-30T08:31:31.008Z</time>
      </trkpt>
      <trkpt lat="40.888952" lon="-3.880961">
        <ele>1162</ele>
        <time>2018-06-30T08:31:34.008Z</time>
      </trkpt>
      <trkpt lat="40.889028" lon="-3.880972">
        <ele>1162</ele>
        <time>2018-06-30T08:31:37.008Z</time>
      </trkpt>
      <trkpt lat="40.889095" lon="-3.880994">
        <ele>1162</ele>
        <time>2018-06-30T08:31:40.008Z</time>
      </trkpt>
      <trkpt lat="40.889178" lon="-3.881018">
        <ele>1161</ele>
        <time>2018-06-30T08:31:44.008Z</time>
      </trkpt>
      <trkpt lat="40.889263" lon="-3.881038">
        <ele>1161</ele>
        <time>2018-06-30T08:31:48.008Z</time>
      </trkpt>
      <trkpt lat="40.889329" lon="-3.881071">
        <ele>1160.79795723783</ele>
        <time>2018-06-30T08:31:51.008Z</time>
      </trkpt>
      <trkpt lat="40.889404" lon="-3.881109">
        <ele>1160</ele>
        <time>2018-06-30T08:31:54.008Z</time>
      </trkpt>
      <trkpt lat="40.889473" lon="-3.881144">
        <ele>1160</ele>
        <time>2018-06-30T08:31:57.008Z</time>
      </trkpt>
      <trkpt lat="40.889545" lon="-3.881165">
        <ele>1160</ele>
        <time>2018-06-30T08:32:00.008Z</time>
      </trkpt>
      <trkpt lat="40.889612" lon="-3.881188">
        <ele>1158</ele>
        <time>2018-06-30T08:32:03.008Z</time>
      </trkpt>
      <trkpt lat="40.889694" lon="-3.88121">
        <ele>1158</ele>
        <time>2018-06-30T08:32:07.008Z</time>
      </trkpt>
      <trkpt lat="40.889783" lon="-3.881221">
        <ele>1158.1311137343</ele>
        <time>2018-06-30T08:32:11.008Z</time>
      </trkpt>
      <trkpt lat="40.889856" lon="-3.88123">
        <ele>1159</ele>
        <time>2018-06-30T08:32:14.008Z</time>
      </trkpt>
      <trkpt lat="40.889947" lon="-3.881233">
        <ele>1159</ele>
        <time>2018-06-30T08:32:18.008Z</time>
      </trkpt>
      <trkpt lat="40.890022" lon="-3.881228">
        <ele>1159</ele>
        <time>2018-06-30T08:32:21.008Z</time>
      </trkpt>
      <trkpt lat="40.890116" lon="-3.881222">
        <ele>1159</ele>
        <time>2018-06-30T08:32:25.008Z</time>
      </trkpt>
      <trkpt lat="40.890213" lon="-3.881215">
        <ele>1159</ele>
        <time>2018-06-30T08:32:29.008Z</time>
      </trkpt>
      <trkpt lat="40.890313" lon="-3.881185">
        <ele>1158</ele>
        <time>2018-06-30T08:32:33.008Z</time>
      </trkpt>
      <trkpt lat="40.890392" lon="-3.881146">
        <ele>1158</ele>
        <time>2018-06-30T08:32:36.008Z</time>
      </trkpt>
      <trkpt lat="40.890486" lon="-3.881088">
        <ele>1158</ele>
        <time>2018-06-30T08:32:40.008Z</time>
      </trkpt>
      <trkpt lat="40.890584" lon="-3.881016">
        <ele>1159</ele>
        <time>2018-06-30T08:32:44.008Z</time>
      </trkpt>
      <trkpt lat="40.890665" lon="-3.880955">
        <ele>1159</ele>
        <time>2018-06-30T08:32:47.008Z</time>
      </trkpt>
      <trkpt lat="40.890764" lon="-3.880888">
        <ele>1159</ele>
        <time>2018-06-30T08:32:51.008Z</time>
      </trkpt>
      <trkpt lat="40.890856" lon="-3.880832">
        <ele>1159</ele>
        <time>2018-06-30T08:32:55.008Z</time>
      </trkpt>
      <trkpt lat="40.890942" lon="-3.88073">
        <ele>1159</ele>
        <time>2018-06-30T08:33:00.008Z</time>
      </trkpt>
      <trkpt lat="40.891011" lon="-3.880635">
        <ele>1157</ele>
        <time>2018-06-30T08:33:04.008Z</time>
      </trkpt>
      <trkpt lat="40.891074" lon="-3.88054">
        <ele>1157</ele>
        <time>2018-06-30T08:33:08.008Z</time>
      </trkpt>
      <trkpt lat="40.891125" lon="-3.88047">
        <ele>1157.1311137343</ele>
        <time>2018-06-30T08:33:11.008Z</time>
      </trkpt>
      <trkpt lat="40.891187" lon="-3.880384">
        <ele>1158</ele>
        <time>2018-06-30T08:33:15.008Z</time>
      </trkpt>
      <trkpt lat="40.891253" lon="-3.880289">
        <ele>1158</ele>
        <time>2018-06-30T08:33:19.008Z</time>
      </trkpt>
      <trkpt lat="40.89132" lon="-3.880194">
        <ele>1157</ele>
        <time>2018-06-30T08:33:23.008Z</time>
      </trkpt>
      <trkpt lat="40.891371" lon="-3.88009">
        <ele>1157</ele>
        <time>2018-06-30T08:33:27.008Z</time>
      </trkpt>
      <trkpt lat="40.891427" lon="-3.879989">
        <ele>1156.78989966901</ele>
        <time>2018-06-30T08:33:31.008Z</time>
      </trkpt>
      <trkpt lat="40.891488" lon="-3.879899">
        <ele>1156</ele>
        <time>2018-06-30T08:33:35.008Z</time>
      </trkpt>
      <trkpt lat="40.891546" lon="-3.879834">
        <ele>1156</ele>
        <time>2018-06-30T08:33:39.008Z</time>
      </trkpt>
      <trkpt lat="40.891601" lon="-3.879778">
        <ele>1155</ele>
        <time>2018-06-30T08:33:42.008Z</time>
      </trkpt>
      <trkpt lat="40.891659" lon="-3.879727">
        <ele>1155</ele>
        <time>2018-06-30T08:33:45.008Z</time>
      </trkpt>
      <trkpt lat="40.891716" lon="-3.879665">
        <ele>1155</ele>
        <time>2018-06-30T08:33:48.008Z</time>
      </trkpt>
      <trkpt lat="40.891775" lon="-3.8796">
        <ele>1154.59591447566</ele>
        <time>2018-06-30T08:33:51.008Z</time>
      </trkpt>
      <trkpt lat="40.891836" lon="-3.879524">
        <ele>1153</ele>
        <time>2018-06-30T08:33:54.008Z</time>
      </trkpt>
      <trkpt lat="40.891891" lon="-3.879439">
        <ele>1153</ele>
        <time>2018-06-30T08:33:57.008Z</time>
      </trkpt>
      <trkpt lat="40.891928" lon="-3.87938">
        <ele>1153</ele>
        <time>2018-06-30T08:33:59.008Z</time>
      </trkpt>
      <trkpt lat="40.891983" lon="-3.879302">
        <ele>1152</ele>
        <time>2018-06-30T08:34:02.008Z</time>
      </trkpt>
      <trkpt lat="40.892049" lon="-3.879243">
        <ele>1152</ele>
        <time>2018-06-30T08:34:06.008Z</time>
      </trkpt>
      <trkpt lat="40.892112" lon="-3.879201">
        <ele>1152</ele>
        <time>2018-06-30T08:34:09.008Z</time>
      </trkpt>
      <trkpt lat="40.892168" lon="-3.879154">
        <ele>1153</ele>
        <time>2018-06-30T08:34:12.008Z</time>
      </trkpt>
      <trkpt lat="40.892212" lon="-3.879096">
        <ele>1153</ele>
        <time>2018-06-30T08:34:15.008Z</time>
      </trkpt>
      <trkpt lat="40.892255" lon="-3.879018">
        <ele>1153</ele>
        <time>2018-06-30T08:34:18.008Z</time>
      </trkpt>
      <trkpt lat="40.892287" lon="-3.878932">
        <ele>1153.20204276217</ele>
        <time>2018-06-30T08:34:21.008Z</time>
      </trkpt>
      <trkpt lat="40.89232" lon="-3.878854">
        <ele>1154</ele>
        <time>2018-06-30T08:34:24.008Z</time>
      </trkpt>
      <trkpt lat="40.892374" lon="-3.878836">
        <ele>1154</ele>
        <time>2018-06-30T08:34:28.008Z</time>
      </trkpt>
      <trkpt lat="40.892433" lon="-3.878886">
        <ele>1154</ele>
        <time>2018-06-30T08:34:32.008Z</time>
      </trkpt>
      <trkpt lat="40.89248" lon="-3.878942">
        <ele>1154</ele>
        <time>2018-06-30T08:34:37.008Z</time>
      </trkpt>
      <trkpt lat="40.892527" lon="-3.878995">
        <ele>1152</ele>
        <time>2018-06-30T08:34:42.008Z</time>
      </trkpt>
      <trkpt lat="40.892583" lon="-3.879037">
        <ele>1152</ele>
        <time>2018-06-30T08:34:47.008Z</time>
      </trkpt>
      <trkpt lat="40.892642" lon="-3.879078">
        <ele>1149</ele>
        <time>2018-06-30T08:34:53.008Z</time>
      </trkpt>
      <trkpt lat="40.892712" lon="-3.879096">
        <ele>1148</ele>
        <time>2018-06-30T08:35:00.008Z</time>
      </trkpt>
      <trkpt lat="40.892783" lon="-3.879091">
        <ele>1145</ele>
        <time>2018-06-30T08:35:05.008Z</time>
      </trkpt>
      <trkpt lat="40.892852" lon="-3.879094">
        <ele>1145</ele>
        <time>2018-06-30T08:35:11.008Z</time>
      </trkpt>
      <trkpt lat="40.892937" lon="-3.87913">
        <ele>1145</ele>
        <time>2018-06-30T08:35:18.008Z</time>
      </trkpt>
      <trkpt lat="40.893001" lon="-3.879193">
        <ele>1145</ele>
        <time>2018-06-30T08:35:24.008Z</time>
      </trkpt>
      <trkpt lat="40.893056" lon="-3.879242">
        <ele>1145</ele>
        <time>2018-06-30T08:35:28.008Z</time>
      </trkpt>
      <trkpt lat="40.893105" lon="-3.879285">
        <ele>1145</ele>
        <time>2018-06-30T08:35:32.008Z</time>
      </trkpt>
      <trkpt lat="40.893142" lon="-3.879341">
        <ele>1145</ele>
        <time>2018-06-30T08:35:36.008Z</time>
      </trkpt>
      <trkpt lat="40.893186" lon="-3.879396">
        <ele>1145</ele>
        <time>2018-06-30T08:35:40.008Z</time>
      </trkpt>
      <trkpt lat="40.893216" lon="-3.879442">
        <ele>1145</ele>
        <time>2018-06-30T08:35:43.008Z</time>
      </trkpt>
      <trkpt lat="40.893265" lon="-3.879506">
        <ele>1145</ele>
        <time>2018-06-30T08:35:48.008Z</time>
      </trkpt>
      <trkpt lat="40.893303" lon="-3.879568">
        <ele>1145</ele>
        <time>2018-06-30T08:35:54.008Z</time>
      </trkpt>
      <trkpt lat="40.893306" lon="-3.879644">
        <ele>1145</ele>
        <time>2018-06-30T08:35:58.008Z</time>
      </trkpt>
      <trkpt lat="40.893308" lon="-3.879726">
        <ele>1145</ele>
        <time>2018-06-30T08:36:03.008Z</time>
      </trkpt>
      <trkpt lat="40.893299" lon="-3.87981">
        <ele>1145</ele>
        <time>2018-06-30T08:36:08.008Z</time>
      </trkpt>
      <trkpt lat="40.89329" lon="-3.879884">
        <ele>1145</ele>
        <time>2018-06-30T08:36:12.008Z</time>
      </trkpt>
      <trkpt lat="40.89327" lon="-3.879974">
        <ele>1145</ele>
        <time>2018-06-30T08:36:18.008Z</time>
      </trkpt>
      <trkpt lat="40.893254" lon="-3.880056">
        <ele>1145</ele>
        <time>2018-06-30T08:36:23.008Z</time>
      </trkpt>
      <trkpt lat="40.893253" lon="-3.88013">
        <ele>1145</ele>
        <time>2018-06-30T08:36:27.008Z</time>
      </trkpt>
      <trkpt lat="40.893313" lon="-3.880168">
        <ele>1145</ele>
        <time>2018-06-30T08:36:34.008Z</time>
      </trkpt>
      <trkpt lat="40.89337" lon="-3.880208">
        <ele>1145</ele>
        <time>2018-06-30T08:36:42.008Z</time>
      </trkpt>
      <trkpt lat="40.893437" lon="-3.880248">
        <ele>1145</ele>
        <time>2018-06-30T08:36:47.008Z</time>
      </trkpt>
      <trkpt lat="40.893504" lon="-3.88028">
        <ele>1146</ele>
        <time>2018-06-30T08:36:52.008Z</time>
      </trkpt>
      <trkpt lat="40.893569" lon="-3.880304">
        <ele>1146</ele>
        <time>2018-06-30T08:36:57.008Z</time>
      </trkpt>
      <trkpt lat="40.893628" lon="-3.880301">
        <ele>1145.78989966901</ele>
        <time>2018-06-30T08:37:01.008Z</time>
      </trkpt>
      <trkpt lat="40.893684" lon="-3.880279">
        <ele>1145</ele>
        <time>2018-06-30T08:37:05.008Z</time>
      </trkpt>
      <trkpt lat="40.893747" lon="-3.88024">
        <ele>1145</ele>
        <time>2018-06-30T08:37:08.008Z</time>
      </trkpt>
      <trkpt lat="40.893794" lon="-3.880208">
        <ele>1145</ele>
        <time>2018-06-30T08:37:10.008Z</time>
      </trkpt>
      <trkpt lat="40.893849" lon="-3.880158">
        <ele>1145</ele>
        <time>2018-06-30T08:37:13.008Z</time>
      </trkpt>
      <trkpt lat="40.893907" lon="-3.88012">
        <ele>1145</ele>
        <time>2018-06-30T08:37:16.008Z</time>
      </trkpt>
      <trkpt lat="40.89397" lon="-3.880082">
        <ele>1145</ele>
        <time>2018-06-30T08:37:19.008Z</time>
      </trkpt>
      <trkpt lat="40.894031" lon="-3.880037">
        <ele>1145</ele>
        <time>2018-06-30T08:37:22.008Z</time>
      </trkpt>
      <trkpt lat="40.894095" lon="-3.880001">
        <ele>1145</ele>
        <time>2018-06-30T08:37:25.008Z</time>
      </trkpt>
      <trkpt lat="40.894157" lon="-3.879947">
        <ele>1145</ele>
        <time>2018-06-30T08:37:28.008Z</time>
      </trkpt>
      <trkpt lat="40.894216" lon="-3.879874">
        <ele>1145</ele>
        <time>2018-06-30T08:37:31.008Z</time>
      </trkpt>
      <trkpt lat="40.894272" lon="-3.879817">
        <ele>1145</ele>
        <time>2018-06-30T08:37:34.008Z</time>
      </trkpt>
      <trkpt lat="40.894333" lon="-3.879774">
        <ele>1145</ele>
        <time>2018-06-30T08:37:37.008Z</time>
      </trkpt>
      <trkpt lat="40.894401" lon="-3.879759">
        <ele>1145</ele>
        <time>2018-06-30T08:37:40.008Z</time>
      </trkpt>
      <trkpt lat="40.894471" lon="-3.879763">
        <ele>1146</ele>
        <time>2018-06-30T08:37:43.008Z</time>
      </trkpt>
      <trkpt lat="40.894532" lon="-3.879771">
        <ele>1146</ele>
        <time>2018-06-30T08:37:46.008Z</time>
      </trkpt>
      <trkpt lat="40.894595" lon="-3.879792">
        <ele>1146</ele>
        <time>2018-06-30T08:37:49.008Z</time>
      </trkpt>
      <trkpt lat="40.89466" lon="-3.879821">
        <ele>1145</ele>
        <time>2018-06-30T08:37:52.008Z</time>
      </trkpt>
      <trkpt lat="40.894728" lon="-3.879845">
        <ele>1145</ele>
        <time>2018-06-30T08:37:55.008Z</time>
      </trkpt>
      <trkpt lat="40.894795" lon="-3.879874">
        <ele>1145</ele>
        <time>2018-06-30T08:37:58.008Z</time>
      </trkpt>
      <trkpt lat="40.894862" lon="-3.8799">
        <ele>1145</ele>
        <time>2018-06-30T08:38:01.008Z</time>
      </trkpt>
      <trkpt lat="40.894932" lon="-3.879926">
        <ele>1145</ele>
        <time>2018-06-30T08:38:04.008Z</time>
      </trkpt>
      <trkpt lat="40.895004" lon="-3.879951">
        <ele>1145</ele>
        <time>2018-06-30T08:38:07.008Z</time>
      </trkpt>
      <trkpt lat="40.895072" lon="-3.879963">
        <ele>1145</ele>
        <time>2018-06-30T08:38:10.008Z</time>
      </trkpt>
      <trkpt lat="40.895139" lon="-3.879967">
        <ele>1145</ele>
        <time>2018-06-30T08:38:13.008Z</time>
      </trkpt>
      <trkpt lat="40.895208" lon="-3.879974">
        <ele>1145</ele>
        <time>2018-06-30T08:38:16.008Z</time>
      </trkpt>
      <trkpt lat="40.895274" lon="-3.87998">
        <ele>1145</ele>
        <time>2018-06-30T08:38:19.008Z</time>
      </trkpt>
      <trkpt lat="40.89536" lon="-3.879966">
        <ele>1145</ele>
        <time>2018-06-30T08:38:23.008Z</time>
      </trkpt>
      <trkpt lat="40.895449" lon="-3.879977">
        <ele>1145</ele>
        <time>2018-06-30T08:38:27.008Z</time>
      </trkpt>
      <trkpt lat="40.895533" lon="-3.880025">
        <ele>1145.21010033099</ele>
        <time>2018-06-30T08:38:31.008Z</time>
      </trkpt>
      <trkpt lat="40.895618" lon="-3.880082">
        <ele>1146</ele>
        <time>2018-06-30T08:38:35.008Z</time>
      </trkpt>
      <trkpt lat="40.895694" lon="-3.880125">
        <ele>1146</ele>
        <time>2018-06-30T08:38:39.008Z</time>
      </trkpt>
      <trkpt lat="40.895766" lon="-3.880106">
        <ele>1146</ele>
        <time>2018-06-30T08:38:43.008Z</time>
      </trkpt>
      <trkpt lat="40.895835" lon="-3.880087">
        <ele>1146</ele>
        <time>2018-06-30T08:38:46.008Z</time>
      </trkpt>
      <trkpt lat="40.895894" lon="-3.880082">
        <ele>1146</ele>
        <time>2018-06-30T08:38:48.008Z</time>
      </trkpt>
      <trkpt lat="40.895971" lon="-3.880077">
        <ele>1146</ele>
        <time>2018-06-30T08:38:51.008Z</time>
      </trkpt>
      <trkpt lat="40.896045" lon="-3.880088">
        <ele>1146</ele>
        <time>2018-06-30T08:38:54.008Z</time>
      </trkpt>
      <trkpt lat="40.896118" lon="-3.880096">
        <ele>1146</ele>
        <time>2018-06-30T08:38:57.008Z</time>
      </trkpt>
      <trkpt lat="40.896184" lon="-3.880098">
        <ele>1146</ele>
        <time>2018-06-30T08:39:00.008Z</time>
      </trkpt>
      <trkpt lat="40.896255" lon="-3.880103">
        <ele>1147</ele>
        <time>2018-06-30T08:39:03.008Z</time>
      </trkpt>
      <trkpt lat="40.896321" lon="-3.880107">
        <ele>1147</ele>
        <time>2018-06-30T08:39:06.008Z</time>
      </trkpt>
      <trkpt lat="40.896386" lon="-3.880109">
        <ele>1147</ele>
        <time>2018-06-30T08:39:09.008Z</time>
      </trkpt>
      <trkpt lat="40.896456" lon="-3.88011">
        <ele>1147</ele>
        <time>2018-06-30T08:39:12.008Z</time>
      </trkpt>
      <trkpt lat="40.896531" lon="-3.88011">
        <ele>1147</ele>
        <time>2018-06-30T08:39:15.008Z</time>
      </trkpt>
      <trkpt lat="40.896604" lon="-3.880114">
        <ele>1147</ele>
        <time>2018-06-30T08:39:18.008Z</time>
      </trkpt>
      <trkpt lat="40.896672" lon="-3.880116">
        <ele>1147</ele>
        <time>2018-06-30T08:39:21.008Z</time>
      </trkpt>
      <trkpt lat="40.896742" lon="-3.88011">
        <ele>1147</ele>
        <time>2018-06-30T08:39:24.008Z</time>
      </trkpt>
      <trkpt lat="40.896833" lon="-3.880096">
        <ele>1147</ele>
        <time>2018-06-30T08:39:28.008Z</time>
      </trkpt>
      <trkpt lat="40.896921" lon="-3.880109">
        <ele>1147</ele>
        <time>2018-06-30T08:39:32.008Z</time>
      </trkpt>
      <trkpt lat="40.897014" lon="-3.880112">
        <ele>1147</ele>
        <time>2018-06-30T08:39:36.008Z</time>
      </trkpt>
      <trkpt lat="40.897098" lon="-3.880133">
        <ele>1147</ele>
        <time>2018-06-30T08:39:40.008Z</time>
      </trkpt>
      <trkpt lat="40.897185" lon="-3.880156">
        <ele>1148</ele>
        <time>2018-06-30T08:39:43.008Z</time>
      </trkpt>
      <trkpt lat="40.897265" lon="-3.880169">
        <ele>1148</ele>
        <time>2018-06-30T08:39:46.008Z</time>
      </trkpt>
      <trkpt lat="40.89733" lon="-3.880188">
        <ele>1148</ele>
        <time>2018-06-30T08:39:49.008Z</time>
      </trkpt>
      <trkpt lat="40.897394" lon="-3.880211">
        <ele>1148</ele>
        <time>2018-06-30T08:39:52.008Z</time>
      </trkpt>
      <trkpt lat="40.897469" lon="-3.880238">
        <ele>1148</ele>
        <time>2018-06-30T08:39:55.008Z</time>
      </trkpt>
      <trkpt lat="40.897538" lon="-3.880273">
        <ele>1148</ele>
        <time>2018-06-30T08:39:58.008Z</time>
      </trkpt>
      <trkpt lat="40.897605" lon="-3.880291">
        <ele>1147.78989966901</ele>
        <time>2018-06-30T08:40:01.008Z</time>
      </trkpt>
      <trkpt lat="40.897676" lon="-3.880298">
        <ele>1147</ele>
        <time>2018-06-30T08:40:04.008Z</time>
      </trkpt>
      <trkpt lat="40.897761" lon="-3.880306">
        <ele>1147</ele>
        <time>2018-06-30T08:40:08.008Z</time>
      </trkpt>
      <trkpt lat="40.897849" lon="-3.880313">
        <ele>1147</ele>
        <time>2018-06-30T08:40:12.008Z</time>
      </trkpt>
      <trkpt lat="40.897928" lon="-3.880302">
        <ele>1147</ele>
        <time>2018-06-30T08:40:15.008Z</time>
      </trkpt>
      <trkpt lat="40.898002" lon="-3.880287">
        <ele>1147</ele>
        <time>2018-06-30T08:40:18.008Z</time>
      </trkpt>
      <trkpt lat="40.898075" lon="-3.880279">
        <ele>1147</ele>
        <time>2018-06-30T08:40:21.008Z</time>
      </trkpt>
      <trkpt lat="40.898146" lon="-3.880275">
        <ele>1147</ele>
        <time>2018-06-30T08:40:24.008Z</time>
      </trkpt>
      <trkpt lat="40.898217" lon="-3.880261">
        <ele>1147</ele>
        <time>2018-06-30T08:40:27.008Z</time>
      </trkpt>
      <trkpt lat="40.898288" lon="-3.880249">
        <ele>1147</ele>
        <time>2018-06-30T08:40:30.008Z</time>
      </trkpt>
      <trkpt lat="40.898357" lon="-3.880244">
        <ele>1147</ele>
        <time>2018-06-30T08:40:33.008Z</time>
      </trkpt>
      <trkpt lat="40.898432" lon="-3.880236">
        <ele>1147</ele>
        <time>2018-06-30T08:40:36.008Z</time>
      </trkpt>
      <trkpt lat="40.898536" lon="-3.880215">
        <ele>1147</ele>
        <time>2018-06-30T08:40:40.008Z</time>
      </trkpt>
      <trkpt lat="40.898617" lon="-3.880195">
        <ele>1147</ele>
        <time>2018-06-30T08:40:43.008Z</time>
      </trkpt>
      <trkpt lat="40.898702" lon="-3.880176">
        <ele>1147</ele>
        <time>2018-06-30T08:40:47.008Z</time>
      </trkpt>
      <trkpt lat="40.898791" lon="-3.880167">
        <ele>1147</ele>
        <time>2018-06-30T08:40:51.008Z</time>
      </trkpt>
      <trkpt lat="40.898875" lon="-3.880163">
        <ele>1147</ele>
        <time>2018-06-30T08:40:55.008Z</time>
      </trkpt>
      <trkpt lat="40.898961" lon="-3.880157">
        <ele>1147</ele>
        <time>2018-06-30T08:40:58.008Z</time>
      </trkpt>
      <trkpt lat="40.89904" lon="-3.880136">
        <ele>1147.21010033099</ele>
        <time>2018-06-30T08:41:01.008Z</time>
      </trkpt>
      <trkpt lat="40.899117" lon="-3.880121">
        <ele>1148</ele>
        <time>2018-06-30T08:41:04.008Z</time>
      </trkpt>
      <trkpt lat="40.899192" lon="-3.880111">
        <ele>1148</ele>
        <time>2018-06-30T08:41:07.008Z</time>
      </trkpt>
      <trkpt lat="40.899262" lon="-3.880097">
        <ele>1148</ele>
        <time>2018-06-30T08:41:10.008Z</time>
      </trkpt>
      <trkpt lat="40.899331" lon="-3.880067">
        <ele>1148</ele>
        <time>2018-06-30T08:41:13.008Z</time>
      </trkpt>
      <trkpt lat="40.899399" lon="-3.880013">
        <ele>1148</ele>
        <time>2018-06-30T08:41:16.008Z</time>
      </trkpt>
      <trkpt lat="40.899466" lon="-3.879975">
        <ele>1148</ele>
        <time>2018-06-30T08:41:19.008Z</time>
      </trkpt>
      <trkpt lat="40.899531" lon="-3.879927">
        <ele>1148</ele>
        <time>2018-06-30T08:41:22.008Z</time>
      </trkpt>
      <trkpt lat="40.899605" lon="-3.879879">
        <ele>1148</ele>
        <time>2018-06-30T08:41:25.008Z</time>
      </trkpt>
      <trkpt lat="40.899677" lon="-3.879834">
        <ele>1148</ele>
        <time>2018-06-30T08:41:28.008Z</time>
      </trkpt>
      <trkpt lat="40.89974" lon="-3.879796">
        <ele>1148</ele>
        <time>2018-06-30T08:41:31.008Z</time>
      </trkpt>
      <trkpt lat="40.899816" lon="-3.879747">
        <ele>1148</ele>
        <time>2018-06-30T08:41:34.008Z</time>
      </trkpt>
      <trkpt lat="40.899896" lon="-3.879704">
        <ele>1148</ele>
        <time>2018-06-30T08:41:37.008Z</time>
      </trkpt>
      <trkpt lat="40.89997" lon="-3.879664">
        <ele>1148</ele>
        <time>2018-06-30T08:41:40.008Z</time>
      </trkpt>
      <trkpt lat="40.900036" lon="-3.879621">
        <ele>1148</ele>
        <time>2018-06-30T08:41:43.008Z</time>
      </trkpt>
      <trkpt lat="40.9001" lon="-3.87957">
        <ele>1148</ele>
        <time>2018-06-30T08:41:46.008Z</time>
      </trkpt>
      <trkpt lat="40.900164" lon="-3.879516">
        <ele>1148</ele>
        <time>2018-06-30T08:41:49.008Z</time>
      </trkpt>
      <trkpt lat="40.900226" lon="-3.879464">
        <ele>1148</ele>
        <time>2018-06-30T08:41:52.008Z</time>
      </trkpt>
      <trkpt lat="40.900294" lon="-3.879401">
        <ele>1148</ele>
        <time>2018-06-30T08:41:55.008Z</time>
      </trkpt>
      <trkpt lat="40.90037" lon="-3.879336">
        <ele>1148</ele>
        <time>2018-06-30T08:41:59.008Z</time>
      </trkpt>
      <trkpt lat="40.900454" lon="-3.879254">
        <ele>1148</ele>
        <time>2018-06-30T08:42:04.008Z</time>
      </trkpt>
      <trkpt lat="40.900554" lon="-3.879169">
        <ele>1148</ele>
        <time>2018-06-30T08:42:08.008Z</time>
      </trkpt>
      <trkpt lat="40.90063" lon="-3.879094">
        <ele>1148</ele>
        <time>2018-06-30T08:42:12.008Z</time>
      </trkpt>
      <trkpt lat="40.900714" lon="-3.879015">
        <ele>1148</ele>
        <time>2018-06-30T08:42:16.008Z</time>
      </trkpt>
      <trkpt lat="40.900801" lon="-3.87893">
        <ele>1148</ele>
        <time>2018-06-30T08:42:20.008Z</time>
      </trkpt>
      <trkpt lat="40.90086" lon="-3.878849">
        <ele>1148</ele>
        <time>2018-06-30T08:42:24.008Z</time>
      </trkpt>
      <trkpt lat="40.900922" lon="-3.878772">
        <ele>1148</ele>
        <time>2018-06-30T08:42:28.008Z</time>
      </trkpt>
      <trkpt lat="40.900996" lon="-3.878689">
        <ele>1148</ele>
        <time>2018-06-30T08:42:32.008Z</time>
      </trkpt>
      <trkpt lat="40.901084" lon="-3.878667">
        <ele>1148</ele>
        <time>2018-06-30T08:42:39.008Z</time>
      </trkpt>
      <trkpt lat="40.901136" lon="-3.878714">
        <ele>1150</ele>
        <time>2018-06-30T08:42:42.008Z</time>
      </trkpt>
      <trkpt lat="40.901228" lon="-3.878661">
        <ele>1150</ele>
        <time>2018-06-30T08:42:47.008Z</time>
      </trkpt>
      <trkpt lat="40.901281" lon="-3.878602">
        <ele>1150</ele>
        <time>2018-06-30T08:42:50.008Z</time>
      </trkpt>
      <trkpt lat="40.901334" lon="-3.878548">
        <ele>1150</ele>
        <time>2018-06-30T08:42:55.008Z</time>
      </trkpt>
      <trkpt lat="40.901395" lon="-3.878502">
        <ele>1150.21010033099</ele>
        <time>2018-06-30T08:43:01.008Z</time>
      </trkpt>
      <trkpt lat="40.901432" lon="-3.87847">
        <ele>1151</ele>
        <time>2018-06-30T08:43:05.008Z</time>
      </trkpt>
      <trkpt lat="40.901482" lon="-3.878431">
        <ele>1151</ele>
        <time>2018-06-30T08:43:10.008Z</time>
      </trkpt>
      <trkpt lat="40.901535" lon="-3.878405">
        <ele>1151</ele>
        <time>2018-06-30T08:43:15.008Z</time>
      </trkpt>
      <trkpt lat="40.901585" lon="-3.878386">
        <ele>1151</ele>
        <time>2018-06-30T08:43:19.008Z</time>
      </trkpt>
      <trkpt lat="40.901647" lon="-3.878367">
        <ele>1151</ele>
        <time>2018-06-30T08:43:24.008Z</time>
      </trkpt>
      <trkpt lat="40.901697" lon="-3.878354">
        <ele>1151</ele>
        <time>2018-06-30T08:43:28.008Z</time>
      </trkpt>
      <trkpt lat="40.90175" lon="-3.878358">
        <ele>1153</ele>
        <time>2018-06-30T08:43:32.008Z</time>
      </trkpt>
      <trkpt lat="40.901812" lon="-3.878348">
        <ele>1153</ele>
        <time>2018-06-30T08:43:37.008Z</time>
      </trkpt>
      <trkpt lat="40.901887" lon="-3.878331">
        <ele>1153</ele>
        <time>2018-06-30T08:43:44.008Z</time>
      </trkpt>
      <trkpt lat="40.901972" lon="-3.878327">
        <ele>1153</ele>
        <time>2018-06-30T08:43:51.008Z</time>
      </trkpt>
      <trkpt lat="40.902039" lon="-3.878335">
        <ele>1153</ele>
        <time>2018-06-30T08:43:55.008Z</time>
      </trkpt>
      <trkpt lat="40.902112" lon="-3.878353">
        <ele>1153</ele>
        <time>2018-06-30T08:44:00.008Z</time>
      </trkpt>
      <trkpt lat="40.902079" lon="-3.878409">
        <ele>1154</ele>
        <time>2018-06-30T08:44:10.008Z</time>
      </trkpt>
      <trkpt lat="40.902038" lon="-3.878413">
        <ele>1156</ele>
        <time>2018-06-30T08:44:13.008Z</time>
      </trkpt>
      <trkpt lat="40.901999" lon="-3.878416">
        <ele>1156</ele>
        <time>2018-06-30T08:44:16.008Z</time>
      </trkpt>
      <trkpt lat="40.901954" lon="-3.878417">
        <ele>1156</ele>
        <time>2018-06-30T08:44:20.008Z</time>
      </trkpt>
      <trkpt lat="40.901903" lon="-3.878425">
        <ele>1156</ele>
        <time>2018-06-30T08:44:24.008Z</time>
      </trkpt>
      <trkpt lat="40.901855" lon="-3.878437">
        <ele>1156</ele>
        <time>2018-06-30T08:44:28.008Z</time>
      </trkpt>
      <trkpt lat="40.901806" lon="-3.878448">
        <ele>1158</ele>
        <time>2018-06-30T08:44:32.008Z</time>
      </trkpt>
      <trkpt lat="40.901762" lon="-3.878464">
        <ele>1158</ele>
        <time>2018-06-30T08:44:36.008Z</time>
      </trkpt>
      <trkpt lat="40.901718" lon="-3.878491">
        <ele>1158</ele>
        <time>2018-06-30T08:44:40.008Z</time>
      </trkpt>
      <trkpt lat="40.901676" lon="-3.878516">
        <ele>1158</ele>
        <time>2018-06-30T08:44:44.008Z</time>
      </trkpt>
      <trkpt lat="40.901644" lon="-3.878545">
        <ele>1158</ele>
        <time>2018-06-30T08:44:47.008Z</time>
      </trkpt>
      <trkpt lat="40.901609" lon="-3.878593">
        <ele>1158.20204276217</ele>
        <time>2018-06-30T08:44:51.008Z</time>
      </trkpt>
      <trkpt lat="40.90158" lon="-3.878648">
        <ele>1159</ele>
        <time>2018-06-30T08:44:55.008Z</time>
      </trkpt>
      <trkpt lat="40.901552" lon="-3.8787">
        <ele>1159</ele>
        <time>2018-06-30T08:44:59.008Z</time>
      </trkpt>
      <trkpt lat="40.901524" lon="-3.878752">
        <ele>1160</ele>
        <time>2018-06-30T08:45:03.008Z</time>
      </trkpt>
      <trkpt lat="40.901493" lon="-3.878806">
        <ele>1160</ele>
        <time>2018-06-30T08:45:07.008Z</time>
      </trkpt>
      <trkpt lat="40.901466" lon="-3.87886">
        <ele>1160.2622274686</ele>
        <time>2018-06-30T08:45:11.008Z</time>
      </trkpt>
      <trkpt lat="40.901437" lon="-3.878925">
        <ele>1162</ele>
        <time>2018-06-30T08:45:16.008Z</time>
      </trkpt>
      <trkpt lat="40.901409" lon="-3.878976">
        <ele>1162</ele>
        <time>2018-06-30T08:45:20.008Z</time>
      </trkpt>
      <trkpt lat="40.901381" lon="-3.87904">
        <ele>1162</ele>
        <time>2018-06-30T08:45:24.008Z</time>
      </trkpt>
      <trkpt lat="40.901353" lon="-3.879097">
        <ele>1162</ele>
        <time>2018-06-30T08:45:28.008Z</time>
      </trkpt>
      <trkpt lat="40.90132" lon="-3.879164">
        <ele>1163</ele>
        <time>2018-06-30T08:45:33.008Z</time>
      </trkpt>
      <trkpt lat="40.901284" lon="-3.879234">
        <ele>1163</ele>
        <time>2018-06-30T08:45:38.008Z</time>
      </trkpt>
      <trkpt lat="40.901267" lon="-3.879281">
        <ele>1163</ele>
        <time>2018-06-30T08:45:41.008Z</time>
      </trkpt>
      <trkpt lat="40.90125" lon="-3.879349">
        <ele>1163</ele>
        <time>2018-06-30T08:45:46.008Z</time>
      </trkpt>
      <trkpt lat="40.901224" lon="-3.879423">
        <ele>1163.20204276217</ele>
        <time>2018-06-30T08:45:51.008Z</time>
      </trkpt>
      <trkpt lat="40.9012" lon="-3.879496">
        <ele>1164</ele>
        <time>2018-06-30T08:45:58.008Z</time>
      </trkpt>
      <trkpt lat="40.90116" lon="-3.879592">
        <ele>1165</ele>
        <time>2018-06-30T08:46:04.008Z</time>
      </trkpt>
      <trkpt lat="40.901136" lon="-3.879664">
        <ele>1165</ele>
        <time>2018-06-30T08:46:09.008Z</time>
      </trkpt>
      <trkpt lat="40.9011" lon="-3.879734">
        <ele>1166</ele>
        <time>2018-06-30T08:46:14.008Z</time>
      </trkpt>
      <trkpt lat="40.901081" lon="-3.879803">
        <ele>1166.40408552434</ele>
        <time>2018-06-30T08:46:21.008Z</time>
      </trkpt>
      <trkpt lat="40.901055" lon="-3.879881">
        <ele>1168</ele>
        <time>2018-06-30T08:46:26.008Z</time>
      </trkpt>
      <trkpt lat="40.901035" lon="-3.879971">
        <ele>1168.21010033099</ele>
        <time>2018-06-30T08:46:31.008Z</time>
      </trkpt>
      <trkpt lat="40.901023" lon="-3.880089">
        <ele>1169</ele>
        <time>2018-06-30T08:46:38.008Z</time>
      </trkpt>
      <trkpt lat="40.901018" lon="-3.880186">
        <ele>1171</ele>
        <time>2018-06-30T08:46:44.008Z</time>
      </trkpt>
      <trkpt lat="40.901019" lon="-3.880262">
        <ele>1171</ele>
        <time>2018-06-30T08:46:50.008Z</time>
      </trkpt>
      <trkpt lat="40.901017" lon="-3.880326">
        <ele>1172</ele>
        <time>2018-06-30T08:46:54.008Z</time>
      </trkpt>
      <trkpt lat="40.90101" lon="-3.880392">
        <ele>1171.80181993786</ele>
        <time>2018-06-30T08:46:58.008Z</time>
      </trkpt>
      <trkpt lat="40.900997" lon="-3.880464">
        <ele>1172</ele>
        <time>2018-06-30T08:47:02.008Z</time>
      </trkpt>
      <trkpt lat="40.900982" lon="-3.880521">
        <ele>1172</ele>
        <time>2018-06-30T08:47:05.008Z</time>
      </trkpt>
      <trkpt lat="40.900972" lon="-3.880581">
        <ele>1172</ele>
        <time>2018-06-30T08:47:09.008Z</time>
      </trkpt>
      <trkpt lat="40.90095" lon="-3.880625">
        <ele>1173</ele>
        <time>2018-06-30T08:47:12.008Z</time>
      </trkpt>
      <trkpt lat="40.90092" lon="-3.880678">
        <ele>1173</ele>
        <time>2018-06-30T08:47:22.008Z</time>
      </trkpt>
      <trkpt lat="40.900885" lon="-3.880727">
        <ele>1173</ele>
        <time>2018-06-30T08:47:26.008Z</time>
      </trkpt>
      <trkpt lat="40.900861" lon="-3.880781">
        <ele>1173</ele>
        <time>2018-06-30T08:47:30.008Z</time>
      </trkpt>
      <trkpt lat="40.900834" lon="-3.880833">
        <ele>1175</ele>
        <time>2018-06-30T08:47:34.008Z</time>
      </trkpt>
      <trkpt lat="40.900802" lon="-3.880877">
        <ele>1175</ele>
        <time>2018-06-30T08:47:38.008Z</time>
      </trkpt>
      <trkpt lat="40.900778" lon="-3.880931">
        <ele>1174</ele>
        <time>2018-06-30T08:47:42.008Z</time>
      </trkpt>
      <trkpt lat="40.900754" lon="-3.880988">
        <ele>1174</ele>
        <time>2018-06-30T08:47:46.008Z</time>
      </trkpt>
      <trkpt lat="40.900746" lon="-3.881017">
        <ele>1174</ele>
        <time>2018-06-30T08:47:48.008Z</time>
      </trkpt>
      <trkpt lat="40.90073" lon="-3.881041">
        <ele>1174</ele>
        <time>2018-06-30T08:47:50.008Z</time>
      </trkpt>
      <trkpt lat="40.900708" lon="-3.881079">
        <ele>1173</ele>
        <time>2018-06-30T08:47:53.008Z</time>
      </trkpt>
      <trkpt lat="40.900689" lon="-3.881121">
        <ele>1173</ele>
        <time>2018-06-30T08:47:56.008Z</time>
      </trkpt>
      <trkpt lat="40.900683" lon="-3.881158">
        <ele>1173</ele>
        <time>2018-06-30T08:47:58.008Z</time>
      </trkpt>
      <trkpt lat="40.90068" lon="-3.881195">
        <ele>1173</ele>
        <time>2018-06-30T08:48:00.008Z</time>
      </trkpt>
      <trkpt lat="40.900672" lon="-3.881243">
        <ele>1172</ele>
        <time>2018-06-30T08:48:03.008Z</time>
      </trkpt>
      <trkpt lat="40.900669" lon="-3.881294">
        <ele>1172</ele>
        <time>2018-06-30T08:48:06.008Z</time>
      </trkpt>
      <trkpt lat="40.900671" lon="-3.881342">
        <ele>1172</ele>
        <time>2018-06-30T08:48:09.008Z</time>
      </trkpt>
      <trkpt lat="40.900678" lon="-3.881401">
        <ele>1172</ele>
        <time>2018-06-30T08:48:13.008Z</time>
      </trkpt>
      <trkpt lat="40.900684" lon="-3.881446">
        <ele>1172</ele>
        <time>2018-06-30T08:48:16.008Z</time>
      </trkpt>
      <trkpt lat="40.90068" lon="-3.8815">
        <ele>1172</ele>
        <time>2018-06-30T08:48:20.008Z</time>
      </trkpt>
      <trkpt lat="40.90066" lon="-3.881542">
        <ele>1172</ele>
        <time>2018-06-30T08:48:24.008Z</time>
      </trkpt>
      <trkpt lat="40.900686" lon="-3.881554">
        <ele>1174</ele>
        <time>2018-06-30T08:48:54.008Z</time>
      </trkpt>
      <trkpt lat="40.900676" lon="-3.881505">
        <ele>1174</ele>
        <time>2018-06-30T08:48:58.008Z</time>
      </trkpt>
      <trkpt lat="40.900665" lon="-3.88146">
        <ele>1173.56832180062</ele>
        <time>2018-06-30T08:49:01.008Z</time>
      </trkpt>
      <trkpt lat="40.900668" lon="-3.881416">
        <ele>1172</ele>
        <time>2018-06-30T08:49:04.008Z</time>
      </trkpt>
      <trkpt lat="40.900633" lon="-3.88141">
        <ele>1172</ele>
        <time>2018-06-30T08:49:08.008Z</time>
      </trkpt>
      <trkpt lat="40.900591" lon="-3.881417">
        <ele>1172</ele>
        <time>2018-06-30T08:50:22.008Z</time>
      </trkpt>
      <trkpt lat="40.900594" lon="-3.881418">
        <ele>1172</ele>
        <time>2018-06-30T08:50:37.008Z</time>
      </trkpt>
      <trkpt lat="40.900613" lon="-3.88143">
        <ele>1172</ele>
        <time>2018-06-30T08:51:46.008Z</time>
      </trkpt>
      <trkpt lat="40.900629" lon="-3.88141">
        <ele>1172</ele>
        <time>2018-06-30T08:57:14.008Z</time>
      </trkpt>
      <trkpt lat="40.900593" lon="-3.881387">
        <ele>1168.19995117188</ele>
        <time>2018-06-30T08:59:41.008Z</time>
      </trkpt>
      <trkpt lat="40.900642" lon="-3.881385">
        <ele>1171</ele>
        <time>2018-06-30T09:00:28.008Z</time>
      </trkpt>
      <trkpt lat="40.900685" lon="-3.881365">
        <ele>1171</ele>
        <time>2018-06-30T09:08:09.008Z</time>
      </trkpt>
      <trkpt lat="40.900698" lon="-3.881401">
        <ele>1171</ele>
        <time>2018-06-30T09:08:14.008Z</time>
      </trkpt>
      <trkpt lat="40.9007" lon="-3.88145">
        <ele>1171</ele>
        <time>2018-06-30T09:08:18.008Z</time>
      </trkpt>
      <trkpt lat="40.900701" lon="-3.881491">
        <ele>1171</ele>
        <time>2018-06-30T09:08:22.008Z</time>
      </trkpt>
      <trkpt lat="40.900707" lon="-3.881539">
        <ele>1171</ele>
        <time>2018-06-30T09:08:26.008Z</time>
      </trkpt>
      <trkpt lat="40.900721" lon="-3.881562">
        <ele>1172</ele>
        <time>2018-06-30T09:08:44.008Z</time>
      </trkpt>
      <trkpt lat="40.900736" lon="-3.881558">
        <ele>1172</ele>
        <time>2018-06-30T09:08:58.008Z</time>
      </trkpt>
      <trkpt lat="40.900776" lon="-3.881558">
        <ele>1172</ele>
        <time>2018-06-30T09:09:36.008Z</time>
      </trkpt>
      <trkpt lat="40.900746" lon="-3.881543">
        <ele>1172</ele>
        <time>2018-06-30T09:10:07.008Z</time>
      </trkpt>
      <trkpt lat="40.900726" lon="-3.881523">
        <ele>1172</ele>
        <time>2018-06-30T09:10:12.008Z</time>
      </trkpt>
      <trkpt lat="40.900718" lon="-3.881464">
        <ele>1172</ele>
        <time>2018-06-30T09:10:28.008Z</time>
      </trkpt>
      <trkpt lat="40.900705" lon="-3.881417">
        <ele>1173</ele>
        <time>2018-06-30T09:10:33.008Z</time>
      </trkpt>
      <trkpt lat="40.900692" lon="-3.881341">
        <ele>1173</ele>
        <time>2018-06-30T09:10:39.008Z</time>
      </trkpt>
      <trkpt lat="40.90069" lon="-3.88129">
        <ele>1173</ele>
        <time>2018-06-30T09:10:43.008Z</time>
      </trkpt>
      <trkpt lat="40.900691" lon="-3.88123">
        <ele>1173</ele>
        <time>2018-06-30T09:10:48.008Z</time>
      </trkpt>
      <trkpt lat="40.9007" lon="-3.881177">
        <ele>1173</ele>
        <time>2018-06-30T09:10:52.008Z</time>
      </trkpt>
      <trkpt lat="40.900708" lon="-3.881135">
        <ele>1173</ele>
        <time>2018-06-30T09:10:56.008Z</time>
      </trkpt>
      <trkpt lat="40.900725" lon="-3.881096">
        <ele>1173</ele>
        <time>2018-06-30T09:10:59.008Z</time>
      </trkpt>
      <trkpt lat="40.900756" lon="-3.881047">
        <ele>1173</ele>
        <time>2018-06-30T09:11:03.008Z</time>
      </trkpt>
      <trkpt lat="40.90078" lon="-3.881005">
        <ele>1173</ele>
        <time>2018-06-30T09:11:07.008Z</time>
      </trkpt>
      <trkpt lat="40.900809" lon="-3.880973">
        <ele>1173.58383326438</ele>
        <time>2018-06-30T09:11:11.008Z</time>
      </trkpt>
      <trkpt lat="40.900832" lon="-3.880932">
        <ele>1174</ele>
        <time>2018-06-30T09:11:15.008Z</time>
      </trkpt>
      <trkpt lat="40.90089" lon="-3.880882">
        <ele>1174</ele>
        <time>2018-06-30T09:11:23.008Z</time>
      </trkpt>
      <trkpt lat="40.900915" lon="-3.880946">
        <ele>1174</ele>
        <time>2018-06-30T09:11:33.008Z</time>
      </trkpt>
      <trkpt lat="40.900896" lon="-3.881004">
        <ele>1174</ele>
        <time>2018-06-30T09:11:43.008Z</time>
      </trkpt>
      <trkpt lat="40.900894" lon="-3.881066">
        <ele>1174</ele>
        <time>2018-06-30T09:11:49.008Z</time>
      </trkpt>
      <trkpt lat="40.900914" lon="-3.881138">
        <ele>1174</ele>
        <time>2018-06-30T09:11:57.008Z</time>
      </trkpt>
      <trkpt lat="40.900963" lon="-3.88121">
        <ele>1175</ele>
        <time>2018-06-30T09:12:04.008Z</time>
      </trkpt>
      <trkpt lat="40.901" lon="-3.881298">
        <ele>1175</ele>
        <time>2018-06-30T09:12:11.008Z</time>
      </trkpt>
      <trkpt lat="40.901018" lon="-3.881387">
        <ele>1175</ele>
        <time>2018-06-30T09:12:17.008Z</time>
      </trkpt>
      <trkpt lat="40.901022" lon="-3.881476">
        <ele>1175</ele>
        <time>2018-06-30T09:12:22.008Z</time>
      </trkpt>
      <trkpt lat="40.901042" lon="-3.881559">
        <ele>1175</ele>
        <time>2018-06-30T09:12:28.008Z</time>
      </trkpt>
      <trkpt lat="40.901074" lon="-3.881639">
        <ele>1176</ele>
        <time>2018-06-30T09:12:34.008Z</time>
      </trkpt>
      <trkpt lat="40.901111" lon="-3.881729">
        <ele>1176</ele>
        <time>2018-06-30T09:12:41.008Z</time>
      </trkpt>
      <trkpt lat="40.901135" lon="-3.881794">
        <ele>1176</ele>
        <time>2018-06-30T09:12:46.008Z</time>
      </trkpt>
      <trkpt lat="40.901164" lon="-3.881859">
        <ele>1176</ele>
        <time>2018-06-30T09:12:51.008Z</time>
      </trkpt>
      <trkpt lat="40.901183" lon="-3.881934">
        <ele>1176</ele>
        <time>2018-06-30T09:12:56.008Z</time>
      </trkpt>
      <trkpt lat="40.901192" lon="-3.882">
        <ele>1176</ele>
        <time>2018-06-30T09:13:00.008Z</time>
      </trkpt>
      <trkpt lat="40.901196" lon="-3.882073">
        <ele>1177</ele>
        <time>2018-06-30T09:13:05.008Z</time>
      </trkpt>
      <trkpt lat="40.901191" lon="-3.882132">
        <ele>1177</ele>
        <time>2018-06-30T09:13:09.008Z</time>
      </trkpt>
      <trkpt lat="40.901185" lon="-3.882208">
        <ele>1177</ele>
        <time>2018-06-30T09:13:13.008Z</time>
      </trkpt>
      <trkpt lat="40.901175" lon="-3.882274">
        <ele>1177</ele>
        <time>2018-06-30T09:13:17.008Z</time>
      </trkpt>
      <trkpt lat="40.901156" lon="-3.882333">
        <ele>1177.54221836645</ele>
        <time>2018-06-30T09:13:21.008Z</time>
      </trkpt>
      <trkpt lat="40.901147" lon="-3.882406">
        <ele>1178</ele>
        <time>2018-06-30T09:13:26.008Z</time>
      </trkpt>
      <trkpt lat="40.901134" lon="-3.88247">
        <ele>1178</ele>
        <time>2018-06-30T09:13:30.008Z</time>
      </trkpt>
      <trkpt lat="40.901114" lon="-3.882541">
        <ele>1178</ele>
        <time>2018-06-30T09:13:35.008Z</time>
      </trkpt>
      <trkpt lat="40.901102" lon="-3.88261">
        <ele>1178</ele>
        <time>2018-06-30T09:13:39.008Z</time>
      </trkpt>
      <trkpt lat="40.90109" lon="-3.882663">
        <ele>1177</ele>
        <time>2018-06-30T09:13:42.008Z</time>
      </trkpt>
      <trkpt lat="40.901085" lon="-3.88272">
        <ele>1177</ele>
        <time>2018-06-30T09:13:45.008Z</time>
      </trkpt>
      <trkpt lat="40.901081" lon="-3.882794">
        <ele>1177</ele>
        <time>2018-06-30T09:13:49.008Z</time>
      </trkpt>
      <trkpt lat="40.901077" lon="-3.882861">
        <ele>1178</ele>
        <time>2018-06-30T09:13:53.008Z</time>
      </trkpt>
      <trkpt lat="40.901077" lon="-3.882937">
        <ele>1178</ele>
        <time>2018-06-30T09:13:58.008Z</time>
      </trkpt>
      <trkpt lat="40.901072" lon="-3.883025">
        <ele>1179</ele>
        <time>2018-06-30T09:14:05.008Z</time>
      </trkpt>
      <trkpt lat="40.901078" lon="-3.88308">
        <ele>1179</ele>
        <time>2018-06-30T09:14:10.008Z</time>
      </trkpt>
      <trkpt lat="40.901075" lon="-3.883136">
        <ele>1179</ele>
        <time>2018-06-30T09:14:13.008Z</time>
      </trkpt>
      <trkpt lat="40.901069" lon="-3.883187">
        <ele>1179</ele>
        <time>2018-06-30T09:14:16.008Z</time>
      </trkpt>
      <trkpt lat="40.901065" lon="-3.883246">
        <ele>1179</ele>
        <time>2018-06-30T09:14:20.008Z</time>
      </trkpt>
      <trkpt lat="40.901069" lon="-3.883306">
        <ele>1179</ele>
        <time>2018-06-30T09:14:24.008Z</time>
      </trkpt>
      <trkpt lat="40.901079" lon="-3.883408">
        <ele>1180.15917610334</ele>
        <time>2018-06-30T09:14:31.008Z</time>
      </trkpt>
      <trkpt lat="40.90111" lon="-3.8835">
        <ele>1181</ele>
        <time>2018-06-30T09:14:38.008Z</time>
      </trkpt>
      <trkpt lat="40.901138" lon="-3.883556">
        <ele>1181</ele>
        <time>2018-06-30T09:14:42.008Z</time>
      </trkpt>
      <trkpt lat="40.901165" lon="-3.883623">
        <ele>1181</ele>
        <time>2018-06-30T09:14:48.008Z</time>
      </trkpt>
      <trkpt lat="40.901202" lon="-3.883694">
        <ele>1182</ele>
        <time>2018-06-30T09:14:53.008Z</time>
      </trkpt>
      <trkpt lat="40.901244" lon="-3.883767">
        <ele>1182</ele>
        <time>2018-06-30T09:14:59.008Z</time>
      </trkpt>
      <trkpt lat="40.901276" lon="-3.883834">
        <ele>1182</ele>
        <time>2018-06-30T09:15:04.008Z</time>
      </trkpt>
      <trkpt lat="40.901311" lon="-3.883914">
        <ele>1183.16766652875</ele>
        <time>2018-06-30T09:15:11.008Z</time>
      </trkpt>
      <trkpt lat="40.90134" lon="-3.883982">
        <ele>1184</ele>
        <time>2018-06-30T09:15:16.008Z</time>
      </trkpt>
      <trkpt lat="40.901365" lon="-3.884063">
        <ele>1185</ele>
        <time>2018-06-30T09:15:22.008Z</time>
      </trkpt>
      <trkpt lat="40.901384" lon="-3.884143">
        <ele>1185</ele>
        <time>2018-06-30T09:15:27.008Z</time>
      </trkpt>
      <trkpt lat="40.901392" lon="-3.884222">
        <ele>1186</ele>
        <time>2018-06-30T09:15:32.008Z</time>
      </trkpt>
      <trkpt lat="40.901404" lon="-3.884305">
        <ele>1186</ele>
        <time>2018-06-30T09:15:38.008Z</time>
      </trkpt>
      <trkpt lat="40.901424" lon="-3.884386">
        <ele>1187</ele>
        <time>2018-06-30T09:15:44.008Z</time>
      </trkpt>
      <trkpt lat="40.901447" lon="-3.884468">
        <ele>1187</ele>
        <time>2018-06-30T09:15:50.008Z</time>
      </trkpt>
      <trkpt lat="40.901479" lon="-3.884538">
        <ele>1188</ele>
        <time>2018-06-30T09:15:56.008Z</time>
      </trkpt>
      <trkpt lat="40.901505" lon="-3.884597">
        <ele>1188</ele>
        <time>2018-06-30T09:16:00.008Z</time>
      </trkpt>
      <trkpt lat="40.901531" lon="-3.884659">
        <ele>1190</ele>
        <time>2018-06-30T09:16:05.008Z</time>
      </trkpt>
      <trkpt lat="40.901563" lon="-3.884733">
        <ele>1190</ele>
        <time>2018-06-30T09:16:10.008Z</time>
      </trkpt>
      <trkpt lat="40.901586" lon="-3.884802">
        <ele>1191</ele>
        <time>2018-06-30T09:16:15.008Z</time>
      </trkpt>
      <trkpt lat="40.901603" lon="-3.884883">
        <ele>1191</ele>
        <time>2018-06-30T09:16:20.008Z</time>
      </trkpt>
      <trkpt lat="40.901609" lon="-3.884951">
        <ele>1192</ele>
        <time>2018-06-30T09:16:24.008Z</time>
      </trkpt>
      <trkpt lat="40.901622" lon="-3.885035">
        <ele>1192</ele>
        <time>2018-06-30T09:16:29.008Z</time>
      </trkpt>
      <trkpt lat="40.901624" lon="-3.885113">
        <ele>1192</ele>
        <time>2018-06-30T09:16:34.008Z</time>
      </trkpt>
      <trkpt lat="40.901623" lon="-3.885174">
        <ele>1192</ele>
        <time>2018-06-30T09:16:38.008Z</time>
      </trkpt>
      <trkpt lat="40.901633" lon="-3.885251">
        <ele>1194</ele>
        <time>2018-06-30T09:16:43.008Z</time>
      </trkpt>
      <trkpt lat="40.901645" lon="-3.885333">
        <ele>1194</ele>
        <time>2018-06-30T09:16:48.008Z</time>
      </trkpt>
      <trkpt lat="40.90166" lon="-3.885395">
        <ele>1195</ele>
        <time>2018-06-30T09:16:52.008Z</time>
      </trkpt>
      <trkpt lat="40.901677" lon="-3.885468">
        <ele>1195</ele>
        <time>2018-06-30T09:16:57.008Z</time>
      </trkpt>
      <trkpt lat="40.901694" lon="-3.885549">
        <ele>1195</ele>
        <time>2018-06-30T09:17:03.008Z</time>
      </trkpt>
      <trkpt lat="40.901717" lon="-3.885621">
        <ele>1195</ele>
        <time>2018-06-30T09:17:08.008Z</time>
      </trkpt>
      <trkpt lat="40.901737" lon="-3.885697">
        <ele>1195</ele>
        <time>2018-06-30T09:17:13.008Z</time>
      </trkpt>
      <trkpt lat="40.901754" lon="-3.885763">
        <ele>1195</ele>
        <time>2018-06-30T09:17:17.008Z</time>
      </trkpt>
      <trkpt lat="40.901764" lon="-3.885846">
        <ele>1195</ele>
        <time>2018-06-30T09:17:22.008Z</time>
      </trkpt>
      <trkpt lat="40.901771" lon="-3.885912">
        <ele>1195</ele>
        <time>2018-06-30T09:17:26.008Z</time>
      </trkpt>
      <trkpt lat="40.901771" lon="-3.885992">
        <ele>1195.57958805167</ele>
        <time>2018-06-30T09:17:31.008Z</time>
      </trkpt>
      <trkpt lat="40.901768" lon="-3.886071">
        <ele>1196</ele>
        <time>2018-06-30T09:17:36.008Z</time>
      </trkpt>
      <trkpt lat="40.901767" lon="-3.886152">
        <ele>1196</ele>
        <time>2018-06-30T09:17:41.008Z</time>
      </trkpt>
      <trkpt lat="40.901753" lon="-3.886226">
        <ele>1196</ele>
        <time>2018-06-30T09:17:46.008Z</time>
      </trkpt>
      <trkpt lat="40.901751" lon="-3.886303">
        <ele>1197.08443673289</ele>
        <time>2018-06-30T09:17:51.008Z</time>
      </trkpt>
      <trkpt lat="40.901753" lon="-3.886391">
        <ele>1198</ele>
        <time>2018-06-30T09:17:56.008Z</time>
      </trkpt>
      <trkpt lat="40.901754" lon="-3.886476">
        <ele>1200</ele>
        <time>2018-06-30T09:18:02.008Z</time>
      </trkpt>
      <trkpt lat="40.901743" lon="-3.886554">
        <ele>1200</ele>
        <time>2018-06-30T09:18:07.008Z</time>
      </trkpt>
      <trkpt lat="40.901736" lon="-3.886632">
        <ele>1201</ele>
        <time>2018-06-30T09:18:12.008Z</time>
      </trkpt>
      <trkpt lat="40.901719" lon="-3.886718">
        <ele>1200</ele>
        <time>2018-06-30T09:18:18.008Z</time>
      </trkpt>
      <trkpt lat="40.901703" lon="-3.886789">
        <ele>1200</ele>
        <time>2018-06-30T09:18:23.008Z</time>
      </trkpt>
      <trkpt lat="40.901686" lon="-3.886861">
        <ele>1200</ele>
        <time>2018-06-30T09:18:28.008Z</time>
      </trkpt>
      <trkpt lat="40.901674" lon="-3.886937">
        <ele>1202</ele>
        <time>2018-06-30T09:18:33.008Z</time>
      </trkpt>
      <trkpt lat="40.901661" lon="-3.887012">
        <ele>1202</ele>
        <time>2018-06-30T09:18:38.008Z</time>
      </trkpt>
      <trkpt lat="40.901647" lon="-3.887088">
        <ele>1202</ele>
        <time>2018-06-30T09:18:43.008Z</time>
      </trkpt>
      <trkpt lat="40.901631" lon="-3.887166">
        <ele>1202</ele>
        <time>2018-06-30T09:18:48.008Z</time>
      </trkpt>
      <trkpt lat="40.901613" lon="-3.887238">
        <ele>1204</ele>
        <time>2018-06-30T09:18:53.008Z</time>
      </trkpt>
      <trkpt lat="40.901595" lon="-3.887305">
        <ele>1204</ele>
        <time>2018-06-30T09:18:58.008Z</time>
      </trkpt>
      <trkpt lat="40.901579" lon="-3.887383">
        <ele>1205</ele>
        <time>2018-06-30T09:19:03.008Z</time>
      </trkpt>
      <trkpt lat="40.901564" lon="-3.887454">
        <ele>1205</ele>
        <time>2018-06-30T09:19:08.008Z</time>
      </trkpt>
      <trkpt lat="40.901551" lon="-3.887526">
        <ele>1206</ele>
        <time>2018-06-30T09:19:13.008Z</time>
      </trkpt>
      <trkpt lat="40.901532" lon="-3.887593">
        <ele>1206</ele>
        <time>2018-06-30T09:19:18.008Z</time>
      </trkpt>
      <trkpt lat="40.901518" lon="-3.887664">
        <ele>1208</ele>
        <time>2018-06-30T09:19:23.008Z</time>
      </trkpt>
      <trkpt lat="40.901506" lon="-3.887734">
        <ele>1208</ele>
        <time>2018-06-30T09:19:28.008Z</time>
      </trkpt>
      <trkpt lat="40.901492" lon="-3.887801">
        <ele>1208</ele>
        <time>2018-06-30T09:19:33.008Z</time>
      </trkpt>
      <trkpt lat="40.901484" lon="-3.887875">
        <ele>1208</ele>
        <time>2018-06-30T09:19:38.008Z</time>
      </trkpt>
      <trkpt lat="40.901481" lon="-3.887947">
        <ele>1210</ele>
        <time>2018-06-30T09:19:43.008Z</time>
      </trkpt>
      <trkpt lat="40.901474" lon="-3.888027">
        <ele>1210</ele>
        <time>2018-06-30T09:19:48.008Z</time>
      </trkpt>
      <trkpt lat="40.901473" lon="-3.888098">
        <ele>1210</ele>
        <time>2018-06-30T09:19:53.008Z</time>
      </trkpt>
      <trkpt lat="40.901471" lon="-3.888179">
        <ele>1210</ele>
        <time>2018-06-30T09:19:59.008Z</time>
      </trkpt>
      <trkpt lat="40.901469" lon="-3.888256">
        <ele>1212</ele>
        <time>2018-06-30T09:20:04.008Z</time>
      </trkpt>
      <trkpt lat="40.901466" lon="-3.88833">
        <ele>1212</ele>
        <time>2018-06-30T09:20:09.008Z</time>
      </trkpt>
      <trkpt lat="40.901477" lon="-3.888403">
        <ele>1214</ele>
        <time>2018-06-30T09:20:14.008Z</time>
      </trkpt>
      <trkpt lat="40.901486" lon="-3.888479">
        <ele>1214</ele>
        <time>2018-06-30T09:20:19.008Z</time>
      </trkpt>
      <trkpt lat="40.901488" lon="-3.888557">
        <ele>1215</ele>
        <time>2018-06-30T09:20:24.008Z</time>
      </trkpt>
      <trkpt lat="40.901496" lon="-3.888637">
        <ele>1215</ele>
        <time>2018-06-30T09:20:29.008Z</time>
      </trkpt>
      <trkpt lat="40.901502" lon="-3.888719">
        <ele>1216</ele>
        <time>2018-06-30T09:20:34.008Z</time>
      </trkpt>
      <trkpt lat="40.901506" lon="-3.888805">
        <ele>1216</ele>
        <time>2018-06-30T09:20:39.008Z</time>
      </trkpt>
      <trkpt lat="40.901507" lon="-3.888885">
        <ele>1216</ele>
        <time>2018-06-30T09:20:44.008Z</time>
      </trkpt>
      <trkpt lat="40.901507" lon="-3.888966">
        <ele>1216</ele>
        <time>2018-06-30T09:20:49.008Z</time>
      </trkpt>
      <trkpt lat="40.901515" lon="-3.889051">
        <ele>1218</ele>
        <time>2018-06-30T09:20:54.008Z</time>
      </trkpt>
      <trkpt lat="40.901519" lon="-3.889136">
        <ele>1218</ele>
        <time>2018-06-30T09:21:00.008Z</time>
      </trkpt>
      <trkpt lat="40.901514" lon="-3.889219">
        <ele>1218</ele>
        <time>2018-06-30T09:21:05.008Z</time>
      </trkpt>
      <trkpt lat="40.901506" lon="-3.889292">
        <ele>1218</ele>
        <time>2018-06-30T09:21:10.008Z</time>
      </trkpt>
      <trkpt lat="40.9015" lon="-3.889375">
        <ele>1219</ele>
        <time>2018-06-30T09:21:15.008Z</time>
      </trkpt>
      <trkpt lat="40.901497" lon="-3.889459">
        <ele>1219</ele>
        <time>2018-06-30T09:21:20.008Z</time>
      </trkpt>
      <trkpt lat="40.901497" lon="-3.889538">
        <ele>1221</ele>
        <time>2018-06-30T09:21:25.008Z</time>
      </trkpt>
      <trkpt lat="40.901497" lon="-3.889621">
        <ele>1221</ele>
        <time>2018-06-30T09:21:30.008Z</time>
      </trkpt>
      <trkpt lat="40.901492" lon="-3.889693">
        <ele>1221</ele>
        <time>2018-06-30T09:21:34.008Z</time>
      </trkpt>
      <trkpt lat="40.901499" lon="-3.889755">
        <ele>1221</ele>
        <time>2018-06-30T09:21:38.008Z</time>
      </trkpt>
      <trkpt lat="40.901509" lon="-3.889829">
        <ele>1222</ele>
        <time>2018-06-30T09:21:43.008Z</time>
      </trkpt>
      <trkpt lat="40.901516" lon="-3.889902">
        <ele>1222</ele>
        <time>2018-06-30T09:21:48.008Z</time>
      </trkpt>
      <trkpt lat="40.901509" lon="-3.889998">
        <ele>1223</ele>
        <time>2018-06-30T09:21:53.008Z</time>
      </trkpt>
      <trkpt lat="40.90152" lon="-3.890067">
        <ele>1223</ele>
        <time>2018-06-30T09:21:57.008Z</time>
      </trkpt>
      <trkpt lat="40.901533" lon="-3.89014">
        <ele>1223</ele>
        <time>2018-06-30T09:22:02.008Z</time>
      </trkpt>
      <trkpt lat="40.901548" lon="-3.890202">
        <ele>1223</ele>
        <time>2018-06-30T09:22:07.008Z</time>
      </trkpt>
      <trkpt lat="40.901565" lon="-3.890274">
        <ele>1224</ele>
        <time>2018-06-30T09:22:12.008Z</time>
      </trkpt>
      <trkpt lat="40.901578" lon="-3.89035">
        <ele>1224</ele>
        <time>2018-06-30T09:22:17.008Z</time>
      </trkpt>
      <trkpt lat="40.901591" lon="-3.890427">
        <ele>1224</ele>
        <time>2018-06-30T09:22:22.008Z</time>
      </trkpt>
      <trkpt lat="40.901603" lon="-3.890514">
        <ele>1224</ele>
        <time>2018-06-30T09:22:27.008Z</time>
      </trkpt>
      <trkpt lat="40.901607" lon="-3.890578">
        <ele>1224</ele>
        <time>2018-06-30T09:22:30.008Z</time>
      </trkpt>
      <trkpt lat="40.901612" lon="-3.890665">
        <ele>1225</ele>
        <time>2018-06-30T09:22:35.008Z</time>
      </trkpt>
      <trkpt lat="40.901607" lon="-3.890738">
        <ele>1225</ele>
        <time>2018-06-30T09:22:40.008Z</time>
      </trkpt>
      <trkpt lat="40.901603" lon="-3.890817">
        <ele>1226</ele>
        <time>2018-06-30T09:22:45.008Z</time>
      </trkpt>
      <trkpt lat="40.9016" lon="-3.890897">
        <ele>1226</ele>
        <time>2018-06-30T09:22:50.008Z</time>
      </trkpt>
      <trkpt lat="40.901596" lon="-3.890981">
        <ele>1227</ele>
        <time>2018-06-30T09:22:55.008Z</time>
      </trkpt>
      <trkpt lat="40.901601" lon="-3.891042">
        <ele>1227</ele>
        <time>2018-06-30T09:22:59.008Z</time>
      </trkpt>
      <trkpt lat="40.90159" lon="-3.891116">
        <ele>1227</ele>
        <time>2018-06-30T09:23:04.008Z</time>
      </trkpt>
      <trkpt lat="40.901585" lon="-3.891191">
        <ele>1227</ele>
        <time>2018-06-30T09:23:09.008Z</time>
      </trkpt>
      <trkpt lat="40.901589" lon="-3.891274">
        <ele>1228</ele>
        <time>2018-06-30T09:23:14.008Z</time>
      </trkpt>
      <trkpt lat="40.901597" lon="-3.891363">
        <ele>1228</ele>
        <time>2018-06-30T09:23:20.008Z</time>
      </trkpt>
      <trkpt lat="40.901587" lon="-3.891438">
        <ele>1229</ele>
        <time>2018-06-30T09:23:25.008Z</time>
      </trkpt>
      <trkpt lat="40.90158" lon="-3.891512">
        <ele>1229</ele>
        <time>2018-06-30T09:23:30.008Z</time>
      </trkpt>
      <trkpt lat="40.901577" lon="-3.891591">
        <ele>1230</ele>
        <time>2018-06-30T09:23:35.008Z</time>
      </trkpt>
      <trkpt lat="40.901572" lon="-3.891657">
        <ele>1230</ele>
        <time>2018-06-30T09:23:39.008Z</time>
      </trkpt>
      <trkpt lat="40.901573" lon="-3.891749">
        <ele>1231</ele>
        <time>2018-06-30T09:23:45.008Z</time>
      </trkpt>
      <trkpt lat="40.901557" lon="-3.891821">
        <ele>1231</ele>
        <time>2018-06-30T09:23:50.008Z</time>
      </trkpt>
      <trkpt lat="40.901539" lon="-3.891894">
        <ele>1231</ele>
        <time>2018-06-30T09:23:55.008Z</time>
      </trkpt>
      <trkpt lat="40.901507" lon="-3.891972">
        <ele>1231.57525533768</ele>
        <time>2018-06-30T09:24:01.008Z</time>
      </trkpt>
      <trkpt lat="40.901477" lon="-3.892048">
        <ele>1232</ele>
        <time>2018-06-30T09:24:06.008Z</time>
      </trkpt>
      <trkpt lat="40.901465" lon="-3.892129">
        <ele>1232.58383326438</ele>
        <time>2018-06-30T09:24:11.008Z</time>
      </trkpt>
      <trkpt lat="40.901463" lon="-3.892207">
        <ele>1233</ele>
        <time>2018-06-30T09:24:16.008Z</time>
      </trkpt>
      <trkpt lat="40.901454" lon="-3.892287">
        <ele>1234.08443673289</ele>
        <time>2018-06-30T09:24:21.008Z</time>
      </trkpt>
      <trkpt lat="40.901453" lon="-3.892363">
        <ele>1235</ele>
        <time>2018-06-30T09:24:26.008Z</time>
      </trkpt>
      <trkpt lat="40.901459" lon="-3.892445">
        <ele>1235.57958805167</ele>
        <time>2018-06-30T09:24:31.008Z</time>
      </trkpt>
      <trkpt lat="40.901467" lon="-3.892528">
        <ele>1236</ele>
        <time>2018-06-30T09:24:36.008Z</time>
      </trkpt>
      <trkpt lat="40.901475" lon="-3.892594">
        <ele>1236</ele>
        <time>2018-06-30T09:24:40.008Z</time>
      </trkpt>
      <trkpt lat="40.901489" lon="-3.892673">
        <ele>1238</ele>
        <time>2018-06-30T09:24:45.008Z</time>
      </trkpt>
      <trkpt lat="40.901493" lon="-3.892765">
        <ele>1239.08443673289</ele>
        <time>2018-06-30T09:24:51.008Z</time>
      </trkpt>
      <trkpt lat="40.901481" lon="-3.89285">
        <ele>1240</ele>
        <time>2018-06-30T09:24:56.008Z</time>
      </trkpt>
      <trkpt lat="40.901461" lon="-3.892931">
        <ele>1240.57958805167</ele>
        <time>2018-06-30T09:25:01.008Z</time>
      </trkpt>
      <trkpt lat="40.901443" lon="-3.893011">
        <ele>1241</ele>
        <time>2018-06-30T09:25:06.008Z</time>
      </trkpt>
      <trkpt lat="40.901426" lon="-3.893091">
        <ele>1241</ele>
        <time>2018-06-30T09:25:11.008Z</time>
      </trkpt>
      <trkpt lat="40.901414" lon="-3.89317">
        <ele>1241</ele>
        <time>2018-06-30T09:25:16.008Z</time>
      </trkpt>
      <trkpt lat="40.901406" lon="-3.893249">
        <ele>1242.08443673289</ele>
        <time>2018-06-30T09:25:21.008Z</time>
      </trkpt>
      <trkpt lat="40.90141" lon="-3.893319">
        <ele>1242</ele>
        <time>2018-06-30T09:25:25.008Z</time>
      </trkpt>
      <trkpt lat="40.901409" lon="-3.893401">
        <ele>1242</ele>
        <time>2018-06-30T09:25:30.008Z</time>
      </trkpt>
      <trkpt lat="40.901391" lon="-3.89348">
        <ele>1243</ele>
        <time>2018-06-30T09:25:35.008Z</time>
      </trkpt>
      <trkpt lat="40.901359" lon="-3.89355">
        <ele>1243</ele>
        <time>2018-06-30T09:25:40.008Z</time>
      </trkpt>
      <trkpt lat="40.901324" lon="-3.893618">
        <ele>1244</ele>
        <time>2018-06-30T09:25:45.008Z</time>
      </trkpt>
      <trkpt lat="40.901296" lon="-3.893687">
        <ele>1244</ele>
        <time>2018-06-30T09:25:50.008Z</time>
      </trkpt>
      <trkpt lat="40.901264" lon="-3.893755">
        <ele>1246</ele>
        <time>2018-06-30T09:25:55.008Z</time>
      </trkpt>
      <trkpt lat="40.901225" lon="-3.893809">
        <ele>1246</ele>
        <time>2018-06-30T09:26:00.008Z</time>
      </trkpt>
      <trkpt lat="40.901182" lon="-3.893861">
        <ele>1247</ele>
        <time>2018-06-30T09:26:05.008Z</time>
      </trkpt>
      <trkpt lat="40.901135" lon="-3.893909">
        <ele>1247</ele>
        <time>2018-06-30T09:26:10.008Z</time>
      </trkpt>
      <trkpt lat="40.901088" lon="-3.893958">
        <ele>1249</ele>
        <time>2018-06-30T09:26:15.008Z</time>
      </trkpt>
      <trkpt lat="40.901042" lon="-3.894003">
        <ele>1249</ele>
        <time>2018-06-30T09:26:20.008Z</time>
      </trkpt>
      <trkpt lat="40.901008" lon="-3.894057">
        <ele>1251</ele>
        <time>2018-06-30T09:26:25.008Z</time>
      </trkpt>
      <trkpt lat="40.900985" lon="-3.894128">
        <ele>1251</ele>
        <time>2018-06-30T09:26:30.008Z</time>
      </trkpt>
      <trkpt lat="40.900956" lon="-3.894178">
        <ele>1253</ele>
        <time>2018-06-30T09:26:34.008Z</time>
      </trkpt>
      <trkpt lat="40.900911" lon="-3.894224">
        <ele>1253</ele>
        <time>2018-06-30T09:26:39.008Z</time>
      </trkpt>
      <trkpt lat="40.900868" lon="-3.894276">
        <ele>1254</ele>
        <time>2018-06-30T09:26:44.008Z</time>
      </trkpt>
      <trkpt lat="40.900819" lon="-3.894339">
        <ele>1254</ele>
        <time>2018-06-30T09:26:50.008Z</time>
      </trkpt>
      <trkpt lat="40.900782" lon="-3.894393">
        <ele>1256</ele>
        <time>2018-06-30T09:26:55.008Z</time>
      </trkpt>
      <trkpt lat="40.900741" lon="-3.894439">
        <ele>1256</ele>
        <time>2018-06-30T09:27:00.008Z</time>
      </trkpt>
      <trkpt lat="40.900701" lon="-3.894476">
        <ele>1258</ele>
        <time>2018-06-30T09:27:05.008Z</time>
      </trkpt>
      <trkpt lat="40.900662" lon="-3.894518">
        <ele>1259</ele>
        <time>2018-06-30T09:27:10.008Z</time>
      </trkpt>
      <trkpt lat="40.90061" lon="-3.894537">
        <ele>1259</ele>
        <time>2018-06-30T09:27:15.008Z</time>
      </trkpt>
      <trkpt lat="40.900555" lon="-3.894567">
        <ele>1260.08443673289</ele>
        <time>2018-06-30T09:27:21.008Z</time>
      </trkpt>
      <trkpt lat="40.90051" lon="-3.894614">
        <ele>1261</ele>
        <time>2018-06-30T09:27:28.008Z</time>
      </trkpt>
      <trkpt lat="40.900485" lon="-3.894679">
        <ele>1264</ele>
        <time>2018-06-30T09:27:35.008Z</time>
      </trkpt>
      <trkpt lat="40.900453" lon="-3.894732">
        <ele>1266.58383326438</ele>
        <time>2018-06-30T09:27:41.008Z</time>
      </trkpt>
      <trkpt lat="40.900404" lon="-3.894783">
        <ele>1268</ele>
        <time>2018-06-30T09:27:48.008Z</time>
      </trkpt>
      <trkpt lat="40.900367" lon="-3.89482">
        <ele>1270</ele>
        <time>2018-06-30T09:27:54.008Z</time>
      </trkpt>
      <trkpt lat="40.900318" lon="-3.894838">
        <ele>1270</ele>
        <time>2018-06-30T09:28:00.008Z</time>
      </trkpt>
      <trkpt lat="40.900248" lon="-3.894856">
        <ele>1272</ele>
        <time>2018-06-30T09:28:09.008Z</time>
      </trkpt>
      <trkpt lat="40.900208" lon="-3.894917">
        <ele>1273</ele>
        <time>2018-06-30T09:28:17.008Z</time>
      </trkpt>
      <trkpt lat="40.90015" lon="-3.894924">
        <ele>1275</ele>
        <time>2018-06-30T09:28:24.008Z</time>
      </trkpt>
      <trkpt lat="40.900082" lon="-3.894931">
        <ele>1275</ele>
        <time>2018-06-30T09:28:30.008Z</time>
      </trkpt>
      <trkpt lat="40.900012" lon="-3.894946">
        <ele>1277</ele>
        <time>2018-06-30T09:28:36.008Z</time>
      </trkpt>
      <trkpt lat="40.899954" lon="-3.894988">
        <ele>1278</ele>
        <time>2018-06-30T09:28:42.008Z</time>
      </trkpt>
      <trkpt lat="40.899912" lon="-3.895043">
        <ele>1278</ele>
        <time>2018-06-30T09:28:48.008Z</time>
      </trkpt>
      <trkpt lat="40.899882" lon="-3.895099">
        <ele>1280</ele>
        <time>2018-06-30T09:28:53.008Z</time>
      </trkpt>
      <trkpt lat="40.899854" lon="-3.895169">
        <ele>1280</ele>
        <time>2018-06-30T09:28:59.008Z</time>
      </trkpt>
      <trkpt lat="40.899835" lon="-3.895227">
        <ele>1283</ele>
        <time>2018-06-30T09:29:05.008Z</time>
      </trkpt>
      <trkpt lat="40.899801" lon="-3.895295">
        <ele>1283.58383326438</ele>
        <time>2018-06-30T09:29:11.008Z</time>
      </trkpt>
      <trkpt lat="40.89977" lon="-3.895344">
        <ele>1284</ele>
        <time>2018-06-30T09:29:15.008Z</time>
      </trkpt>
      <trkpt lat="40.899739" lon="-3.895408">
        <ele>1284</ele>
        <time>2018-06-30T09:29:20.008Z</time>
      </trkpt>
      <trkpt lat="40.899713" lon="-3.895481">
        <ele>1285</ele>
        <time>2018-06-30T09:29:26.008Z</time>
      </trkpt>
      <trkpt lat="40.899692" lon="-3.895555">
        <ele>1286</ele>
        <time>2018-06-30T09:29:33.008Z</time>
      </trkpt>
      <trkpt lat="40.89967" lon="-3.895608">
        <ele>1286</ele>
        <time>2018-06-30T09:29:38.008Z</time>
      </trkpt>
      <trkpt lat="40.899638" lon="-3.895644">
        <ele>1288</ele>
        <time>2018-06-30T09:29:42.008Z</time>
      </trkpt>
      <trkpt lat="40.899586" lon="-3.89572">
        <ele>1288</ele>
        <time>2018-06-30T09:29:49.008Z</time>
      </trkpt>
      <trkpt lat="40.899533" lon="-3.895805">
        <ele>1288</ele>
        <time>2018-06-30T09:29:57.008Z</time>
      </trkpt>
      <trkpt lat="40.899489" lon="-3.895892">
        <ele>1288</ele>
        <time>2018-06-30T09:30:06.008Z</time>
      </trkpt>
      <trkpt lat="40.899445" lon="-3.895965">
        <ele>1288</ele>
        <time>2018-06-30T09:30:14.008Z</time>
      </trkpt>
      <trkpt lat="40.899431" lon="-3.896039">
        <ele>1288</ele>
        <time>2018-06-30T09:30:20.008Z</time>
      </trkpt>
      <trkpt lat="40.89946" lon="-3.896096">
        <ele>1290</ele>
        <time>2018-06-30T09:30:27.008Z</time>
      </trkpt>
      <trkpt lat="40.899476" lon="-3.896158">
        <ele>1292</ele>
        <time>2018-06-30T09:30:33.008Z</time>
      </trkpt>
      <trkpt lat="40.899469" lon="-3.896212">
        <ele>1292</ele>
        <time>2018-06-30T09:30:38.008Z</time>
      </trkpt>
      <trkpt lat="40.899454" lon="-3.896282">
        <ele>1294</ele>
        <time>2018-06-30T09:30:44.008Z</time>
      </trkpt>
      <trkpt lat="40.899426" lon="-3.896352">
        <ele>1294</ele>
        <time>2018-06-30T09:30:50.008Z</time>
      </trkpt>
      <trkpt lat="40.8994" lon="-3.896417">
        <ele>1296</ele>
        <time>2018-06-30T09:30:55.008Z</time>
      </trkpt>
      <trkpt lat="40.899392" lon="-3.896488">
        <ele>1296</ele>
        <time>2018-06-30T09:31:00.008Z</time>
      </trkpt>
      <trkpt lat="40.899355" lon="-3.896576">
        <ele>1298</ele>
        <time>2018-06-30T09:31:08.008Z</time>
      </trkpt>
      <trkpt lat="40.899336" lon="-3.896661">
        <ele>1300</ele>
        <time>2018-06-30T09:31:14.008Z</time>
      </trkpt>
      <trkpt lat="40.899319" lon="-3.896776">
        <ele>1302</ele>
        <time>2018-06-30T09:31:22.008Z</time>
      </trkpt>
      <trkpt lat="40.899293" lon="-3.896873">
        <ele>1302</ele>
        <time>2018-06-30T09:31:30.008Z</time>
      </trkpt>
      <trkpt lat="40.899276" lon="-3.896983">
        <ele>1303</ele>
        <time>2018-06-30T09:31:38.008Z</time>
      </trkpt>
      <trkpt lat="40.899252" lon="-3.89709">
        <ele>1304</ele>
        <time>2018-06-30T09:31:46.008Z</time>
      </trkpt>
      <trkpt lat="40.899227" lon="-3.897196">
        <ele>1307</ele>
        <time>2018-06-30T09:31:54.008Z</time>
      </trkpt>
      <trkpt lat="40.899206" lon="-3.897293">
        <ele>1307.57958805167</ele>
        <time>2018-06-30T09:32:01.008Z</time>
      </trkpt>
      <trkpt lat="40.899174" lon="-3.897402">
        <ele>1308</ele>
        <time>2018-06-30T09:32:10.008Z</time>
      </trkpt>
      <trkpt lat="40.899152" lon="-3.897512">
        <ele>1310</ele>
        <time>2018-06-30T09:32:17.008Z</time>
      </trkpt>
      <trkpt lat="40.899139" lon="-3.897596">
        <ele>1311</ele>
        <time>2018-06-30T09:32:23.008Z</time>
      </trkpt>
      <trkpt lat="40.899125" lon="-3.897684">
        <ele>1311</ele>
        <time>2018-06-30T09:32:28.008Z</time>
      </trkpt>
      <trkpt lat="40.899118" lon="-3.897747">
        <ele>1313</ele>
        <time>2018-06-30T09:32:32.008Z</time>
      </trkpt>
      <trkpt lat="40.899107" lon="-3.897813">
        <ele>1313</ele>
        <time>2018-06-30T09:32:37.008Z</time>
      </trkpt>
      <trkpt lat="40.899101" lon="-3.897873">
        <ele>1314.75149979313</ele>
        <time>2018-06-30T09:32:41.008Z</time>
      </trkpt>
      <trkpt lat="40.899097" lon="-3.897937">
        <ele>1316</ele>
        <time>2018-06-30T09:32:45.008Z</time>
      </trkpt>
      <trkpt lat="40.899093" lon="-3.897994">
        <ele>1316</ele>
        <time>2018-06-30T09:32:49.008Z</time>
      </trkpt>
      <trkpt lat="40.899089" lon="-3.89805">
        <ele>1317</ele>
        <time>2018-06-30T09:32:53.008Z</time>
      </trkpt>
      <trkpt lat="40.899092" lon="-3.898103">
        <ele>1317</ele>
        <time>2018-06-30T09:32:57.008Z</time>
      </trkpt>
      <trkpt lat="40.899096" lon="-3.898162">
        <ele>1318.15051067536</ele>
        <time>2018-06-30T09:33:01.008Z</time>
      </trkpt>
      <trkpt lat="40.899089" lon="-3.898215">
        <ele>1319</ele>
        <time>2018-06-30T09:33:05.008Z</time>
      </trkpt>
      <trkpt lat="40.899092" lon="-3.898343">
        <ele>1320</ele>
        <time>2018-06-30T09:33:14.008Z</time>
      </trkpt>
      <trkpt lat="40.899092" lon="-3.898473">
        <ele>1321</ele>
        <time>2018-06-30T09:33:23.008Z</time>
      </trkpt>
      <trkpt lat="40.8991" lon="-3.898615">
        <ele>1322</ele>
        <time>2018-06-30T09:33:34.008Z</time>
      </trkpt>
      <trkpt lat="40.899106" lon="-3.898748">
        <ele>1324</ele>
        <time>2018-06-30T09:33:44.008Z</time>
      </trkpt>
      <trkpt lat="40.89912" lon="-3.898891">
        <ele>1326</ele>
        <time>2018-06-30T09:33:55.008Z</time>
      </trkpt>
      <trkpt lat="40.89915" lon="-3.899032">
        <ele>1328</ele>
        <time>2018-06-30T09:34:07.008Z</time>
      </trkpt>
      <trkpt lat="40.899176" lon="-3.899165">
        <ele>1329</ele>
        <time>2018-06-30T09:34:17.008Z</time>
      </trkpt>
      <trkpt lat="40.899215" lon="-3.899295">
        <ele>1331</ele>
        <time>2018-06-30T09:34:27.008Z</time>
      </trkpt>
      <trkpt lat="40.899267" lon="-3.899409">
        <ele>1333</ele>
        <time>2018-06-30T09:34:35.008Z</time>
      </trkpt>
      <trkpt lat="40.899318" lon="-3.899524">
        <ele>1335</ele>
        <time>2018-06-30T09:34:43.008Z</time>
      </trkpt>
      <trkpt lat="40.899371" lon="-3.899637">
        <ele>1336</ele>
        <time>2018-06-30T09:34:53.008Z</time>
      </trkpt>
      <trkpt lat="40.899413" lon="-3.899762">
        <ele>1338</ele>
        <time>2018-06-30T09:35:02.008Z</time>
      </trkpt>
      <trkpt lat="40.899442" lon="-3.89989">
        <ele>1340</ele>
        <time>2018-06-30T09:35:12.008Z</time>
      </trkpt>
      <trkpt lat="40.899481" lon="-3.900002">
        <ele>1340.54221836645</ele>
        <time>2018-06-30T09:35:21.008Z</time>
      </trkpt>
      <trkpt lat="40.899487" lon="-3.900136">
        <ele>1341</ele>
        <time>2018-06-30T09:35:32.008Z</time>
      </trkpt>
      <trkpt lat="40.899548" lon="-3.900257">
        <ele>1342.75149979313</ele>
        <time>2018-06-30T09:35:41.008Z</time>
      </trkpt>
      <trkpt lat="40.899593" lon="-3.900382">
        <ele>1345</ele>
        <time>2018-06-30T09:35:51.008Z</time>
      </trkpt>
      <trkpt lat="40.899641" lon="-3.900513">
        <ele>1348</ele>
        <time>2018-06-30T09:36:04.008Z</time>
      </trkpt>
      <trkpt lat="40.899692" lon="-3.900649">
        <ele>1350</ele>
        <time>2018-06-30T09:36:15.008Z</time>
      </trkpt>
      <trkpt lat="40.899705" lon="-3.900801">
        <ele>1351</ele>
        <time>2018-06-30T09:36:27.008Z</time>
      </trkpt>
      <trkpt lat="40.899721" lon="-3.900933">
        <ele>1353</ele>
        <time>2018-06-30T09:36:36.008Z</time>
      </trkpt>
      <trkpt lat="40.89975" lon="-3.901061">
        <ele>1355</ele>
        <time>2018-06-30T09:36:47.008Z</time>
      </trkpt>
      <trkpt lat="40.89979" lon="-3.901184">
        <ele>1356</ele>
        <time>2018-06-30T09:36:56.008Z</time>
      </trkpt>
      <trkpt lat="40.899816" lon="-3.90133">
        <ele>1358</ele>
        <time>2018-06-30T09:37:06.008Z</time>
      </trkpt>
      <trkpt lat="40.899853" lon="-3.901454">
        <ele>1360</ele>
        <time>2018-06-30T09:37:15.008Z</time>
      </trkpt>
      <trkpt lat="40.899865" lon="-3.901594">
        <ele>1361</ele>
        <time>2018-06-30T09:37:25.008Z</time>
      </trkpt>
      <trkpt lat="40.899901" lon="-3.90172">
        <ele>1363</ele>
        <time>2018-06-30T09:37:33.008Z</time>
      </trkpt>
      <trkpt lat="40.899932" lon="-3.901854">
        <ele>1364</ele>
        <time>2018-06-30T09:37:42.008Z</time>
      </trkpt>
      <trkpt lat="40.899978" lon="-3.901978">
        <ele>1364.54221836645</ele>
        <time>2018-06-30T09:37:51.008Z</time>
      </trkpt>
      <trkpt lat="40.900021" lon="-3.902118">
        <ele>1366.15917610334</ele>
        <time>2018-06-30T09:38:01.008Z</time>
      </trkpt>
      <trkpt lat="40.900061" lon="-3.90225">
        <ele>1367</ele>
        <time>2018-06-30T09:38:10.008Z</time>
      </trkpt>
      <trkpt lat="40.900107" lon="-3.902372">
        <ele>1368</ele>
        <time>2018-06-30T09:38:19.008Z</time>
      </trkpt>
      <trkpt lat="40.90014" lon="-3.902504">
        <ele>1370</ele>
        <time>2018-06-30T09:38:28.008Z</time>
      </trkpt>
      <trkpt lat="40.900194" lon="-3.902623">
        <ele>1371</ele>
        <time>2018-06-30T09:38:38.008Z</time>
      </trkpt>
      <trkpt lat="40.900239" lon="-3.902744">
        <ele>1372</ele>
        <time>2018-06-30T09:38:47.008Z</time>
      </trkpt>
      <trkpt lat="40.900278" lon="-3.902875">
        <ele>1374</ele>
        <time>2018-06-30T09:38:56.008Z</time>
      </trkpt>
      <trkpt lat="40.90032" lon="-3.903002">
        <ele>1375</ele>
        <time>2018-06-30T09:39:05.008Z</time>
      </trkpt>
      <trkpt lat="40.900359" lon="-3.903136">
        <ele>1376</ele>
        <time>2018-06-30T09:39:13.008Z</time>
      </trkpt>
      <trkpt lat="40.90041" lon="-3.903252">
        <ele>1378</ele>
        <time>2018-06-30T09:39:22.008Z</time>
      </trkpt>
      <trkpt lat="40.900476" lon="-3.903365">
        <ele>1380</ele>
        <time>2018-06-30T09:39:32.008Z</time>
      </trkpt>
      <trkpt lat="40.900525" lon="-3.903489">
        <ele>1382</ele>
        <time>2018-06-30T09:39:42.008Z</time>
      </trkpt>
      <trkpt lat="40.900579" lon="-3.9036">
        <ele>1383.08443673289</ele>
        <time>2018-06-30T09:39:51.008Z</time>
      </trkpt>
      <trkpt lat="40.900632" lon="-3.903716">
        <ele>1385.15917610334</ele>
        <time>2018-06-30T09:40:01.008Z</time>
      </trkpt>
      <trkpt lat="40.900674" lon="-3.90384">
        <ele>1386</ele>
        <time>2018-06-30T09:40:10.008Z</time>
      </trkpt>
      <trkpt lat="40.900737" lon="-3.90396">
        <ele>1387</ele>
        <time>2018-06-30T09:40:20.008Z</time>
      </trkpt>
      <trkpt lat="40.900775" lon="-3.904082">
        <ele>1390</ele>
        <time>2018-06-30T09:40:32.008Z</time>
      </trkpt>
      <trkpt lat="40.900822" lon="-3.904211">
        <ele>1391.16766652875</ele>
        <time>2018-06-30T09:40:41.008Z</time>
      </trkpt>
      <trkpt lat="40.900863" lon="-3.904334">
        <ele>1392</ele>
        <time>2018-06-30T09:40:50.008Z</time>
      </trkpt>
      <trkpt lat="40.900915" lon="-3.90445">
        <ele>1394</ele>
        <time>2018-06-30T09:40:59.008Z</time>
      </trkpt>
      <trkpt lat="40.900967" lon="-3.904573">
        <ele>1395</ele>
        <time>2018-06-30T09:41:09.008Z</time>
      </trkpt>
      <trkpt lat="40.900983" lon="-3.904716">
        <ele>1397</ele>
        <time>2018-06-30T09:41:19.008Z</time>
      </trkpt>
      <trkpt lat="40.900999" lon="-3.904858">
        <ele>1398</ele>
        <time>2018-06-30T09:41:28.008Z</time>
      </trkpt>
      <trkpt lat="40.901009" lon="-3.904994">
        <ele>1400</ele>
        <time>2018-06-30T09:41:37.008Z</time>
      </trkpt>
      <trkpt lat="40.901037" lon="-3.905127">
        <ele>1401</ele>
        <time>2018-06-30T09:41:45.008Z</time>
      </trkpt>
      <trkpt lat="40.901076" lon="-3.90525">
        <ele>1402</ele>
        <time>2018-06-30T09:41:54.008Z</time>
      </trkpt>
      <trkpt lat="40.901125" lon="-3.905365">
        <ele>1405</ele>
        <time>2018-06-30T09:42:03.008Z</time>
      </trkpt>
      <trkpt lat="40.901116" lon="-3.905499">
        <ele>1405</ele>
        <time>2018-06-30T09:42:12.008Z</time>
      </trkpt>
      <trkpt lat="40.901117" lon="-3.905634">
        <ele>1407</ele>
        <time>2018-06-30T09:42:22.008Z</time>
      </trkpt>
      <trkpt lat="40.901145" lon="-3.905764">
        <ele>1409</ele>
        <time>2018-06-30T09:42:33.008Z</time>
      </trkpt>
      <trkpt lat="40.901142" lon="-3.905902">
        <ele>1410</ele>
        <time>2018-06-30T09:42:44.008Z</time>
      </trkpt>
      <trkpt lat="40.901149" lon="-3.906043">
        <ele>1412</ele>
        <time>2018-06-30T09:42:54.008Z</time>
      </trkpt>
      <trkpt lat="40.901173" lon="-3.90618">
        <ele>1413</ele>
        <time>2018-06-30T09:43:03.008Z</time>
      </trkpt>
      <trkpt lat="40.901187" lon="-3.906337">
        <ele>1415</ele>
        <time>2018-06-30T09:43:14.008Z</time>
      </trkpt>
      <trkpt lat="40.901183" lon="-3.906477">
        <ele>1417</ele>
        <time>2018-06-30T09:43:25.008Z</time>
      </trkpt>
      <trkpt lat="40.901179" lon="-3.906612">
        <ele>1418</ele>
        <time>2018-06-30T09:43:34.008Z</time>
      </trkpt>
      <trkpt lat="40.901171" lon="-3.90676">
        <ele>1420</ele>
        <time>2018-06-30T09:43:44.008Z</time>
      </trkpt>
      <trkpt lat="40.901172" lon="-3.906899">
        <ele>1421</ele>
        <time>2018-06-30T09:43:53.008Z</time>
      </trkpt>
      <trkpt lat="40.901175" lon="-3.907034">
        <ele>1422</ele>
        <time>2018-06-30T09:44:02.008Z</time>
      </trkpt>
      <trkpt lat="40.901208" lon="-3.907159">
        <ele>1422</ele>
        <time>2018-06-30T09:44:10.008Z</time>
      </trkpt>
      <trkpt lat="40.9013" lon="-3.907087">
        <ele>1428</ele>
        <time>2018-06-30T09:44:27.008Z</time>
      </trkpt>
      <trkpt lat="40.901363" lon="-3.906973">
        <ele>1428</ele>
        <time>2018-06-30T09:44:38.008Z</time>
      </trkpt>
      <trkpt lat="40.901405" lon="-3.906839">
        <ele>1428</ele>
        <time>2018-06-30T09:44:49.008Z</time>
      </trkpt>
      <trkpt lat="40.901456" lon="-3.906718">
        <ele>1429</ele>
        <time>2018-06-30T09:44:58.008Z</time>
      </trkpt>
      <trkpt lat="40.901501" lon="-3.906601">
        <ele>1429</ele>
        <time>2018-06-30T09:45:05.008Z</time>
      </trkpt>
      <trkpt lat="40.90156" lon="-3.906482">
        <ele>1431</ele>
        <time>2018-06-30T09:45:13.008Z</time>
      </trkpt>
      <trkpt lat="40.901606" lon="-3.906359">
        <ele>1432</ele>
        <time>2018-06-30T09:45:24.008Z</time>
      </trkpt>
      <trkpt lat="40.901658" lon="-3.906238">
        <ele>1433</ele>
        <time>2018-06-30T09:45:32.008Z</time>
      </trkpt>
      <trkpt lat="40.901708" lon="-3.906113">
        <ele>1433</ele>
        <time>2018-06-30T09:45:40.008Z</time>
      </trkpt>
      <trkpt lat="40.901756" lon="-3.905988">
        <ele>1434</ele>
        <time>2018-06-30T09:45:50.008Z</time>
      </trkpt>
      <trkpt lat="40.901796" lon="-3.905862">
        <ele>1435</ele>
        <time>2018-06-30T09:45:59.008Z</time>
      </trkpt>
      <trkpt lat="40.901841" lon="-3.905734">
        <ele>1436</ele>
        <time>2018-06-30T09:46:09.008Z</time>
      </trkpt>
      <trkpt lat="40.901895" lon="-3.90561">
        <ele>1437</ele>
        <time>2018-06-30T09:46:19.008Z</time>
      </trkpt>
      <trkpt lat="40.901945" lon="-3.905477">
        <ele>1438</ele>
        <time>2018-06-30T09:46:29.008Z</time>
      </trkpt>
      <trkpt lat="40.901979" lon="-3.905351">
        <ele>1439</ele>
        <time>2018-06-30T09:46:37.008Z</time>
      </trkpt>
      <trkpt lat="40.902014" lon="-3.905218">
        <ele>1439</ele>
        <time>2018-06-30T09:46:47.008Z</time>
      </trkpt>
      <trkpt lat="40.902039" lon="-3.905091">
        <ele>1441</ele>
        <time>2018-06-30T09:46:58.008Z</time>
      </trkpt>
      <trkpt lat="40.902076" lon="-3.904958">
        <ele>1443</ele>
        <time>2018-06-30T09:47:08.008Z</time>
      </trkpt>
      <trkpt lat="40.902096" lon="-3.904827">
        <ele>1444</ele>
        <time>2018-06-30T09:47:18.008Z</time>
      </trkpt>
      <trkpt lat="40.902115" lon="-3.904698">
        <ele>1445</ele>
        <time>2018-06-30T09:47:27.008Z</time>
      </trkpt>
      <trkpt lat="40.902146" lon="-3.904558">
        <ele>1446</ele>
        <time>2018-06-30T09:47:35.008Z</time>
      </trkpt>
      <trkpt lat="40.902172" lon="-3.904429">
        <ele>1448</ele>
        <time>2018-06-30T09:47:43.008Z</time>
      </trkpt>
      <trkpt lat="40.902228" lon="-3.904298">
        <ele>1448</ele>
        <time>2018-06-30T09:47:53.008Z</time>
      </trkpt>
      <trkpt lat="40.902279" lon="-3.904169">
        <ele>1449</ele>
        <time>2018-06-30T09:48:02.008Z</time>
      </trkpt>
      <trkpt lat="40.902333" lon="-3.904044">
        <ele>1450</ele>
        <time>2018-06-30T09:48:12.008Z</time>
      </trkpt>
      <trkpt lat="40.90238" lon="-3.903926">
        <ele>1450</ele>
        <time>2018-06-30T09:48:21.008Z</time>
      </trkpt>
      <trkpt lat="40.902406" lon="-3.903789">
        <ele>1450</ele>
        <time>2018-06-30T09:48:30.008Z</time>
      </trkpt>
      <trkpt lat="40.902457" lon="-3.903659">
        <ele>1451</ele>
        <time>2018-06-30T09:48:39.008Z</time>
      </trkpt>
      <trkpt lat="40.902503" lon="-3.90359">
        <ele>1452</ele>
        <time>2018-06-30T09:48:45.008Z</time>
      </trkpt>
      <trkpt lat="40.902556" lon="-3.90352">
        <ele>1452.54221836645</ele>
        <time>2018-06-30T09:48:51.008Z</time>
      </trkpt>
      <trkpt lat="40.902611" lon="-3.903488">
        <ele>1453</ele>
        <time>2018-06-30T09:48:56.008Z</time>
      </trkpt>
      <trkpt lat="40.902679" lon="-3.903465">
        <ele>1453.57958805167</ele>
        <time>2018-06-30T09:49:01.008Z</time>
      </trkpt>
      <trkpt lat="40.902736" lon="-3.903454">
        <ele>1454</ele>
        <time>2018-06-30T09:49:05.008Z</time>
      </trkpt>
      <trkpt lat="40.902795" lon="-3.90351">
        <ele>1456</ele>
        <time>2018-06-30T09:49:13.008Z</time>
      </trkpt>
      <trkpt lat="40.902801" lon="-3.903607">
        <ele>1458</ele>
        <time>2018-06-30T09:49:23.008Z</time>
      </trkpt>
      <trkpt lat="40.902788" lon="-3.903722">
        <ele>1460</ele>
        <time>2018-06-30T09:49:33.008Z</time>
      </trkpt>
      <trkpt lat="40.902775" lon="-3.903838">
        <ele>1461</ele>
        <time>2018-06-30T09:49:42.008Z</time>
      </trkpt>
      <trkpt lat="40.902765" lon="-3.903932">
        <ele>1461</ele>
        <time>2018-06-30T09:49:49.008Z</time>
      </trkpt>
      <trkpt lat="40.902764" lon="-3.904031">
        <ele>1463</ele>
        <time>2018-06-30T09:49:56.008Z</time>
      </trkpt>
      <trkpt lat="40.902757" lon="-3.904112">
        <ele>1463.57958805167</ele>
        <time>2018-06-30T09:50:01.008Z</time>
      </trkpt>
      <trkpt lat="40.90275" lon="-3.904198">
        <ele>1464</ele>
        <time>2018-06-30T09:50:07.008Z</time>
      </trkpt>
      <trkpt lat="40.902754" lon="-3.904298">
        <ele>1466</ele>
        <time>2018-06-30T09:50:14.008Z</time>
      </trkpt>
      <trkpt lat="40.902754" lon="-3.904377">
        <ele>1468</ele>
        <time>2018-06-30T09:50:22.008Z</time>
      </trkpt>
      <trkpt lat="40.902758" lon="-3.904461">
        <ele>1468</ele>
        <time>2018-06-30T09:50:29.008Z</time>
      </trkpt>
      <trkpt lat="40.902767" lon="-3.904541">
        <ele>1468</ele>
        <time>2018-06-30T09:50:35.008Z</time>
      </trkpt>
      <trkpt lat="40.902769" lon="-3.904618">
        <ele>1468</ele>
        <time>2018-06-30T09:50:40.008Z</time>
      </trkpt>
      <trkpt lat="40.902774" lon="-3.904697">
        <ele>1469</ele>
        <time>2018-06-30T09:50:45.008Z</time>
      </trkpt>
      <trkpt lat="40.902775" lon="-3.904787">
        <ele>1469.54221836645</ele>
        <time>2018-06-30T09:50:51.008Z</time>
      </trkpt>
      <trkpt lat="40.90277" lon="-3.904871">
        <ele>1470</ele>
        <time>2018-06-30T09:50:57.008Z</time>
      </trkpt>
      <trkpt lat="40.902784" lon="-3.904965">
        <ele>1470</ele>
        <time>2018-06-30T09:51:03.008Z</time>
      </trkpt>
      <trkpt lat="40.902784" lon="-3.905064">
        <ele>1472.16766652875</ele>
        <time>2018-06-30T09:51:11.008Z</time>
      </trkpt>
      <trkpt lat="40.9028" lon="-3.905156">
        <ele>1473</ele>
        <time>2018-06-30T09:51:16.008Z</time>
      </trkpt>
      <trkpt lat="40.902808" lon="-3.90524">
        <ele>1474</ele>
        <time>2018-06-30T09:51:22.008Z</time>
      </trkpt>
      <trkpt lat="40.902806" lon="-3.905324">
        <ele>1474</ele>
        <time>2018-06-30T09:51:28.008Z</time>
      </trkpt>
      <trkpt lat="40.902808" lon="-3.905421">
        <ele>1475</ele>
        <time>2018-06-30T09:51:34.008Z</time>
      </trkpt>
      <trkpt lat="40.902796" lon="-3.905503">
        <ele>1475</ele>
        <time>2018-06-30T09:51:40.008Z</time>
      </trkpt>
      <trkpt lat="40.9028" lon="-3.905584">
        <ele>1476</ele>
        <time>2018-06-30T09:51:45.008Z</time>
      </trkpt>
      <trkpt lat="40.902788" lon="-3.905727">
        <ele>1478</ele>
        <time>2018-06-30T09:51:54.008Z</time>
      </trkpt>
      <trkpt lat="40.902765" lon="-3.905869">
        <ele>1478</ele>
        <time>2018-06-30T09:52:04.008Z</time>
      </trkpt>
      <trkpt lat="40.902736" lon="-3.906005">
        <ele>1478</ele>
        <time>2018-06-30T09:52:14.008Z</time>
      </trkpt>
      <trkpt lat="40.902712" lon="-3.906135">
        <ele>1478</ele>
        <time>2018-06-30T09:52:24.008Z</time>
      </trkpt>
      <trkpt lat="40.902697" lon="-3.906275">
        <ele>1480</ele>
        <time>2018-06-30T09:52:33.008Z</time>
      </trkpt>
      <trkpt lat="40.902701" lon="-3.906422">
        <ele>1481</ele>
        <time>2018-06-30T09:52:45.008Z</time>
      </trkpt>
      <trkpt lat="40.902703" lon="-3.906556">
        <ele>1481</ele>
        <time>2018-06-30T09:52:54.008Z</time>
      </trkpt>
      <trkpt lat="40.902695" lon="-3.906692">
        <ele>1482</ele>
        <time>2018-06-30T09:53:03.008Z</time>
      </trkpt>
      <trkpt lat="40.902713" lon="-3.906828">
        <ele>1482</ele>
        <time>2018-06-30T09:53:12.008Z</time>
      </trkpt>
      <trkpt lat="40.902734" lon="-3.90696">
        <ele>1483.08443673289</ele>
        <time>2018-06-30T09:53:21.008Z</time>
      </trkpt>
      <trkpt lat="40.902761" lon="-3.907086">
        <ele>1484</ele>
        <time>2018-06-30T09:53:28.008Z</time>
      </trkpt>
      <trkpt lat="40.90279" lon="-3.9072">
        <ele>1484</ele>
        <time>2018-06-30T09:54:27.008Z</time>
      </trkpt>
      <trkpt lat="40.902794" lon="-3.907339">
        <ele>1486</ele>
        <time>2018-06-30T09:54:45.008Z</time>
      </trkpt>
      <trkpt lat="40.902811" lon="-3.907459">
        <ele>1487</ele>
        <time>2018-06-30T09:54:55.008Z</time>
      </trkpt>
      <trkpt lat="40.902859" lon="-3.907577">
        <ele>1487</ele>
        <time>2018-06-30T09:55:05.008Z</time>
      </trkpt>
      <trkpt lat="40.902894" lon="-3.907709">
        <ele>1489</ele>
        <time>2018-06-30T09:55:15.008Z</time>
      </trkpt>
      <trkpt lat="40.902924" lon="-3.907838">
        <ele>1491</ele>
        <time>2018-06-30T09:55:26.008Z</time>
      </trkpt>
      <trkpt lat="40.902958" lon="-3.907969">
        <ele>1492</ele>
        <time>2018-06-30T09:55:36.008Z</time>
      </trkpt>
      <trkpt lat="40.902971" lon="-3.908098">
        <ele>1494</ele>
        <time>2018-06-30T09:55:43.008Z</time>
      </trkpt>
      <trkpt lat="40.902999" lon="-3.908209">
        <ele>1494</ele>
        <time>2018-06-30T09:55:51.008Z</time>
      </trkpt>
      <trkpt lat="40.903013" lon="-3.908303">
        <ele>1494</ele>
        <time>2018-06-30T09:55:58.008Z</time>
      </trkpt>
      <trkpt lat="40.90302" lon="-3.908429">
        <ele>1495</ele>
        <time>2018-06-30T09:56:07.008Z</time>
      </trkpt>
      <trkpt lat="40.903038" lon="-3.908539">
        <ele>1497</ele>
        <time>2018-06-30T09:56:15.008Z</time>
      </trkpt>
      <trkpt lat="40.903052" lon="-3.908654">
        <ele>1498</ele>
        <time>2018-06-30T09:56:24.008Z</time>
      </trkpt>
      <trkpt lat="40.903074" lon="-3.908773">
        <ele>1499</ele>
        <time>2018-06-30T09:56:32.008Z</time>
      </trkpt>
      <trkpt lat="40.90308" lon="-3.9089">
        <ele>1500</ele>
        <time>2018-06-30T09:56:42.008Z</time>
      </trkpt>
      <trkpt lat="40.903102" lon="-3.909035">
        <ele>1501</ele>
        <time>2018-06-30T09:56:53.008Z</time>
      </trkpt>
      <trkpt lat="40.903121" lon="-3.909164">
        <ele>1501.57958805167</ele>
        <time>2018-06-30T09:57:01.008Z</time>
      </trkpt>
      <trkpt lat="40.90313" lon="-3.909297">
        <ele>1502</ele>
        <time>2018-06-30T09:57:10.008Z</time>
      </trkpt>
      <trkpt lat="40.903151" lon="-3.909431">
        <ele>1503</ele>
        <time>2018-06-30T09:57:19.008Z</time>
      </trkpt>
      <trkpt lat="40.903167" lon="-3.90956">
        <ele>1505</ele>
        <time>2018-06-30T09:57:28.008Z</time>
      </trkpt>
      <trkpt lat="40.903185" lon="-3.909683">
        <ele>1506</ele>
        <time>2018-06-30T09:57:35.008Z</time>
      </trkpt>
      <trkpt lat="40.903205" lon="-3.909808">
        <ele>1507</ele>
        <time>2018-06-30T09:57:42.008Z</time>
      </trkpt>
      <trkpt lat="40.903256" lon="-3.909903">
        <ele>1507</ele>
        <time>2018-06-30T09:57:50.008Z</time>
      </trkpt>
      <trkpt lat="40.903326" lon="-3.909944">
        <ele>1508</ele>
        <time>2018-06-30T09:57:57.008Z</time>
      </trkpt>
      <trkpt lat="40.903374" lon="-3.910021">
        <ele>1510</ele>
        <time>2018-06-30T09:58:04.008Z</time>
      </trkpt>
      <trkpt lat="40.903413" lon="-3.910088">
        <ele>1511.16766652875</ele>
        <time>2018-06-30T09:58:11.008Z</time>
      </trkpt>
      <trkpt lat="40.903425" lon="-3.910189">
        <ele>1512</ele>
        <time>2018-06-30T09:58:19.008Z</time>
      </trkpt>
      <trkpt lat="40.903407" lon="-3.91027">
        <ele>1512</ele>
        <time>2018-06-30T09:58:25.008Z</time>
      </trkpt>
      <trkpt lat="40.903397" lon="-3.910382">
        <ele>1512</ele>
        <time>2018-06-30T09:58:32.008Z</time>
      </trkpt>
      <trkpt lat="40.903379" lon="-3.910478">
        <ele>1512</ele>
        <time>2018-06-30T09:58:38.008Z</time>
      </trkpt>
      <trkpt lat="40.903367" lon="-3.910586">
        <ele>1513</ele>
        <time>2018-06-30T09:58:45.008Z</time>
      </trkpt>
      <trkpt lat="40.903381" lon="-3.910679">
        <ele>1513</ele>
        <time>2018-06-30T09:58:51.008Z</time>
      </trkpt>
      <trkpt lat="40.903392" lon="-3.910782">
        <ele>1513</ele>
        <time>2018-06-30T09:58:58.008Z</time>
      </trkpt>
      <trkpt lat="40.903418" lon="-3.91092">
        <ele>1515.58383326438</ele>
        <time>2018-06-30T09:59:11.008Z</time>
      </trkpt>
      <trkpt lat="40.903453" lon="-3.911045">
        <ele>1516.54221836645</ele>
        <time>2018-06-30T09:59:21.008Z</time>
      </trkpt>
      <trkpt lat="40.903444" lon="-3.911179">
        <ele>1518.15917610334</ele>
        <time>2018-06-30T09:59:31.008Z</time>
      </trkpt>
      <trkpt lat="40.903466" lon="-3.911309">
        <ele>1519.58383326438</ele>
        <time>2018-06-30T09:59:41.008Z</time>
      </trkpt>
      <trkpt lat="40.903457" lon="-3.911452">
        <ele>1521</ele>
        <time>2018-06-30T09:59:52.008Z</time>
      </trkpt>
      <trkpt lat="40.903449" lon="-3.911588">
        <ele>1522</ele>
        <time>2018-06-30T10:00:02.008Z</time>
      </trkpt>
      <trkpt lat="40.903471" lon="-3.911732">
        <ele>1522</ele>
        <time>2018-06-30T10:00:12.008Z</time>
      </trkpt>
      <trkpt lat="40.903475" lon="-3.911876">
        <ele>1522</ele>
        <time>2018-06-30T10:00:19.008Z</time>
      </trkpt>
      <trkpt lat="40.903463" lon="-3.912012">
        <ele>1524</ele>
        <time>2018-06-30T10:00:25.008Z</time>
      </trkpt>
      <trkpt lat="40.903458" lon="-3.912146">
        <ele>1525</ele>
        <time>2018-06-30T10:00:32.008Z</time>
      </trkpt>
      <trkpt lat="40.903444" lon="-3.912244">
        <ele>1525</ele>
        <time>2018-06-30T10:00:38.008Z</time>
      </trkpt>
      <trkpt lat="40.903434" lon="-3.912358">
        <ele>1526</ele>
        <time>2018-06-30T10:00:45.008Z</time>
      </trkpt>
      <trkpt lat="40.903446" lon="-3.912488">
        <ele>1527</ele>
        <time>2018-06-30T10:00:52.008Z</time>
      </trkpt>
      <trkpt lat="40.903463" lon="-3.912624">
        <ele>1528</ele>
        <time>2018-06-30T10:01:04.008Z</time>
      </trkpt>
      <trkpt lat="40.903481" lon="-3.91276">
        <ele>1529</ele>
        <time>2018-06-30T10:01:14.008Z</time>
      </trkpt>
      <trkpt lat="40.903509" lon="-3.912895">
        <ele>1529</ele>
        <time>2018-06-30T10:01:23.008Z</time>
      </trkpt>
      <trkpt lat="40.903556" lon="-3.91303">
        <ele>1529</ele>
        <time>2018-06-30T10:01:30.008Z</time>
      </trkpt>
      <trkpt lat="40.903568" lon="-3.91316">
        <ele>1529</ele>
        <time>2018-06-30T10:01:37.008Z</time>
      </trkpt>
      <trkpt lat="40.903562" lon="-3.913302">
        <ele>1529</ele>
        <time>2018-06-30T10:01:46.008Z</time>
      </trkpt>
      <trkpt lat="40.90356" lon="-3.913448">
        <ele>1530</ele>
        <time>2018-06-30T10:01:56.008Z</time>
      </trkpt>
      <trkpt lat="40.903544" lon="-3.913588">
        <ele>1531</ele>
        <time>2018-06-30T10:02:03.008Z</time>
      </trkpt>
      <trkpt lat="40.9035" lon="-3.913721">
        <ele>1531</ele>
        <time>2018-06-30T10:02:12.008Z</time>
      </trkpt>
      <trkpt lat="40.903474" lon="-3.913842">
        <ele>1531</ele>
        <time>2018-06-30T10:02:20.008Z</time>
      </trkpt>
      <trkpt lat="40.903462" lon="-3.913989">
        <ele>1532</ele>
        <time>2018-06-30T10:02:30.008Z</time>
      </trkpt>
      <trkpt lat="40.903464" lon="-3.914111">
        <ele>1533</ele>
        <time>2018-06-30T10:02:35.008Z</time>
      </trkpt>
      <trkpt lat="40.903458" lon="-3.914244">
        <ele>1533</ele>
        <time>2018-06-30T10:02:44.008Z</time>
      </trkpt>
      <trkpt lat="40.903402" lon="-3.914371">
        <ele>1533</ele>
        <time>2018-06-30T10:02:53.008Z</time>
      </trkpt>
      <trkpt lat="40.903359" lon="-3.914497">
        <ele>1533</ele>
        <time>2018-06-30T10:03:00.008Z</time>
      </trkpt>
      <trkpt lat="40.9033" lon="-3.914592">
        <ele>1535</ele>
        <time>2018-06-30T10:03:09.008Z</time>
      </trkpt>
      <trkpt lat="40.903214" lon="-3.914662">
        <ele>1535</ele>
        <time>2018-06-30T10:03:20.008Z</time>
      </trkpt>
      <trkpt lat="40.903122" lon="-3.914712">
        <ele>1535</ele>
        <time>2018-06-30T10:03:27.008Z</time>
      </trkpt>
      <trkpt lat="40.903052" lon="-3.91482">
        <ele>1536</ele>
        <time>2018-06-30T10:03:36.008Z</time>
      </trkpt>
      <trkpt lat="40.902957" lon="-3.914871">
        <ele>1538</ele>
        <time>2018-06-30T10:03:43.008Z</time>
      </trkpt>
      <trkpt lat="40.902874" lon="-3.914963">
        <ele>1538</ele>
        <time>2018-06-30T10:03:54.008Z</time>
      </trkpt>
      <trkpt lat="40.902789" lon="-3.915039">
        <ele>1540</ele>
        <time>2018-06-30T10:04:02.008Z</time>
      </trkpt>
      <trkpt lat="40.902734" lon="-3.915137">
        <ele>1540</ele>
        <time>2018-06-30T10:04:09.008Z</time>
      </trkpt>
      <trkpt lat="40.902683" lon="-3.915205">
        <ele>1541</ele>
        <time>2018-06-30T10:04:15.008Z</time>
      </trkpt>
      <trkpt lat="40.902619" lon="-3.915283">
        <ele>1542</ele>
        <time>2018-06-30T10:04:24.008Z</time>
      </trkpt>
      <trkpt lat="40.902569" lon="-3.915397">
        <ele>1543</ele>
        <time>2018-06-30T10:04:34.008Z</time>
      </trkpt>
      <trkpt lat="40.902509" lon="-3.915508">
        <ele>1546</ele>
        <time>2018-06-30T10:04:43.008Z</time>
      </trkpt>
      <trkpt lat="40.902442" lon="-3.915617">
        <ele>1548</ele>
        <time>2018-06-30T10:04:55.008Z</time>
      </trkpt>
      <trkpt lat="40.902363" lon="-3.915613">
        <ele>1547</ele>
        <time>2018-06-30T10:06:04.008Z</time>
      </trkpt>
      <trkpt lat="40.902339" lon="-3.915716">
        <ele>1547</ele>
        <time>2018-06-30T10:06:27.008Z</time>
      </trkpt>
      <trkpt lat="40.902298" lon="-3.915793">
        <ele>1548</ele>
        <time>2018-06-30T10:06:36.008Z</time>
      </trkpt>
      <trkpt lat="40.902238" lon="-3.915867">
        <ele>1550</ele>
        <time>2018-06-30T10:06:45.008Z</time>
      </trkpt>
      <trkpt lat="40.902165" lon="-3.91593">
        <ele>1552</ele>
        <time>2018-06-30T10:06:54.008Z</time>
      </trkpt>
      <trkpt lat="40.902105" lon="-3.916006">
        <ele>1552</ele>
        <time>2018-06-30T10:07:02.008Z</time>
      </trkpt>
      <trkpt lat="40.90204" lon="-3.916111">
        <ele>1554</ele>
        <time>2018-06-30T10:07:12.008Z</time>
      </trkpt>
      <trkpt lat="40.901965" lon="-3.916201">
        <ele>1554.54221836645</ele>
        <time>2018-06-30T10:07:21.008Z</time>
      </trkpt>
      <trkpt lat="40.901887" lon="-3.916291">
        <ele>1555</ele>
        <time>2018-06-30T10:07:30.008Z</time>
      </trkpt>
      <trkpt lat="40.901838" lon="-3.916349">
        <ele>1557</ele>
        <time>2018-06-30T10:07:36.008Z</time>
      </trkpt>
      <trkpt lat="40.901779" lon="-3.916408">
        <ele>1558</ele>
        <time>2018-06-30T10:07:43.008Z</time>
      </trkpt>
      <trkpt lat="40.901726" lon="-3.916477">
        <ele>1558</ele>
        <time>2018-06-30T10:07:50.008Z</time>
      </trkpt>
      <trkpt lat="40.901656" lon="-3.916549">
        <ele>1558</ele>
        <time>2018-06-30T10:07:58.008Z</time>
      </trkpt>
      <trkpt lat="40.90157" lon="-3.916591">
        <ele>1560</ele>
        <time>2018-06-30T10:08:06.008Z</time>
      </trkpt>
      <trkpt lat="40.90148" lon="-3.916643">
        <ele>1562</ele>
        <time>2018-06-30T10:08:14.008Z</time>
      </trkpt>
      <trkpt lat="40.901395" lon="-3.916714">
        <ele>1563</ele>
        <time>2018-06-30T10:08:23.008Z</time>
      </trkpt>
      <trkpt lat="40.901314" lon="-3.916807">
        <ele>1565</ele>
        <time>2018-06-30T10:08:33.008Z</time>
      </trkpt>
      <trkpt lat="40.90124" lon="-3.916899">
        <ele>1567</ele>
        <time>2018-06-30T10:08:42.008Z</time>
      </trkpt>
      <trkpt lat="40.901164" lon="-3.917003">
        <ele>1567.54221836645</ele>
        <time>2018-06-30T10:08:51.008Z</time>
      </trkpt>
      <trkpt lat="40.901099" lon="-3.9171">
        <ele>1568</ele>
        <time>2018-06-30T10:08:59.008Z</time>
      </trkpt>
      <trkpt lat="40.901027" lon="-3.917191">
        <ele>1570</ele>
        <time>2018-06-30T10:09:07.008Z</time>
      </trkpt>
      <trkpt lat="40.90093" lon="-3.917255">
        <ele>1571</ele>
        <time>2018-06-30T10:09:16.008Z</time>
      </trkpt>
      <trkpt lat="40.900844" lon="-3.91732">
        <ele>1573</ele>
        <time>2018-06-30T10:09:24.008Z</time>
      </trkpt>
      <trkpt lat="40.900757" lon="-3.917372">
        <ele>1574</ele>
        <time>2018-06-30T10:09:32.008Z</time>
      </trkpt>
      <trkpt lat="40.90066" lon="-3.91739">
        <ele>1574</ele>
        <time>2018-06-30T10:09:39.008Z</time>
      </trkpt>
      <trkpt lat="40.900583" lon="-3.917441">
        <ele>1574</ele>
        <time>2018-06-30T10:09:46.008Z</time>
      </trkpt>
      <trkpt lat="40.900501" lon="-3.917483">
        <ele>1574</ele>
        <time>2018-06-30T10:09:53.008Z</time>
      </trkpt>
      <trkpt lat="40.900435" lon="-3.917523">
        <ele>1574</ele>
        <time>2018-06-30T10:09:59.008Z</time>
      </trkpt>
      <trkpt lat="40.90037" lon="-3.917592">
        <ele>1577</ele>
        <time>2018-06-30T10:10:06.008Z</time>
      </trkpt>
      <trkpt lat="40.900317" lon="-3.91767">
        <ele>1577</ele>
        <time>2018-06-30T10:10:13.008Z</time>
      </trkpt>
      <trkpt lat="40.900263" lon="-3.91775">
        <ele>1577</ele>
        <time>2018-06-30T10:10:20.008Z</time>
      </trkpt>
      <trkpt lat="40.900191" lon="-3.91784">
        <ele>1578</ele>
        <time>2018-06-30T10:10:29.008Z</time>
      </trkpt>
      <trkpt lat="40.900124" lon="-3.917942">
        <ele>1579</ele>
        <time>2018-06-30T10:10:38.008Z</time>
      </trkpt>
      <trkpt lat="40.900082" lon="-3.918009">
        <ele>1581</ele>
        <time>2018-06-30T10:10:44.008Z</time>
      </trkpt>
      <trkpt lat="40.900005" lon="-3.918098">
        <ele>1582</ele>
        <time>2018-06-30T10:10:54.008Z</time>
      </trkpt>
      <trkpt lat="40.899942" lon="-3.918178">
        <ele>1584</ele>
        <time>2018-06-30T10:11:02.008Z</time>
      </trkpt>
      <trkpt lat="40.899846" lon="-3.918248">
        <ele>1586</ele>
        <time>2018-06-30T10:11:12.008Z</time>
      </trkpt>
      <trkpt lat="40.899774" lon="-3.918314">
        <ele>1587</ele>
        <time>2018-06-30T10:11:20.008Z</time>
      </trkpt>
      <trkpt lat="40.899703" lon="-3.918364">
        <ele>1588</ele>
        <time>2018-06-30T10:11:27.008Z</time>
      </trkpt>
      <trkpt lat="40.899612" lon="-3.91842">
        <ele>1590</ele>
        <time>2018-06-30T10:11:35.008Z</time>
      </trkpt>
      <trkpt lat="40.899548" lon="-3.918497">
        <ele>1592</ele>
        <time>2018-06-30T10:11:42.008Z</time>
      </trkpt>
      <trkpt lat="40.899452" lon="-3.918538">
        <ele>1592.54221836645</ele>
        <time>2018-06-30T10:11:51.008Z</time>
      </trkpt>
      <trkpt lat="40.899366" lon="-3.918571">
        <ele>1593</ele>
        <time>2018-06-30T10:11:59.008Z</time>
      </trkpt>
      <trkpt lat="40.89928" lon="-3.91859">
        <ele>1594</ele>
        <time>2018-06-30T10:12:05.008Z</time>
      </trkpt>
      <trkpt lat="40.899212" lon="-3.918609">
        <ele>1594</ele>
        <time>2018-06-30T10:12:11.008Z</time>
      </trkpt>
      <trkpt lat="40.899139" lon="-3.91862">
        <ele>1594</ele>
        <time>2018-06-30T10:12:17.008Z</time>
      </trkpt>
      <trkpt lat="40.899068" lon="-3.918635">
        <ele>1596</ele>
        <time>2018-06-30T10:12:23.008Z</time>
      </trkpt>
      <trkpt lat="40.898967" lon="-3.918669">
        <ele>1597</ele>
        <time>2018-06-30T10:12:32.008Z</time>
      </trkpt>
      <trkpt lat="40.89888" lon="-3.918722">
        <ele>1598.16766652875</ele>
        <time>2018-06-30T10:12:41.008Z</time>
      </trkpt>
      <trkpt lat="40.898827" lon="-3.918766">
        <ele>1599</ele>
        <time>2018-06-30T10:12:46.008Z</time>
      </trkpt>
      <trkpt lat="40.898776" lon="-3.918829">
        <ele>1600</ele>
        <time>2018-06-30T10:12:52.008Z</time>
      </trkpt>
      <trkpt lat="40.898706" lon="-3.918919">
        <ele>1601.15917610334</ele>
        <time>2018-06-30T10:13:01.008Z</time>
      </trkpt>
      <trkpt lat="40.898623" lon="-3.918969">
        <ele>1602</ele>
        <time>2018-06-30T10:13:08.008Z</time>
      </trkpt>
      <trkpt lat="40.898535" lon="-3.919002">
        <ele>1603</ele>
        <time>2018-06-30T10:13:16.008Z</time>
      </trkpt>
      <trkpt lat="40.89846" lon="-3.919033">
        <ele>1605</ele>
        <time>2018-06-30T10:13:23.008Z</time>
      </trkpt>
      <trkpt lat="40.898386" lon="-3.919077">
        <ele>1605</ele>
        <time>2018-06-30T10:13:30.008Z</time>
      </trkpt>
      <trkpt lat="40.898321" lon="-3.91914">
        <ele>1606</ele>
        <time>2018-06-30T10:13:37.008Z</time>
      </trkpt>
      <trkpt lat="40.898287" lon="-3.919197">
        <ele>1608</ele>
        <time>2018-06-30T10:13:42.008Z</time>
      </trkpt>
      <trkpt lat="40.898259" lon="-3.919261">
        <ele>1608</ele>
        <time>2018-06-30T10:13:47.008Z</time>
      </trkpt>
      <trkpt lat="40.898226" lon="-3.919353">
        <ele>1610</ele>
        <time>2018-06-30T10:13:54.008Z</time>
      </trkpt>
      <trkpt lat="40.898211" lon="-3.91942">
        <ele>1610</ele>
        <time>2018-06-30T10:13:59.008Z</time>
      </trkpt>
      <trkpt lat="40.898194" lon="-3.919487">
        <ele>1611</ele>
        <time>2018-06-30T10:14:04.008Z</time>
      </trkpt>
      <trkpt lat="40.898178" lon="-3.919538">
        <ele>1611</ele>
        <time>2018-06-30T10:14:08.008Z</time>
      </trkpt>
      <trkpt lat="40.89815" lon="-3.919601">
        <ele>1613</ele>
        <time>2018-06-30T10:14:13.008Z</time>
      </trkpt>
      <trkpt lat="40.898134" lon="-3.919658">
        <ele>1613</ele>
        <time>2018-06-30T10:14:17.008Z</time>
      </trkpt>
      <trkpt lat="40.898122" lon="-3.919731">
        <ele>1615</ele>
        <time>2018-06-30T10:14:22.008Z</time>
      </trkpt>
      <trkpt lat="40.898106" lon="-3.919854">
        <ele>1615</ele>
        <time>2018-06-30T10:14:30.008Z</time>
      </trkpt>
      <trkpt lat="40.898089" lon="-3.919957">
        <ele>1616</ele>
        <time>2018-06-30T10:14:37.008Z</time>
      </trkpt>
      <trkpt lat="40.898075" lon="-3.920069">
        <ele>1618</ele>
        <time>2018-06-30T10:14:45.008Z</time>
      </trkpt>
      <trkpt lat="40.898063" lon="-3.920167">
        <ele>1620</ele>
        <time>2018-06-30T10:14:52.008Z</time>
      </trkpt>
      <trkpt lat="40.898044" lon="-3.920269">
        <ele>1620</ele>
        <time>2018-06-30T10:15:00.008Z</time>
      </trkpt>
      <trkpt lat="40.898031" lon="-3.920326">
        <ele>1621</ele>
        <time>2018-06-30T10:15:04.008Z</time>
      </trkpt>
      <trkpt lat="40.898019" lon="-3.920384">
        <ele>1621</ele>
        <time>2018-06-30T10:15:08.008Z</time>
      </trkpt>
      <trkpt lat="40.898004" lon="-3.920486">
        <ele>1622</ele>
        <time>2018-06-30T10:15:16.008Z</time>
      </trkpt>
      <trkpt lat="40.897977" lon="-3.9206">
        <ele>1624</ele>
        <time>2018-06-30T10:15:24.008Z</time>
      </trkpt>
      <trkpt lat="40.89796" lon="-3.920708">
        <ele>1625.15917610334</ele>
        <time>2018-06-30T10:15:31.008Z</time>
      </trkpt>
      <trkpt lat="40.897941" lon="-3.92078">
        <ele>1626</ele>
        <time>2018-06-30T10:15:36.008Z</time>
      </trkpt>
      <trkpt lat="40.897916" lon="-3.920884">
        <ele>1626</ele>
        <time>2018-06-30T10:15:43.008Z</time>
      </trkpt>
      <trkpt lat="40.897895" lon="-3.920956">
        <ele>1626</ele>
        <time>2018-06-30T10:15:48.008Z</time>
      </trkpt>
      <trkpt lat="40.897877" lon="-3.921031">
        <ele>1628</ele>
        <time>2018-06-30T10:15:53.008Z</time>
      </trkpt>
      <trkpt lat="40.897856" lon="-3.921095">
        <ele>1628</ele>
        <time>2018-06-30T10:15:58.008Z</time>
      </trkpt>
      <trkpt lat="40.897849" lon="-3.921205">
        <ele>1629</ele>
        <time>2018-06-30T10:16:05.008Z</time>
      </trkpt>
      <trkpt lat="40.89785" lon="-3.921309">
        <ele>1631</ele>
        <time>2018-06-30T10:16:12.008Z</time>
      </trkpt>
      <trkpt lat="40.897841" lon="-3.921415">
        <ele>1631</ele>
        <time>2018-06-30T10:16:19.008Z</time>
      </trkpt>
      <trkpt lat="40.897816" lon="-3.921512">
        <ele>1632</ele>
        <time>2018-06-30T10:16:26.008Z</time>
      </trkpt>
      <trkpt lat="40.897792" lon="-3.921566">
        <ele>1632</ele>
        <time>2018-06-30T10:16:30.008Z</time>
      </trkpt>
      <trkpt lat="40.897765" lon="-3.921622">
        <ele>1634</ele>
        <time>2018-06-30T10:16:34.008Z</time>
      </trkpt>
      <trkpt lat="40.897737" lon="-3.92169">
        <ele>1634</ele>
        <time>2018-06-30T10:16:39.008Z</time>
      </trkpt>
      <trkpt lat="40.897711" lon="-3.921816">
        <ele>1635</ele>
        <time>2018-06-30T10:16:48.008Z</time>
      </trkpt>
      <trkpt lat="40.897735" lon="-3.921914">
        <ele>1636</ele>
        <time>2018-06-30T10:16:55.008Z</time>
      </trkpt>
      <trkpt lat="40.897799" lon="-3.921947">
        <ele>1638</ele>
        <time>2018-06-30T10:17:02.008Z</time>
      </trkpt>
      <trkpt lat="40.897851" lon="-3.92195">
        <ele>1638</ele>
        <time>2018-06-30T10:17:07.008Z</time>
      </trkpt>
      <trkpt lat="40.897922" lon="-3.921932">
        <ele>1639</ele>
        <time>2018-06-30T10:17:13.008Z</time>
      </trkpt>
      <trkpt lat="40.897993" lon="-3.921905">
        <ele>1639</ele>
        <time>2018-06-30T10:17:19.008Z</time>
      </trkpt>
      <trkpt lat="40.898063" lon="-3.921862">
        <ele>1639</ele>
        <time>2018-06-30T10:17:25.008Z</time>
      </trkpt>
      <trkpt lat="40.898137" lon="-3.921825">
        <ele>1640</ele>
        <time>2018-06-30T10:17:32.008Z</time>
      </trkpt>
      <trkpt lat="40.898217" lon="-3.921801">
        <ele>1640</ele>
        <time>2018-06-30T10:17:38.008Z</time>
      </trkpt>
      <trkpt lat="40.898286" lon="-3.9218">
        <ele>1641</ele>
        <time>2018-06-30T10:17:43.008Z</time>
      </trkpt>
      <trkpt lat="40.898347" lon="-3.921816">
        <ele>1641</ele>
        <time>2018-06-30T10:17:48.008Z</time>
      </trkpt>
      <trkpt lat="40.898411" lon="-3.921853">
        <ele>1641</ele>
        <time>2018-06-30T10:17:54.008Z</time>
      </trkpt>
      <trkpt lat="40.898469" lon="-3.921891">
        <ele>1641</ele>
        <time>2018-06-30T10:17:59.008Z</time>
      </trkpt>
      <trkpt lat="40.898527" lon="-3.921943">
        <ele>1642</ele>
        <time>2018-06-30T10:18:05.008Z</time>
      </trkpt>
      <trkpt lat="40.898576" lon="-3.922001">
        <ele>1642.58383326438</ele>
        <time>2018-06-30T10:18:11.008Z</time>
      </trkpt>
      <trkpt lat="40.898632" lon="-3.922084">
        <ele>1643</ele>
        <time>2018-06-30T10:18:19.008Z</time>
      </trkpt>
      <trkpt lat="40.898685" lon="-3.922185">
        <ele>1644</ele>
        <time>2018-06-30T10:18:27.008Z</time>
      </trkpt>
      <trkpt lat="40.898742" lon="-3.922287">
        <ele>1645</ele>
        <time>2018-06-30T10:18:36.008Z</time>
      </trkpt>
      <trkpt lat="40.89879" lon="-3.922406">
        <ele>1647</ele>
        <time>2018-06-30T10:18:44.008Z</time>
      </trkpt>
      <trkpt lat="40.898833" lon="-3.922516">
        <ele>1649</ele>
        <time>2018-06-30T10:18:52.008Z</time>
      </trkpt>
      <trkpt lat="40.898874" lon="-3.922629">
        <ele>1649</ele>
        <time>2018-06-30T10:19:00.008Z</time>
      </trkpt>
      <trkpt lat="40.898863" lon="-3.922712">
        <ele>1650</ele>
        <time>2018-06-30T10:19:05.008Z</time>
      </trkpt>
      <trkpt lat="40.898811" lon="-3.922743">
        <ele>1651.16766652875</ele>
        <time>2018-06-30T10:19:11.008Z</time>
      </trkpt>
      <trkpt lat="40.89875" lon="-3.922751">
        <ele>1652</ele>
        <time>2018-06-30T10:19:17.008Z</time>
      </trkpt>
      <trkpt lat="40.898677" lon="-3.922751">
        <ele>1654</ele>
        <time>2018-06-30T10:19:23.008Z</time>
      </trkpt>
      <trkpt lat="40.898596" lon="-3.922746">
        <ele>1654</ele>
        <time>2018-06-30T10:19:30.008Z</time>
      </trkpt>
      <trkpt lat="40.898511" lon="-3.922744">
        <ele>1654</ele>
        <time>2018-06-30T10:19:37.008Z</time>
      </trkpt>
      <trkpt lat="40.898426" lon="-3.922759">
        <ele>1655</ele>
        <time>2018-06-30T10:19:44.008Z</time>
      </trkpt>
      <trkpt lat="40.89833" lon="-3.922764">
        <ele>1656</ele>
        <time>2018-06-30T10:19:53.008Z</time>
      </trkpt>
      <trkpt lat="40.89822" lon="-3.922789">
        <ele>1658</ele>
        <time>2018-06-30T10:20:02.008Z</time>
      </trkpt>
      <trkpt lat="40.898133" lon="-3.922847">
        <ele>1660</ele>
        <time>2018-06-30T10:20:12.008Z</time>
      </trkpt>
      <trkpt lat="40.898042" lon="-3.922883">
        <ele>1660.54221836645</ele>
        <time>2018-06-30T10:20:21.008Z</time>
      </trkpt>
      <trkpt lat="40.89794" lon="-3.922939">
        <ele>1661</ele>
        <time>2018-06-30T10:20:30.008Z</time>
      </trkpt>
      <trkpt lat="40.897845" lon="-3.923001">
        <ele>1662</ele>
        <time>2018-06-30T10:20:39.008Z</time>
      </trkpt>
      <trkpt lat="40.897754" lon="-3.923079">
        <ele>1664</ele>
        <time>2018-06-30T10:20:48.008Z</time>
      </trkpt>
      <trkpt lat="40.897672" lon="-3.923168">
        <ele>1665</ele>
        <time>2018-06-30T10:20:58.008Z</time>
      </trkpt>
      <trkpt lat="40.897608" lon="-3.92325">
        <ele>1666</ele>
        <time>2018-06-30T10:21:06.008Z</time>
      </trkpt>
      <trkpt lat="40.897562" lon="-3.923306">
        <ele>1666.58383326438</ele>
        <time>2018-06-30T10:21:11.008Z</time>
      </trkpt>
      <trkpt lat="40.897514" lon="-3.923358">
        <ele>1667</ele>
        <time>2018-06-30T10:21:16.008Z</time>
      </trkpt>
      <trkpt lat="40.897514" lon="-3.923421">
        <ele>1667</ele>
        <time>2018-06-30T10:21:19.008Z</time>
      </trkpt>
      <trkpt lat="40.897522" lon="-3.923485">
        <ele>1669</ele>
        <time>2018-06-30T10:21:24.008Z</time>
      </trkpt>
      <trkpt lat="40.8976" lon="-3.923487">
        <ele>1671</ele>
        <time>2018-06-30T10:21:35.008Z</time>
      </trkpt>
      <trkpt lat="40.897672" lon="-3.923465">
        <ele>1672</ele>
        <time>2018-06-30T10:21:43.008Z</time>
      </trkpt>
      <trkpt lat="40.897736" lon="-3.923453">
        <ele>1672</ele>
        <time>2018-06-30T10:21:49.008Z</time>
      </trkpt>
      <trkpt lat="40.897794" lon="-3.923457">
        <ele>1672</ele>
        <time>2018-06-30T10:21:55.008Z</time>
      </trkpt>
      <trkpt lat="40.897851" lon="-3.92344">
        <ele>1672.57958805167</ele>
        <time>2018-06-30T10:22:01.008Z</time>
      </trkpt>
      <trkpt lat="40.897932" lon="-3.923428">
        <ele>1673</ele>
        <time>2018-06-30T10:22:09.008Z</time>
      </trkpt>
      <trkpt lat="40.897998" lon="-3.92342">
        <ele>1674</ele>
        <time>2018-06-30T10:22:15.008Z</time>
      </trkpt>
      <trkpt lat="40.898099" lon="-3.923429">
        <ele>1676</ele>
        <time>2018-06-30T10:22:25.008Z</time>
      </trkpt>
      <trkpt lat="40.898191" lon="-3.923447">
        <ele>1676</ele>
        <time>2018-06-30T10:22:31.008Z</time>
      </trkpt>
      <trkpt lat="40.898288" lon="-3.923445">
        <ele>1676</ele>
        <time>2018-06-30T10:22:39.008Z</time>
      </trkpt>
      <trkpt lat="40.898368" lon="-3.923469">
        <ele>1677</ele>
        <time>2018-06-30T10:22:45.008Z</time>
      </trkpt>
      <trkpt lat="40.89844" lon="-3.923491">
        <ele>1677</ele>
        <time>2018-06-30T10:22:50.008Z</time>
      </trkpt>
      <trkpt lat="40.898524" lon="-3.923515">
        <ele>1678.53454274643</ele>
        <time>2018-06-30T10:22:56.008Z</time>
      </trkpt>
      <trkpt lat="40.898589" lon="-3.923545">
        <ele>1679</ele>
        <time>2018-06-30T10:23:02.008Z</time>
      </trkpt>
      <trkpt lat="40.898655" lon="-3.923583">
        <ele>1679</ele>
        <time>2018-06-30T10:23:07.008Z</time>
      </trkpt>
      <trkpt lat="40.898714" lon="-3.923622">
        <ele>1681</ele>
        <time>2018-06-30T10:23:12.008Z</time>
      </trkpt>
      <trkpt lat="40.898775" lon="-3.923669">
        <ele>1681</ele>
        <time>2018-06-30T10:23:18.008Z</time>
      </trkpt>
      <trkpt lat="40.898845" lon="-3.923703">
        <ele>1681</ele>
        <time>2018-06-30T10:23:23.008Z</time>
      </trkpt>
      <trkpt lat="40.898908" lon="-3.923756">
        <ele>1681</ele>
        <time>2018-06-30T10:23:29.008Z</time>
      </trkpt>
      <trkpt lat="40.898964" lon="-3.923804">
        <ele>1682</ele>
        <time>2018-06-30T10:23:35.008Z</time>
      </trkpt>
      <trkpt lat="40.899026" lon="-3.923836">
        <ele>1682</ele>
        <time>2018-06-30T10:23:40.008Z</time>
      </trkpt>
      <trkpt lat="40.899091" lon="-3.923889">
        <ele>1683</ele>
        <time>2018-06-30T10:23:45.008Z</time>
      </trkpt>
      <trkpt lat="40.899153" lon="-3.923932">
        <ele>1683</ele>
        <time>2018-06-30T10:23:50.008Z</time>
      </trkpt>
      <trkpt lat="40.899207" lon="-3.92399">
        <ele>1684</ele>
        <time>2018-06-30T10:23:56.008Z</time>
      </trkpt>
      <trkpt lat="40.899258" lon="-3.924077">
        <ele>1686</ele>
        <time>2018-06-30T10:24:03.008Z</time>
      </trkpt>
      <trkpt lat="40.899327" lon="-3.924166">
        <ele>1686</ele>
        <time>2018-06-30T10:24:12.008Z</time>
      </trkpt>
      <trkpt lat="40.8994" lon="-3.92425">
        <ele>1687.08443673289</ele>
        <time>2018-06-30T10:24:21.008Z</time>
      </trkpt>
      <trkpt lat="40.899458" lon="-3.924331">
        <ele>1688</ele>
        <time>2018-06-30T10:24:28.008Z</time>
      </trkpt>
      <trkpt lat="40.89947" lon="-3.924408">
        <ele>1690</ele>
        <time>2018-06-30T10:24:33.008Z</time>
      </trkpt>
      <trkpt lat="40.899447" lon="-3.924467">
        <ele>1690</ele>
        <time>2018-06-30T10:24:38.008Z</time>
      </trkpt>
      <trkpt lat="40.899393" lon="-3.924453">
        <ele>1691</ele>
        <time>2018-06-30T10:24:44.008Z</time>
      </trkpt>
      <trkpt lat="40.899336" lon="-3.924408">
        <ele>1691</ele>
        <time>2018-06-30T10:24:50.008Z</time>
      </trkpt>
      <trkpt lat="40.899284" lon="-3.924359">
        <ele>1691</ele>
        <time>2018-06-30T10:24:56.008Z</time>
      </trkpt>
      <trkpt lat="40.899219" lon="-3.924323">
        <ele>1692</ele>
        <time>2018-06-30T10:25:02.008Z</time>
      </trkpt>
      <trkpt lat="40.899144" lon="-3.924306">
        <ele>1692</ele>
        <time>2018-06-30T10:25:07.008Z</time>
      </trkpt>
      <trkpt lat="40.89908" lon="-3.92429">
        <ele>1693</ele>
        <time>2018-06-30T10:25:13.008Z</time>
      </trkpt>
      <trkpt lat="40.899002" lon="-3.924283">
        <ele>1693</ele>
        <time>2018-06-30T10:25:20.008Z</time>
      </trkpt>
      <trkpt lat="40.898924" lon="-3.924286">
        <ele>1694</ele>
        <time>2018-06-30T10:25:27.008Z</time>
      </trkpt>
      <trkpt lat="40.898823" lon="-3.924304">
        <ele>1696</ele>
        <time>2018-06-30T10:25:36.008Z</time>
      </trkpt>
      <trkpt lat="40.898724" lon="-3.924325">
        <ele>1697</ele>
        <time>2018-06-30T10:25:43.008Z</time>
      </trkpt>
      <trkpt lat="40.898626" lon="-3.924344">
        <ele>1697</ele>
        <time>2018-06-30T10:25:51.008Z</time>
      </trkpt>
      <trkpt lat="40.898551" lon="-3.924355">
        <ele>1697</ele>
        <time>2018-06-30T10:25:58.008Z</time>
      </trkpt>
      <trkpt lat="40.898487" lon="-3.924385">
        <ele>1699</ele>
        <time>2018-06-30T10:26:04.008Z</time>
      </trkpt>
      <trkpt lat="40.898415" lon="-3.924412">
        <ele>1699</ele>
        <time>2018-06-30T10:26:10.008Z</time>
      </trkpt>
      <trkpt lat="40.898351" lon="-3.924423">
        <ele>1700</ele>
        <time>2018-06-30T10:26:15.008Z</time>
      </trkpt>
      <trkpt lat="40.898276" lon="-3.924445">
        <ele>1700.54221836645</ele>
        <time>2018-06-30T10:26:21.008Z</time>
      </trkpt>
      <trkpt lat="40.898209" lon="-3.924457">
        <ele>1701</ele>
        <time>2018-06-30T10:26:26.008Z</time>
      </trkpt>
      <trkpt lat="40.89815" lon="-3.924477">
        <ele>1701.57958805167</ele>
        <time>2018-06-30T10:26:31.008Z</time>
      </trkpt>
      <trkpt lat="40.898076" lon="-3.924489">
        <ele>1702</ele>
        <time>2018-06-30T10:26:37.008Z</time>
      </trkpt>
      <trkpt lat="40.898009" lon="-3.924497">
        <ele>1702</ele>
        <time>2018-06-30T10:26:42.008Z</time>
      </trkpt>
      <trkpt lat="40.897936" lon="-3.924524">
        <ele>1702</ele>
        <time>2018-06-30T10:26:48.008Z</time>
      </trkpt>
      <trkpt lat="40.897865" lon="-3.924558">
        <ele>1702</ele>
        <time>2018-06-30T10:26:54.008Z</time>
      </trkpt>
      <trkpt lat="40.897778" lon="-3.92459">
        <ele>1703.15917610334</ele>
        <time>2018-06-30T10:27:01.008Z</time>
      </trkpt>
      <trkpt lat="40.897704" lon="-3.924625">
        <ele>1704</ele>
        <time>2018-06-30T10:27:07.008Z</time>
      </trkpt>
      <trkpt lat="40.89764" lon="-3.924663">
        <ele>1705</ele>
        <time>2018-06-30T10:27:13.008Z</time>
      </trkpt>
      <trkpt lat="40.89755" lon="-3.924685">
        <ele>1705</ele>
        <time>2018-06-30T10:27:20.008Z</time>
      </trkpt>
      <trkpt lat="40.897465" lon="-3.924718">
        <ele>1705</ele>
        <time>2018-06-30T10:27:28.008Z</time>
      </trkpt>
      <trkpt lat="40.897381" lon="-3.924754">
        <ele>1706</ele>
        <time>2018-06-30T10:27:35.008Z</time>
      </trkpt>
      <trkpt lat="40.897306" lon="-3.924785">
        <ele>1706.58383326438</ele>
        <time>2018-06-30T10:27:41.008Z</time>
      </trkpt>
      <trkpt lat="40.897245" lon="-3.924818">
        <ele>1707</ele>
        <time>2018-06-30T10:27:46.008Z</time>
      </trkpt>
      <trkpt lat="40.897201" lon="-3.924861">
        <ele>1708.08443673289</ele>
        <time>2018-06-30T10:27:51.008Z</time>
      </trkpt>
      <trkpt lat="40.897173" lon="-3.924908">
        <ele>1709</ele>
        <time>2018-06-30T10:27:55.008Z</time>
      </trkpt>
      <trkpt lat="40.89714" lon="-3.924954">
        <ele>1709</ele>
        <time>2018-06-30T10:27:59.008Z</time>
      </trkpt>
      <trkpt lat="40.897108" lon="-3.924996">
        <ele>1710</ele>
        <time>2018-06-30T10:28:03.008Z</time>
      </trkpt>
      <trkpt lat="40.897086" lon="-3.925052">
        <ele>1710</ele>
        <time>2018-06-30T10:28:07.008Z</time>
      </trkpt>
      <trkpt lat="40.897065" lon="-3.925092">
        <ele>1710</ele>
        <time>2018-06-30T10:28:10.008Z</time>
      </trkpt>
      <trkpt lat="40.897044" lon="-3.925135">
        <ele>1712</ele>
        <time>2018-06-30T10:28:13.008Z</time>
      </trkpt>
      <trkpt lat="40.897017" lon="-3.92519">
        <ele>1712</ele>
        <time>2018-06-30T10:28:17.008Z</time>
      </trkpt>
      <trkpt lat="40.896995" lon="-3.925232">
        <ele>1712</ele>
        <time>2018-06-30T10:28:20.008Z</time>
      </trkpt>
      <trkpt lat="40.896976" lon="-3.925274">
        <ele>1712</ele>
        <time>2018-06-30T10:28:23.008Z</time>
      </trkpt>
      <trkpt lat="40.896956" lon="-3.925332">
        <ele>1712</ele>
        <time>2018-06-30T10:28:27.008Z</time>
      </trkpt>
      <trkpt lat="40.896943" lon="-3.925396">
        <ele>1713.15917610334</ele>
        <time>2018-06-30T10:28:31.008Z</time>
      </trkpt>
      <trkpt lat="40.896929" lon="-3.925458">
        <ele>1714</ele>
        <time>2018-06-30T10:28:35.008Z</time>
      </trkpt>
      <trkpt lat="40.89691" lon="-3.92551">
        <ele>1714</ele>
        <time>2018-06-30T10:28:39.008Z</time>
      </trkpt>
      <trkpt lat="40.896899" lon="-3.925574">
        <ele>1715</ele>
        <time>2018-06-30T10:28:43.008Z</time>
      </trkpt>
      <trkpt lat="40.896891" lon="-3.925624">
        <ele>1715</ele>
        <time>2018-06-30T10:28:46.008Z</time>
      </trkpt>
      <trkpt lat="40.896879" lon="-3.925674">
        <ele>1715</ele>
        <time>2018-06-30T10:28:49.008Z</time>
      </trkpt>
      <trkpt lat="40.896869" lon="-3.925738">
        <ele>1716</ele>
        <time>2018-06-30T10:28:53.008Z</time>
      </trkpt>
      <trkpt lat="40.896864" lon="-3.9258">
        <ele>1716</ele>
        <time>2018-06-30T10:28:57.008Z</time>
      </trkpt>
      <trkpt lat="40.896857" lon="-3.92586">
        <ele>1716.57958805167</ele>
        <time>2018-06-30T10:29:01.008Z</time>
      </trkpt>
      <trkpt lat="40.89685" lon="-3.92592">
        <ele>1717</ele>
        <time>2018-06-30T10:29:05.008Z</time>
      </trkpt>
      <trkpt lat="40.896844" lon="-3.925975">
        <ele>1717</ele>
        <time>2018-06-30T10:29:09.008Z</time>
      </trkpt>
      <trkpt lat="40.89684" lon="-3.926031">
        <ele>1719</ele>
        <time>2018-06-30T10:29:13.008Z</time>
      </trkpt>
      <trkpt lat="40.896835" lon="-3.926096">
        <ele>1719</ele>
        <time>2018-06-30T10:29:17.008Z</time>
      </trkpt>
      <trkpt lat="40.896828" lon="-3.926158">
        <ele>1720.54221836645</ele>
        <time>2018-06-30T10:29:21.008Z</time>
      </trkpt>
      <trkpt lat="40.896826" lon="-3.926221">
        <ele>1722</ele>
        <time>2018-06-30T10:29:25.008Z</time>
      </trkpt>
      <trkpt lat="40.896831" lon="-3.926282">
        <ele>1722</ele>
        <time>2018-06-30T10:29:29.008Z</time>
      </trkpt>
      <trkpt lat="40.896831" lon="-3.926341">
        <ele>1722</ele>
        <time>2018-06-30T10:29:33.008Z</time>
      </trkpt>
      <trkpt lat="40.896837" lon="-3.926401">
        <ele>1722</ele>
        <time>2018-06-30T10:29:37.008Z</time>
      </trkpt>
      <trkpt lat="40.896843" lon="-3.926459">
        <ele>1723.16766652875</ele>
        <time>2018-06-30T10:29:41.008Z</time>
      </trkpt>
      <trkpt lat="40.896851" lon="-3.92652">
        <ele>1724</ele>
        <time>2018-06-30T10:29:45.008Z</time>
      </trkpt>
      <trkpt lat="40.896852" lon="-3.926575">
        <ele>1724</ele>
        <time>2018-06-30T10:29:49.008Z</time>
      </trkpt>
      <trkpt lat="40.896864" lon="-3.926639">
        <ele>1726</ele>
        <time>2018-06-30T10:29:53.008Z</time>
      </trkpt>
      <trkpt lat="40.896869" lon="-3.926703">
        <ele>1726</ele>
        <time>2018-06-30T10:29:57.008Z</time>
      </trkpt>
      <trkpt lat="40.896875" lon="-3.926762">
        <ele>1727.15917610334</ele>
        <time>2018-06-30T10:30:01.008Z</time>
      </trkpt>
      <trkpt lat="40.896881" lon="-3.926804">
        <ele>1728</ele>
        <time>2018-06-30T10:30:04.008Z</time>
      </trkpt>
      <trkpt lat="40.896887" lon="-3.926845">
        <ele>1728</ele>
        <time>2018-06-30T10:30:07.008Z</time>
      </trkpt>
      <trkpt lat="40.89689" lon="-3.926872">
        <ele>1728</ele>
        <time>2018-06-30T10:30:09.008Z</time>
      </trkpt>
      <trkpt lat="40.896904" lon="-3.926903">
        <ele>1730</ele>
        <time>2018-06-30T10:30:12.008Z</time>
      </trkpt>
      <trkpt lat="40.896933" lon="-3.926911">
        <ele>1730</ele>
        <time>2018-06-30T10:30:15.008Z</time>
      </trkpt>
      <trkpt lat="40.896958" lon="-3.926899">
        <ele>1730</ele>
        <time>2018-06-30T10:30:18.008Z</time>
      </trkpt>
      <trkpt lat="40.896976" lon="-3.926869">
        <ele>1731.62665509934</ele>
        <time>2018-06-30T10:30:21.008Z</time>
      </trkpt>
      <trkpt lat="40.896987" lon="-3.92683">
        <ele>1733</ele>
        <time>2018-06-30T10:30:24.008Z</time>
      </trkpt>
      <trkpt lat="40.896991" lon="-3.926787">
        <ele>1733</ele>
        <time>2018-06-30T10:30:27.008Z</time>
      </trkpt>
      <trkpt lat="40.896997" lon="-3.926738">
        <ele>1733</ele>
        <time>2018-06-30T10:30:30.008Z</time>
      </trkpt>
      <trkpt lat="40.897004" lon="-3.926687">
        <ele>1734</ele>
        <time>2018-06-30T10:30:33.008Z</time>
      </trkpt>
      <trkpt lat="40.89701" lon="-3.926637">
        <ele>1734</ele>
        <time>2018-06-30T10:30:36.008Z</time>
      </trkpt>
      <trkpt lat="40.897016" lon="-3.92659">
        <ele>1734</ele>
        <time>2018-06-30T10:30:39.008Z</time>
      </trkpt>
      <trkpt lat="40.897026" lon="-3.926544">
        <ele>1734</ele>
        <time>2018-06-30T10:30:42.008Z</time>
      </trkpt>
      <trkpt lat="40.897038" lon="-3.926498">
        <ele>1734</ele>
        <time>2018-06-30T10:30:45.008Z</time>
      </trkpt>
      <trkpt lat="40.897052" lon="-3.926452">
        <ele>1734</ele>
        <time>2018-06-30T10:30:48.008Z</time>
      </trkpt>
      <trkpt lat="40.897065" lon="-3.92641">
        <ele>1734</ele>
        <time>2018-06-30T10:30:51.008Z</time>
      </trkpt>
      <trkpt lat="40.897081" lon="-3.926365">
        <ele>1734</ele>
        <time>2018-06-30T10:30:54.008Z</time>
      </trkpt>
      <trkpt lat="40.897098" lon="-3.926324">
        <ele>1734</ele>
        <time>2018-06-30T10:30:57.008Z</time>
      </trkpt>
      <trkpt lat="40.897115" lon="-3.926281">
        <ele>1734</ele>
        <time>2018-06-30T10:31:00.008Z</time>
      </trkpt>
      <trkpt lat="40.89714" lon="-3.926226">
        <ele>1735</ele>
        <time>2018-06-30T10:31:04.008Z</time>
      </trkpt>
      <trkpt lat="40.897159" lon="-3.92618">
        <ele>1735</ele>
        <time>2018-06-30T10:31:07.008Z</time>
      </trkpt>
      <trkpt lat="40.89718" lon="-3.926138">
        <ele>1735</ele>
        <time>2018-06-30T10:31:10.008Z</time>
      </trkpt>
      <trkpt lat="40.89721" lon="-3.926089">
        <ele>1735</ele>
        <time>2018-06-30T10:31:14.008Z</time>
      </trkpt>
      <trkpt lat="40.897243" lon="-3.926043">
        <ele>1735</ele>
        <time>2018-06-30T10:31:18.008Z</time>
      </trkpt>
      <trkpt lat="40.89728" lon="-3.925983">
        <ele>1736</ele>
        <time>2018-06-30T10:31:22.008Z</time>
      </trkpt>
      <trkpt lat="40.89732" lon="-3.925938">
        <ele>1736</ele>
        <time>2018-06-30T10:31:26.008Z</time>
      </trkpt>
      <trkpt lat="40.89737" lon="-3.925885">
        <ele>1736</ele>
        <time>2018-06-30T10:31:31.008Z</time>
      </trkpt>
      <trkpt lat="40.89741" lon="-3.925843">
        <ele>1736</ele>
        <time>2018-06-30T10:31:35.008Z</time>
      </trkpt>
      <trkpt lat="40.89746" lon="-3.925802">
        <ele>1736</ele>
        <time>2018-06-30T10:31:40.008Z</time>
      </trkpt>
      <trkpt lat="40.897512" lon="-3.925754">
        <ele>1737</ele>
        <time>2018-06-30T10:31:45.008Z</time>
      </trkpt>
      <trkpt lat="40.897563" lon="-3.925703">
        <ele>1737</ele>
        <time>2018-06-30T10:31:50.008Z</time>
      </trkpt>
      <trkpt lat="40.897612" lon="-3.925663">
        <ele>1738</ele>
        <time>2018-06-30T10:31:55.008Z</time>
      </trkpt>
      <trkpt lat="40.897667" lon="-3.925636">
        <ele>1738</ele>
        <time>2018-06-30T10:32:00.008Z</time>
      </trkpt>
      <trkpt lat="40.897715" lon="-3.925667">
        <ele>1740</ele>
        <time>2018-06-30T10:32:04.008Z</time>
      </trkpt>
      <trkpt lat="40.89773" lon="-3.925724">
        <ele>1740</ele>
        <time>2018-06-30T10:32:08.008Z</time>
      </trkpt>
      <trkpt lat="40.897699" lon="-3.925795">
        <ele>1741</ele>
        <time>2018-06-30T10:32:14.008Z</time>
      </trkpt>
      <trkpt lat="40.897665" lon="-3.925853">
        <ele>1741</ele>
        <time>2018-06-30T10:32:19.008Z</time>
      </trkpt>
      <trkpt lat="40.897628" lon="-3.925891">
        <ele>1742</ele>
        <time>2018-06-30T10:32:23.008Z</time>
      </trkpt>
      <trkpt lat="40.897591" lon="-3.925932">
        <ele>1742</ele>
        <time>2018-06-30T10:32:27.008Z</time>
      </trkpt>
      <trkpt lat="40.897558" lon="-3.925976">
        <ele>1742.57958805167</ele>
        <time>2018-06-30T10:32:31.008Z</time>
      </trkpt>
      <trkpt lat="40.897535" lon="-3.926037">
        <ele>1743</ele>
        <time>2018-06-30T10:32:36.008Z</time>
      </trkpt>
      <trkpt lat="40.89752" lon="-3.926095">
        <ele>1743</ele>
        <time>2018-06-30T10:32:40.008Z</time>
      </trkpt>
      <trkpt lat="40.897502" lon="-3.926147">
        <ele>1745</ele>
        <time>2018-06-30T10:32:44.008Z</time>
      </trkpt>
      <trkpt lat="40.897486" lon="-3.926219">
        <ele>1745</ele>
        <time>2018-06-30T10:32:49.008Z</time>
      </trkpt>
      <trkpt lat="40.897474" lon="-3.92627">
        <ele>1747</ele>
        <time>2018-06-30T10:32:53.008Z</time>
      </trkpt>
      <trkpt lat="40.897454" lon="-3.926322">
        <ele>1747</ele>
        <time>2018-06-30T10:32:57.008Z</time>
      </trkpt>
      <trkpt lat="40.897438" lon="-3.926379">
        <ele>1747</ele>
        <time>2018-06-30T10:33:01.008Z</time>
      </trkpt>
      <trkpt lat="40.897424" lon="-3.926434">
        <ele>1747</ele>
        <time>2018-06-30T10:33:05.008Z</time>
      </trkpt>
      <trkpt lat="40.897408" lon="-3.926492">
        <ele>1747</ele>
        <time>2018-06-30T10:33:09.008Z</time>
      </trkpt>
      <trkpt lat="40.897392" lon="-3.926551">
        <ele>1749</ele>
        <time>2018-06-30T10:33:13.008Z</time>
      </trkpt>
      <trkpt lat="40.897378" lon="-3.92661">
        <ele>1749</ele>
        <time>2018-06-30T10:33:17.008Z</time>
      </trkpt>
      <trkpt lat="40.897364" lon="-3.926665">
        <ele>1750.08443673289</ele>
        <time>2018-06-30T10:33:21.008Z</time>
      </trkpt>
      <trkpt lat="40.897352" lon="-3.926728">
        <ele>1751</ele>
        <time>2018-06-30T10:33:25.008Z</time>
      </trkpt>
      <trkpt lat="40.897342" lon="-3.926788">
        <ele>1751</ele>
        <time>2018-06-30T10:33:29.008Z</time>
      </trkpt>
      <trkpt lat="40.897334" lon="-3.92685">
        <ele>1751.54221836645</ele>
        <time>2018-06-30T10:33:33.008Z</time>
      </trkpt>
      <trkpt lat="40.897326" lon="-3.926914">
        <ele>1752</ele>
        <time>2018-06-30T10:33:37.008Z</time>
      </trkpt>
      <trkpt lat="40.897316" lon="-3.92698">
        <ele>1752.58383326438</ele>
        <time>2018-06-30T10:33:41.008Z</time>
      </trkpt>
      <trkpt lat="40.897308" lon="-3.927046">
        <ele>1753</ele>
        <time>2018-06-30T10:33:45.008Z</time>
      </trkpt>
      <trkpt lat="40.897304" lon="-3.92711">
        <ele>1753</ele>
        <time>2018-06-30T10:33:49.008Z</time>
      </trkpt>
      <trkpt lat="40.8973" lon="-3.927173">
        <ele>1755</ele>
        <time>2018-06-30T10:33:53.008Z</time>
      </trkpt>
      <trkpt lat="40.8973" lon="-3.927234">
        <ele>1755</ele>
        <time>2018-06-30T10:33:57.008Z</time>
      </trkpt>
      <trkpt lat="40.897301" lon="-3.927296">
        <ele>1755</ele>
        <time>2018-06-30T10:34:01.008Z</time>
      </trkpt>
      <trkpt lat="40.897299" lon="-3.927357">
        <ele>1755</ele>
        <time>2018-06-30T10:34:05.008Z</time>
      </trkpt>
      <trkpt lat="40.897299" lon="-3.927422">
        <ele>1755</ele>
        <time>2018-06-30T10:34:09.008Z</time>
      </trkpt>
      <trkpt lat="40.897303" lon="-3.927496">
        <ele>1757</ele>
        <time>2018-06-30T10:34:14.008Z</time>
      </trkpt>
      <trkpt lat="40.897305" lon="-3.927574">
        <ele>1757</ele>
        <time>2018-06-30T10:34:19.008Z</time>
      </trkpt>
      <trkpt lat="40.897308" lon="-3.927639">
        <ele>1757</ele>
        <time>2018-06-30T10:34:23.008Z</time>
      </trkpt>
      <trkpt lat="40.89731" lon="-3.927713">
        <ele>1757</ele>
        <time>2018-06-30T10:34:28.008Z</time>
      </trkpt>
      <trkpt lat="40.89731" lon="-3.927792">
        <ele>1758</ele>
        <time>2018-06-30T10:34:33.008Z</time>
      </trkpt>
      <trkpt lat="40.897314" lon="-3.927868">
        <ele>1758</ele>
        <time>2018-06-30T10:34:38.008Z</time>
      </trkpt>
      <trkpt lat="40.897312" lon="-3.927945">
        <ele>1759</ele>
        <time>2018-06-30T10:34:43.008Z</time>
      </trkpt>
      <trkpt lat="40.897304" lon="-3.928023">
        <ele>1759</ele>
        <time>2018-06-30T10:34:48.008Z</time>
      </trkpt>
      <trkpt lat="40.897292" lon="-3.928098">
        <ele>1760</ele>
        <time>2018-06-30T10:34:53.008Z</time>
      </trkpt>
      <trkpt lat="40.897282" lon="-3.928174">
        <ele>1760</ele>
        <time>2018-06-30T10:34:58.008Z</time>
      </trkpt>
      <trkpt lat="40.89727" lon="-3.92825">
        <ele>1761</ele>
        <time>2018-06-30T10:35:03.008Z</time>
      </trkpt>
      <trkpt lat="40.897265" lon="-3.928322">
        <ele>1761</ele>
        <time>2018-06-30T10:35:08.008Z</time>
      </trkpt>
      <trkpt lat="40.897252" lon="-3.928403">
        <ele>1762</ele>
        <time>2018-06-30T10:35:13.008Z</time>
      </trkpt>
      <trkpt lat="40.897238" lon="-3.928478">
        <ele>1762</ele>
        <time>2018-06-30T10:35:18.008Z</time>
      </trkpt>
      <trkpt lat="40.897235" lon="-3.928542">
        <ele>1764</ele>
        <time>2018-06-30T10:35:22.008Z</time>
      </trkpt>
      <trkpt lat="40.897227" lon="-3.928617">
        <ele>1764</ele>
        <time>2018-06-30T10:35:27.008Z</time>
      </trkpt>
      <trkpt lat="40.897215" lon="-3.928691">
        <ele>1766</ele>
        <time>2018-06-30T10:35:32.008Z</time>
      </trkpt>
      <trkpt lat="40.897204" lon="-3.928764">
        <ele>1766</ele>
        <time>2018-06-30T10:35:37.008Z</time>
      </trkpt>
      <trkpt lat="40.897194" lon="-3.928826">
        <ele>1767.16766652875</ele>
        <time>2018-06-30T10:35:41.008Z</time>
      </trkpt>
      <trkpt lat="40.897187" lon="-3.928887">
        <ele>1768</ele>
        <time>2018-06-30T10:35:45.008Z</time>
      </trkpt>
      <trkpt lat="40.897189" lon="-3.928945">
        <ele>1768</ele>
        <time>2018-06-30T10:35:49.008Z</time>
      </trkpt>
      <trkpt lat="40.897221" lon="-3.928986">
        <ele>1769</ele>
        <time>2018-06-30T10:35:54.008Z</time>
      </trkpt>
      <trkpt lat="40.897256" lon="-3.928972">
        <ele>1769</ele>
        <time>2018-06-30T10:35:58.008Z</time>
      </trkpt>
      <trkpt lat="40.897281" lon="-3.928932">
        <ele>1771</ele>
        <time>2018-06-30T10:36:02.008Z</time>
      </trkpt>
      <trkpt lat="40.897294" lon="-3.928881">
        <ele>1771</ele>
        <time>2018-06-30T10:36:06.008Z</time>
      </trkpt>
      <trkpt lat="40.897304" lon="-3.928824">
        <ele>1771</ele>
        <time>2018-06-30T10:36:10.008Z</time>
      </trkpt>
      <trkpt lat="40.897316" lon="-3.928765">
        <ele>1773</ele>
        <time>2018-06-30T10:36:14.008Z</time>
      </trkpt>
      <trkpt lat="40.897328" lon="-3.92872">
        <ele>1773</ele>
        <time>2018-06-30T10:36:17.008Z</time>
      </trkpt>
      <trkpt lat="40.897342" lon="-3.92866">
        <ele>1773</ele>
        <time>2018-06-30T10:36:21.008Z</time>
      </trkpt>
      <trkpt lat="40.897358" lon="-3.928598">
        <ele>1773</ele>
        <time>2018-06-30T10:36:25.008Z</time>
      </trkpt>
      <trkpt lat="40.897376" lon="-3.928538">
        <ele>1773</ele>
        <time>2018-06-30T10:36:29.008Z</time>
      </trkpt>
      <trkpt lat="40.897392" lon="-3.92849">
        <ele>1775</ele>
        <time>2018-06-30T10:36:32.008Z</time>
      </trkpt>
      <trkpt lat="40.897414" lon="-3.928428">
        <ele>1775</ele>
        <time>2018-06-30T10:36:36.008Z</time>
      </trkpt>
      <trkpt lat="40.897438" lon="-3.928365">
        <ele>1775</ele>
        <time>2018-06-30T10:36:40.008Z</time>
      </trkpt>
      <trkpt lat="40.89746" lon="-3.928302">
        <ele>1775</ele>
        <time>2018-06-30T10:36:44.008Z</time>
      </trkpt>
      <trkpt lat="40.89748" lon="-3.928239">
        <ele>1775</ele>
        <time>2018-06-30T10:36:48.008Z</time>
      </trkpt>
      <trkpt lat="40.897494" lon="-3.928193">
        <ele>1775</ele>
        <time>2018-06-30T10:36:51.008Z</time>
      </trkpt>
      <trkpt lat="40.897512" lon="-3.928127">
        <ele>1776</ele>
        <time>2018-06-30T10:36:55.008Z</time>
      </trkpt>
      <trkpt lat="40.897532" lon="-3.928063">
        <ele>1776</ele>
        <time>2018-06-30T10:36:59.008Z</time>
      </trkpt>
      <trkpt lat="40.897552" lon="-3.928">
        <ele>1776</ele>
        <time>2018-06-30T10:37:03.008Z</time>
      </trkpt>
      <trkpt lat="40.897573" lon="-3.927939">
        <ele>1776</ele>
        <time>2018-06-30T10:37:07.008Z</time>
      </trkpt>
      <trkpt lat="40.897595" lon="-3.927877">
        <ele>1777.16766652875</ele>
        <time>2018-06-30T10:37:11.008Z</time>
      </trkpt>
      <trkpt lat="40.897614" lon="-3.927816">
        <ele>1778</ele>
        <time>2018-06-30T10:37:15.008Z</time>
      </trkpt>
      <trkpt lat="40.897632" lon="-3.927753">
        <ele>1778</ele>
        <time>2018-06-30T10:37:19.008Z</time>
      </trkpt>
      <trkpt lat="40.897651" lon="-3.927696">
        <ele>1778</ele>
        <time>2018-06-30T10:37:23.008Z</time>
      </trkpt>
      <trkpt lat="40.897671" lon="-3.927633">
        <ele>1778</ele>
        <time>2018-06-30T10:37:27.008Z</time>
      </trkpt>
      <trkpt lat="40.897693" lon="-3.927574">
        <ele>1778</ele>
        <time>2018-06-30T10:37:31.008Z</time>
      </trkpt>
      <trkpt lat="40.897716" lon="-3.927514">
        <ele>1778</ele>
        <time>2018-06-30T10:37:35.008Z</time>
      </trkpt>
      <trkpt lat="40.897745" lon="-3.927437">
        <ele>1778</ele>
        <time>2018-06-30T10:37:40.008Z</time>
      </trkpt>
      <trkpt lat="40.89778" lon="-3.927352">
        <ele>1780</ele>
        <time>2018-06-30T10:37:46.008Z</time>
      </trkpt>
      <trkpt lat="40.897822" lon="-3.927258">
        <ele>1780</ele>
        <time>2018-06-30T10:37:53.008Z</time>
      </trkpt>
      <trkpt lat="40.897876" lon="-3.927169">
        <ele>1780</ele>
        <time>2018-06-30T10:38:00.008Z</time>
      </trkpt>
      <trkpt lat="40.897927" lon="-3.927117">
        <ele>1781</ele>
        <time>2018-06-30T10:38:05.008Z</time>
      </trkpt>
      <trkpt lat="40.897983" lon="-3.927077">
        <ele>1781</ele>
        <time>2018-06-30T10:38:10.008Z</time>
      </trkpt>
      <trkpt lat="40.898027" lon="-3.927057">
        <ele>1783</ele>
        <time>2018-06-30T10:38:14.008Z</time>
      </trkpt>
      <trkpt lat="40.898073" lon="-3.927046">
        <ele>1783</ele>
        <time>2018-06-30T10:38:18.008Z</time>
      </trkpt>
      <trkpt lat="40.898121" lon="-3.927049">
        <ele>1785</ele>
        <time>2018-06-30T10:38:22.008Z</time>
      </trkpt>
      <trkpt lat="40.89819" lon="-3.927076">
        <ele>1785</ele>
        <time>2018-06-30T10:38:28.008Z</time>
      </trkpt>
      <trkpt lat="40.898241" lon="-3.927115">
        <ele>1786</ele>
        <time>2018-06-30T10:38:33.008Z</time>
      </trkpt>
      <trkpt lat="40.898284" lon="-3.927167">
        <ele>1786</ele>
        <time>2018-06-30T10:38:38.008Z</time>
      </trkpt>
      <trkpt lat="40.898307" lon="-3.927214">
        <ele>1786</ele>
        <time>2018-06-30T10:38:42.008Z</time>
      </trkpt>
      <trkpt lat="40.898313" lon="-3.927289">
        <ele>1786</ele>
        <time>2018-06-30T10:38:47.008Z</time>
      </trkpt>
      <trkpt lat="40.898305" lon="-3.927351">
        <ele>1786.54221836645</ele>
        <time>2018-06-30T10:38:51.008Z</time>
      </trkpt>
      <trkpt lat="40.898295" lon="-3.927427">
        <ele>1787</ele>
        <time>2018-06-30T10:38:56.008Z</time>
      </trkpt>
      <trkpt lat="40.898269" lon="-3.927515">
        <ele>1788</ele>
        <time>2018-06-30T10:39:02.008Z</time>
      </trkpt>
      <trkpt lat="40.898237" lon="-3.927605">
        <ele>1788</ele>
        <time>2018-06-30T10:39:08.008Z</time>
      </trkpt>
      <trkpt lat="40.898216" lon="-3.927745">
        <ele>1789</ele>
        <time>2018-06-30T10:39:17.008Z</time>
      </trkpt>
      <trkpt lat="40.898199" lon="-3.927827">
        <ele>1789</ele>
        <time>2018-06-30T10:39:22.008Z</time>
      </trkpt>
      <trkpt lat="40.898172" lon="-3.927925">
        <ele>1789</ele>
        <time>2018-06-30T10:39:28.008Z</time>
      </trkpt>
      <trkpt lat="40.898152" lon="-3.928024">
        <ele>1790</ele>
        <time>2018-06-30T10:39:34.008Z</time>
      </trkpt>
      <trkpt lat="40.89814" lon="-3.928146">
        <ele>1790.58383326438</ele>
        <time>2018-06-30T10:39:41.008Z</time>
      </trkpt>
      <trkpt lat="40.898137" lon="-3.928246">
        <ele>1791</ele>
        <time>2018-06-30T10:39:47.008Z</time>
      </trkpt>
      <trkpt lat="40.898132" lon="-3.928324">
        <ele>1792</ele>
        <time>2018-06-30T10:39:52.008Z</time>
      </trkpt>
      <trkpt lat="40.898128" lon="-3.928403">
        <ele>1792</ele>
        <time>2018-06-30T10:39:57.008Z</time>
      </trkpt>
      <trkpt lat="40.898135" lon="-3.928488">
        <ele>1794</ele>
        <time>2018-06-30T10:40:02.008Z</time>
      </trkpt>
      <trkpt lat="40.898152" lon="-3.928567">
        <ele>1794</ele>
        <time>2018-06-30T10:40:07.008Z</time>
      </trkpt>
      <trkpt lat="40.898172" lon="-3.928636">
        <ele>1795</ele>
        <time>2018-06-30T10:40:12.008Z</time>
      </trkpt>
      <trkpt lat="40.898194" lon="-3.928701">
        <ele>1795</ele>
        <time>2018-06-30T10:40:17.008Z</time>
      </trkpt>
      <trkpt lat="40.89823" lon="-3.92876">
        <ele>1796</ele>
        <time>2018-06-30T10:40:22.008Z</time>
      </trkpt>
      <trkpt lat="40.898271" lon="-3.928825">
        <ele>1796</ele>
        <time>2018-06-30T10:40:28.008Z</time>
      </trkpt>
      <trkpt lat="40.898314" lon="-3.928886">
        <ele>1797</ele>
        <time>2018-06-30T10:40:34.008Z</time>
      </trkpt>
      <trkpt lat="40.898359" lon="-3.928941">
        <ele>1797</ele>
        <time>2018-06-30T10:40:39.008Z</time>
      </trkpt>
      <trkpt lat="40.898399" lon="-3.928996">
        <ele>1797</ele>
        <time>2018-06-30T10:40:46.008Z</time>
      </trkpt>
      <trkpt lat="40.898441" lon="-3.929041">
        <ele>1797</ele>
        <time>2018-06-30T10:40:50.008Z</time>
      </trkpt>
      <trkpt lat="40.898485" lon="-3.929074">
        <ele>1798</ele>
        <time>2018-06-30T10:40:54.008Z</time>
      </trkpt>
      <trkpt lat="40.898542" lon="-3.929107">
        <ele>1798</ele>
        <time>2018-06-30T10:40:59.008Z</time>
      </trkpt>
      <trkpt lat="40.8986" lon="-3.929131">
        <ele>1799</ele>
        <time>2018-06-30T10:41:04.008Z</time>
      </trkpt>
      <trkpt lat="40.898652" lon="-3.929149">
        <ele>1799</ele>
        <time>2018-06-30T10:41:09.008Z</time>
      </trkpt>
      <trkpt lat="40.898702" lon="-3.929166">
        <ele>1801</ele>
        <time>2018-06-30T10:41:14.008Z</time>
      </trkpt>
      <trkpt lat="40.898744" lon="-3.929186">
        <ele>1801</ele>
        <time>2018-06-30T10:41:18.008Z</time>
      </trkpt>
      <trkpt lat="40.898788" lon="-3.929202">
        <ele>1802</ele>
        <time>2018-06-30T10:41:22.008Z</time>
      </trkpt>
      <trkpt lat="40.898827" lon="-3.92923">
        <ele>1802</ele>
        <time>2018-06-30T10:41:26.008Z</time>
      </trkpt>
      <trkpt lat="40.898838" lon="-3.929283">
        <ele>1802</ele>
        <time>2018-06-30T10:41:30.008Z</time>
      </trkpt>
      <trkpt lat="40.89882" lon="-3.929327">
        <ele>1804</ele>
        <time>2018-06-30T10:41:34.008Z</time>
      </trkpt>
      <trkpt lat="40.89878" lon="-3.92935">
        <ele>1804</ele>
        <time>2018-06-30T10:41:38.008Z</time>
      </trkpt>
      <trkpt lat="40.898735" lon="-3.929362">
        <ele>1805</ele>
        <time>2018-06-30T10:41:42.008Z</time>
      </trkpt>
      <trkpt lat="40.898676" lon="-3.929364">
        <ele>1805</ele>
        <time>2018-06-30T10:41:47.008Z</time>
      </trkpt>
      <trkpt lat="40.898619" lon="-3.929368">
        <ele>1806</ele>
        <time>2018-06-30T10:41:52.008Z</time>
      </trkpt>
      <trkpt lat="40.898556" lon="-3.929372">
        <ele>1806</ele>
        <time>2018-06-30T10:41:57.008Z</time>
      </trkpt>
      <trkpt lat="40.898494" lon="-3.929381">
        <ele>1806</ele>
        <time>2018-06-30T10:42:02.008Z</time>
      </trkpt>
      <trkpt lat="40.898439" lon="-3.929394">
        <ele>1806</ele>
        <time>2018-06-30T10:42:07.008Z</time>
      </trkpt>
      <trkpt lat="40.898369" lon="-3.929414">
        <ele>1808</ele>
        <time>2018-06-30T10:42:13.008Z</time>
      </trkpt>
      <trkpt lat="40.898308" lon="-3.92943">
        <ele>1808</ele>
        <time>2018-06-30T10:42:18.008Z</time>
      </trkpt>
      <trkpt lat="40.898249" lon="-3.929449">
        <ele>1809</ele>
        <time>2018-06-30T10:42:23.008Z</time>
      </trkpt>
      <trkpt lat="40.898203" lon="-3.929467">
        <ele>1809</ele>
        <time>2018-06-30T10:42:27.008Z</time>
      </trkpt>
      <trkpt lat="40.898147" lon="-3.92949">
        <ele>1810</ele>
        <time>2018-06-30T10:42:32.008Z</time>
      </trkpt>
      <trkpt lat="40.898095" lon="-3.929532">
        <ele>1810</ele>
        <time>2018-06-30T10:42:37.008Z</time>
      </trkpt>
      <trkpt lat="40.898048" lon="-3.929581">
        <ele>1811</ele>
        <time>2018-06-30T10:42:42.008Z</time>
      </trkpt>
      <trkpt lat="40.897986" lon="-3.929658">
        <ele>1811</ele>
        <time>2018-06-30T10:42:49.008Z</time>
      </trkpt>
      <trkpt lat="40.897931" lon="-3.929746">
        <ele>1812</ele>
        <time>2018-06-30T10:42:56.008Z</time>
      </trkpt>
      <trkpt lat="40.897931" lon="-3.929816">
        <ele>1813.15917610334</ele>
        <time>2018-06-30T10:43:01.008Z</time>
      </trkpt>
      <trkpt lat="40.897975" lon="-3.929842">
        <ele>1814</ele>
        <time>2018-06-30T10:43:06.008Z</time>
      </trkpt>
      <trkpt lat="40.898016" lon="-3.92982">
        <ele>1814</ele>
        <time>2018-06-30T10:43:10.008Z</time>
      </trkpt>
      <trkpt lat="40.898068" lon="-3.92978">
        <ele>1816</ele>
        <time>2018-06-30T10:43:15.008Z</time>
      </trkpt>
      <trkpt lat="40.898101" lon="-3.929756">
        <ele>1816</ele>
        <time>2018-06-30T10:43:18.008Z</time>
      </trkpt>
      <trkpt lat="40.898146" lon="-3.929727">
        <ele>1816</ele>
        <time>2018-06-30T10:43:22.008Z</time>
      </trkpt>
      <trkpt lat="40.898188" lon="-3.929698">
        <ele>1816</ele>
        <time>2018-06-30T10:43:26.008Z</time>
      </trkpt>
      <trkpt lat="40.898233" lon="-3.929688">
        <ele>1816</ele>
        <time>2018-06-30T10:43:30.008Z</time>
      </trkpt>
      <trkpt lat="40.898283" lon="-3.92968">
        <ele>1817</ele>
        <time>2018-06-30T10:43:34.008Z</time>
      </trkpt>
      <trkpt lat="40.898331" lon="-3.929684">
        <ele>1817</ele>
        <time>2018-06-30T10:43:38.008Z</time>
      </trkpt>
      <trkpt lat="40.898376" lon="-3.929688">
        <ele>1817</ele>
        <time>2018-06-30T10:43:42.008Z</time>
      </trkpt>
      <trkpt lat="40.898422" lon="-3.929705">
        <ele>1817</ele>
        <time>2018-06-30T10:43:46.008Z</time>
      </trkpt>
      <trkpt lat="40.898469" lon="-3.92972">
        <ele>1817</ele>
        <time>2018-06-30T10:43:50.008Z</time>
      </trkpt>
      <trkpt lat="40.898523" lon="-3.929751">
        <ele>1819</ele>
        <time>2018-06-30T10:43:55.008Z</time>
      </trkpt>
      <trkpt lat="40.898567" lon="-3.929787">
        <ele>1819</ele>
        <time>2018-06-30T10:44:00.008Z</time>
      </trkpt>
      <trkpt lat="40.898614" lon="-3.92982">
        <ele>1819</ele>
        <time>2018-06-30T10:44:05.008Z</time>
      </trkpt>
      <trkpt lat="40.898664" lon="-3.929855">
        <ele>1819</ele>
        <time>2018-06-30T10:44:10.008Z</time>
      </trkpt>
      <trkpt lat="40.898714" lon="-3.929896">
        <ele>1820</ele>
        <time>2018-06-30T10:44:15.008Z</time>
      </trkpt>
      <trkpt lat="40.898755" lon="-3.929925">
        <ele>1820</ele>
        <time>2018-06-30T10:44:19.008Z</time>
      </trkpt>
      <trkpt lat="40.898809" lon="-3.929954">
        <ele>1821</ele>
        <time>2018-06-30T10:44:24.008Z</time>
      </trkpt>
      <trkpt lat="40.898877" lon="-3.929987">
        <ele>1821</ele>
        <time>2018-06-30T10:44:30.008Z</time>
      </trkpt>
      <trkpt lat="40.898934" lon="-3.930013">
        <ele>1822</ele>
        <time>2018-06-30T10:44:35.008Z</time>
      </trkpt>
      <trkpt lat="40.899" lon="-3.930046">
        <ele>1822.58383326438</ele>
        <time>2018-06-30T10:44:41.008Z</time>
      </trkpt>
      <trkpt lat="40.899063" lon="-3.930065">
        <ele>1823</ele>
        <time>2018-06-30T10:44:46.008Z</time>
      </trkpt>
      <trkpt lat="40.899124" lon="-3.930078">
        <ele>1823.54221836645</ele>
        <time>2018-06-30T10:44:51.008Z</time>
      </trkpt>
      <trkpt lat="40.899182" lon="-3.930092">
        <ele>1824</ele>
        <time>2018-06-30T10:44:56.008Z</time>
      </trkpt>
      <trkpt lat="40.89924" lon="-3.930116">
        <ele>1824.57525533768</ele>
        <time>2018-06-30T10:45:01.008Z</time>
      </trkpt>
      <trkpt lat="40.899268" lon="-3.930165">
        <ele>1825</ele>
        <time>2018-06-30T10:45:05.008Z</time>
      </trkpt>
      <trkpt lat="40.899246" lon="-3.930229">
        <ele>1825</ele>
        <time>2018-06-30T10:45:10.008Z</time>
      </trkpt>
      <trkpt lat="40.89919" lon="-3.930242">
        <ele>1826</ele>
        <time>2018-06-30T10:45:15.008Z</time>
      </trkpt>
      <trkpt lat="40.899116" lon="-3.930233">
        <ele>1826.54221836645</ele>
        <time>2018-06-30T10:45:21.008Z</time>
      </trkpt>
      <trkpt lat="40.899044" lon="-3.930217">
        <ele>1827</ele>
        <time>2018-06-30T10:45:26.008Z</time>
      </trkpt>
      <trkpt lat="40.898974" lon="-3.930206">
        <ele>1827</ele>
        <time>2018-06-30T10:45:31.008Z</time>
      </trkpt>
      <trkpt lat="40.898909" lon="-3.930195">
        <ele>1827</ele>
        <time>2018-06-30T10:45:36.008Z</time>
      </trkpt>
      <trkpt lat="40.898843" lon="-3.930184">
        <ele>1827.58383326438</ele>
        <time>2018-06-30T10:45:41.008Z</time>
      </trkpt>
      <trkpt lat="40.898777" lon="-3.930176">
        <ele>1828</ele>
        <time>2018-06-30T10:45:46.008Z</time>
      </trkpt>
      <trkpt lat="40.898725" lon="-3.930166">
        <ele>1828</ele>
        <time>2018-06-30T10:45:50.008Z</time>
      </trkpt>
      <trkpt lat="40.898673" lon="-3.930164">
        <ele>1829</ele>
        <time>2018-06-30T10:45:54.008Z</time>
      </trkpt>
      <trkpt lat="40.898622" lon="-3.930157">
        <ele>1829</ele>
        <time>2018-06-30T10:45:58.008Z</time>
      </trkpt>
      <trkpt lat="40.89856" lon="-3.930161">
        <ele>1831</ele>
        <time>2018-06-30T10:46:03.008Z</time>
      </trkpt>
      <trkpt lat="40.898503" lon="-3.930179">
        <ele>1831</ele>
        <time>2018-06-30T10:46:08.008Z</time>
      </trkpt>
      <trkpt lat="40.898456" lon="-3.930218">
        <ele>1832</ele>
        <time>2018-06-30T10:46:13.008Z</time>
      </trkpt>
      <trkpt lat="40.898414" lon="-3.930261">
        <ele>1832</ele>
        <time>2018-06-30T10:46:18.008Z</time>
      </trkpt>
      <trkpt lat="40.898369" lon="-3.930324">
        <ele>1833</ele>
        <time>2018-06-30T10:46:24.008Z</time>
      </trkpt>
      <trkpt lat="40.898321" lon="-3.930407">
        <ele>1833.57958805167</ele>
        <time>2018-06-30T10:46:31.008Z</time>
      </trkpt>
      <trkpt lat="40.898279" lon="-3.930483">
        <ele>1834</ele>
        <time>2018-06-30T10:46:37.008Z</time>
      </trkpt>
      <trkpt lat="40.898223" lon="-3.93057">
        <ele>1835</ele>
        <time>2018-06-30T10:46:44.008Z</time>
      </trkpt>
      <trkpt lat="40.898181" lon="-3.930633">
        <ele>1835</ele>
        <time>2018-06-30T10:46:49.008Z</time>
      </trkpt>
      <trkpt lat="40.898125" lon="-3.930719">
        <ele>1835</ele>
        <time>2018-06-30T10:46:56.008Z</time>
      </trkpt>
      <trkpt lat="40.898074" lon="-3.930808">
        <ele>1836</ele>
        <time>2018-06-30T10:47:03.008Z</time>
      </trkpt>
      <trkpt lat="40.898027" lon="-3.9309">
        <ele>1836</ele>
        <time>2018-06-30T10:47:10.008Z</time>
      </trkpt>
      <trkpt lat="40.897996" lon="-3.931004">
        <ele>1837</ele>
        <time>2018-06-30T10:47:17.008Z</time>
      </trkpt>
      <trkpt lat="40.897975" lon="-3.93111">
        <ele>1838</ele>
        <time>2018-06-30T10:47:24.008Z</time>
      </trkpt>
      <trkpt lat="40.897955" lon="-3.931218">
        <ele>1838.57958805167</ele>
        <time>2018-06-30T10:47:31.008Z</time>
      </trkpt>
      <trkpt lat="40.897943" lon="-3.931309">
        <ele>1839</ele>
        <time>2018-06-30T10:47:37.008Z</time>
      </trkpt>
      <trkpt lat="40.897929" lon="-3.93142">
        <ele>1839</ele>
        <time>2018-06-30T10:47:44.008Z</time>
      </trkpt>
      <trkpt lat="40.897921" lon="-3.931495">
        <ele>1839</ele>
        <time>2018-06-30T10:47:49.008Z</time>
      </trkpt>
      <trkpt lat="40.897914" lon="-3.9316">
        <ele>1841</ele>
        <time>2018-06-30T10:47:56.008Z</time>
      </trkpt>
      <trkpt lat="40.8979" lon="-3.931674">
        <ele>1841.57958805167</ele>
        <time>2018-06-30T10:48:01.008Z</time>
      </trkpt>
      <trkpt lat="40.897883" lon="-3.931749">
        <ele>1842</ele>
        <time>2018-06-30T10:48:06.008Z</time>
      </trkpt>
      <trkpt lat="40.897877" lon="-3.931841">
        <ele>1844</ele>
        <time>2018-06-30T10:48:12.008Z</time>
      </trkpt>
      <trkpt lat="40.897874" lon="-3.931958">
        <ele>1844</ele>
        <time>2018-06-30T10:48:20.008Z</time>
      </trkpt>
      <trkpt lat="40.897857" lon="-3.932065">
        <ele>1844</ele>
        <time>2018-06-30T10:48:27.008Z</time>
      </trkpt>
      <trkpt lat="40.897845" lon="-3.932159">
        <ele>1845</ele>
        <time>2018-06-30T10:48:33.008Z</time>
      </trkpt>
      <trkpt lat="40.897824" lon="-3.932262">
        <ele>1845</ele>
        <time>2018-06-30T10:48:40.008Z</time>
      </trkpt>
      <trkpt lat="40.897813" lon="-3.932395">
        <ele>1846</ele>
        <time>2018-06-30T10:48:50.008Z</time>
      </trkpt>
      <trkpt lat="40.89778" lon="-3.932502">
        <ele>1846</ele>
        <time>2018-06-30T10:48:57.008Z</time>
      </trkpt>
      <trkpt lat="40.897755" lon="-3.932624">
        <ele>1847</ele>
        <time>2018-06-30T10:49:05.008Z</time>
      </trkpt>
      <trkpt lat="40.897728" lon="-3.932744">
        <ele>1847</ele>
        <time>2018-06-30T10:49:13.008Z</time>
      </trkpt>
      <trkpt lat="40.897694" lon="-3.932862">
        <ele>1848.08443673289</ele>
        <time>2018-06-30T10:49:21.008Z</time>
      </trkpt>
      <trkpt lat="40.897675" lon="-3.932934">
        <ele>1849</ele>
        <time>2018-06-30T10:49:26.008Z</time>
      </trkpt>
      <trkpt lat="40.897654" lon="-3.933018">
        <ele>1850</ele>
        <time>2018-06-30T10:49:32.008Z</time>
      </trkpt>
      <trkpt lat="40.897638" lon="-3.933108">
        <ele>1850</ele>
        <time>2018-06-30T10:49:38.008Z</time>
      </trkpt>
      <trkpt lat="40.897621" lon="-3.933202">
        <ele>1851</ele>
        <time>2018-06-30T10:49:44.008Z</time>
      </trkpt>
      <trkpt lat="40.897605" lon="-3.933294">
        <ele>1851</ele>
        <time>2018-06-30T10:49:50.008Z</time>
      </trkpt>
      <trkpt lat="40.897586" lon="-3.933397">
        <ele>1852</ele>
        <time>2018-06-30T10:49:57.008Z</time>
      </trkpt>
      <trkpt lat="40.897566" lon="-3.933505">
        <ele>1853</ele>
        <time>2018-06-30T10:50:04.008Z</time>
      </trkpt>
      <trkpt lat="40.897536" lon="-3.933622">
        <ele>1853</ele>
        <time>2018-06-30T10:50:12.008Z</time>
      </trkpt>
      <trkpt lat="40.8975" lon="-3.933726">
        <ele>1853</ele>
        <time>2018-06-30T10:50:19.008Z</time>
      </trkpt>
      <trkpt lat="40.897476" lon="-3.933832">
        <ele>1854</ele>
        <time>2018-06-30T10:50:26.008Z</time>
      </trkpt>
      <trkpt lat="40.897464" lon="-3.933912">
        <ele>1856</ele>
        <time>2018-06-30T10:50:32.008Z</time>
      </trkpt>
      <trkpt lat="40.897438" lon="-3.934018">
        <ele>1856</ele>
        <time>2018-06-30T10:50:39.008Z</time>
      </trkpt>
      <trkpt lat="40.89742" lon="-3.934131">
        <ele>1856</ele>
        <time>2018-06-30T10:50:46.008Z</time>
      </trkpt>
      <trkpt lat="40.897406" lon="-3.934206">
        <ele>1857.07415290801</ele>
        <time>2018-06-30T10:50:51.008Z</time>
      </trkpt>
      <trkpt lat="40.897396" lon="-3.934284">
        <ele>1858</ele>
        <time>2018-06-30T10:50:56.008Z</time>
      </trkpt>
      <trkpt lat="40.897376" lon="-3.934396">
        <ele>1859</ele>
        <time>2018-06-30T10:51:03.008Z</time>
      </trkpt>
      <trkpt lat="40.897351" lon="-3.934505">
        <ele>1859</ele>
        <time>2018-06-30T10:51:10.008Z</time>
      </trkpt>
      <trkpt lat="40.897329" lon="-3.934608">
        <ele>1859</ele>
        <time>2018-06-30T10:51:17.008Z</time>
      </trkpt>
      <trkpt lat="40.897316" lon="-3.934712">
        <ele>1861</ele>
        <time>2018-06-30T10:51:24.008Z</time>
      </trkpt>
      <trkpt lat="40.897292" lon="-3.93482">
        <ele>1861.57958805167</ele>
        <time>2018-06-30T10:51:31.008Z</time>
      </trkpt>
      <trkpt lat="40.897278" lon="-3.934924">
        <ele>1862</ele>
        <time>2018-06-30T10:51:38.008Z</time>
      </trkpt>
      <trkpt lat="40.897265" lon="-3.935049">
        <ele>1863</ele>
        <time>2018-06-30T10:51:46.008Z</time>
      </trkpt>
      <trkpt lat="40.897244" lon="-3.935186">
        <ele>1864</ele>
        <time>2018-06-30T10:51:55.008Z</time>
      </trkpt>
      <trkpt lat="40.897223" lon="-3.935277">
        <ele>1864.57958805167</ele>
        <time>2018-06-30T10:52:01.008Z</time>
      </trkpt>
      <trkpt lat="40.897207" lon="-3.935396">
        <ele>1865</ele>
        <time>2018-06-30T10:52:09.008Z</time>
      </trkpt>
      <trkpt lat="40.897174" lon="-3.935483">
        <ele>1867</ele>
        <time>2018-06-30T10:52:15.008Z</time>
      </trkpt>
      <trkpt lat="40.89715" lon="-3.935578">
        <ele>1867</ele>
        <time>2018-06-30T10:52:21.008Z</time>
      </trkpt>
      <trkpt lat="40.897131" lon="-3.935676">
        <ele>1867</ele>
        <time>2018-06-30T10:52:27.008Z</time>
      </trkpt>
      <trkpt lat="40.897119" lon="-3.935768">
        <ele>1867</ele>
        <time>2018-06-30T10:52:33.008Z</time>
      </trkpt>
      <trkpt lat="40.897101" lon="-3.935874">
        <ele>1867</ele>
        <time>2018-06-30T10:52:40.008Z</time>
      </trkpt>
      <trkpt lat="40.897098" lon="-3.93598">
        <ele>1869</ele>
        <time>2018-06-30T10:52:47.008Z</time>
      </trkpt>
      <trkpt lat="40.89713" lon="-3.93604">
        <ele>1870</ele>
        <time>2018-06-30T10:52:56.008Z</time>
      </trkpt>
      <trkpt lat="40.897172" lon="-3.935994">
        <ele>1872</ele>
        <time>2018-06-30T10:53:03.008Z</time>
      </trkpt>
      <trkpt lat="40.897193" lon="-3.935939">
        <ele>1872</ele>
        <time>2018-06-30T10:53:08.008Z</time>
      </trkpt>
      <trkpt lat="40.897214" lon="-3.935872">
        <ele>1873</ele>
        <time>2018-06-30T10:53:13.008Z</time>
      </trkpt>
      <trkpt lat="40.897238" lon="-3.935805">
        <ele>1873</ele>
        <time>2018-06-30T10:53:18.008Z</time>
      </trkpt>
      <trkpt lat="40.89727" lon="-3.935722">
        <ele>1873</ele>
        <time>2018-06-30T10:53:24.008Z</time>
      </trkpt>
      <trkpt lat="40.897303" lon="-3.935642">
        <ele>1873</ele>
        <time>2018-06-30T10:53:30.008Z</time>
      </trkpt>
      <trkpt lat="40.897335" lon="-3.935584">
        <ele>1872</ele>
        <time>2018-06-30T10:53:35.008Z</time>
      </trkpt>
      <trkpt lat="40.897378" lon="-3.935506">
        <ele>1872.58383326438</ele>
        <time>2018-06-30T10:53:41.008Z</time>
      </trkpt>
      <trkpt lat="40.897422" lon="-3.935431">
        <ele>1873</ele>
        <time>2018-06-30T10:53:47.008Z</time>
      </trkpt>
      <trkpt lat="40.897465" lon="-3.935353">
        <ele>1873</ele>
        <time>2018-06-30T10:53:53.008Z</time>
      </trkpt>
      <trkpt lat="40.897502" lon="-3.935286">
        <ele>1873</ele>
        <time>2018-06-30T10:53:58.008Z</time>
      </trkpt>
      <trkpt lat="40.897538" lon="-3.935217">
        <ele>1874</ele>
        <time>2018-06-30T10:54:03.008Z</time>
      </trkpt>
      <trkpt lat="40.897576" lon="-3.935154">
        <ele>1874</ele>
        <time>2018-06-30T10:54:08.008Z</time>
      </trkpt>
      <trkpt lat="40.897615" lon="-3.935087">
        <ele>1874</ele>
        <time>2018-06-30T10:54:13.008Z</time>
      </trkpt>
      <trkpt lat="40.897654" lon="-3.935018">
        <ele>1874</ele>
        <time>2018-06-30T10:54:18.008Z</time>
      </trkpt>
      <trkpt lat="40.897692" lon="-3.934952">
        <ele>1876</ele>
        <time>2018-06-30T10:54:23.008Z</time>
      </trkpt>
      <trkpt lat="40.897721" lon="-3.934901">
        <ele>1876</ele>
        <time>2018-06-30T10:54:27.008Z</time>
      </trkpt>
      <trkpt lat="40.897763" lon="-3.934837">
        <ele>1876.53454274643</ele>
        <time>2018-06-30T10:54:32.008Z</time>
      </trkpt>
      <trkpt lat="40.897806" lon="-3.934779">
        <ele>1877</ele>
        <time>2018-06-30T10:54:37.008Z</time>
      </trkpt>
      <trkpt lat="40.897854" lon="-3.934705">
        <ele>1878</ele>
        <time>2018-06-30T10:54:43.008Z</time>
      </trkpt>
      <trkpt lat="40.897894" lon="-3.934628">
        <ele>1878</ele>
        <time>2018-06-30T10:54:49.008Z</time>
      </trkpt>
      <trkpt lat="40.897926" lon="-3.934565">
        <ele>1879</ele>
        <time>2018-06-30T10:54:54.008Z</time>
      </trkpt>
      <trkpt lat="40.897961" lon="-3.934501">
        <ele>1879</ele>
        <time>2018-06-30T10:54:59.008Z</time>
      </trkpt>
      <trkpt lat="40.898003" lon="-3.934433">
        <ele>1880</ele>
        <time>2018-06-30T10:55:05.008Z</time>
      </trkpt>
      <trkpt lat="40.898041" lon="-3.934374">
        <ele>1880</ele>
        <time>2018-06-30T10:55:10.008Z</time>
      </trkpt>
      <trkpt lat="40.898079" lon="-3.934314">
        <ele>1881</ele>
        <time>2018-06-30T10:55:15.008Z</time>
      </trkpt>
      <trkpt lat="40.898121" lon="-3.934257">
        <ele>1881</ele>
        <time>2018-06-30T10:55:20.008Z</time>
      </trkpt>
      <trkpt lat="40.898164" lon="-3.934207">
        <ele>1882</ele>
        <time>2018-06-30T10:55:25.008Z</time>
      </trkpt>
      <trkpt lat="40.898205" lon="-3.934153">
        <ele>1882</ele>
        <time>2018-06-30T10:55:30.008Z</time>
      </trkpt>
      <trkpt lat="40.898249" lon="-3.9341">
        <ele>1883</ele>
        <time>2018-06-30T10:55:35.008Z</time>
      </trkpt>
      <trkpt lat="40.898295" lon="-3.934053">
        <ele>1883</ele>
        <time>2018-06-30T10:55:40.008Z</time>
      </trkpt>
      <trkpt lat="40.898348" lon="-3.934008">
        <ele>1883</ele>
        <time>2018-06-30T10:55:45.008Z</time>
      </trkpt>
      <trkpt lat="40.898397" lon="-3.933976">
        <ele>1883</ele>
        <time>2018-06-30T10:55:49.008Z</time>
      </trkpt>
      <trkpt lat="40.898455" lon="-3.933952">
        <ele>1884</ele>
        <time>2018-06-30T10:55:54.008Z</time>
      </trkpt>
      <trkpt lat="40.898501" lon="-3.93392">
        <ele>1884</ele>
        <time>2018-06-30T10:55:58.008Z</time>
      </trkpt>
      <trkpt lat="40.898575" lon="-3.933882">
        <ele>1885</ele>
        <time>2018-06-30T10:56:04.008Z</time>
      </trkpt>
      <trkpt lat="40.898622" lon="-3.933864">
        <ele>1885</ele>
        <time>2018-06-30T10:56:08.008Z</time>
      </trkpt>
      <trkpt lat="40.898701" lon="-3.933838">
        <ele>1886</ele>
        <time>2018-06-30T10:56:15.008Z</time>
      </trkpt>
      <trkpt lat="40.898782" lon="-3.933808">
        <ele>1887</ele>
        <time>2018-06-30T10:56:22.008Z</time>
      </trkpt>
      <trkpt lat="40.898855" lon="-3.933786">
        <ele>1887</ele>
        <time>2018-06-30T10:56:28.008Z</time>
      </trkpt>
      <trkpt lat="40.898939" lon="-3.933761">
        <ele>1888</ele>
        <time>2018-06-30T10:56:35.008Z</time>
      </trkpt>
      <trkpt lat="40.899012" lon="-3.933749">
        <ele>1888.58383326438</ele>
        <time>2018-06-30T10:56:41.008Z</time>
      </trkpt>
      <trkpt lat="40.899083" lon="-3.933743">
        <ele>1889</ele>
        <time>2018-06-30T10:56:47.008Z</time>
      </trkpt>
      <trkpt lat="40.899163" lon="-3.93376">
        <ele>1890</ele>
        <time>2018-06-30T10:56:54.008Z</time>
      </trkpt>
      <trkpt lat="40.899232" lon="-3.933781">
        <ele>1890</ele>
        <time>2018-06-30T10:57:00.008Z</time>
      </trkpt>
      <trkpt lat="40.899292" lon="-3.933807">
        <ele>1890</ele>
        <time>2018-06-30T10:57:05.008Z</time>
      </trkpt>
      <trkpt lat="40.899363" lon="-3.93384">
        <ele>1891.16766652875</ele>
        <time>2018-06-30T10:57:11.008Z</time>
      </trkpt>
      <trkpt lat="40.899422" lon="-3.933866">
        <ele>1892</ele>
        <time>2018-06-30T10:57:16.008Z</time>
      </trkpt>
      <trkpt lat="40.899478" lon="-3.933898">
        <ele>1892</ele>
        <time>2018-06-30T10:57:21.008Z</time>
      </trkpt>
      <trkpt lat="40.899531" lon="-3.933933">
        <ele>1892</ele>
        <time>2018-06-30T10:57:26.008Z</time>
      </trkpt>
      <trkpt lat="40.899608" lon="-3.933981">
        <ele>1893</ele>
        <time>2018-06-30T10:57:34.008Z</time>
      </trkpt>
      <trkpt lat="40.899674" lon="-3.934034">
        <ele>1893.58383326438</ele>
        <time>2018-06-30T10:57:41.008Z</time>
      </trkpt>
      <trkpt lat="40.899728" lon="-3.934074">
        <ele>1894</ele>
        <time>2018-06-30T10:57:46.008Z</time>
      </trkpt>
      <trkpt lat="40.899782" lon="-3.934127">
        <ele>1894.54221836645</ele>
        <time>2018-06-30T10:57:51.008Z</time>
      </trkpt>
      <trkpt lat="40.899845" lon="-3.934174">
        <ele>1895</ele>
        <time>2018-06-30T10:57:57.008Z</time>
      </trkpt>
      <trkpt lat="40.899912" lon="-3.934215">
        <ele>1896</ele>
        <time>2018-06-30T10:58:03.008Z</time>
      </trkpt>
      <trkpt lat="40.899978" lon="-3.934261">
        <ele>1896</ele>
        <time>2018-06-30T10:58:09.008Z</time>
      </trkpt>
      <trkpt lat="40.900043" lon="-3.934299">
        <ele>1897</ele>
        <time>2018-06-30T10:58:15.008Z</time>
      </trkpt>
      <trkpt lat="40.900112" lon="-3.934325">
        <ele>1897.54221836645</ele>
        <time>2018-06-30T10:58:21.008Z</time>
      </trkpt>
      <trkpt lat="40.900177" lon="-3.934354">
        <ele>1898</ele>
        <time>2018-06-30T10:58:27.008Z</time>
      </trkpt>
      <trkpt lat="40.900236" lon="-3.934378">
        <ele>1899</ele>
        <time>2018-06-30T10:58:32.008Z</time>
      </trkpt>
      <trkpt lat="40.900292" lon="-3.934406">
        <ele>1899</ele>
        <time>2018-06-30T10:58:37.008Z</time>
      </trkpt>
      <trkpt lat="40.900352" lon="-3.934433">
        <ele>1900</ele>
        <time>2018-06-30T10:58:42.008Z</time>
      </trkpt>
      <trkpt lat="40.900399" lon="-3.934457">
        <ele>1900</ele>
        <time>2018-06-30T10:58:46.008Z</time>
      </trkpt>
      <trkpt lat="40.900447" lon="-3.934476">
        <ele>1900</ele>
        <time>2018-06-30T10:58:50.008Z</time>
      </trkpt>
      <trkpt lat="40.900519" lon="-3.93451">
        <ele>1900</ele>
        <time>2018-06-30T10:58:56.008Z</time>
      </trkpt>
      <trkpt lat="40.900581" lon="-3.934564">
        <ele>1901</ele>
        <time>2018-06-30T10:59:02.008Z</time>
      </trkpt>
      <trkpt lat="40.900597" lon="-3.934653">
        <ele>1901</ele>
        <time>2018-06-30T10:59:08.008Z</time>
      </trkpt>
      <trkpt lat="40.900554" lon="-3.934704">
        <ele>1903</ele>
        <time>2018-06-30T10:59:13.008Z</time>
      </trkpt>
      <trkpt lat="40.90049" lon="-3.934711">
        <ele>1903</ele>
        <time>2018-06-30T10:59:18.008Z</time>
      </trkpt>
      <trkpt lat="40.900419" lon="-3.934699">
        <ele>1904</ele>
        <time>2018-06-30T10:59:24.008Z</time>
      </trkpt>
      <trkpt lat="40.900348" lon="-3.93468">
        <ele>1905</ele>
        <time>2018-06-30T10:59:30.008Z</time>
      </trkpt>
      <trkpt lat="40.900263" lon="-3.934676">
        <ele>1905</ele>
        <time>2018-06-30T10:59:37.008Z</time>
      </trkpt>
      <trkpt lat="40.900174" lon="-3.934708">
        <ele>1906</ele>
        <time>2018-06-30T10:59:45.008Z</time>
      </trkpt>
      <trkpt lat="40.900096" lon="-3.934736">
        <ele>1906</ele>
        <time>2018-06-30T10:59:52.008Z</time>
      </trkpt>
      <trkpt lat="40.900029" lon="-3.934767">
        <ele>1906</ele>
        <time>2018-06-30T10:59:58.008Z</time>
      </trkpt>
      <trkpt lat="40.899963" lon="-3.934799">
        <ele>1906</ele>
        <time>2018-06-30T11:00:04.008Z</time>
      </trkpt>
      <trkpt lat="40.899896" lon="-3.934835">
        <ele>1906</ele>
        <time>2018-06-30T11:00:10.008Z</time>
      </trkpt>
      <trkpt lat="40.899831" lon="-3.934878">
        <ele>1907</ele>
        <time>2018-06-30T11:00:17.008Z</time>
      </trkpt>
      <trkpt lat="40.899749" lon="-3.934913">
        <ele>1908</ele>
        <time>2018-06-30T11:00:24.008Z</time>
      </trkpt>
      <trkpt lat="40.899667" lon="-3.934963">
        <ele>1910</ele>
        <time>2018-06-30T11:00:32.008Z</time>
      </trkpt>
      <trkpt lat="40.899588" lon="-3.93501">
        <ele>1910</ele>
        <time>2018-06-30T11:00:39.008Z</time>
      </trkpt>
      <trkpt lat="40.899518" lon="-3.935069">
        <ele>1911</ele>
        <time>2018-06-30T11:00:46.008Z</time>
      </trkpt>
      <trkpt lat="40.89945" lon="-3.935134">
        <ele>1912</ele>
        <time>2018-06-30T11:00:53.008Z</time>
      </trkpt>
      <trkpt lat="40.899375" lon="-3.935198">
        <ele>1912</ele>
        <time>2018-06-30T11:01:00.008Z</time>
      </trkpt>
      <trkpt lat="40.899308" lon="-3.935263">
        <ele>1913</ele>
        <time>2018-06-30T11:01:07.008Z</time>
      </trkpt>
      <trkpt lat="40.899252" lon="-3.935326">
        <ele>1914</ele>
        <time>2018-06-30T11:01:14.008Z</time>
      </trkpt>
      <trkpt lat="40.89919" lon="-3.935396">
        <ele>1914.54221836645</ele>
        <time>2018-06-30T11:01:21.008Z</time>
      </trkpt>
      <trkpt lat="40.899133" lon="-3.935468">
        <ele>1915</ele>
        <time>2018-06-30T11:01:28.008Z</time>
      </trkpt>
      <trkpt lat="40.899079" lon="-3.935552">
        <ele>1916</ele>
        <time>2018-06-30T11:01:35.008Z</time>
      </trkpt>
      <trkpt lat="40.899038" lon="-3.935642">
        <ele>1918</ele>
        <time>2018-06-30T11:01:42.008Z</time>
      </trkpt>
      <trkpt lat="40.899015" lon="-3.935721">
        <ele>1918</ele>
        <time>2018-06-30T11:01:48.008Z</time>
      </trkpt>
      <trkpt lat="40.898991" lon="-3.935794">
        <ele>1919</ele>
        <time>2018-06-30T11:01:53.008Z</time>
      </trkpt>
      <trkpt lat="40.898978" lon="-3.935856">
        <ele>1919</ele>
        <time>2018-06-30T11:01:57.008Z</time>
      </trkpt>
      <trkpt lat="40.898957" lon="-3.935946">
        <ele>1921</ele>
        <time>2018-06-30T11:02:03.008Z</time>
      </trkpt>
      <trkpt lat="40.898935" lon="-3.936038">
        <ele>1921</ele>
        <time>2018-06-30T11:02:09.008Z</time>
      </trkpt>
      <trkpt lat="40.89891" lon="-3.936114">
        <ele>1921</ele>
        <time>2018-06-30T11:02:14.008Z</time>
      </trkpt>
      <trkpt lat="40.898888" lon="-3.936188">
        <ele>1921</ele>
        <time>2018-06-30T11:02:19.008Z</time>
      </trkpt>
      <trkpt lat="40.898875" lon="-3.936264">
        <ele>1921</ele>
        <time>2018-06-30T11:02:24.008Z</time>
      </trkpt>
      <trkpt lat="40.898872" lon="-3.936372">
        <ele>1921</ele>
        <time>2018-06-30T11:02:31.008Z</time>
      </trkpt>
      <trkpt lat="40.898893" lon="-3.936458">
        <ele>1921</ele>
        <time>2018-06-30T11:02:37.008Z</time>
      </trkpt>
      <trkpt lat="40.89892" lon="-3.9365">
        <ele>1921.58383326438</ele>
        <time>2018-06-30T11:02:41.008Z</time>
      </trkpt>
      <trkpt lat="40.898978" lon="-3.936542">
        <ele>1922</ele>
        <time>2018-06-30T11:02:49.008Z</time>
      </trkpt>
      <trkpt lat="40.899042" lon="-3.93658">
        <ele>1924</ele>
        <time>2018-06-30T11:02:57.008Z</time>
      </trkpt>
      <trkpt lat="40.899103" lon="-3.936577">
        <ele>1926</ele>
        <time>2018-06-30T11:03:04.008Z</time>
      </trkpt>
      <trkpt lat="40.899164" lon="-3.936588">
        <ele>1926.58383326438</ele>
        <time>2018-06-30T11:03:11.008Z</time>
      </trkpt>
      <trkpt lat="40.899215" lon="-3.936611">
        <ele>1927</ele>
        <time>2018-06-30T11:03:16.008Z</time>
      </trkpt>
      <trkpt lat="40.89926" lon="-3.936646">
        <ele>1927.54221836645</ele>
        <time>2018-06-30T11:03:21.008Z</time>
      </trkpt>
      <trkpt lat="40.899307" lon="-3.936677">
        <ele>1928</ele>
        <time>2018-06-30T11:03:26.008Z</time>
      </trkpt>
      <trkpt lat="40.89937" lon="-3.936701">
        <ele>1930</ele>
        <time>2018-06-30T11:03:32.008Z</time>
      </trkpt>
      <trkpt lat="40.899432" lon="-3.936709">
        <ele>1930</ele>
        <time>2018-06-30T11:03:38.008Z</time>
      </trkpt>
      <trkpt lat="40.899497" lon="-3.936719">
        <ele>1932</ele>
        <time>2018-06-30T11:03:44.008Z</time>
      </trkpt>
      <trkpt lat="40.89956" lon="-3.936734">
        <ele>1932</ele>
        <time>2018-06-30T11:03:50.008Z</time>
      </trkpt>
      <trkpt lat="40.899624" lon="-3.936747">
        <ele>1933</ele>
        <time>2018-06-30T11:03:56.008Z</time>
      </trkpt>
      <trkpt lat="40.899687" lon="-3.936755">
        <ele>1936</ele>
        <time>2018-06-30T11:04:02.008Z</time>
      </trkpt>
      <trkpt lat="40.899727" lon="-3.936767">
        <ele>1936</ele>
        <time>2018-06-30T11:04:06.008Z</time>
      </trkpt>
      <trkpt lat="40.899785" lon="-3.936804">
        <ele>1937</ele>
        <time>2018-06-30T11:04:12.008Z</time>
      </trkpt>
      <trkpt lat="40.899842" lon="-3.936847">
        <ele>1938</ele>
        <time>2018-06-30T11:04:18.008Z</time>
      </trkpt>
      <trkpt lat="40.899904" lon="-3.936882">
        <ele>1938</ele>
        <time>2018-06-30T11:04:24.008Z</time>
      </trkpt>
      <trkpt lat="40.899963" lon="-3.936905">
        <ele>1938</ele>
        <time>2018-06-30T11:04:30.008Z</time>
      </trkpt>
      <trkpt lat="40.900003" lon="-3.936933">
        <ele>1939</ele>
        <time>2018-06-30T11:04:34.008Z</time>
      </trkpt>
      <trkpt lat="40.900055" lon="-3.936987">
        <ele>1939</ele>
        <time>2018-06-30T11:04:40.008Z</time>
      </trkpt>
      <trkpt lat="40.900093" lon="-3.937041">
        <ele>1940</ele>
        <time>2018-06-30T11:04:45.008Z</time>
      </trkpt>
      <trkpt lat="40.900135" lon="-3.937102">
        <ele>1940</ele>
        <time>2018-06-30T11:04:50.008Z</time>
      </trkpt>
      <trkpt lat="40.900179" lon="-3.937155">
        <ele>1942</ele>
        <time>2018-06-30T11:04:55.008Z</time>
      </trkpt>
      <trkpt lat="40.90022" lon="-3.937203">
        <ele>1942</ele>
        <time>2018-06-30T11:05:00.008Z</time>
      </trkpt>
      <trkpt lat="40.900262" lon="-3.937257">
        <ele>1942</ele>
        <time>2018-06-30T11:05:05.008Z</time>
      </trkpt>
      <trkpt lat="40.900314" lon="-3.937302">
        <ele>1942</ele>
        <time>2018-06-30T11:05:10.008Z</time>
      </trkpt>
      <trkpt lat="40.900366" lon="-3.937337">
        <ele>1943</ele>
        <time>2018-06-30T11:05:15.008Z</time>
      </trkpt>
      <trkpt lat="40.900416" lon="-3.937377">
        <ele>1943</ele>
        <time>2018-06-30T11:05:20.008Z</time>
      </trkpt>
      <trkpt lat="40.900462" lon="-3.937427">
        <ele>1944</ele>
        <time>2018-06-30T11:05:25.008Z</time>
      </trkpt>
      <trkpt lat="40.900504" lon="-3.937464">
        <ele>1944</ele>
        <time>2018-06-30T11:05:29.008Z</time>
      </trkpt>
      <trkpt lat="40.900534" lon="-3.937494">
        <ele>1944</ele>
        <time>2018-06-30T11:05:32.008Z</time>
      </trkpt>
      <trkpt lat="40.900584" lon="-3.937539">
        <ele>1944</ele>
        <time>2018-06-30T11:05:37.008Z</time>
      </trkpt>
      <trkpt lat="40.900636" lon="-3.937593">
        <ele>1943</ele>
        <time>2018-06-30T11:05:43.008Z</time>
      </trkpt>
      <trkpt lat="40.900692" lon="-3.937652">
        <ele>1943</ele>
        <time>2018-06-30T11:05:49.008Z</time>
      </trkpt>
      <trkpt lat="40.900742" lon="-3.937696">
        <ele>1943</ele>
        <time>2018-06-30T11:05:54.008Z</time>
      </trkpt>
      <trkpt lat="40.90079" lon="-3.937747">
        <ele>1943</ele>
        <time>2018-06-30T11:05:59.008Z</time>
      </trkpt>
      <trkpt lat="40.900826" lon="-3.937786">
        <ele>1944</ele>
        <time>2018-06-30T11:06:03.008Z</time>
      </trkpt>
      <trkpt lat="40.900868" lon="-3.937816">
        <ele>1944</ele>
        <time>2018-06-30T11:06:09.008Z</time>
      </trkpt>
      <trkpt lat="40.90092" lon="-3.937813">
        <ele>1945</ele>
        <time>2018-06-30T11:06:19.008Z</time>
      </trkpt>
      <trkpt lat="40.90096" lon="-3.937817">
        <ele>1946</ele>
        <time>2018-06-30T11:06:53.008Z</time>
      </trkpt>
      <trkpt lat="40.901019" lon="-3.937849">
        <ele>1946</ele>
        <time>2018-06-30T11:07:13.008Z</time>
      </trkpt>
      <trkpt lat="40.901038" lon="-3.937876">
        <ele>1947</ele>
        <time>2018-06-30T11:08:14.008Z</time>
      </trkpt>
      <trkpt lat="40.901079" lon="-3.937896">
        <ele>1947</ele>
        <time>2018-06-30T11:11:03.008Z</time>
      </trkpt>
      <trkpt lat="40.901046" lon="-3.937874">
        <ele>1947</ele>
        <time>2018-06-30T11:11:11.008Z</time>
      </trkpt>
      <trkpt lat="40.901115" lon="-3.937884">
        <ele>1947</ele>
        <time>2018-06-30T11:11:20.008Z</time>
      </trkpt>
      <trkpt lat="40.90117" lon="-3.93788">
        <ele>1946</ele>
        <time>2018-06-30T11:11:25.008Z</time>
      </trkpt>
      <trkpt lat="40.90122" lon="-3.937908">
        <ele>1946</ele>
        <time>2018-06-30T11:11:30.008Z</time>
      </trkpt>
      <trkpt lat="40.90129" lon="-3.93793">
        <ele>1947</ele>
        <time>2018-06-30T11:11:37.008Z</time>
      </trkpt>
      <trkpt lat="40.901359" lon="-3.937962">
        <ele>1949</ele>
        <time>2018-06-30T11:11:44.008Z</time>
      </trkpt>
      <trkpt lat="40.901404" lon="-3.938004">
        <ele>1949</ele>
        <time>2018-06-30T11:11:49.008Z</time>
      </trkpt>
      <trkpt lat="40.90144" lon="-3.938034">
        <ele>1949</ele>
        <time>2018-06-30T11:11:53.008Z</time>
      </trkpt>
      <trkpt lat="40.901476" lon="-3.938066">
        <ele>1949</ele>
        <time>2018-06-30T11:11:57.008Z</time>
      </trkpt>
      <trkpt lat="40.901514" lon="-3.93809">
        <ele>1950.15917610334</ele>
        <time>2018-06-30T11:12:01.008Z</time>
      </trkpt>
      <trkpt lat="40.901545" lon="-3.938129">
        <ele>1951</ele>
        <time>2018-06-30T11:12:05.008Z</time>
      </trkpt>
      <trkpt lat="40.901568" lon="-3.938174">
        <ele>1951</ele>
        <time>2018-06-30T11:12:09.008Z</time>
      </trkpt>
      <trkpt lat="40.9016" lon="-3.938243">
        <ele>1952</ele>
        <time>2018-06-30T11:12:15.008Z</time>
      </trkpt>
      <trkpt lat="40.901636" lon="-3.938309">
        <ele>1952.54221836645</ele>
        <time>2018-06-30T11:12:21.008Z</time>
      </trkpt>
      <trkpt lat="40.901663" lon="-3.938351">
        <ele>1953</ele>
        <time>2018-06-30T11:12:25.008Z</time>
      </trkpt>
      <trkpt lat="40.901691" lon="-3.938391">
        <ele>1954</ele>
        <time>2018-06-30T11:12:29.008Z</time>
      </trkpt>
      <trkpt lat="40.901741" lon="-3.938417">
        <ele>1955</ele>
        <time>2018-06-30T11:12:35.008Z</time>
      </trkpt>
      <trkpt lat="40.901793" lon="-3.938455">
        <ele>1957</ele>
        <time>2018-06-30T11:12:42.008Z</time>
      </trkpt>
      <trkpt lat="40.90183" lon="-3.93851">
        <ele>1957</ele>
        <time>2018-06-30T11:12:48.008Z</time>
      </trkpt>
      <trkpt lat="40.901856" lon="-3.938579">
        <ele>1959</ele>
        <time>2018-06-30T11:12:55.008Z</time>
      </trkpt>
      <trkpt lat="40.901888" lon="-3.938654">
        <ele>1960</ele>
        <time>2018-06-30T11:13:03.008Z</time>
      </trkpt>
      <trkpt lat="40.901931" lon="-3.938701">
        <ele>1960</ele>
        <time>2018-06-30T11:13:10.008Z</time>
      </trkpt>
      <trkpt lat="40.901982" lon="-3.938719">
        <ele>1962</ele>
        <time>2018-06-30T11:13:16.008Z</time>
      </trkpt>
      <trkpt lat="40.90204" lon="-3.93872">
        <ele>1964</ele>
        <time>2018-06-30T11:13:23.008Z</time>
      </trkpt>
      <trkpt lat="40.902092" lon="-3.93873">
        <ele>1964</ele>
        <time>2018-06-30T11:13:29.008Z</time>
      </trkpt>
      <trkpt lat="40.902143" lon="-3.938754">
        <ele>1966</ele>
        <time>2018-06-30T11:13:35.008Z</time>
      </trkpt>
      <trkpt lat="40.902176" lon="-3.938773">
        <ele>1966</ele>
        <time>2018-06-30T11:13:39.008Z</time>
      </trkpt>
      <trkpt lat="40.902202" lon="-3.938807">
        <ele>1968</ele>
        <time>2018-06-30T11:13:43.008Z</time>
      </trkpt>
      <trkpt lat="40.902242" lon="-3.938854">
        <ele>1968</ele>
        <time>2018-06-30T11:13:49.008Z</time>
      </trkpt>
      <trkpt lat="40.902272" lon="-3.93891">
        <ele>1968</ele>
        <time>2018-06-30T11:13:55.008Z</time>
      </trkpt>
      <trkpt lat="40.902302" lon="-3.938971">
        <ele>1969.15917610334</ele>
        <time>2018-06-30T11:14:01.008Z</time>
      </trkpt>
      <trkpt lat="40.902334" lon="-3.939044">
        <ele>1970</ele>
        <time>2018-06-30T11:14:08.008Z</time>
      </trkpt>
      <trkpt lat="40.902366" lon="-3.939112">
        <ele>1971</ele>
        <time>2018-06-30T11:14:14.008Z</time>
      </trkpt>
      <trkpt lat="40.902389" lon="-3.939182">
        <ele>1971</ele>
        <time>2018-06-30T11:14:20.008Z</time>
      </trkpt>
      <trkpt lat="40.902409" lon="-3.939257">
        <ele>1973</ele>
        <time>2018-06-30T11:14:27.008Z</time>
      </trkpt>
      <trkpt lat="40.902427" lon="-3.939333">
        <ele>1974</ele>
        <time>2018-06-30T11:14:34.008Z</time>
      </trkpt>
      <trkpt lat="40.90245" lon="-3.939403">
        <ele>1974</ele>
        <time>2018-06-30T11:14:40.008Z</time>
      </trkpt>
      <trkpt lat="40.90246" lon="-3.939481">
        <ele>1975</ele>
        <time>2018-06-30T11:14:46.008Z</time>
      </trkpt>
      <trkpt lat="40.902474" lon="-3.939543">
        <ele>1975.54221836645</ele>
        <time>2018-06-30T11:14:51.008Z</time>
      </trkpt>
      <trkpt lat="40.902493" lon="-3.939628">
        <ele>1976</ele>
        <time>2018-06-30T11:14:58.008Z</time>
      </trkpt>
      <trkpt lat="40.902525" lon="-3.939709">
        <ele>1979</ele>
        <time>2018-06-30T11:15:05.008Z</time>
      </trkpt>
      <trkpt lat="40.902549" lon="-3.939786">
        <ele>1980</ele>
        <time>2018-06-30T11:15:12.008Z</time>
      </trkpt>
      <trkpt lat="40.902562" lon="-3.939847">
        <ele>1981</ele>
        <time>2018-06-30T11:15:17.008Z</time>
      </trkpt>
      <trkpt lat="40.902593" lon="-3.939925">
        <ele>1981</ele>
        <time>2018-06-30T11:15:24.008Z</time>
      </trkpt>
      <trkpt lat="40.902624" lon="-3.94">
        <ele>1981.57958805167</ele>
        <time>2018-06-30T11:15:31.008Z</time>
      </trkpt>
      <trkpt lat="40.902661" lon="-3.940075">
        <ele>1982</ele>
        <time>2018-06-30T11:15:38.008Z</time>
      </trkpt>
      <trkpt lat="40.902695" lon="-3.940147">
        <ele>1984</ele>
        <time>2018-06-30T11:15:45.008Z</time>
      </trkpt>
      <trkpt lat="40.902725" lon="-3.940227">
        <ele>1985</ele>
        <time>2018-06-30T11:15:53.008Z</time>
      </trkpt>
      <trkpt lat="40.902768" lon="-3.940282">
        <ele>1985</ele>
        <time>2018-06-30T11:16:00.008Z</time>
      </trkpt>
      <trkpt lat="40.902788" lon="-3.940358">
        <ele>1987</ele>
        <time>2018-06-30T11:16:07.008Z</time>
      </trkpt>
      <trkpt lat="40.902807" lon="-3.940431">
        <ele>1988</ele>
        <time>2018-06-30T11:16:14.008Z</time>
      </trkpt>
      <trkpt lat="40.902821" lon="-3.940504">
        <ele>1988</ele>
        <time>2018-06-30T11:16:20.008Z</time>
      </trkpt>
      <trkpt lat="40.902852" lon="-3.940575">
        <ele>1991</ele>
        <time>2018-06-30T11:16:27.008Z</time>
      </trkpt>
      <trkpt lat="40.902859" lon="-3.940651">
        <ele>1992</ele>
        <time>2018-06-30T11:16:33.008Z</time>
      </trkpt>
      <trkpt lat="40.902862" lon="-3.940728">
        <ele>1993</ele>
        <time>2018-06-30T11:16:39.008Z</time>
      </trkpt>
      <trkpt lat="40.902884" lon="-3.940806">
        <ele>1993</ele>
        <time>2018-06-30T11:16:46.008Z</time>
      </trkpt>
      <trkpt lat="40.902912" lon="-3.940879">
        <ele>1995</ele>
        <time>2018-06-30T11:16:53.008Z</time>
      </trkpt>
      <trkpt lat="40.902937" lon="-3.940946">
        <ele>1995</ele>
        <time>2018-06-30T11:17:00.008Z</time>
      </trkpt>
      <trkpt lat="40.902966" lon="-3.941012">
        <ele>1999</ele>
        <time>2018-06-30T11:17:07.008Z</time>
      </trkpt>
      <trkpt lat="40.902992" lon="-3.941084">
        <ele>2000</ele>
        <time>2018-06-30T11:17:14.008Z</time>
      </trkpt>
      <trkpt lat="40.903024" lon="-3.941145">
        <ele>2000</ele>
        <time>2018-06-30T11:17:20.008Z</time>
      </trkpt>
      <trkpt lat="40.903046" lon="-3.941186">
        <ele>2001</ele>
        <time>2018-06-30T11:17:24.008Z</time>
      </trkpt>
      <trkpt lat="40.903078" lon="-3.941253">
        <ele>2001.57958805167</ele>
        <time>2018-06-30T11:17:31.008Z</time>
      </trkpt>
      <trkpt lat="40.903101" lon="-3.941324">
        <ele>2002</ele>
        <time>2018-06-30T11:17:37.008Z</time>
      </trkpt>
      <trkpt lat="40.903122" lon="-3.94139">
        <ele>2004</ele>
        <time>2018-06-30T11:17:43.008Z</time>
      </trkpt>
      <trkpt lat="40.903147" lon="-3.941428">
        <ele>2005</ele>
        <time>2018-06-30T11:17:47.008Z</time>
      </trkpt>
      <trkpt lat="40.903184" lon="-3.941454">
        <ele>2006</ele>
        <time>2018-06-30T11:17:52.008Z</time>
      </trkpt>
      <trkpt lat="40.903238" lon="-3.941479">
        <ele>2008</ele>
        <time>2018-06-30T11:17:59.008Z</time>
      </trkpt>
      <trkpt lat="40.903292" lon="-3.941504">
        <ele>2009.57646793078</ele>
        <time>2018-06-30T11:18:06.008Z</time>
      </trkpt>
      <trkpt lat="40.903354" lon="-3.941528">
        <ele>2010</ele>
        <time>2018-06-30T11:18:13.008Z</time>
      </trkpt>
      <trkpt lat="40.903387" lon="-3.941542">
        <ele>2010</ele>
        <time>2018-06-30T11:18:17.008Z</time>
      </trkpt>
      <trkpt lat="40.903412" lon="-3.941557">
        <ele>2010</ele>
        <time>2018-06-30T11:18:20.008Z</time>
      </trkpt>
      <trkpt lat="40.90344" lon="-3.941575">
        <ele>2012</ele>
        <time>2018-06-30T11:18:24.008Z</time>
      </trkpt>
      <trkpt lat="40.90347" lon="-3.941596">
        <ele>2012</ele>
        <time>2018-06-30T11:18:28.008Z</time>
      </trkpt>
      <trkpt lat="40.903502" lon="-3.941615">
        <ele>2013</ele>
        <time>2018-06-30T11:18:32.008Z</time>
      </trkpt>
      <trkpt lat="40.903524" lon="-3.941636">
        <ele>2013</ele>
        <time>2018-06-30T11:18:35.008Z</time>
      </trkpt>
      <trkpt lat="40.903546" lon="-3.941658">
        <ele>2013</ele>
        <time>2018-06-30T11:18:38.008Z</time>
      </trkpt>
      <trkpt lat="40.903569" lon="-3.94168">
        <ele>2013.58383326438</ele>
        <time>2018-06-30T11:18:41.008Z</time>
      </trkpt>
      <trkpt lat="40.90359" lon="-3.941704">
        <ele>2014</ele>
        <time>2018-06-30T11:18:44.008Z</time>
      </trkpt>
      <trkpt lat="40.903612" lon="-3.941732">
        <ele>2014</ele>
        <time>2018-06-30T11:18:47.008Z</time>
      </trkpt>
      <trkpt lat="40.90363" lon="-3.941763">
        <ele>2014</ele>
        <time>2018-06-30T11:18:50.008Z</time>
      </trkpt>
      <trkpt lat="40.903642" lon="-3.941785">
        <ele>2015</ele>
        <time>2018-06-30T11:18:52.008Z</time>
      </trkpt>
      <trkpt lat="40.903652" lon="-3.941807">
        <ele>2015</ele>
        <time>2018-06-30T11:18:54.008Z</time>
      </trkpt>
      <trkpt lat="40.903666" lon="-3.94183">
        <ele>2015</ele>
        <time>2018-06-30T11:18:56.008Z</time>
      </trkpt>
      <trkpt lat="40.903686" lon="-3.941862">
        <ele>2015</ele>
        <time>2018-06-30T11:18:59.008Z</time>
      </trkpt>
      <trkpt lat="40.903706" lon="-3.941892">
        <ele>2016</ele>
        <time>2018-06-30T11:19:02.008Z</time>
      </trkpt>
      <trkpt lat="40.903728" lon="-3.941933">
        <ele>2016</ele>
        <time>2018-06-30T11:19:06.008Z</time>
      </trkpt>
      <trkpt lat="40.903744" lon="-3.941965">
        <ele>2016</ele>
        <time>2018-06-30T11:19:09.008Z</time>
      </trkpt>
      <trkpt lat="40.903754" lon="-3.941998">
        <ele>2018</ele>
        <time>2018-06-30T11:19:12.008Z</time>
      </trkpt>
      <trkpt lat="40.903766" lon="-3.942029">
        <ele>2018</ele>
        <time>2018-06-30T11:19:15.008Z</time>
      </trkpt>
      <trkpt lat="40.903785" lon="-3.942059">
        <ele>2019</ele>
        <time>2018-06-30T11:19:18.008Z</time>
      </trkpt>
      <trkpt lat="40.903806" lon="-3.94209">
        <ele>2019</ele>
        <time>2018-06-30T11:19:21.008Z</time>
      </trkpt>
      <trkpt lat="40.903839" lon="-3.942155">
        <ele>2020</ele>
        <time>2018-06-30T11:19:27.008Z</time>
      </trkpt>
      <trkpt lat="40.903862" lon="-3.94224">
        <ele>2022</ele>
        <time>2018-06-30T11:19:34.008Z</time>
      </trkpt>
      <trkpt lat="40.903869" lon="-3.942326">
        <ele>2022.58383326438</ele>
        <time>2018-06-30T11:19:41.008Z</time>
      </trkpt>
      <trkpt lat="40.903867" lon="-3.94238">
        <ele>2023</ele>
        <time>2018-06-30T11:19:45.008Z</time>
      </trkpt>
      <trkpt lat="40.903882" lon="-3.942461">
        <ele>2023.53707645401</ele>
        <time>2018-06-30T11:19:51.008Z</time>
      </trkpt>
      <trkpt lat="40.903906" lon="-3.942541">
        <ele>2024</ele>
        <time>2018-06-30T11:19:57.008Z</time>
      </trkpt>
      <trkpt lat="40.903925" lon="-3.942606">
        <ele>2025</ele>
        <time>2018-06-30T11:20:02.008Z</time>
      </trkpt>
      <trkpt lat="40.903928" lon="-3.942686">
        <ele>2025</ele>
        <time>2018-06-30T11:20:08.008Z</time>
      </trkpt>
      <trkpt lat="40.903924" lon="-3.942768">
        <ele>2027</ele>
        <time>2018-06-30T11:20:14.008Z</time>
      </trkpt>
      <trkpt lat="40.903911" lon="-3.942824">
        <ele>2028</ele>
        <time>2018-06-30T11:20:18.008Z</time>
      </trkpt>
      <trkpt lat="40.903894" lon="-3.942875">
        <ele>2028</ele>
        <time>2018-06-30T11:20:22.008Z</time>
      </trkpt>
      <trkpt lat="40.903875" lon="-3.942927">
        <ele>2028</ele>
        <time>2018-06-30T11:20:26.008Z</time>
      </trkpt>
      <trkpt lat="40.903864" lon="-3.943012">
        <ele>2030</ele>
        <time>2018-06-30T11:20:32.008Z</time>
      </trkpt>
      <trkpt lat="40.903856" lon="-3.943077">
        <ele>2030</ele>
        <time>2018-06-30T11:20:37.008Z</time>
      </trkpt>
      <trkpt lat="40.90385" lon="-3.943114">
        <ele>2030</ele>
        <time>2018-06-30T11:20:40.008Z</time>
      </trkpt>
      <trkpt lat="40.903852" lon="-3.943194">
        <ele>2032</ele>
        <time>2018-06-30T11:20:46.008Z</time>
      </trkpt>
      <trkpt lat="40.903851" lon="-3.943233">
        <ele>2032</ele>
        <time>2018-06-30T11:20:49.008Z</time>
      </trkpt>
      <trkpt lat="40.903843" lon="-3.943273">
        <ele>2033</ele>
        <time>2018-06-30T11:20:52.008Z</time>
      </trkpt>
      <trkpt lat="40.903831" lon="-3.94331">
        <ele>2033</ele>
        <time>2018-06-30T11:20:55.008Z</time>
      </trkpt>
      <trkpt lat="40.903807" lon="-3.943339">
        <ele>2033</ele>
        <time>2018-06-30T11:20:58.008Z</time>
      </trkpt>
      <trkpt lat="40.903784" lon="-3.94337">
        <ele>2034.15917610334</ele>
        <time>2018-06-30T11:21:01.008Z</time>
      </trkpt>
      <trkpt lat="40.903768" lon="-3.943407">
        <ele>2035</ele>
        <time>2018-06-30T11:21:04.008Z</time>
      </trkpt>
      <trkpt lat="40.903754" lon="-3.943463">
        <ele>2035</ele>
        <time>2018-06-30T11:21:08.008Z</time>
      </trkpt>
      <trkpt lat="40.903743" lon="-3.943517">
        <ele>2037</ele>
        <time>2018-06-30T11:21:12.008Z</time>
      </trkpt>
      <trkpt lat="40.90373" lon="-3.943554">
        <ele>2037</ele>
        <time>2018-06-30T11:21:15.008Z</time>
      </trkpt>
      <trkpt lat="40.903712" lon="-3.943603">
        <ele>2037</ele>
        <time>2018-06-30T11:21:19.008Z</time>
      </trkpt>
      <trkpt lat="40.903691" lon="-3.943672">
        <ele>2038</ele>
        <time>2018-06-30T11:21:24.008Z</time>
      </trkpt>
      <trkpt lat="40.903678" lon="-3.943741">
        <ele>2038</ele>
        <time>2018-06-30T11:21:29.008Z</time>
      </trkpt>
      <trkpt lat="40.903663" lon="-3.943794">
        <ele>2040</ele>
        <time>2018-06-30T11:21:33.008Z</time>
      </trkpt>
      <trkpt lat="40.903641" lon="-3.943829">
        <ele>2040</ele>
        <time>2018-06-30T11:21:36.008Z</time>
      </trkpt>
      <trkpt lat="40.903626" lon="-3.94387">
        <ele>2040</ele>
        <time>2018-06-30T11:21:39.008Z</time>
      </trkpt>
      <trkpt lat="40.903614" lon="-3.943927">
        <ele>2040</ele>
        <time>2018-06-30T11:21:43.008Z</time>
      </trkpt>
      <trkpt lat="40.90361" lon="-3.943985">
        <ele>2040</ele>
        <time>2018-06-30T11:21:47.008Z</time>
      </trkpt>
      <trkpt lat="40.903611" lon="-3.94403">
        <ele>2040</ele>
        <time>2018-06-30T11:21:50.008Z</time>
      </trkpt>
      <trkpt lat="40.903618" lon="-3.944102">
        <ele>2040</ele>
        <time>2018-06-30T11:21:55.008Z</time>
      </trkpt>
      <trkpt lat="40.903624" lon="-3.944144">
        <ele>2040</ele>
        <time>2018-06-30T11:21:58.008Z</time>
      </trkpt>
      <trkpt lat="40.903629" lon="-3.944188">
        <ele>2041.15917610334</ele>
        <time>2018-06-30T11:22:01.008Z</time>
      </trkpt>
      <trkpt lat="40.903632" lon="-3.944252">
        <ele>2042</ele>
        <time>2018-06-30T11:22:05.008Z</time>
      </trkpt>
      <trkpt lat="40.903641" lon="-3.944315">
        <ele>2042</ele>
        <time>2018-06-30T11:22:09.008Z</time>
      </trkpt>
      <trkpt lat="40.903645" lon="-3.944371">
        <ele>2043</ele>
        <time>2018-06-30T11:22:12.008Z</time>
      </trkpt>
      <trkpt lat="40.903648" lon="-3.944422">
        <ele>2043</ele>
        <time>2018-06-30T11:22:14.008Z</time>
      </trkpt>
      <trkpt lat="40.903649" lon="-3.944476">
        <ele>2043</ele>
        <time>2018-06-30T11:22:17.008Z</time>
      </trkpt>
      <trkpt lat="40.903641" lon="-3.944518">
        <ele>2043</ele>
        <time>2018-06-30T11:22:20.008Z</time>
      </trkpt>
      <trkpt lat="40.903629" lon="-3.944563">
        <ele>2044</ele>
        <time>2018-06-30T11:22:23.008Z</time>
      </trkpt>
      <trkpt lat="40.903609" lon="-3.9446">
        <ele>2044</ele>
        <time>2018-06-30T11:22:26.008Z</time>
      </trkpt>
      <trkpt lat="40.903583" lon="-3.944634">
        <ele>2044</ele>
        <time>2018-06-30T11:22:29.008Z</time>
      </trkpt>
      <trkpt lat="40.903557" lon="-3.944668">
        <ele>2045</ele>
        <time>2018-06-30T11:22:32.008Z</time>
      </trkpt>
      <trkpt lat="40.903528" lon="-3.944696">
        <ele>2045</ele>
        <time>2018-06-30T11:22:35.008Z</time>
      </trkpt>
      <trkpt lat="40.903495" lon="-3.944714">
        <ele>2045</ele>
        <time>2018-06-30T11:22:38.008Z</time>
      </trkpt>
      <trkpt lat="40.903444" lon="-3.94473">
        <ele>2045</ele>
        <time>2018-06-30T11:22:42.008Z</time>
      </trkpt>
      <trkpt lat="40.903389" lon="-3.944741">
        <ele>2045</ele>
        <time>2018-06-30T11:22:46.008Z</time>
      </trkpt>
      <trkpt lat="40.903337" lon="-3.944755">
        <ele>2045</ele>
        <time>2018-06-30T11:22:50.008Z</time>
      </trkpt>
      <trkpt lat="40.903304" lon="-3.944782">
        <ele>2045</ele>
        <time>2018-06-30T11:22:53.008Z</time>
      </trkpt>
      <trkpt lat="40.903273" lon="-3.944826">
        <ele>2045</ele>
        <time>2018-06-30T11:22:57.008Z</time>
      </trkpt>
      <trkpt lat="40.903237" lon="-3.944868">
        <ele>2045</ele>
        <time>2018-06-30T11:23:01.008Z</time>
      </trkpt>
      <trkpt lat="40.903178" lon="-3.944895">
        <ele>2045</ele>
        <time>2018-06-30T11:23:06.008Z</time>
      </trkpt>
      <trkpt lat="40.903139" lon="-3.944924">
        <ele>2045</ele>
        <time>2018-06-30T11:23:10.008Z</time>
      </trkpt>
      <trkpt lat="40.903105" lon="-3.94496">
        <ele>2046</ele>
        <time>2018-06-30T11:23:14.008Z</time>
      </trkpt>
      <trkpt lat="40.903052" lon="-3.94498">
        <ele>2046</ele>
        <time>2018-06-30T11:23:19.008Z</time>
      </trkpt>
      <trkpt lat="40.903017" lon="-3.944988">
        <ele>2047</ele>
        <time>2018-06-30T11:23:22.008Z</time>
      </trkpt>
      <trkpt lat="40.902983" lon="-3.944999">
        <ele>2047</ele>
        <time>2018-06-30T11:23:25.008Z</time>
      </trkpt>
      <trkpt lat="40.902953" lon="-3.945019">
        <ele>2047</ele>
        <time>2018-06-30T11:23:28.008Z</time>
      </trkpt>
      <trkpt lat="40.902922" lon="-3.945041">
        <ele>2047.57958805167</ele>
        <time>2018-06-30T11:23:31.008Z</time>
      </trkpt>
      <trkpt lat="40.902894" lon="-3.945066">
        <ele>2048</ele>
        <time>2018-06-30T11:23:34.008Z</time>
      </trkpt>
      <trkpt lat="40.902862" lon="-3.945075">
        <ele>2048</ele>
        <time>2018-06-30T11:23:37.008Z</time>
      </trkpt>
      <trkpt lat="40.902821" lon="-3.945085">
        <ele>2048.58383326438</ele>
        <time>2018-06-30T11:23:41.008Z</time>
      </trkpt>
      <trkpt lat="40.902784" lon="-3.945109">
        <ele>2049</ele>
        <time>2018-06-30T11:23:45.008Z</time>
      </trkpt>
      <trkpt lat="40.902742" lon="-3.945127">
        <ele>2049</ele>
        <time>2018-06-30T11:23:49.008Z</time>
      </trkpt>
      <trkpt lat="40.902713" lon="-3.945151">
        <ele>2050</ele>
        <time>2018-06-30T11:23:52.008Z</time>
      </trkpt>
      <trkpt lat="40.902682" lon="-3.945187">
        <ele>2050</ele>
        <time>2018-06-30T11:23:56.008Z</time>
      </trkpt>
      <trkpt lat="40.902645" lon="-3.945211">
        <ele>2050</ele>
        <time>2018-06-30T11:24:00.008Z</time>
      </trkpt>
      <trkpt lat="40.902598" lon="-3.945242">
        <ele>2053</ele>
        <time>2018-06-30T11:24:05.008Z</time>
      </trkpt>
      <trkpt lat="40.902568" lon="-3.945276">
        <ele>2053</ele>
        <time>2018-06-30T11:24:09.008Z</time>
      </trkpt>
      <trkpt lat="40.902542" lon="-3.945296">
        <ele>2053</ele>
        <time>2018-06-30T11:24:12.008Z</time>
      </trkpt>
      <trkpt lat="40.902513" lon="-3.945315">
        <ele>2053</ele>
        <time>2018-06-30T11:24:15.008Z</time>
      </trkpt>
      <trkpt lat="40.902479" lon="-3.94533">
        <ele>2053</ele>
        <time>2018-06-30T11:24:18.008Z</time>
      </trkpt>
      <trkpt lat="40.902443" lon="-3.945362">
        <ele>2055</ele>
        <time>2018-06-30T11:24:22.008Z</time>
      </trkpt>
      <trkpt lat="40.902412" lon="-3.9454">
        <ele>2055.53454274643</ele>
        <time>2018-06-30T11:24:26.008Z</time>
      </trkpt>
      <trkpt lat="40.90239" lon="-3.945441">
        <ele>2056</ele>
        <time>2018-06-30T11:24:30.008Z</time>
      </trkpt>
      <trkpt lat="40.902353" lon="-3.945467">
        <ele>2056</ele>
        <time>2018-06-30T11:24:34.008Z</time>
      </trkpt>
      <trkpt lat="40.902325" lon="-3.945481">
        <ele>2056</ele>
        <time>2018-06-30T11:24:37.008Z</time>
      </trkpt>
      <trkpt lat="40.902295" lon="-3.945496">
        <ele>2056</ele>
        <time>2018-06-30T11:24:40.008Z</time>
      </trkpt>
      <trkpt lat="40.902268" lon="-3.945515">
        <ele>2058</ele>
        <time>2018-06-30T11:24:43.008Z</time>
      </trkpt>
      <trkpt lat="40.902233" lon="-3.945541">
        <ele>2059</ele>
        <time>2018-06-30T11:24:47.008Z</time>
      </trkpt>
      <trkpt lat="40.902173" lon="-3.945587">
        <ele>2059</ele>
        <time>2018-06-30T11:24:54.008Z</time>
      </trkpt>
      <trkpt lat="40.902145" lon="-3.945605">
        <ele>2059</ele>
        <time>2018-06-30T11:24:57.008Z</time>
      </trkpt>
      <trkpt lat="40.902112" lon="-3.945632">
        <ele>2059.57958805167</ele>
        <time>2018-06-30T11:25:01.008Z</time>
      </trkpt>
      <trkpt lat="40.902077" lon="-3.945655">
        <ele>2060</ele>
        <time>2018-06-30T11:25:05.008Z</time>
      </trkpt>
      <trkpt lat="40.90206" lon="-3.945682">
        <ele>2060</ele>
        <time>2018-06-30T11:25:08.008Z</time>
      </trkpt>
      <trkpt lat="40.90204" lon="-3.945721">
        <ele>2062</ele>
        <time>2018-06-30T11:25:12.008Z</time>
      </trkpt>
      <trkpt lat="40.901983" lon="-3.945766">
        <ele>2062</ele>
        <time>2018-06-30T11:25:19.008Z</time>
      </trkpt>
      <trkpt lat="40.901917" lon="-3.945788">
        <ele>2064</ele>
        <time>2018-06-30T11:25:26.008Z</time>
      </trkpt>
      <trkpt lat="40.90189" lon="-3.945801">
        <ele>2064</ele>
        <time>2018-06-30T11:25:29.008Z</time>
      </trkpt>
      <trkpt lat="40.90184" lon="-3.945845">
        <ele>2066.57646793078</ele>
        <time>2018-06-30T11:25:36.008Z</time>
      </trkpt>
      <trkpt lat="40.90179" lon="-3.945883">
        <ele>2067</ele>
        <time>2018-06-30T11:25:42.008Z</time>
      </trkpt>
      <trkpt lat="40.901729" lon="-3.945921">
        <ele>2067</ele>
        <time>2018-06-30T11:25:49.008Z</time>
      </trkpt>
      <trkpt lat="40.901679" lon="-3.945954">
        <ele>2069</ele>
        <time>2018-06-30T11:25:55.008Z</time>
      </trkpt>
      <trkpt lat="40.901617" lon="-3.945985">
        <ele>2071</ele>
        <time>2018-06-30T11:26:02.008Z</time>
      </trkpt>
      <trkpt lat="40.90158" lon="-3.94599">
        <ele>2071</ele>
        <time>2018-06-30T11:26:06.008Z</time>
      </trkpt>
      <trkpt lat="40.901556" lon="-3.946024">
        <ele>2071</ele>
        <time>2018-06-30T11:26:10.008Z</time>
      </trkpt>
      <trkpt lat="40.901538" lon="-3.946064">
        <ele>2071</ele>
        <time>2018-06-30T11:26:14.008Z</time>
      </trkpt>
      <trkpt lat="40.901524" lon="-3.946096">
        <ele>2071</ele>
        <time>2018-06-30T11:26:17.008Z</time>
      </trkpt>
      <trkpt lat="40.901486" lon="-3.946153">
        <ele>2073</ele>
        <time>2018-06-30T11:26:24.008Z</time>
      </trkpt>
      <trkpt lat="40.901419" lon="-3.946201">
        <ele>2076</ele>
        <time>2018-06-30T11:26:32.008Z</time>
      </trkpt>
      <trkpt lat="40.901378" lon="-3.946232">
        <ele>2076</ele>
        <time>2018-06-30T11:26:37.008Z</time>
      </trkpt>
      <trkpt lat="40.90133" lon="-3.946283">
        <ele>2079</ele>
        <time>2018-06-30T11:26:43.008Z</time>
      </trkpt>
      <trkpt lat="40.90127" lon="-3.946327">
        <ele>2079</ele>
        <time>2018-06-30T11:26:50.008Z</time>
      </trkpt>
      <trkpt lat="40.901248" lon="-3.946346">
        <ele>2080</ele>
        <time>2018-06-30T11:26:53.008Z</time>
      </trkpt>
      <trkpt lat="40.901216" lon="-3.946379">
        <ele>2080</ele>
        <time>2018-06-30T11:26:57.008Z</time>
      </trkpt>
      <trkpt lat="40.901179" lon="-3.94644">
        <ele>2081</ele>
        <time>2018-06-30T11:27:03.008Z</time>
      </trkpt>
      <trkpt lat="40.901147" lon="-3.946502">
        <ele>2081</ele>
        <time>2018-06-30T11:27:09.008Z</time>
      </trkpt>
      <trkpt lat="40.90111" lon="-3.946555">
        <ele>2083</ele>
        <time>2018-06-30T11:27:15.008Z</time>
      </trkpt>
      <trkpt lat="40.901071" lon="-3.946613">
        <ele>2085</ele>
        <time>2018-06-30T11:27:22.008Z</time>
      </trkpt>
      <trkpt lat="40.901057" lon="-3.946658">
        <ele>2085</ele>
        <time>2018-06-30T11:27:26.008Z</time>
      </trkpt>
      <trkpt lat="40.901035" lon="-3.946712">
        <ele>2087</ele>
        <time>2018-06-30T11:27:32.008Z</time>
      </trkpt>
      <trkpt lat="40.901006" lon="-3.946753">
        <ele>2088</ele>
        <time>2018-06-30T11:27:38.008Z</time>
      </trkpt>
      <trkpt lat="40.900994" lon="-3.946796">
        <ele>2089</ele>
        <time>2018-06-30T11:27:43.008Z</time>
      </trkpt>
      <trkpt lat="40.900994" lon="-3.946862">
        <ele>2090</ele>
        <time>2018-06-30T11:27:49.008Z</time>
      </trkpt>
      <trkpt lat="40.900992" lon="-3.946902">
        <ele>2090</ele>
        <time>2018-06-30T11:27:53.008Z</time>
      </trkpt>
      <trkpt lat="40.900998" lon="-3.946952">
        <ele>2090</ele>
        <time>2018-06-30T11:27:57.008Z</time>
      </trkpt>
      <trkpt lat="40.900999" lon="-3.947008">
        <ele>2091.15917610334</ele>
        <time>2018-06-30T11:28:01.008Z</time>
      </trkpt>
      <trkpt lat="40.900977" lon="-3.947068">
        <ele>2092</ele>
        <time>2018-06-30T11:28:06.008Z</time>
      </trkpt>
      <trkpt lat="40.900919" lon="-3.947108">
        <ele>2093</ele>
        <time>2018-06-30T11:28:12.008Z</time>
      </trkpt>
      <trkpt lat="40.90089" lon="-3.947128">
        <ele>2093</ele>
        <time>2018-06-30T11:28:15.008Z</time>
      </trkpt>
      <trkpt lat="40.900868" lon="-3.947168">
        <ele>2093</ele>
        <time>2018-06-30T11:28:18.008Z</time>
      </trkpt>
      <trkpt lat="40.900844" lon="-3.9472">
        <ele>2093.54221836645</ele>
        <time>2018-06-30T11:28:21.008Z</time>
      </trkpt>
      <trkpt lat="40.900822" lon="-3.94723">
        <ele>2094</ele>
        <time>2018-06-30T11:28:24.008Z</time>
      </trkpt>
      <trkpt lat="40.900806" lon="-3.947266">
        <ele>2094</ele>
        <time>2018-06-30T11:28:27.008Z</time>
      </trkpt>
      <trkpt lat="40.900778" lon="-3.947304">
        <ele>2094</ele>
        <time>2018-06-30T11:28:31.008Z</time>
      </trkpt>
      <trkpt lat="40.900732" lon="-3.94733">
        <ele>2094</ele>
        <time>2018-06-30T11:28:36.008Z</time>
      </trkpt>
      <trkpt lat="40.900715" lon="-3.947362">
        <ele>2094</ele>
        <time>2018-06-30T11:28:39.008Z</time>
      </trkpt>
      <trkpt lat="40.900688" lon="-3.947386">
        <ele>2095</ele>
        <time>2018-06-30T11:28:42.008Z</time>
      </trkpt>
      <trkpt lat="40.900654" lon="-3.947416">
        <ele>2095</ele>
        <time>2018-06-30T11:28:46.008Z</time>
      </trkpt>
      <trkpt lat="40.900617" lon="-3.947438">
        <ele>2095</ele>
        <time>2018-06-30T11:28:50.008Z</time>
      </trkpt>
      <trkpt lat="40.900562" lon="-3.947446">
        <ele>2097</ele>
        <time>2018-06-30T11:28:55.008Z</time>
      </trkpt>
      <trkpt lat="40.900497" lon="-3.947436">
        <ele>2099</ele>
        <time>2018-06-30T11:29:02.008Z</time>
      </trkpt>
      <trkpt lat="40.900475" lon="-3.947466">
        <ele>2099</ele>
        <time>2018-06-30T11:29:05.008Z</time>
      </trkpt>
      <trkpt lat="40.900456" lon="-3.947502">
        <ele>2099</ele>
        <time>2018-06-30T11:29:08.008Z</time>
      </trkpt>
      <trkpt lat="40.900424" lon="-3.947542">
        <ele>2100</ele>
        <time>2018-06-30T11:29:12.008Z</time>
      </trkpt>
      <trkpt lat="40.900396" lon="-3.94757">
        <ele>2100</ele>
        <time>2018-06-30T11:29:15.008Z</time>
      </trkpt>
      <trkpt lat="40.900366" lon="-3.947595">
        <ele>2100</ele>
        <time>2018-06-30T11:29:18.008Z</time>
      </trkpt>
      <trkpt lat="40.900333" lon="-3.947609">
        <ele>2100</ele>
        <time>2018-06-30T11:29:21.008Z</time>
      </trkpt>
      <trkpt lat="40.900299" lon="-3.94762">
        <ele>2100</ele>
        <time>2018-06-30T11:29:24.008Z</time>
      </trkpt>
      <trkpt lat="40.900269" lon="-3.947643">
        <ele>2100</ele>
        <time>2018-06-30T11:29:27.008Z</time>
      </trkpt>
      <trkpt lat="40.900239" lon="-3.947677">
        <ele>2100</ele>
        <time>2018-06-30T11:29:30.008Z</time>
      </trkpt>
      <trkpt lat="40.900216" lon="-3.947722">
        <ele>2100</ele>
        <time>2018-06-30T11:29:33.008Z</time>
      </trkpt>
      <trkpt lat="40.900183" lon="-3.947742">
        <ele>2100</ele>
        <time>2018-06-30T11:29:36.008Z</time>
      </trkpt>
      <trkpt lat="40.900155" lon="-3.947772">
        <ele>2100</ele>
        <time>2018-06-30T11:29:39.008Z</time>
      </trkpt>
      <trkpt lat="40.900132" lon="-3.947815">
        <ele>2099</ele>
        <time>2018-06-30T11:29:42.008Z</time>
      </trkpt>
      <trkpt lat="40.90011" lon="-3.947863">
        <ele>2099</ele>
        <time>2018-06-30T11:29:45.008Z</time>
      </trkpt>
      <trkpt lat="40.900085" lon="-3.947909">
        <ele>2099</ele>
        <time>2018-06-30T11:29:48.008Z</time>
      </trkpt>
      <trkpt lat="40.900055" lon="-3.947947">
        <ele>2099</ele>
        <time>2018-06-30T11:29:51.008Z</time>
      </trkpt>
      <trkpt lat="40.900025" lon="-3.947984">
        <ele>2099</ele>
        <time>2018-06-30T11:29:54.008Z</time>
      </trkpt>
      <trkpt lat="40.900004" lon="-3.948029">
        <ele>2099</ele>
        <time>2018-06-30T11:29:57.008Z</time>
      </trkpt>
      <trkpt lat="40.899978" lon="-3.948066">
        <ele>2099</ele>
        <time>2018-06-30T11:30:00.008Z</time>
      </trkpt>
      <trkpt lat="40.899955" lon="-3.948104">
        <ele>2099</ele>
        <time>2018-06-30T11:30:03.008Z</time>
      </trkpt>
      <trkpt lat="40.899948" lon="-3.948168">
        <ele>2099</ele>
        <time>2018-06-30T11:30:07.008Z</time>
      </trkpt>
      <trkpt lat="40.899936" lon="-3.948217">
        <ele>2099</ele>
        <time>2018-06-30T11:30:10.008Z</time>
      </trkpt>
      <trkpt lat="40.899906" lon="-3.948249">
        <ele>2099</ele>
        <time>2018-06-30T11:30:13.008Z</time>
      </trkpt>
      <trkpt lat="40.899871" lon="-3.94828">
        <ele>2099</ele>
        <time>2018-06-30T11:30:16.008Z</time>
      </trkpt>
      <trkpt lat="40.899839" lon="-3.948312">
        <ele>2099</ele>
        <time>2018-06-30T11:30:19.008Z</time>
      </trkpt>
      <trkpt lat="40.899806" lon="-3.948346">
        <ele>2099</ele>
        <time>2018-06-30T11:30:22.008Z</time>
      </trkpt>
      <trkpt lat="40.899783" lon="-3.948386">
        <ele>2099</ele>
        <time>2018-06-30T11:30:25.008Z</time>
      </trkpt>
      <trkpt lat="40.899746" lon="-3.948422">
        <ele>2099</ele>
        <time>2018-06-30T11:30:28.008Z</time>
      </trkpt>
      <trkpt lat="40.899707" lon="-3.948456">
        <ele>2099</ele>
        <time>2018-06-30T11:30:31.008Z</time>
      </trkpt>
      <trkpt lat="40.899671" lon="-3.948484">
        <ele>2099</ele>
        <time>2018-06-30T11:30:34.008Z</time>
      </trkpt>
      <trkpt lat="40.899639" lon="-3.948516">
        <ele>2099</ele>
        <time>2018-06-30T11:30:37.008Z</time>
      </trkpt>
      <trkpt lat="40.899616" lon="-3.948562">
        <ele>2099</ele>
        <time>2018-06-30T11:30:40.008Z</time>
      </trkpt>
      <trkpt lat="40.899594" lon="-3.948604">
        <ele>2098</ele>
        <time>2018-06-30T11:30:43.008Z</time>
      </trkpt>
      <trkpt lat="40.899565" lon="-3.948634">
        <ele>2098</ele>
        <time>2018-06-30T11:30:46.008Z</time>
      </trkpt>
      <trkpt lat="40.899545" lon="-3.948678">
        <ele>2098</ele>
        <time>2018-06-30T11:30:49.008Z</time>
      </trkpt>
      <trkpt lat="40.899517" lon="-3.948712">
        <ele>2099</ele>
        <time>2018-06-30T11:30:52.008Z</time>
      </trkpt>
      <trkpt lat="40.899492" lon="-3.948748">
        <ele>2099</ele>
        <time>2018-06-30T11:30:55.008Z</time>
      </trkpt>
      <trkpt lat="40.899465" lon="-3.948779">
        <ele>2099</ele>
        <time>2018-06-30T11:30:58.008Z</time>
      </trkpt>
      <trkpt lat="40.899419" lon="-3.948804">
        <ele>2100</ele>
        <time>2018-06-30T11:31:02.008Z</time>
      </trkpt>
      <trkpt lat="40.899385" lon="-3.948828">
        <ele>2100</ele>
        <time>2018-06-30T11:31:05.008Z</time>
      </trkpt>
      <trkpt lat="40.899347" lon="-3.948841">
        <ele>2100</ele>
        <time>2018-06-30T11:31:08.008Z</time>
      </trkpt>
      <trkpt lat="40.899311" lon="-3.948875">
        <ele>2100</ele>
        <time>2018-06-30T11:31:12.008Z</time>
      </trkpt>
      <trkpt lat="40.899304" lon="-3.948928">
        <ele>2100</ele>
        <time>2018-06-30T11:31:16.008Z</time>
      </trkpt>
      <trkpt lat="40.899271" lon="-3.948974">
        <ele>2100</ele>
        <time>2018-06-30T11:31:20.008Z</time>
      </trkpt>
      <trkpt lat="40.899227" lon="-3.94902">
        <ele>2099</ele>
        <time>2018-06-30T11:31:23.008Z</time>
      </trkpt>
      <trkpt lat="40.899183" lon="-3.949074">
        <ele>2099</ele>
        <time>2018-06-30T11:31:26.008Z</time>
      </trkpt>
      <trkpt lat="40.899135" lon="-3.949126">
        <ele>2099</ele>
        <time>2018-06-30T11:31:29.008Z</time>
      </trkpt>
      <trkpt lat="40.899084" lon="-3.949194">
        <ele>2096</ele>
        <time>2018-06-30T11:31:33.008Z</time>
      </trkpt>
      <trkpt lat="40.89904" lon="-3.949244">
        <ele>2095.42353206922</ele>
        <time>2018-06-30T11:31:36.008Z</time>
      </trkpt>
      <trkpt lat="40.898988" lon="-3.949284">
        <ele>2095</ele>
        <time>2018-06-30T11:31:39.008Z</time>
      </trkpt>
      <trkpt lat="40.898945" lon="-3.94934">
        <ele>2093</ele>
        <time>2018-06-30T11:31:42.008Z</time>
      </trkpt>
      <trkpt lat="40.898883" lon="-3.949368">
        <ele>2093</ele>
        <time>2018-06-30T11:31:45.008Z</time>
      </trkpt>
      <trkpt lat="40.898838" lon="-3.949393">
        <ele>2091</ele>
        <time>2018-06-30T11:31:48.008Z</time>
      </trkpt>
      <trkpt lat="40.898749" lon="-3.949412">
        <ele>2088.93091450714</ele>
        <time>2018-06-30T11:31:56.008Z</time>
      </trkpt>
      <trkpt lat="40.898667" lon="-3.949396">
        <ele>2088</ele>
        <time>2018-06-30T11:32:00.008Z</time>
      </trkpt>
      <trkpt lat="40.898623" lon="-3.949427">
        <ele>2087</ele>
        <time>2018-06-30T11:32:03.008Z</time>
      </trkpt>
      <trkpt lat="40.898572" lon="-3.949489">
        <ele>2086</ele>
        <time>2018-06-30T11:32:07.008Z</time>
      </trkpt>
      <trkpt lat="40.898536" lon="-3.949506">
        <ele>2086</ele>
        <time>2018-06-30T11:32:09.008Z</time>
      </trkpt>
      <trkpt lat="40.89848" lon="-3.949535">
        <ele>2085</ele>
        <time>2018-06-30T11:32:12.008Z</time>
      </trkpt>
      <trkpt lat="40.898438" lon="-3.949548">
        <ele>2085</ele>
        <time>2018-06-30T11:32:14.008Z</time>
      </trkpt>
      <trkpt lat="40.898394" lon="-3.94955">
        <ele>2085</ele>
        <time>2018-06-30T11:32:16.008Z</time>
      </trkpt>
      <trkpt lat="40.898352" lon="-3.949552">
        <ele>2085</ele>
        <time>2018-06-30T11:32:18.008Z</time>
      </trkpt>
      <trkpt lat="40.898304" lon="-3.949582">
        <ele>2085</ele>
        <time>2018-06-30T11:32:21.008Z</time>
      </trkpt>
      <trkpt lat="40.898254" lon="-3.949618">
        <ele>2085</ele>
        <time>2018-06-30T11:32:24.008Z</time>
      </trkpt>
      <trkpt lat="40.898213" lon="-3.949646">
        <ele>2085</ele>
        <time>2018-06-30T11:32:26.008Z</time>
      </trkpt>
      <trkpt lat="40.898172" lon="-3.949675">
        <ele>2085</ele>
        <time>2018-06-30T11:32:28.008Z</time>
      </trkpt>
      <trkpt lat="40.89811" lon="-3.94972">
        <ele>2083.84082389666</ele>
        <time>2018-06-30T11:32:31.008Z</time>
      </trkpt>
      <trkpt lat="40.898045" lon="-3.949761">
        <ele>2083</ele>
        <time>2018-06-30T11:32:34.008Z</time>
      </trkpt>
      <trkpt lat="40.898004" lon="-3.949791">
        <ele>2082.42353206922</ele>
        <time>2018-06-30T11:32:36.008Z</time>
      </trkpt>
      <trkpt lat="40.897966" lon="-3.949825">
        <ele>2082</ele>
        <time>2018-06-30T11:32:38.008Z</time>
      </trkpt>
      <trkpt lat="40.897929" lon="-3.949863">
        <ele>2082</ele>
        <time>2018-06-30T11:32:40.008Z</time>
      </trkpt>
      <trkpt lat="40.897894" lon="-3.949903">
        <ele>2082</ele>
        <time>2018-06-30T11:32:42.008Z</time>
      </trkpt>
      <trkpt lat="40.89786" lon="-3.949942">
        <ele>2082</ele>
        <time>2018-06-30T11:32:44.008Z</time>
      </trkpt>
      <trkpt lat="40.89783" lon="-3.949983">
        <ele>2082</ele>
        <time>2018-06-30T11:32:46.008Z</time>
      </trkpt>
      <trkpt lat="40.897802" lon="-3.950028">
        <ele>2082</ele>
        <time>2018-06-30T11:32:48.008Z</time>
      </trkpt>
      <trkpt lat="40.897773" lon="-3.950094">
        <ele>2082</ele>
        <time>2018-06-30T11:32:51.008Z</time>
      </trkpt>
      <trkpt lat="40.897762" lon="-3.950165">
        <ele>2082</ele>
        <time>2018-06-30T11:32:54.008Z</time>
      </trkpt>
      <trkpt lat="40.897725" lon="-3.950222">
        <ele>2082</ele>
        <time>2018-06-30T11:32:57.008Z</time>
      </trkpt>
      <trkpt lat="40.897679" lon="-3.950247">
        <ele>2082</ele>
        <time>2018-06-30T11:33:00.008Z</time>
      </trkpt>
      <trkpt lat="40.897606" lon="-3.950248">
        <ele>2085</ele>
        <time>2018-06-30T11:33:07.008Z</time>
      </trkpt>
      <trkpt lat="40.897567" lon="-3.950255">
        <ele>2085.58383326438</ele>
        <time>2018-06-30T11:33:11.008Z</time>
      </trkpt>
      <trkpt lat="40.897524" lon="-3.95025">
        <ele>2086</ele>
        <time>2018-06-30T11:33:15.008Z</time>
      </trkpt>
      <trkpt lat="40.89749" lon="-3.950272">
        <ele>2086</ele>
        <time>2018-06-30T11:33:19.008Z</time>
      </trkpt>
      <trkpt lat="40.897461" lon="-3.950293">
        <ele>2086</ele>
        <time>2018-06-30T11:33:22.008Z</time>
      </trkpt>
      <trkpt lat="40.897431" lon="-3.950296">
        <ele>2086</ele>
        <time>2018-06-30T11:33:25.008Z</time>
      </trkpt>
      <trkpt lat="40.897404" lon="-3.950317">
        <ele>2086</ele>
        <time>2018-06-30T11:33:28.008Z</time>
      </trkpt>
      <trkpt lat="40.897377" lon="-3.950334">
        <ele>2086.57958805167</ele>
        <time>2018-06-30T11:33:31.008Z</time>
      </trkpt>
      <trkpt lat="40.897362" lon="-3.950369">
        <ele>2087</ele>
        <time>2018-06-30T11:33:34.008Z</time>
      </trkpt>
      <trkpt lat="40.897339" lon="-3.950402">
        <ele>2087</ele>
        <time>2018-06-30T11:33:37.008Z</time>
      </trkpt>
      <trkpt lat="40.897317" lon="-3.950439">
        <ele>2087</ele>
        <time>2018-06-30T11:33:40.008Z</time>
      </trkpt>
      <trkpt lat="40.897303" lon="-3.950465">
        <ele>2088</ele>
        <time>2018-06-30T11:33:42.008Z</time>
      </trkpt>
      <trkpt lat="40.897277" lon="-3.950499">
        <ele>2088</ele>
        <time>2018-06-30T11:33:45.008Z</time>
      </trkpt>
      <trkpt lat="40.897265" lon="-3.950524">
        <ele>2088</ele>
        <time>2018-06-30T11:33:47.008Z</time>
      </trkpt>
      <trkpt lat="40.897241" lon="-3.950551">
        <ele>2088</ele>
        <time>2018-06-30T11:33:50.008Z</time>
      </trkpt>
      <trkpt lat="40.897207" lon="-3.950557">
        <ele>2090</ele>
        <time>2018-06-30T11:33:53.008Z</time>
      </trkpt>
      <trkpt lat="40.89718" lon="-3.950582">
        <ele>2090.53454274643</ele>
        <time>2018-06-30T11:33:56.008Z</time>
      </trkpt>
      <trkpt lat="40.897131" lon="-3.950616">
        <ele>2091</ele>
        <time>2018-06-30T11:34:01.008Z</time>
      </trkpt>
      <trkpt lat="40.897087" lon="-3.950656">
        <ele>2091</ele>
        <time>2018-06-30T11:34:06.008Z</time>
      </trkpt>
      <trkpt lat="40.897062" lon="-3.950685">
        <ele>2091</ele>
        <time>2018-06-30T11:34:09.008Z</time>
      </trkpt>
      <trkpt lat="40.897033" lon="-3.950708">
        <ele>2093</ele>
        <time>2018-06-30T11:34:12.008Z</time>
      </trkpt>
      <trkpt lat="40.897012" lon="-3.950718">
        <ele>2093</ele>
        <time>2018-06-30T11:34:14.008Z</time>
      </trkpt>
      <trkpt lat="40.896982" lon="-3.950739">
        <ele>2093</ele>
        <time>2018-06-30T11:34:17.008Z</time>
      </trkpt>
      <trkpt lat="40.896963" lon="-3.950752">
        <ele>2093</ele>
        <time>2018-06-30T11:34:19.008Z</time>
      </trkpt>
      <trkpt lat="40.896921" lon="-3.950772">
        <ele>2094</ele>
        <time>2018-06-30T11:34:23.008Z</time>
      </trkpt>
      <trkpt lat="40.896893" lon="-3.950796">
        <ele>2094</ele>
        <time>2018-06-30T11:34:26.008Z</time>
      </trkpt>
      <trkpt lat="40.896868" lon="-3.950822">
        <ele>2094</ele>
        <time>2018-06-30T11:34:29.008Z</time>
      </trkpt>
      <trkpt lat="40.896846" lon="-3.950854">
        <ele>2096</ele>
        <time>2018-06-30T11:34:32.008Z</time>
      </trkpt>
      <trkpt lat="40.896817" lon="-3.950868">
        <ele>2096</ele>
        <time>2018-06-30T11:34:35.008Z</time>
      </trkpt>
      <trkpt lat="40.896787" lon="-3.950884">
        <ele>2097</ele>
        <time>2018-06-30T11:34:38.008Z</time>
      </trkpt>
      <trkpt lat="40.896762" lon="-3.950914">
        <ele>2097.58383326438</ele>
        <time>2018-06-30T11:34:41.008Z</time>
      </trkpt>
      <trkpt lat="40.896733" lon="-3.950936">
        <ele>2098</ele>
        <time>2018-06-30T11:34:44.008Z</time>
      </trkpt>
      <trkpt lat="40.896706" lon="-3.950963">
        <ele>2098</ele>
        <time>2018-06-30T11:34:47.008Z</time>
      </trkpt>
      <trkpt lat="40.896681" lon="-3.950996">
        <ele>2098</ele>
        <time>2018-06-30T11:34:50.008Z</time>
      </trkpt>
      <trkpt lat="40.89666" lon="-3.95103">
        <ele>2099</ele>
        <time>2018-06-30T11:34:53.008Z</time>
      </trkpt>
      <trkpt lat="40.896635" lon="-3.951058">
        <ele>2099</ele>
        <time>2018-06-30T11:34:56.008Z</time>
      </trkpt>
      <trkpt lat="40.896608" lon="-3.95109">
        <ele>2099</ele>
        <time>2018-06-30T11:34:59.008Z</time>
      </trkpt>
      <trkpt lat="40.896581" lon="-3.951116">
        <ele>2099</ele>
        <time>2018-06-30T11:35:02.008Z</time>
      </trkpt>
      <trkpt lat="40.896551" lon="-3.951135">
        <ele>2099</ele>
        <time>2018-06-30T11:35:05.008Z</time>
      </trkpt>
      <trkpt lat="40.896524" lon="-3.951158">
        <ele>2099</ele>
        <time>2018-06-30T11:35:08.008Z</time>
      </trkpt>
      <trkpt lat="40.896496" lon="-3.951189">
        <ele>2100.16766652875</ele>
        <time>2018-06-30T11:35:11.008Z</time>
      </trkpt>
      <trkpt lat="40.896469" lon="-3.951215">
        <ele>2101</ele>
        <time>2018-06-30T11:35:14.008Z</time>
      </trkpt>
      <trkpt lat="40.896449" lon="-3.951252">
        <ele>2103</ele>
        <time>2018-06-30T11:35:17.008Z</time>
      </trkpt>
      <trkpt lat="40.896424" lon="-3.951285">
        <ele>2103</ele>
        <time>2018-06-30T11:35:20.008Z</time>
      </trkpt>
      <trkpt lat="40.896398" lon="-3.951311">
        <ele>2103</ele>
        <time>2018-06-30T11:35:23.008Z</time>
      </trkpt>
      <trkpt lat="40.896371" lon="-3.951336">
        <ele>2103</ele>
        <time>2018-06-30T11:35:26.008Z</time>
      </trkpt>
      <trkpt lat="40.896345" lon="-3.951364">
        <ele>2103</ele>
        <time>2018-06-30T11:35:29.008Z</time>
      </trkpt>
      <trkpt lat="40.896318" lon="-3.95139">
        <ele>2103</ele>
        <time>2018-06-30T11:35:32.008Z</time>
      </trkpt>
      <trkpt lat="40.8963" lon="-3.951428">
        <ele>2103</ele>
        <time>2018-06-30T11:35:35.008Z</time>
      </trkpt>
      <trkpt lat="40.896278" lon="-3.951461">
        <ele>2103</ele>
        <time>2018-06-30T11:35:38.008Z</time>
      </trkpt>
      <trkpt lat="40.896257" lon="-3.951496">
        <ele>2103.58383326438</ele>
        <time>2018-06-30T11:35:41.008Z</time>
      </trkpt>
      <trkpt lat="40.896236" lon="-3.951532">
        <ele>2104</ele>
        <time>2018-06-30T11:35:44.008Z</time>
      </trkpt>
      <trkpt lat="40.896214" lon="-3.951569">
        <ele>2104</ele>
        <time>2018-06-30T11:35:47.008Z</time>
      </trkpt>
      <trkpt lat="40.896186" lon="-3.951592">
        <ele>2104</ele>
        <time>2018-06-30T11:35:50.008Z</time>
      </trkpt>
      <trkpt lat="40.896162" lon="-3.951621">
        <ele>2105</ele>
        <time>2018-06-30T11:35:53.008Z</time>
      </trkpt>
      <trkpt lat="40.896134" lon="-3.951647">
        <ele>2105</ele>
        <time>2018-06-30T11:35:56.008Z</time>
      </trkpt>
      <trkpt lat="40.896112" lon="-3.951684">
        <ele>2105</ele>
        <time>2018-06-30T11:35:59.008Z</time>
      </trkpt>
      <trkpt lat="40.896082" lon="-3.951701">
        <ele>2106</ele>
        <time>2018-06-30T11:36:02.008Z</time>
      </trkpt>
      <trkpt lat="40.896046" lon="-3.951716">
        <ele>2106</ele>
        <time>2018-06-30T11:36:05.008Z</time>
      </trkpt>
      <trkpt lat="40.896017" lon="-3.951741">
        <ele>2106</ele>
        <time>2018-06-30T11:36:08.008Z</time>
      </trkpt>
      <trkpt lat="40.895993" lon="-3.951772">
        <ele>2106.58383326438</ele>
        <time>2018-06-30T11:36:11.008Z</time>
      </trkpt>
      <trkpt lat="40.895967" lon="-3.951803">
        <ele>2107</ele>
        <time>2018-06-30T11:36:14.008Z</time>
      </trkpt>
      <trkpt lat="40.895941" lon="-3.951833">
        <ele>2107</ele>
        <time>2018-06-30T11:36:17.008Z</time>
      </trkpt>
      <trkpt lat="40.895912" lon="-3.951856">
        <ele>2107</ele>
        <time>2018-06-30T11:36:20.008Z</time>
      </trkpt>
      <trkpt lat="40.895881" lon="-3.951878">
        <ele>2107</ele>
        <time>2018-06-30T11:36:23.008Z</time>
      </trkpt>
      <trkpt lat="40.895851" lon="-3.951903">
        <ele>2107</ele>
        <time>2018-06-30T11:36:26.008Z</time>
      </trkpt>
      <trkpt lat="40.895827" lon="-3.95194">
        <ele>2107</ele>
        <time>2018-06-30T11:36:29.008Z</time>
      </trkpt>
      <trkpt lat="40.895803" lon="-3.951972">
        <ele>2107</ele>
        <time>2018-06-30T11:36:32.008Z</time>
      </trkpt>
      <trkpt lat="40.895777" lon="-3.952005">
        <ele>2107</ele>
        <time>2018-06-30T11:36:35.008Z</time>
      </trkpt>
      <trkpt lat="40.895752" lon="-3.952036">
        <ele>2107</ele>
        <time>2018-06-30T11:36:38.008Z</time>
      </trkpt>
      <trkpt lat="40.895729" lon="-3.952068">
        <ele>2108.16766652875</ele>
        <time>2018-06-30T11:36:41.008Z</time>
      </trkpt>
      <trkpt lat="40.895702" lon="-3.952099">
        <ele>2109</ele>
        <time>2018-06-30T11:36:44.008Z</time>
      </trkpt>
      <trkpt lat="40.895666" lon="-3.952115">
        <ele>2109</ele>
        <time>2018-06-30T11:36:47.008Z</time>
      </trkpt>
      <trkpt lat="40.895642" lon="-3.952146">
        <ele>2109</ele>
        <time>2018-06-30T11:36:50.008Z</time>
      </trkpt>
      <trkpt lat="40.895621" lon="-3.95218">
        <ele>2109</ele>
        <time>2018-06-30T11:36:53.008Z</time>
      </trkpt>
      <trkpt lat="40.895602" lon="-3.95222">
        <ele>2109</ele>
        <time>2018-06-30T11:36:56.008Z</time>
      </trkpt>
      <trkpt lat="40.895574" lon="-3.952253">
        <ele>2109</ele>
        <time>2018-06-30T11:36:59.008Z</time>
      </trkpt>
      <trkpt lat="40.895541" lon="-3.952274">
        <ele>2112</ele>
        <time>2018-06-30T11:37:02.008Z</time>
      </trkpt>
      <trkpt lat="40.895508" lon="-3.952287">
        <ele>2112</ele>
        <time>2018-06-30T11:37:05.008Z</time>
      </trkpt>
      <trkpt lat="40.895475" lon="-3.952299">
        <ele>2112</ele>
        <time>2018-06-30T11:37:08.008Z</time>
      </trkpt>
      <trkpt lat="40.895447" lon="-3.952324">
        <ele>2112.58383326438</ele>
        <time>2018-06-30T11:37:11.008Z</time>
      </trkpt>
      <trkpt lat="40.895418" lon="-3.952349">
        <ele>2113</ele>
        <time>2018-06-30T11:37:14.008Z</time>
      </trkpt>
      <trkpt lat="40.895396" lon="-3.952382">
        <ele>2113</ele>
        <time>2018-06-30T11:37:17.008Z</time>
      </trkpt>
      <trkpt lat="40.895372" lon="-3.952417">
        <ele>2113</ele>
        <time>2018-06-30T11:37:20.008Z</time>
      </trkpt>
      <trkpt lat="40.895345" lon="-3.952445">
        <ele>2114</ele>
        <time>2018-06-30T11:37:23.008Z</time>
      </trkpt>
      <trkpt lat="40.895317" lon="-3.952473">
        <ele>2114</ele>
        <time>2018-06-30T11:37:26.008Z</time>
      </trkpt>
      <trkpt lat="40.895279" lon="-3.952509">
        <ele>2114</ele>
        <time>2018-06-30T11:37:30.008Z</time>
      </trkpt>
      <trkpt lat="40.895241" lon="-3.952542">
        <ele>2114</ele>
        <time>2018-06-30T11:37:34.008Z</time>
      </trkpt>
      <trkpt lat="40.895203" lon="-3.952568">
        <ele>2114</ele>
        <time>2018-06-30T11:37:38.008Z</time>
      </trkpt>
      <trkpt lat="40.895173" lon="-3.952599">
        <ele>2115.58383326438</ele>
        <time>2018-06-30T11:37:41.008Z</time>
      </trkpt>
      <trkpt lat="40.895146" lon="-3.952632">
        <ele>2116</ele>
        <time>2018-06-30T11:37:44.008Z</time>
      </trkpt>
      <trkpt lat="40.895116" lon="-3.95266">
        <ele>2116</ele>
        <time>2018-06-30T11:37:47.008Z</time>
      </trkpt>
      <trkpt lat="40.895085" lon="-3.952684">
        <ele>2116</ele>
        <time>2018-06-30T11:37:50.008Z</time>
      </trkpt>
      <trkpt lat="40.895047" lon="-3.952723">
        <ele>2117</ele>
        <time>2018-06-30T11:37:54.008Z</time>
      </trkpt>
      <trkpt lat="40.894991" lon="-3.95275">
        <ele>2117</ele>
        <time>2018-06-30T11:37:59.008Z</time>
      </trkpt>
      <trkpt lat="40.894925" lon="-3.952738">
        <ele>2117</ele>
        <time>2018-06-30T11:38:05.008Z</time>
      </trkpt>
      <trkpt lat="40.894855" lon="-3.952728">
        <ele>2117</ele>
        <time>2018-06-30T11:38:11.008Z</time>
      </trkpt>
      <trkpt lat="40.894803" lon="-3.952712">
        <ele>2117</ele>
        <time>2018-06-30T11:38:16.008Z</time>
      </trkpt>
      <trkpt lat="40.894762" lon="-3.952721">
        <ele>2117</ele>
        <time>2018-06-30T11:38:20.008Z</time>
      </trkpt>
      <trkpt lat="40.894727" lon="-3.952723">
        <ele>2119</ele>
        <time>2018-06-30T11:38:23.008Z</time>
      </trkpt>
      <trkpt lat="40.894688" lon="-3.95273">
        <ele>2119.53454274643</ele>
        <time>2018-06-30T11:38:26.008Z</time>
      </trkpt>
      <trkpt lat="40.894649" lon="-3.952746">
        <ele>2120</ele>
        <time>2018-06-30T11:38:29.008Z</time>
      </trkpt>
      <trkpt lat="40.894613" lon="-3.952772">
        <ele>2120</ele>
        <time>2018-06-30T11:38:32.008Z</time>
      </trkpt>
      <trkpt lat="40.894567" lon="-3.952792">
        <ele>2120</ele>
        <time>2018-06-30T11:38:36.008Z</time>
      </trkpt>
      <trkpt lat="40.894494" lon="-3.952772">
        <ele>2121</ele>
        <time>2018-06-30T11:38:43.008Z</time>
      </trkpt>
      <trkpt lat="40.894419" lon="-3.952772">
        <ele>2121</ele>
        <time>2018-06-30T11:38:50.008Z</time>
      </trkpt>
      <trkpt lat="40.894354" lon="-3.95273">
        <ele>2123</ele>
        <time>2018-06-30T11:38:57.008Z</time>
      </trkpt>
      <trkpt lat="40.894288" lon="-3.952702">
        <ele>2124</ele>
        <time>2018-06-30T11:39:03.008Z</time>
      </trkpt>
      <trkpt lat="40.89423" lon="-3.952644">
        <ele>2124</ele>
        <time>2018-06-30T11:39:11.008Z</time>
      </trkpt>
      <trkpt lat="40.894156" lon="-3.952639">
        <ele>2124</ele>
        <time>2018-06-30T11:39:19.008Z</time>
      </trkpt>
      <trkpt lat="40.894076" lon="-3.952656">
        <ele>2124</ele>
        <time>2018-06-30T11:39:27.008Z</time>
      </trkpt>
      <trkpt lat="40.894048" lon="-3.952581">
        <ele>2126</ele>
        <time>2018-06-30T11:39:34.008Z</time>
      </trkpt>
      <trkpt lat="40.89401" lon="-3.952495">
        <ele>2130</ele>
        <time>2018-06-30T11:39:48.008Z</time>
      </trkpt>
      <trkpt lat="40.89397" lon="-3.952417">
        <ele>2130</ele>
        <time>2018-06-30T11:39:55.008Z</time>
      </trkpt>
      <trkpt lat="40.893925" lon="-3.952337">
        <ele>2131</ele>
        <time>2018-06-30T11:40:02.008Z</time>
      </trkpt>
      <trkpt lat="40.893886" lon="-3.95226">
        <ele>2131</ele>
        <time>2018-06-30T11:40:10.008Z</time>
      </trkpt>
      <trkpt lat="40.893826" lon="-3.952214">
        <ele>2134</ele>
        <time>2018-06-30T11:40:16.008Z</time>
      </trkpt>
      <trkpt lat="40.893753" lon="-3.952218">
        <ele>2135</ele>
        <time>2018-06-30T11:40:22.008Z</time>
      </trkpt>
      <trkpt lat="40.893684" lon="-3.952216">
        <ele>2135.57958805167</ele>
        <time>2018-06-30T11:40:31.008Z</time>
      </trkpt>
      <trkpt lat="40.893622" lon="-3.952172">
        <ele>2136</ele>
        <time>2018-06-30T11:40:37.008Z</time>
      </trkpt>
      <trkpt lat="40.893552" lon="-3.952144">
        <ele>2136</ele>
        <time>2018-06-30T11:40:43.008Z</time>
      </trkpt>
      <trkpt lat="40.893477" lon="-3.952088">
        <ele>2135.45778163355</ele>
        <time>2018-06-30T11:40:51.008Z</time>
      </trkpt>
      <trkpt lat="40.893434" lon="-3.952015">
        <ele>2135</ele>
        <time>2018-06-30T11:40:57.008Z</time>
      </trkpt>
      <trkpt lat="40.893362" lon="-3.951993">
        <ele>2135</ele>
        <time>2018-06-30T11:41:03.008Z</time>
      </trkpt>
      <trkpt lat="40.893284" lon="-3.951963">
        <ele>2135</ele>
        <time>2018-06-30T11:41:10.008Z</time>
      </trkpt>
      <trkpt lat="40.89326" lon="-3.951888">
        <ele>2136</ele>
        <time>2018-06-30T11:41:18.008Z</time>
      </trkpt>
      <trkpt lat="40.893203" lon="-3.951797">
        <ele>2129</ele>
        <time>2018-06-30T11:41:29.008Z</time>
      </trkpt>
      <trkpt lat="40.893176" lon="-3.951677">
        <ele>2126</ele>
        <time>2018-06-30T11:41:38.008Z</time>
      </trkpt>
      <trkpt lat="40.893103" lon="-3.951595">
        <ele>2124</ele>
        <time>2018-06-30T11:41:48.008Z</time>
      </trkpt>
      <trkpt lat="40.893048" lon="-3.951544">
        <ele>2121.46545725357</ele>
        <time>2018-06-30T11:41:56.008Z</time>
      </trkpt>
      <trkpt lat="40.892981" lon="-3.951495">
        <ele>2117</ele>
        <time>2018-06-30T11:42:05.008Z</time>
      </trkpt>
      <trkpt lat="40.89292" lon="-3.951398">
        <ele>2115</ele>
        <time>2018-06-30T11:42:15.008Z</time>
      </trkpt>
      <trkpt lat="40.892887" lon="-3.95126">
        <ele>2114.45778163355</ele>
        <time>2018-06-30T11:42:21.008Z</time>
      </trkpt>
      <trkpt lat="40.892856" lon="-3.951137">
        <ele>2114</ele>
        <time>2018-06-30T11:42:26.008Z</time>
      </trkpt>
      <trkpt lat="40.892809" lon="-3.951019">
        <ele>2111</ele>
        <time>2018-06-30T11:42:32.008Z</time>
      </trkpt>
      <trkpt lat="40.892735" lon="-3.95094">
        <ele>2109</ele>
        <time>2018-06-30T11:42:38.008Z</time>
      </trkpt>
      <trkpt lat="40.89265" lon="-3.950875">
        <ele>2109</ele>
        <time>2018-06-30T11:42:45.008Z</time>
      </trkpt>
      <trkpt lat="40.892555" lon="-3.950852">
        <ele>2105</ele>
        <time>2018-06-30T11:42:52.008Z</time>
      </trkpt>
      <trkpt lat="40.892463" lon="-3.950801">
        <ele>2103</ele>
        <time>2018-06-30T11:42:59.008Z</time>
      </trkpt>
      <trkpt lat="40.892386" lon="-3.950734">
        <ele>2101</ele>
        <time>2018-06-30T11:43:05.008Z</time>
      </trkpt>
      <trkpt lat="40.892289" lon="-3.950689">
        <ele>2099</ele>
        <time>2018-06-30T11:43:12.008Z</time>
      </trkpt>
      <trkpt lat="40.892191" lon="-3.95064">
        <ele>2098</ele>
        <time>2018-06-30T11:43:18.008Z</time>
      </trkpt>
      <trkpt lat="40.892087" lon="-3.950603">
        <ele>2097</ele>
        <time>2018-06-30T11:43:25.008Z</time>
      </trkpt>
      <trkpt lat="40.89198" lon="-3.950583">
        <ele>2095</ele>
        <time>2018-06-30T11:43:32.008Z</time>
      </trkpt>
      <trkpt lat="40.891897" lon="-3.950519">
        <ele>2094</ele>
        <time>2018-06-30T11:43:38.008Z</time>
      </trkpt>
      <trkpt lat="40.891811" lon="-3.950455">
        <ele>2093</ele>
        <time>2018-06-30T11:43:44.008Z</time>
      </trkpt>
      <trkpt lat="40.891718" lon="-3.950418">
        <ele>2091</ele>
        <time>2018-06-30T11:43:50.008Z</time>
      </trkpt>
      <trkpt lat="40.891624" lon="-3.9504">
        <ele>2082.46545725357</ele>
        <time>2018-06-30T11:43:56.008Z</time>
      </trkpt>
      <trkpt lat="40.89155" lon="-3.95032">
        <ele>2080</ele>
        <time>2018-06-30T11:44:02.008Z</time>
      </trkpt>
      <trkpt lat="40.891459" lon="-3.950275">
        <ele>2077.91556326711</ele>
        <time>2018-06-30T11:44:09.008Z</time>
      </trkpt>
      <trkpt lat="40.891414" lon="-3.950194">
        <ele>2078</ele>
        <time>2018-06-30T11:44:14.008Z</time>
      </trkpt>
      <trkpt lat="40.891317" lon="-3.950131">
        <ele>2077</ele>
        <time>2018-06-30T11:44:20.008Z</time>
      </trkpt>
      <trkpt lat="40.891229" lon="-3.950082">
        <ele>2073</ele>
        <time>2018-06-30T11:44:25.008Z</time>
      </trkpt>
      <trkpt lat="40.891151" lon="-3.95002">
        <ele>2072</ele>
        <time>2018-06-30T11:44:30.008Z</time>
      </trkpt>
      <trkpt lat="40.891089" lon="-3.949931">
        <ele>2071</ele>
        <time>2018-06-30T11:44:36.008Z</time>
      </trkpt>
      <trkpt lat="40.891009" lon="-3.949838">
        <ele>2071</ele>
        <time>2018-06-30T11:44:45.008Z</time>
      </trkpt>
      <trkpt lat="40.89093" lon="-3.949774">
        <ele>2071</ele>
        <time>2018-06-30T11:44:50.008Z</time>
      </trkpt>
      <trkpt lat="40.890861" lon="-3.949707">
        <ele>2068</ele>
        <time>2018-06-30T11:44:55.008Z</time>
      </trkpt>
      <trkpt lat="40.890792" lon="-3.949637">
        <ele>2064</ele>
        <time>2018-06-30T11:45:00.008Z</time>
      </trkpt>
      <trkpt lat="40.890741" lon="-3.949542">
        <ele>2061</ele>
        <time>2018-06-30T11:45:05.008Z</time>
      </trkpt>
      <trkpt lat="40.890655" lon="-3.949464">
        <ele>2059</ele>
        <time>2018-06-30T11:45:10.008Z</time>
      </trkpt>
      <trkpt lat="40.890568" lon="-3.94939">
        <ele>2059</ele>
        <time>2018-06-30T11:45:15.008Z</time>
      </trkpt>
      <trkpt lat="40.890514" lon="-3.949301">
        <ele>2058</ele>
        <time>2018-06-30T11:45:19.008Z</time>
      </trkpt>
      <trkpt lat="40.890455" lon="-3.949224">
        <ele>2057</ele>
        <time>2018-06-30T11:45:23.008Z</time>
      </trkpt>
      <trkpt lat="40.890392" lon="-3.949139">
        <ele>2056</ele>
        <time>2018-06-30T11:45:27.008Z</time>
      </trkpt>
      <trkpt lat="40.890331" lon="-3.949043">
        <ele>2055.42041194833</ele>
        <time>2018-06-30T11:45:31.008Z</time>
      </trkpt>
      <trkpt lat="40.89028" lon="-3.94895">
        <ele>2055</ele>
        <time>2018-06-30T11:45:35.008Z</time>
      </trkpt>
      <trkpt lat="40.890238" lon="-3.948823">
        <ele>2056</ele>
        <time>2018-06-30T11:45:40.008Z</time>
      </trkpt>
      <trkpt lat="40.890208" lon="-3.948738">
        <ele>2056</ele>
        <time>2018-06-30T11:45:45.008Z</time>
      </trkpt>
      <trkpt lat="40.890161" lon="-3.948659">
        <ele>2057</ele>
        <time>2018-06-30T11:45:52.008Z</time>
      </trkpt>
      <trkpt lat="40.890105" lon="-3.94861">
        <ele>2057</ele>
        <time>2018-06-30T11:45:58.008Z</time>
      </trkpt>
      <trkpt lat="40.890085" lon="-3.948516">
        <ele>2058</ele>
        <time>2018-06-30T11:46:29.008Z</time>
      </trkpt>
      <trkpt lat="40.890037" lon="-3.948446">
        <ele>2058</ele>
        <time>2018-06-30T11:46:36.008Z</time>
      </trkpt>
      <trkpt lat="40.890004" lon="-3.948356">
        <ele>2056</ele>
        <time>2018-06-30T11:46:42.008Z</time>
      </trkpt>
      <trkpt lat="40.889965" lon="-3.948246">
        <ele>2055.4178262743</ele>
        <time>2018-06-30T11:46:46.008Z</time>
      </trkpt>
      <trkpt lat="40.889932" lon="-3.948169">
        <ele>2055</ele>
        <time>2018-06-30T11:46:49.008Z</time>
      </trkpt>
      <trkpt lat="40.889907" lon="-3.94805">
        <ele>2055</ele>
        <time>2018-06-30T11:46:54.008Z</time>
      </trkpt>
      <trkpt lat="40.889908" lon="-3.947927">
        <ele>2055</ele>
        <time>2018-06-30T11:46:59.008Z</time>
      </trkpt>
      <trkpt lat="40.889882" lon="-3.94781">
        <ele>2057</ele>
        <time>2018-06-30T11:47:04.008Z</time>
      </trkpt>
      <trkpt lat="40.889861" lon="-3.947689">
        <ele>2056</ele>
        <time>2018-06-30T11:47:09.008Z</time>
      </trkpt>
      <trkpt lat="40.88984" lon="-3.947564">
        <ele>2055</ele>
        <time>2018-06-30T11:47:14.008Z</time>
      </trkpt>
      <trkpt lat="40.889823" lon="-3.947466">
        <ele>2055</ele>
        <time>2018-06-30T11:47:20.008Z</time>
      </trkpt>
      <trkpt lat="40.889803" lon="-3.947367">
        <ele>2054</ele>
        <time>2018-06-30T11:47:27.008Z</time>
      </trkpt>
      <trkpt lat="40.889783" lon="-3.947281">
        <ele>2055</ele>
        <time>2018-06-30T11:47:34.008Z</time>
      </trkpt>
      <trkpt lat="40.889771" lon="-3.947182">
        <ele>2055</ele>
        <time>2018-06-30T11:47:41.008Z</time>
      </trkpt>
      <trkpt lat="40.889743" lon="-3.947092">
        <ele>2055</ele>
        <time>2018-06-30T11:47:48.008Z</time>
      </trkpt>
      <trkpt lat="40.889698" lon="-3.94701">
        <ele>2057</ele>
        <time>2018-06-30T11:47:55.008Z</time>
      </trkpt>
      <trkpt lat="40.889667" lon="-3.946936">
        <ele>2057</ele>
        <time>2018-06-30T11:48:00.008Z</time>
      </trkpt>
      <trkpt lat="40.889653" lon="-3.946841">
        <ele>2056</ele>
        <time>2018-06-30T11:48:06.008Z</time>
      </trkpt>
      <trkpt lat="40.88964" lon="-3.946745">
        <ele>2056</ele>
        <time>2018-06-30T11:48:12.008Z</time>
      </trkpt>
      <trkpt lat="40.889637" lon="-3.946644">
        <ele>2056</ele>
        <time>2018-06-30T11:48:18.008Z</time>
      </trkpt>
      <trkpt lat="40.889602" lon="-3.946549">
        <ele>2055</ele>
        <time>2018-06-30T11:48:24.008Z</time>
      </trkpt>
      <trkpt lat="40.889556" lon="-3.946468">
        <ele>2055</ele>
        <time>2018-06-30T11:48:30.008Z</time>
      </trkpt>
      <trkpt lat="40.88951" lon="-3.946394">
        <ele>2056</ele>
        <time>2018-06-30T11:48:36.008Z</time>
      </trkpt>
      <trkpt lat="40.889463" lon="-3.946316">
        <ele>2057</ele>
        <time>2018-06-30T11:48:42.008Z</time>
      </trkpt>
      <trkpt lat="40.889426" lon="-3.946247">
        <ele>2057</ele>
        <time>2018-06-30T11:48:47.008Z</time>
      </trkpt>
      <trkpt lat="40.889392" lon="-3.946153">
        <ele>2057</ele>
        <time>2018-06-30T11:48:53.008Z</time>
      </trkpt>
      <trkpt lat="40.889363" lon="-3.946065">
        <ele>2057</ele>
        <time>2018-06-30T11:48:59.008Z</time>
      </trkpt>
      <trkpt lat="40.88934" lon="-3.945995">
        <ele>2059</ele>
        <time>2018-06-30T11:49:04.008Z</time>
      </trkpt>
      <trkpt lat="40.889305" lon="-3.945913">
        <ele>2059</ele>
        <time>2018-06-30T11:49:10.008Z</time>
      </trkpt>
      <trkpt lat="40.889267" lon="-3.945848">
        <ele>2060</ele>
        <time>2018-06-30T11:49:15.008Z</time>
      </trkpt>
      <trkpt lat="40.889232" lon="-3.945775">
        <ele>2061</ele>
        <time>2018-06-30T11:49:20.008Z</time>
      </trkpt>
      <trkpt lat="40.889184" lon="-3.945716">
        <ele>2062</ele>
        <time>2018-06-30T11:49:25.008Z</time>
      </trkpt>
      <trkpt lat="40.889142" lon="-3.945652">
        <ele>2062</ele>
        <time>2018-06-30T11:49:30.008Z</time>
      </trkpt>
      <trkpt lat="40.889113" lon="-3.945594">
        <ele>2062</ele>
        <time>2018-06-30T11:49:34.008Z</time>
      </trkpt>
      <trkpt lat="40.889075" lon="-3.945511">
        <ele>2062</ele>
        <time>2018-06-30T11:49:40.008Z</time>
      </trkpt>
      <trkpt lat="40.889036" lon="-3.945441">
        <ele>2062</ele>
        <time>2018-06-30T11:49:45.008Z</time>
      </trkpt>
      <trkpt lat="40.888994" lon="-3.94537">
        <ele>2062</ele>
        <time>2018-06-30T11:49:50.008Z</time>
      </trkpt>
      <trkpt lat="40.88895" lon="-3.9453">
        <ele>2062</ele>
        <time>2018-06-30T11:49:55.008Z</time>
      </trkpt>
      <trkpt lat="40.888909" lon="-3.945231">
        <ele>2062</ele>
        <time>2018-06-30T11:50:00.008Z</time>
      </trkpt>
      <trkpt lat="40.888863" lon="-3.945151">
        <ele>2063</ele>
        <time>2018-06-30T11:50:08.008Z</time>
      </trkpt>
      <trkpt lat="40.888844" lon="-3.94508">
        <ele>2063</ele>
        <time>2018-06-30T11:50:13.008Z</time>
      </trkpt>
      <trkpt lat="40.888817" lon="-3.944977">
        <ele>2063</ele>
        <time>2018-06-30T11:50:20.008Z</time>
      </trkpt>
      <trkpt lat="40.888783" lon="-3.944883">
        <ele>2063</ele>
        <time>2018-06-30T11:50:26.008Z</time>
      </trkpt>
      <trkpt lat="40.888753" lon="-3.944791">
        <ele>2063</ele>
        <time>2018-06-30T11:50:32.008Z</time>
      </trkpt>
      <trkpt lat="40.888725" lon="-3.944695">
        <ele>2063</ele>
        <time>2018-06-30T11:50:38.008Z</time>
      </trkpt>
      <trkpt lat="40.88867" lon="-3.944612">
        <ele>2063</ele>
        <time>2018-06-30T11:50:44.008Z</time>
      </trkpt>
      <trkpt lat="40.88862" lon="-3.944541">
        <ele>2063</ele>
        <time>2018-06-30T11:50:50.008Z</time>
      </trkpt>
      <trkpt lat="40.888588" lon="-3.944466">
        <ele>2065</ele>
        <time>2018-06-30T11:50:55.008Z</time>
      </trkpt>
      <trkpt lat="40.888545" lon="-3.944383">
        <ele>2064.42041194833</ele>
        <time>2018-06-30T11:51:01.008Z</time>
      </trkpt>
      <trkpt lat="40.888501" lon="-3.944314">
        <ele>2064</ele>
        <time>2018-06-30T11:51:06.008Z</time>
      </trkpt>
      <trkpt lat="40.888455" lon="-3.94425">
        <ele>2064.58383326438</ele>
        <time>2018-06-30T11:51:11.008Z</time>
      </trkpt>
      <trkpt lat="40.888428" lon="-3.944173">
        <ele>2065</ele>
        <time>2018-06-30T11:51:16.008Z</time>
      </trkpt>
      <trkpt lat="40.888416" lon="-3.944071">
        <ele>2065</ele>
        <time>2018-06-30T11:51:22.008Z</time>
      </trkpt>
      <trkpt lat="40.888419" lon="-3.943968">
        <ele>2065</ele>
        <time>2018-06-30T11:51:28.008Z</time>
      </trkpt>
      <trkpt lat="40.888368" lon="-3.943856">
        <ele>2065</ele>
        <time>2018-06-30T11:51:36.008Z</time>
      </trkpt>
      <trkpt lat="40.888316" lon="-3.94377">
        <ele>2066</ele>
        <time>2018-06-30T11:51:43.008Z</time>
      </trkpt>
      <trkpt lat="40.88827" lon="-3.943689">
        <ele>2066</ele>
        <time>2018-06-30T11:51:49.008Z</time>
      </trkpt>
      <trkpt lat="40.888214" lon="-3.943615">
        <ele>2066</ele>
        <time>2018-06-30T11:51:55.008Z</time>
      </trkpt>
      <trkpt lat="40.888175" lon="-3.943534">
        <ele>2066</ele>
        <time>2018-06-30T11:52:01.008Z</time>
      </trkpt>
      <trkpt lat="40.888133" lon="-3.943467">
        <ele>2066</ele>
        <time>2018-06-30T11:52:06.008Z</time>
      </trkpt>
      <trkpt lat="40.8881" lon="-3.943379">
        <ele>2068</ele>
        <time>2018-06-30T11:52:12.008Z</time>
      </trkpt>
      <trkpt lat="40.888048" lon="-3.943313">
        <ele>2068</ele>
        <time>2018-06-30T11:52:19.008Z</time>
      </trkpt>
      <trkpt lat="40.88799" lon="-3.943249">
        <ele>2068</ele>
        <time>2018-06-30T11:52:25.008Z</time>
      </trkpt>
      <trkpt lat="40.887952" lon="-3.943173">
        <ele>2068</ele>
        <time>2018-06-30T11:52:30.008Z</time>
      </trkpt>
      <trkpt lat="40.887921" lon="-3.943096">
        <ele>2068</ele>
        <time>2018-06-30T11:52:35.008Z</time>
      </trkpt>
      <trkpt lat="40.887879" lon="-3.943026">
        <ele>2069</ele>
        <time>2018-06-30T11:52:40.008Z</time>
      </trkpt>
      <trkpt lat="40.887825" lon="-3.942963">
        <ele>2071</ele>
        <time>2018-06-30T11:52:46.008Z</time>
      </trkpt>
      <trkpt lat="40.88778" lon="-3.942878">
        <ele>2071</ele>
        <time>2018-06-30T11:52:52.008Z</time>
      </trkpt>
      <trkpt lat="40.887742" lon="-3.94281">
        <ele>2071</ele>
        <time>2018-06-30T11:52:57.008Z</time>
      </trkpt>
      <trkpt lat="40.887708" lon="-3.942714">
        <ele>2072</ele>
        <time>2018-06-30T11:53:04.008Z</time>
      </trkpt>
      <trkpt lat="40.887663" lon="-3.942634">
        <ele>2072</ele>
        <time>2018-06-30T11:53:10.008Z</time>
      </trkpt>
      <trkpt lat="40.887592" lon="-3.942601">
        <ele>2072</ele>
        <time>2018-06-30T11:53:16.008Z</time>
      </trkpt>
      <trkpt lat="40.887518" lon="-3.942598">
        <ele>2072</ele>
        <time>2018-06-30T11:53:22.008Z</time>
      </trkpt>
      <trkpt lat="40.887446" lon="-3.942561">
        <ele>2072</ele>
        <time>2018-06-30T11:53:28.008Z</time>
      </trkpt>
      <trkpt lat="40.887354" lon="-3.942541">
        <ele>2072</ele>
        <time>2018-06-30T11:53:33.008Z</time>
      </trkpt>
      <trkpt lat="40.887266" lon="-3.94248">
        <ele>2072</ele>
        <time>2018-06-30T11:53:38.008Z</time>
      </trkpt>
      <trkpt lat="40.887184" lon="-3.942421">
        <ele>2072</ele>
        <time>2018-06-30T11:53:43.008Z</time>
      </trkpt>
      <trkpt lat="40.887084" lon="-3.942384">
        <ele>2072</ele>
        <time>2018-06-30T11:53:48.008Z</time>
      </trkpt>
      <trkpt lat="40.887004" lon="-3.942343">
        <ele>2072</ele>
        <time>2018-06-30T11:53:52.008Z</time>
      </trkpt>
      <trkpt lat="40.88691" lon="-3.942329">
        <ele>2072</ele>
        <time>2018-06-30T11:53:57.008Z</time>
      </trkpt>
      <trkpt lat="40.886809" lon="-3.942317">
        <ele>2071</ele>
        <time>2018-06-30T11:54:02.008Z</time>
      </trkpt>
      <trkpt lat="40.88672" lon="-3.942304">
        <ele>2071</ele>
        <time>2018-06-30T11:54:07.008Z</time>
      </trkpt>
      <trkpt lat="40.886659" lon="-3.942237">
        <ele>2072</ele>
        <time>2018-06-30T11:54:13.008Z</time>
      </trkpt>
      <trkpt lat="40.886563" lon="-3.942248">
        <ele>2072</ele>
        <time>2018-06-30T11:54:18.008Z</time>
      </trkpt>
      <trkpt lat="40.886468" lon="-3.942257">
        <ele>2072</ele>
        <time>2018-06-30T11:54:23.008Z</time>
      </trkpt>
      <trkpt lat="40.886379" lon="-3.94226">
        <ele>2072</ele>
        <time>2018-06-30T11:54:28.008Z</time>
      </trkpt>
      <trkpt lat="40.886288" lon="-3.942275">
        <ele>2070</ele>
        <time>2018-06-30T11:54:35.008Z</time>
      </trkpt>
      <trkpt lat="40.886207" lon="-3.942292">
        <ele>2069</ele>
        <time>2018-06-30T11:54:40.008Z</time>
      </trkpt>
      <trkpt lat="40.886119" lon="-3.942299">
        <ele>2066.8356525486</ele>
        <time>2018-06-30T11:54:46.008Z</time>
      </trkpt>
      <trkpt lat="40.886033" lon="-3.942303">
        <ele>2065.45778163355</ele>
        <time>2018-06-30T11:54:51.008Z</time>
      </trkpt>
      <trkpt lat="40.885941" lon="-3.942303">
        <ele>2065</ele>
        <time>2018-06-30T11:54:56.008Z</time>
      </trkpt>
      <trkpt lat="40.885844" lon="-3.942307">
        <ele>2063.84082389666</ele>
        <time>2018-06-30T11:55:01.008Z</time>
      </trkpt>
      <trkpt lat="40.885759" lon="-3.942288">
        <ele>2062.44000438858</ele>
        <time>2018-06-30T11:55:06.008Z</time>
      </trkpt>
      <trkpt lat="40.885673" lon="-3.942261">
        <ele>2060.24850020687</ele>
        <time>2018-06-30T11:55:11.008Z</time>
      </trkpt>
      <trkpt lat="40.88556" lon="-3.942263">
        <ele>2058</ele>
        <time>2018-06-30T11:55:17.008Z</time>
      </trkpt>
      <trkpt lat="40.885465" lon="-3.942274">
        <ele>2056</ele>
        <time>2018-06-30T11:55:22.008Z</time>
      </trkpt>
      <trkpt lat="40.88537" lon="-3.942289">
        <ele>2055</ele>
        <time>2018-06-30T11:55:27.008Z</time>
      </trkpt>
      <trkpt lat="40.885269" lon="-3.942286">
        <ele>2054</ele>
        <time>2018-06-30T11:55:32.008Z</time>
      </trkpt>
      <trkpt lat="40.885182" lon="-3.942292">
        <ele>2053.42353206922</ele>
        <time>2018-06-30T11:55:36.008Z</time>
      </trkpt>
      <trkpt lat="40.885087" lon="-3.942295">
        <ele>2051.94616615385</ele>
        <time>2018-06-30T11:55:41.008Z</time>
      </trkpt>
      <trkpt lat="40.884988" lon="-3.942295">
        <ele>2049</ele>
        <time>2018-06-30T11:55:47.008Z</time>
      </trkpt>
      <trkpt lat="40.88493" lon="-3.942306">
        <ele>2049</ele>
        <time>2018-06-30T11:55:50.008Z</time>
      </trkpt>
      <trkpt lat="40.884818" lon="-3.942348">
        <ele>2046.46545725357</ele>
        <time>2018-06-30T11:55:56.008Z</time>
      </trkpt>
      <trkpt lat="40.884713" lon="-3.942355">
        <ele>2044.84082389666</ele>
        <time>2018-06-30T11:56:01.008Z</time>
      </trkpt>
      <trkpt lat="40.884618" lon="-3.942364">
        <ele>2044</ele>
        <time>2018-06-30T11:56:05.008Z</time>
      </trkpt>
      <trkpt lat="40.884562" lon="-3.942412">
        <ele>2043</ele>
        <time>2018-06-30T11:56:08.008Z</time>
      </trkpt>
      <trkpt lat="40.884509" lon="-3.942481">
        <ele>2041.83233347125</ele>
        <time>2018-06-30T11:56:11.008Z</time>
      </trkpt>
      <trkpt lat="40.88446" lon="-3.942543">
        <ele>2041</ele>
        <time>2018-06-30T11:56:14.008Z</time>
      </trkpt>
      <trkpt lat="40.884408" lon="-3.942589">
        <ele>2040</ele>
        <time>2018-06-30T11:56:17.008Z</time>
      </trkpt>
      <trkpt lat="40.884347" lon="-3.942614">
        <ele>2040</ele>
        <time>2018-06-30T11:56:20.008Z</time>
      </trkpt>
      <trkpt lat="40.884249" lon="-3.942637">
        <ele>2039</ele>
        <time>2018-06-30T11:56:25.008Z</time>
      </trkpt>
      <trkpt lat="40.884154" lon="-3.942649">
        <ele>2036.84082389666</ele>
        <time>2018-06-30T11:56:31.008Z</time>
      </trkpt>
      <trkpt lat="40.884075" lon="-3.942656">
        <ele>2036</ele>
        <time>2018-06-30T11:56:35.008Z</time>
      </trkpt>
      <trkpt lat="40.883981" lon="-3.942709">
        <ele>2035</ele>
        <time>2018-06-30T11:56:40.008Z</time>
      </trkpt>
      <trkpt lat="40.883919" lon="-3.942718">
        <ele>2033</ele>
        <time>2018-06-30T11:56:43.008Z</time>
      </trkpt>
      <trkpt lat="40.883818" lon="-3.942677">
        <ele>2032</ele>
        <time>2018-06-30T11:56:48.008Z</time>
      </trkpt>
      <trkpt lat="40.883727" lon="-3.942627">
        <ele>2030</ele>
        <time>2018-06-30T11:56:53.008Z</time>
      </trkpt>
      <trkpt lat="40.883627" lon="-3.942617">
        <ele>2029</ele>
        <time>2018-06-30T11:56:59.008Z</time>
      </trkpt>
      <trkpt lat="40.883518" lon="-3.942602">
        <ele>2027</ele>
        <time>2018-06-30T11:57:05.008Z</time>
      </trkpt>
      <trkpt lat="40.883423" lon="-3.942613">
        <ele>2027</ele>
        <time>2018-06-30T11:57:10.008Z</time>
      </trkpt>
      <trkpt lat="40.883323" lon="-3.942629">
        <ele>2026</ele>
        <time>2018-06-30T11:57:16.008Z</time>
      </trkpt>
      <trkpt lat="40.883214" lon="-3.942655">
        <ele>2025.45778163355</ele>
        <time>2018-06-30T11:57:21.008Z</time>
      </trkpt>
      <trkpt lat="40.883103" lon="-3.942703">
        <ele>2025</ele>
        <time>2018-06-30T11:57:26.008Z</time>
      </trkpt>
      <trkpt lat="40.883018" lon="-3.94274">
        <ele>2025</ele>
        <time>2018-06-30T11:57:30.008Z</time>
      </trkpt>
      <trkpt lat="40.882927" lon="-3.942791">
        <ele>2023</ele>
        <time>2018-06-30T11:57:34.008Z</time>
      </trkpt>
      <trkpt lat="40.882866" lon="-3.942822">
        <ele>2022</ele>
        <time>2018-06-30T11:57:37.008Z</time>
      </trkpt>
      <trkpt lat="40.882815" lon="-3.942842">
        <ele>2022</ele>
        <time>2018-06-30T11:57:40.008Z</time>
      </trkpt>
      <trkpt lat="40.882763" lon="-3.942884">
        <ele>2022</ele>
        <time>2018-06-30T11:57:45.008Z</time>
      </trkpt>
      <trkpt lat="40.882713" lon="-3.942922">
        <ele>2022</ele>
        <time>2018-06-30T11:57:51.008Z</time>
      </trkpt>
      <trkpt lat="40.882683" lon="-3.942963">
        <ele>2022</ele>
        <time>2018-06-30T11:57:55.008Z</time>
      </trkpt>
      <trkpt lat="40.882611" lon="-3.942953">
        <ele>2022.57958805167</ele>
        <time>2018-06-30T11:58:01.008Z</time>
      </trkpt>
      <trkpt lat="40.882536" lon="-3.942978">
        <ele>2023</ele>
        <time>2018-06-30T11:58:07.008Z</time>
      </trkpt>
      <trkpt lat="40.88246" lon="-3.943009">
        <ele>2023</ele>
        <time>2018-06-30T11:58:13.008Z</time>
      </trkpt>
      <trkpt lat="40.882391" lon="-3.94303">
        <ele>2023</ele>
        <time>2018-06-30T11:58:19.008Z</time>
      </trkpt>
      <trkpt lat="40.882352" lon="-3.943021">
        <ele>2023</ele>
        <time>2018-06-30T11:58:23.008Z</time>
      </trkpt>
      <trkpt lat="40.882327" lon="-3.943049">
        <ele>2023</ele>
        <time>2018-06-30T11:58:26.008Z</time>
      </trkpt>
      <trkpt lat="40.882291" lon="-3.943069">
        <ele>2023</ele>
        <time>2018-06-30T11:58:30.008Z</time>
      </trkpt>
      <trkpt lat="40.882249" lon="-3.943082">
        <ele>2023</ele>
        <time>2018-06-30T11:58:34.008Z</time>
      </trkpt>
      <trkpt lat="40.882184" lon="-3.943109">
        <ele>2023</ele>
        <time>2018-06-30T11:58:40.008Z</time>
      </trkpt>
      <trkpt lat="40.882149" lon="-3.943125">
        <ele>2024</ele>
        <time>2018-06-30T11:58:43.008Z</time>
      </trkpt>
      <trkpt lat="40.882116" lon="-3.943154">
        <ele>2024</ele>
        <time>2018-06-30T11:58:46.008Z</time>
      </trkpt>
      <trkpt lat="40.882045" lon="-3.943178">
        <ele>2024</ele>
        <time>2018-06-30T11:58:52.008Z</time>
      </trkpt>
      <trkpt lat="40.882004" lon="-3.943206">
        <ele>2024</ele>
        <time>2018-06-30T11:58:56.008Z</time>
      </trkpt>
      <trkpt lat="40.881935" lon="-3.94324">
        <ele>2025</ele>
        <time>2018-06-30T11:59:02.008Z</time>
      </trkpt>
      <trkpt lat="40.88187" lon="-3.943279">
        <ele>2025</ele>
        <time>2018-06-30T11:59:08.008Z</time>
      </trkpt>
      <trkpt lat="40.88182" lon="-3.943292">
        <ele>2026</ele>
        <time>2018-06-30T11:59:12.008Z</time>
      </trkpt>
      <trkpt lat="40.881791" lon="-3.943327">
        <ele>2026</ele>
        <time>2018-06-30T11:59:15.008Z</time>
      </trkpt>
      <trkpt lat="40.881753" lon="-3.943368">
        <ele>2027</ele>
        <time>2018-06-30T11:59:19.008Z</time>
      </trkpt>
      <trkpt lat="40.881689" lon="-3.943423">
        <ele>2027</ele>
        <time>2018-06-30T11:59:25.008Z</time>
      </trkpt>
      <trkpt lat="40.881619" lon="-3.943455">
        <ele>2027.57958805167</ele>
        <time>2018-06-30T11:59:31.008Z</time>
      </trkpt>
      <trkpt lat="40.881577" lon="-3.943474">
        <ele>2028</ele>
        <time>2018-06-30T11:59:35.008Z</time>
      </trkpt>
      <trkpt lat="40.881535" lon="-3.943501">
        <ele>2028</ele>
        <time>2018-06-30T11:59:39.008Z</time>
      </trkpt>
      <trkpt lat="40.881493" lon="-3.943533">
        <ele>2030</ele>
        <time>2018-06-30T11:59:43.008Z</time>
      </trkpt>
      <trkpt lat="40.881453" lon="-3.943562">
        <ele>2030</ele>
        <time>2018-06-30T11:59:47.008Z</time>
      </trkpt>
      <trkpt lat="40.881427" lon="-3.94359">
        <ele>2030</ele>
        <time>2018-06-30T11:59:50.008Z</time>
      </trkpt>
      <trkpt lat="40.881388" lon="-3.943623">
        <ele>2031</ele>
        <time>2018-06-30T11:59:54.008Z</time>
      </trkpt>
      <trkpt lat="40.881354" lon="-3.94365">
        <ele>2031</ele>
        <time>2018-06-30T11:59:57.008Z</time>
      </trkpt>
      <trkpt lat="40.881326" lon="-3.943679">
        <ele>2031</ele>
        <time>2018-06-30T12:00:00.008Z</time>
      </trkpt>
      <trkpt lat="40.881257" lon="-3.943707">
        <ele>2032</ele>
        <time>2018-06-30T12:00:06.008Z</time>
      </trkpt>
      <trkpt lat="40.881209" lon="-3.94368">
        <ele>2032</ele>
        <time>2018-06-30T12:00:10.008Z</time>
      </trkpt>
      <trkpt lat="40.881173" lon="-3.943606">
        <ele>2033</ele>
        <time>2018-06-30T12:00:16.008Z</time>
      </trkpt>
      <trkpt lat="40.881121" lon="-3.943568">
        <ele>2033.54221836645</ele>
        <time>2018-06-30T12:00:21.008Z</time>
      </trkpt>
      <trkpt lat="40.881068" lon="-3.943537">
        <ele>2034</ele>
        <time>2018-06-30T12:00:26.008Z</time>
      </trkpt>
      <trkpt lat="40.881005" lon="-3.943531">
        <ele>2035</ele>
        <time>2018-06-30T12:00:32.008Z</time>
      </trkpt>
      <trkpt lat="40.880945" lon="-3.943549">
        <ele>2035</ele>
        <time>2018-06-30T12:00:37.008Z</time>
      </trkpt>
      <trkpt lat="40.880889" lon="-3.943537">
        <ele>2036</ele>
        <time>2018-06-30T12:00:42.008Z</time>
      </trkpt>
      <trkpt lat="40.880832" lon="-3.943537">
        <ele>2036</ele>
        <time>2018-06-30T12:00:47.008Z</time>
      </trkpt>
      <trkpt lat="40.880775" lon="-3.943533">
        <ele>2038</ele>
        <time>2018-06-30T12:00:52.008Z</time>
      </trkpt>
      <trkpt lat="40.880717" lon="-3.943535">
        <ele>2038</ele>
        <time>2018-06-30T12:00:57.008Z</time>
      </trkpt>
      <trkpt lat="40.880659" lon="-3.943517">
        <ele>2040</ele>
        <time>2018-06-30T12:01:02.008Z</time>
      </trkpt>
      <trkpt lat="40.880613" lon="-3.943515">
        <ele>2040.57646793078</ele>
        <time>2018-06-30T12:01:06.008Z</time>
      </trkpt>
      <trkpt lat="40.880554" lon="-3.943519">
        <ele>2041</ele>
        <time>2018-06-30T12:01:11.008Z</time>
      </trkpt>
      <trkpt lat="40.880497" lon="-3.943525">
        <ele>2041</ele>
        <time>2018-06-30T12:01:16.008Z</time>
      </trkpt>
      <trkpt lat="40.880438" lon="-3.943542">
        <ele>2041.54221836645</ele>
        <time>2018-06-30T12:01:21.008Z</time>
      </trkpt>
      <trkpt lat="40.880375" lon="-3.94354">
        <ele>2042</ele>
        <time>2018-06-30T12:01:26.008Z</time>
      </trkpt>
      <trkpt lat="40.880313" lon="-3.943537">
        <ele>2042.57958805167</ele>
        <time>2018-06-30T12:01:31.008Z</time>
      </trkpt>
      <trkpt lat="40.880263" lon="-3.943541">
        <ele>2043</ele>
        <time>2018-06-30T12:01:35.008Z</time>
      </trkpt>
      <trkpt lat="40.880203" lon="-3.943526">
        <ele>2043</ele>
        <time>2018-06-30T12:01:40.008Z</time>
      </trkpt>
      <trkpt lat="40.880145" lon="-3.943548">
        <ele>2044</ele>
        <time>2018-06-30T12:01:45.008Z</time>
      </trkpt>
      <trkpt lat="40.880095" lon="-3.943559">
        <ele>2044</ele>
        <time>2018-06-30T12:01:48.008Z</time>
      </trkpt>
      <trkpt lat="40.880015" lon="-3.943597">
        <ele>2043</ele>
        <time>2018-06-30T12:01:52.008Z</time>
      </trkpt>
      <trkpt lat="40.879957" lon="-3.943637">
        <ele>2043</ele>
        <time>2018-06-30T12:01:55.008Z</time>
      </trkpt>
      <trkpt lat="40.879899" lon="-3.943683">
        <ele>2043</ele>
        <time>2018-06-30T12:01:58.008Z</time>
      </trkpt>
      <trkpt lat="40.879817" lon="-3.943666">
        <ele>2042</ele>
        <time>2018-06-30T12:02:02.008Z</time>
      </trkpt>
      <trkpt lat="40.879757" lon="-3.943675">
        <ele>2042</ele>
        <time>2018-06-30T12:02:05.008Z</time>
      </trkpt>
      <trkpt lat="40.879702" lon="-3.943743">
        <ele>2042</ele>
        <time>2018-06-30T12:02:08.008Z</time>
      </trkpt>
      <trkpt lat="40.879642" lon="-3.943779">
        <ele>2042</ele>
        <time>2018-06-30T12:02:11.008Z</time>
      </trkpt>
      <trkpt lat="40.87955" lon="-3.943796">
        <ele>2042</ele>
        <time>2018-06-30T12:02:15.008Z</time>
      </trkpt>
      <trkpt lat="40.879506" lon="-3.943817">
        <ele>2042</ele>
        <time>2018-06-30T12:02:17.008Z</time>
      </trkpt>
      <trkpt lat="40.879424" lon="-3.943815">
        <ele>2042.54221836645</ele>
        <time>2018-06-30T12:02:21.008Z</time>
      </trkpt>
      <trkpt lat="40.879348" lon="-3.943828">
        <ele>2043</ele>
        <time>2018-06-30T12:02:28.008Z</time>
      </trkpt>
      <trkpt lat="40.879275" lon="-3.943816">
        <ele>2044</ele>
        <time>2018-06-30T12:02:34.008Z</time>
      </trkpt>
      <trkpt lat="40.879237" lon="-3.943826">
        <ele>2044</ele>
        <time>2018-06-30T12:02:37.008Z</time>
      </trkpt>
      <trkpt lat="40.87916" lon="-3.94381">
        <ele>2045</ele>
        <time>2018-06-30T12:02:43.008Z</time>
      </trkpt>
      <trkpt lat="40.879098" lon="-3.943794">
        <ele>2045</ele>
        <time>2018-06-30T12:02:48.008Z</time>
      </trkpt>
      <trkpt lat="40.879036" lon="-3.943792">
        <ele>2046</ele>
        <time>2018-06-30T12:02:53.008Z</time>
      </trkpt>
      <trkpt lat="40.879008" lon="-3.943804">
        <ele>2046</ele>
        <time>2018-06-30T12:02:56.008Z</time>
      </trkpt>
      <trkpt lat="40.878973" lon="-3.943839">
        <ele>2046</ele>
        <time>2018-06-30T12:03:00.008Z</time>
      </trkpt>
      <trkpt lat="40.878915" lon="-3.943865">
        <ele>2046</ele>
        <time>2018-06-30T12:03:05.008Z</time>
      </trkpt>
      <trkpt lat="40.878856" lon="-3.94387">
        <ele>2046</ele>
        <time>2018-06-30T12:03:10.008Z</time>
      </trkpt>
      <trkpt lat="40.878836" lon="-3.943914">
        <ele>2046</ele>
        <time>2018-06-30T12:03:13.008Z</time>
      </trkpt>
      <trkpt lat="40.878786" lon="-3.94395">
        <ele>2046</ele>
        <time>2018-06-30T12:03:18.008Z</time>
      </trkpt>
      <trkpt lat="40.878755" lon="-3.943974">
        <ele>2047.62665509934</ele>
        <time>2018-06-30T12:03:21.008Z</time>
      </trkpt>
      <trkpt lat="40.8787" lon="-3.943994">
        <ele>2049.53454274643</ele>
        <time>2018-06-30T12:03:26.008Z</time>
      </trkpt>
      <trkpt lat="40.878674" lon="-3.94403">
        <ele>2050</ele>
        <time>2018-06-30T12:03:29.008Z</time>
      </trkpt>
      <trkpt lat="40.878632" lon="-3.944056">
        <ele>2050</ele>
        <time>2018-06-30T12:03:33.008Z</time>
      </trkpt>
      <trkpt lat="40.878593" lon="-3.94408">
        <ele>2050</ele>
        <time>2018-06-30T12:03:37.008Z</time>
      </trkpt>
      <trkpt lat="40.878533" lon="-3.944117">
        <ele>2051</ele>
        <time>2018-06-30T12:03:43.008Z</time>
      </trkpt>
      <trkpt lat="40.878501" lon="-3.944136">
        <ele>2051</ele>
        <time>2018-06-30T12:03:46.008Z</time>
      </trkpt>
      <trkpt lat="40.878474" lon="-3.944168">
        <ele>2051</ele>
        <time>2018-06-30T12:03:49.008Z</time>
      </trkpt>
      <trkpt lat="40.878404" lon="-3.944188">
        <ele>2052</ele>
        <time>2018-06-30T12:03:55.008Z</time>
      </trkpt>
      <trkpt lat="40.87834" lon="-3.944188">
        <ele>2052</ele>
        <time>2018-06-30T12:04:00.008Z</time>
      </trkpt>
      <trkpt lat="40.878304" lon="-3.944198">
        <ele>2053</ele>
        <time>2018-06-30T12:04:03.008Z</time>
      </trkpt>
      <trkpt lat="40.87825" lon="-3.944219">
        <ele>2053</ele>
        <time>2018-06-30T12:04:08.008Z</time>
      </trkpt>
      <trkpt lat="40.878184" lon="-3.944237">
        <ele>2055</ele>
        <time>2018-06-30T12:04:14.008Z</time>
      </trkpt>
      <trkpt lat="40.87814" lon="-3.94425">
        <ele>2056</ele>
        <time>2018-06-30T12:04:18.008Z</time>
      </trkpt>
      <trkpt lat="40.878106" lon="-3.944256">
        <ele>2056</ele>
        <time>2018-06-30T12:04:21.008Z</time>
      </trkpt>
      <trkpt lat="40.878036" lon="-3.944262">
        <ele>2056</ele>
        <time>2018-06-30T12:04:27.008Z</time>
      </trkpt>
      <trkpt lat="40.877998" lon="-3.944263">
        <ele>2056</ele>
        <time>2018-06-30T12:04:30.008Z</time>
      </trkpt>
      <trkpt lat="40.877966" lon="-3.944288">
        <ele>2058</ele>
        <time>2018-06-30T12:04:33.008Z</time>
      </trkpt>
      <trkpt lat="40.877932" lon="-3.944304">
        <ele>2058</ele>
        <time>2018-06-30T12:04:37.008Z</time>
      </trkpt>
      <trkpt lat="40.877894" lon="-3.944334">
        <ele>2059</ele>
        <time>2018-06-30T12:04:42.008Z</time>
      </trkpt>
      <trkpt lat="40.877858" lon="-3.944356">
        <ele>2059</ele>
        <time>2018-06-30T12:04:46.008Z</time>
      </trkpt>
      <trkpt lat="40.877821" lon="-3.94439">
        <ele>2059</ele>
        <time>2018-06-30T12:04:50.008Z</time>
      </trkpt>
      <trkpt lat="40.877784" lon="-3.944421">
        <ele>2061</ele>
        <time>2018-06-30T12:04:54.008Z</time>
      </trkpt>
      <trkpt lat="40.877725" lon="-3.944438">
        <ele>2061</ele>
        <time>2018-06-30T12:05:00.008Z</time>
      </trkpt>
      <trkpt lat="40.877696" lon="-3.94446">
        <ele>2062</ele>
        <time>2018-06-30T12:05:03.008Z</time>
      </trkpt>
      <trkpt lat="40.87764" lon="-3.944467">
        <ele>2062</ele>
        <time>2018-06-30T12:05:08.008Z</time>
      </trkpt>
      <trkpt lat="40.877587" lon="-3.944472">
        <ele>2063</ele>
        <time>2018-06-30T12:05:13.008Z</time>
      </trkpt>
      <trkpt lat="40.877523" lon="-3.944478">
        <ele>2063</ele>
        <time>2018-06-30T12:05:19.008Z</time>
      </trkpt>
      <trkpt lat="40.877471" lon="-3.944485">
        <ele>2065</ele>
        <time>2018-06-30T12:05:24.008Z</time>
      </trkpt>
      <trkpt lat="40.877411" lon="-3.944485">
        <ele>2066</ele>
        <time>2018-06-30T12:05:30.008Z</time>
      </trkpt>
      <trkpt lat="40.877359" lon="-3.94448">
        <ele>2067</ele>
        <time>2018-06-30T12:05:35.008Z</time>
      </trkpt>
      <trkpt lat="40.877327" lon="-3.94449">
        <ele>2069</ele>
        <time>2018-06-30T12:05:38.008Z</time>
      </trkpt>
      <trkpt lat="40.877299" lon="-3.944509">
        <ele>2069</ele>
        <time>2018-06-30T12:05:41.008Z</time>
      </trkpt>
      <trkpt lat="40.877269" lon="-3.944523">
        <ele>2069</ele>
        <time>2018-06-30T12:05:44.008Z</time>
      </trkpt>
      <trkpt lat="40.87724" lon="-3.944527">
        <ele>2070</ele>
        <time>2018-06-30T12:05:47.008Z</time>
      </trkpt>
      <trkpt lat="40.87721" lon="-3.944526">
        <ele>2070</ele>
        <time>2018-06-30T12:05:50.008Z</time>
      </trkpt>
      <trkpt lat="40.877178" lon="-3.944534">
        <ele>2071</ele>
        <time>2018-06-30T12:05:53.008Z</time>
      </trkpt>
      <trkpt lat="40.87715" lon="-3.944544">
        <ele>2072.06908549286</ele>
        <time>2018-06-30T12:05:56.008Z</time>
      </trkpt>
      <trkpt lat="40.877121" lon="-3.944545">
        <ele>2073</ele>
        <time>2018-06-30T12:05:59.008Z</time>
      </trkpt>
      <trkpt lat="40.877095" lon="-3.944562">
        <ele>2075</ele>
        <time>2018-06-30T12:06:02.008Z</time>
      </trkpt>
      <trkpt lat="40.877071" lon="-3.944579">
        <ele>2075</ele>
        <time>2018-06-30T12:06:05.008Z</time>
      </trkpt>
      <trkpt lat="40.877046" lon="-3.944598">
        <ele>2075</ele>
        <time>2018-06-30T12:06:08.008Z</time>
      </trkpt>
      <trkpt lat="40.877007" lon="-3.944616">
        <ele>2077</ele>
        <time>2018-06-30T12:06:12.008Z</time>
      </trkpt>
      <trkpt lat="40.876964" lon="-3.9446">
        <ele>2077</ele>
        <time>2018-06-30T12:06:16.008Z</time>
      </trkpt>
      <trkpt lat="40.876931" lon="-3.944599">
        <ele>2077</ele>
        <time>2018-06-30T12:06:19.008Z</time>
      </trkpt>
      <trkpt lat="40.876901" lon="-3.944605">
        <ele>2078</ele>
        <time>2018-06-30T12:06:22.008Z</time>
      </trkpt>
      <trkpt lat="40.876882" lon="-3.944617">
        <ele>2078</ele>
        <time>2018-06-30T12:06:24.008Z</time>
      </trkpt>
      <trkpt lat="40.876861" lon="-3.944629">
        <ele>2078</ele>
        <time>2018-06-30T12:06:26.008Z</time>
      </trkpt>
      <trkpt lat="40.876832" lon="-3.944649">
        <ele>2078</ele>
        <time>2018-06-30T12:06:29.008Z</time>
      </trkpt>
      <trkpt lat="40.876809" lon="-3.944663">
        <ele>2079</ele>
        <time>2018-06-30T12:06:32.008Z</time>
      </trkpt>
      <trkpt lat="40.876786" lon="-3.944684">
        <ele>2079</ele>
        <time>2018-06-30T12:06:35.008Z</time>
      </trkpt>
      <trkpt lat="40.87676" lon="-3.944698">
        <ele>2079</ele>
        <time>2018-06-30T12:06:38.008Z</time>
      </trkpt>
      <trkpt lat="40.876735" lon="-3.944712">
        <ele>2080.75149979313</ele>
        <time>2018-06-30T12:06:41.008Z</time>
      </trkpt>
      <trkpt lat="40.876712" lon="-3.944732">
        <ele>2082</ele>
        <time>2018-06-30T12:06:44.008Z</time>
      </trkpt>
      <trkpt lat="40.876692" lon="-3.944767">
        <ele>2083</ele>
        <time>2018-06-30T12:06:47.008Z</time>
      </trkpt>
      <trkpt lat="40.876634" lon="-3.944802">
        <ele>2085</ele>
        <time>2018-06-30T12:06:53.008Z</time>
      </trkpt>
      <trkpt lat="40.876602" lon="-3.944814">
        <ele>2085</ele>
        <time>2018-06-30T12:06:56.008Z</time>
      </trkpt>
      <trkpt lat="40.876569" lon="-3.944818">
        <ele>2085</ele>
        <time>2018-06-30T12:07:00.008Z</time>
      </trkpt>
      <trkpt lat="40.876541" lon="-3.944815">
        <ele>2086</ele>
        <time>2018-06-30T12:07:03.008Z</time>
      </trkpt>
      <trkpt lat="40.87651" lon="-3.944825">
        <ele>2086</ele>
        <time>2018-06-30T12:07:06.008Z</time>
      </trkpt>
      <trkpt lat="40.87649" lon="-3.944834">
        <ele>2086</ele>
        <time>2018-06-30T12:07:08.008Z</time>
      </trkpt>
      <trkpt lat="40.876462" lon="-3.944853">
        <ele>2087.16766652875</ele>
        <time>2018-06-30T12:07:11.008Z</time>
      </trkpt>
      <trkpt lat="40.876433" lon="-3.944871">
        <ele>2088</ele>
        <time>2018-06-30T12:07:14.008Z</time>
      </trkpt>
      <trkpt lat="40.876401" lon="-3.944881">
        <ele>2091</ele>
        <time>2018-06-30T12:07:17.008Z</time>
      </trkpt>
      <trkpt lat="40.876374" lon="-3.944879">
        <ele>2091</ele>
        <time>2018-06-30T12:07:20.008Z</time>
      </trkpt>
      <trkpt lat="40.876348" lon="-3.944881">
        <ele>2091</ele>
        <time>2018-06-30T12:07:23.008Z</time>
      </trkpt>
      <trkpt lat="40.876298" lon="-3.944937">
        <ele>2092</ele>
        <time>2018-06-30T12:07:31.008Z</time>
      </trkpt>
      <trkpt lat="40.876248" lon="-3.945">
        <ele>2092</ele>
        <time>2018-06-30T12:07:39.008Z</time>
      </trkpt>
      <trkpt lat="40.876189" lon="-3.945035">
        <ele>2094.5821737257</ele>
        <time>2018-06-30T12:07:46.008Z</time>
      </trkpt>
      <trkpt lat="40.876127" lon="-3.945058">
        <ele>2095</ele>
        <time>2018-06-30T12:07:53.008Z</time>
      </trkpt>
      <trkpt lat="40.876066" lon="-3.945097">
        <ele>2095</ele>
        <time>2018-06-30T12:08:01.008Z</time>
      </trkpt>
      <trkpt lat="40.876002" lon="-3.945128">
        <ele>2095</ele>
        <time>2018-06-30T12:08:08.008Z</time>
      </trkpt>
      <trkpt lat="40.875978" lon="-3.945158">
        <ele>2096.16766652875</ele>
        <time>2018-06-30T12:08:11.008Z</time>
      </trkpt>
      <trkpt lat="40.875957" lon="-3.945188">
        <ele>2097</ele>
        <time>2018-06-30T12:08:14.008Z</time>
      </trkpt>
      <trkpt lat="40.875939" lon="-3.945216">
        <ele>2098</ele>
        <time>2018-06-30T12:08:17.008Z</time>
      </trkpt>
      <trkpt lat="40.875886" lon="-3.945277">
        <ele>2099</ele>
        <time>2018-06-30T12:08:24.008Z</time>
      </trkpt>
      <trkpt lat="40.875844" lon="-3.945343">
        <ele>2100</ele>
        <time>2018-06-30T12:08:31.008Z</time>
      </trkpt>
      <trkpt lat="40.875815" lon="-3.945402">
        <ele>2100</ele>
        <time>2018-06-30T12:08:37.008Z</time>
      </trkpt>
      <trkpt lat="40.875771" lon="-3.945462">
        <ele>2102</ele>
        <time>2018-06-30T12:08:44.008Z</time>
      </trkpt>
      <trkpt lat="40.875719" lon="-3.94552">
        <ele>2105.54221836645</ele>
        <time>2018-06-30T12:08:51.008Z</time>
      </trkpt>
      <trkpt lat="40.875658" lon="-3.945545">
        <ele>2106</ele>
        <time>2018-06-30T12:08:58.008Z</time>
      </trkpt>
      <trkpt lat="40.875632" lon="-3.945568">
        <ele>2105.42041194833</ele>
        <time>2018-06-30T12:09:01.008Z</time>
      </trkpt>
      <trkpt lat="40.875606" lon="-3.945591">
        <ele>2105</ele>
        <time>2018-06-30T12:09:04.008Z</time>
      </trkpt>
      <trkpt lat="40.875586" lon="-3.945669">
        <ele>2105</ele>
        <time>2018-06-30T12:09:10.008Z</time>
      </trkpt>
      <trkpt lat="40.87558" lon="-3.945718">
        <ele>2107</ele>
        <time>2018-06-30T12:09:14.008Z</time>
      </trkpt>
      <trkpt lat="40.875574" lon="-3.945759">
        <ele>2109</ele>
        <time>2018-06-30T12:09:17.008Z</time>
      </trkpt>
      <trkpt lat="40.87555" lon="-3.945788">
        <ele>2109</ele>
        <time>2018-06-30T12:09:20.008Z</time>
      </trkpt>
      <trkpt lat="40.875534" lon="-3.945822">
        <ele>2110</ele>
        <time>2018-06-30T12:09:23.008Z</time>
      </trkpt>
      <trkpt lat="40.875524" lon="-3.94586">
        <ele>2110.53454274643</ele>
        <time>2018-06-30T12:09:26.008Z</time>
      </trkpt>
      <trkpt lat="40.875508" lon="-3.945895">
        <ele>2111</ele>
        <time>2018-06-30T12:09:29.008Z</time>
      </trkpt>
      <trkpt lat="40.87546" lon="-3.945945">
        <ele>2113.72940379234</ele>
        <time>2018-06-30T12:09:36.008Z</time>
      </trkpt>
      <trkpt lat="40.875432" lon="-3.945959">
        <ele>2115</ele>
        <time>2018-06-30T12:09:39.008Z</time>
      </trkpt>
      <trkpt lat="40.875408" lon="-3.945973">
        <ele>2116</ele>
        <time>2018-06-30T12:09:42.008Z</time>
      </trkpt>
      <trkpt lat="40.875382" lon="-3.945986">
        <ele>2116</ele>
        <time>2018-06-30T12:09:45.008Z</time>
      </trkpt>
      <trkpt lat="40.875358" lon="-3.945998">
        <ele>2117</ele>
        <time>2018-06-30T12:09:48.008Z</time>
      </trkpt>
      <trkpt lat="40.87533" lon="-3.946008">
        <ele>2118.08443673289</ele>
        <time>2018-06-30T12:09:51.008Z</time>
      </trkpt>
      <trkpt lat="40.875304" lon="-3.946004">
        <ele>2119</ele>
        <time>2018-06-30T12:09:54.008Z</time>
      </trkpt>
      <trkpt lat="40.87528" lon="-3.946003">
        <ele>2119</ele>
        <time>2018-06-30T12:09:57.008Z</time>
      </trkpt>
      <trkpt lat="40.875254" lon="-3.946004">
        <ele>2119</ele>
        <time>2018-06-30T12:10:00.008Z</time>
      </trkpt>
      <trkpt lat="40.875215" lon="-3.946">
        <ele>2119</ele>
        <time>2018-06-30T12:10:04.008Z</time>
      </trkpt>
      <trkpt lat="40.875195" lon="-3.946011">
        <ele>2119</ele>
        <time>2018-06-30T12:10:06.008Z</time>
      </trkpt>
      <trkpt lat="40.875173" lon="-3.946041">
        <ele>2119</ele>
        <time>2018-06-30T12:10:09.008Z</time>
      </trkpt>
      <trkpt lat="40.875147" lon="-3.946065">
        <ele>2119</ele>
        <time>2018-06-30T12:10:12.008Z</time>
      </trkpt>
      <trkpt lat="40.875118" lon="-3.946077">
        <ele>2119</ele>
        <time>2018-06-30T12:10:15.008Z</time>
      </trkpt>
      <trkpt lat="40.875092" lon="-3.946088">
        <ele>2119</ele>
        <time>2018-06-30T12:10:18.008Z</time>
      </trkpt>
      <trkpt lat="40.875064" lon="-3.946092">
        <ele>2117.91556326711</ele>
        <time>2018-06-30T12:10:21.008Z</time>
      </trkpt>
      <trkpt lat="40.875039" lon="-3.946106">
        <ele>2117</ele>
        <time>2018-06-30T12:10:24.008Z</time>
      </trkpt>
      <trkpt lat="40.875019" lon="-3.946131">
        <ele>2117</ele>
        <time>2018-06-30T12:10:27.008Z</time>
      </trkpt>
      <trkpt lat="40.874993" lon="-3.946149">
        <ele>2117</ele>
        <time>2018-06-30T12:10:30.008Z</time>
      </trkpt>
      <trkpt lat="40.874968" lon="-3.946151">
        <ele>2117</ele>
        <time>2018-06-30T12:10:32.008Z</time>
      </trkpt>
      <trkpt lat="40.874936" lon="-3.946148">
        <ele>2117</ele>
        <time>2018-06-30T12:10:35.008Z</time>
      </trkpt>
      <trkpt lat="40.874905" lon="-3.946155">
        <ele>2117</ele>
        <time>2018-06-30T12:10:38.008Z</time>
      </trkpt>
      <trkpt lat="40.874873" lon="-3.946166">
        <ele>2117.58383326438</ele>
        <time>2018-06-30T12:10:41.008Z</time>
      </trkpt>
      <trkpt lat="40.874848" lon="-3.946182">
        <ele>2118</ele>
        <time>2018-06-30T12:10:44.008Z</time>
      </trkpt>
      <trkpt lat="40.874811" lon="-3.946221">
        <ele>2118</ele>
        <time>2018-06-30T12:10:49.008Z</time>
      </trkpt>
      <trkpt lat="40.874761" lon="-3.946246">
        <ele>2119</ele>
        <time>2018-06-30T12:10:54.008Z</time>
      </trkpt>
      <trkpt lat="40.874726" lon="-3.946277">
        <ele>2119</ele>
        <time>2018-06-30T12:10:58.008Z</time>
      </trkpt>
      <trkpt lat="40.874695" lon="-3.946291">
        <ele>2119</ele>
        <time>2018-06-30T12:11:01.008Z</time>
      </trkpt>
      <trkpt lat="40.874665" lon="-3.946316">
        <ele>2119</ele>
        <time>2018-06-30T12:11:04.008Z</time>
      </trkpt>
      <trkpt lat="40.874647" lon="-3.946334">
        <ele>2119</ele>
        <time>2018-06-30T12:11:06.008Z</time>
      </trkpt>
      <trkpt lat="40.874591" lon="-3.946343">
        <ele>2120.16766652875</ele>
        <time>2018-06-30T12:11:11.008Z</time>
      </trkpt>
      <trkpt lat="40.874563" lon="-3.94632">
        <ele>2121</ele>
        <time>2018-06-30T12:11:14.008Z</time>
      </trkpt>
      <trkpt lat="40.874538" lon="-3.946303">
        <ele>2121</ele>
        <time>2018-06-30T12:11:17.008Z</time>
      </trkpt>
      <trkpt lat="40.874505" lon="-3.946311">
        <ele>2121</ele>
        <time>2018-06-30T12:11:20.008Z</time>
      </trkpt>
      <trkpt lat="40.874484" lon="-3.946324">
        <ele>2120</ele>
        <time>2018-06-30T12:11:22.008Z</time>
      </trkpt>
      <trkpt lat="40.874463" lon="-3.946334">
        <ele>2120</ele>
        <time>2018-06-30T12:11:24.008Z</time>
      </trkpt>
      <trkpt lat="40.874441" lon="-3.946332">
        <ele>2120</ele>
        <time>2018-06-30T12:11:26.008Z</time>
      </trkpt>
      <trkpt lat="40.874409" lon="-3.946348">
        <ele>2120</ele>
        <time>2018-06-30T12:11:29.008Z</time>
      </trkpt>
      <trkpt lat="40.874384" lon="-3.946377">
        <ele>2121</ele>
        <time>2018-06-30T12:11:32.008Z</time>
      </trkpt>
      <trkpt lat="40.874353" lon="-3.94638">
        <ele>2121</ele>
        <time>2018-06-30T12:11:35.008Z</time>
      </trkpt>
      <trkpt lat="40.874315" lon="-3.946403">
        <ele>2121</ele>
        <time>2018-06-30T12:11:40.008Z</time>
      </trkpt>
      <trkpt lat="40.874287" lon="-3.946415">
        <ele>2121</ele>
        <time>2018-06-30T12:11:43.008Z</time>
      </trkpt>
      <trkpt lat="40.874257" lon="-3.94642">
        <ele>2121</ele>
        <time>2018-06-30T12:11:46.008Z</time>
      </trkpt>
      <trkpt lat="40.874198" lon="-3.946461">
        <ele>2121</ele>
        <time>2018-06-30T12:11:54.008Z</time>
      </trkpt>
      <trkpt lat="40.874176" lon="-3.946483">
        <ele>2121</ele>
        <time>2018-06-30T12:11:57.008Z</time>
      </trkpt>
      <trkpt lat="40.87416" lon="-3.946509">
        <ele>2121</ele>
        <time>2018-06-30T12:12:00.008Z</time>
      </trkpt>
      <trkpt lat="40.874144" lon="-3.946536">
        <ele>2122</ele>
        <time>2018-06-30T12:12:04.008Z</time>
      </trkpt>
      <trkpt lat="40.874118" lon="-3.946553">
        <ele>2122</ele>
        <time>2018-06-30T12:12:07.008Z</time>
      </trkpt>
      <trkpt lat="40.874096" lon="-3.946579">
        <ele>2124.33533305751</ele>
        <time>2018-06-30T12:12:11.008Z</time>
      </trkpt>
      <trkpt lat="40.874068" lon="-3.946599">
        <ele>2126</ele>
        <time>2018-06-30T12:12:15.008Z</time>
      </trkpt>
      <trkpt lat="40.874043" lon="-3.946629">
        <ele>2126</ele>
        <time>2018-06-30T12:12:18.008Z</time>
      </trkpt>
      <trkpt lat="40.874023" lon="-3.946648">
        <ele>2126</ele>
        <time>2018-06-30T12:12:20.008Z</time>
      </trkpt>
      <trkpt lat="40.874007" lon="-3.946667">
        <ele>2125</ele>
        <time>2018-06-30T12:12:22.008Z</time>
      </trkpt>
      <trkpt lat="40.873982" lon="-3.946686">
        <ele>2125</ele>
        <time>2018-06-30T12:12:25.008Z</time>
      </trkpt>
      <trkpt lat="40.873943" lon="-3.946699">
        <ele>2125</ele>
        <time>2018-06-30T12:12:29.008Z</time>
      </trkpt>
      <trkpt lat="40.873908" lon="-3.946723">
        <ele>2125</ele>
        <time>2018-06-30T12:12:32.008Z</time>
      </trkpt>
      <trkpt lat="40.873865" lon="-3.946761">
        <ele>2125</ele>
        <time>2018-06-30T12:12:36.008Z</time>
      </trkpt>
      <trkpt lat="40.873793" lon="-3.946798">
        <ele>2125</ele>
        <time>2018-06-30T12:12:42.008Z</time>
      </trkpt>
      <trkpt lat="40.873755" lon="-3.946866">
        <ele>2125</ele>
        <time>2018-06-30T12:12:49.008Z</time>
      </trkpt>
      <trkpt lat="40.873726" lon="-3.946891">
        <ele>2127</ele>
        <time>2018-06-30T12:12:53.008Z</time>
      </trkpt>
      <trkpt lat="40.8737" lon="-3.946921">
        <ele>2129</ele>
        <time>2018-06-30T12:12:57.008Z</time>
      </trkpt>
      <trkpt lat="40.873627" lon="-3.946962">
        <ele>2129</ele>
        <time>2018-06-30T12:13:05.008Z</time>
      </trkpt>
      <trkpt lat="40.873552" lon="-3.946989">
        <ele>2128</ele>
        <time>2018-06-30T12:13:12.008Z</time>
      </trkpt>
      <trkpt lat="40.873531" lon="-3.947014">
        <ele>2128</ele>
        <time>2018-06-30T12:13:15.008Z</time>
      </trkpt>
      <trkpt lat="40.873467" lon="-3.947068">
        <ele>2129</ele>
        <time>2018-06-30T12:13:23.008Z</time>
      </trkpt>
      <trkpt lat="40.873421" lon="-3.947132">
        <ele>2132</ele>
        <time>2018-06-30T12:13:32.008Z</time>
      </trkpt>
      <trkpt lat="40.873391" lon="-3.947154">
        <ele>2133.15293586156</ele>
        <time>2018-06-30T12:13:36.008Z</time>
      </trkpt>
      <trkpt lat="40.873368" lon="-3.947157">
        <ele>2134</ele>
        <time>2018-06-30T12:13:39.008Z</time>
      </trkpt>
      <trkpt lat="40.873342" lon="-3.94717">
        <ele>2135</ele>
        <time>2018-06-30T12:13:43.008Z</time>
      </trkpt>
      <trkpt lat="40.873322" lon="-3.947187">
        <ele>2137</ele>
        <time>2018-06-30T12:13:47.008Z</time>
      </trkpt>
      <trkpt lat="40.873293" lon="-3.947193">
        <ele>2137</ele>
        <time>2018-06-30T12:13:50.008Z</time>
      </trkpt>
      <trkpt lat="40.873275" lon="-3.94722">
        <ele>2138</ele>
        <time>2018-06-30T12:13:53.008Z</time>
      </trkpt>
      <trkpt lat="40.873263" lon="-3.947256">
        <ele>2138.53454274643</ele>
        <time>2018-06-30T12:13:56.008Z</time>
      </trkpt>
      <trkpt lat="40.873238" lon="-3.94728">
        <ele>2139</ele>
        <time>2018-06-30T12:13:59.008Z</time>
      </trkpt>
      <trkpt lat="40.87321" lon="-3.947301">
        <ele>2138</ele>
        <time>2018-06-30T12:14:02.008Z</time>
      </trkpt>
      <trkpt lat="40.873192" lon="-3.947334">
        <ele>2138</ele>
        <time>2018-06-30T12:14:05.008Z</time>
      </trkpt>
      <trkpt lat="40.873152" lon="-3.947359">
        <ele>2138</ele>
        <time>2018-06-30T12:14:09.008Z</time>
      </trkpt>
      <trkpt lat="40.873078" lon="-3.947381">
        <ele>2138</ele>
        <time>2018-06-30T12:14:17.008Z</time>
      </trkpt>
      <trkpt lat="40.873023" lon="-3.94739">
        <ele>2138</ele>
        <time>2018-06-30T12:14:20.008Z</time>
      </trkpt>
      <trkpt lat="40.872983" lon="-3.947377">
        <ele>2137</ele>
        <time>2018-06-30T12:14:22.008Z</time>
      </trkpt>
      <trkpt lat="40.872898" lon="-3.947351">
        <ele>2137</ele>
        <time>2018-06-30T12:14:26.008Z</time>
      </trkpt>
      <trkpt lat="40.872813" lon="-3.947344">
        <ele>2137</ele>
        <time>2018-06-30T12:14:30.008Z</time>
      </trkpt>
      <trkpt lat="40.872738" lon="-3.947297">
        <ele>2136</ele>
        <time>2018-06-30T12:14:34.008Z</time>
      </trkpt>
      <trkpt lat="40.872679" lon="-3.947273">
        <ele>2136</ele>
        <time>2018-06-30T12:14:37.008Z</time>
      </trkpt>
      <trkpt lat="40.872635" lon="-3.947272">
        <ele>2136</ele>
        <time>2018-06-30T12:14:39.008Z</time>
      </trkpt>
      <trkpt lat="40.872596" lon="-3.947278">
        <ele>2133.66466694249</ele>
        <time>2018-06-30T12:14:41.008Z</time>
      </trkpt>
      <trkpt lat="40.872538" lon="-3.947285">
        <ele>2132</ele>
        <time>2018-06-30T12:14:44.008Z</time>
      </trkpt>
      <trkpt lat="40.872499" lon="-3.947266">
        <ele>2133.1643474514</ele>
        <time>2018-06-30T12:14:46.008Z</time>
      </trkpt>
      <trkpt lat="40.872463" lon="-3.947241">
        <ele>2134</ele>
        <time>2018-06-30T12:14:48.008Z</time>
      </trkpt>
      <trkpt lat="40.872409" lon="-3.947236">
        <ele>2132.37334490066</ele>
        <time>2018-06-30T12:14:51.008Z</time>
      </trkpt>
      <trkpt lat="40.872357" lon="-3.947273">
        <ele>2131</ele>
        <time>2018-06-30T12:14:54.008Z</time>
      </trkpt>
      <trkpt lat="40.8723" lon="-3.947286">
        <ele>2131</ele>
        <time>2018-06-30T12:14:57.008Z</time>
      </trkpt>
      <trkpt lat="40.872241" lon="-3.947291">
        <ele>2131</ele>
        <time>2018-06-30T12:15:00.008Z</time>
      </trkpt>
      <trkpt lat="40.872188" lon="-3.947291">
        <ele>2129</ele>
        <time>2018-06-30T12:15:03.008Z</time>
      </trkpt>
      <trkpt lat="40.872137" lon="-3.947296">
        <ele>2129</ele>
        <time>2018-06-30T12:15:06.008Z</time>
      </trkpt>
      <trkpt lat="40.872077" lon="-3.947295">
        <ele>2129</ele>
        <time>2018-06-30T12:15:09.008Z</time>
      </trkpt>
      <trkpt lat="40.872035" lon="-3.947291">
        <ele>2129.58383326438</ele>
        <time>2018-06-30T12:15:11.008Z</time>
      </trkpt>
      <trkpt lat="40.871997" lon="-3.947292">
        <ele>2130</ele>
        <time>2018-06-30T12:15:13.008Z</time>
      </trkpt>
      <trkpt lat="40.871942" lon="-3.947316">
        <ele>2130</ele>
        <time>2018-06-30T12:15:16.008Z</time>
      </trkpt>
      <trkpt lat="40.871876" lon="-3.947321">
        <ele>2130</ele>
        <time>2018-06-30T12:15:20.008Z</time>
      </trkpt>
      <trkpt lat="40.871811" lon="-3.947289">
        <ele>2131</ele>
        <time>2018-06-30T12:15:25.008Z</time>
      </trkpt>
      <trkpt lat="40.871764" lon="-3.947283">
        <ele>2131</ele>
        <time>2018-06-30T12:15:28.008Z</time>
      </trkpt>
      <trkpt lat="40.871719" lon="-3.947259">
        <ele>2128</ele>
        <time>2018-06-30T12:15:32.008Z</time>
      </trkpt>
      <trkpt lat="40.871674" lon="-3.947249">
        <ele>2128</ele>
        <time>2018-06-30T12:15:35.008Z</time>
      </trkpt>
      <trkpt lat="40.871639" lon="-3.947231">
        <ele>2126</ele>
        <time>2018-06-30T12:15:37.008Z</time>
      </trkpt>
      <trkpt lat="40.8716" lon="-3.947224">
        <ele>2126</ele>
        <time>2018-06-30T12:15:39.008Z</time>
      </trkpt>
      <trkpt lat="40.87156" lon="-3.947218">
        <ele>2126</ele>
        <time>2018-06-30T12:15:41.008Z</time>
      </trkpt>
      <trkpt lat="40.871484" lon="-3.947167">
        <ele>2125.4178262743</ele>
        <time>2018-06-30T12:15:46.008Z</time>
      </trkpt>
      <trkpt lat="40.871397" lon="-3.947164">
        <ele>2124.45778163355</ele>
        <time>2018-06-30T12:15:51.008Z</time>
      </trkpt>
      <trkpt lat="40.871322" lon="-3.947137">
        <ele>2124</ele>
        <time>2018-06-30T12:15:55.008Z</time>
      </trkpt>
      <trkpt lat="40.871278" lon="-3.947126">
        <ele>2123</ele>
        <time>2018-06-30T12:15:58.008Z</time>
      </trkpt>
      <trkpt lat="40.871225" lon="-3.947072">
        <ele>2122</ele>
        <time>2018-06-30T12:16:04.008Z</time>
      </trkpt>
      <trkpt lat="40.871184" lon="-3.94706">
        <ele>2120</ele>
        <time>2018-06-30T12:16:07.008Z</time>
      </trkpt>
      <trkpt lat="40.871155" lon="-3.94702">
        <ele>2120</ele>
        <time>2018-06-30T12:16:10.008Z</time>
      </trkpt>
      <trkpt lat="40.871125" lon="-3.947001">
        <ele>2118</ele>
        <time>2018-06-30T12:16:13.008Z</time>
      </trkpt>
      <trkpt lat="40.871077" lon="-3.946972">
        <ele>2117</ele>
        <time>2018-06-30T12:16:17.008Z</time>
      </trkpt>
      <trkpt lat="40.871035" lon="-3.946984">
        <ele>2117</ele>
        <time>2018-06-30T12:16:20.008Z</time>
      </trkpt>
      <trkpt lat="40.870992" lon="-3.947006">
        <ele>2116</ele>
        <time>2018-06-30T12:16:23.008Z</time>
      </trkpt>
      <trkpt lat="40.870946" lon="-3.947026">
        <ele>2115.46545725357</ele>
        <time>2018-06-30T12:16:26.008Z</time>
      </trkpt>
      <trkpt lat="40.870864" lon="-3.947023">
        <ele>2114</ele>
        <time>2018-06-30T12:16:33.008Z</time>
      </trkpt>
      <trkpt lat="40.870825" lon="-3.946972">
        <ele>2113</ele>
        <time>2018-06-30T12:16:38.008Z</time>
      </trkpt>
      <trkpt lat="40.870791" lon="-3.946973">
        <ele>2112.41616673562</ele>
        <time>2018-06-30T12:16:41.008Z</time>
      </trkpt>
      <trkpt lat="40.87076" lon="-3.946971">
        <ele>2112</ele>
        <time>2018-06-30T12:16:44.008Z</time>
      </trkpt>
      <trkpt lat="40.870725" lon="-3.946983">
        <ele>2111</ele>
        <time>2018-06-30T12:16:47.008Z</time>
      </trkpt>
      <trkpt lat="40.870678" lon="-3.946992">
        <ele>2111</ele>
        <time>2018-06-30T12:16:51.008Z</time>
      </trkpt>
      <trkpt lat="40.870608" lon="-3.946984">
        <ele>2111</ele>
        <time>2018-06-30T12:16:56.008Z</time>
      </trkpt>
      <trkpt lat="40.870536" lon="-3.946968">
        <ele>2111</ele>
        <time>2018-06-30T12:17:00.008Z</time>
      </trkpt>
      <trkpt lat="40.870481" lon="-3.946971">
        <ele>2110</ele>
        <time>2018-06-30T12:17:03.008Z</time>
      </trkpt>
      <trkpt lat="40.870423" lon="-3.946962">
        <ele>2110</ele>
        <time>2018-06-30T12:17:06.008Z</time>
      </trkpt>
      <trkpt lat="40.870384" lon="-3.946952">
        <ele>2110</ele>
        <time>2018-06-30T12:17:08.008Z</time>
      </trkpt>
      <trkpt lat="40.870347" lon="-3.946937">
        <ele>2110</ele>
        <time>2018-06-30T12:17:10.008Z</time>
      </trkpt>
      <trkpt lat="40.870312" lon="-3.946928">
        <ele>2110</ele>
        <time>2018-06-30T12:17:12.008Z</time>
      </trkpt>
      <trkpt lat="40.870262" lon="-3.946929">
        <ele>2110</ele>
        <time>2018-06-30T12:17:15.008Z</time>
      </trkpt>
      <trkpt lat="40.87022" lon="-3.946931">
        <ele>2110</ele>
        <time>2018-06-30T12:17:18.008Z</time>
      </trkpt>
      <trkpt lat="40.870195" lon="-3.946961">
        <ele>2106</ele>
        <time>2018-06-30T12:17:22.008Z</time>
      </trkpt>
      <trkpt lat="40.870156" lon="-3.946966">
        <ele>2106</ele>
        <time>2018-06-30T12:17:25.008Z</time>
      </trkpt>
      <trkpt lat="40.870107" lon="-3.946941">
        <ele>2105</ele>
        <time>2018-06-30T12:17:29.008Z</time>
      </trkpt>
      <trkpt lat="40.870051" lon="-3.946958">
        <ele>2104</ele>
        <time>2018-06-30T12:17:33.008Z</time>
      </trkpt>
      <trkpt lat="40.869991" lon="-3.946962">
        <ele>2102</ele>
        <time>2018-06-30T12:17:37.008Z</time>
      </trkpt>
      <trkpt lat="40.869959" lon="-3.946969">
        <ele>2102</ele>
        <time>2018-06-30T12:17:39.008Z</time>
      </trkpt>
      <trkpt lat="40.869919" lon="-3.946975">
        <ele>2101.41616673562</ele>
        <time>2018-06-30T12:17:41.008Z</time>
      </trkpt>
      <trkpt lat="40.869881" lon="-3.946971">
        <ele>2101</ele>
        <time>2018-06-30T12:17:43.008Z</time>
      </trkpt>
      <trkpt lat="40.869841" lon="-3.946966">
        <ele>2101</ele>
        <time>2018-06-30T12:17:45.008Z</time>
      </trkpt>
      <trkpt lat="40.8698" lon="-3.946953">
        <ele>2101</ele>
        <time>2018-06-30T12:17:47.008Z</time>
      </trkpt>
      <trkpt lat="40.86976" lon="-3.94694">
        <ele>2101</ele>
        <time>2018-06-30T12:17:49.008Z</time>
      </trkpt>
      <trkpt lat="40.869721" lon="-3.946926">
        <ele>2101</ele>
        <time>2018-06-30T12:17:51.008Z</time>
      </trkpt>
      <trkpt lat="40.869685" lon="-3.946903">
        <ele>2101</ele>
        <time>2018-06-30T12:17:53.008Z</time>
      </trkpt>
      <trkpt lat="40.869655" lon="-3.946875">
        <ele>2101</ele>
        <time>2018-06-30T12:17:55.008Z</time>
      </trkpt>
      <trkpt lat="40.869616" lon="-3.946854">
        <ele>2101</ele>
        <time>2018-06-30T12:17:57.008Z</time>
      </trkpt>
      <trkpt lat="40.869577" lon="-3.946829">
        <ele>2101</ele>
        <time>2018-06-30T12:17:59.008Z</time>
      </trkpt>
      <trkpt lat="40.869534" lon="-3.946811">
        <ele>2100.42041194833</ele>
        <time>2018-06-30T12:18:01.008Z</time>
      </trkpt>
      <trkpt lat="40.869491" lon="-3.946798">
        <ele>2100</ele>
        <time>2018-06-30T12:18:03.008Z</time>
      </trkpt>
      <trkpt lat="40.869451" lon="-3.946787">
        <ele>2100</ele>
        <time>2018-06-30T12:18:05.008Z</time>
      </trkpt>
      <trkpt lat="40.86941" lon="-3.946774">
        <ele>2100</ele>
        <time>2018-06-30T12:18:07.008Z</time>
      </trkpt>
      <trkpt lat="40.86937" lon="-3.946766">
        <ele>2100</ele>
        <time>2018-06-30T12:18:09.008Z</time>
      </trkpt>
      <trkpt lat="40.869331" lon="-3.946763">
        <ele>2100.58383326438</ele>
        <time>2018-06-30T12:18:11.008Z</time>
      </trkpt>
      <trkpt lat="40.869293" lon="-3.946754">
        <ele>2101</ele>
        <time>2018-06-30T12:18:13.008Z</time>
      </trkpt>
      <trkpt lat="40.869251" lon="-3.946745">
        <ele>2101</ele>
        <time>2018-06-30T12:18:15.008Z</time>
      </trkpt>
      <trkpt lat="40.869169" lon="-3.946725">
        <ele>2101</ele>
        <time>2018-06-30T12:18:19.008Z</time>
      </trkpt>
      <trkpt lat="40.869109" lon="-3.946699">
        <ele>2102</ele>
        <time>2018-06-30T12:18:22.008Z</time>
      </trkpt>
      <trkpt lat="40.869067" lon="-3.946696">
        <ele>2102</ele>
        <time>2018-06-30T12:18:24.008Z</time>
      </trkpt>
      <trkpt lat="40.869028" lon="-3.946692">
        <ele>2102</ele>
        <time>2018-06-30T12:18:26.008Z</time>
      </trkpt>
      <trkpt lat="40.868974" lon="-3.946679">
        <ele>2102</ele>
        <time>2018-06-30T12:18:29.008Z</time>
      </trkpt>
      <trkpt lat="40.868896" lon="-3.946683">
        <ele>2102</ele>
        <time>2018-06-30T12:18:33.008Z</time>
      </trkpt>
      <trkpt lat="40.868855" lon="-3.94669">
        <ele>2102</ele>
        <time>2018-06-30T12:18:35.008Z</time>
      </trkpt>
      <trkpt lat="40.868813" lon="-3.946697">
        <ele>2102</ele>
        <time>2018-06-30T12:18:37.008Z</time>
      </trkpt>
      <trkpt lat="40.868775" lon="-3.94669">
        <ele>2102</ele>
        <time>2018-06-30T12:18:39.008Z</time>
      </trkpt>
      <trkpt lat="40.86874" lon="-3.946687">
        <ele>2102</ele>
        <time>2018-06-30T12:18:41.008Z</time>
      </trkpt>
      <trkpt lat="40.868688" lon="-3.946682">
        <ele>2102</ele>
        <time>2018-06-30T12:18:44.008Z</time>
      </trkpt>
      <trkpt lat="40.868614" lon="-3.946692">
        <ele>2102</ele>
        <time>2018-06-30T12:18:48.008Z</time>
      </trkpt>
      <trkpt lat="40.868569" lon="-3.946694">
        <ele>2102</ele>
        <time>2018-06-30T12:18:50.008Z</time>
      </trkpt>
      <trkpt lat="40.868525" lon="-3.946696">
        <ele>2101</ele>
        <time>2018-06-30T12:18:52.008Z</time>
      </trkpt>
      <trkpt lat="40.868482" lon="-3.9467">
        <ele>2101</ele>
        <time>2018-06-30T12:18:54.008Z</time>
      </trkpt>
      <trkpt lat="40.868439" lon="-3.946701">
        <ele>2101</ele>
        <time>2018-06-30T12:18:56.008Z</time>
      </trkpt>
      <trkpt lat="40.868396" lon="-3.946701">
        <ele>2101</ele>
        <time>2018-06-30T12:18:58.008Z</time>
      </trkpt>
      <trkpt lat="40.86833" lon="-3.946711">
        <ele>2100.42041194833</ele>
        <time>2018-06-30T12:19:01.008Z</time>
      </trkpt>
      <trkpt lat="40.868289" lon="-3.94673">
        <ele>2100</ele>
        <time>2018-06-30T12:19:03.008Z</time>
      </trkpt>
      <trkpt lat="40.868249" lon="-3.946755">
        <ele>2100</ele>
        <time>2018-06-30T12:19:05.008Z</time>
      </trkpt>
      <trkpt lat="40.868209" lon="-3.94677">
        <ele>2100</ele>
        <time>2018-06-30T12:19:07.008Z</time>
      </trkpt>
      <trkpt lat="40.868168" lon="-3.94678">
        <ele>2100</ele>
        <time>2018-06-30T12:19:09.008Z</time>
      </trkpt>
      <trkpt lat="40.868126" lon="-3.946783">
        <ele>2100.58383326438</ele>
        <time>2018-06-30T12:19:11.008Z</time>
      </trkpt>
      <trkpt lat="40.868086" lon="-3.946785">
        <ele>2101</ele>
        <time>2018-06-30T12:19:13.008Z</time>
      </trkpt>
      <trkpt lat="40.868048" lon="-3.946791">
        <ele>2101</ele>
        <time>2018-06-30T12:19:15.008Z</time>
      </trkpt>
      <trkpt lat="40.86801" lon="-3.946789">
        <ele>2101</ele>
        <time>2018-06-30T12:19:17.008Z</time>
      </trkpt>
      <trkpt lat="40.867974" lon="-3.946792">
        <ele>2101</ele>
        <time>2018-06-30T12:19:20.008Z</time>
      </trkpt>
      <trkpt lat="40.867945" lon="-3.9468">
        <ele>2101</ele>
        <time>2018-06-30T12:19:25.008Z</time>
      </trkpt>
      <trkpt lat="40.86791" lon="-3.946804">
        <ele>2101</ele>
        <time>2018-06-30T12:19:28.008Z</time>
      </trkpt>
      <trkpt lat="40.867877" lon="-3.946813">
        <ele>2101.57958805167</ele>
        <time>2018-06-30T12:19:31.008Z</time>
      </trkpt>
      <trkpt lat="40.867844" lon="-3.946813">
        <ele>2102</ele>
        <time>2018-06-30T12:19:34.008Z</time>
      </trkpt>
      <trkpt lat="40.86781" lon="-3.946807">
        <ele>2102</ele>
        <time>2018-06-30T12:19:37.008Z</time>
      </trkpt>
      <trkpt lat="40.867781" lon="-3.946789">
        <ele>2102</ele>
        <time>2018-06-30T12:19:40.008Z</time>
      </trkpt>
      <trkpt lat="40.867754" lon="-3.946766">
        <ele>2102</ele>
        <time>2018-06-30T12:19:43.008Z</time>
      </trkpt>
      <trkpt lat="40.867725" lon="-3.946752">
        <ele>2102</ele>
        <time>2018-06-30T12:19:46.008Z</time>
      </trkpt>
      <trkpt lat="40.867671" lon="-3.946744">
        <ele>2102.54221836645</ele>
        <time>2018-06-30T12:19:51.008Z</time>
      </trkpt>
      <trkpt lat="40.867617" lon="-3.946742">
        <ele>2103</ele>
        <time>2018-06-30T12:19:56.008Z</time>
      </trkpt>
      <trkpt lat="40.867558" lon="-3.946741">
        <ele>2105</ele>
        <time>2018-06-30T12:20:02.008Z</time>
      </trkpt>
      <trkpt lat="40.867498" lon="-3.946743">
        <ele>2106</ele>
        <time>2018-06-30T12:20:08.008Z</time>
      </trkpt>
      <trkpt lat="40.867446" lon="-3.946742">
        <ele>2106</ele>
        <time>2018-06-30T12:20:13.008Z</time>
      </trkpt>
      <trkpt lat="40.867391" lon="-3.946736">
        <ele>2106</ele>
        <time>2018-06-30T12:20:18.008Z</time>
      </trkpt>
      <trkpt lat="40.86734" lon="-3.946719">
        <ele>2109</ele>
        <time>2018-06-30T12:20:23.008Z</time>
      </trkpt>
      <trkpt lat="40.867279" lon="-3.946719">
        <ele>2110</ele>
        <time>2018-06-30T12:20:29.008Z</time>
      </trkpt>
      <trkpt lat="40.867227" lon="-3.946718">
        <ele>2110</ele>
        <time>2018-06-30T12:20:34.008Z</time>
      </trkpt>
      <trkpt lat="40.867177" lon="-3.946727">
        <ele>2110</ele>
        <time>2018-06-30T12:20:39.008Z</time>
      </trkpt>
      <trkpt lat="40.867119" lon="-3.946713">
        <ele>2112</ele>
        <time>2018-06-30T12:20:45.008Z</time>
      </trkpt>
      <trkpt lat="40.867067" lon="-3.946732">
        <ele>2113</ele>
        <time>2018-06-30T12:20:50.008Z</time>
      </trkpt>
      <trkpt lat="40.867018" lon="-3.946771">
        <ele>2114</ele>
        <time>2018-06-30T12:20:55.008Z</time>
      </trkpt>
      <trkpt lat="40.86697" lon="-3.946813">
        <ele>2114</ele>
        <time>2018-06-30T12:21:00.008Z</time>
      </trkpt>
      <trkpt lat="40.866913" lon="-3.946795">
        <ele>2115</ele>
        <time>2018-06-30T12:21:06.008Z</time>
      </trkpt>
      <trkpt lat="40.866861" lon="-3.946795">
        <ele>2115.58383326438</ele>
        <time>2018-06-30T12:21:11.008Z</time>
      </trkpt>
      <trkpt lat="40.866815" lon="-3.946833">
        <ele>2116</ele>
        <time>2018-06-30T12:21:16.008Z</time>
      </trkpt>
      <trkpt lat="40.866767" lon="-3.94686">
        <ele>2117.08443673289</ele>
        <time>2018-06-30T12:21:21.008Z</time>
      </trkpt>
      <trkpt lat="40.866713" lon="-3.946876">
        <ele>2118</ele>
        <time>2018-06-30T12:21:26.008Z</time>
      </trkpt>
      <trkpt lat="40.866655" lon="-3.946863">
        <ele>2119</ele>
        <time>2018-06-30T12:21:32.008Z</time>
      </trkpt>
      <trkpt lat="40.866599" lon="-3.94686">
        <ele>2119</ele>
        <time>2018-06-30T12:21:38.008Z</time>
      </trkpt>
      <trkpt lat="40.86655" lon="-3.946849">
        <ele>2121</ele>
        <time>2018-06-30T12:21:43.008Z</time>
      </trkpt>
      <trkpt lat="40.866502" lon="-3.946827">
        <ele>2121</ele>
        <time>2018-06-30T12:21:48.008Z</time>
      </trkpt>
      <trkpt lat="40.866457" lon="-3.946868">
        <ele>2122</ele>
        <time>2018-06-30T12:21:53.008Z</time>
      </trkpt>
      <trkpt lat="40.866409" lon="-3.946862">
        <ele>2122</ele>
        <time>2018-06-30T12:21:58.008Z</time>
      </trkpt>
      <trkpt lat="40.866353" lon="-3.94686">
        <ele>2125</ele>
        <time>2018-06-30T12:22:04.008Z</time>
      </trkpt>
      <trkpt lat="40.866324" lon="-3.946841">
        <ele>2125</ele>
        <time>2018-06-30T12:22:08.008Z</time>
      </trkpt>
      <trkpt lat="40.866279" lon="-3.946849">
        <ele>2126</ele>
        <time>2018-06-30T12:22:13.008Z</time>
      </trkpt>
      <trkpt lat="40.866229" lon="-3.946854">
        <ele>2126</ele>
        <time>2018-06-30T12:22:19.008Z</time>
      </trkpt>
      <trkpt lat="40.866175" lon="-3.946863">
        <ele>2126</ele>
        <time>2018-06-30T12:22:25.008Z</time>
      </trkpt>
      <trkpt lat="40.866123" lon="-3.946855">
        <ele>2128</ele>
        <time>2018-06-30T12:22:32.008Z</time>
      </trkpt>
      <trkpt lat="40.866077" lon="-3.946856">
        <ele>2129</ele>
        <time>2018-06-30T12:22:38.008Z</time>
      </trkpt>
      <trkpt lat="40.866021" lon="-3.946844">
        <ele>2129</ele>
        <time>2018-06-30T12:22:45.008Z</time>
      </trkpt>
      <trkpt lat="40.865966" lon="-3.946827">
        <ele>2131</ele>
        <time>2018-06-30T12:22:52.008Z</time>
      </trkpt>
      <trkpt lat="40.865913" lon="-3.946816">
        <ele>2132</ele>
        <time>2018-06-30T12:22:58.008Z</time>
      </trkpt>
      <trkpt lat="40.865858" lon="-3.946823">
        <ele>2132</ele>
        <time>2018-06-30T12:23:04.008Z</time>
      </trkpt>
      <trkpt lat="40.865804" lon="-3.946824">
        <ele>2132.5821737257</ele>
        <time>2018-06-30T12:23:10.008Z</time>
      </trkpt>
      <trkpt lat="40.865753" lon="-3.946827">
        <ele>2135.5821737257</ele>
        <time>2018-06-30T12:23:16.008Z</time>
      </trkpt>
      <trkpt lat="40.865703" lon="-3.946831">
        <ele>2137</ele>
        <time>2018-06-30T12:23:22.008Z</time>
      </trkpt>
      <trkpt lat="40.865649" lon="-3.946827">
        <ele>2138</ele>
        <time>2018-06-30T12:23:28.008Z</time>
      </trkpt>
      <trkpt lat="40.865601" lon="-3.946828">
        <ele>2138</ele>
        <time>2018-06-30T12:23:33.008Z</time>
      </trkpt>
      <trkpt lat="40.86555" lon="-3.946811">
        <ele>2138</ele>
        <time>2018-06-30T12:23:39.008Z</time>
      </trkpt>
      <trkpt lat="40.865498" lon="-3.946821">
        <ele>2140</ele>
        <time>2018-06-30T12:23:45.008Z</time>
      </trkpt>
      <trkpt lat="40.865452" lon="-3.946819">
        <ele>2141</ele>
        <time>2018-06-30T12:23:50.008Z</time>
      </trkpt>
      <trkpt lat="40.865406" lon="-3.946828">
        <ele>2142</ele>
        <time>2018-06-30T12:23:55.008Z</time>
      </trkpt>
      <trkpt lat="40.865352" lon="-3.946836">
        <ele>2143.57958805167</ele>
        <time>2018-06-30T12:24:01.008Z</time>
      </trkpt>
      <trkpt lat="40.865304" lon="-3.946857">
        <ele>2145</ele>
        <time>2018-06-30T12:24:07.008Z</time>
      </trkpt>
      <trkpt lat="40.865254" lon="-3.94688">
        <ele>2146</ele>
        <time>2018-06-30T12:24:13.008Z</time>
      </trkpt>
      <trkpt lat="40.8652" lon="-3.946902">
        <ele>2146</ele>
        <time>2018-06-30T12:24:19.008Z</time>
      </trkpt>
      <trkpt lat="40.865148" lon="-3.946901">
        <ele>2148</ele>
        <time>2018-06-30T12:24:26.008Z</time>
      </trkpt>
      <trkpt lat="40.865102" lon="-3.946934">
        <ele>2150</ele>
        <time>2018-06-30T12:24:34.008Z</time>
      </trkpt>
      <trkpt lat="40.865054" lon="-3.946959">
        <ele>2150</ele>
        <time>2018-06-30T12:24:43.008Z</time>
      </trkpt>
      <trkpt lat="40.865004" lon="-3.946985">
        <ele>2151.08443673289</ele>
        <time>2018-06-30T12:24:51.008Z</time>
      </trkpt>
      <trkpt lat="40.864952" lon="-3.947018">
        <ele>2152</ele>
        <time>2018-06-30T12:24:58.008Z</time>
      </trkpt>
      <trkpt lat="40.864895" lon="-3.947048">
        <ele>2153</ele>
        <time>2018-06-30T12:25:05.008Z</time>
      </trkpt>
      <trkpt lat="40.864841" lon="-3.947058">
        <ele>2153.58383326438</ele>
        <time>2018-06-30T12:25:11.008Z</time>
      </trkpt>
      <trkpt lat="40.864795" lon="-3.947084">
        <ele>2154</ele>
        <time>2018-06-30T12:25:17.008Z</time>
      </trkpt>
      <trkpt lat="40.86474" lon="-3.947095">
        <ele>2156</ele>
        <time>2018-06-30T12:25:24.008Z</time>
      </trkpt>
      <trkpt lat="40.86469" lon="-3.947112">
        <ele>2156</ele>
        <time>2018-06-30T12:25:30.008Z</time>
      </trkpt>
      <trkpt lat="40.864639" lon="-3.947119">
        <ele>2157</ele>
        <time>2018-06-30T12:25:36.008Z</time>
      </trkpt>
      <trkpt lat="40.864584" lon="-3.947126">
        <ele>2159</ele>
        <time>2018-06-30T12:25:42.008Z</time>
      </trkpt>
      <trkpt lat="40.86453" lon="-3.947111">
        <ele>2159</ele>
        <time>2018-06-30T12:25:48.008Z</time>
      </trkpt>
      <trkpt lat="40.864483" lon="-3.947119">
        <ele>2159</ele>
        <time>2018-06-30T12:25:53.008Z</time>
      </trkpt>
      <trkpt lat="40.864445" lon="-3.947138">
        <ele>2159</ele>
        <time>2018-06-30T12:25:58.008Z</time>
      </trkpt>
      <trkpt lat="40.864396" lon="-3.947161">
        <ele>2161</ele>
        <time>2018-06-30T12:26:05.008Z</time>
      </trkpt>
      <trkpt lat="40.864347" lon="-3.947179">
        <ele>2161.58383326438</ele>
        <time>2018-06-30T12:26:11.008Z</time>
      </trkpt>
      <trkpt lat="40.864303" lon="-3.947199">
        <ele>2162</ele>
        <time>2018-06-30T12:26:17.008Z</time>
      </trkpt>
      <trkpt lat="40.86426" lon="-3.947217">
        <ele>2164</ele>
        <time>2018-06-30T12:26:22.008Z</time>
      </trkpt>
      <trkpt lat="40.864208" lon="-3.947247">
        <ele>2164</ele>
        <time>2018-06-30T12:26:28.008Z</time>
      </trkpt>
      <trkpt lat="40.864155" lon="-3.94728">
        <ele>2164</ele>
        <time>2018-06-30T12:26:34.008Z</time>
      </trkpt>
      <trkpt lat="40.864111" lon="-3.947311">
        <ele>2164</ele>
        <time>2018-06-30T12:26:39.008Z</time>
      </trkpt>
      <trkpt lat="40.864063" lon="-3.947342">
        <ele>2165</ele>
        <time>2018-06-30T12:26:45.008Z</time>
      </trkpt>
      <trkpt lat="40.864012" lon="-3.947374">
        <ele>2165.54221836645</ele>
        <time>2018-06-30T12:26:51.008Z</time>
      </trkpt>
      <trkpt lat="40.863964" lon="-3.947418">
        <ele>2166.54221836645</ele>
        <time>2018-06-30T12:26:57.008Z</time>
      </trkpt>
      <trkpt lat="40.863916" lon="-3.947461">
        <ele>2169</ele>
        <time>2018-06-30T12:27:04.008Z</time>
      </trkpt>
      <trkpt lat="40.863867" lon="-3.94744">
        <ele>2170</ele>
        <time>2018-06-30T12:27:10.008Z</time>
      </trkpt>
      <trkpt lat="40.863817" lon="-3.947434">
        <ele>2171</ele>
        <time>2018-06-30T12:27:16.008Z</time>
      </trkpt>
      <trkpt lat="40.863763" lon="-3.947426">
        <ele>2171</ele>
        <time>2018-06-30T12:27:23.008Z</time>
      </trkpt>
      <trkpt lat="40.863708" lon="-3.947422">
        <ele>2171</ele>
        <time>2018-06-30T12:27:29.008Z</time>
      </trkpt>
      <trkpt lat="40.863661" lon="-3.947396">
        <ele>2173</ele>
        <time>2018-06-30T12:27:34.008Z</time>
      </trkpt>
      <trkpt lat="40.863611" lon="-3.947367">
        <ele>2172</ele>
        <time>2018-06-30T12:27:40.008Z</time>
      </trkpt>
      <trkpt lat="40.863563" lon="-3.94735">
        <ele>2173</ele>
        <time>2018-06-30T12:27:45.008Z</time>
      </trkpt>
      <trkpt lat="40.863517" lon="-3.947329">
        <ele>2173</ele>
        <time>2018-06-30T12:27:50.008Z</time>
      </trkpt>
      <trkpt lat="40.863467" lon="-3.947295">
        <ele>2174</ele>
        <time>2018-06-30T12:27:56.008Z</time>
      </trkpt>
      <trkpt lat="40.863422" lon="-3.947278">
        <ele>2174.57958805167</ele>
        <time>2018-06-30T12:28:01.008Z</time>
      </trkpt>
      <trkpt lat="40.863375" lon="-3.947263">
        <ele>2175</ele>
        <time>2018-06-30T12:28:06.008Z</time>
      </trkpt>
      <trkpt lat="40.863323" lon="-3.947239">
        <ele>2175</ele>
        <time>2018-06-30T12:28:11.008Z</time>
      </trkpt>
      <trkpt lat="40.863273" lon="-3.947228">
        <ele>2175</ele>
        <time>2018-06-30T12:28:16.008Z</time>
      </trkpt>
      <trkpt lat="40.863215" lon="-3.947215">
        <ele>2177</ele>
        <time>2018-06-30T12:28:22.008Z</time>
      </trkpt>
      <trkpt lat="40.863169" lon="-3.947213">
        <ele>2177</ele>
        <time>2018-06-30T12:28:27.008Z</time>
      </trkpt>
      <trkpt lat="40.86312" lon="-3.947205">
        <ele>2177</ele>
        <time>2018-06-30T12:28:32.008Z</time>
      </trkpt>
      <trkpt lat="40.863075" lon="-3.94716">
        <ele>2177</ele>
        <time>2018-06-30T12:28:37.008Z</time>
      </trkpt>
      <trkpt lat="40.863019" lon="-3.947126">
        <ele>2178</ele>
        <time>2018-06-30T12:28:42.008Z</time>
      </trkpt>
      <trkpt lat="40.862971" lon="-3.94709">
        <ele>2178</ele>
        <time>2018-06-30T12:28:47.008Z</time>
      </trkpt>
      <trkpt lat="40.862924" lon="-3.947069">
        <ele>2178</ele>
        <time>2018-06-30T12:28:52.008Z</time>
      </trkpt>
      <trkpt lat="40.862876" lon="-3.947042">
        <ele>2178</ele>
        <time>2018-06-30T12:28:57.008Z</time>
      </trkpt>
      <trkpt lat="40.862828" lon="-3.947009">
        <ele>2178</ele>
        <time>2018-06-30T12:29:02.008Z</time>
      </trkpt>
      <trkpt lat="40.862779" lon="-3.946987">
        <ele>2178</ele>
        <time>2018-06-30T12:29:07.008Z</time>
      </trkpt>
      <trkpt lat="40.86273" lon="-3.946961">
        <ele>2178.58383326438</ele>
        <time>2018-06-30T12:29:11.008Z</time>
      </trkpt>
      <trkpt lat="40.862674" lon="-3.946933">
        <ele>2179</ele>
        <time>2018-06-30T12:29:16.008Z</time>
      </trkpt>
      <trkpt lat="40.862623" lon="-3.946916">
        <ele>2180.08443673289</ele>
        <time>2018-06-30T12:29:21.008Z</time>
      </trkpt>
      <trkpt lat="40.862576" lon="-3.946896">
        <ele>2181</ele>
        <time>2018-06-30T12:29:25.008Z</time>
      </trkpt>
      <trkpt lat="40.862512" lon="-3.946883">
        <ele>2180.42041194833</ele>
        <time>2018-06-30T12:29:31.008Z</time>
      </trkpt>
      <trkpt lat="40.862452" lon="-3.946855">
        <ele>2180</ele>
        <time>2018-06-30T12:29:36.008Z</time>
      </trkpt>
      <trkpt lat="40.862384" lon="-3.946839">
        <ele>2179</ele>
        <time>2018-06-30T12:29:42.008Z</time>
      </trkpt>
      <trkpt lat="40.862335" lon="-3.946822">
        <ele>2179</ele>
        <time>2018-06-30T12:29:47.008Z</time>
      </trkpt>
      <trkpt lat="40.862274" lon="-3.946812">
        <ele>2180</ele>
        <time>2018-06-30T12:29:53.008Z</time>
      </trkpt>
      <trkpt lat="40.862212" lon="-3.946781">
        <ele>2180</ele>
        <time>2018-06-30T12:29:59.008Z</time>
      </trkpt>
      <trkpt lat="40.862151" lon="-3.946758">
        <ele>2180</ele>
        <time>2018-06-30T12:30:04.008Z</time>
      </trkpt>
      <trkpt lat="40.862094" lon="-3.946761">
        <ele>2180</ele>
        <time>2018-06-30T12:30:09.008Z</time>
      </trkpt>
      <trkpt lat="40.862037" lon="-3.946742">
        <ele>2180</ele>
        <time>2018-06-30T12:30:15.008Z</time>
      </trkpt>
      <trkpt lat="40.861984" lon="-3.946751">
        <ele>2180.54221836645</ele>
        <time>2018-06-30T12:30:21.008Z</time>
      </trkpt>
      <trkpt lat="40.861932" lon="-3.946742">
        <ele>2181</ele>
        <time>2018-06-30T12:31:09.008Z</time>
      </trkpt>
      <trkpt lat="40.861873" lon="-3.946715">
        <ele>2182</ele>
        <time>2018-06-30T12:31:12.008Z</time>
      </trkpt>
      <trkpt lat="40.861813" lon="-3.946693">
        <ele>2182</ele>
        <time>2018-06-30T12:31:15.008Z</time>
      </trkpt>
      <trkpt lat="40.861748" lon="-3.946686">
        <ele>2182</ele>
        <time>2018-06-30T12:31:18.008Z</time>
      </trkpt>
      <trkpt lat="40.861684" lon="-3.946695">
        <ele>2182</ele>
        <time>2018-06-30T12:31:21.008Z</time>
      </trkpt>
      <trkpt lat="40.861624" lon="-3.946715">
        <ele>2182</ele>
        <time>2018-06-30T12:31:24.008Z</time>
      </trkpt>
      <trkpt lat="40.861561" lon="-3.946742">
        <ele>2182</ele>
        <time>2018-06-30T12:31:28.008Z</time>
      </trkpt>
      <trkpt lat="40.861501" lon="-3.94678">
        <ele>2179</ele>
        <time>2018-06-30T12:31:33.008Z</time>
      </trkpt>
      <trkpt lat="40.861443" lon="-3.946799">
        <ele>2177</ele>
        <time>2018-06-30T12:31:37.008Z</time>
      </trkpt>
      <trkpt lat="40.861386" lon="-3.946821">
        <ele>2177</ele>
        <time>2018-06-30T12:31:40.008Z</time>
      </trkpt>
      <trkpt lat="40.861332" lon="-3.946861">
        <ele>2177</ele>
        <time>2018-06-30T12:31:44.008Z</time>
      </trkpt>
      <trkpt lat="40.861306" lon="-3.946893">
        <ele>2177</ele>
        <time>2018-06-30T12:31:47.008Z</time>
      </trkpt>
      <trkpt lat="40.861284" lon="-3.946931">
        <ele>2177</ele>
        <time>2018-06-30T12:31:50.008Z</time>
      </trkpt>
      <trkpt lat="40.861267" lon="-3.946969">
        <ele>2177</ele>
        <time>2018-06-30T12:31:53.008Z</time>
      </trkpt>
      <trkpt lat="40.861251" lon="-3.947007">
        <ele>2177</ele>
        <time>2018-06-30T12:31:56.008Z</time>
      </trkpt>
      <trkpt lat="40.861234" lon="-3.947048">
        <ele>2177</ele>
        <time>2018-06-30T12:31:59.008Z</time>
      </trkpt>
      <trkpt lat="40.861223" lon="-3.947085">
        <ele>2178</ele>
        <time>2018-06-30T12:32:02.008Z</time>
      </trkpt>
      <trkpt lat="40.86122" lon="-3.947127">
        <ele>2178</ele>
        <time>2018-06-30T12:32:06.008Z</time>
      </trkpt>
      <trkpt lat="40.861213" lon="-3.947172">
        <ele>2178</ele>
        <time>2018-06-30T12:32:10.008Z</time>
      </trkpt>
      <trkpt lat="40.861234" lon="-3.947223">
        <ele>2179</ele>
        <time>2018-06-30T12:32:16.008Z</time>
      </trkpt>
      <trkpt lat="40.861245" lon="-3.947266">
        <ele>2180.62665509934</ele>
        <time>2018-06-30T12:32:21.008Z</time>
      </trkpt>
      <trkpt lat="40.861264" lon="-3.947306">
        <ele>2184</ele>
        <time>2018-06-30T12:32:27.008Z</time>
      </trkpt>
      <trkpt lat="40.861305" lon="-3.947362">
        <ele>2186</ele>
        <time>2018-06-30T12:32:39.008Z</time>
      </trkpt>
      <trkpt lat="40.861301" lon="-3.947408">
        <ele>2187</ele>
        <time>2018-06-30T12:32:44.008Z</time>
      </trkpt>
      <trkpt lat="40.8613" lon="-3.947461">
        <ele>2187</ele>
        <time>2018-06-30T12:32:50.008Z</time>
      </trkpt>
      <trkpt lat="40.861325" lon="-3.947541">
        <ele>2188</ele>
        <time>2018-06-30T12:32:59.008Z</time>
      </trkpt>
      <trkpt lat="40.86135" lon="-3.947609">
        <ele>2191.15293586156</ele>
        <time>2018-06-30T12:33:06.008Z</time>
      </trkpt>
      <trkpt lat="40.861343" lon="-3.947664">
        <ele>2192.58383326438</ele>
        <time>2018-06-30T12:33:11.008Z</time>
      </trkpt>
      <trkpt lat="40.861335" lon="-3.947707">
        <ele>2193</ele>
        <time>2018-06-30T12:33:15.008Z</time>
      </trkpt>
      <trkpt lat="40.861325" lon="-3.94775">
        <ele>2195</ele>
        <time>2018-06-30T12:33:19.008Z</time>
      </trkpt>
      <trkpt lat="40.861297" lon="-3.947799">
        <ele>2195</ele>
        <time>2018-06-30T12:33:25.008Z</time>
      </trkpt>
      <trkpt lat="40.861298" lon="-3.947847">
        <ele>2196</ele>
        <time>2018-06-30T12:33:30.008Z</time>
      </trkpt>
      <trkpt lat="40.861266" lon="-3.947924">
        <ele>2198</ele>
        <time>2018-06-30T12:33:38.008Z</time>
      </trkpt>
      <trkpt lat="40.861253" lon="-3.947971">
        <ele>2200</ele>
        <time>2018-06-30T12:33:43.008Z</time>
      </trkpt>
      <trkpt lat="40.861247" lon="-3.948015">
        <ele>2201</ele>
        <time>2018-06-30T12:33:47.008Z</time>
      </trkpt>
      <trkpt lat="40.861241" lon="-3.948056">
        <ele>2202.08443673289</ele>
        <time>2018-06-30T12:33:51.008Z</time>
      </trkpt>
      <trkpt lat="40.861238" lon="-3.948107">
        <ele>2203.53454274643</ele>
        <time>2018-06-30T12:33:56.008Z</time>
      </trkpt>
      <trkpt lat="40.861194" lon="-3.948172">
        <ele>2204</ele>
        <time>2018-06-30T12:34:06.008Z</time>
      </trkpt>
      <trkpt lat="40.861173" lon="-3.948214">
        <ele>2205.16766652875</ele>
        <time>2018-06-30T12:34:11.008Z</time>
      </trkpt>
      <trkpt lat="40.861148" lon="-3.948264">
        <ele>2207</ele>
        <time>2018-06-30T12:34:17.008Z</time>
      </trkpt>
      <trkpt lat="40.861115" lon="-3.94831">
        <ele>2208</ele>
        <time>2018-06-30T12:34:23.008Z</time>
      </trkpt>
      <trkpt lat="40.861116" lon="-3.948372">
        <ele>2209</ele>
        <time>2018-06-30T12:34:30.008Z</time>
      </trkpt>
      <trkpt lat="40.861107" lon="-3.948422">
        <ele>2211</ele>
        <time>2018-06-30T12:34:35.008Z</time>
      </trkpt>
      <trkpt lat="40.861082" lon="-3.948471">
        <ele>2213</ele>
        <time>2018-06-30T12:34:40.008Z</time>
      </trkpt>
      <trkpt lat="40.86104" lon="-3.948538">
        <ele>2215</ele>
        <time>2018-06-30T12:34:49.008Z</time>
      </trkpt>
      <trkpt lat="40.861024" lon="-3.948583">
        <ele>2214</ele>
        <time>2018-06-30T12:34:55.008Z</time>
      </trkpt>
      <trkpt lat="40.861024" lon="-3.94864">
        <ele>2214</ele>
        <time>2018-06-30T12:35:01.008Z</time>
      </trkpt>
      <trkpt lat="40.860981" lon="-3.948692">
        <ele>2214</ele>
        <time>2018-06-30T12:35:10.008Z</time>
      </trkpt>
      <trkpt lat="40.860953" lon="-3.948732">
        <ele>2216.5821737257</ele>
        <time>2018-06-30T12:35:16.008Z</time>
      </trkpt>
      <trkpt lat="40.860915" lon="-3.948775">
        <ele>2218</ele>
        <time>2018-06-30T12:35:25.008Z</time>
      </trkpt>
      <trkpt lat="40.86088" lon="-3.948796">
        <ele>2221</ele>
        <time>2018-06-30T12:35:33.008Z</time>
      </trkpt>
      <trkpt lat="40.860846" lon="-3.948834">
        <ele>2223.58383326438</ele>
        <time>2018-06-30T12:35:41.008Z</time>
      </trkpt>
      <trkpt lat="40.860821" lon="-3.948894">
        <ele>2224</ele>
        <time>2018-06-30T12:35:49.008Z</time>
      </trkpt>
      <trkpt lat="40.860789" lon="-3.948934">
        <ele>2224</ele>
        <time>2018-06-30T12:35:55.008Z</time>
      </trkpt>
      <trkpt lat="40.860773" lon="-3.948986">
        <ele>2225.15917610334</ele>
        <time>2018-06-30T12:36:01.008Z</time>
      </trkpt>
      <trkpt lat="40.860759" lon="-3.949039">
        <ele>2226</ele>
        <time>2018-06-30T12:36:07.008Z</time>
      </trkpt>
      <trkpt lat="40.860729" lon="-3.949084">
        <ele>2227</ele>
        <time>2018-06-30T12:36:14.008Z</time>
      </trkpt>
      <trkpt lat="40.860677" lon="-3.949132">
        <ele>2226</ele>
        <time>2018-06-30T12:36:25.008Z</time>
      </trkpt>
      <trkpt lat="40.860654" lon="-3.949174">
        <ele>2226</ele>
        <time>2018-06-30T12:36:30.008Z</time>
      </trkpt>
      <trkpt lat="40.860644" lon="-3.949231">
        <ele>2226</ele>
        <time>2018-06-30T12:36:36.008Z</time>
      </trkpt>
      <trkpt lat="40.860629" lon="-3.949288">
        <ele>2228</ele>
        <time>2018-06-30T12:36:42.008Z</time>
      </trkpt>
      <trkpt lat="40.860595" lon="-3.949351">
        <ele>2228</ele>
        <time>2018-06-30T12:36:49.008Z</time>
      </trkpt>
      <trkpt lat="40.860555" lon="-3.94939">
        <ele>2229</ele>
        <time>2018-06-30T12:36:55.008Z</time>
      </trkpt>
      <trkpt lat="40.860525" lon="-3.949446">
        <ele>2229</ele>
        <time>2018-06-30T12:37:01.008Z</time>
      </trkpt>
      <trkpt lat="40.860491" lon="-3.949492">
        <ele>2229</ele>
        <time>2018-06-30T12:37:07.008Z</time>
      </trkpt>
      <trkpt lat="40.860466" lon="-3.949536">
        <ele>2231</ele>
        <time>2018-06-30T12:37:12.008Z</time>
      </trkpt>
      <trkpt lat="40.860445" lon="-3.949576">
        <ele>2231.5821737257</ele>
        <time>2018-06-30T12:37:16.008Z</time>
      </trkpt>
      <trkpt lat="40.860433" lon="-3.949614">
        <ele>2232</ele>
        <time>2018-06-30T12:37:20.008Z</time>
      </trkpt>
      <trkpt lat="40.860415" lon="-3.94965">
        <ele>2232</ele>
        <time>2018-06-30T12:37:24.008Z</time>
      </trkpt>
      <trkpt lat="40.86039" lon="-3.949714">
        <ele>2233</ele>
        <time>2018-06-30T12:37:32.008Z</time>
      </trkpt>
      <trkpt lat="40.860355" lon="-3.949756">
        <ele>2233</ele>
        <time>2018-06-30T12:37:40.008Z</time>
      </trkpt>
      <trkpt lat="40.860333" lon="-3.949782">
        <ele>2235</ele>
        <time>2018-06-30T12:37:46.008Z</time>
      </trkpt>
      <trkpt lat="40.860319" lon="-3.94981">
        <ele>2237</ele>
        <time>2018-06-30T12:37:52.008Z</time>
      </trkpt>
      <trkpt lat="40.860298" lon="-3.949853">
        <ele>2237</ele>
        <time>2018-06-30T12:38:00.008Z</time>
      </trkpt>
      <trkpt lat="40.860256" lon="-3.949909">
        <ele>2238</ele>
        <time>2018-06-30T12:38:10.008Z</time>
      </trkpt>
      <trkpt lat="40.86023" lon="-3.949925">
        <ele>2240</ele>
        <time>2018-06-30T12:38:14.008Z</time>
      </trkpt>
      <trkpt lat="40.860195" lon="-3.94992">
        <ele>2240</ele>
        <time>2018-06-30T12:38:19.008Z</time>
      </trkpt>
      <trkpt lat="40.860166" lon="-3.949925">
        <ele>2241</ele>
        <time>2018-06-30T12:38:24.008Z</time>
      </trkpt>
      <trkpt lat="40.860108" lon="-3.949967">
        <ele>2241</ele>
        <time>2018-06-30T12:38:35.008Z</time>
      </trkpt>
      <trkpt lat="40.860056" lon="-3.949975">
        <ele>2241</ele>
        <time>2018-06-30T12:38:41.008Z</time>
      </trkpt>
      <trkpt lat="40.860024" lon="-3.949974">
        <ele>2241</ele>
        <time>2018-06-30T12:38:44.008Z</time>
      </trkpt>
      <trkpt lat="40.859966" lon="-3.950003">
        <ele>2242</ele>
        <time>2018-06-30T12:38:52.008Z</time>
      </trkpt>
      <trkpt lat="40.859923" lon="-3.950058">
        <ele>2243</ele>
        <time>2018-06-30T12:39:03.008Z</time>
      </trkpt>
      <trkpt lat="40.85989" lon="-3.950118">
        <ele>2245</ele>
        <time>2018-06-30T12:39:15.008Z</time>
      </trkpt>
      <trkpt lat="40.85986" lon="-3.950127">
        <ele>2246</ele>
        <time>2018-06-30T12:39:20.008Z</time>
      </trkpt>
      <trkpt lat="40.859813" lon="-3.950168">
        <ele>2246</ele>
        <time>2018-06-30T12:39:28.008Z</time>
      </trkpt>
      <trkpt lat="40.859772" lon="-3.95022">
        <ele>2250.15293586156</ele>
        <time>2018-06-30T12:39:36.008Z</time>
      </trkpt>
      <trkpt lat="40.859768" lon="-3.950264">
        <ele>2251.58383326438</ele>
        <time>2018-06-30T12:39:41.008Z</time>
      </trkpt>
      <trkpt lat="40.859757" lon="-3.950343">
        <ele>2252</ele>
        <time>2018-06-30T12:39:49.008Z</time>
      </trkpt>
      <trkpt lat="40.859703" lon="-3.95038">
        <ele>2253</ele>
        <time>2018-06-30T12:39:57.008Z</time>
      </trkpt>
      <trkpt lat="40.85968" lon="-3.95043">
        <ele>2255</ele>
        <time>2018-06-30T12:40:03.008Z</time>
      </trkpt>
      <trkpt lat="40.859673" lon="-3.95049">
        <ele>2255</ele>
        <time>2018-06-30T12:40:09.008Z</time>
      </trkpt>
      <trkpt lat="40.859661" lon="-3.950542">
        <ele>2256</ele>
        <time>2018-06-30T12:40:14.008Z</time>
      </trkpt>
      <trkpt lat="40.859648" lon="-3.950589">
        <ele>2256</ele>
        <time>2018-06-30T12:40:18.008Z</time>
      </trkpt>
      <trkpt lat="40.859632" lon="-3.950643">
        <ele>2256</ele>
        <time>2018-06-30T12:40:22.008Z</time>
      </trkpt>
      <trkpt lat="40.85961" lon="-3.950678">
        <ele>2256</ele>
        <time>2018-06-30T12:40:25.008Z</time>
      </trkpt>
      <trkpt lat="40.859584" lon="-3.950706">
        <ele>2256</ele>
        <time>2018-06-30T12:40:28.008Z</time>
      </trkpt>
      <trkpt lat="40.859563" lon="-3.950735">
        <ele>2256</ele>
        <time>2018-06-30T12:40:31.008Z</time>
      </trkpt>
      <trkpt lat="40.859542" lon="-3.950765">
        <ele>2256</ele>
        <time>2018-06-30T12:40:34.008Z</time>
      </trkpt>
      <trkpt lat="40.859521" lon="-3.950795">
        <ele>2256</ele>
        <time>2018-06-30T12:40:37.008Z</time>
      </trkpt>
      <trkpt lat="40.859495" lon="-3.950837">
        <ele>2256</ele>
        <time>2018-06-30T12:40:41.008Z</time>
      </trkpt>
      <trkpt lat="40.859469" lon="-3.950866">
        <ele>2256</ele>
        <time>2018-06-30T12:40:44.008Z</time>
      </trkpt>
      <trkpt lat="40.85945" lon="-3.950911">
        <ele>2256</ele>
        <time>2018-06-30T12:40:47.008Z</time>
      </trkpt>
      <trkpt lat="40.859423" lon="-3.950947">
        <ele>2256</ele>
        <time>2018-06-30T12:40:50.008Z</time>
      </trkpt>
      <trkpt lat="40.859409" lon="-3.950989">
        <ele>2257</ele>
        <time>2018-06-30T12:40:53.008Z</time>
      </trkpt>
      <trkpt lat="40.859393" lon="-3.951027">
        <ele>2257</ele>
        <time>2018-06-30T12:40:56.008Z</time>
      </trkpt>
      <trkpt lat="40.859367" lon="-3.951074">
        <ele>2257</ele>
        <time>2018-06-30T12:41:00.008Z</time>
      </trkpt>
      <trkpt lat="40.859336" lon="-3.951119">
        <ele>2256</ele>
        <time>2018-06-30T12:41:05.008Z</time>
      </trkpt>
      <trkpt lat="40.85931" lon="-3.951156">
        <ele>2256</ele>
        <time>2018-06-30T12:41:09.008Z</time>
      </trkpt>
      <trkpt lat="40.859276" lon="-3.951178">
        <ele>2258</ele>
        <time>2018-06-30T12:41:13.008Z</time>
      </trkpt>
      <trkpt lat="40.859236" lon="-3.951189">
        <ele>2257</ele>
        <time>2018-06-30T12:41:17.008Z</time>
      </trkpt>
      <trkpt lat="40.859206" lon="-3.951198">
        <ele>2257</ele>
        <time>2018-06-30T12:41:20.008Z</time>
      </trkpt>
      <trkpt lat="40.859177" lon="-3.951207">
        <ele>2258</ele>
        <time>2018-06-30T12:41:23.008Z</time>
      </trkpt>
      <trkpt lat="40.859149" lon="-3.951223">
        <ele>2258</ele>
        <time>2018-06-30T12:41:26.008Z</time>
      </trkpt>
      <trkpt lat="40.859124" lon="-3.951244">
        <ele>2258</ele>
        <time>2018-06-30T12:41:30.008Z</time>
      </trkpt>
      <trkpt lat="40.859094" lon="-3.95126">
        <ele>2258</ele>
        <time>2018-06-30T12:41:34.008Z</time>
      </trkpt>
      <trkpt lat="40.859072" lon="-3.951261">
        <ele>2258</ele>
        <time>2018-06-30T12:41:37.008Z</time>
      </trkpt>
      <trkpt lat="40.859044" lon="-3.951269">
        <ele>2259.16766652875</ele>
        <time>2018-06-30T12:41:41.008Z</time>
      </trkpt>
      <trkpt lat="40.859023" lon="-3.951285">
        <ele>2260</ele>
        <time>2018-06-30T12:41:44.008Z</time>
      </trkpt>
      <trkpt lat="40.858999" lon="-3.95129">
        <ele>2260</ele>
        <time>2018-06-30T12:41:47.008Z</time>
      </trkpt>
      <trkpt lat="40.85897" lon="-3.951291">
        <ele>2260</ele>
        <time>2018-06-30T12:41:51.008Z</time>
      </trkpt>
      <trkpt lat="40.858937" lon="-3.951296">
        <ele>2260</ele>
        <time>2018-06-30T12:41:57.008Z</time>
      </trkpt>
      <trkpt lat="40.858904" lon="-3.951303">
        <ele>2263</ele>
        <time>2018-06-30T12:42:02.008Z</time>
      </trkpt>
      <trkpt lat="40.858877" lon="-3.951314">
        <ele>2263</ele>
        <time>2018-06-30T12:42:06.008Z</time>
      </trkpt>
      <trkpt lat="40.858855" lon="-3.951317">
        <ele>2263</ele>
        <time>2018-06-30T12:42:09.008Z</time>
      </trkpt>
      <trkpt lat="40.858833" lon="-3.95134">
        <ele>2265</ele>
        <time>2018-06-30T12:42:13.008Z</time>
      </trkpt>
      <trkpt lat="40.858822" lon="-3.951367">
        <ele>2265</ele>
        <time>2018-06-30T12:42:16.008Z</time>
      </trkpt>
      <trkpt lat="40.858803" lon="-3.951387">
        <ele>2265</ele>
        <time>2018-06-30T12:42:20.008Z</time>
      </trkpt>
      <trkpt lat="40.858775" lon="-3.951383">
        <ele>2267</ele>
        <time>2018-06-30T12:42:28.008Z</time>
      </trkpt>
      <trkpt lat="40.858726" lon="-3.951415">
        <ele>2267</ele>
        <time>2018-06-30T12:42:39.008Z</time>
      </trkpt>
      <trkpt lat="40.858692" lon="-3.951441">
        <ele>2268</ele>
        <time>2018-06-30T12:42:46.008Z</time>
      </trkpt>
      <trkpt lat="40.858665" lon="-3.951471">
        <ele>2269.08443673289</ele>
        <time>2018-06-30T12:42:51.008Z</time>
      </trkpt>
      <trkpt lat="40.858607" lon="-3.951508">
        <ele>2272</ele>
        <time>2018-06-30T12:43:03.008Z</time>
      </trkpt>
      <trkpt lat="40.858556" lon="-3.951561">
        <ele>2272</ele>
        <time>2018-06-30T12:43:13.008Z</time>
      </trkpt>
      <trkpt lat="40.858525" lon="-3.95153">
        <ele>2274</ele>
        <time>2018-06-30T12:43:23.008Z</time>
      </trkpt>
      <trkpt lat="40.858473" lon="-3.95154">
        <ele>2277</ele>
        <time>2018-06-30T12:43:32.008Z</time>
      </trkpt>
      <trkpt lat="40.858443" lon="-3.951518">
        <ele>2277.57958805167</ele>
        <time>2018-06-30T12:43:37.008Z</time>
      </trkpt>
      <trkpt lat="40.858416" lon="-3.95152">
        <ele>2280</ele>
        <time>2018-06-30T12:43:42.008Z</time>
      </trkpt>
      <trkpt lat="40.858391" lon="-3.951535">
        <ele>2282</ele>
        <time>2018-06-30T12:43:47.008Z</time>
      </trkpt>
      <trkpt lat="40.858365" lon="-3.951556">
        <ele>2281</ele>
        <time>2018-06-30T12:43:52.008Z</time>
      </trkpt>
      <trkpt lat="40.858341" lon="-3.951564">
        <ele>2281</ele>
        <time>2018-06-30T12:43:58.008Z</time>
      </trkpt>
      <trkpt lat="40.858308" lon="-3.951568">
        <ele>2283</ele>
        <time>2018-06-30T12:44:06.008Z</time>
      </trkpt>
      <trkpt lat="40.858269" lon="-3.951612">
        <ele>2283</ele>
        <time>2018-06-30T12:44:16.008Z</time>
      </trkpt>
      <trkpt lat="40.858236" lon="-3.951645">
        <ele>2283</ele>
        <time>2018-06-30T12:44:26.008Z</time>
      </trkpt>
      <trkpt lat="40.858184" lon="-3.951672">
        <ele>2288</ele>
        <time>2018-06-30T12:44:42.008Z</time>
      </trkpt>
      <trkpt lat="40.858159" lon="-3.95171">
        <ele>2288</ele>
        <time>2018-06-30T12:45:03.008Z</time>
      </trkpt>
      <trkpt lat="40.858126" lon="-3.951728">
        <ele>2290</ele>
        <time>2018-06-30T12:45:21.008Z</time>
      </trkpt>
      <trkpt lat="40.858096" lon="-3.951715">
        <ele>2290</ele>
        <time>2018-06-30T12:45:38.008Z</time>
      </trkpt>
      <trkpt lat="40.858075" lon="-3.951692">
        <ele>2293.5821737257</ele>
        <time>2018-06-30T12:45:46.008Z</time>
      </trkpt>
      <trkpt lat="40.858046" lon="-3.951678">
        <ele>2294</ele>
        <time>2018-06-30T12:45:52.008Z</time>
      </trkpt>
      <trkpt lat="40.858016" lon="-3.951702">
        <ele>2296</ele>
        <time>2018-06-30T12:46:02.008Z</time>
      </trkpt>
      <trkpt lat="40.857991" lon="-3.951709">
        <ele>2297</ele>
        <time>2018-06-30T12:46:10.008Z</time>
      </trkpt>
      <trkpt lat="40.857965" lon="-3.951702">
        <ele>2297</ele>
        <time>2018-06-30T12:46:17.008Z</time>
      </trkpt>
      <trkpt lat="40.857904" lon="-3.951726">
        <ele>2302</ele>
        <time>2018-06-30T12:46:35.008Z</time>
      </trkpt>
      <trkpt lat="40.857879" lon="-3.951743">
        <ele>2303</ele>
        <time>2018-06-30T12:46:40.008Z</time>
      </trkpt>
      <trkpt lat="40.857861" lon="-3.95177">
        <ele>2305.5821737257</ele>
        <time>2018-06-30T12:46:46.008Z</time>
      </trkpt>
      <trkpt lat="40.857814" lon="-3.951804">
        <ele>2309</ele>
        <time>2018-06-30T12:47:02.008Z</time>
      </trkpt>
      <trkpt lat="40.857774" lon="-3.951818">
        <ele>2311</ele>
        <time>2018-06-30T12:47:15.008Z</time>
      </trkpt>
      <trkpt lat="40.857731" lon="-3.951786">
        <ele>2314</ele>
        <time>2018-06-30T12:47:26.008Z</time>
      </trkpt>
      <trkpt lat="40.8577" lon="-3.951747">
        <ele>2316</ele>
        <time>2018-06-30T12:47:34.008Z</time>
      </trkpt>
      <trkpt lat="40.857672" lon="-3.951773">
        <ele>2318</ele>
        <time>2018-06-30T12:47:45.008Z</time>
      </trkpt>
      <trkpt lat="40.857646" lon="-3.951768">
        <ele>2319.08443673289</ele>
        <time>2018-06-30T12:47:51.008Z</time>
      </trkpt>
      <trkpt lat="40.85761" lon="-3.951773">
        <ele>2320</ele>
        <time>2018-06-30T12:47:58.008Z</time>
      </trkpt>
      <trkpt lat="40.85758" lon="-3.951787">
        <ele>2323.15293586156</ele>
        <time>2018-06-30T12:48:06.008Z</time>
      </trkpt>
      <trkpt lat="40.85756" lon="-3.951812">
        <ele>2324</ele>
        <time>2018-06-30T12:48:12.008Z</time>
      </trkpt>
      <trkpt lat="40.857539" lon="-3.951832">
        <ele>2324</ele>
        <time>2018-06-30T12:48:17.008Z</time>
      </trkpt>
      <trkpt lat="40.857513" lon="-3.951843">
        <ele>2326</ele>
        <time>2018-06-30T12:48:23.008Z</time>
      </trkpt>
      <trkpt lat="40.857487" lon="-3.951851">
        <ele>2327</ele>
        <time>2018-06-30T12:48:28.008Z</time>
      </trkpt>
      <trkpt lat="40.857443" lon="-3.95188">
        <ele>2328</ele>
        <time>2018-06-30T12:48:36.008Z</time>
      </trkpt>
      <trkpt lat="40.857409" lon="-3.951892">
        <ele>2329</ele>
        <time>2018-06-30T12:48:42.008Z</time>
      </trkpt>
      <trkpt lat="40.857364" lon="-3.951921">
        <ele>2330.08443673289</ele>
        <time>2018-06-30T12:48:51.008Z</time>
      </trkpt>
      <trkpt lat="40.857326" lon="-3.951974">
        <ele>2332</ele>
        <time>2018-06-30T12:48:59.008Z</time>
      </trkpt>
      <trkpt lat="40.857289" lon="-3.951992">
        <ele>2332</ele>
        <time>2018-06-30T12:49:04.008Z</time>
      </trkpt>
      <trkpt lat="40.857249" lon="-3.951981">
        <ele>2332</ele>
        <time>2018-06-30T12:49:10.008Z</time>
      </trkpt>
      <trkpt lat="40.857211" lon="-3.95197">
        <ele>2329</ele>
        <time>2018-06-30T12:49:17.008Z</time>
      </trkpt>
      <trkpt lat="40.857173" lon="-3.951958">
        <ele>2329</ele>
        <time>2018-06-30T12:49:22.008Z</time>
      </trkpt>
      <trkpt lat="40.857136" lon="-3.951949">
        <ele>2329</ele>
        <time>2018-06-30T12:49:26.008Z</time>
      </trkpt>
      <trkpt lat="40.857099" lon="-3.951954">
        <ele>2329</ele>
        <time>2018-06-30T12:49:30.008Z</time>
      </trkpt>
      <trkpt lat="40.857063" lon="-3.951943">
        <ele>2331</ele>
        <time>2018-06-30T12:49:34.008Z</time>
      </trkpt>
      <trkpt lat="40.857027" lon="-3.951938">
        <ele>2332</ele>
        <time>2018-06-30T12:49:39.008Z</time>
      </trkpt>
      <trkpt lat="40.856989" lon="-3.951947">
        <ele>2332</ele>
        <time>2018-06-30T12:49:43.008Z</time>
      </trkpt>
      <trkpt lat="40.856948" lon="-3.951941">
        <ele>2332</ele>
        <time>2018-06-30T12:49:47.008Z</time>
      </trkpt>
      <trkpt lat="40.856896" lon="-3.95194">
        <ele>2332</ele>
        <time>2018-06-30T12:49:53.008Z</time>
      </trkpt>
      <trkpt lat="40.856837" lon="-3.951979">
        <ele>2332</ele>
        <time>2018-06-30T12:50:01.008Z</time>
      </trkpt>
      <trkpt lat="40.856794" lon="-3.952003">
        <ele>2332</ele>
        <time>2018-06-30T12:50:05.008Z</time>
      </trkpt>
      <trkpt lat="40.856764" lon="-3.95202">
        <ele>2332</ele>
        <time>2018-06-30T12:50:08.008Z</time>
      </trkpt>
      <trkpt lat="40.85673" lon="-3.952035">
        <ele>2333</ele>
        <time>2018-06-30T12:50:12.008Z</time>
      </trkpt>
      <trkpt lat="40.856699" lon="-3.952062">
        <ele>2333</ele>
        <time>2018-06-30T12:50:16.008Z</time>
      </trkpt>
      <trkpt lat="40.85667" lon="-3.95206">
        <ele>2333</ele>
        <time>2018-06-30T12:50:20.008Z</time>
      </trkpt>
      <trkpt lat="40.856642" lon="-3.952045">
        <ele>2333</ele>
        <time>2018-06-30T12:50:24.008Z</time>
      </trkpt>
      <trkpt lat="40.856615" lon="-3.952047">
        <ele>2333</ele>
        <time>2018-06-30T12:50:27.008Z</time>
      </trkpt>
      <trkpt lat="40.856586" lon="-3.952044">
        <ele>2333</ele>
        <time>2018-06-30T12:50:31.008Z</time>
      </trkpt>
      <trkpt lat="40.856565" lon="-3.952042">
        <ele>2333</ele>
        <time>2018-06-30T12:50:34.008Z</time>
      </trkpt>
      <trkpt lat="40.856543" lon="-3.95204">
        <ele>2333</ele>
        <time>2018-06-30T12:50:37.008Z</time>
      </trkpt>
      <trkpt lat="40.856508" lon="-3.952032">
        <ele>2335</ele>
        <time>2018-06-30T12:50:42.008Z</time>
      </trkpt>
      <trkpt lat="40.856457" lon="-3.952007">
        <ele>2338.08443673289</ele>
        <time>2018-06-30T12:50:51.008Z</time>
      </trkpt>
      <trkpt lat="40.856403" lon="-3.951997">
        <ele>2339</ele>
        <time>2018-06-30T12:51:01.008Z</time>
      </trkpt>
      <trkpt lat="40.856349" lon="-3.95198">
        <ele>2340.16766652875</ele>
        <time>2018-06-30T12:51:11.008Z</time>
      </trkpt>
      <trkpt lat="40.856293" lon="-3.951969">
        <ele>2342</ele>
        <time>2018-06-30T12:51:20.008Z</time>
      </trkpt>
      <trkpt lat="40.85624" lon="-3.951959">
        <ele>2342</ele>
        <time>2018-06-30T12:51:29.008Z</time>
      </trkpt>
      <trkpt lat="40.856182" lon="-3.951964">
        <ele>2345</ele>
        <time>2018-06-30T12:51:38.008Z</time>
      </trkpt>
      <trkpt lat="40.856147" lon="-3.951959">
        <ele>2346</ele>
        <time>2018-06-30T12:51:44.008Z</time>
      </trkpt>
      <trkpt lat="40.85611" lon="-3.951928">
        <ele>2348</ele>
        <time>2018-06-30T12:51:51.008Z</time>
      </trkpt>
      <trkpt lat="40.85608" lon="-3.951922">
        <ele>2349</ele>
        <time>2018-06-30T12:51:56.008Z</time>
      </trkpt>
      <trkpt lat="40.856043" lon="-3.951935">
        <ele>2351</ele>
        <time>2018-06-30T12:52:02.008Z</time>
      </trkpt>
      <trkpt lat="40.856014" lon="-3.951949">
        <ele>2351</ele>
        <time>2018-06-30T12:52:06.008Z</time>
      </trkpt>
      <trkpt lat="40.855986" lon="-3.951968">
        <ele>2351</ele>
        <time>2018-06-30T12:52:10.008Z</time>
      </trkpt>
      <trkpt lat="40.855956" lon="-3.951979">
        <ele>2351</ele>
        <time>2018-06-30T12:52:14.008Z</time>
      </trkpt>
      <trkpt lat="40.855898" lon="-3.952007">
        <ele>2353</ele>
        <time>2018-06-30T12:52:22.008Z</time>
      </trkpt>
      <trkpt lat="40.855857" lon="-3.952038">
        <ele>2353</ele>
        <time>2018-06-30T12:52:28.008Z</time>
      </trkpt>
      <trkpt lat="40.85583" lon="-3.952061">
        <ele>2353</ele>
        <time>2018-06-30T12:52:32.008Z</time>
      </trkpt>
      <trkpt lat="40.855798" lon="-3.952092">
        <ele>2353</ele>
        <time>2018-06-30T12:52:37.008Z</time>
      </trkpt>
      <trkpt lat="40.855772" lon="-3.952116">
        <ele>2353.58383326438</ele>
        <time>2018-06-30T12:52:41.008Z</time>
      </trkpt>
      <trkpt lat="40.855743" lon="-3.952133">
        <ele>2354</ele>
        <time>2018-06-30T12:52:46.008Z</time>
      </trkpt>
      <trkpt lat="40.855718" lon="-3.952154">
        <ele>2354</ele>
        <time>2018-06-30T12:52:50.008Z</time>
      </trkpt>
      <trkpt lat="40.855698" lon="-3.952188">
        <ele>2356</ele>
        <time>2018-06-30T12:52:54.008Z</time>
      </trkpt>
      <trkpt lat="40.855654" lon="-3.952223">
        <ele>2358</ele>
        <time>2018-06-30T12:53:01.008Z</time>
      </trkpt>
      <trkpt lat="40.855627" lon="-3.952237">
        <ele>2358</ele>
        <time>2018-06-30T12:53:05.008Z</time>
      </trkpt>
      <trkpt lat="40.855604" lon="-3.952266">
        <ele>2358</ele>
        <time>2018-06-30T12:53:10.008Z</time>
      </trkpt>
      <trkpt lat="40.855562" lon="-3.952317">
        <ele>2360</ele>
        <time>2018-06-30T12:53:17.008Z</time>
      </trkpt>
      <trkpt lat="40.855497" lon="-3.952363">
        <ele>2360</ele>
        <time>2018-06-30T12:53:26.008Z</time>
      </trkpt>
      <trkpt lat="40.85543" lon="-3.952435">
        <ele>2361</ele>
        <time>2018-06-30T12:53:39.008Z</time>
      </trkpt>
      <trkpt lat="40.855369" lon="-3.952493">
        <ele>2361</ele>
        <time>2018-06-30T12:53:48.008Z</time>
      </trkpt>
      <trkpt lat="40.855306" lon="-3.952541">
        <ele>2362</ele>
        <time>2018-06-30T12:53:59.008Z</time>
      </trkpt>
      <trkpt lat="40.85523" lon="-3.95257">
        <ele>2363</ele>
        <time>2018-06-30T12:54:12.008Z</time>
      </trkpt>
      <trkpt lat="40.855172" lon="-3.952622">
        <ele>2363</ele>
        <time>2018-06-30T12:54:23.008Z</time>
      </trkpt>
      <trkpt lat="40.855096" lon="-3.952664">
        <ele>2363</ele>
        <time>2018-06-30T12:54:37.008Z</time>
      </trkpt>
      <trkpt lat="40.855012" lon="-3.952691">
        <ele>2365</ele>
        <time>2018-06-30T12:54:51.008Z</time>
      </trkpt>
      <trkpt lat="40.854956" lon="-3.952768">
        <ele>2365</ele>
        <time>2018-06-30T12:55:03.008Z</time>
      </trkpt>
      <trkpt lat="40.854887" lon="-3.952834">
        <ele>2365</ele>
        <time>2018-06-30T12:55:15.008Z</time>
      </trkpt>
      <trkpt lat="40.854815" lon="-3.952863">
        <ele>2366</ele>
        <time>2018-06-30T12:55:26.008Z</time>
      </trkpt>
      <trkpt lat="40.854742" lon="-3.952905">
        <ele>2367</ele>
        <time>2018-06-30T12:55:36.008Z</time>
      </trkpt>
      <trkpt lat="40.85467" lon="-3.952929">
        <ele>2368</ele>
        <time>2018-06-30T12:55:47.008Z</time>
      </trkpt>
      <trkpt lat="40.854598" lon="-3.952999">
        <ele>2370</ele>
        <time>2018-06-30T12:56:02.008Z</time>
      </trkpt>
      <trkpt lat="40.85452" lon="-3.953032">
        <ele>2370</ele>
        <time>2018-06-30T12:56:16.008Z</time>
      </trkpt>
      <trkpt lat="40.854464" lon="-3.953034">
        <ele>2376</ele>
        <time>2018-06-30T12:56:34.008Z</time>
      </trkpt>
      <trkpt lat="40.854404" lon="-3.953094">
        <ele>2377</ele>
        <time>2018-06-30T12:56:48.008Z</time>
      </trkpt>
      <trkpt lat="40.854352" lon="-3.953123">
        <ele>2376</ele>
        <time>2018-06-30T12:57:01.008Z</time>
      </trkpt>
      <trkpt lat="40.854321" lon="-3.953153">
        <ele>2376</ele>
        <time>2018-06-30T12:57:08.008Z</time>
      </trkpt>
      <trkpt lat="40.854298" lon="-3.953179">
        <ele>2375</ele>
        <time>2018-06-30T12:57:33.008Z</time>
      </trkpt>
      <trkpt lat="40.854267" lon="-3.953196">
        <ele>2375</ele>
        <time>2018-06-30T12:57:43.008Z</time>
      </trkpt>
      <trkpt lat="40.854235" lon="-3.953228">
        <ele>2375</ele>
        <time>2018-06-30T12:57:50.008Z</time>
      </trkpt>
      <trkpt lat="40.854182" lon="-3.95327">
        <ele>2378</ele>
        <time>2018-06-30T12:58:12.008Z</time>
      </trkpt>
      <trkpt lat="40.85413" lon="-3.953323">
        <ele>2378</ele>
        <time>2018-06-30T12:58:22.008Z</time>
      </trkpt>
      <trkpt lat="40.854107" lon="-3.95335">
        <ele>2378</ele>
        <time>2018-06-30T12:58:30.008Z</time>
      </trkpt>
      <trkpt lat="40.854052" lon="-3.953371">
        <ele>2379</ele>
        <time>2018-06-30T12:58:47.008Z</time>
      </trkpt>
      <trkpt lat="40.853995" lon="-3.953398">
        <ele>2378.42041194833</ele>
        <time>2018-06-30T12:59:01.008Z</time>
      </trkpt>
      <trkpt lat="40.853965" lon="-3.953455">
        <ele>2378</ele>
        <time>2018-06-30T12:59:14.008Z</time>
      </trkpt>
      <trkpt lat="40.853925" lon="-3.953512">
        <ele>2378</ele>
        <time>2018-06-30T12:59:29.008Z</time>
      </trkpt>
      <trkpt lat="40.853897" lon="-3.953556">
        <ele>2377</ele>
        <time>2018-06-30T12:59:38.008Z</time>
      </trkpt>
      <trkpt lat="40.85384" lon="-3.953568">
        <ele>2377</ele>
        <time>2018-06-30T12:59:52.008Z</time>
      </trkpt>
      <trkpt lat="40.853805" lon="-3.953584">
        <ele>2376</ele>
        <time>2018-06-30T13:00:07.008Z</time>
      </trkpt>
      <trkpt lat="40.853746" lon="-3.953614">
        <ele>2375</ele>
        <time>2018-06-30T13:00:34.008Z</time>
      </trkpt>
      <trkpt lat="40.853712" lon="-3.953642">
        <ele>2375</ele>
        <time>2018-06-30T13:00:46.008Z</time>
      </trkpt>
      <trkpt lat="40.853651" lon="-3.953693">
        <ele>2373</ele>
        <time>2018-06-30T13:00:54.008Z</time>
      </trkpt>
      <trkpt lat="40.85358" lon="-3.953728">
        <ele>2372</ele>
        <time>2018-06-30T13:01:02.008Z</time>
      </trkpt>
      <trkpt lat="40.853528" lon="-3.953736">
        <ele>2372</ele>
        <time>2018-06-30T13:01:07.008Z</time>
      </trkpt>
      <trkpt lat="40.853494" lon="-3.953732">
        <ele>2372</ele>
        <time>2018-06-30T13:01:10.008Z</time>
      </trkpt>
      <trkpt lat="40.853456" lon="-3.953734">
        <ele>2372</ele>
        <time>2018-06-30T13:01:14.008Z</time>
      </trkpt>
      <trkpt lat="40.853417" lon="-3.953722">
        <ele>2372</ele>
        <time>2018-06-30T13:01:18.008Z</time>
      </trkpt>
      <trkpt lat="40.853362" lon="-3.953788">
        <ele>2373</ele>
        <time>2018-06-30T13:01:28.008Z</time>
      </trkpt>
      <trkpt lat="40.853313" lon="-3.953842">
        <ele>2373.72940379234</ele>
        <time>2018-06-30T13:01:36.008Z</time>
      </trkpt>
      <trkpt lat="40.853258" lon="-3.953876">
        <ele>2375</ele>
        <time>2018-06-30T13:01:44.008Z</time>
      </trkpt>
      <trkpt lat="40.853213" lon="-3.953934">
        <ele>2375</ele>
        <time>2018-06-30T13:01:53.008Z</time>
      </trkpt>
      <trkpt lat="40.853184" lon="-3.953964">
        <ele>2377</ele>
        <time>2018-06-30T13:02:06.008Z</time>
      </trkpt>
      <trkpt lat="40.853143" lon="-3.954008">
        <ele>2379</ele>
        <time>2018-06-30T13:02:28.008Z</time>
      </trkpt>
      <trkpt lat="40.85309" lon="-3.95405">
        <ele>2379</ele>
        <time>2018-06-30T13:02:43.008Z</time>
      </trkpt>
      <trkpt lat="40.853043" lon="-3.95409">
        <ele>2379</ele>
        <time>2018-06-30T13:02:56.008Z</time>
      </trkpt>
      <trkpt lat="40.852998" lon="-3.954139">
        <ele>2380</ele>
        <time>2018-06-30T13:03:08.008Z</time>
      </trkpt>
      <trkpt lat="40.852938" lon="-3.954174">
        <ele>2380</ele>
        <time>2018-06-30T13:03:19.008Z</time>
      </trkpt>
      <trkpt lat="40.852886" lon="-3.954216">
        <ele>2381</ele>
        <time>2018-06-30T13:03:26.008Z</time>
      </trkpt>
      <trkpt lat="40.852834" lon="-3.954254">
        <ele>2381</ele>
        <time>2018-06-30T13:03:33.008Z</time>
      </trkpt>
      <trkpt lat="40.852782" lon="-3.954288">
        <ele>2381</ele>
        <time>2018-06-30T13:03:40.008Z</time>
      </trkpt>
      <trkpt lat="40.852734" lon="-3.954328">
        <ele>2383</ele>
        <time>2018-06-30T13:03:49.008Z</time>
      </trkpt>
      <trkpt lat="40.852677" lon="-3.954371">
        <ele>2383</ele>
        <time>2018-06-30T13:03:59.008Z</time>
      </trkpt>
      <trkpt lat="40.852613" lon="-3.954401">
        <ele>2382</ele>
        <time>2018-06-30T13:04:05.008Z</time>
      </trkpt>
      <trkpt lat="40.852553" lon="-3.954408">
        <ele>2383.75149979313</ele>
        <time>2018-06-30T13:04:11.008Z</time>
      </trkpt>
      <trkpt lat="40.852495" lon="-3.954432">
        <ele>2385</ele>
        <time>2018-06-30T13:04:17.008Z</time>
      </trkpt>
      <trkpt lat="40.852436" lon="-3.954444">
        <ele>2384</ele>
        <time>2018-06-30T13:04:23.008Z</time>
      </trkpt>
      <trkpt lat="40.852367" lon="-3.954452">
        <ele>2384</ele>
        <time>2018-06-30T13:04:30.008Z</time>
      </trkpt>
      <trkpt lat="40.852311" lon="-3.954475">
        <ele>2387.15293586156</ele>
        <time>2018-06-30T13:04:36.008Z</time>
      </trkpt>
      <trkpt lat="40.852254" lon="-3.954497">
        <ele>2388</ele>
        <time>2018-06-30T13:04:42.008Z</time>
      </trkpt>
      <trkpt lat="40.852213" lon="-3.954505">
        <ele>2387.4178262743</ele>
        <time>2018-06-30T13:04:46.008Z</time>
      </trkpt>
      <trkpt lat="40.852154" lon="-3.954512">
        <ele>2388</ele>
        <time>2018-06-30T13:04:52.008Z</time>
      </trkpt>
      <trkpt lat="40.852092" lon="-3.954523">
        <ele>2388</ele>
        <time>2018-06-30T13:04:59.008Z</time>
      </trkpt>
      <trkpt lat="40.852027" lon="-3.954515">
        <ele>2393</ele>
        <time>2018-06-30T13:05:07.008Z</time>
      </trkpt>
      <trkpt lat="40.851978" lon="-3.954522">
        <ele>2393</ele>
        <time>2018-06-30T13:05:14.008Z</time>
      </trkpt>
      <trkpt lat="40.851919" lon="-3.954513">
        <ele>2393</ele>
        <time>2018-06-30T13:05:23.008Z</time>
      </trkpt>
      <trkpt lat="40.851872" lon="-3.954527">
        <ele>2395</ele>
        <time>2018-06-30T13:05:32.008Z</time>
      </trkpt>
      <trkpt lat="40.851829" lon="-3.954518">
        <ele>2397</ele>
        <time>2018-06-30T13:05:38.008Z</time>
      </trkpt>
      <trkpt lat="40.851771" lon="-3.95454">
        <ele>2398</ele>
        <time>2018-06-30T13:05:52.008Z</time>
      </trkpt>
      <trkpt lat="40.851735" lon="-3.954563">
        <ele>2398.57958805167</ele>
        <time>2018-06-30T13:06:01.008Z</time>
      </trkpt>
      <trkpt lat="40.851691" lon="-3.954576">
        <ele>2399</ele>
        <time>2018-06-30T13:06:10.008Z</time>
      </trkpt>
      <trkpt lat="40.851652" lon="-3.954562">
        <ele>2401.5821737257</ele>
        <time>2018-06-30T13:06:16.008Z</time>
      </trkpt>
      <trkpt lat="40.851623" lon="-3.954577">
        <ele>2402</ele>
        <time>2018-06-30T13:06:21.008Z</time>
      </trkpt>
      <trkpt lat="40.851568" lon="-3.954609">
        <ele>2403</ele>
        <time>2018-06-30T13:06:33.008Z</time>
      </trkpt>
      <trkpt lat="40.851537" lon="-3.954671">
        <ele>2406.1643474514</ele>
        <time>2018-06-30T13:06:46.008Z</time>
      </trkpt>
      <trkpt lat="40.851488" lon="-3.954725">
        <ele>2411</ele>
        <time>2018-06-30T13:06:57.008Z</time>
      </trkpt>
      <trkpt lat="40.85146" lon="-3.954804">
        <ele>2413</ele>
        <time>2018-06-30T13:07:07.008Z</time>
      </trkpt>
      <trkpt lat="40.851416" lon="-3.954874">
        <ele>2413</ele>
        <time>2018-06-30T13:07:16.008Z</time>
      </trkpt>
      <trkpt lat="40.851362" lon="-3.9549">
        <ele>2416</ele>
        <time>2018-06-30T13:07:23.008Z</time>
      </trkpt>
      <trkpt lat="40.851314" lon="-3.954939">
        <ele>2417.57958805167</ele>
        <time>2018-06-30T13:07:31.008Z</time>
      </trkpt>
      <trkpt lat="40.851272" lon="-3.954971">
        <ele>2418</ele>
        <time>2018-06-30T13:07:37.008Z</time>
      </trkpt>
      <trkpt lat="40.85123" lon="-3.955022">
        <ele>2418</ele>
        <time>2018-06-30T13:07:45.008Z</time>
      </trkpt>
      <trkpt lat="40.851192" lon="-3.955089">
        <ele>2417</ele>
        <time>2018-06-30T13:07:53.008Z</time>
      </trkpt>
      <trkpt lat="40.851155" lon="-3.955141">
        <ele>2417</ele>
        <time>2018-06-30T13:08:00.008Z</time>
      </trkpt>
      <trkpt lat="40.851109" lon="-3.95521">
        <ele>2418</ele>
        <time>2018-06-30T13:08:10.008Z</time>
      </trkpt>
      <trkpt lat="40.851077" lon="-3.955276">
        <ele>2418</ele>
        <time>2018-06-30T13:08:19.008Z</time>
      </trkpt>
      <trkpt lat="40.851047" lon="-3.955359">
        <ele>2418</ele>
        <time>2018-06-30T13:08:30.008Z</time>
      </trkpt>
      <trkpt lat="40.851003" lon="-3.955433">
        <ele>2418</ele>
        <time>2018-06-30T13:08:38.008Z</time>
      </trkpt>
      <trkpt lat="40.85096" lon="-3.955489">
        <ele>2418</ele>
        <time>2018-06-30T13:08:44.008Z</time>
      </trkpt>
      <trkpt lat="40.850897" lon="-3.955529">
        <ele>2416.91556326711</ele>
        <time>2018-06-30T13:08:51.008Z</time>
      </trkpt>
      <trkpt lat="40.850849" lon="-3.955588">
        <ele>2416</ele>
        <time>2018-06-30T13:08:57.008Z</time>
      </trkpt>
      <trkpt lat="40.85079" lon="-3.955647">
        <ele>2415</ele>
        <time>2018-06-30T13:09:05.008Z</time>
      </trkpt>
      <trkpt lat="40.850742" lon="-3.955705">
        <ele>2416.16766652875</ele>
        <time>2018-06-30T13:09:11.008Z</time>
      </trkpt>
      <trkpt lat="40.850688" lon="-3.955757">
        <ele>2418</ele>
        <time>2018-06-30T13:09:17.008Z</time>
      </trkpt>
      <trkpt lat="40.850636" lon="-3.9558">
        <ele>2419</ele>
        <time>2018-06-30T13:09:23.008Z</time>
      </trkpt>
      <trkpt lat="40.850582" lon="-3.955833">
        <ele>2419</ele>
        <time>2018-06-30T13:09:30.008Z</time>
      </trkpt>
      <trkpt lat="40.850532" lon="-3.955882">
        <ele>2419</ele>
        <time>2018-06-30T13:09:37.008Z</time>
      </trkpt>
      <trkpt lat="40.850486" lon="-3.955894">
        <ele>2419</ele>
        <time>2018-06-30T13:09:43.008Z</time>
      </trkpt>
      <trkpt lat="40.850426" lon="-3.955923">
        <ele>2420.08443673289</ele>
        <time>2018-06-30T13:09:51.008Z</time>
      </trkpt>
      <trkpt lat="40.850357" lon="-3.955928">
        <ele>2422.42041194833</ele>
        <time>2018-06-30T13:10:01.008Z</time>
      </trkpt>
      <trkpt lat="40.850295" lon="-3.955953">
        <ele>2422</ele>
        <time>2018-06-30T13:10:09.008Z</time>
      </trkpt>
      <trkpt lat="40.850237" lon="-3.955978">
        <ele>2424</ele>
        <time>2018-06-30T13:10:17.008Z</time>
      </trkpt>
      <trkpt lat="40.850179" lon="-3.956002">
        <ele>2425</ele>
        <time>2018-06-30T13:10:27.008Z</time>
      </trkpt>
      <trkpt lat="40.850129" lon="-3.955995">
        <ele>2426</ele>
        <time>2018-06-30T13:10:36.008Z</time>
      </trkpt>
      <trkpt lat="40.850081" lon="-3.956011">
        <ele>2427</ele>
        <time>2018-06-30T13:10:45.008Z</time>
      </trkpt>
      <trkpt lat="40.850137" lon="-3.955972">
        <ele>2429</ele>
        <time>2018-06-30T13:11:19.008Z</time>
      </trkpt>
      <trkpt lat="40.850192" lon="-3.955974">
        <ele>2429</ele>
        <time>2018-06-30T13:11:27.008Z</time>
      </trkpt>
      <trkpt lat="40.850255" lon="-3.955939">
        <ele>2425.42353206922</ele>
        <time>2018-06-30T13:11:36.008Z</time>
      </trkpt>
      <trkpt lat="40.850313" lon="-3.955913">
        <ele>2425</ele>
        <time>2018-06-30T13:11:43.008Z</time>
      </trkpt>
      <trkpt lat="40.850374" lon="-3.955893">
        <ele>2425</ele>
        <time>2018-06-30T13:11:50.008Z</time>
      </trkpt>
      <trkpt lat="40.850434" lon="-3.955885">
        <ele>2425</ele>
        <time>2018-06-30T13:11:57.008Z</time>
      </trkpt>
      <trkpt lat="40.850494" lon="-3.955881">
        <ele>2420</ele>
        <time>2018-06-30T13:12:03.008Z</time>
      </trkpt>
      <trkpt lat="40.850553" lon="-3.955849">
        <ele>2419</ele>
        <time>2018-06-30T13:12:09.008Z</time>
      </trkpt>
      <trkpt lat="40.850611" lon="-3.955807">
        <ele>2419</ele>
        <time>2018-06-30T13:12:15.008Z</time>
      </trkpt>
      <trkpt lat="40.850662" lon="-3.955764">
        <ele>2419</ele>
        <time>2018-06-30T13:12:20.008Z</time>
      </trkpt>
      <trkpt lat="40.850715" lon="-3.955717">
        <ele>2418</ele>
        <time>2018-06-30T13:12:25.008Z</time>
      </trkpt>
      <trkpt lat="40.850773" lon="-3.955652">
        <ele>2417.42041194833</ele>
        <time>2018-06-30T13:12:31.008Z</time>
      </trkpt>
      <trkpt lat="40.850832" lon="-3.955613">
        <ele>2417</ele>
        <time>2018-06-30T13:12:37.008Z</time>
      </trkpt>
      <trkpt lat="40.85088" lon="-3.955547">
        <ele>2416</ele>
        <time>2018-06-30T13:12:44.008Z</time>
      </trkpt>
      <trkpt lat="40.850924" lon="-3.955489">
        <ele>2416</ele>
        <time>2018-06-30T13:12:50.008Z</time>
      </trkpt>
      <trkpt lat="40.850979" lon="-3.955451">
        <ele>2416</ele>
        <time>2018-06-30T13:12:56.008Z</time>
      </trkpt>
      <trkpt lat="40.851023" lon="-3.955391">
        <ele>2416</ele>
        <time>2018-06-30T13:13:03.008Z</time>
      </trkpt>
      <trkpt lat="40.851065" lon="-3.955334">
        <ele>2416</ele>
        <time>2018-06-30T13:13:10.008Z</time>
      </trkpt>
      <trkpt lat="40.851085" lon="-3.955252">
        <ele>2416</ele>
        <time>2018-06-30T13:13:18.008Z</time>
      </trkpt>
      <trkpt lat="40.851127" lon="-3.955175">
        <ele>2415</ele>
        <time>2018-06-30T13:13:27.008Z</time>
      </trkpt>
      <trkpt lat="40.851182" lon="-3.9551">
        <ele>2414</ele>
        <time>2018-06-30T13:13:35.008Z</time>
      </trkpt>
      <trkpt lat="40.85121" lon="-3.955043">
        <ele>2413.41616673562</ele>
        <time>2018-06-30T13:13:41.008Z</time>
      </trkpt>
      <trkpt lat="40.851252" lon="-3.954987">
        <ele>2413</ele>
        <time>2018-06-30T13:13:47.008Z</time>
      </trkpt>
      <trkpt lat="40.851308" lon="-3.954915">
        <ele>2413</ele>
        <time>2018-06-30T13:13:55.008Z</time>
      </trkpt>
      <trkpt lat="40.851346" lon="-3.954852">
        <ele>2409</ele>
        <time>2018-06-30T13:14:02.008Z</time>
      </trkpt>
      <trkpt lat="40.851398" lon="-3.954797">
        <ele>2408.41616673562</ele>
        <time>2018-06-30T13:14:11.008Z</time>
      </trkpt>
      <trkpt lat="40.851455" lon="-3.954742">
        <ele>2408</ele>
        <time>2018-06-30T13:14:19.008Z</time>
      </trkpt>
      <trkpt lat="40.851493" lon="-3.954652">
        <ele>2408</ele>
        <time>2018-06-30T13:14:29.008Z</time>
      </trkpt>
      <trkpt lat="40.851556" lon="-3.954638">
        <ele>2403</ele>
        <time>2018-06-30T13:14:37.008Z</time>
      </trkpt>
      <trkpt lat="40.85161" lon="-3.954588">
        <ele>2402</ele>
        <time>2018-06-30T13:14:45.008Z</time>
      </trkpt>
      <trkpt lat="40.851678" lon="-3.954576">
        <ele>2399</ele>
        <time>2018-06-30T13:14:52.008Z</time>
      </trkpt>
      <trkpt lat="40.85174" lon="-3.954567">
        <ele>2396</ele>
        <time>2018-06-30T13:15:02.008Z</time>
      </trkpt>
      <trkpt lat="40.851798" lon="-3.954517">
        <ele>2394</ele>
        <time>2018-06-30T13:15:14.008Z</time>
      </trkpt>
      <trkpt lat="40.85186" lon="-3.954496">
        <ele>2391</ele>
        <time>2018-06-30T13:15:23.008Z</time>
      </trkpt>
      <trkpt lat="40.851915" lon="-3.954497">
        <ele>2390.42041194833</ele>
        <time>2018-06-30T13:15:31.008Z</time>
      </trkpt>
      <trkpt lat="40.851974" lon="-3.954518">
        <ele>2390</ele>
        <time>2018-06-30T13:15:39.008Z</time>
      </trkpt>
      <trkpt lat="40.852034" lon="-3.954517">
        <ele>2390</ele>
        <time>2018-06-30T13:15:45.008Z</time>
      </trkpt>
      <trkpt lat="40.852096" lon="-3.954522">
        <ele>2389.45778163355</ele>
        <time>2018-06-30T13:15:51.008Z</time>
      </trkpt>
      <trkpt lat="40.852161" lon="-3.954516">
        <ele>2389</ele>
        <time>2018-06-30T13:15:56.008Z</time>
      </trkpt>
      <trkpt lat="40.852221" lon="-3.954511">
        <ele>2387.84082389666</ele>
        <time>2018-06-30T13:16:01.008Z</time>
      </trkpt>
      <trkpt lat="40.852278" lon="-3.954487">
        <ele>2387</ele>
        <time>2018-06-30T13:16:06.008Z</time>
      </trkpt>
      <trkpt lat="40.852338" lon="-3.954466">
        <ele>2387</ele>
        <time>2018-06-30T13:16:11.008Z</time>
      </trkpt>
      <trkpt lat="40.852411" lon="-3.954455">
        <ele>2387</ele>
        <time>2018-06-30T13:16:17.008Z</time>
      </trkpt>
      <trkpt lat="40.852482" lon="-3.954438">
        <ele>2385</ele>
        <time>2018-06-30T13:16:23.008Z</time>
      </trkpt>
      <trkpt lat="40.852548" lon="-3.954425">
        <ele>2384</ele>
        <time>2018-06-30T13:16:29.008Z</time>
      </trkpt>
      <trkpt lat="40.852609" lon="-3.954393">
        <ele>2382</ele>
        <time>2018-06-30T13:16:35.008Z</time>
      </trkpt>
      <trkpt lat="40.852667" lon="-3.954361">
        <ele>2382.58383326438</ele>
        <time>2018-06-30T13:16:41.008Z</time>
      </trkpt>
      <trkpt lat="40.85272" lon="-3.95432">
        <ele>2383</ele>
        <time>2018-06-30T13:16:49.008Z</time>
      </trkpt>
      <trkpt lat="40.852778" lon="-3.954267">
        <ele>2383</ele>
        <time>2018-06-30T13:16:57.008Z</time>
      </trkpt>
      <trkpt lat="40.85283" lon="-3.954216">
        <ele>2380</ele>
        <time>2018-06-30T13:17:04.008Z</time>
      </trkpt>
      <trkpt lat="40.852893" lon="-3.954183">
        <ele>2379.41616673562</ele>
        <time>2018-06-30T13:17:11.008Z</time>
      </trkpt>
      <trkpt lat="40.852951" lon="-3.954157">
        <ele>2379</ele>
        <time>2018-06-30T13:17:19.008Z</time>
      </trkpt>
      <trkpt lat="40.852983" lon="-3.954129">
        <ele>2380</ele>
        <time>2018-06-30T13:17:25.008Z</time>
      </trkpt>
      <trkpt lat="40.853022" lon="-3.954069">
        <ele>2379</ele>
        <time>2018-06-30T13:17:39.008Z</time>
      </trkpt>
      <trkpt lat="40.853075" lon="-3.954053">
        <ele>2378</ele>
        <time>2018-06-30T13:17:48.008Z</time>
      </trkpt>
      <trkpt lat="40.853125" lon="-3.954033">
        <ele>2378</ele>
        <time>2018-06-30T13:17:57.008Z</time>
      </trkpt>
      <trkpt lat="40.853163" lon="-3.95397">
        <ele>2375.41616673562</ele>
        <time>2018-06-30T13:18:11.008Z</time>
      </trkpt>
      <trkpt lat="40.85322" lon="-3.953927">
        <ele>2374</ele>
        <time>2018-06-30T13:18:22.008Z</time>
      </trkpt>
      <trkpt lat="40.853261" lon="-3.953851">
        <ele>2374</ele>
        <time>2018-06-30T13:18:30.008Z</time>
      </trkpt>
      <trkpt lat="40.853295" lon="-3.953796">
        <ele>2373</ele>
        <time>2018-06-30T13:18:35.008Z</time>
      </trkpt>
      <trkpt lat="40.853328" lon="-3.953743">
        <ele>2373.58383326438</ele>
        <time>2018-06-30T13:18:41.008Z</time>
      </trkpt>
      <trkpt lat="40.853392" lon="-3.953732">
        <ele>2374</ele>
        <time>2018-06-30T13:18:49.008Z</time>
      </trkpt>
      <trkpt lat="40.853425" lon="-3.953741">
        <ele>2374</ele>
        <time>2018-06-30T13:18:53.008Z</time>
      </trkpt>
      <trkpt lat="40.85345" lon="-3.953743">
        <ele>2374</ele>
        <time>2018-06-30T13:18:56.008Z</time>
      </trkpt>
      <trkpt lat="40.853479" lon="-3.953743">
        <ele>2374</ele>
        <time>2018-06-30T13:18:59.008Z</time>
      </trkpt>
      <trkpt lat="40.853503" lon="-3.95373">
        <ele>2375</ele>
        <time>2018-06-30T13:19:02.008Z</time>
      </trkpt>
      <trkpt lat="40.853532" lon="-3.953736">
        <ele>2375</ele>
        <time>2018-06-30T13:19:05.008Z</time>
      </trkpt>
      <trkpt lat="40.853584" lon="-3.953741">
        <ele>2374.41616673562</ele>
        <time>2018-06-30T13:19:11.008Z</time>
      </trkpt>
      <trkpt lat="40.853623" lon="-3.953714">
        <ele>2374</ele>
        <time>2018-06-30T13:19:16.008Z</time>
      </trkpt>
      <trkpt lat="40.853651" lon="-3.953683">
        <ele>2374</ele>
        <time>2018-06-30T13:19:20.008Z</time>
      </trkpt>
      <trkpt lat="40.853676" lon="-3.953661">
        <ele>2374</ele>
        <time>2018-06-30T13:19:28.008Z</time>
      </trkpt>
      <trkpt lat="40.853702" lon="-3.953641">
        <ele>2374</ele>
        <time>2018-06-30T13:19:34.008Z</time>
      </trkpt>
      <trkpt lat="40.85376" lon="-3.953593">
        <ele>2375</ele>
        <time>2018-06-30T13:19:45.008Z</time>
      </trkpt>
      <trkpt lat="40.853817" lon="-3.953566">
        <ele>2375</ele>
        <time>2018-06-30T13:19:53.008Z</time>
      </trkpt>
      <trkpt lat="40.853875" lon="-3.95357">
        <ele>2375</ele>
        <time>2018-06-30T13:20:02.008Z</time>
      </trkpt>
      <trkpt lat="40.853914" lon="-3.953508">
        <ele>2375</ele>
        <time>2018-06-30T13:20:15.008Z</time>
      </trkpt>
      <trkpt lat="40.853947" lon="-3.95345">
        <ele>2379.15917610334</ele>
        <time>2018-06-30T13:20:31.008Z</time>
      </trkpt>
      <trkpt lat="40.853991" lon="-3.953424">
        <ele>2379</ele>
        <time>2018-06-30T13:20:41.008Z</time>
      </trkpt>
      <trkpt lat="40.854034" lon="-3.953378">
        <ele>2379</ele>
        <time>2018-06-30T13:20:53.008Z</time>
      </trkpt>
      <trkpt lat="40.854087" lon="-3.953338">
        <ele>2380</ele>
        <time>2018-06-30T13:21:11.008Z</time>
      </trkpt>
      <trkpt lat="40.854137" lon="-3.953294">
        <ele>2380</ele>
        <time>2018-06-30T13:21:21.008Z</time>
      </trkpt>
      <trkpt lat="40.854185" lon="-3.95326">
        <ele>2379</ele>
        <time>2018-06-30T13:21:40.008Z</time>
      </trkpt>
      <trkpt lat="40.854215" lon="-3.953223">
        <ele>2378</ele>
        <time>2018-06-30T13:21:53.008Z</time>
      </trkpt>
      <trkpt lat="40.854273" lon="-3.953185">
        <ele>2378</ele>
        <time>2018-06-30T13:22:06.008Z</time>
      </trkpt>
      <trkpt lat="40.854331" lon="-3.953141">
        <ele>2378</ele>
        <time>2018-06-30T13:22:24.008Z</time>
      </trkpt>
      <trkpt lat="40.854389" lon="-3.953097">
        <ele>2378</ele>
        <time>2018-06-30T13:22:34.008Z</time>
      </trkpt>
      <trkpt lat="40.854429" lon="-3.953083">
        <ele>2378</ele>
        <time>2018-06-30T13:22:43.008Z</time>
      </trkpt>
      <trkpt lat="40.854472" lon="-3.953048">
        <ele>2376</ele>
        <time>2018-06-30T13:23:05.008Z</time>
      </trkpt>
      <trkpt lat="40.854573" lon="-3.953021">
        <ele>2374</ele>
        <time>2018-06-30T13:23:25.008Z</time>
      </trkpt>
      <trkpt lat="40.854666" lon="-3.952958">
        <ele>2374</ele>
        <time>2018-06-30T13:23:39.008Z</time>
      </trkpt>
      <trkpt lat="40.854748" lon="-3.952928">
        <ele>2371</ele>
        <time>2018-06-30T13:23:50.008Z</time>
      </trkpt>
      <trkpt lat="40.854798" lon="-3.952883">
        <ele>2371</ele>
        <time>2018-06-30T13:23:56.008Z</time>
      </trkpt>
      <trkpt lat="40.854893" lon="-3.952828">
        <ele>2370</ele>
        <time>2018-06-30T13:24:13.008Z</time>
      </trkpt>
      <trkpt lat="40.854941" lon="-3.952778">
        <ele>2369.45778163355</ele>
        <time>2018-06-30T13:24:21.008Z</time>
      </trkpt>
      <trkpt lat="40.854993" lon="-3.952726">
        <ele>2369</ele>
        <time>2018-06-30T13:24:30.008Z</time>
      </trkpt>
      <trkpt lat="40.855089" lon="-3.952692">
        <ele>2370</ele>
        <time>2018-06-30T13:24:46.008Z</time>
      </trkpt>
      <trkpt lat="40.855178" lon="-3.952614">
        <ele>2369</ele>
        <time>2018-06-30T13:24:58.008Z</time>
      </trkpt>
      <trkpt lat="40.85527" lon="-3.952542">
        <ele>2368</ele>
        <time>2018-06-30T13:25:08.008Z</time>
      </trkpt>
      <trkpt lat="40.855333" lon="-3.952505">
        <ele>2367</ele>
        <time>2018-06-30T13:25:18.008Z</time>
      </trkpt>
      <trkpt lat="40.855402" lon="-3.952453">
        <ele>2366</ele>
        <time>2018-06-30T13:25:29.008Z</time>
      </trkpt>
      <trkpt lat="40.855453" lon="-3.952395">
        <ele>2366</ele>
        <time>2018-06-30T13:25:38.008Z</time>
      </trkpt>
      <trkpt lat="40.855531" lon="-3.952343">
        <ele>2366</ele>
        <time>2018-06-30T13:25:48.008Z</time>
      </trkpt>
      <trkpt lat="40.855589" lon="-3.95227">
        <ele>2365</ele>
        <time>2018-06-30T13:25:58.008Z</time>
      </trkpt>
      <trkpt lat="40.855668" lon="-3.95221">
        <ele>2362</ele>
        <time>2018-06-30T13:26:09.008Z</time>
      </trkpt>
      <trkpt lat="40.855745" lon="-3.952137">
        <ele>2361</ele>
        <time>2018-06-30T13:26:19.008Z</time>
      </trkpt>
      <trkpt lat="40.855825" lon="-3.952068">
        <ele>2359.42041194833</ele>
        <time>2018-06-30T13:26:31.008Z</time>
      </trkpt>
      <trkpt lat="40.8559" lon="-3.952016">
        <ele>2358.41616673562</ele>
        <time>2018-06-30T13:26:41.008Z</time>
      </trkpt>
      <trkpt lat="40.855984" lon="-3.951978">
        <ele>2358</ele>
        <time>2018-06-30T13:26:50.008Z</time>
      </trkpt>
      <trkpt lat="40.856064" lon="-3.951934">
        <ele>2357</ele>
        <time>2018-06-30T13:26:58.008Z</time>
      </trkpt>
      <trkpt lat="40.856086" lon="-3.951931">
        <ele>2357</ele>
        <time>2018-06-30T13:27:00.008Z</time>
      </trkpt>
      <trkpt lat="40.856112" lon="-3.951952">
        <ele>2354</ele>
        <time>2018-06-30T13:27:03.008Z</time>
      </trkpt>
      <trkpt lat="40.8562" lon="-3.951962">
        <ele>2351</ele>
        <time>2018-06-30T13:27:12.008Z</time>
      </trkpt>
      <trkpt lat="40.856272" lon="-3.951974">
        <ele>2350</ele>
        <time>2018-06-30T13:27:20.008Z</time>
      </trkpt>
      <trkpt lat="40.856352" lon="-3.951966">
        <ele>2348</ele>
        <time>2018-06-30T13:27:30.008Z</time>
      </trkpt>
      <trkpt lat="40.856436" lon="-3.951966">
        <ele>2348</ele>
        <time>2018-06-30T13:27:41.008Z</time>
      </trkpt>
      <trkpt lat="40.856526" lon="-3.951974">
        <ele>2348</ele>
        <time>2018-06-30T13:27:50.008Z</time>
      </trkpt>
      <trkpt lat="40.856602" lon="-3.951974">
        <ele>2343.45778163355</ele>
        <time>2018-06-30T13:27:57.008Z</time>
      </trkpt>
      <trkpt lat="40.856649" lon="-3.951975">
        <ele>2342.42041194833</ele>
        <time>2018-06-30T13:28:01.008Z</time>
      </trkpt>
      <trkpt lat="40.856691" lon="-3.951957">
        <ele>2342</ele>
        <time>2018-06-30T13:28:04.008Z</time>
      </trkpt>
      <trkpt lat="40.856736" lon="-3.95196">
        <ele>2340</ele>
        <time>2018-06-30T13:28:08.008Z</time>
      </trkpt>
      <trkpt lat="40.856824" lon="-3.951986">
        <ele>2338</ele>
        <time>2018-06-30T13:28:17.008Z</time>
      </trkpt>
      <trkpt lat="40.856889" lon="-3.95194">
        <ele>2337</ele>
        <time>2018-06-30T13:28:24.008Z</time>
      </trkpt>
      <trkpt lat="40.856963" lon="-3.95196">
        <ele>2337</ele>
        <time>2018-06-30T13:28:30.008Z</time>
      </trkpt>
      <trkpt lat="40.857033" lon="-3.952004">
        <ele>2337</ele>
        <time>2018-06-30T13:28:37.008Z</time>
      </trkpt>
      <trkpt lat="40.857087" lon="-3.951964">
        <ele>2337</ele>
        <time>2018-06-30T13:28:46.008Z</time>
      </trkpt>
      <trkpt lat="40.857149" lon="-3.951967">
        <ele>2337</ele>
        <time>2018-06-30T13:28:54.008Z</time>
      </trkpt>
      <trkpt lat="40.857204" lon="-3.951972">
        <ele>2336</ele>
        <time>2018-06-30T13:29:06.008Z</time>
      </trkpt>
      <trkpt lat="40.857263" lon="-3.95199">
        <ele>2336</ele>
        <time>2018-06-30T13:29:16.008Z</time>
      </trkpt>
      <trkpt lat="40.85732" lon="-3.951983">
        <ele>2336</ele>
        <time>2018-06-30T13:29:24.008Z</time>
      </trkpt>
      <trkpt lat="40.857358" lon="-3.951923">
        <ele>2336</ele>
        <time>2018-06-30T13:29:33.008Z</time>
      </trkpt>
      <trkpt lat="40.857423" lon="-3.951872">
        <ele>2336</ele>
        <time>2018-06-30T13:29:43.008Z</time>
      </trkpt>
      <trkpt lat="40.857483" lon="-3.951851">
        <ele>2334</ele>
        <time>2018-06-30T13:29:55.008Z</time>
      </trkpt>
      <trkpt lat="40.857513" lon="-3.951838">
        <ele>2331</ele>
        <time>2018-06-30T13:30:05.008Z</time>
      </trkpt>
      <trkpt lat="40.857549" lon="-3.951803">
        <ele>2330</ele>
        <time>2018-06-30T13:30:13.008Z</time>
      </trkpt>
      <trkpt lat="40.857577" lon="-3.951788">
        <ele>2330</ele>
        <time>2018-06-30T13:30:19.008Z</time>
      </trkpt>
      <trkpt lat="40.857638" lon="-3.95178">
        <ele>2327</ele>
        <time>2018-06-30T13:30:30.008Z</time>
      </trkpt>
      <trkpt lat="40.857662" lon="-3.951764">
        <ele>2324</ele>
        <time>2018-06-30T13:30:39.008Z</time>
      </trkpt>
      <trkpt lat="40.857695" lon="-3.951759">
        <ele>2323</ele>
        <time>2018-06-30T13:30:45.008Z</time>
      </trkpt>
      <trkpt lat="40.85772" lon="-3.951826">
        <ele>2321</ele>
        <time>2018-06-30T13:30:54.008Z</time>
      </trkpt>
      <trkpt lat="40.857782" lon="-3.951806">
        <ele>2316</ele>
        <time>2018-06-30T13:31:15.008Z</time>
      </trkpt>
      <trkpt lat="40.857861" lon="-3.951745">
        <ele>2312</ele>
        <time>2018-06-30T13:31:34.008Z</time>
      </trkpt>
      <trkpt lat="40.857905" lon="-3.951737">
        <ele>2309</ele>
        <time>2018-06-30T13:31:44.008Z</time>
      </trkpt>
      <trkpt lat="40.857946" lon="-3.95172">
        <ele>2306.42041194833</ele>
        <time>2018-06-30T13:32:01.008Z</time>
      </trkpt>
      <trkpt lat="40.857984" lon="-3.951725">
        <ele>2306</ele>
        <time>2018-06-30T13:32:10.008Z</time>
      </trkpt>
      <trkpt lat="40.858026" lon="-3.951739">
        <ele>2301</ele>
        <time>2018-06-30T13:32:23.008Z</time>
      </trkpt>
      <trkpt lat="40.858058" lon="-3.951742">
        <ele>2300</ele>
        <time>2018-06-30T13:32:38.008Z</time>
      </trkpt>
      <trkpt lat="40.858095" lon="-3.95172">
        <ele>2295</ele>
        <time>2018-06-30T13:33:02.008Z</time>
      </trkpt>
      <trkpt lat="40.858143" lon="-3.951745">
        <ele>2296</ele>
        <time>2018-06-30T13:33:19.008Z</time>
      </trkpt>
      <trkpt lat="40.85817" lon="-3.951692">
        <ele>2291</ele>
        <time>2018-06-30T13:33:37.008Z</time>
      </trkpt>
      <trkpt lat="40.858246" lon="-3.951668">
        <ele>2289</ele>
        <time>2018-06-30T13:33:57.008Z</time>
      </trkpt>
      <trkpt lat="40.858316" lon="-3.951585">
        <ele>2286</ele>
        <time>2018-06-30T13:34:13.008Z</time>
      </trkpt>
      <trkpt lat="40.858364" lon="-3.951566">
        <ele>2285</ele>
        <time>2018-06-30T13:34:22.008Z</time>
      </trkpt>
      <trkpt lat="40.858432" lon="-3.951531">
        <ele>2283</ele>
        <time>2018-06-30T13:34:33.008Z</time>
      </trkpt>
      <trkpt lat="40.858482" lon="-3.951527">
        <ele>2282</ele>
        <time>2018-06-30T13:34:40.008Z</time>
      </trkpt>
      <trkpt lat="40.85853" lon="-3.95152">
        <ele>2280</ele>
        <time>2018-06-30T13:34:48.008Z</time>
      </trkpt>
      <trkpt lat="40.858568" lon="-3.951518">
        <ele>2279</ele>
        <time>2018-06-30T13:34:55.008Z</time>
      </trkpt>
      <trkpt lat="40.858632" lon="-3.951492">
        <ele>2276.4650297619</ele>
        <time>2018-06-30T13:35:08.008Z</time>
      </trkpt>
      <trkpt lat="40.858678" lon="-3.951478">
        <ele>2275</ele>
        <time>2018-06-30T13:35:17.008Z</time>
      </trkpt>
      <trkpt lat="40.858748" lon="-3.951446">
        <ele>2271</ele>
        <time>2018-06-30T13:35:32.008Z</time>
      </trkpt>
      <trkpt lat="40.858799" lon="-3.9514">
        <ele>2270</ele>
        <time>2018-06-30T13:35:43.008Z</time>
      </trkpt>
      <trkpt lat="40.858846" lon="-3.951366">
        <ele>2270</ele>
        <time>2018-06-30T13:35:48.008Z</time>
      </trkpt>
      <trkpt lat="40.858924" lon="-3.951318">
        <ele>2269</ele>
        <time>2018-06-30T13:35:57.008Z</time>
      </trkpt>
      <trkpt lat="40.85899" lon="-3.951284">
        <ele>2265</ele>
        <time>2018-06-30T13:36:04.008Z</time>
      </trkpt>
      <trkpt lat="40.859081" lon="-3.95125">
        <ele>2263</ele>
        <time>2018-06-30T13:36:14.008Z</time>
      </trkpt>
      <trkpt lat="40.859162" lon="-3.951225">
        <ele>2262</ele>
        <time>2018-06-30T13:36:20.008Z</time>
      </trkpt>
      <trkpt lat="40.859245" lon="-3.951197">
        <ele>2261</ele>
        <time>2018-06-30T13:36:25.008Z</time>
      </trkpt>
      <trkpt lat="40.8593" lon="-3.951155">
        <ele>2261</ele>
        <time>2018-06-30T13:36:29.008Z</time>
      </trkpt>
      <trkpt lat="40.859362" lon="-3.951086">
        <ele>2261</ele>
        <time>2018-06-30T13:36:36.008Z</time>
      </trkpt>
      <trkpt lat="40.859389" lon="-3.950994">
        <ele>2261</ele>
        <time>2018-06-30T13:36:41.008Z</time>
      </trkpt>
      <trkpt lat="40.859425" lon="-3.950914">
        <ele>2261</ele>
        <time>2018-06-30T13:36:46.008Z</time>
      </trkpt>
      <trkpt lat="40.859464" lon="-3.950856">
        <ele>2261</ele>
        <time>2018-06-30T13:36:51.008Z</time>
      </trkpt>
      <trkpt lat="40.859496" lon="-3.950812">
        <ele>2261</ele>
        <time>2018-06-30T13:36:55.008Z</time>
      </trkpt>
      <trkpt lat="40.85953" lon="-3.950769">
        <ele>2261</ele>
        <time>2018-06-30T13:36:59.008Z</time>
      </trkpt>
      <trkpt lat="40.859562" lon="-3.950726">
        <ele>2260</ele>
        <time>2018-06-30T13:37:03.008Z</time>
      </trkpt>
      <trkpt lat="40.859605" lon="-3.950672">
        <ele>2260</ele>
        <time>2018-06-30T13:37:08.008Z</time>
      </trkpt>
      <trkpt lat="40.859662" lon="-3.950578">
        <ele>2260</ele>
        <time>2018-06-30T13:37:16.008Z</time>
      </trkpt>
      <trkpt lat="40.859685" lon="-3.950455">
        <ele>2260</ele>
        <time>2018-06-30T13:37:26.008Z</time>
      </trkpt>
      <trkpt lat="40.85975" lon="-3.95036">
        <ele>2256</ele>
        <time>2018-06-30T13:37:37.008Z</time>
      </trkpt>
      <trkpt lat="40.859788" lon="-3.950236">
        <ele>2254</ele>
        <time>2018-06-30T13:37:50.008Z</time>
      </trkpt>
      <trkpt lat="40.859856" lon="-3.950169">
        <ele>2249</ele>
        <time>2018-06-30T13:37:59.008Z</time>
      </trkpt>
      <trkpt lat="40.859907" lon="-3.950094">
        <ele>2247</ele>
        <time>2018-06-30T13:38:09.008Z</time>
      </trkpt>
      <trkpt lat="40.859974" lon="-3.950023">
        <ele>2246</ele>
        <time>2018-06-30T13:38:18.008Z</time>
      </trkpt>
      <trkpt lat="40.860049" lon="-3.950003">
        <ele>2244</ele>
        <time>2018-06-30T13:38:25.008Z</time>
      </trkpt>
      <trkpt lat="40.860113" lon="-3.949958">
        <ele>2243</ele>
        <time>2018-06-30T13:38:34.008Z</time>
      </trkpt>
      <trkpt lat="40.860184" lon="-3.949949">
        <ele>2243</ele>
        <time>2018-06-30T13:38:40.008Z</time>
      </trkpt>
      <trkpt lat="40.860238" lon="-3.949926">
        <ele>2242</ele>
        <time>2018-06-30T13:38:45.008Z</time>
      </trkpt>
      <trkpt lat="40.860317" lon="-3.949871">
        <ele>2239</ele>
        <time>2018-06-30T13:38:54.008Z</time>
      </trkpt>
      <trkpt lat="40.860363" lon="-3.949776">
        <ele>2236</ele>
        <time>2018-06-30T13:39:03.008Z</time>
      </trkpt>
      <trkpt lat="40.860393" lon="-3.949661">
        <ele>2234</ele>
        <time>2018-06-30T13:39:12.008Z</time>
      </trkpt>
      <trkpt lat="40.860436" lon="-3.949564">
        <ele>2233</ele>
        <time>2018-06-30T13:39:20.008Z</time>
      </trkpt>
      <trkpt lat="40.860498" lon="-3.949481">
        <ele>2233</ele>
        <time>2018-06-30T13:39:28.008Z</time>
      </trkpt>
      <trkpt lat="40.860576" lon="-3.949451">
        <ele>2231</ele>
        <time>2018-06-30T13:39:35.008Z</time>
      </trkpt>
      <trkpt lat="40.860658" lon="-3.94943">
        <ele>2228</ele>
        <time>2018-06-30T13:39:42.008Z</time>
      </trkpt>
      <trkpt lat="40.860735" lon="-3.949387">
        <ele>2227</ele>
        <time>2018-06-30T13:39:49.008Z</time>
      </trkpt>
      <trkpt lat="40.860814" lon="-3.949339">
        <ele>2227</ele>
        <time>2018-06-30T13:39:57.008Z</time>
      </trkpt>
      <trkpt lat="40.860896" lon="-3.949307">
        <ele>2224</ele>
        <time>2018-06-30T13:40:04.008Z</time>
      </trkpt>
      <trkpt lat="40.860982" lon="-3.949284">
        <ele>2222.83233347125</ele>
        <time>2018-06-30T13:40:11.008Z</time>
      </trkpt>
      <trkpt lat="40.86106" lon="-3.949245">
        <ele>2218</ele>
        <time>2018-06-30T13:40:18.008Z</time>
      </trkpt>
      <trkpt lat="40.861143" lon="-3.949228">
        <ele>2216.46545725357</ele>
        <time>2018-06-30T13:40:26.008Z</time>
      </trkpt>
      <trkpt lat="40.861219" lon="-3.949179">
        <ele>2215</ele>
        <time>2018-06-30T13:40:34.008Z</time>
      </trkpt>
      <trkpt lat="40.861292" lon="-3.949209">
        <ele>2213.41616673562</ele>
        <time>2018-06-30T13:40:41.008Z</time>
      </trkpt>
      <trkpt lat="40.861375" lon="-3.949236">
        <ele>2212</ele>
        <time>2018-06-30T13:40:50.008Z</time>
      </trkpt>
      <trkpt lat="40.861444" lon="-3.949162">
        <ele>2208</ele>
        <time>2018-06-30T13:40:58.008Z</time>
      </trkpt>
      <trkpt lat="40.861532" lon="-3.949164">
        <ele>2206.42353206922</ele>
        <time>2018-06-30T13:41:06.008Z</time>
      </trkpt>
      <trkpt lat="40.861584" lon="-3.949145">
        <ele>2206</ele>
        <time>2018-06-30T13:41:10.008Z</time>
      </trkpt>
      <trkpt lat="40.861673" lon="-3.949092">
        <ele>2204</ele>
        <time>2018-06-30T13:41:18.008Z</time>
      </trkpt>
      <trkpt lat="40.861743" lon="-3.949036">
        <ele>2202</ele>
        <time>2018-06-30T13:41:27.008Z</time>
      </trkpt>
      <trkpt lat="40.86181" lon="-3.948959">
        <ele>2202</ele>
        <time>2018-06-30T13:41:36.008Z</time>
      </trkpt>
      <trkpt lat="40.861879" lon="-3.94889">
        <ele>2200</ele>
        <time>2018-06-30T13:41:43.008Z</time>
      </trkpt>
      <trkpt lat="40.861952" lon="-3.948833">
        <ele>2198</ele>
        <time>2018-06-30T13:41:51.008Z</time>
      </trkpt>
      <trkpt lat="40.86201" lon="-3.948823">
        <ele>2198</ele>
        <time>2018-06-30T13:41:57.008Z</time>
      </trkpt>
      <trkpt lat="40.862062" lon="-3.948716">
        <ele>2197</ele>
        <time>2018-06-30T13:42:06.008Z</time>
      </trkpt>
      <trkpt lat="40.862121" lon="-3.948629">
        <ele>2197</ele>
        <time>2018-06-30T13:42:13.008Z</time>
      </trkpt>
      <trkpt lat="40.862198" lon="-3.948569">
        <ele>2195.37334490066</ele>
        <time>2018-06-30T13:42:21.008Z</time>
      </trkpt>
      <trkpt lat="40.862273" lon="-3.94855">
        <ele>2193</ele>
        <time>2018-06-30T13:42:27.008Z</time>
      </trkpt>
      <trkpt lat="40.862351" lon="-3.948502">
        <ele>2192</ele>
        <time>2018-06-30T13:42:34.008Z</time>
      </trkpt>
      <trkpt lat="40.862431" lon="-3.94848">
        <ele>2190.41616673562</ele>
        <time>2018-06-30T13:42:41.008Z</time>
      </trkpt>
      <trkpt lat="40.862509" lon="-3.948435">
        <ele>2189</ele>
        <time>2018-06-30T13:42:48.008Z</time>
      </trkpt>
      <trkpt lat="40.862586" lon="-3.948454">
        <ele>2188</ele>
        <time>2018-06-30T13:42:54.008Z</time>
      </trkpt>
      <trkpt lat="40.862666" lon="-3.948449">
        <ele>2187</ele>
        <time>2018-06-30T13:43:00.008Z</time>
      </trkpt>
      <trkpt lat="40.862747" lon="-3.948409">
        <ele>2186</ele>
        <time>2018-06-30T13:43:07.008Z</time>
      </trkpt>
      <trkpt lat="40.862804" lon="-3.94837">
        <ele>2185</ele>
        <time>2018-06-30T13:43:12.008Z</time>
      </trkpt>
      <trkpt lat="40.862848" lon="-3.94831">
        <ele>2185</ele>
        <time>2018-06-30T13:43:18.008Z</time>
      </trkpt>
      <trkpt lat="40.862901" lon="-3.948232">
        <ele>2184</ele>
        <time>2018-06-30T13:43:26.008Z</time>
      </trkpt>
      <trkpt lat="40.862978" lon="-3.94821">
        <ele>2183</ele>
        <time>2018-06-30T13:43:33.008Z</time>
      </trkpt>
      <trkpt lat="40.863025" lon="-3.948137">
        <ele>2183</ele>
        <time>2018-06-30T13:43:39.008Z</time>
      </trkpt>
      <trkpt lat="40.863077" lon="-3.948062">
        <ele>2180.4178262743</ele>
        <time>2018-06-30T13:43:46.008Z</time>
      </trkpt>
      <trkpt lat="40.863134" lon="-3.94799">
        <ele>2180</ele>
        <time>2018-06-30T13:43:53.008Z</time>
      </trkpt>
      <trkpt lat="40.863201" lon="-3.94793">
        <ele>2180</ele>
        <time>2018-06-30T13:44:00.008Z</time>
      </trkpt>
      <trkpt lat="40.863253" lon="-3.947862">
        <ele>2179</ele>
        <time>2018-06-30T13:44:06.008Z</time>
      </trkpt>
      <trkpt lat="40.863316" lon="-3.947812">
        <ele>2179</ele>
        <time>2018-06-30T13:44:12.008Z</time>
      </trkpt>
      <trkpt lat="40.863361" lon="-3.947795">
        <ele>2179</ele>
        <time>2018-06-30T13:44:16.008Z</time>
      </trkpt>
      <trkpt lat="40.863431" lon="-3.947735">
        <ele>2178</ele>
        <time>2018-06-30T13:44:23.008Z</time>
      </trkpt>
      <trkpt lat="40.863466" lon="-3.94766">
        <ele>2178</ele>
        <time>2018-06-30T13:44:29.008Z</time>
      </trkpt>
      <trkpt lat="40.863519" lon="-3.947598">
        <ele>2177</ele>
        <time>2018-06-30T13:44:35.008Z</time>
      </trkpt>
      <trkpt lat="40.863563" lon="-3.947522">
        <ele>2176</ele>
        <time>2018-06-30T13:44:42.008Z</time>
      </trkpt>
      <trkpt lat="40.863619" lon="-3.947458">
        <ele>2176</ele>
        <time>2018-06-30T13:44:49.008Z</time>
      </trkpt>
      <trkpt lat="40.863677" lon="-3.947443">
        <ele>2176</ele>
        <time>2018-06-30T13:44:56.008Z</time>
      </trkpt>
      <trkpt lat="40.863747" lon="-3.947444">
        <ele>2173</ele>
        <time>2018-06-30T13:45:07.008Z</time>
      </trkpt>
      <trkpt lat="40.863818" lon="-3.94746">
        <ele>2172</ele>
        <time>2018-06-30T13:45:14.008Z</time>
      </trkpt>
      <trkpt lat="40.863892" lon="-3.947478">
        <ele>2172</ele>
        <time>2018-06-30T13:45:20.008Z</time>
      </trkpt>
      <trkpt lat="40.863983" lon="-3.947429">
        <ele>2171</ele>
        <time>2018-06-30T13:45:27.008Z</time>
      </trkpt>
      <trkpt lat="40.864039" lon="-3.947384">
        <ele>2169.26123584499</ele>
        <time>2018-06-30T13:45:31.008Z</time>
      </trkpt>
      <trkpt lat="40.864093" lon="-3.947336">
        <ele>2168</ele>
        <time>2018-06-30T13:45:35.008Z</time>
      </trkpt>
      <trkpt lat="40.864175" lon="-3.947281">
        <ele>2167</ele>
        <time>2018-06-30T13:45:40.008Z</time>
      </trkpt>
      <trkpt lat="40.864226" lon="-3.94725">
        <ele>2166</ele>
        <time>2018-06-30T13:45:43.008Z</time>
      </trkpt>
      <trkpt lat="40.864313" lon="-3.947206">
        <ele>2164</ele>
        <time>2018-06-30T13:45:48.008Z</time>
      </trkpt>
      <trkpt lat="40.864401" lon="-3.947168">
        <ele>2163</ele>
        <time>2018-06-30T13:45:53.008Z</time>
      </trkpt>
      <trkpt lat="40.864491" lon="-3.947134">
        <ele>2161</ele>
        <time>2018-06-30T13:45:58.008Z</time>
      </trkpt>
      <trkpt lat="40.864544" lon="-3.947138">
        <ele>2160.42041194833</ele>
        <time>2018-06-30T13:46:01.008Z</time>
      </trkpt>
      <trkpt lat="40.864648" lon="-3.947133">
        <ele>2159</ele>
        <time>2018-06-30T13:46:07.008Z</time>
      </trkpt>
      <trkpt lat="40.864736" lon="-3.947104">
        <ele>2157</ele>
        <time>2018-06-30T13:46:12.008Z</time>
      </trkpt>
      <trkpt lat="40.864824" lon="-3.947071">
        <ele>2156</ele>
        <time>2018-06-30T13:46:17.008Z</time>
      </trkpt>
      <trkpt lat="40.864914" lon="-3.947052">
        <ele>2155</ele>
        <time>2018-06-30T13:46:22.008Z</time>
      </trkpt>
      <trkpt lat="40.864998" lon="-3.947002">
        <ele>2154</ele>
        <time>2018-06-30T13:46:27.008Z</time>
      </trkpt>
      <trkpt lat="40.865082" lon="-3.946964">
        <ele>2153</ele>
        <time>2018-06-30T13:46:32.008Z</time>
      </trkpt>
      <trkpt lat="40.865157" lon="-3.946922">
        <ele>2150</ele>
        <time>2018-06-30T13:46:37.008Z</time>
      </trkpt>
      <trkpt lat="40.865239" lon="-3.9469">
        <ele>2146.42353206922</ele>
        <time>2018-06-30T13:46:42.008Z</time>
      </trkpt>
      <trkpt lat="40.865315" lon="-3.946874">
        <ele>2145.58383326438</ele>
        <time>2018-06-30T13:46:47.008Z</time>
      </trkpt>
      <trkpt lat="40.865367" lon="-3.946838">
        <ele>2144.46545725357</ele>
        <time>2018-06-30T13:46:50.008Z</time>
      </trkpt>
      <trkpt lat="40.865426" lon="-3.946831">
        <ele>2144</ele>
        <time>2018-06-30T13:46:53.008Z</time>
      </trkpt>
      <trkpt lat="40.865481" lon="-3.946826">
        <ele>2142.93091450714</ele>
        <time>2018-06-30T13:46:56.008Z</time>
      </trkpt>
      <trkpt lat="40.865534" lon="-3.94683">
        <ele>2142</ele>
        <time>2018-06-30T13:46:59.008Z</time>
      </trkpt>
      <trkpt lat="40.865588" lon="-3.946826">
        <ele>2140</ele>
        <time>2018-06-30T13:47:02.008Z</time>
      </trkpt>
      <trkpt lat="40.865638" lon="-3.946826">
        <ele>2140</ele>
        <time>2018-06-30T13:47:05.008Z</time>
      </trkpt>
      <trkpt lat="40.865688" lon="-3.946822">
        <ele>2139</ele>
        <time>2018-06-30T13:47:08.008Z</time>
      </trkpt>
      <trkpt lat="40.865742" lon="-3.94682">
        <ele>2137.24850020687</ele>
        <time>2018-06-30T13:47:11.008Z</time>
      </trkpt>
      <trkpt lat="40.865789" lon="-3.94683">
        <ele>2136</ele>
        <time>2018-06-30T13:47:14.008Z</time>
      </trkpt>
      <trkpt lat="40.865841" lon="-3.94683">
        <ele>2135</ele>
        <time>2018-06-30T13:47:17.008Z</time>
      </trkpt>
      <trkpt lat="40.865895" lon="-3.946836">
        <ele>2135</ele>
        <time>2018-06-30T13:47:20.008Z</time>
      </trkpt>
      <trkpt lat="40.865946" lon="-3.946852">
        <ele>2134</ele>
        <time>2018-06-30T13:47:23.008Z</time>
      </trkpt>
      <trkpt lat="40.865992" lon="-3.946866">
        <ele>2133.46545725357</ele>
        <time>2018-06-30T13:47:26.008Z</time>
      </trkpt>
      <trkpt lat="40.86604" lon="-3.946874">
        <ele>2133</ele>
        <time>2018-06-30T13:47:29.008Z</time>
      </trkpt>
      <trkpt lat="40.866089" lon="-3.946876">
        <ele>2131</ele>
        <time>2018-06-30T13:47:32.008Z</time>
      </trkpt>
      <trkpt lat="40.86615" lon="-3.94688">
        <ele>2129.84706413844</ele>
        <time>2018-06-30T13:47:36.008Z</time>
      </trkpt>
      <trkpt lat="40.866245" lon="-3.946868">
        <ele>2128</ele>
        <time>2018-06-30T13:47:42.008Z</time>
      </trkpt>
      <trkpt lat="40.866312" lon="-3.946874">
        <ele>2127.4178262743</ele>
        <time>2018-06-30T13:47:46.008Z</time>
      </trkpt>
      <trkpt lat="40.866364" lon="-3.94688">
        <ele>2127</ele>
        <time>2018-06-30T13:47:49.008Z</time>
      </trkpt>
      <trkpt lat="40.866418" lon="-3.946886">
        <ele>2125</ele>
        <time>2018-06-30T13:47:52.008Z</time>
      </trkpt>
      <trkpt lat="40.866509" lon="-3.946854">
        <ele>2123</ele>
        <time>2018-06-30T13:47:58.008Z</time>
      </trkpt>
      <trkpt lat="40.866558" lon="-3.946871">
        <ele>2121.26123584499</ele>
        <time>2018-06-30T13:48:01.008Z</time>
      </trkpt>
      <trkpt lat="40.866609" lon="-3.946874">
        <ele>2120</ele>
        <time>2018-06-30T13:48:04.008Z</time>
      </trkpt>
      <trkpt lat="40.86666" lon="-3.946874">
        <ele>2119</ele>
        <time>2018-06-30T13:48:07.008Z</time>
      </trkpt>
      <trkpt lat="40.866705" lon="-3.946886">
        <ele>2119</ele>
        <time>2018-06-30T13:48:10.008Z</time>
      </trkpt>
      <trkpt lat="40.866749" lon="-3.946868">
        <ele>2118</ele>
        <time>2018-06-30T13:48:13.008Z</time>
      </trkpt>
      <trkpt lat="40.866793" lon="-3.946841">
        <ele>2118</ele>
        <time>2018-06-30T13:48:16.008Z</time>
      </trkpt>
      <trkpt lat="40.866856" lon="-3.946806">
        <ele>2118</ele>
        <time>2018-06-30T13:48:20.008Z</time>
      </trkpt>
      <trkpt lat="40.866909" lon="-3.946827">
        <ele>2115</ele>
        <time>2018-06-30T13:48:23.008Z</time>
      </trkpt>
      <trkpt lat="40.866988" lon="-3.946805">
        <ele>2113</ele>
        <time>2018-06-30T13:48:28.008Z</time>
      </trkpt>
      <trkpt lat="40.86705" lon="-3.946747">
        <ele>2114</ele>
        <time>2018-06-30T13:48:32.008Z</time>
      </trkpt>
      <trkpt lat="40.867117" lon="-3.946726">
        <ele>2114</ele>
        <time>2018-06-30T13:48:36.008Z</time>
      </trkpt>
      <trkpt lat="40.867188" lon="-3.946735">
        <ele>2114</ele>
        <time>2018-06-30T13:48:40.008Z</time>
      </trkpt>
      <trkpt lat="40.867281" lon="-3.946727">
        <ele>2112</ele>
        <time>2018-06-30T13:48:45.008Z</time>
      </trkpt>
      <trkpt lat="40.867337" lon="-3.946734">
        <ele>2110</ele>
        <time>2018-06-30T13:48:48.008Z</time>
      </trkpt>
      <trkpt lat="40.867392" lon="-3.946747">
        <ele>2109.45778163355</ele>
        <time>2018-06-30T13:48:51.008Z</time>
      </trkpt>
      <trkpt lat="40.867447" lon="-3.946751">
        <ele>2109</ele>
        <time>2018-06-30T13:48:54.008Z</time>
      </trkpt>
      <trkpt lat="40.867502" lon="-3.946755">
        <ele>2106</ele>
        <time>2018-06-30T13:48:57.008Z</time>
      </trkpt>
      <trkpt lat="40.867591" lon="-3.946757">
        <ele>2105</ele>
        <time>2018-06-30T13:49:02.008Z</time>
      </trkpt>
      <trkpt lat="40.86764" lon="-3.946753">
        <ele>2105</ele>
        <time>2018-06-30T13:49:05.008Z</time>
      </trkpt>
      <trkpt lat="40.867729" lon="-3.946744">
        <ele>2105</ele>
        <time>2018-06-30T13:49:10.008Z</time>
      </trkpt>
      <trkpt lat="40.867785" lon="-3.946738">
        <ele>2104</ele>
        <time>2018-06-30T13:49:13.008Z</time>
      </trkpt>
      <trkpt lat="40.867871" lon="-3.94674">
        <ele>2104</ele>
        <time>2018-06-30T13:49:18.008Z</time>
      </trkpt>
      <trkpt lat="40.867921" lon="-3.946757">
        <ele>2103.45778163355</ele>
        <time>2018-06-30T13:49:21.008Z</time>
      </trkpt>
      <trkpt lat="40.867979" lon="-3.946764">
        <ele>2103</ele>
        <time>2018-06-30T13:49:24.008Z</time>
      </trkpt>
      <trkpt lat="40.868039" lon="-3.946785">
        <ele>2103</ele>
        <time>2018-06-30T13:49:27.008Z</time>
      </trkpt>
      <trkpt lat="40.868098" lon="-3.946805">
        <ele>2103</ele>
        <time>2018-06-30T13:49:30.008Z</time>
      </trkpt>
      <trkpt lat="40.868174" lon="-3.946872">
        <ele>2101</ele>
        <time>2018-06-30T13:49:35.008Z</time>
      </trkpt>
      <trkpt lat="40.868212" lon="-3.946915">
        <ele>2100</ele>
        <time>2018-06-30T13:49:38.008Z</time>
      </trkpt>
      <trkpt lat="40.868248" lon="-3.946963">
        <ele>2098.83233347125</ele>
        <time>2018-06-30T13:49:41.008Z</time>
      </trkpt>
      <trkpt lat="40.868272" lon="-3.946999">
        <ele>2098</ele>
        <time>2018-06-30T13:49:43.008Z</time>
      </trkpt>
      <trkpt lat="40.868299" lon="-3.947029">
        <ele>2098</ele>
        <time>2018-06-30T13:49:45.008Z</time>
      </trkpt>
      <trkpt lat="40.86834" lon="-3.947085">
        <ele>2097</ele>
        <time>2018-06-30T13:49:48.008Z</time>
      </trkpt>
      <trkpt lat="40.868383" lon="-3.947171">
        <ele>2096</ele>
        <time>2018-06-30T13:49:52.008Z</time>
      </trkpt>
      <trkpt lat="40.868415" lon="-3.947263">
        <ele>2094.93091450714</ele>
        <time>2018-06-30T13:49:56.008Z</time>
      </trkpt>
      <trkpt lat="40.868434" lon="-3.947358">
        <ele>2094</ele>
        <time>2018-06-30T13:50:00.008Z</time>
      </trkpt>
      <trkpt lat="40.868464" lon="-3.947447">
        <ele>2092</ele>
        <time>2018-06-30T13:50:04.008Z</time>
      </trkpt>
      <trkpt lat="40.868472" lon="-3.947519">
        <ele>2092</ele>
        <time>2018-06-30T13:50:07.008Z</time>
      </trkpt>
      <trkpt lat="40.868498" lon="-3.947573">
        <ele>2092</ele>
        <time>2018-06-30T13:50:10.008Z</time>
      </trkpt>
      <trkpt lat="40.868528" lon="-3.94762">
        <ele>2090</ele>
        <time>2018-06-30T13:50:14.008Z</time>
      </trkpt>
      <trkpt lat="40.868554" lon="-3.947668">
        <ele>2089</ele>
        <time>2018-06-30T13:50:18.008Z</time>
      </trkpt>
      <trkpt lat="40.868584" lon="-3.947714">
        <ele>2088</ele>
        <time>2018-06-30T13:50:22.008Z</time>
      </trkpt>
      <trkpt lat="40.868616" lon="-3.947756">
        <ele>2088</ele>
        <time>2018-06-30T13:50:26.008Z</time>
      </trkpt>
      <trkpt lat="40.86862" lon="-3.947816">
        <ele>2088</ele>
        <time>2018-06-30T13:50:30.008Z</time>
      </trkpt>
      <trkpt lat="40.868654" lon="-3.947857">
        <ele>2088</ele>
        <time>2018-06-30T13:50:34.008Z</time>
      </trkpt>
      <trkpt lat="40.868668" lon="-3.947916">
        <ele>2088</ele>
        <time>2018-06-30T13:50:38.008Z</time>
      </trkpt>
      <trkpt lat="40.868683" lon="-3.947962">
        <ele>2087.41616673562</ele>
        <time>2018-06-30T13:50:41.008Z</time>
      </trkpt>
      <trkpt lat="40.86872" lon="-3.948005">
        <ele>2087</ele>
        <time>2018-06-30T13:50:44.008Z</time>
      </trkpt>
      <trkpt lat="40.868752" lon="-3.948055">
        <ele>2087</ele>
        <time>2018-06-30T13:50:47.008Z</time>
      </trkpt>
      <trkpt lat="40.868782" lon="-3.948107">
        <ele>2087</ele>
        <time>2018-06-30T13:50:50.008Z</time>
      </trkpt>
      <trkpt lat="40.868812" lon="-3.948155">
        <ele>2085</ele>
        <time>2018-06-30T13:50:53.008Z</time>
      </trkpt>
      <trkpt lat="40.86884" lon="-3.948206">
        <ele>2084.46545725357</ele>
        <time>2018-06-30T13:50:56.008Z</time>
      </trkpt>
      <trkpt lat="40.868874" lon="-3.948255">
        <ele>2084</ele>
        <time>2018-06-30T13:50:59.008Z</time>
      </trkpt>
      <trkpt lat="40.868902" lon="-3.948306">
        <ele>2082</ele>
        <time>2018-06-30T13:51:02.008Z</time>
      </trkpt>
      <trkpt lat="40.868927" lon="-3.94836">
        <ele>2082</ele>
        <time>2018-06-30T13:51:05.008Z</time>
      </trkpt>
      <trkpt lat="40.868954" lon="-3.948417">
        <ele>2082</ele>
        <time>2018-06-30T13:51:08.008Z</time>
      </trkpt>
      <trkpt lat="40.868986" lon="-3.948472">
        <ele>2080.83233347125</ele>
        <time>2018-06-30T13:51:11.008Z</time>
      </trkpt>
      <trkpt lat="40.86901" lon="-3.94853">
        <ele>2080</ele>
        <time>2018-06-30T13:51:14.008Z</time>
      </trkpt>
      <trkpt lat="40.86904" lon="-3.948587">
        <ele>2079</ele>
        <time>2018-06-30T13:51:17.008Z</time>
      </trkpt>
      <trkpt lat="40.869078" lon="-3.948632">
        <ele>2079</ele>
        <time>2018-06-30T13:51:20.008Z</time>
      </trkpt>
      <trkpt lat="40.869116" lon="-3.948679">
        <ele>2078</ele>
        <time>2018-06-30T13:51:23.008Z</time>
      </trkpt>
      <trkpt lat="40.869133" lon="-3.948739">
        <ele>2076.93091450714</ele>
        <time>2018-06-30T13:51:26.008Z</time>
      </trkpt>
      <trkpt lat="40.869148" lon="-3.948824">
        <ele>2076</ele>
        <time>2018-06-30T13:51:30.008Z</time>
      </trkpt>
      <trkpt lat="40.869165" lon="-3.948899">
        <ele>2075</ele>
        <time>2018-06-30T13:51:34.008Z</time>
      </trkpt>
      <trkpt lat="40.869178" lon="-3.948963">
        <ele>2073</ele>
        <time>2018-06-30T13:51:38.008Z</time>
      </trkpt>
      <trkpt lat="40.869198" lon="-3.949033">
        <ele>2072</ele>
        <time>2018-06-30T13:51:42.008Z</time>
      </trkpt>
      <trkpt lat="40.869214" lon="-3.949107">
        <ele>2071</ele>
        <time>2018-06-30T13:51:47.008Z</time>
      </trkpt>
      <trkpt lat="40.869208" lon="-3.94919">
        <ele>2070.45778163355</ele>
        <time>2018-06-30T13:51:51.008Z</time>
      </trkpt>
      <trkpt lat="40.869237" lon="-3.949268">
        <ele>2070</ele>
        <time>2018-06-30T13:51:55.008Z</time>
      </trkpt>
      <trkpt lat="40.86927" lon="-3.949315">
        <ele>2068</ele>
        <time>2018-06-30T13:51:58.008Z</time>
      </trkpt>
      <trkpt lat="40.869293" lon="-3.949372">
        <ele>2066</ele>
        <time>2018-06-30T13:52:02.008Z</time>
      </trkpt>
      <trkpt lat="40.869269" lon="-3.949461">
        <ele>2066</ele>
        <time>2018-06-30T13:52:08.008Z</time>
      </trkpt>
      <trkpt lat="40.869265" lon="-3.949548">
        <ele>2065</ele>
        <time>2018-06-30T13:52:12.008Z</time>
      </trkpt>
      <trkpt lat="40.869294" lon="-3.949621">
        <ele>2065</ele>
        <time>2018-06-30T13:52:15.008Z</time>
      </trkpt>
      <trkpt lat="40.869325" lon="-3.949716">
        <ele>2065</ele>
        <time>2018-06-30T13:52:19.008Z</time>
      </trkpt>
      <trkpt lat="40.869351" lon="-3.949786">
        <ele>2062</ele>
        <time>2018-06-30T13:52:22.008Z</time>
      </trkpt>
      <trkpt lat="40.869367" lon="-3.949859">
        <ele>2062</ele>
        <time>2018-06-30T13:52:25.008Z</time>
      </trkpt>
      <trkpt lat="40.869373" lon="-3.949932">
        <ele>2060</ele>
        <time>2018-06-30T13:52:28.008Z</time>
      </trkpt>
      <trkpt lat="40.869383" lon="-3.950019">
        <ele>2058</ele>
        <time>2018-06-30T13:52:32.008Z</time>
      </trkpt>
      <trkpt lat="40.869387" lon="-3.95011">
        <ele>2057.42353206922</ele>
        <time>2018-06-30T13:52:36.008Z</time>
      </trkpt>
      <trkpt lat="40.869375" lon="-3.950198">
        <ele>2057</ele>
        <time>2018-06-30T13:52:40.008Z</time>
      </trkpt>
      <trkpt lat="40.869323" lon="-3.950276">
        <ele>2055.4178262743</ele>
        <time>2018-06-30T13:52:46.008Z</time>
      </trkpt>
      <trkpt lat="40.869325" lon="-3.95037">
        <ele>2055</ele>
        <time>2018-06-30T13:52:50.008Z</time>
      </trkpt>
      <trkpt lat="40.869375" lon="-3.9505">
        <ele>2053</ele>
        <time>2018-06-30T13:52:56.008Z</time>
      </trkpt>
      <trkpt lat="40.869405" lon="-3.950612">
        <ele>2051.26123584499</ele>
        <time>2018-06-30T13:53:01.008Z</time>
      </trkpt>
      <trkpt lat="40.869447" lon="-3.95073">
        <ele>2049</ele>
        <time>2018-06-30T13:53:07.008Z</time>
      </trkpt>
      <trkpt lat="40.869485" lon="-3.950798">
        <ele>2047</ele>
        <time>2018-06-30T13:53:12.008Z</time>
      </trkpt>
      <trkpt lat="40.869504" lon="-3.950861">
        <ele>2046.4178262743</ele>
        <time>2018-06-30T13:53:16.008Z</time>
      </trkpt>
      <trkpt lat="40.869541" lon="-3.95093">
        <ele>2046</ele>
        <time>2018-06-30T13:53:22.008Z</time>
      </trkpt>
      <trkpt lat="40.869572" lon="-3.95097">
        <ele>2046</ele>
        <time>2018-06-30T13:53:27.008Z</time>
      </trkpt>
      <trkpt lat="40.869611" lon="-3.951013">
        <ele>2044</ele>
        <time>2018-06-30T13:53:32.008Z</time>
      </trkpt>
      <trkpt lat="40.869657" lon="-3.951034">
        <ele>2043.42353206922</ele>
        <time>2018-06-30T13:53:36.008Z</time>
      </trkpt>
      <trkpt lat="40.869706" lon="-3.951078">
        <ele>2042</ele>
        <time>2018-06-30T13:53:42.008Z</time>
      </trkpt>
      <trkpt lat="40.869731" lon="-3.951139">
        <ele>2041</ele>
        <time>2018-06-30T13:53:47.008Z</time>
      </trkpt>
      <trkpt lat="40.869774" lon="-3.95118">
        <ele>2040.45778163355</ele>
        <time>2018-06-30T13:53:51.008Z</time>
      </trkpt>
      <trkpt lat="40.869804" lon="-3.951243">
        <ele>2039</ele>
        <time>2018-06-30T13:53:57.008Z</time>
      </trkpt>
      <trkpt lat="40.869839" lon="-3.951331">
        <ele>2037</ele>
        <time>2018-06-30T13:54:05.008Z</time>
      </trkpt>
      <trkpt lat="40.869854" lon="-3.951412">
        <ele>2035</ele>
        <time>2018-06-30T13:54:12.008Z</time>
      </trkpt>
      <trkpt lat="40.869886" lon="-3.951503">
        <ele>2034</ele>
        <time>2018-06-30T13:54:20.008Z</time>
      </trkpt>
      <trkpt lat="40.869885" lon="-3.9516">
        <ele>2032</ele>
        <time>2018-06-30T13:54:29.008Z</time>
      </trkpt>
      <trkpt lat="40.869906" lon="-3.95169">
        <ele>2030.42353206922</ele>
        <time>2018-06-30T13:54:36.008Z</time>
      </trkpt>
      <trkpt lat="40.869937" lon="-3.951772">
        <ele>2029</ele>
        <time>2018-06-30T13:54:43.008Z</time>
      </trkpt>
      <trkpt lat="40.869988" lon="-3.951843">
        <ele>2027.45778163355</ele>
        <time>2018-06-30T13:54:51.008Z</time>
      </trkpt>
      <trkpt lat="40.870016" lon="-3.951923">
        <ele>2026</ele>
        <time>2018-06-30T13:54:59.008Z</time>
      </trkpt>
      <trkpt lat="40.870021" lon="-3.952025">
        <ele>2023</ele>
        <time>2018-06-30T13:55:07.008Z</time>
      </trkpt>
      <trkpt lat="40.870038" lon="-3.952135">
        <ele>2022</ele>
        <time>2018-06-30T13:55:15.008Z</time>
      </trkpt>
      <trkpt lat="40.870078" lon="-3.952235">
        <ele>2018</ele>
        <time>2018-06-30T13:55:23.008Z</time>
      </trkpt>
      <trkpt lat="40.870119" lon="-3.952306">
        <ele>2016</ele>
        <time>2018-06-30T13:55:30.008Z</time>
      </trkpt>
      <trkpt lat="40.870163" lon="-3.952382">
        <ele>2014</ele>
        <time>2018-06-30T13:55:37.008Z</time>
      </trkpt>
      <trkpt lat="40.870098" lon="-3.952441">
        <ele>2012</ele>
        <time>2018-06-30T13:55:48.008Z</time>
      </trkpt>
      <trkpt lat="40.870117" lon="-3.952535">
        <ele>2011</ele>
        <time>2018-06-30T13:55:54.008Z</time>
      </trkpt>
      <trkpt lat="40.870168" lon="-3.952606">
        <ele>2010</ele>
        <time>2018-06-30T13:55:58.008Z</time>
      </trkpt>
      <trkpt lat="40.870214" lon="-3.95268">
        <ele>2008</ele>
        <time>2018-06-30T13:56:03.008Z</time>
      </trkpt>
      <trkpt lat="40.870272" lon="-3.952735">
        <ele>2007</ele>
        <time>2018-06-30T13:56:09.008Z</time>
      </trkpt>
      <trkpt lat="40.870333" lon="-3.952773">
        <ele>2006</ele>
        <time>2018-06-30T13:56:14.008Z</time>
      </trkpt>
      <trkpt lat="40.870436" lon="-3.952815">
        <ele>2005</ele>
        <time>2018-06-30T13:56:24.008Z</time>
      </trkpt>
      <trkpt lat="40.870514" lon="-3.95292">
        <ele>2003.26123584499</ele>
        <time>2018-06-30T13:56:31.008Z</time>
      </trkpt>
      <trkpt lat="40.870594" lon="-3.953007">
        <ele>2001</ele>
        <time>2018-06-30T13:56:37.008Z</time>
      </trkpt>
      <trkpt lat="40.870676" lon="-3.953093">
        <ele>1999</ele>
        <time>2018-06-30T13:56:44.008Z</time>
      </trkpt>
      <trkpt lat="40.870711" lon="-3.95317">
        <ele>1998</ele>
        <time>2018-06-30T13:56:49.008Z</time>
      </trkpt>
      <trkpt lat="40.870749" lon="-3.953258">
        <ele>1996</ele>
        <time>2018-06-30T13:56:54.008Z</time>
      </trkpt>
      <trkpt lat="40.870797" lon="-3.953329">
        <ele>1993</ele>
        <time>2018-06-30T13:56:59.008Z</time>
      </trkpt>
      <trkpt lat="40.870825" lon="-3.953425">
        <ele>1992</ele>
        <time>2018-06-30T13:57:06.008Z</time>
      </trkpt>
      <trkpt lat="40.870844" lon="-3.953517">
        <ele>1991</ele>
        <time>2018-06-30T13:57:14.008Z</time>
      </trkpt>
      <trkpt lat="40.870874" lon="-3.953603">
        <ele>1989.91556326711</ele>
        <time>2018-06-30T13:57:21.008Z</time>
      </trkpt>
      <trkpt lat="40.870916" lon="-3.953679">
        <ele>1987</ele>
        <time>2018-06-30T13:57:29.008Z</time>
      </trkpt>
      <trkpt lat="40.870896" lon="-3.953781">
        <ele>1984.84706413844</ele>
        <time>2018-06-30T13:57:36.008Z</time>
      </trkpt>
      <trkpt lat="40.870913" lon="-3.953918">
        <ele>1983</ele>
        <time>2018-06-30T13:57:45.008Z</time>
      </trkpt>
      <trkpt lat="40.870944" lon="-3.954004">
        <ele>1982</ele>
        <time>2018-06-30T13:57:50.008Z</time>
      </trkpt>
      <trkpt lat="40.870959" lon="-3.954103">
        <ele>1980</ele>
        <time>2018-06-30T13:57:55.008Z</time>
      </trkpt>
      <trkpt lat="40.871007" lon="-3.954229">
        <ele>1977</ele>
        <time>2018-06-30T13:58:03.008Z</time>
      </trkpt>
      <trkpt lat="40.87102" lon="-3.954343">
        <ele>1977</ele>
        <time>2018-06-30T13:58:10.008Z</time>
      </trkpt>
      <trkpt lat="40.871028" lon="-3.954454">
        <ele>1975</ele>
        <time>2018-06-30T13:58:18.008Z</time>
      </trkpt>
      <trkpt lat="40.871039" lon="-3.954564">
        <ele>1973</ele>
        <time>2018-06-30T13:58:24.008Z</time>
      </trkpt>
      <trkpt lat="40.871069" lon="-3.954673">
        <ele>1971</ele>
        <time>2018-06-30T13:58:30.008Z</time>
      </trkpt>
      <trkpt lat="40.871068" lon="-3.95479">
        <ele>1969</ele>
        <time>2018-06-30T13:58:37.008Z</time>
      </trkpt>
      <trkpt lat="40.871109" lon="-3.954883">
        <ele>1968</ele>
        <time>2018-06-30T13:58:42.008Z</time>
      </trkpt>
      <trkpt lat="40.871151" lon="-3.954963">
        <ele>1968</ele>
        <time>2018-06-30T13:58:47.008Z</time>
      </trkpt>
      <trkpt lat="40.871176" lon="-3.955042">
        <ele>1964</ele>
        <time>2018-06-30T13:58:58.008Z</time>
      </trkpt>
      <trkpt lat="40.871196" lon="-3.955137">
        <ele>1963</ele>
        <time>2018-06-30T13:59:04.008Z</time>
      </trkpt>
      <trkpt lat="40.871226" lon="-3.955231">
        <ele>1963</ele>
        <time>2018-06-30T13:59:08.008Z</time>
      </trkpt>
      <trkpt lat="40.871259" lon="-3.955354">
        <ele>1963</ele>
        <time>2018-06-30T13:59:13.008Z</time>
      </trkpt>
      <trkpt lat="40.871309" lon="-3.955484">
        <ele>1963</ele>
        <time>2018-06-30T13:59:18.008Z</time>
      </trkpt>
      <trkpt lat="40.871356" lon="-3.95561">
        <ele>1962</ele>
        <time>2018-06-30T13:59:29.008Z</time>
      </trkpt>
      <trkpt lat="40.871428" lon="-3.955728">
        <ele>1961</ele>
        <time>2018-06-30T13:59:37.008Z</time>
      </trkpt>
      <trkpt lat="40.871482" lon="-3.955818">
        <ele>1960</ele>
        <time>2018-06-30T13:59:42.008Z</time>
      </trkpt>
      <trkpt lat="40.871528" lon="-3.955928">
        <ele>1960</ele>
        <time>2018-06-30T13:59:48.008Z</time>
      </trkpt>
      <trkpt lat="40.871589" lon="-3.956041">
        <ele>1959</ele>
        <time>2018-06-30T13:59:57.008Z</time>
      </trkpt>
      <trkpt lat="40.871633" lon="-3.956146">
        <ele>1958</ele>
        <time>2018-06-30T14:00:04.008Z</time>
      </trkpt>
      <trkpt lat="40.871678" lon="-3.956268">
        <ele>1958</ele>
        <time>2018-06-30T14:00:10.008Z</time>
      </trkpt>
      <trkpt lat="40.871716" lon="-3.956407">
        <ele>1957</ele>
        <time>2018-06-30T14:00:16.008Z</time>
      </trkpt>
      <trkpt lat="40.871725" lon="-3.956539">
        <ele>1956.46373814949</ele>
        <time>2018-06-30T14:00:21.008Z</time>
      </trkpt>
      <trkpt lat="40.871741" lon="-3.956657">
        <ele>1956</ele>
        <time>2018-06-30T14:00:26.008Z</time>
      </trkpt>
      <trkpt lat="40.871739" lon="-3.956778">
        <ele>1956</ele>
        <time>2018-06-30T14:00:31.008Z</time>
      </trkpt>
      <trkpt lat="40.871747" lon="-3.956923">
        <ele>1956</ele>
        <time>2018-06-30T14:00:37.008Z</time>
      </trkpt>
      <trkpt lat="40.871773" lon="-3.957047">
        <ele>1955</ele>
        <time>2018-06-30T14:00:42.008Z</time>
      </trkpt>
      <trkpt lat="40.871786" lon="-3.957182">
        <ele>1955</ele>
        <time>2018-06-30T14:00:48.008Z</time>
      </trkpt>
      <trkpt lat="40.871772" lon="-3.957293">
        <ele>1953</ele>
        <time>2018-06-30T14:00:52.008Z</time>
      </trkpt>
      <trkpt lat="40.871768" lon="-3.957407">
        <ele>1953</ele>
        <time>2018-06-30T14:00:56.008Z</time>
      </trkpt>
      <trkpt lat="40.871763" lon="-3.957503">
        <ele>1953</ele>
        <time>2018-06-30T14:00:59.008Z</time>
      </trkpt>
      <trkpt lat="40.871763" lon="-3.957595">
        <ele>1951</ele>
        <time>2018-06-30T14:01:02.008Z</time>
      </trkpt>
      <trkpt lat="40.871762" lon="-3.957685">
        <ele>1951</ele>
        <time>2018-06-30T14:01:05.008Z</time>
      </trkpt>
      <trkpt lat="40.871781" lon="-3.95777">
        <ele>1951</ele>
        <time>2018-06-30T14:01:08.008Z</time>
      </trkpt>
      <trkpt lat="40.871795" lon="-3.957855">
        <ele>1951</ele>
        <time>2018-06-30T14:01:11.008Z</time>
      </trkpt>
      <trkpt lat="40.871804" lon="-3.95791">
        <ele>1951</ele>
        <time>2018-06-30T14:01:13.008Z</time>
      </trkpt>
      <trkpt lat="40.871815" lon="-3.957988">
        <ele>1951</ele>
        <time>2018-06-30T14:01:16.008Z</time>
      </trkpt>
      <trkpt lat="40.871828" lon="-3.958069">
        <ele>1951</ele>
        <time>2018-06-30T14:01:19.008Z</time>
      </trkpt>
      <trkpt lat="40.871842" lon="-3.958151">
        <ele>1949</ele>
        <time>2018-06-30T14:01:22.008Z</time>
      </trkpt>
      <trkpt lat="40.871844" lon="-3.958259">
        <ele>1949</ele>
        <time>2018-06-30T14:01:26.008Z</time>
      </trkpt>
      <trkpt lat="40.871845" lon="-3.958343">
        <ele>1949</ele>
        <time>2018-06-30T14:01:29.008Z</time>
      </trkpt>
      <trkpt lat="40.871858" lon="-3.958439">
        <ele>1947</ele>
        <time>2018-06-30T14:01:33.008Z</time>
      </trkpt>
      <trkpt lat="40.871879" lon="-3.958534">
        <ele>1947</ele>
        <time>2018-06-30T14:01:37.008Z</time>
      </trkpt>
      <trkpt lat="40.871897" lon="-3.958632">
        <ele>1945.24850020687</ele>
        <time>2018-06-30T14:01:41.008Z</time>
      </trkpt>
      <trkpt lat="40.871898" lon="-3.958716">
        <ele>1944</ele>
        <time>2018-06-30T14:01:44.008Z</time>
      </trkpt>
      <trkpt lat="40.871902" lon="-3.958802">
        <ele>1943</ele>
        <time>2018-06-30T14:01:47.008Z</time>
      </trkpt>
      <trkpt lat="40.871908" lon="-3.958883">
        <ele>1943</ele>
        <time>2018-06-30T14:01:50.008Z</time>
      </trkpt>
      <trkpt lat="40.871911" lon="-3.958963">
        <ele>1941</ele>
        <time>2018-06-30T14:01:53.008Z</time>
      </trkpt>
      <trkpt lat="40.871914" lon="-3.959045">
        <ele>1940.46545725357</ele>
        <time>2018-06-30T14:01:56.008Z</time>
      </trkpt>
      <trkpt lat="40.871913" lon="-3.959117">
        <ele>1940</ele>
        <time>2018-06-30T14:01:59.008Z</time>
      </trkpt>
      <trkpt lat="40.871908" lon="-3.959215">
        <ele>1938</ele>
        <time>2018-06-30T14:02:03.008Z</time>
      </trkpt>
      <trkpt lat="40.871918" lon="-3.95931">
        <ele>1937</ele>
        <time>2018-06-30T14:02:07.008Z</time>
      </trkpt>
      <trkpt lat="40.871945" lon="-3.959428">
        <ele>1936</ele>
        <time>2018-06-30T14:02:13.008Z</time>
      </trkpt>
      <trkpt lat="40.871969" lon="-3.959532">
        <ele>1934</ele>
        <time>2018-06-30T14:02:22.008Z</time>
      </trkpt>
      <trkpt lat="40.871986" lon="-3.959623">
        <ele>1934</ele>
        <time>2018-06-30T14:02:29.008Z</time>
      </trkpt>
      <trkpt lat="40.872004" lon="-3.959735">
        <ele>1932</ele>
        <time>2018-06-30T14:02:38.008Z</time>
      </trkpt>
      <trkpt lat="40.872018" lon="-3.959846">
        <ele>1930</ele>
        <time>2018-06-30T14:02:45.008Z</time>
      </trkpt>
      <trkpt lat="40.872029" lon="-3.959929">
        <ele>1928.37334490066</ele>
        <time>2018-06-30T14:02:51.008Z</time>
      </trkpt>
      <trkpt lat="40.87202" lon="-3.960048">
        <ele>1926</ele>
        <time>2018-06-30T14:02:59.008Z</time>
      </trkpt>
      <trkpt lat="40.872052" lon="-3.960181">
        <ele>1924</ele>
        <time>2018-06-30T14:03:08.008Z</time>
      </trkpt>
      <trkpt lat="40.87208" lon="-3.960315">
        <ele>1921.4178262743</ele>
        <time>2018-06-30T14:03:16.008Z</time>
      </trkpt>
      <trkpt lat="40.872138" lon="-3.960437">
        <ele>1920</ele>
        <time>2018-06-30T14:03:25.008Z</time>
      </trkpt>
      <trkpt lat="40.8722" lon="-3.960543">
        <ele>1917</ele>
        <time>2018-06-30T14:03:33.008Z</time>
      </trkpt>
      <trkpt lat="40.87227" lon="-3.960646">
        <ele>1914</ele>
        <time>2018-06-30T14:03:42.008Z</time>
      </trkpt>
      <trkpt lat="40.872339" lon="-3.96076">
        <ele>1910.91556326711</ele>
        <time>2018-06-30T14:03:51.008Z</time>
      </trkpt>
      <trkpt lat="40.872404" lon="-3.960871">
        <ele>1909</ele>
        <time>2018-06-30T14:04:00.008Z</time>
      </trkpt>
      <trkpt lat="40.872459" lon="-3.960981">
        <ele>1907</ele>
        <time>2018-06-30T14:04:07.008Z</time>
      </trkpt>
      <trkpt lat="40.872542" lon="-3.961061">
        <ele>1906</ele>
        <time>2018-06-30T14:04:16.008Z</time>
      </trkpt>
      <trkpt lat="40.872534" lon="-3.961169">
        <ele>1902.46545725357</ele>
        <time>2018-06-30T14:04:26.008Z</time>
      </trkpt>
      <trkpt lat="40.872533" lon="-3.961296">
        <ele>1902</ele>
        <time>2018-06-30T14:04:34.008Z</time>
      </trkpt>
      <trkpt lat="40.872549" lon="-3.961429">
        <ele>1899</ele>
        <time>2018-06-30T14:04:42.008Z</time>
      </trkpt>
      <trkpt lat="40.872601" lon="-3.961539">
        <ele>1897</ele>
        <time>2018-06-30T14:04:50.008Z</time>
      </trkpt>
      <trkpt lat="40.872584" lon="-3.961675">
        <ele>1894</ele>
        <time>2018-06-30T14:05:00.008Z</time>
      </trkpt>
      <trkpt lat="40.872608" lon="-3.961805">
        <ele>1891</ele>
        <time>2018-06-30T14:05:06.008Z</time>
      </trkpt>
      <trkpt lat="40.872638" lon="-3.961943">
        <ele>1889.24850020687</ele>
        <time>2018-06-30T14:05:11.008Z</time>
      </trkpt>
      <trkpt lat="40.872638" lon="-3.962074">
        <ele>1886</ele>
        <time>2018-06-30T14:05:18.008Z</time>
      </trkpt>
      <trkpt lat="40.872598" lon="-3.962198">
        <ele>1881</ele>
        <time>2018-06-30T14:05:27.008Z</time>
      </trkpt>
      <trkpt lat="40.872594" lon="-3.962354">
        <ele>1880</ele>
        <time>2018-06-30T14:05:34.008Z</time>
      </trkpt>
      <trkpt lat="40.872593" lon="-3.962515">
        <ele>1878</ele>
        <time>2018-06-30T14:05:39.008Z</time>
      </trkpt>
      <trkpt lat="40.872637" lon="-3.962648">
        <ele>1877</ele>
        <time>2018-06-30T14:05:45.008Z</time>
      </trkpt>
      <trkpt lat="40.872685" lon="-3.962775">
        <ele>1875</ele>
        <time>2018-06-30T14:05:51.008Z</time>
      </trkpt>
      <trkpt lat="40.872734" lon="-3.962911">
        <ele>1873</ele>
        <time>2018-06-30T14:05:57.008Z</time>
      </trkpt>
      <trkpt lat="40.872791" lon="-3.963036">
        <ele>1871</ele>
        <time>2018-06-30T14:06:02.008Z</time>
      </trkpt>
      <trkpt lat="40.87283" lon="-3.96316">
        <ele>1870</ele>
        <time>2018-06-30T14:06:08.008Z</time>
      </trkpt>
      <trkpt lat="40.872892" lon="-3.963271">
        <ele>1868</ele>
        <time>2018-06-30T14:06:15.008Z</time>
      </trkpt>
      <trkpt lat="40.872967" lon="-3.963375">
        <ele>1866</ele>
        <time>2018-06-30T14:06:22.008Z</time>
      </trkpt>
      <trkpt lat="40.87306" lon="-3.963477">
        <ele>1866</ele>
        <time>2018-06-30T14:06:28.008Z</time>
      </trkpt>
      <trkpt lat="40.87311" lon="-3.963613">
        <ele>1863</ele>
        <time>2018-06-30T14:06:33.008Z</time>
      </trkpt>
      <trkpt lat="40.873163" lon="-3.963733">
        <ele>1862</ele>
        <time>2018-06-30T14:06:37.008Z</time>
      </trkpt>
      <trkpt lat="40.8732" lon="-3.963858">
        <ele>1862</ele>
        <time>2018-06-30T14:06:41.008Z</time>
      </trkpt>
      <trkpt lat="40.87325" lon="-3.96397">
        <ele>1862</ele>
        <time>2018-06-30T14:06:45.008Z</time>
      </trkpt>
      <trkpt lat="40.873307" lon="-3.964073">
        <ele>1862</ele>
        <time>2018-06-30T14:06:49.008Z</time>
      </trkpt>
      <trkpt lat="40.873347" lon="-3.96417">
        <ele>1860</ele>
        <time>2018-06-30T14:06:53.008Z</time>
      </trkpt>
      <trkpt lat="40.873378" lon="-3.964264">
        <ele>1859.42041194833</ele>
        <time>2018-06-30T14:07:01.008Z</time>
      </trkpt>
      <trkpt lat="40.873418" lon="-3.964359">
        <ele>1859</ele>
        <time>2018-06-30T14:07:08.008Z</time>
      </trkpt>
      <trkpt lat="40.87346" lon="-3.964404">
        <ele>1859</ele>
        <time>2018-06-30T14:07:15.008Z</time>
      </trkpt>
      <trkpt lat="40.873504" lon="-3.964431">
        <ele>1858</ele>
        <time>2018-06-30T14:09:15.008Z</time>
      </trkpt>
      <trkpt lat="40.873534" lon="-3.964521">
        <ele>1857</ele>
        <time>2018-06-30T14:09:27.008Z</time>
      </trkpt>
      <trkpt lat="40.873562" lon="-3.964615">
        <ele>1857</ele>
        <time>2018-06-30T14:09:36.008Z</time>
      </trkpt>
      <trkpt lat="40.873577" lon="-3.964741">
        <ele>1856</ele>
        <time>2018-06-30T14:09:45.008Z</time>
      </trkpt>
      <trkpt lat="40.873574" lon="-3.964882">
        <ele>1855</ele>
        <time>2018-06-30T14:09:56.008Z</time>
      </trkpt>
      <trkpt lat="40.873578" lon="-3.964957">
        <ele>1854</ele>
        <time>2018-06-30T14:10:14.008Z</time>
      </trkpt>
      <trkpt lat="40.873574" lon="-3.965029">
        <ele>1854</ele>
        <time>2018-06-30T14:10:23.008Z</time>
      </trkpt>
      <trkpt lat="40.87356" lon="-3.965134">
        <ele>1853</ele>
        <time>2018-06-30T14:10:33.008Z</time>
      </trkpt>
      <trkpt lat="40.873518" lon="-3.965248">
        <ele>1852</ele>
        <time>2018-06-30T14:10:45.008Z</time>
      </trkpt>
      <trkpt lat="40.873482" lon="-3.965352">
        <ele>1850.91556326711</ele>
        <time>2018-06-30T14:10:51.008Z</time>
      </trkpt>
      <trkpt lat="40.873448" lon="-3.965474">
        <ele>1850</ele>
        <time>2018-06-30T14:10:58.008Z</time>
      </trkpt>
      <trkpt lat="40.873419" lon="-3.965584">
        <ele>1849</ele>
        <time>2018-06-30T14:11:02.008Z</time>
      </trkpt>
      <trkpt lat="40.87339" lon="-3.965701">
        <ele>1849</ele>
        <time>2018-06-30T14:11:06.008Z</time>
      </trkpt>
      <trkpt lat="40.873391" lon="-3.965802">
        <ele>1849</ele>
        <time>2018-06-30T14:11:09.008Z</time>
      </trkpt>
      <trkpt lat="40.873386" lon="-3.965914">
        <ele>1847</ele>
        <time>2018-06-30T14:11:13.008Z</time>
      </trkpt>
      <trkpt lat="40.8734" lon="-3.966042">
        <ele>1847</ele>
        <time>2018-06-30T14:11:18.008Z</time>
      </trkpt>
      <trkpt lat="40.873413" lon="-3.966156">
        <ele>1844</ele>
        <time>2018-06-30T14:11:22.008Z</time>
      </trkpt>
      <trkpt lat="40.873429" lon="-3.966296">
        <ele>1843</ele>
        <time>2018-06-30T14:11:27.008Z</time>
      </trkpt>
      <trkpt lat="40.873445" lon="-3.966435">
        <ele>1841</ele>
        <time>2018-06-30T14:11:33.008Z</time>
      </trkpt>
      <trkpt lat="40.873471" lon="-3.966588">
        <ele>1839</ele>
        <time>2018-06-30T14:11:39.008Z</time>
      </trkpt>
      <trkpt lat="40.873512" lon="-3.966712">
        <ele>1837</ele>
        <time>2018-06-30T14:11:45.008Z</time>
      </trkpt>
      <trkpt lat="40.873569" lon="-3.966828">
        <ele>1834.91556326711</ele>
        <time>2018-06-30T14:11:51.008Z</time>
      </trkpt>
      <trkpt lat="40.873626" lon="-3.96694">
        <ele>1831</ele>
        <time>2018-06-30T14:11:58.008Z</time>
      </trkpt>
      <trkpt lat="40.87369" lon="-3.967064">
        <ele>1829</ele>
        <time>2018-06-30T14:12:05.008Z</time>
      </trkpt>
      <trkpt lat="40.873732" lon="-3.967182">
        <ele>1826.83233347125</ele>
        <time>2018-06-30T14:12:11.008Z</time>
      </trkpt>
      <trkpt lat="40.873758" lon="-3.967319">
        <ele>1824.8356525486</ele>
        <time>2018-06-30T14:12:16.008Z</time>
      </trkpt>
      <trkpt lat="40.87378" lon="-3.96746">
        <ele>1821</ele>
        <time>2018-06-30T14:12:22.008Z</time>
      </trkpt>
      <trkpt lat="40.873808" lon="-3.967607">
        <ele>1820</ele>
        <time>2018-06-30T14:12:30.008Z</time>
      </trkpt>
      <trkpt lat="40.873774" lon="-3.967757">
        <ele>1818</ele>
        <time>2018-06-30T14:12:35.008Z</time>
      </trkpt>
      <trkpt lat="40.873738" lon="-3.967883">
        <ele>1817</ele>
        <time>2018-06-30T14:12:39.008Z</time>
      </trkpt>
      <trkpt lat="40.873703" lon="-3.968031">
        <ele>1816.53454274643</ele>
        <time>2018-06-30T14:12:44.008Z</time>
      </trkpt>
      <trkpt lat="40.873652" lon="-3.968168">
        <ele>1817</ele>
        <time>2018-06-30T14:12:50.008Z</time>
      </trkpt>
      <trkpt lat="40.87362" lon="-3.968307">
        <ele>1815</ele>
        <time>2018-06-30T14:12:57.008Z</time>
      </trkpt>
      <trkpt lat="40.873616" lon="-3.968442">
        <ele>1813</ele>
        <time>2018-06-30T14:13:03.008Z</time>
      </trkpt>
      <trkpt lat="40.873592" lon="-3.968524">
        <ele>1813</ele>
        <time>2018-06-30T14:13:12.008Z</time>
      </trkpt>
      <trkpt lat="40.873605" lon="-3.968627">
        <ele>1812</ele>
        <time>2018-06-30T14:14:13.008Z</time>
      </trkpt>
      <trkpt lat="40.873611" lon="-3.968761">
        <ele>1812</ele>
        <time>2018-06-30T14:15:00.008Z</time>
      </trkpt>
      <trkpt lat="40.873649" lon="-3.968869">
        <ele>1812</ele>
        <time>2018-06-30T14:15:05.008Z</time>
      </trkpt>
      <trkpt lat="40.873695" lon="-3.968951">
        <ele>1812</ele>
        <time>2018-06-30T14:15:09.008Z</time>
      </trkpt>
      <trkpt lat="40.873731" lon="-3.969037">
        <ele>1812</ele>
        <time>2018-06-30T14:15:13.008Z</time>
      </trkpt>
      <trkpt lat="40.873762" lon="-3.96912">
        <ele>1812</ele>
        <time>2018-06-30T14:15:17.008Z</time>
      </trkpt>
      <trkpt lat="40.873777" lon="-3.969234">
        <ele>1811</ele>
        <time>2018-06-30T14:15:22.008Z</time>
      </trkpt>
      <trkpt lat="40.873792" lon="-3.969326">
        <ele>1810.46545725357</ele>
        <time>2018-06-30T14:15:26.008Z</time>
      </trkpt>
      <trkpt lat="40.873803" lon="-3.969433">
        <ele>1810</ele>
        <time>2018-06-30T14:15:30.008Z</time>
      </trkpt>
      <trkpt lat="40.873808" lon="-3.969546">
        <ele>1810</ele>
        <time>2018-06-30T14:15:34.008Z</time>
      </trkpt>
      <trkpt lat="40.873812" lon="-3.96966">
        <ele>1810</ele>
        <time>2018-06-30T14:15:39.008Z</time>
      </trkpt>
      <trkpt lat="40.873808" lon="-3.969764">
        <ele>1808</ele>
        <time>2018-06-30T14:15:43.008Z</time>
      </trkpt>
      <trkpt lat="40.87378" lon="-3.969873">
        <ele>1808</ele>
        <time>2018-06-30T14:15:48.008Z</time>
      </trkpt>
      <trkpt lat="40.873719" lon="-3.969959">
        <ele>1805</ele>
        <time>2018-06-30T14:15:53.008Z</time>
      </trkpt>
      <trkpt lat="40.873625" lon="-3.970005">
        <ele>1804</ele>
        <time>2018-06-30T14:15:58.008Z</time>
      </trkpt>
      <trkpt lat="40.873522" lon="-3.970072">
        <ele>1802</ele>
        <time>2018-06-30T14:16:05.008Z</time>
      </trkpt>
      <trkpt lat="40.873461" lon="-3.970171">
        <ele>1802</ele>
        <time>2018-06-30T14:16:09.008Z</time>
      </trkpt>
      <trkpt lat="40.87336" lon="-3.970234">
        <ele>1801</ele>
        <time>2018-06-30T14:16:15.008Z</time>
      </trkpt>
      <trkpt lat="40.87327" lon="-3.970284">
        <ele>1799.91556326711</ele>
        <time>2018-06-30T14:16:21.008Z</time>
      </trkpt>
      <trkpt lat="40.873224" lon="-3.970414">
        <ele>1797</ele>
        <time>2018-06-30T14:16:28.008Z</time>
      </trkpt>
      <trkpt lat="40.87315" lon="-3.97051">
        <ele>1795</ele>
        <time>2018-06-30T14:16:35.008Z</time>
      </trkpt>
      <trkpt lat="40.873066" lon="-3.970607">
        <ele>1791.83233347125</ele>
        <time>2018-06-30T14:16:41.008Z</time>
      </trkpt>
      <trkpt lat="40.872978" lon="-3.970676">
        <ele>1789.8356525486</ele>
        <time>2018-06-30T14:16:46.008Z</time>
      </trkpt>
      <trkpt lat="40.872882" lon="-3.970774">
        <ele>1788</ele>
        <time>2018-06-30T14:16:52.008Z</time>
      </trkpt>
      <trkpt lat="40.872798" lon="-3.970863">
        <ele>1786</ele>
        <time>2018-06-30T14:16:58.008Z</time>
      </trkpt>
      <trkpt lat="40.872716" lon="-3.970974">
        <ele>1781.41616673562</ele>
        <time>2018-06-30T14:17:05.008Z</time>
      </trkpt>
      <trkpt lat="40.872652" lon="-3.971066">
        <ele>1780</ele>
        <time>2018-06-30T14:17:10.008Z</time>
      </trkpt>
      <trkpt lat="40.872592" lon="-3.971163">
        <ele>1780</ele>
        <time>2018-06-30T14:17:15.008Z</time>
      </trkpt>
      <trkpt lat="40.872513" lon="-3.971282">
        <ele>1777</ele>
        <time>2018-06-30T14:17:22.008Z</time>
      </trkpt>
      <trkpt lat="40.872429" lon="-3.971364">
        <ele>1776</ele>
        <time>2018-06-30T14:17:27.008Z</time>
      </trkpt>
      <trkpt lat="40.872325" lon="-3.971426">
        <ele>1775</ele>
        <time>2018-06-30T14:17:32.008Z</time>
      </trkpt>
      <trkpt lat="40.872229" lon="-3.971482">
        <ele>1774</ele>
        <time>2018-06-30T14:17:37.008Z</time>
      </trkpt>
      <trkpt lat="40.872139" lon="-3.971574">
        <ele>1773</ele>
        <time>2018-06-30T14:17:42.008Z</time>
      </trkpt>
      <trkpt lat="40.87208" lon="-3.971684">
        <ele>1773</ele>
        <time>2018-06-30T14:17:46.008Z</time>
      </trkpt>
      <trkpt lat="40.872001" lon="-3.971778">
        <ele>1771.91556326711</ele>
        <time>2018-06-30T14:17:51.008Z</time>
      </trkpt>
      <trkpt lat="40.87193" lon="-3.971877">
        <ele>1771</ele>
        <time>2018-06-30T14:17:56.008Z</time>
      </trkpt>
      <trkpt lat="40.87187" lon="-3.971975">
        <ele>1768.10205974165</ele>
        <time>2018-06-30T14:18:01.008Z</time>
      </trkpt>
      <trkpt lat="40.871816" lon="-3.972083">
        <ele>1766</ele>
        <time>2018-06-30T14:18:05.008Z</time>
      </trkpt>
      <trkpt lat="40.871731" lon="-3.972169">
        <ele>1766</ele>
        <time>2018-06-30T14:18:10.008Z</time>
      </trkpt>
      <trkpt lat="40.87164" lon="-3.972226">
        <ele>1766</ele>
        <time>2018-06-30T14:18:14.008Z</time>
      </trkpt>
      <trkpt lat="40.871584" lon="-3.97236">
        <ele>1766</ele>
        <time>2018-06-30T14:18:19.008Z</time>
      </trkpt>
      <trkpt lat="40.871596" lon="-3.972507">
        <ele>1763</ele>
        <time>2018-06-30T14:18:24.008Z</time>
      </trkpt>
      <trkpt lat="40.871618" lon="-3.97265">
        <ele>1762.57958805167</ele>
        <time>2018-06-30T14:18:31.008Z</time>
      </trkpt>
      <trkpt lat="40.871645" lon="-3.972748">
        <ele>1762</ele>
        <time>2018-06-30T14:19:14.008Z</time>
      </trkpt>
      <trkpt lat="40.871644" lon="-3.972848">
        <ele>1762</ele>
        <time>2018-06-30T14:19:20.008Z</time>
      </trkpt>
      <trkpt lat="40.871651" lon="-3.972979">
        <ele>1761</ele>
        <time>2018-06-30T14:19:26.008Z</time>
      </trkpt>
      <trkpt lat="40.871651" lon="-3.973117">
        <ele>1759</ele>
        <time>2018-06-30T14:19:32.008Z</time>
      </trkpt>
      <trkpt lat="40.871654" lon="-3.973254">
        <ele>1759</ele>
        <time>2018-06-30T14:19:38.008Z</time>
      </trkpt>
      <trkpt lat="40.87165" lon="-3.973383">
        <ele>1756</ele>
        <time>2018-06-30T14:19:43.008Z</time>
      </trkpt>
      <trkpt lat="40.871657" lon="-3.973484">
        <ele>1755</ele>
        <time>2018-06-30T14:19:48.008Z</time>
      </trkpt>
      <trkpt lat="40.871622" lon="-3.973615">
        <ele>1753</ele>
        <time>2018-06-30T14:19:53.008Z</time>
      </trkpt>
      <trkpt lat="40.871626" lon="-3.973746">
        <ele>1752</ele>
        <time>2018-06-30T14:19:58.008Z</time>
      </trkpt>
      <trkpt lat="40.871669" lon="-3.973874">
        <ele>1750</ele>
        <time>2018-06-30T14:20:03.008Z</time>
      </trkpt>
      <trkpt lat="40.871697" lon="-3.974013">
        <ele>1750</ele>
        <time>2018-06-30T14:20:09.008Z</time>
      </trkpt>
      <trkpt lat="40.871723" lon="-3.974159">
        <ele>1748</ele>
        <time>2018-06-30T14:20:15.008Z</time>
      </trkpt>
      <trkpt lat="40.87175" lon="-3.974305">
        <ele>1748</ele>
        <time>2018-06-30T14:20:20.008Z</time>
      </trkpt>
      <trkpt lat="40.871786" lon="-3.974437">
        <ele>1746</ele>
        <time>2018-06-30T14:20:25.008Z</time>
      </trkpt>
      <trkpt lat="40.871815" lon="-3.974544">
        <ele>1746</ele>
        <time>2018-06-30T14:20:28.008Z</time>
      </trkpt>
      <trkpt lat="40.87186" lon="-3.974657">
        <ele>1743</ele>
        <time>2018-06-30T14:20:33.008Z</time>
      </trkpt>
      <trkpt lat="40.871906" lon="-3.974772">
        <ele>1742</ele>
        <time>2018-06-30T14:20:39.008Z</time>
      </trkpt>
      <trkpt lat="40.871942" lon="-3.974895">
        <ele>1739</ele>
        <time>2018-06-30T14:20:45.008Z</time>
      </trkpt>
      <trkpt lat="40.87199" lon="-3.975038">
        <ele>1738</ele>
        <time>2018-06-30T14:20:50.008Z</time>
      </trkpt>
      <trkpt lat="40.872036" lon="-3.975184">
        <ele>1736</ele>
        <time>2018-06-30T14:20:55.008Z</time>
      </trkpt>
      <trkpt lat="40.872094" lon="-3.975294">
        <ele>1735</ele>
        <time>2018-06-30T14:21:00.008Z</time>
      </trkpt>
      <trkpt lat="40.872173" lon="-3.975406">
        <ele>1732</ele>
        <time>2018-06-30T14:21:06.008Z</time>
      </trkpt>
      <trkpt lat="40.872224" lon="-3.97556">
        <ele>1732</ele>
        <time>2018-06-30T14:21:10.008Z</time>
      </trkpt>
      <trkpt lat="40.872309" lon="-3.975646">
        <ele>1730</ele>
        <time>2018-06-30T14:21:18.008Z</time>
      </trkpt>
      <trkpt lat="40.872416" lon="-3.975638">
        <ele>1727</ele>
        <time>2018-06-30T14:21:25.008Z</time>
      </trkpt>
      <trkpt lat="40.87252" lon="-3.975592">
        <ele>1724</ele>
        <time>2018-06-30T14:21:30.008Z</time>
      </trkpt>
      <trkpt lat="40.872625" lon="-3.975562">
        <ele>1719.42353206922</ele>
        <time>2018-06-30T14:21:36.008Z</time>
      </trkpt>
      <trkpt lat="40.872724" lon="-3.975604">
        <ele>1717</ele>
        <time>2018-06-30T14:21:42.008Z</time>
      </trkpt>
      <trkpt lat="40.872831" lon="-3.975658">
        <ele>1716</ele>
        <time>2018-06-30T14:21:49.008Z</time>
      </trkpt>
      <trkpt lat="40.872916" lon="-3.975732">
        <ele>1714</ele>
        <time>2018-06-30T14:21:55.008Z</time>
      </trkpt>
      <trkpt lat="40.873017" lon="-3.975769">
        <ele>1710</ele>
        <time>2018-06-30T14:22:03.008Z</time>
      </trkpt>
      <trkpt lat="40.873096" lon="-3.975853">
        <ele>1709</ele>
        <time>2018-06-30T14:22:10.008Z</time>
      </trkpt>
      <trkpt lat="40.87318" lon="-3.975953">
        <ele>1705</ele>
        <time>2018-06-30T14:22:17.008Z</time>
      </trkpt>
      <trkpt lat="40.873264" lon="-3.976022">
        <ele>1704</ele>
        <time>2018-06-30T14:22:23.008Z</time>
      </trkpt>
      <trkpt lat="40.873372" lon="-3.975997">
        <ele>1704</ele>
        <time>2018-06-30T14:22:29.008Z</time>
      </trkpt>
      <trkpt lat="40.873483" lon="-3.975993">
        <ele>1697.69412827688</ele>
        <time>2018-06-30T14:22:36.008Z</time>
      </trkpt>
      <trkpt lat="40.873579" lon="-3.976033">
        <ele>1692</ele>
        <time>2018-06-30T14:22:43.008Z</time>
      </trkpt>
      <trkpt lat="40.873666" lon="-3.976112">
        <ele>1690</ele>
        <time>2018-06-30T14:22:50.008Z</time>
      </trkpt>
      <trkpt lat="40.873765" lon="-3.976142">
        <ele>1688</ele>
        <time>2018-06-30T14:22:57.008Z</time>
      </trkpt>
      <trkpt lat="40.873855" lon="-3.976224">
        <ele>1686</ele>
        <time>2018-06-30T14:23:03.008Z</time>
      </trkpt>
      <trkpt lat="40.873939" lon="-3.976318">
        <ele>1683</ele>
        <time>2018-06-30T14:23:12.008Z</time>
      </trkpt>
      <trkpt lat="40.874041" lon="-3.976302">
        <ele>1680</ele>
        <time>2018-06-30T14:23:18.008Z</time>
      </trkpt>
      <trkpt lat="40.874149" lon="-3.976305">
        <ele>1676</ele>
        <time>2018-06-30T14:23:27.008Z</time>
      </trkpt>
      <trkpt lat="40.874247" lon="-3.976362">
        <ele>1675</ele>
        <time>2018-06-30T14:23:35.008Z</time>
      </trkpt>
      <trkpt lat="40.874355" lon="-3.976399">
        <ele>1672</ele>
        <time>2018-06-30T14:23:44.008Z</time>
      </trkpt>
      <trkpt lat="40.874456" lon="-3.976457">
        <ele>1668.91556326711</ele>
        <time>2018-06-30T14:23:51.008Z</time>
      </trkpt>
      <trkpt lat="40.874558" lon="-3.976529">
        <ele>1667</ele>
        <time>2018-06-30T14:23:58.008Z</time>
      </trkpt>
      <trkpt lat="40.874658" lon="-3.976606">
        <ele>1663</ele>
        <time>2018-06-30T14:24:05.008Z</time>
      </trkpt>
      <trkpt lat="40.874749" lon="-3.976699">
        <ele>1663</ele>
        <time>2018-06-30T14:24:10.008Z</time>
      </trkpt>
      <trkpt lat="40.874848" lon="-3.976764">
        <ele>1662</ele>
        <time>2018-06-30T14:24:16.008Z</time>
      </trkpt>
      <trkpt lat="40.874946" lon="-3.976789">
        <ele>1659</ele>
        <time>2018-06-30T14:24:22.008Z</time>
      </trkpt>
      <trkpt lat="40.875044" lon="-3.976819">
        <ele>1656</ele>
        <time>2018-06-30T14:24:28.008Z</time>
      </trkpt>
      <trkpt lat="40.875144" lon="-3.976859">
        <ele>1655</ele>
        <time>2018-06-30T14:24:35.008Z</time>
      </trkpt>
      <trkpt lat="40.875247" lon="-3.976921">
        <ele>1652</ele>
        <time>2018-06-30T14:24:43.008Z</time>
      </trkpt>
      <trkpt lat="40.875351" lon="-3.97691">
        <ele>1649</ele>
        <time>2018-06-30T14:24:49.008Z</time>
      </trkpt>
      <trkpt lat="40.875454" lon="-3.976919">
        <ele>1646.93091450714</ele>
        <time>2018-06-30T14:24:56.008Z</time>
      </trkpt>
      <trkpt lat="40.875565" lon="-3.976956">
        <ele>1641.41616673562</ele>
        <time>2018-06-30T14:25:05.008Z</time>
      </trkpt>
      <trkpt lat="40.875663" lon="-3.976916">
        <ele>1641</ele>
        <time>2018-06-30T14:25:09.008Z</time>
      </trkpt>
      <trkpt lat="40.875768" lon="-3.976907">
        <ele>1640</ele>
        <time>2018-06-30T14:25:15.008Z</time>
      </trkpt>
      <trkpt lat="40.875889" lon="-3.976897">
        <ele>1638.37334490066</ele>
        <time>2018-06-30T14:25:21.008Z</time>
      </trkpt>
      <trkpt lat="40.875997" lon="-3.97691">
        <ele>1635</ele>
        <time>2018-06-30T14:25:27.008Z</time>
      </trkpt>
      <trkpt lat="40.876115" lon="-3.976919">
        <ele>1633</ele>
        <time>2018-06-30T14:25:33.008Z</time>
      </trkpt>
      <trkpt lat="40.876227" lon="-3.976924">
        <ele>1631</ele>
        <time>2018-06-30T14:25:40.008Z</time>
      </trkpt>
      <trkpt lat="40.876328" lon="-3.976987">
        <ele>1628.4178262743</ele>
        <time>2018-06-30T14:25:46.008Z</time>
      </trkpt>
      <trkpt lat="40.876425" lon="-3.976961">
        <ele>1627.45778163355</ele>
        <time>2018-06-30T14:25:51.008Z</time>
      </trkpt>
      <trkpt lat="40.876528" lon="-3.977007">
        <ele>1627</ele>
        <time>2018-06-30T14:25:59.008Z</time>
      </trkpt>
      <trkpt lat="40.876629" lon="-3.977039">
        <ele>1624</ele>
        <time>2018-06-30T14:26:05.008Z</time>
      </trkpt>
      <trkpt lat="40.87673" lon="-3.977013">
        <ele>1622.24850020687</ele>
        <time>2018-06-30T14:26:11.008Z</time>
      </trkpt>
      <trkpt lat="40.876834" lon="-3.977028">
        <ele>1620.4178262743</ele>
        <time>2018-06-30T14:26:16.008Z</time>
      </trkpt>
      <trkpt lat="40.876932" lon="-3.977054">
        <ele>1617</ele>
        <time>2018-06-30T14:26:23.008Z</time>
      </trkpt>
      <trkpt lat="40.877034" lon="-3.977028">
        <ele>1616</ele>
        <time>2018-06-30T14:26:28.008Z</time>
      </trkpt>
      <trkpt lat="40.877135" lon="-3.976973">
        <ele>1613</ele>
        <time>2018-06-30T14:26:33.008Z</time>
      </trkpt>
      <trkpt lat="40.877239" lon="-3.976953">
        <ele>1612</ele>
        <time>2018-06-30T14:26:39.008Z</time>
      </trkpt>
      <trkpt lat="40.877344" lon="-3.976944">
        <ele>1610</ele>
        <time>2018-06-30T14:26:44.008Z</time>
      </trkpt>
      <trkpt lat="40.877445" lon="-3.976935">
        <ele>1608</ele>
        <time>2018-06-30T14:26:50.008Z</time>
      </trkpt>
      <trkpt lat="40.877554" lon="-3.976897">
        <ele>1606.4702714546</ele>
        <time>2018-06-30T14:26:56.008Z</time>
      </trkpt>
      <trkpt lat="40.87766" lon="-3.97684">
        <ele>1602</ele>
        <time>2018-06-30T14:27:02.008Z</time>
      </trkpt>
      <trkpt lat="40.877754" lon="-3.9768">
        <ele>1602</ele>
        <time>2018-06-30T14:27:08.008Z</time>
      </trkpt>
      <trkpt lat="40.877871" lon="-3.976778">
        <ele>1601</ele>
        <time>2018-06-30T14:27:16.008Z</time>
      </trkpt>
      <trkpt lat="40.877973" lon="-3.97676">
        <ele>1599.37334490066</ele>
        <time>2018-06-30T14:27:21.008Z</time>
      </trkpt>
      <trkpt lat="40.878071" lon="-3.9767">
        <ele>1598</ele>
        <time>2018-06-30T14:27:25.008Z</time>
      </trkpt>
      <trkpt lat="40.878159" lon="-3.976722">
        <ele>1594.42041194833</ele>
        <time>2018-06-30T14:27:31.008Z</time>
      </trkpt>
      <trkpt lat="40.878251" lon="-3.976728">
        <ele>1593</ele>
        <time>2018-06-30T14:27:39.008Z</time>
      </trkpt>
      <trkpt lat="40.878322" lon="-3.976758">
        <ele>1590.4178262743</ele>
        <time>2018-06-30T14:27:46.008Z</time>
      </trkpt>
      <trkpt lat="40.878394" lon="-3.976794">
        <ele>1589</ele>
        <time>2018-06-30T14:27:53.008Z</time>
      </trkpt>
      <trkpt lat="40.878494" lon="-3.976832">
        <ele>1586</ele>
        <time>2018-06-30T14:28:03.008Z</time>
      </trkpt>
      <trkpt lat="40.878598" lon="-3.976831">
        <ele>1585</ele>
        <time>2018-06-30T14:28:10.008Z</time>
      </trkpt>
      <trkpt lat="40.878716" lon="-3.976793">
        <ele>1581</ele>
        <time>2018-06-30T14:28:17.008Z</time>
      </trkpt>
      <trkpt lat="40.878818" lon="-3.976756">
        <ele>1577.93091450714</ele>
        <time>2018-06-30T14:28:26.008Z</time>
      </trkpt>
      <trkpt lat="40.878912" lon="-3.976812">
        <ele>1577</ele>
        <time>2018-06-30T14:28:33.008Z</time>
      </trkpt>
      <trkpt lat="40.879024" lon="-3.976807">
        <ele>1576</ele>
        <time>2018-06-30T14:28:40.008Z</time>
      </trkpt>
      <trkpt lat="40.879132" lon="-3.976799">
        <ele>1573</ele>
        <time>2018-06-30T14:28:45.008Z</time>
      </trkpt>
      <trkpt lat="40.879236" lon="-3.976784">
        <ele>1572</ele>
        <time>2018-06-30T14:28:49.008Z</time>
      </trkpt>
      <trkpt lat="40.879332" lon="-3.976798">
        <ele>1570</ele>
        <time>2018-06-30T14:28:53.008Z</time>
      </trkpt>
      <trkpt lat="40.879439" lon="-3.976803">
        <ele>1568</ele>
        <time>2018-06-30T14:28:59.008Z</time>
      </trkpt>
      <trkpt lat="40.879538" lon="-3.976836">
        <ele>1565</ele>
        <time>2018-06-30T14:29:05.008Z</time>
      </trkpt>
      <trkpt lat="40.879633" lon="-3.976801">
        <ele>1565</ele>
        <time>2018-06-30T14:29:10.008Z</time>
      </trkpt>
      <trkpt lat="40.879732" lon="-3.976764">
        <ele>1563</ele>
        <time>2018-06-30T14:29:16.008Z</time>
      </trkpt>
      <trkpt lat="40.879837" lon="-3.976745">
        <ele>1560</ele>
        <time>2018-06-30T14:29:23.008Z</time>
      </trkpt>
      <trkpt lat="40.879917" lon="-3.976664">
        <ele>1558</ele>
        <time>2018-06-30T14:29:27.008Z</time>
      </trkpt>
      <trkpt lat="40.88001" lon="-3.976604">
        <ele>1556</ele>
        <time>2018-06-30T14:29:34.008Z</time>
      </trkpt>
      <trkpt lat="40.880103" lon="-3.976559">
        <ele>1555</ele>
        <time>2018-06-30T14:29:39.008Z</time>
      </trkpt>
      <trkpt lat="40.88021" lon="-3.976532">
        <ele>1552</ele>
        <time>2018-06-30T14:29:49.008Z</time>
      </trkpt>
      <trkpt lat="40.880312" lon="-3.97645">
        <ele>1551</ele>
        <time>2018-06-30T14:29:56.008Z</time>
      </trkpt>
      <trkpt lat="40.880399" lon="-3.976345">
        <ele>1551</ele>
        <time>2018-06-30T14:30:00.008Z</time>
      </trkpt>
      <trkpt lat="40.880474" lon="-3.976249">
        <ele>1548</ele>
        <time>2018-06-30T14:30:05.008Z</time>
      </trkpt>
      <trkpt lat="40.880533" lon="-3.976121">
        <ele>1549</ele>
        <time>2018-06-30T14:30:19.008Z</time>
      </trkpt>
      <trkpt lat="40.88059" lon="-3.975987">
        <ele>1548</ele>
        <time>2018-06-30T14:30:27.008Z</time>
      </trkpt>
      <trkpt lat="40.880594" lon="-3.975854">
        <ele>1549</ele>
        <time>2018-06-30T14:30:54.008Z</time>
      </trkpt>
      <trkpt lat="40.880617" lon="-3.975751">
        <ele>1550</ele>
        <time>2018-06-30T14:31:05.008Z</time>
      </trkpt>
      <trkpt lat="40.880672" lon="-3.975694">
        <ele>1551</ele>
        <time>2018-06-30T14:31:22.008Z</time>
      </trkpt>
      <trkpt lat="40.880701" lon="-3.975711">
        <ele>1553</ele>
        <time>2018-06-30T14:31:38.008Z</time>
      </trkpt>
      <trkpt lat="40.880734" lon="-3.975774">
        <ele>1553</ele>
        <time>2018-06-30T14:31:50.008Z</time>
      </trkpt>
      <trkpt lat="40.88076" lon="-3.975835">
        <ele>1551</ele>
        <time>2018-06-30T14:31:57.008Z</time>
      </trkpt>
      <trkpt lat="40.880786" lon="-3.975893">
        <ele>1549</ele>
        <time>2018-06-30T14:32:02.008Z</time>
      </trkpt>
      <trkpt lat="40.880814" lon="-3.975956">
        <ele>1549</ele>
        <time>2018-06-30T14:32:07.008Z</time>
      </trkpt>
      <trkpt lat="40.880851" lon="-3.976027">
        <ele>1549</ele>
        <time>2018-06-30T14:32:13.008Z</time>
      </trkpt>
      <trkpt lat="40.880877" lon="-3.976104">
        <ele>1549</ele>
        <time>2018-06-30T14:32:18.008Z</time>
      </trkpt>
      <trkpt lat="40.880923" lon="-3.976196">
        <ele>1548</ele>
        <time>2018-06-30T14:32:25.008Z</time>
      </trkpt>
      <trkpt lat="40.880959" lon="-3.97633">
        <ele>1547</ele>
        <time>2018-06-30T14:32:33.008Z</time>
      </trkpt>
      <trkpt lat="40.88103" lon="-3.976418">
        <ele>1545.41616673562</ele>
        <time>2018-06-30T14:32:41.008Z</time>
      </trkpt>
      <trkpt lat="40.88107" lon="-3.976432">
        <ele>1545</ele>
        <time>2018-06-30T14:32:45.008Z</time>
      </trkpt>
      <trkpt lat="40.881131" lon="-3.976484">
        <ele>1545</ele>
        <time>2018-06-30T14:32:52.008Z</time>
      </trkpt>
      <trkpt lat="40.881162" lon="-3.976538">
        <ele>1545</ele>
        <time>2018-06-30T14:32:57.008Z</time>
      </trkpt>
      <trkpt lat="40.881213" lon="-3.976643">
        <ele>1543</ele>
        <time>2018-06-30T14:33:05.008Z</time>
      </trkpt>
      <trkpt lat="40.881275" lon="-3.976746">
        <ele>1543</ele>
        <time>2018-06-30T14:33:12.008Z</time>
      </trkpt>
      <trkpt lat="40.881363" lon="-3.976845">
        <ele>1542</ele>
        <time>2018-06-30T14:33:18.008Z</time>
      </trkpt>
      <trkpt lat="40.881442" lon="-3.976931">
        <ele>1541</ele>
        <time>2018-06-30T14:33:23.008Z</time>
      </trkpt>
      <trkpt lat="40.881551" lon="-3.97698">
        <ele>1541</ele>
        <time>2018-06-30T14:33:28.008Z</time>
      </trkpt>
      <trkpt lat="40.881618" lon="-3.977067">
        <ele>1538</ele>
        <time>2018-06-30T14:33:33.008Z</time>
      </trkpt>
      <trkpt lat="40.881689" lon="-3.977118">
        <ele>1537</ele>
        <time>2018-06-30T14:33:38.008Z</time>
      </trkpt>
      <trkpt lat="40.881726" lon="-3.97723">
        <ele>1536</ele>
        <time>2018-06-30T14:33:44.008Z</time>
      </trkpt>
      <trkpt lat="40.881762" lon="-3.977338">
        <ele>1536</ele>
        <time>2018-06-30T14:33:49.008Z</time>
      </trkpt>
      <trkpt lat="40.881803" lon="-3.977455">
        <ele>1533</ele>
        <time>2018-06-30T14:33:54.008Z</time>
      </trkpt>
      <trkpt lat="40.881857" lon="-3.977578">
        <ele>1530</ele>
        <time>2018-06-30T14:34:00.008Z</time>
      </trkpt>
      <trkpt lat="40.881903" lon="-3.977692">
        <ele>1528</ele>
        <time>2018-06-30T14:34:05.008Z</time>
      </trkpt>
      <trkpt lat="40.88196" lon="-3.977796">
        <ele>1527</ele>
        <time>2018-06-30T14:34:10.008Z</time>
      </trkpt>
      <trkpt lat="40.882027" lon="-3.977904">
        <ele>1525</ele>
        <time>2018-06-30T14:34:15.008Z</time>
      </trkpt>
      <trkpt lat="40.882073" lon="-3.978038">
        <ele>1522.45778163355</ele>
        <time>2018-06-30T14:34:21.008Z</time>
      </trkpt>
      <trkpt lat="40.882139" lon="-3.978163">
        <ele>1520</ele>
        <time>2018-06-30T14:34:28.008Z</time>
      </trkpt>
      <trkpt lat="40.8822" lon="-3.978295">
        <ele>1519</ele>
        <time>2018-06-30T14:34:33.008Z</time>
      </trkpt>
      <trkpt lat="40.88225" lon="-3.978408">
        <ele>1519</ele>
        <time>2018-06-30T14:34:37.008Z</time>
      </trkpt>
      <trkpt lat="40.882323" lon="-3.978507">
        <ele>1518.41616673562</ele>
        <time>2018-06-30T14:34:41.008Z</time>
      </trkpt>
      <trkpt lat="40.882392" lon="-3.978608">
        <ele>1518</ele>
        <time>2018-06-30T14:34:45.008Z</time>
      </trkpt>
      <trkpt lat="40.882443" lon="-3.978729">
        <ele>1518</ele>
        <time>2018-06-30T14:34:49.008Z</time>
      </trkpt>
      <trkpt lat="40.882496" lon="-3.978835">
        <ele>1517</ele>
        <time>2018-06-30T14:34:53.008Z</time>
      </trkpt>
      <trkpt lat="40.882564" lon="-3.978938">
        <ele>1517</ele>
        <time>2018-06-30T14:34:58.008Z</time>
      </trkpt>
      <trkpt lat="40.882623" lon="-3.979033">
        <ele>1514</ele>
        <time>2018-06-30T14:35:03.008Z</time>
      </trkpt>
      <trkpt lat="40.882695" lon="-3.979114">
        <ele>1514</ele>
        <time>2018-06-30T14:35:08.008Z</time>
      </trkpt>
      <trkpt lat="40.882759" lon="-3.979222">
        <ele>1513</ele>
        <time>2018-06-30T14:35:13.008Z</time>
      </trkpt>
      <trkpt lat="40.882823" lon="-3.97933">
        <ele>1513</ele>
        <time>2018-06-30T14:35:18.008Z</time>
      </trkpt>
      <trkpt lat="40.882919" lon="-3.979411">
        <ele>1510</ele>
        <time>2018-06-30T14:35:23.008Z</time>
      </trkpt>
      <trkpt lat="40.882991" lon="-3.979494">
        <ele>1509</ele>
        <time>2018-06-30T14:35:27.008Z</time>
      </trkpt>
      <trkpt lat="40.883054" lon="-3.979599">
        <ele>1507.84082389666</ele>
        <time>2018-06-30T14:35:31.008Z</time>
      </trkpt>
      <trkpt lat="40.883113" lon="-3.979682">
        <ele>1507</ele>
        <time>2018-06-30T14:35:35.008Z</time>
      </trkpt>
      <trkpt lat="40.883186" lon="-3.979756">
        <ele>1506</ele>
        <time>2018-06-30T14:35:39.008Z</time>
      </trkpt>
      <trkpt lat="40.883256" lon="-3.979829">
        <ele>1505</ele>
        <time>2018-06-30T14:35:43.008Z</time>
      </trkpt>
      <trkpt lat="40.883316" lon="-3.979878">
        <ele>1505</ele>
        <time>2018-06-30T14:35:46.008Z</time>
      </trkpt>
      <trkpt lat="40.883368" lon="-3.979942">
        <ele>1505</ele>
        <time>2018-06-30T14:35:49.008Z</time>
      </trkpt>
      <trkpt lat="40.883423" lon="-3.980006">
        <ele>1504</ele>
        <time>2018-06-30T14:35:52.008Z</time>
      </trkpt>
      <trkpt lat="40.88348" lon="-3.980063">
        <ele>1504</ele>
        <time>2018-06-30T14:35:55.008Z</time>
      </trkpt>
      <trkpt lat="40.883546" lon="-3.980144">
        <ele>1503.41616673562</ele>
        <time>2018-06-30T14:35:59.008Z</time>
      </trkpt>
      <trkpt lat="40.883595" lon="-3.980231">
        <ele>1502</ele>
        <time>2018-06-30T14:36:03.008Z</time>
      </trkpt>
      <trkpt lat="40.883661" lon="-3.9803">
        <ele>1502</ele>
        <time>2018-06-30T14:36:07.008Z</time>
      </trkpt>
      <trkpt lat="40.883741" lon="-3.980366">
        <ele>1500.83233347125</ele>
        <time>2018-06-30T14:36:11.008Z</time>
      </trkpt>
      <trkpt lat="40.883796" lon="-3.98042">
        <ele>1500</ele>
        <time>2018-06-30T14:36:14.008Z</time>
      </trkpt>
      <trkpt lat="40.883834" lon="-3.980492">
        <ele>1500</ele>
        <time>2018-06-30T14:36:17.008Z</time>
      </trkpt>
      <trkpt lat="40.88389" lon="-3.980572">
        <ele>1498.37334490066</ele>
        <time>2018-06-30T14:36:21.008Z</time>
      </trkpt>
      <trkpt lat="40.883948" lon="-3.980652">
        <ele>1497</ele>
        <time>2018-06-30T14:36:25.008Z</time>
      </trkpt>
      <trkpt lat="40.883999" lon="-3.980745">
        <ele>1495</ele>
        <time>2018-06-30T14:36:29.008Z</time>
      </trkpt>
      <trkpt lat="40.884051" lon="-3.980805">
        <ele>1494</ele>
        <time>2018-06-30T14:36:32.008Z</time>
      </trkpt>
      <trkpt lat="40.884088" lon="-3.980887">
        <ele>1493.42353206922</ele>
        <time>2018-06-30T14:36:36.008Z</time>
      </trkpt>
      <trkpt lat="40.884132" lon="-3.980973">
        <ele>1492</ele>
        <time>2018-06-30T14:36:42.008Z</time>
      </trkpt>
      <trkpt lat="40.88418" lon="-3.981076">
        <ele>1491</ele>
        <time>2018-06-30T14:36:52.008Z</time>
      </trkpt>
      <trkpt lat="40.884263" lon="-3.981143">
        <ele>1487</ele>
        <time>2018-06-30T14:37:03.008Z</time>
      </trkpt>
      <trkpt lat="40.884346" lon="-3.981217">
        <ele>1485</ele>
        <time>2018-06-30T14:37:14.008Z</time>
      </trkpt>
      <trkpt lat="40.884411" lon="-3.981284">
        <ele>1485</ele>
        <time>2018-06-30T14:37:21.008Z</time>
      </trkpt>
      <trkpt lat="40.884457" lon="-3.981376">
        <ele>1485</ele>
        <time>2018-06-30T14:37:30.008Z</time>
      </trkpt>
      <trkpt lat="40.88452" lon="-3.981436">
        <ele>1484</ele>
        <time>2018-06-30T14:37:36.008Z</time>
      </trkpt>
      <trkpt lat="40.884549" lon="-3.981535">
        <ele>1483</ele>
        <time>2018-06-30T14:37:42.008Z</time>
      </trkpt>
      <trkpt lat="40.88458" lon="-3.981622">
        <ele>1483</ele>
        <time>2018-06-30T14:37:48.008Z</time>
      </trkpt>
      <trkpt lat="40.884635" lon="-3.981696">
        <ele>1481</ele>
        <time>2018-06-30T14:37:55.008Z</time>
      </trkpt>
      <trkpt lat="40.884676" lon="-3.981773">
        <ele>1478.68164779332</ele>
        <time>2018-06-30T14:38:01.008Z</time>
      </trkpt>
      <trkpt lat="40.884745" lon="-3.981829">
        <ele>1476.42353206922</ele>
        <time>2018-06-30T14:38:06.008Z</time>
      </trkpt>
      <trkpt lat="40.884805" lon="-3.981888">
        <ele>1475</ele>
        <time>2018-06-30T14:38:13.008Z</time>
      </trkpt>
      <trkpt lat="40.884854" lon="-3.981954">
        <ele>1475</ele>
        <time>2018-06-30T14:38:19.008Z</time>
      </trkpt>
      <trkpt lat="40.884901" lon="-3.982028">
        <ele>1472</ele>
        <time>2018-06-30T14:38:23.008Z</time>
      </trkpt>
      <trkpt lat="40.884974" lon="-3.982096">
        <ele>1470</ele>
        <time>2018-06-30T14:38:30.008Z</time>
      </trkpt>
      <trkpt lat="40.885045" lon="-3.982157">
        <ele>1466</ele>
        <time>2018-06-30T14:38:38.008Z</time>
      </trkpt>
      <trkpt lat="40.885119" lon="-3.98222">
        <ele>1463</ele>
        <time>2018-06-30T14:38:47.008Z</time>
      </trkpt>
      <trkpt lat="40.885219" lon="-3.982261">
        <ele>1460</ele>
        <time>2018-06-30T14:38:57.008Z</time>
      </trkpt>
      <trkpt lat="40.885319" lon="-3.982257">
        <ele>1457.42353206922</ele>
        <time>2018-06-30T14:39:06.008Z</time>
      </trkpt>
      <trkpt lat="40.885406" lon="-3.982343">
        <ele>1456</ele>
        <time>2018-06-30T14:39:17.008Z</time>
      </trkpt>
      <trkpt lat="40.885506" lon="-3.982398">
        <ele>1452</ele>
        <time>2018-06-30T14:39:29.008Z</time>
      </trkpt>
      <trkpt lat="40.8856" lon="-3.982351">
        <ele>1451</ele>
        <time>2018-06-30T14:39:38.008Z</time>
      </trkpt>
      <trkpt lat="40.88571" lon="-3.982327">
        <ele>1447.4178262743</ele>
        <time>2018-06-30T14:39:46.008Z</time>
      </trkpt>
      <trkpt lat="40.885778" lon="-3.982375">
        <ele>1444</ele>
        <time>2018-06-30T14:39:57.008Z</time>
      </trkpt>
      <trkpt lat="40.885821" lon="-3.98245">
        <ele>1444</ele>
        <time>2018-06-30T14:40:04.008Z</time>
      </trkpt>
      <trkpt lat="40.885869" lon="-3.982521">
        <ele>1444</ele>
        <time>2018-06-30T14:40:13.008Z</time>
      </trkpt>
      <trkpt lat="40.885937" lon="-3.982608">
        <ele>1444</ele>
        <time>2018-06-30T14:40:19.008Z</time>
      </trkpt>
      <trkpt lat="40.88599" lon="-3.982688">
        <ele>1443</ele>
        <time>2018-06-30T14:40:26.008Z</time>
      </trkpt>
      <trkpt lat="40.886048" lon="-3.982741">
        <ele>1441.4178262743</ele>
        <time>2018-06-30T14:40:34.008Z</time>
      </trkpt>
      <trkpt lat="40.886098" lon="-3.98281">
        <ele>1439.83233347125</ele>
        <time>2018-06-30T14:40:41.008Z</time>
      </trkpt>
      <trkpt lat="40.886145" lon="-3.982892">
        <ele>1437</ele>
        <time>2018-06-30T14:40:48.008Z</time>
      </trkpt>
      <trkpt lat="40.886203" lon="-3.982973">
        <ele>1435</ele>
        <time>2018-06-30T14:40:54.008Z</time>
      </trkpt>
      <trkpt lat="40.886264" lon="-3.983048">
        <ele>1431</ele>
        <time>2018-06-30T14:41:02.008Z</time>
      </trkpt>
      <trkpt lat="40.886312" lon="-3.983124">
        <ele>1431</ele>
        <time>2018-06-30T14:41:09.008Z</time>
      </trkpt>
      <trkpt lat="40.886357" lon="-3.983218">
        <ele>1429</ele>
        <time>2018-06-30T14:41:17.008Z</time>
      </trkpt>
      <trkpt lat="40.886371" lon="-3.983321">
        <ele>1426</ele>
        <time>2018-06-30T14:41:22.008Z</time>
      </trkpt>
      <trkpt lat="40.8864" lon="-3.983428">
        <ele>1424</ele>
        <time>2018-06-30T14:41:27.008Z</time>
      </trkpt>
      <trkpt lat="40.886459" lon="-3.983493">
        <ele>1422</ele>
        <time>2018-06-30T14:41:32.008Z</time>
      </trkpt>
      <trkpt lat="40.886477" lon="-3.983591">
        <ele>1421</ele>
        <time>2018-06-30T14:41:38.008Z</time>
      </trkpt>
      <trkpt lat="40.886489" lon="-3.98372">
        <ele>1420</ele>
        <time>2018-06-30T14:41:43.008Z</time>
      </trkpt>
      <trkpt lat="40.8865" lon="-3.983818">
        <ele>1420</ele>
        <time>2018-06-30T14:41:46.008Z</time>
      </trkpt>
      <trkpt lat="40.886521" lon="-3.983918">
        <ele>1420</ele>
        <time>2018-06-30T14:41:50.008Z</time>
      </trkpt>
      <trkpt lat="40.88652" lon="-3.984008">
        <ele>1419</ele>
        <time>2018-06-30T14:41:54.008Z</time>
      </trkpt>
      <trkpt lat="40.886522" lon="-3.984095">
        <ele>1419</ele>
        <time>2018-06-30T14:41:59.008Z</time>
      </trkpt>
      <trkpt lat="40.8865" lon="-3.984174">
        <ele>1419</ele>
        <time>2018-06-30T14:42:04.008Z</time>
      </trkpt>
      <trkpt lat="40.886472" lon="-3.984252">
        <ele>1419</ele>
        <time>2018-06-30T14:42:09.008Z</time>
      </trkpt>
      <trkpt lat="40.886449" lon="-3.984339">
        <ele>1421</ele>
        <time>2018-06-30T14:42:15.008Z</time>
      </trkpt>
      <trkpt lat="40.886418" lon="-3.984429">
        <ele>1422.08443673289</ele>
        <time>2018-06-30T14:42:21.008Z</time>
      </trkpt>
      <trkpt lat="40.886383" lon="-3.984507">
        <ele>1423</ele>
        <time>2018-06-30T14:42:26.008Z</time>
      </trkpt>
      <trkpt lat="40.886346" lon="-3.984608">
        <ele>1422.42041194833</ele>
        <time>2018-06-30T14:42:31.008Z</time>
      </trkpt>
      <trkpt lat="40.886293" lon="-3.984691">
        <ele>1422</ele>
        <time>2018-06-30T14:42:36.008Z</time>
      </trkpt>
      <trkpt lat="40.886249" lon="-3.984766">
        <ele>1422</ele>
        <time>2018-06-30T14:42:40.008Z</time>
      </trkpt>
      <trkpt lat="40.886194" lon="-3.98485">
        <ele>1422</ele>
        <time>2018-06-30T14:42:45.008Z</time>
      </trkpt>
      <trkpt lat="40.886165" lon="-3.984939">
        <ele>1422</ele>
        <time>2018-06-30T14:42:49.008Z</time>
      </trkpt>
      <trkpt lat="40.886124" lon="-3.985045">
        <ele>1420</ele>
        <time>2018-06-30T14:42:54.008Z</time>
      </trkpt>
      <trkpt lat="40.88609" lon="-3.985149">
        <ele>1420</ele>
        <time>2018-06-30T14:42:58.008Z</time>
      </trkpt>
      <trkpt lat="40.88605" lon="-3.985283">
        <ele>1416</ele>
        <time>2018-06-30T14:43:03.008Z</time>
      </trkpt>
      <trkpt lat="40.886002" lon="-3.985413">
        <ele>1417</ele>
        <time>2018-06-30T14:43:08.008Z</time>
      </trkpt>
      <trkpt lat="40.885954" lon="-3.985492">
        <ele>1417</ele>
        <time>2018-06-30T14:43:12.008Z</time>
      </trkpt>
      <trkpt lat="40.88592" lon="-3.985612">
        <ele>1417</ele>
        <time>2018-06-30T14:43:16.008Z</time>
      </trkpt>
      <trkpt lat="40.885892" lon="-3.985751">
        <ele>1415</ele>
        <time>2018-06-30T14:43:22.008Z</time>
      </trkpt>
      <trkpt lat="40.885884" lon="-3.985892">
        <ele>1415</ele>
        <time>2018-06-30T14:43:28.008Z</time>
      </trkpt>
      <trkpt lat="40.885884" lon="-3.986018">
        <ele>1412</ele>
        <time>2018-06-30T14:43:34.008Z</time>
      </trkpt>
      <trkpt lat="40.885892" lon="-3.986137">
        <ele>1408.83233347125</ele>
        <time>2018-06-30T14:43:41.008Z</time>
      </trkpt>
      <trkpt lat="40.885924" lon="-3.986229">
        <ele>1407</ele>
        <time>2018-06-30T14:43:48.008Z</time>
      </trkpt>
      <trkpt lat="40.885967" lon="-3.986339">
        <ele>1403.39637176071</ele>
        <time>2018-06-30T14:43:56.008Z</time>
      </trkpt>
      <trkpt lat="40.885999" lon="-3.986455">
        <ele>1401</ele>
        <time>2018-06-30T14:44:02.008Z</time>
      </trkpt>
      <trkpt lat="40.886003" lon="-3.986557">
        <ele>1400.42353206922</ele>
        <time>2018-06-30T14:44:06.008Z</time>
      </trkpt>
      <trkpt lat="40.886018" lon="-3.986661">
        <ele>1400</ele>
        <time>2018-06-30T14:44:10.008Z</time>
      </trkpt>
      <trkpt lat="40.886023" lon="-3.986796">
        <ele>1398</ele>
        <time>2018-06-30T14:44:14.008Z</time>
      </trkpt>
      <trkpt lat="40.886005" lon="-3.986901">
        <ele>1397</ele>
        <time>2018-06-30T14:44:17.008Z</time>
      </trkpt>
      <trkpt lat="40.886003" lon="-3.987023">
        <ele>1397</ele>
        <time>2018-06-30T14:44:21.008Z</time>
      </trkpt>
      <trkpt lat="40.885988" lon="-3.987165">
        <ele>1397</ele>
        <time>2018-06-30T14:44:26.008Z</time>
      </trkpt>
      <trkpt lat="40.885979" lon="-3.987277">
        <ele>1397</ele>
        <time>2018-06-30T14:44:29.008Z</time>
      </trkpt>
      <trkpt lat="40.885959" lon="-3.987388">
        <ele>1396</ele>
        <time>2018-06-30T14:44:33.008Z</time>
      </trkpt>
      <trkpt lat="40.885952" lon="-3.987512">
        <ele>1396</ele>
        <time>2018-06-30T14:44:37.008Z</time>
      </trkpt>
      <trkpt lat="40.885925" lon="-3.987663">
        <ele>1395</ele>
        <time>2018-06-30T14:44:44.008Z</time>
      </trkpt>
      <trkpt lat="40.885924" lon="-3.987798">
        <ele>1395</ele>
        <time>2018-06-30T14:44:49.008Z</time>
      </trkpt>
      <trkpt lat="40.885923" lon="-3.987952">
        <ele>1394</ele>
        <time>2018-06-30T14:44:55.008Z</time>
      </trkpt>
      <trkpt lat="40.88593" lon="-3.988077">
        <ele>1394</ele>
        <time>2018-06-30T14:45:00.008Z</time>
      </trkpt>
      <trkpt lat="40.885945" lon="-3.988227">
        <ele>1390</ele>
        <time>2018-06-30T14:45:05.008Z</time>
      </trkpt>
      <trkpt lat="40.885947" lon="-3.98834">
        <ele>1390</ele>
        <time>2018-06-30T14:45:10.008Z</time>
      </trkpt>
      <trkpt lat="40.885947" lon="-3.988447">
        <ele>1389</ele>
        <time>2018-06-30T14:45:20.008Z</time>
      </trkpt>
      <trkpt lat="40.885944" lon="-3.988561">
        <ele>1388</ele>
        <time>2018-06-30T14:45:35.008Z</time>
      </trkpt>
      <trkpt lat="40.885963" lon="-3.988641">
        <ele>1387</ele>
        <time>2018-06-30T14:45:45.008Z</time>
      </trkpt>
      <trkpt lat="40.885996" lon="-3.988719">
        <ele>1385</ele>
        <time>2018-06-30T14:45:55.008Z</time>
      </trkpt>
      <trkpt lat="40.886027" lon="-3.988799">
        <ele>1381</ele>
        <time>2018-06-30T14:46:02.008Z</time>
      </trkpt>
      <trkpt lat="40.886062" lon="-3.988879">
        <ele>1380</ele>
        <time>2018-06-30T14:46:09.008Z</time>
      </trkpt>
      <trkpt lat="40.886104" lon="-3.988964">
        <ele>1376.8356525486</ele>
        <time>2018-06-30T14:46:16.008Z</time>
      </trkpt>
      <trkpt lat="40.886144" lon="-3.989043">
        <ele>1376</ele>
        <time>2018-06-30T14:46:20.008Z</time>
      </trkpt>
      <trkpt lat="40.886166" lon="-3.989122">
        <ele>1374</ele>
        <time>2018-06-30T14:46:23.008Z</time>
      </trkpt>
      <trkpt lat="40.886188" lon="-3.98922">
        <ele>1372</ele>
        <time>2018-06-30T14:46:27.008Z</time>
      </trkpt>
      <trkpt lat="40.886205" lon="-3.989306">
        <ele>1372</ele>
        <time>2018-06-30T14:46:30.008Z</time>
      </trkpt>
      <trkpt lat="40.886233" lon="-3.989422">
        <ele>1372</ele>
        <time>2018-06-30T14:46:34.008Z</time>
      </trkpt>
      <trkpt lat="40.886273" lon="-3.989498">
        <ele>1370</ele>
        <time>2018-06-30T14:46:37.008Z</time>
      </trkpt>
      <trkpt lat="40.886303" lon="-3.989579">
        <ele>1370</ele>
        <time>2018-06-30T14:46:40.008Z</time>
      </trkpt>
      <trkpt lat="40.886356" lon="-3.989688">
        <ele>1368</ele>
        <time>2018-06-30T14:46:44.008Z</time>
      </trkpt>
      <trkpt lat="40.886404" lon="-3.989789">
        <ele>1367</ele>
        <time>2018-06-30T14:46:48.008Z</time>
      </trkpt>
      <trkpt lat="40.886482" lon="-3.98971">
        <ele>1367</ele>
        <time>2018-06-30T14:47:00.008Z</time>
      </trkpt>
      <trkpt lat="40.88649" lon="-3.989593">
        <ele>1368</ele>
        <time>2018-06-30T14:47:10.008Z</time>
      </trkpt>
      <trkpt lat="40.886474" lon="-3.989478">
        <ele>1368.42041194833</ele>
        <time>2018-06-30T14:47:19.008Z</time>
      </trkpt>
      <trkpt lat="40.88649" lon="-3.989373">
        <ele>1368</ele>
        <time>2018-06-30T14:47:26.008Z</time>
      </trkpt>
      <trkpt lat="40.886494" lon="-3.989268">
        <ele>1368</ele>
        <time>2018-06-30T14:47:34.008Z</time>
      </trkpt>
      <trkpt lat="40.88651" lon="-3.989157">
        <ele>1368</ele>
        <time>2018-06-30T14:47:42.008Z</time>
      </trkpt>
      <trkpt lat="40.886508" lon="-3.989062">
        <ele>1368</ele>
        <time>2018-06-30T14:47:48.008Z</time>
      </trkpt>
      <trkpt lat="40.886504" lon="-3.988948">
        <ele>1369</ele>
        <time>2018-06-30T14:47:53.008Z</time>
      </trkpt>
      <trkpt lat="40.886478" lon="-3.988849">
        <ele>1369.57958805167</ele>
        <time>2018-06-30T14:48:01.008Z</time>
      </trkpt>
      <trkpt lat="40.886459" lon="-3.988753">
        <ele>1370</ele>
        <time>2018-06-30T14:48:08.008Z</time>
      </trkpt>
      <trkpt lat="40.886445" lon="-3.988654">
        <ele>1372</ele>
        <time>2018-06-30T14:48:15.008Z</time>
      </trkpt>
      <trkpt lat="40.886453" lon="-3.988508">
        <ele>1371</ele>
        <time>2018-06-30T14:48:23.008Z</time>
      </trkpt>
      <trkpt lat="40.886452" lon="-3.988398">
        <ele>1371</ele>
        <time>2018-06-30T14:48:29.008Z</time>
      </trkpt>
      <trkpt lat="40.88643" lon="-3.988269">
        <ele>1373</ele>
        <time>2018-06-30T14:48:41.008Z</time>
      </trkpt>
      <trkpt lat="40.886352" lon="-3.988186">
        <ele>1372</ele>
        <time>2018-06-30T14:48:55.008Z</time>
      </trkpt>
      <trkpt lat="40.886437" lon="-3.988146">
        <ele>1375</ele>
        <time>2018-06-30T14:49:23.008Z</time>
      </trkpt>
      <trkpt lat="40.886476" lon="-3.988149">
        <ele>1377</ele>
        <time>2018-06-30T14:49:32.008Z</time>
      </trkpt>
      <trkpt lat="40.886544" lon="-3.988139">
        <ele>1377</ele>
        <time>2018-06-30T14:49:38.008Z</time>
      </trkpt>
      <trkpt lat="40.886612" lon="-3.988125">
        <ele>1378</ele>
        <time>2018-06-30T14:49:50.008Z</time>
      </trkpt>
      <trkpt lat="40.88669" lon="-3.988153">
        <ele>1378</ele>
        <time>2018-06-30T14:50:00.008Z</time>
      </trkpt>
      <trkpt lat="40.886744" lon="-3.988208">
        <ele>1378</ele>
        <time>2018-06-30T14:50:06.008Z</time>
      </trkpt>
      <trkpt lat="40.886816" lon="-3.988256">
        <ele>1379</ele>
        <time>2018-06-30T14:50:15.008Z</time>
      </trkpt>
      <trkpt lat="40.886877" lon="-3.988308">
        <ele>1379</ele>
        <time>2018-06-30T14:50:20.008Z</time>
      </trkpt>
      <trkpt lat="40.886951" lon="-3.988341">
        <ele>1379</ele>
        <time>2018-06-30T14:50:26.008Z</time>
      </trkpt>
      <trkpt lat="40.887032" lon="-3.988354">
        <ele>1379</ele>
        <time>2018-06-30T14:50:34.008Z</time>
      </trkpt>
      <trkpt lat="40.887117" lon="-3.988355">
        <ele>1379</ele>
        <time>2018-06-30T14:50:42.008Z</time>
      </trkpt>
      <trkpt lat="40.887201" lon="-3.988348">
        <ele>1379</ele>
        <time>2018-06-30T14:50:49.008Z</time>
      </trkpt>
      <trkpt lat="40.887289" lon="-3.988369">
        <ele>1377.26123584499</ele>
        <time>2018-06-30T14:51:01.008Z</time>
      </trkpt>
      <trkpt lat="40.887362" lon="-3.988389">
        <ele>1376</ele>
        <time>2018-06-30T14:51:08.008Z</time>
      </trkpt>
      <trkpt lat="40.887449" lon="-3.988397">
        <ele>1376</ele>
        <time>2018-06-30T14:51:17.008Z</time>
      </trkpt>
      <trkpt lat="40.887539" lon="-3.988426">
        <ele>1376</ele>
        <time>2018-06-30T14:51:27.008Z</time>
      </trkpt>
      <trkpt lat="40.887619" lon="-3.988448">
        <ele>1376</ele>
        <time>2018-06-30T14:51:36.008Z</time>
      </trkpt>
      <trkpt lat="40.887704" lon="-3.988436">
        <ele>1376</ele>
        <time>2018-06-30T14:51:42.008Z</time>
      </trkpt>
      <trkpt lat="40.887806" lon="-3.988426">
        <ele>1375.45778163355</ele>
        <time>2018-06-30T14:51:51.008Z</time>
      </trkpt>
      <trkpt lat="40.887911" lon="-3.988442">
        <ele>1375</ele>
        <time>2018-06-30T14:51:59.008Z</time>
      </trkpt>
      <trkpt lat="40.888004" lon="-3.98846">
        <ele>1375</ele>
        <time>2018-06-30T14:52:07.008Z</time>
      </trkpt>
      <trkpt lat="40.888105" lon="-3.988444">
        <ele>1376</ele>
        <time>2018-06-30T14:52:18.008Z</time>
      </trkpt>
      <trkpt lat="40.888195" lon="-3.988398">
        <ele>1378</ele>
        <time>2018-06-30T14:52:27.008Z</time>
      </trkpt>
      <trkpt lat="40.888264" lon="-3.988409">
        <ele>1379</ele>
        <time>2018-06-30T14:52:37.008Z</time>
      </trkpt>
      <trkpt lat="40.888349" lon="-3.988421">
        <ele>1380.4178262743</ele>
        <time>2018-06-30T14:52:46.008Z</time>
      </trkpt>
      <trkpt lat="40.888438" lon="-3.988419">
        <ele>1381</ele>
        <time>2018-06-30T14:52:54.008Z</time>
      </trkpt>
      <trkpt lat="40.88852" lon="-3.988404">
        <ele>1380.42041194833</ele>
        <time>2018-06-30T14:53:01.008Z</time>
      </trkpt>
      <trkpt lat="40.888602" lon="-3.988396">
        <ele>1380</ele>
        <time>2018-06-30T14:53:08.008Z</time>
      </trkpt>
      <trkpt lat="40.88869" lon="-3.988393">
        <ele>1381</ele>
        <time>2018-06-30T14:53:14.008Z</time>
      </trkpt>
      <trkpt lat="40.888777" lon="-3.988391">
        <ele>1380</ele>
        <time>2018-06-30T14:53:26.008Z</time>
      </trkpt>
      <trkpt lat="40.888869" lon="-3.988387">
        <ele>1380</ele>
        <time>2018-06-30T14:53:36.008Z</time>
      </trkpt>
      <trkpt lat="40.888972" lon="-3.98838">
        <ele>1382</ele>
        <time>2018-06-30T14:53:43.008Z</time>
      </trkpt>
      <trkpt lat="40.889052" lon="-3.988358">
        <ele>1382</ele>
        <time>2018-06-30T14:53:48.008Z</time>
      </trkpt>
      <trkpt lat="40.889155" lon="-3.988362">
        <ele>1382</ele>
        <time>2018-06-30T14:54:00.008Z</time>
      </trkpt>
      <trkpt lat="40.889241" lon="-3.988371">
        <ele>1382</ele>
        <time>2018-06-30T14:54:08.008Z</time>
      </trkpt>
      <trkpt lat="40.889323" lon="-3.98837">
        <ele>1383</ele>
        <time>2018-06-30T14:54:13.008Z</time>
      </trkpt>
      <trkpt lat="40.889414" lon="-3.988353">
        <ele>1382</ele>
        <time>2018-06-30T14:54:19.008Z</time>
      </trkpt>
      <trkpt lat="40.889493" lon="-3.988287">
        <ele>1382</ele>
        <time>2018-06-30T14:54:26.008Z</time>
      </trkpt>
      <trkpt lat="40.889563" lon="-3.988186">
        <ele>1383</ele>
        <time>2018-06-30T14:54:34.008Z</time>
      </trkpt>
      <trkpt lat="40.88963" lon="-3.988086">
        <ele>1384</ele>
        <time>2018-06-30T14:54:43.008Z</time>
      </trkpt>
      <trkpt lat="40.889711" lon="-3.987987">
        <ele>1384</ele>
        <time>2018-06-30T14:54:52.008Z</time>
      </trkpt>
      <trkpt lat="40.889767" lon="-3.987894">
        <ele>1384</ele>
        <time>2018-06-30T14:55:03.008Z</time>
      </trkpt>
      <trkpt lat="40.889834" lon="-3.987778">
        <ele>1384</ele>
        <time>2018-06-30T14:55:12.008Z</time>
      </trkpt>
      <trkpt lat="40.889913" lon="-3.987672">
        <ele>1384</ele>
        <time>2018-06-30T14:55:20.008Z</time>
      </trkpt>
      <trkpt lat="40.889968" lon="-3.987572">
        <ele>1383</ele>
        <time>2018-06-30T14:55:28.008Z</time>
      </trkpt>
      <trkpt lat="40.890007" lon="-3.987462">
        <ele>1383</ele>
        <time>2018-06-30T14:55:35.008Z</time>
      </trkpt>
      <trkpt lat="40.890069" lon="-3.987356">
        <ele>1383.58383326438</ele>
        <time>2018-06-30T14:55:41.008Z</time>
      </trkpt>
      <trkpt lat="40.89013" lon="-3.987226">
        <ele>1383</ele>
        <time>2018-06-30T14:55:48.008Z</time>
      </trkpt>
      <trkpt lat="40.890183" lon="-3.987112">
        <ele>1382</ele>
        <time>2018-06-30T14:55:54.008Z</time>
      </trkpt>
      <trkpt lat="40.890249" lon="-3.987002">
        <ele>1382</ele>
        <time>2018-06-30T14:55:59.008Z</time>
      </trkpt>
      <trkpt lat="40.890321" lon="-3.986894">
        <ele>1381</ele>
        <time>2018-06-30T14:56:04.008Z</time>
      </trkpt>
      <trkpt lat="40.890359" lon="-3.986746">
        <ele>1381</ele>
        <time>2018-06-30T14:56:12.008Z</time>
      </trkpt>
      <trkpt lat="40.890434" lon="-3.986648">
        <ele>1381</ele>
        <time>2018-06-30T14:56:19.008Z</time>
      </trkpt>
      <trkpt lat="40.890515" lon="-3.986561">
        <ele>1381</ele>
        <time>2018-06-30T14:56:25.008Z</time>
      </trkpt>
      <trkpt lat="40.890581" lon="-3.986478">
        <ele>1380</ele>
        <time>2018-06-30T14:56:32.008Z</time>
      </trkpt>
      <trkpt lat="40.89063" lon="-3.986396">
        <ele>1380</ele>
        <time>2018-06-30T14:56:35.008Z</time>
      </trkpt>
      <trkpt lat="40.890676" lon="-3.986345">
        <ele>1380</ele>
        <time>2018-06-30T14:56:40.008Z</time>
      </trkpt>
      <trkpt lat="40.890716" lon="-3.986399">
        <ele>1381</ele>
        <time>2018-06-30T14:56:47.008Z</time>
      </trkpt>
      <trkpt lat="40.890742" lon="-3.986451">
        <ele>1381</ele>
        <time>2018-06-30T14:56:52.008Z</time>
      </trkpt>
      <trkpt lat="40.890773" lon="-3.986496">
        <ele>1381</ele>
        <time>2018-06-30T14:56:56.008Z</time>
      </trkpt>
      <trkpt lat="40.890804" lon="-3.986544">
        <ele>1381</ele>
        <time>2018-06-30T14:57:00.008Z</time>
      </trkpt>
      <trkpt lat="40.890834" lon="-3.986587">
        <ele>1382</ele>
        <time>2018-06-30T14:57:04.008Z</time>
      </trkpt>
      <trkpt lat="40.890866" lon="-3.986634">
        <ele>1382</ele>
        <time>2018-06-30T14:57:08.008Z</time>
      </trkpt>
      <trkpt lat="40.890894" lon="-3.986678">
        <ele>1382</ele>
        <time>2018-06-30T14:57:12.008Z</time>
      </trkpt>
      <trkpt lat="40.890921" lon="-3.986735">
        <ele>1382</ele>
        <time>2018-06-30T14:57:17.008Z</time>
      </trkpt>
      <trkpt lat="40.890943" lon="-3.986817">
        <ele>1381</ele>
        <time>2018-06-30T14:57:25.008Z</time>
      </trkpt>
      <trkpt lat="40.89095" lon="-3.98691">
        <ele>1381.57958805167</ele>
        <time>2018-06-30T14:57:31.008Z</time>
      </trkpt>
      <trkpt lat="40.890964" lon="-3.986982">
        <ele>1381</ele>
        <time>2018-06-30T14:57:36.008Z</time>
      </trkpt>
      <trkpt lat="40.890984" lon="-3.987059">
        <ele>1382</ele>
        <time>2018-06-30T14:57:42.008Z</time>
      </trkpt>
      <trkpt lat="40.891005" lon="-3.987143">
        <ele>1382</ele>
        <time>2018-06-30T14:57:48.008Z</time>
      </trkpt>
      <trkpt lat="40.891037" lon="-3.98722">
        <ele>1384</ele>
        <time>2018-06-30T14:57:56.008Z</time>
      </trkpt>
      <trkpt lat="40.891077" lon="-3.987301">
        <ele>1385</ele>
        <time>2018-06-30T14:58:02.008Z</time>
      </trkpt>
      <trkpt lat="40.89111" lon="-3.987369">
        <ele>1385</ele>
        <time>2018-06-30T14:58:06.008Z</time>
      </trkpt>
      <trkpt lat="40.891136" lon="-3.987443">
        <ele>1385</ele>
        <time>2018-06-30T14:58:11.008Z</time>
      </trkpt>
      <trkpt lat="40.891178" lon="-3.987508">
        <ele>1385</ele>
        <time>2018-06-30T14:58:16.008Z</time>
      </trkpt>
      <trkpt lat="40.891231" lon="-3.987554">
        <ele>1385</ele>
        <time>2018-06-30T14:58:20.008Z</time>
      </trkpt>
      <trkpt lat="40.891281" lon="-3.987608">
        <ele>1385</ele>
        <time>2018-06-30T14:58:23.008Z</time>
      </trkpt>
      <trkpt lat="40.891332" lon="-3.98766">
        <ele>1385</ele>
        <time>2018-06-30T14:58:26.008Z</time>
      </trkpt>
      <trkpt lat="40.891386" lon="-3.987709">
        <ele>1385</ele>
        <time>2018-06-30T14:58:29.008Z</time>
      </trkpt>
      <trkpt lat="40.891441" lon="-3.987757">
        <ele>1385</ele>
        <time>2018-06-30T14:58:32.008Z</time>
      </trkpt>
      <trkpt lat="40.891496" lon="-3.987805">
        <ele>1385</ele>
        <time>2018-06-30T14:58:35.008Z</time>
      </trkpt>
      <trkpt lat="40.891546" lon="-3.987855">
        <ele>1385</ele>
        <time>2018-06-30T14:58:38.008Z</time>
      </trkpt>
      <trkpt lat="40.891599" lon="-3.9879">
        <ele>1384.41616673562</ele>
        <time>2018-06-30T14:58:41.008Z</time>
      </trkpt>
      <trkpt lat="40.891648" lon="-3.987937">
        <ele>1384</ele>
        <time>2018-06-30T14:58:44.008Z</time>
      </trkpt>
      <trkpt lat="40.891702" lon="-3.987974">
        <ele>1384</ele>
        <time>2018-06-30T14:58:47.008Z</time>
      </trkpt>
      <trkpt lat="40.891753" lon="-3.988008">
        <ele>1384</ele>
        <time>2018-06-30T14:58:50.008Z</time>
      </trkpt>
      <trkpt lat="40.891798" lon="-3.988032">
        <ele>1384</ele>
        <time>2018-06-30T14:58:53.008Z</time>
      </trkpt>
      <trkpt lat="40.891845" lon="-3.988059">
        <ele>1384</ele>
        <time>2018-06-30T14:58:56.008Z</time>
      </trkpt>
      <trkpt lat="40.891919" lon="-3.988074">
        <ele>1384</ele>
        <time>2018-06-30T14:59:00.008Z</time>
      </trkpt>
      <trkpt lat="40.891987" lon="-3.988099">
        <ele>1383</ele>
        <time>2018-06-30T14:59:04.008Z</time>
      </trkpt>
      <trkpt lat="40.892058" lon="-3.988124">
        <ele>1383</ele>
        <time>2018-06-30T14:59:08.008Z</time>
      </trkpt>
      <trkpt lat="40.892111" lon="-3.98815">
        <ele>1383</ele>
        <time>2018-06-30T14:59:11.008Z</time>
      </trkpt>
      <trkpt lat="40.892169" lon="-3.988164">
        <ele>1383</ele>
        <time>2018-06-30T14:59:14.008Z</time>
      </trkpt>
      <trkpt lat="40.892227" lon="-3.988158">
        <ele>1383</ele>
        <time>2018-06-30T14:59:17.008Z</time>
      </trkpt>
      <trkpt lat="40.892282" lon="-3.988166">
        <ele>1383</ele>
        <time>2018-06-30T14:59:20.008Z</time>
      </trkpt>
      <trkpt lat="40.892329" lon="-3.988189">
        <ele>1384</ele>
        <time>2018-06-30T14:59:23.008Z</time>
      </trkpt>
      <trkpt lat="40.892378" lon="-3.988212">
        <ele>1384</ele>
        <time>2018-06-30T14:59:26.008Z</time>
      </trkpt>
      <trkpt lat="40.892425" lon="-3.988236">
        <ele>1383</ele>
        <time>2018-06-30T14:59:29.008Z</time>
      </trkpt>
      <trkpt lat="40.892474" lon="-3.988271">
        <ele>1383</ele>
        <time>2018-06-30T14:59:33.008Z</time>
      </trkpt>
      <trkpt lat="40.892522" lon="-3.988303">
        <ele>1383</ele>
        <time>2018-06-30T14:59:38.008Z</time>
      </trkpt>
      <trkpt lat="40.892565" lon="-3.988329">
        <ele>1380</ele>
        <time>2018-06-30T14:59:42.008Z</time>
      </trkpt>
      <trkpt lat="40.892603" lon="-3.98836">
        <ele>1379.4178262743</ele>
        <time>2018-06-30T14:59:46.008Z</time>
      </trkpt>
      <trkpt lat="40.892627" lon="-3.988405">
        <ele>1379</ele>
        <time>2018-06-30T14:59:51.008Z</time>
      </trkpt>
      <trkpt lat="40.89264" lon="-3.988455">
        <ele>1379</ele>
        <time>2018-06-30T14:59:56.008Z</time>
      </trkpt>
      <trkpt lat="40.892655" lon="-3.988505">
        <ele>1376.84082389666</ele>
        <time>2018-06-30T15:00:01.008Z</time>
      </trkpt>
      <trkpt lat="40.892679" lon="-3.988541">
        <ele>1375.41616673562</ele>
        <time>2018-06-30T15:00:05.008Z</time>
      </trkpt>
      <trkpt lat="40.892685" lon="-3.988585">
        <ele>1374</ele>
        <time>2018-06-30T15:00:09.008Z</time>
      </trkpt>
      <trkpt lat="40.892709" lon="-3.988628">
        <ele>1373</ele>
        <time>2018-06-30T15:00:14.008Z</time>
      </trkpt>
      <trkpt lat="40.89273" lon="-3.988671">
        <ele>1373</ele>
        <time>2018-06-30T15:00:18.008Z</time>
      </trkpt>
      <trkpt lat="40.89272" lon="-3.988718">
        <ele>1370</ele>
        <time>2018-06-30T15:00:22.008Z</time>
      </trkpt>
      <trkpt lat="40.892726" lon="-3.98877">
        <ele>1368</ele>
        <time>2018-06-30T15:00:27.008Z</time>
      </trkpt>
      <trkpt lat="40.892753" lon="-3.988824">
        <ele>1366</ele>
        <time>2018-06-30T15:00:34.008Z</time>
      </trkpt>
      <trkpt lat="40.892762" lon="-3.988881">
        <ele>1365</ele>
        <time>2018-06-30T15:00:40.008Z</time>
      </trkpt>
      <trkpt lat="40.89277" lon="-3.988936">
        <ele>1362.4178262743</ele>
        <time>2018-06-30T15:00:46.008Z</time>
      </trkpt>
      <trkpt lat="40.892775" lon="-3.988991">
        <ele>1362</ele>
        <time>2018-06-30T15:00:52.008Z</time>
      </trkpt>
      <trkpt lat="40.892796" lon="-3.989037">
        <ele>1361</ele>
        <time>2018-06-30T15:01:00.008Z</time>
      </trkpt>
      <trkpt lat="40.892817" lon="-3.989072">
        <ele>1357</ele>
        <time>2018-06-30T15:01:05.008Z</time>
      </trkpt>
      <trkpt lat="40.892856" lon="-3.989122">
        <ele>1356</ele>
        <time>2018-06-30T15:01:12.008Z</time>
      </trkpt>
      <trkpt lat="40.892895" lon="-3.989161">
        <ele>1356</ele>
        <time>2018-06-30T15:01:18.008Z</time>
      </trkpt>
      <trkpt lat="40.892921" lon="-3.989216">
        <ele>1353</ele>
        <time>2018-06-30T15:01:24.008Z</time>
      </trkpt>
      <trkpt lat="40.892952" lon="-3.989267">
        <ele>1352</ele>
        <time>2018-06-30T15:01:30.008Z</time>
      </trkpt>
      <trkpt lat="40.892982" lon="-3.989327">
        <ele>1348.84706413844</ele>
        <time>2018-06-30T15:01:36.008Z</time>
      </trkpt>
      <trkpt lat="40.893036" lon="-3.989364">
        <ele>1347</ele>
        <time>2018-06-30T15:01:43.008Z</time>
      </trkpt>
      <trkpt lat="40.893084" lon="-3.989409">
        <ele>1344</ele>
        <time>2018-06-30T15:01:52.008Z</time>
      </trkpt>
      <trkpt lat="40.893095" lon="-3.989482">
        <ele>1340</ele>
        <time>2018-06-30T15:02:06.008Z</time>
      </trkpt>
      <trkpt lat="40.893137" lon="-3.989552">
        <ele>1340</ele>
        <time>2018-06-30T15:02:15.008Z</time>
      </trkpt>
      <trkpt lat="40.893167" lon="-3.989616">
        <ele>1337</ele>
        <time>2018-06-30T15:02:25.008Z</time>
      </trkpt>
      <trkpt lat="40.893206" lon="-3.989693">
        <ele>1333</ele>
        <time>2018-06-30T15:02:34.008Z</time>
      </trkpt>
      <trkpt lat="40.893256" lon="-3.989722">
        <ele>1332</ele>
        <time>2018-06-30T15:02:40.008Z</time>
      </trkpt>
      <trkpt lat="40.893292" lon="-3.989775">
        <ele>1332</ele>
        <time>2018-06-30T15:02:49.008Z</time>
      </trkpt>
      <trkpt lat="40.893329" lon="-3.989825">
        <ele>1327</ele>
        <time>2018-06-30T15:02:57.008Z</time>
      </trkpt>
      <trkpt lat="40.893361" lon="-3.989898">
        <ele>1324</ele>
        <time>2018-06-30T15:03:07.008Z</time>
      </trkpt>
      <trkpt lat="40.893408" lon="-3.989962">
        <ele>1321</ele>
        <time>2018-06-30T15:03:17.008Z</time>
      </trkpt>
      <trkpt lat="40.893437" lon="-3.990041">
        <ele>1320</ele>
        <time>2018-06-30T15:03:26.008Z</time>
      </trkpt>
      <trkpt lat="40.893495" lon="-3.990097">
        <ele>1318</ele>
        <time>2018-06-30T15:03:34.008Z</time>
      </trkpt>
      <trkpt lat="40.893559" lon="-3.990141">
        <ele>1315</ele>
        <time>2018-06-30T15:03:42.008Z</time>
      </trkpt>
      <trkpt lat="40.893611" lon="-3.990212">
        <ele>1314</ele>
        <time>2018-06-30T15:03:50.008Z</time>
      </trkpt>
      <trkpt lat="40.893653" lon="-3.990277">
        <ele>1313</ele>
        <time>2018-06-30T15:04:00.008Z</time>
      </trkpt>
      <trkpt lat="40.893688" lon="-3.990325">
        <ele>1309</ele>
        <time>2018-06-30T15:04:07.008Z</time>
      </trkpt>
      <trkpt lat="40.893716" lon="-3.990382">
        <ele>1309</ele>
        <time>2018-06-30T15:04:14.008Z</time>
      </trkpt>
      <trkpt lat="40.893769" lon="-3.990445">
        <ele>1309</ele>
        <time>2018-06-30T15:04:20.008Z</time>
      </trkpt>
      <trkpt lat="40.893818" lon="-3.990504">
        <ele>1306</ele>
        <time>2018-06-30T15:04:25.008Z</time>
      </trkpt>
      <trkpt lat="40.893854" lon="-3.99056">
        <ele>1304</ele>
        <time>2018-06-30T15:04:29.008Z</time>
      </trkpt>
      <trkpt lat="40.893874" lon="-3.990614">
        <ele>1303</ele>
        <time>2018-06-30T15:04:38.008Z</time>
      </trkpt>
      <trkpt lat="40.893893" lon="-3.990671">
        <ele>1303</ele>
        <time>2018-06-30T15:04:44.008Z</time>
      </trkpt>
      <trkpt lat="40.893915" lon="-3.990736">
        <ele>1303</ele>
        <time>2018-06-30T15:04:50.008Z</time>
      </trkpt>
      <trkpt lat="40.893946" lon="-3.990812">
        <ele>1299.46545725357</ele>
        <time>2018-06-30T15:04:56.008Z</time>
      </trkpt>
      <trkpt lat="40.893982" lon="-3.990894">
        <ele>1297</ele>
        <time>2018-06-30T15:05:03.008Z</time>
      </trkpt>
      <trkpt lat="40.89402" lon="-3.990958">
        <ele>1295</ele>
        <time>2018-06-30T15:05:27.008Z</time>
      </trkpt>
      <trkpt lat="40.894064" lon="-3.991028">
        <ele>1295</ele>
        <time>2018-06-30T15:05:37.008Z</time>
      </trkpt>
      <trkpt lat="40.894114" lon="-3.991083">
        <ele>1292</ele>
        <time>2018-06-30T15:05:42.008Z</time>
      </trkpt>
      <trkpt lat="40.894172" lon="-3.991109">
        <ele>1291</ele>
        <time>2018-06-30T15:05:48.008Z</time>
      </trkpt>
      <trkpt lat="40.894204" lon="-3.991146">
        <ele>1290</ele>
        <time>2018-06-30T15:05:53.008Z</time>
      </trkpt>
      <trkpt lat="40.894247" lon="-3.991196">
        <ele>1290</ele>
        <time>2018-06-30T15:05:58.008Z</time>
      </trkpt>
      <trkpt lat="40.8943" lon="-3.991221">
        <ele>1287</ele>
        <time>2018-06-30T15:06:03.008Z</time>
      </trkpt>
      <trkpt lat="40.894364" lon="-3.991235">
        <ele>1287</ele>
        <time>2018-06-30T15:06:09.008Z</time>
      </trkpt>
      <trkpt lat="40.894415" lon="-3.991243">
        <ele>1286</ele>
        <time>2018-06-30T15:06:13.008Z</time>
      </trkpt>
      <trkpt lat="40.894474" lon="-3.991251">
        <ele>1286</ele>
        <time>2018-06-30T15:06:18.008Z</time>
      </trkpt>
      <trkpt lat="40.894531" lon="-3.991257">
        <ele>1284</ele>
        <time>2018-06-30T15:06:23.008Z</time>
      </trkpt>
      <trkpt lat="40.894588" lon="-3.991259">
        <ele>1284</ele>
        <time>2018-06-30T15:06:28.008Z</time>
      </trkpt>
      <trkpt lat="40.894645" lon="-3.991265">
        <ele>1282</ele>
        <time>2018-06-30T15:06:33.008Z</time>
      </trkpt>
      <trkpt lat="40.894676" lon="-3.991294">
        <ele>1281.42041194833</ele>
        <time>2018-06-30T15:06:37.008Z</time>
      </trkpt>
      <trkpt lat="40.894697" lon="-3.991339">
        <ele>1279.83233347125</ele>
        <time>2018-06-30T15:06:41.008Z</time>
      </trkpt>
      <trkpt lat="40.894693" lon="-3.991389">
        <ele>1278</ele>
        <time>2018-06-30T15:06:45.008Z</time>
      </trkpt>
      <trkpt lat="40.894671" lon="-3.991452">
        <ele>1277</ele>
        <time>2018-06-30T15:06:50.008Z</time>
      </trkpt>
      <trkpt lat="40.894664" lon="-3.991504">
        <ele>1276</ele>
        <time>2018-06-30T15:06:54.008Z</time>
      </trkpt>
      <trkpt lat="40.894673" lon="-3.991571">
        <ele>1276</ele>
        <time>2018-06-30T15:06:59.008Z</time>
      </trkpt>
      <trkpt lat="40.894689" lon="-3.991642">
        <ele>1273</ele>
        <time>2018-06-30T15:07:04.008Z</time>
      </trkpt>
      <trkpt lat="40.894714" lon="-3.991719">
        <ele>1273</ele>
        <time>2018-06-30T15:07:09.008Z</time>
      </trkpt>
      <trkpt lat="40.894744" lon="-3.991771">
        <ele>1272</ele>
        <time>2018-06-30T15:07:13.008Z</time>
      </trkpt>
      <trkpt lat="40.894797" lon="-3.991831">
        <ele>1272</ele>
        <time>2018-06-30T15:07:19.008Z</time>
      </trkpt>
      <trkpt lat="40.894835" lon="-3.991865">
        <ele>1272</ele>
        <time>2018-06-30T15:07:23.008Z</time>
      </trkpt>
      <trkpt lat="40.894873" lon="-3.991902">
        <ele>1272</ele>
        <time>2018-06-30T15:07:27.008Z</time>
      </trkpt>
      <trkpt lat="40.894911" lon="-3.991942">
        <ele>1270.84082389666</ele>
        <time>2018-06-30T15:07:31.008Z</time>
      </trkpt>
      <trkpt lat="40.894939" lon="-3.991989">
        <ele>1270</ele>
        <time>2018-06-30T15:07:35.008Z</time>
      </trkpt>
      <trkpt lat="40.894961" lon="-3.992047">
        <ele>1270</ele>
        <time>2018-06-30T15:07:39.008Z</time>
      </trkpt>
      <trkpt lat="40.894974" lon="-3.992096">
        <ele>1268</ele>
        <time>2018-06-30T15:07:42.008Z</time>
      </trkpt>
      <trkpt lat="40.894987" lon="-3.992157">
        <ele>1268</ele>
        <time>2018-06-30T15:07:46.008Z</time>
      </trkpt>
      <trkpt lat="40.894993" lon="-3.992215">
        <ele>1267</ele>
        <time>2018-06-30T15:07:49.008Z</time>
      </trkpt>
      <trkpt lat="40.895" lon="-3.992264">
        <ele>1265</ele>
        <time>2018-06-30T15:07:52.008Z</time>
      </trkpt>
      <trkpt lat="40.895013" lon="-3.992312">
        <ele>1265</ele>
        <time>2018-06-30T15:07:55.008Z</time>
      </trkpt>
      <trkpt lat="40.895032" lon="-3.992353">
        <ele>1265</ele>
        <time>2018-06-30T15:07:58.008Z</time>
      </trkpt>
      <trkpt lat="40.895051" lon="-3.992395">
        <ele>1263.84082389666</ele>
        <time>2018-06-30T15:08:01.008Z</time>
      </trkpt>
      <trkpt lat="40.89507" lon="-3.992437">
        <ele>1263</ele>
        <time>2018-06-30T15:08:04.008Z</time>
      </trkpt>
      <trkpt lat="40.895089" lon="-3.992478">
        <ele>1263</ele>
        <time>2018-06-30T15:08:07.008Z</time>
      </trkpt>
      <trkpt lat="40.895112" lon="-3.992518">
        <ele>1263</ele>
        <time>2018-06-30T15:08:10.008Z</time>
      </trkpt>
      <trkpt lat="40.895137" lon="-3.992556">
        <ele>1263</ele>
        <time>2018-06-30T15:08:13.008Z</time>
      </trkpt>
      <trkpt lat="40.895177" lon="-3.992594">
        <ele>1263</ele>
        <time>2018-06-30T15:08:17.008Z</time>
      </trkpt>
      <trkpt lat="40.895213" lon="-3.992631">
        <ele>1262.45778163355</ele>
        <time>2018-06-30T15:08:21.008Z</time>
      </trkpt>
      <trkpt lat="40.895249" lon="-3.99267">
        <ele>1262</ele>
        <time>2018-06-30T15:08:25.008Z</time>
      </trkpt>
      <trkpt lat="40.895274" lon="-3.992706">
        <ele>1262</ele>
        <time>2018-06-30T15:08:28.008Z</time>
      </trkpt>
      <trkpt lat="40.895299" lon="-3.992747">
        <ele>1261.42041194833</ele>
        <time>2018-06-30T15:08:31.008Z</time>
      </trkpt>
      <trkpt lat="40.895332" lon="-3.992791">
        <ele>1260</ele>
        <time>2018-06-30T15:08:35.008Z</time>
      </trkpt>
      <trkpt lat="40.895356" lon="-3.992835">
        <ele>1260</ele>
        <time>2018-06-30T15:08:38.008Z</time>
      </trkpt>
      <trkpt lat="40.89538" lon="-3.992895">
        <ele>1259</ele>
        <time>2018-06-30T15:08:42.008Z</time>
      </trkpt>
      <trkpt lat="40.895404" lon="-3.992954">
        <ele>1259</ele>
        <time>2018-06-30T15:08:46.008Z</time>
      </trkpt>
      <trkpt lat="40.89542" lon="-3.992996">
        <ele>1259</ele>
        <time>2018-06-30T15:08:49.008Z</time>
      </trkpt>
      <trkpt lat="40.895437" lon="-3.993036">
        <ele>1259</ele>
        <time>2018-06-30T15:08:52.008Z</time>
      </trkpt>
      <trkpt lat="40.895461" lon="-3.99309">
        <ele>1259</ele>
        <time>2018-06-30T15:08:56.008Z</time>
      </trkpt>
      <trkpt lat="40.89548" lon="-3.993129">
        <ele>1259</ele>
        <time>2018-06-30T15:08:59.008Z</time>
      </trkpt>
      <trkpt lat="40.895497" lon="-3.993176">
        <ele>1257.46545725357</ele>
        <time>2018-06-30T15:09:02.008Z</time>
      </trkpt>
      <trkpt lat="40.895512" lon="-3.993221">
        <ele>1257</ele>
        <time>2018-06-30T15:09:05.008Z</time>
      </trkpt>
      <trkpt lat="40.895528" lon="-3.993266">
        <ele>1257</ele>
        <time>2018-06-30T15:09:08.008Z</time>
      </trkpt>
      <trkpt lat="40.895558" lon="-3.993311">
        <ele>1256</ele>
        <time>2018-06-30T15:09:12.008Z</time>
      </trkpt>
      <trkpt lat="40.895582" lon="-3.993346">
        <ele>1256</ele>
        <time>2018-06-30T15:09:15.008Z</time>
      </trkpt>
      <trkpt lat="40.89561" lon="-3.993379">
        <ele>1256</ele>
        <time>2018-06-30T15:09:18.008Z</time>
      </trkpt>
      <trkpt lat="40.895642" lon="-3.99341">
        <ele>1254.91556326711</ele>
        <time>2018-06-30T15:09:21.008Z</time>
      </trkpt>
      <trkpt lat="40.895672" lon="-3.993445">
        <ele>1254</ele>
        <time>2018-06-30T15:09:24.008Z</time>
      </trkpt>
      <trkpt lat="40.895703" lon="-3.993478">
        <ele>1254</ele>
        <time>2018-06-30T15:09:27.008Z</time>
      </trkpt>
      <trkpt lat="40.895731" lon="-3.99351">
        <ele>1254</ele>
        <time>2018-06-30T15:09:30.008Z</time>
      </trkpt>
      <trkpt lat="40.895763" lon="-3.993552">
        <ele>1253</ele>
        <time>2018-06-30T15:09:34.008Z</time>
      </trkpt>
      <trkpt lat="40.895784" lon="-3.993592">
        <ele>1252</ele>
        <time>2018-06-30T15:09:37.008Z</time>
      </trkpt>
      <trkpt lat="40.895805" lon="-3.993631">
        <ele>1252</ele>
        <time>2018-06-30T15:09:40.008Z</time>
      </trkpt>
      <trkpt lat="40.895831" lon="-3.993688">
        <ele>1252</ele>
        <time>2018-06-30T15:09:44.008Z</time>
      </trkpt>
      <trkpt lat="40.895852" lon="-3.99373">
        <ele>1252</ele>
        <time>2018-06-30T15:09:47.008Z</time>
      </trkpt>
      <trkpt lat="40.895883" lon="-3.993775">
        <ele>1251.45778163355</ele>
        <time>2018-06-30T15:09:51.008Z</time>
      </trkpt>
      <trkpt lat="40.895909" lon="-3.99382">
        <ele>1251</ele>
        <time>2018-06-30T15:09:55.008Z</time>
      </trkpt>
      <trkpt lat="40.895936" lon="-3.993868">
        <ele>1251</ele>
        <time>2018-06-30T15:09:59.008Z</time>
      </trkpt>
      <trkpt lat="40.895959" lon="-3.993908">
        <ele>1248</ele>
        <time>2018-06-30T15:10:02.008Z</time>
      </trkpt>
      <trkpt lat="40.895981" lon="-3.993962">
        <ele>1248</ele>
        <time>2018-06-30T15:10:06.008Z</time>
      </trkpt>
      <trkpt lat="40.89601" lon="-3.994009">
        <ele>1248</ele>
        <time>2018-06-30T15:10:10.008Z</time>
      </trkpt>
      <trkpt lat="40.896035" lon="-3.994063">
        <ele>1248</ele>
        <time>2018-06-30T15:10:14.008Z</time>
      </trkpt>
      <trkpt lat="40.896057" lon="-3.994107">
        <ele>1248</ele>
        <time>2018-06-30T15:10:17.008Z</time>
      </trkpt>
      <trkpt lat="40.896079" lon="-3.99415">
        <ele>1248</ele>
        <time>2018-06-30T15:10:20.008Z</time>
      </trkpt>
      <trkpt lat="40.8961" lon="-3.994197">
        <ele>1248</ele>
        <time>2018-06-30T15:10:23.008Z</time>
      </trkpt>
      <trkpt lat="40.896123" lon="-3.99424">
        <ele>1247.46545725357</ele>
        <time>2018-06-30T15:10:26.008Z</time>
      </trkpt>
      <trkpt lat="40.896146" lon="-3.994278">
        <ele>1247</ele>
        <time>2018-06-30T15:10:29.008Z</time>
      </trkpt>
      <trkpt lat="40.896168" lon="-3.994317">
        <ele>1246</ele>
        <time>2018-06-30T15:10:32.008Z</time>
      </trkpt>
      <trkpt lat="40.896189" lon="-3.994357">
        <ele>1246</ele>
        <time>2018-06-30T15:10:35.008Z</time>
      </trkpt>
      <trkpt lat="40.896212" lon="-3.994396">
        <ele>1246</ele>
        <time>2018-06-30T15:10:38.008Z</time>
      </trkpt>
      <trkpt lat="40.896236" lon="-3.994438">
        <ele>1245.41616673562</ele>
        <time>2018-06-30T15:10:41.008Z</time>
      </trkpt>
      <trkpt lat="40.896256" lon="-3.994477">
        <ele>1245</ele>
        <time>2018-06-30T15:10:44.008Z</time>
      </trkpt>
      <trkpt lat="40.896286" lon="-3.994517">
        <ele>1245</ele>
        <time>2018-06-30T15:10:48.008Z</time>
      </trkpt>
      <trkpt lat="40.896321" lon="-3.994567">
        <ele>1244</ele>
        <time>2018-06-30T15:10:52.008Z</time>
      </trkpt>
      <trkpt lat="40.896356" lon="-3.994619">
        <ele>1244</ele>
        <time>2018-06-30T15:10:56.008Z</time>
      </trkpt>
      <trkpt lat="40.896384" lon="-3.994665">
        <ele>1244</ele>
        <time>2018-06-30T15:11:00.008Z</time>
      </trkpt>
      <trkpt lat="40.896419" lon="-3.994709">
        <ele>1242</ele>
        <time>2018-06-30T15:11:04.008Z</time>
      </trkpt>
      <trkpt lat="40.896445" lon="-3.994751">
        <ele>1242</ele>
        <time>2018-06-30T15:11:07.008Z</time>
      </trkpt>
      <trkpt lat="40.896474" lon="-3.9948">
        <ele>1242</ele>
        <time>2018-06-30T15:11:11.008Z</time>
      </trkpt>
      <trkpt lat="40.896506" lon="-3.994843">
        <ele>1242</ele>
        <time>2018-06-30T15:11:15.008Z</time>
      </trkpt>
      <trkpt lat="40.896533" lon="-3.99488">
        <ele>1242</ele>
        <time>2018-06-30T15:11:18.008Z</time>
      </trkpt>
      <trkpt lat="40.896558" lon="-3.994917">
        <ele>1241.45778163355</ele>
        <time>2018-06-30T15:11:21.008Z</time>
      </trkpt>
      <trkpt lat="40.896586" lon="-3.994968">
        <ele>1241</ele>
        <time>2018-06-30T15:11:25.008Z</time>
      </trkpt>
      <trkpt lat="40.896618" lon="-3.995013">
        <ele>1240</ele>
        <time>2018-06-30T15:11:29.008Z</time>
      </trkpt>
      <trkpt lat="40.896643" lon="-3.995067">
        <ele>1239</ele>
        <time>2018-06-30T15:11:33.008Z</time>
      </trkpt>
      <trkpt lat="40.896674" lon="-3.995119">
        <ele>1239</ele>
        <time>2018-06-30T15:11:37.008Z</time>
      </trkpt>
      <trkpt lat="40.896698" lon="-3.995157">
        <ele>1239</ele>
        <time>2018-06-30T15:11:40.008Z</time>
      </trkpt>
      <trkpt lat="40.896716" lon="-3.995201">
        <ele>1237</ele>
        <time>2018-06-30T15:11:43.008Z</time>
      </trkpt>
      <trkpt lat="40.896721" lon="-3.995255">
        <ele>1237</ele>
        <time>2018-06-30T15:11:47.008Z</time>
      </trkpt>
      <trkpt lat="40.896759" lon="-3.995306">
        <ele>1236</ele>
        <time>2018-06-30T15:11:52.008Z</time>
      </trkpt>
      <trkpt lat="40.896804" lon="-3.995359">
        <ele>1236</ele>
        <time>2018-06-30T15:11:57.008Z</time>
      </trkpt>
      <trkpt lat="40.896842" lon="-3.995415">
        <ele>1232</ele>
        <time>2018-06-30T15:12:02.008Z</time>
      </trkpt>
      <trkpt lat="40.896884" lon="-3.995465">
        <ele>1232</ele>
        <time>2018-06-30T15:12:07.008Z</time>
      </trkpt>
      <trkpt lat="40.896895" lon="-3.99552">
        <ele>1231</ele>
        <time>2018-06-30T15:12:12.008Z</time>
      </trkpt>
      <trkpt lat="40.896912" lon="-3.99556">
        <ele>1231</ele>
        <time>2018-06-30T15:12:33.008Z</time>
      </trkpt>
      <trkpt lat="40.896923" lon="-3.995612">
        <ele>1231</ele>
        <time>2018-06-30T15:12:37.008Z</time>
      </trkpt>
      <trkpt lat="40.89695" lon="-3.995665">
        <ele>1231</ele>
        <time>2018-06-30T15:12:42.008Z</time>
      </trkpt>
      <trkpt lat="40.896985" lon="-3.995724">
        <ele>1231</ele>
        <time>2018-06-30T15:12:47.008Z</time>
      </trkpt>
      <trkpt lat="40.897011" lon="-3.995786">
        <ele>1230</ele>
        <time>2018-06-30T15:12:52.008Z</time>
      </trkpt>
      <trkpt lat="40.897055" lon="-3.995835">
        <ele>1230</ele>
        <time>2018-06-30T15:12:57.008Z</time>
      </trkpt>
      <trkpt lat="40.897095" lon="-3.995887">
        <ele>1229</ele>
        <time>2018-06-30T15:13:02.008Z</time>
      </trkpt>
      <trkpt lat="40.897133" lon="-3.995934">
        <ele>1228.42353206922</ele>
        <time>2018-06-30T15:13:06.008Z</time>
      </trkpt>
      <trkpt lat="40.897169" lon="-3.995982">
        <ele>1228</ele>
        <time>2018-06-30T15:13:10.008Z</time>
      </trkpt>
      <trkpt lat="40.897216" lon="-3.996044">
        <ele>1228</ele>
        <time>2018-06-30T15:13:15.008Z</time>
      </trkpt>
      <trkpt lat="40.897259" lon="-3.996112">
        <ele>1228</ele>
        <time>2018-06-30T15:13:20.008Z</time>
      </trkpt>
      <trkpt lat="40.897298" lon="-3.996183">
        <ele>1227</ele>
        <time>2018-06-30T15:13:25.008Z</time>
      </trkpt>
      <trkpt lat="40.897338" lon="-3.996253">
        <ele>1227</ele>
        <time>2018-06-30T15:13:30.008Z</time>
      </trkpt>
      <trkpt lat="40.897382" lon="-3.996319">
        <ele>1227</ele>
        <time>2018-06-30T15:13:35.008Z</time>
      </trkpt>
      <trkpt lat="40.89742" lon="-3.996375">
        <ele>1227</ele>
        <time>2018-06-30T15:13:39.008Z</time>
      </trkpt>
      <trkpt lat="40.897447" lon="-3.996414">
        <ele>1226</ele>
        <time>2018-06-30T15:13:42.008Z</time>
      </trkpt>
      <trkpt lat="40.897484" lon="-3.996464">
        <ele>1226</ele>
        <time>2018-06-30T15:13:46.008Z</time>
      </trkpt>
      <trkpt lat="40.897516" lon="-3.996511">
        <ele>1226</ele>
        <time>2018-06-30T15:13:50.008Z</time>
      </trkpt>
      <trkpt lat="40.89755" lon="-3.99656">
        <ele>1224</ele>
        <time>2018-06-30T15:13:54.008Z</time>
      </trkpt>
      <trkpt lat="40.897583" lon="-3.9966">
        <ele>1224</ele>
        <time>2018-06-30T15:13:58.008Z</time>
      </trkpt>
      <trkpt lat="40.897615" lon="-3.99664">
        <ele>1222</ele>
        <time>2018-06-30T15:14:02.008Z</time>
      </trkpt>
      <trkpt lat="40.897649" lon="-3.996692">
        <ele>1222</ele>
        <time>2018-06-30T15:14:06.008Z</time>
      </trkpt>
      <trkpt lat="40.897682" lon="-3.996746">
        <ele>1222</ele>
        <time>2018-06-30T15:14:10.008Z</time>
      </trkpt>
      <trkpt lat="40.897714" lon="-3.996799">
        <ele>1222</ele>
        <time>2018-06-30T15:14:14.008Z</time>
      </trkpt>
      <trkpt lat="40.897748" lon="-3.996852">
        <ele>1222</ele>
        <time>2018-06-30T15:14:18.008Z</time>
      </trkpt>
      <trkpt lat="40.89778" lon="-3.996902">
        <ele>1221</ele>
        <time>2018-06-30T15:14:22.008Z</time>
      </trkpt>
      <trkpt lat="40.897818" lon="-3.996964">
        <ele>1221</ele>
        <time>2018-06-30T15:14:27.008Z</time>
      </trkpt>
      <trkpt lat="40.897855" lon="-3.99702">
        <ele>1220</ele>
        <time>2018-06-30T15:14:32.008Z</time>
      </trkpt>
      <trkpt lat="40.897895" lon="-3.997081">
        <ele>1220</ele>
        <time>2018-06-30T15:14:37.008Z</time>
      </trkpt>
      <trkpt lat="40.89793" lon="-3.997139">
        <ele>1220</ele>
        <time>2018-06-30T15:14:42.008Z</time>
      </trkpt>
      <trkpt lat="40.897967" lon="-3.997188">
        <ele>1220</ele>
        <time>2018-06-30T15:14:46.008Z</time>
      </trkpt>
      <trkpt lat="40.898004" lon="-3.99724">
        <ele>1220</ele>
        <time>2018-06-30T15:14:50.008Z</time>
      </trkpt>
      <trkpt lat="40.898036" lon="-3.99729">
        <ele>1219</ele>
        <time>2018-06-30T15:14:54.008Z</time>
      </trkpt>
      <trkpt lat="40.898071" lon="-3.997338">
        <ele>1219</ele>
        <time>2018-06-30T15:14:58.008Z</time>
      </trkpt>
      <trkpt lat="40.898104" lon="-3.997396">
        <ele>1217</ele>
        <time>2018-06-30T15:15:02.008Z</time>
      </trkpt>
      <trkpt lat="40.898136" lon="-3.997451">
        <ele>1217</ele>
        <time>2018-06-30T15:15:06.008Z</time>
      </trkpt>
      <trkpt lat="40.898163" lon="-3.997509">
        <ele>1217</ele>
        <time>2018-06-30T15:15:10.008Z</time>
      </trkpt>
      <trkpt lat="40.898194" lon="-3.997554">
        <ele>1217</ele>
        <time>2018-06-30T15:15:14.008Z</time>
      </trkpt>
      <trkpt lat="40.898226" lon="-3.997606">
        <ele>1217</ele>
        <time>2018-06-30T15:15:18.008Z</time>
      </trkpt>
      <trkpt lat="40.89826" lon="-3.997656">
        <ele>1216</ele>
        <time>2018-06-30T15:15:22.008Z</time>
      </trkpt>
      <trkpt lat="40.89829" lon="-3.99771">
        <ele>1216</ele>
        <time>2018-06-30T15:15:26.008Z</time>
      </trkpt>
      <trkpt lat="40.898322" lon="-3.997761">
        <ele>1216</ele>
        <time>2018-06-30T15:15:30.008Z</time>
      </trkpt>
      <trkpt lat="40.898355" lon="-3.997812">
        <ele>1215</ele>
        <time>2018-06-30T15:15:34.008Z</time>
      </trkpt>
      <trkpt lat="40.898388" lon="-3.997862">
        <ele>1214.46545725357</ele>
        <time>2018-06-30T15:15:38.008Z</time>
      </trkpt>
      <trkpt lat="40.898421" lon="-3.997912">
        <ele>1214</ele>
        <time>2018-06-30T15:15:42.008Z</time>
      </trkpt>
      <trkpt lat="40.898454" lon="-3.997964">
        <ele>1213</ele>
        <time>2018-06-30T15:15:46.008Z</time>
      </trkpt>
      <trkpt lat="40.898484" lon="-3.998019">
        <ele>1213</ele>
        <time>2018-06-30T15:15:50.008Z</time>
      </trkpt>
      <trkpt lat="40.898514" lon="-3.998073">
        <ele>1212</ele>
        <time>2018-06-30T15:15:54.008Z</time>
      </trkpt>
      <trkpt lat="40.898549" lon="-3.998134">
        <ele>1212</ele>
        <time>2018-06-30T15:15:59.008Z</time>
      </trkpt>
      <trkpt lat="40.898582" lon="-3.998183">
        <ele>1211</ele>
        <time>2018-06-30T15:16:03.008Z</time>
      </trkpt>
      <trkpt lat="40.898613" lon="-3.998234">
        <ele>1211</ele>
        <time>2018-06-30T15:16:07.008Z</time>
      </trkpt>
      <trkpt lat="40.898639" lon="-3.998289">
        <ele>1211</ele>
        <time>2018-06-30T15:16:11.008Z</time>
      </trkpt>
      <trkpt lat="40.898672" lon="-3.99834">
        <ele>1211</ele>
        <time>2018-06-30T15:16:15.008Z</time>
      </trkpt>
      <trkpt lat="40.898703" lon="-3.998391">
        <ele>1211</ele>
        <time>2018-06-30T15:16:19.008Z</time>
      </trkpt>
      <trkpt lat="40.898731" lon="-3.998441">
        <ele>1210</ele>
        <time>2018-06-30T15:16:23.008Z</time>
      </trkpt>
      <trkpt lat="40.898765" lon="-3.998491">
        <ele>1210</ele>
        <time>2018-06-30T15:16:27.008Z</time>
      </trkpt>
      <trkpt lat="40.898811" lon="-3.998531">
        <ele>1209</ele>
        <time>2018-06-30T15:16:32.008Z</time>
      </trkpt>
      <trkpt lat="40.898858" lon="-3.998564">
        <ele>1209</ele>
        <time>2018-06-30T15:16:37.008Z</time>
      </trkpt>
      <trkpt lat="40.898881" lon="-3.998618">
        <ele>1208.41616673562</ele>
        <time>2018-06-30T15:16:41.008Z</time>
      </trkpt>
      <trkpt lat="40.898903" lon="-3.998667">
        <ele>1208</ele>
        <time>2018-06-30T15:16:45.008Z</time>
      </trkpt>
      <trkpt lat="40.89893" lon="-3.998718">
        <ele>1208</ele>
        <time>2018-06-30T15:16:49.008Z</time>
      </trkpt>
      <trkpt lat="40.898952" lon="-3.998775">
        <ele>1208</ele>
        <time>2018-06-30T15:16:53.008Z</time>
      </trkpt>
      <trkpt lat="40.898981" lon="-3.998824">
        <ele>1208</ele>
        <time>2018-06-30T15:16:57.008Z</time>
      </trkpt>
      <trkpt lat="40.899003" lon="-3.998877">
        <ele>1207</ele>
        <time>2018-06-30T15:17:01.008Z</time>
      </trkpt>
      <trkpt lat="40.899029" lon="-3.998932">
        <ele>1206</ele>
        <time>2018-06-30T15:17:05.008Z</time>
      </trkpt>
      <trkpt lat="40.899056" lon="-3.998993">
        <ele>1206</ele>
        <time>2018-06-30T15:17:10.008Z</time>
      </trkpt>
      <trkpt lat="40.899094" lon="-3.99905">
        <ele>1206</ele>
        <time>2018-06-30T15:17:16.008Z</time>
      </trkpt>
      <trkpt lat="40.899135" lon="-3.999104">
        <ele>1205.45778163355</ele>
        <time>2018-06-30T15:17:21.008Z</time>
      </trkpt>
      <trkpt lat="40.899178" lon="-3.999162">
        <ele>1205</ele>
        <time>2018-06-30T15:17:27.008Z</time>
      </trkpt>
      <trkpt lat="40.899222" lon="-3.999228">
        <ele>1204</ele>
        <time>2018-06-30T15:17:33.008Z</time>
      </trkpt>
      <trkpt lat="40.899279" lon="-3.999291">
        <ele>1204</ele>
        <time>2018-06-30T15:17:40.008Z</time>
      </trkpt>
      <trkpt lat="40.899314" lon="-3.999357">
        <ele>1203</ele>
        <time>2018-06-30T15:17:45.008Z</time>
      </trkpt>
      <trkpt lat="40.899354" lon="-3.999418">
        <ele>1203</ele>
        <time>2018-06-30T15:17:51.008Z</time>
      </trkpt>
      <trkpt lat="40.899392" lon="-3.99948">
        <ele>1203</ele>
        <time>2018-06-30T15:17:56.008Z</time>
      </trkpt>
      <trkpt lat="40.899425" lon="-3.999544">
        <ele>1203</ele>
        <time>2018-06-30T15:18:00.008Z</time>
      </trkpt>
      <trkpt lat="40.899456" lon="-3.999602">
        <ele>1200</ele>
        <time>2018-06-30T15:18:04.008Z</time>
      </trkpt>
      <trkpt lat="40.89949" lon="-3.999667">
        <ele>1201</ele>
        <time>2018-06-30T15:18:09.008Z</time>
      </trkpt>
      <trkpt lat="40.899525" lon="-3.999719">
        <ele>1201</ele>
        <time>2018-06-30T15:18:13.008Z</time>
      </trkpt>
      <trkpt lat="40.899558" lon="-3.999766">
        <ele>1201</ele>
        <time>2018-06-30T15:18:17.008Z</time>
      </trkpt>
      <trkpt lat="40.899592" lon="-3.99982">
        <ele>1201</ele>
        <time>2018-06-30T15:18:21.008Z</time>
      </trkpt>
      <trkpt lat="40.899627" lon="-3.999868">
        <ele>1201</ele>
        <time>2018-06-30T15:18:25.008Z</time>
      </trkpt>
      <trkpt lat="40.899664" lon="-3.999927">
        <ele>1201</ele>
        <time>2018-06-30T15:18:30.008Z</time>
      </trkpt>
      <trkpt lat="40.8997" lon="-3.999984">
        <ele>1199</ele>
        <time>2018-06-30T15:18:35.008Z</time>
      </trkpt>
      <trkpt lat="40.899731" lon="-4.000048">
        <ele>1198.41616673562</ele>
        <time>2018-06-30T15:18:41.008Z</time>
      </trkpt>
      <trkpt lat="40.899777" lon="-4.000101">
        <ele>1198</ele>
        <time>2018-06-30T15:18:48.008Z</time>
      </trkpt>
      <trkpt lat="40.899815" lon="-4.000173">
        <ele>1198</ele>
        <time>2018-06-30T15:18:54.008Z</time>
      </trkpt>
      <trkpt lat="40.899856" lon="-4.00024">
        <ele>1198</ele>
        <time>2018-06-30T15:18:59.008Z</time>
      </trkpt>
      <trkpt lat="40.899898" lon="-4.000311">
        <ele>1196</ele>
        <time>2018-06-30T15:19:05.008Z</time>
      </trkpt>
      <trkpt lat="40.899941" lon="-4.000356">
        <ele>1196</ele>
        <time>2018-06-30T15:19:10.008Z</time>
      </trkpt>
      <trkpt lat="40.899984" lon="-4.000416">
        <ele>1196</ele>
        <time>2018-06-30T15:19:19.008Z</time>
      </trkpt>
      <trkpt lat="40.900024" lon="-4.000489">
        <ele>1196</ele>
        <time>2018-06-30T15:19:26.008Z</time>
      </trkpt>
      <trkpt lat="40.900063" lon="-4.000561">
        <ele>1196</ele>
        <time>2018-06-30T15:19:30.008Z</time>
      </trkpt>
      <trkpt lat="40.900101" lon="-4.000624">
        <ele>1195</ele>
        <time>2018-06-30T15:19:32.008Z</time>
      </trkpt>
      <trkpt lat="40.900136" lon="-4.00068">
        <ele>1195</ele>
        <time>2018-06-30T15:19:34.008Z</time>
      </trkpt>
      <trkpt lat="40.900179" lon="-4.000752">
        <ele>1195</ele>
        <time>2018-06-30T15:19:37.008Z</time>
      </trkpt>
      <trkpt lat="40.90022" lon="-4.000822">
        <ele>1195</ele>
        <time>2018-06-30T15:19:40.008Z</time>
      </trkpt>
      <trkpt lat="40.900265" lon="-4.000888">
        <ele>1194</ele>
        <time>2018-06-30T15:19:43.008Z</time>
      </trkpt>
      <trkpt lat="40.900313" lon="-4.000956">
        <ele>1194</ele>
        <time>2018-06-30T15:19:46.008Z</time>
      </trkpt>
      <trkpt lat="40.900354" lon="-4.001034">
        <ele>1194</ele>
        <time>2018-06-30T15:19:49.008Z</time>
      </trkpt>
      <trkpt lat="40.900408" lon="-4.001116">
        <ele>1193</ele>
        <time>2018-06-30T15:19:53.008Z</time>
      </trkpt>
      <trkpt lat="40.900455" lon="-4.001188">
        <ele>1193</ele>
        <time>2018-06-30T15:19:57.008Z</time>
      </trkpt>
      <trkpt lat="40.900519" lon="-4.00127">
        <ele>1191</ele>
        <time>2018-06-30T15:20:02.008Z</time>
      </trkpt>
      <trkpt lat="40.900579" lon="-4.00137">
        <ele>1191</ele>
        <time>2018-06-30T15:20:06.008Z</time>
      </trkpt>
      <trkpt lat="40.900625" lon="-4.001449">
        <ele>1191</ele>
        <time>2018-06-30T15:20:10.008Z</time>
      </trkpt>
      <trkpt lat="40.900664" lon="-4.00154">
        <ele>1191</ele>
        <time>2018-06-30T15:20:14.008Z</time>
      </trkpt>
      <trkpt lat="40.900733" lon="-4.001638">
        <ele>1191</ele>
        <time>2018-06-30T15:20:19.008Z</time>
      </trkpt>
      <trkpt lat="40.900789" lon="-4.00172">
        <ele>1190</ele>
        <time>2018-06-30T15:20:23.008Z</time>
      </trkpt>
      <trkpt lat="40.900828" lon="-4.0018">
        <ele>1190</ele>
        <time>2018-06-30T15:20:26.008Z</time>
      </trkpt>
      <trkpt lat="40.90088" lon="-4.00189">
        <ele>1190</ele>
        <time>2018-06-30T15:20:30.008Z</time>
      </trkpt>
      <trkpt lat="40.900938" lon="-4.001954">
        <ele>1188</ele>
        <time>2018-06-30T15:20:33.008Z</time>
      </trkpt>
      <trkpt lat="40.900978" lon="-4.002028">
        <ele>1188</ele>
        <time>2018-06-30T15:20:36.008Z</time>
      </trkpt>
      <trkpt lat="40.901015" lon="-4.002097">
        <ele>1188</ele>
        <time>2018-06-30T15:20:39.008Z</time>
      </trkpt>
      <trkpt lat="40.90105" lon="-4.002168">
        <ele>1187</ele>
        <time>2018-06-30T15:20:42.008Z</time>
      </trkpt>
      <trkpt lat="40.901095" lon="-4.002234">
        <ele>1187</ele>
        <time>2018-06-30T15:20:45.008Z</time>
      </trkpt>
      <trkpt lat="40.901135" lon="-4.002286">
        <ele>1187</ele>
        <time>2018-06-30T15:20:48.008Z</time>
      </trkpt>
      <trkpt lat="40.901169" lon="-4.002334">
        <ele>1187</ele>
        <time>2018-06-30T15:20:51.008Z</time>
      </trkpt>
      <trkpt lat="40.901214" lon="-4.002383">
        <ele>1187</ele>
        <time>2018-06-30T15:20:54.008Z</time>
      </trkpt>
      <trkpt lat="40.901264" lon="-4.002459">
        <ele>1187</ele>
        <time>2018-06-30T15:20:58.008Z</time>
      </trkpt>
      <trkpt lat="40.901301" lon="-4.002541">
        <ele>1187</ele>
        <time>2018-06-30T15:21:02.008Z</time>
      </trkpt>
      <trkpt lat="40.901342" lon="-4.002612">
        <ele>1187</ele>
        <time>2018-06-30T15:21:05.008Z</time>
      </trkpt>
      <trkpt lat="40.901379" lon="-4.002662">
        <ele>1187</ele>
        <time>2018-06-30T15:21:08.008Z</time>
      </trkpt>
      <trkpt lat="40.901423" lon="-4.002716">
        <ele>1186.41616673562</ele>
        <time>2018-06-30T15:21:11.008Z</time>
      </trkpt>
      <trkpt lat="40.901472" lon="-4.002799">
        <ele>1186</ele>
        <time>2018-06-30T15:21:16.008Z</time>
      </trkpt>
      <trkpt lat="40.901531" lon="-4.002885">
        <ele>1185.45778163355</ele>
        <time>2018-06-30T15:21:21.008Z</time>
      </trkpt>
      <trkpt lat="40.901577" lon="-4.002958">
        <ele>1185</ele>
        <time>2018-06-30T15:21:25.008Z</time>
      </trkpt>
      <trkpt lat="40.901609" lon="-4.003032">
        <ele>1185</ele>
        <time>2018-06-30T15:21:28.008Z</time>
      </trkpt>
      <trkpt lat="40.901638" lon="-4.00309">
        <ele>1185</ele>
        <time>2018-06-30T15:21:30.008Z</time>
      </trkpt>
      <trkpt lat="40.901661" lon="-4.003173">
        <ele>1184</ele>
        <time>2018-06-30T15:21:32.008Z</time>
      </trkpt>
      <trkpt lat="40.90166" lon="-4.003305">
        <ele>1182</ele>
        <time>2018-06-30T15:21:43.008Z</time>
      </trkpt>
      <trkpt lat="40.90162" lon="-4.003444">
        <ele>1180</ele>
        <time>2018-06-30T15:21:52.008Z</time>
      </trkpt>
      <trkpt lat="40.901526" lon="-4.003541">
        <ele>1180</ele>
        <time>2018-06-30T15:21:57.008Z</time>
      </trkpt>
      <trkpt lat="40.901458" lon="-4.003596">
        <ele>1178.84082389666</ele>
        <time>2018-06-30T15:22:01.008Z</time>
      </trkpt>
      <trkpt lat="40.901431" lon="-4.003706">
        <ele>1178</ele>
        <time>2018-06-30T15:22:06.008Z</time>
      </trkpt>
      <trkpt lat="40.901366" lon="-4.003806">
        <ele>1179</ele>
        <time>2018-06-30T15:22:11.008Z</time>
      </trkpt>
      <trkpt lat="40.901327" lon="-4.003938">
        <ele>1179</ele>
        <time>2018-06-30T15:22:16.008Z</time>
      </trkpt>
      <trkpt lat="40.901224" lon="-4.00401">
        <ele>1179</ele>
        <time>2018-06-30T15:22:21.008Z</time>
      </trkpt>
      <trkpt lat="40.901138" lon="-4.004054">
        <ele>1179</ele>
        <time>2018-06-30T15:22:24.008Z</time>
      </trkpt>
      <trkpt lat="40.901078" lon="-4.004109">
        <ele>1179</ele>
        <time>2018-06-30T15:22:26.008Z</time>
      </trkpt>
      <trkpt lat="40.901023" lon="-4.00417">
        <ele>1179</ele>
        <time>2018-06-30T15:22:29.008Z</time>
      </trkpt>
      <trkpt lat="40.900969" lon="-4.004221">
        <ele>1179</ele>
        <time>2018-06-30T15:22:33.008Z</time>
      </trkpt>
      <trkpt lat="40.900909" lon="-4.004269">
        <ele>1179</ele>
        <time>2018-06-30T15:22:37.008Z</time>
      </trkpt>
      <trkpt lat="40.900855" lon="-4.00432">
        <ele>1179</ele>
        <time>2018-06-30T15:22:41.008Z</time>
      </trkpt>
      <trkpt lat="40.900814" lon="-4.004369">
        <ele>1179</ele>
        <time>2018-06-30T15:22:44.008Z</time>
      </trkpt>
      <trkpt lat="40.900786" lon="-4.004469">
        <ele>1179</ele>
        <time>2018-06-30T15:22:47.008Z</time>
      </trkpt>
      <trkpt lat="40.900766" lon="-4.00453">
        <ele>1179</ele>
        <time>2018-06-30T15:22:49.008Z</time>
      </trkpt>
      <trkpt lat="40.900734" lon="-4.004568">
        <ele>1179.54221836645</ele>
        <time>2018-06-30T15:22:51.008Z</time>
      </trkpt>
      <trkpt lat="40.900701" lon="-4.004626">
        <ele>1180</ele>
        <time>2018-06-30T15:22:54.008Z</time>
      </trkpt>
      <trkpt lat="40.900668" lon="-4.004687">
        <ele>1180</ele>
        <time>2018-06-30T15:22:57.008Z</time>
      </trkpt>
      <trkpt lat="40.900633" lon="-4.004742">
        <ele>1180</ele>
        <time>2018-06-30T15:23:00.008Z</time>
      </trkpt>
      <trkpt lat="40.9006" lon="-4.004784">
        <ele>1179</ele>
        <time>2018-06-30T15:23:03.008Z</time>
      </trkpt>
      <trkpt lat="40.900573" lon="-4.004847">
        <ele>1179</ele>
        <time>2018-06-30T15:23:07.008Z</time>
      </trkpt>
      <trkpt lat="40.900572" lon="-4.004899">
        <ele>1179</ele>
        <time>2018-06-30T15:23:10.008Z</time>
      </trkpt>
      <trkpt lat="40.900586" lon="-4.004966">
        <ele>1179</ele>
        <time>2018-06-30T15:23:15.008Z</time>
      </trkpt>
      <trkpt lat="40.900604" lon="-4.005025">
        <ele>1179</ele>
        <time>2018-06-30T15:23:20.008Z</time>
      </trkpt>
      <trkpt lat="40.900621" lon="-4.005094">
        <ele>1179</ele>
        <time>2018-06-30T15:23:25.008Z</time>
      </trkpt>
      <trkpt lat="40.900634" lon="-4.005146">
        <ele>1177</ele>
        <time>2018-06-30T15:23:42.008Z</time>
      </trkpt>
      <trkpt lat="40.900656" lon="-4.005187">
        <ele>1177</ele>
        <time>2018-06-30T15:23:47.008Z</time>
      </trkpt>
      <trkpt lat="40.900682" lon="-4.005238">
        <ele>1177</ele>
        <time>2018-06-30T15:23:53.008Z</time>
      </trkpt>
      <trkpt lat="40.900708" lon="-4.005272">
        <ele>1176</ele>
        <time>2018-06-30T15:24:22.008Z</time>
      </trkpt>
      <trkpt lat="40.900728" lon="-4.005309">
        <ele>1176</ele>
        <time>2018-06-30T15:24:42.008Z</time>
      </trkpt>
      <trkpt lat="40.900752" lon="-4.005334">
        <ele>1176</ele>
        <time>2018-06-30T15:25:40.008Z</time>
      </trkpt>
      <trkpt lat="40.900762" lon="-4.005378">
        <ele>1176</ele>
        <time>2018-06-30T15:26:31.008Z</time>
      </trkpt>
      <trkpt lat="40.900789" lon="-4.005352">
        <ele>1176</ele>
        <time>2018-06-30T15:26:47.008Z</time>
      </trkpt>
      <trkpt lat="40.900756" lon="-4.005344">
        <ele>1174</ele>
        <time>2018-06-30T15:41:12.008Z</time>
      </trkpt>
      <trkpt lat="40.900728" lon="-4.005383">
        <ele>1174</ele>
        <time>2018-06-30T15:41:16.008Z</time>
      </trkpt>
      <trkpt lat="40.900694" lon="-4.005424">
        <ele>1174</ele>
        <time>2018-06-30T15:41:20.008Z</time>
      </trkpt>
      <trkpt lat="40.900662" lon="-4.005462">
        <ele>1174</ele>
        <time>2018-06-30T15:41:23.008Z</time>
      </trkpt>
      <trkpt lat="40.90063" lon="-4.005491">
        <ele>1174</ele>
        <time>2018-06-30T15:41:26.008Z</time>
      </trkpt>
      <trkpt lat="40.900598" lon="-4.005516">
        <ele>1174</ele>
        <time>2018-06-30T15:41:29.008Z</time>
      </trkpt>
      <trkpt lat="40.900568" lon="-4.005543">
        <ele>1174</ele>
        <time>2018-06-30T15:41:32.008Z</time>
      </trkpt>
      <trkpt lat="40.900542" lon="-4.00557">
        <ele>1174</ele>
        <time>2018-06-30T15:41:35.008Z</time>
      </trkpt>
      <trkpt lat="40.900522" lon="-4.005599">
        <ele>1174</ele>
        <time>2018-06-30T15:41:38.008Z</time>
      </trkpt>
      <trkpt lat="40.900502" lon="-4.005618">
        <ele>1174</ele>
        <time>2018-06-30T15:41:40.008Z</time>
      </trkpt>
      <trkpt lat="40.900476" lon="-4.005642">
        <ele>1174</ele>
        <time>2018-06-30T15:41:43.008Z</time>
      </trkpt>
      <trkpt lat="40.90044" lon="-4.005668">
        <ele>1174</ele>
        <time>2018-06-30T15:41:47.008Z</time>
      </trkpt>
      <trkpt lat="40.9004" lon="-4.005687">
        <ele>1174</ele>
        <time>2018-06-30T15:41:51.008Z</time>
      </trkpt>
      <trkpt lat="40.900366" lon="-4.005712">
        <ele>1174</ele>
        <time>2018-06-30T15:41:55.008Z</time>
      </trkpt>
      <trkpt lat="40.900338" lon="-4.005733">
        <ele>1174</ele>
        <time>2018-06-30T15:41:58.008Z</time>
      </trkpt>
      <trkpt lat="40.900304" lon="-4.005747">
        <ele>1175</ele>
        <time>2018-06-30T15:42:02.008Z</time>
      </trkpt>
      <trkpt lat="40.900273" lon="-4.005774">
        <ele>1175</ele>
        <time>2018-06-30T15:42:06.008Z</time>
      </trkpt>
      <trkpt lat="40.900224" lon="-4.005846">
        <ele>1175</ele>
        <time>2018-06-30T15:42:14.008Z</time>
      </trkpt>
      <trkpt lat="40.900193" lon="-4.005896">
        <ele>1175</ele>
        <time>2018-06-30T15:42:18.008Z</time>
      </trkpt>
      <trkpt lat="40.900165" lon="-4.005931">
        <ele>1176</ele>
        <time>2018-06-30T15:42:22.008Z</time>
      </trkpt>
      <trkpt lat="40.900134" lon="-4.005968">
        <ele>1176</ele>
        <time>2018-06-30T15:42:26.008Z</time>
      </trkpt>
      <trkpt lat="40.900105" lon="-4.006005">
        <ele>1176</ele>
        <time>2018-06-30T15:42:30.008Z</time>
      </trkpt>
      <trkpt lat="40.900072" lon="-4.006052">
        <ele>1176</ele>
        <time>2018-06-30T15:42:35.008Z</time>
      </trkpt>
      <trkpt lat="40.900033" lon="-4.006099">
        <ele>1176</ele>
        <time>2018-06-30T15:42:40.008Z</time>
      </trkpt>
      <trkpt lat="40.899997" lon="-4.006153">
        <ele>1177</ele>
        <time>2018-06-30T15:42:45.008Z</time>
      </trkpt>
      <trkpt lat="40.899962" lon="-4.006199">
        <ele>1177</ele>
        <time>2018-06-30T15:42:49.008Z</time>
      </trkpt>
      <trkpt lat="40.899925" lon="-4.00625">
        <ele>1178</ele>
        <time>2018-06-30T15:42:54.008Z</time>
      </trkpt>
      <trkpt lat="40.89989" lon="-4.006297">
        <ele>1178</ele>
        <time>2018-06-30T15:42:59.008Z</time>
      </trkpt>
      <trkpt lat="40.899852" lon="-4.006353">
        <ele>1179</ele>
        <time>2018-06-30T15:43:05.008Z</time>
      </trkpt>
      <trkpt lat="40.899815" lon="-4.006401">
        <ele>1179</ele>
        <time>2018-06-30T15:43:10.008Z</time>
      </trkpt>
      <trkpt lat="40.899775" lon="-4.006463">
        <ele>1180</ele>
        <time>2018-06-30T15:43:16.008Z</time>
      </trkpt>
      <trkpt lat="40.899726" lon="-4.00652">
        <ele>1181</ele>
        <time>2018-06-30T15:43:23.008Z</time>
      </trkpt>
      <trkpt lat="40.899737" lon="-4.006615">
        <ele>1181</ele>
        <time>2018-06-30T15:43:26.008Z</time>
      </trkpt>
      <trkpt lat="40.899751" lon="-4.006686">
        <ele>1181</ele>
        <time>2018-06-30T15:43:28.008Z</time>
      </trkpt>
      <trkpt lat="40.899722" lon="-4.006753">
        <ele>1181</ele>
        <time>2018-06-30T15:43:35.008Z</time>
      </trkpt>
      <trkpt lat="40.899697" lon="-4.006819">
        <ele>1182</ele>
        <time>2018-06-30T15:43:45.008Z</time>
      </trkpt>
      <trkpt lat="40.899674" lon="-4.006887">
        <ele>1182</ele>
        <time>2018-06-30T15:43:56.008Z</time>
      </trkpt>
      <trkpt lat="40.899649" lon="-4.006951">
        <ele>1183</ele>
        <time>2018-06-30T15:44:02.008Z</time>
      </trkpt>
      <trkpt lat="40.899597" lon="-4.006987">
        <ele>1183</ele>
        <time>2018-06-30T15:44:07.008Z</time>
      </trkpt>
      <trkpt lat="40.899551" lon="-4.007026">
        <ele>1183.58217902087</ele>
        <time>2018-06-30T15:44:11.008Z</time>
      </trkpt>
      <trkpt lat="40.899518" lon="-4.007071">
        <ele>1184</ele>
        <time>2018-06-30T15:44:15.008Z</time>
      </trkpt>
      <trkpt lat="40.899501" lon="-4.007125">
        <ele>1184</ele>
        <time>2018-06-30T15:44:18.008Z</time>
      </trkpt>
      <trkpt lat="40.899483" lon="-4.007169">
        <ele>1184</ele>
        <time>2018-06-30T15:44:21.008Z</time>
      </trkpt>
      <trkpt lat="40.899454" lon="-4.007217">
        <ele>1184</ele>
        <time>2018-06-30T15:44:25.008Z</time>
      </trkpt>
      <trkpt lat="40.899422" lon="-4.007252">
        <ele>1184</ele>
        <time>2018-06-30T15:44:29.008Z</time>
      </trkpt>
      <trkpt lat="40.899438" lon="-4.007316">
        <ele>1184</ele>
        <time>2018-06-30T15:44:36.008Z</time>
      </trkpt>
      <trkpt lat="40.899472" lon="-4.007371">
        <ele>1184</ele>
        <time>2018-06-30T15:44:40.008Z</time>
      </trkpt>
      <trkpt lat="40.899493" lon="-4.007437">
        <ele>1184</ele>
        <time>2018-06-30T15:44:44.008Z</time>
      </trkpt>
      <trkpt lat="40.899518" lon="-4.007505">
        <ele>1184</ele>
        <time>2018-06-30T15:44:48.008Z</time>
      </trkpt>
      <trkpt lat="40.89955" lon="-4.007559">
        <ele>1183</ele>
        <time>2018-06-30T15:44:52.008Z</time>
      </trkpt>
      <trkpt lat="40.899577" lon="-4.007617">
        <ele>1183</ele>
        <time>2018-06-30T15:44:56.008Z</time>
      </trkpt>
      <trkpt lat="40.89961" lon="-4.007683">
        <ele>1182.42352675434</ele>
        <time>2018-06-30T15:45:01.008Z</time>
      </trkpt>
      <trkpt lat="40.899643" lon="-4.007731">
        <ele>1182</ele>
        <time>2018-06-30T15:45:05.008Z</time>
      </trkpt>
      <trkpt lat="40.899671" lon="-4.007776">
        <ele>1182</ele>
        <time>2018-06-30T15:45:09.008Z</time>
      </trkpt>
      <trkpt lat="40.899706" lon="-4.007819">
        <ele>1182</ele>
        <time>2018-06-30T15:45:13.008Z</time>
      </trkpt>
      <trkpt lat="40.899732" lon="-4.007873">
        <ele>1182</ele>
        <time>2018-06-30T15:45:17.008Z</time>
      </trkpt>
      <trkpt lat="40.899757" lon="-4.007926">
        <ele>1181.46545183737</ele>
        <time>2018-06-30T15:45:21.008Z</time>
      </trkpt>
      <trkpt lat="40.899787" lon="-4.007979">
        <ele>1181</ele>
        <time>2018-06-30T15:45:25.008Z</time>
      </trkpt>
      <trkpt lat="40.89982" lon="-4.008033">
        <ele>1181</ele>
        <time>2018-06-30T15:45:30.008Z</time>
      </trkpt>
      <trkpt lat="40.899851" lon="-4.008097">
        <ele>1180</ele>
        <time>2018-06-30T15:45:35.008Z</time>
      </trkpt>
      <trkpt lat="40.899878" lon="-4.008169">
        <ele>1180</ele>
        <time>2018-06-30T15:45:40.008Z</time>
      </trkpt>
      <trkpt lat="40.89991" lon="-4.008216">
        <ele>1180</ele>
        <time>2018-06-30T15:45:44.008Z</time>
      </trkpt>
      <trkpt lat="40.89995" lon="-4.008214">
        <ele>1180</ele>
        <time>2018-06-30T15:45:47.008Z</time>
      </trkpt>
      <trkpt lat="40.899986" lon="-4.008264">
        <ele>1179</ele>
        <time>2018-06-30T15:45:53.008Z</time>
      </trkpt>
      <trkpt lat="40.900022" lon="-4.008328">
        <ele>1178.42352675434</ele>
        <time>2018-06-30T15:46:01.008Z</time>
      </trkpt>
      <trkpt lat="40.900057" lon="-4.008397">
        <ele>1178</ele>
        <time>2018-06-30T15:46:07.008Z</time>
      </trkpt>
      <trkpt lat="40.900044" lon="-4.008475">
        <ele>1178</ele>
        <time>2018-06-30T15:46:14.008Z</time>
      </trkpt>
      <trkpt lat="40.900052" lon="-4.008564">
        <ele>1177.46545183737</ele>
        <time>2018-06-30T15:46:21.008Z</time>
      </trkpt>
      <trkpt lat="40.900086" lon="-4.008643">
        <ele>1177</ele>
        <time>2018-06-30T15:46:26.008Z</time>
      </trkpt>
      <trkpt lat="40.90013" lon="-4.008708">
        <ele>1177</ele>
        <time>2018-06-30T15:46:32.008Z</time>
      </trkpt>
      <trkpt lat="40.900155" lon="-4.008788">
        <ele>1177</ele>
        <time>2018-06-30T15:46:37.008Z</time>
      </trkpt>
      <trkpt lat="40.900175" lon="-4.008858">
        <ele>1177</ele>
        <time>2018-06-30T15:46:42.008Z</time>
      </trkpt>
      <trkpt lat="40.90017" lon="-4.008927">
        <ele>1177</ele>
        <time>2018-06-30T15:46:47.008Z</time>
      </trkpt>
      <trkpt lat="40.900152" lon="-4.008989">
        <ele>1177</ele>
        <time>2018-06-30T15:46:51.008Z</time>
      </trkpt>
      <trkpt lat="40.90014" lon="-4.009043">
        <ele>1176</ele>
        <time>2018-06-30T15:46:54.008Z</time>
      </trkpt>
      <trkpt lat="40.900126" lon="-4.009094">
        <ele>1176</ele>
        <time>2018-06-30T15:46:57.008Z</time>
      </trkpt>
      <trkpt lat="40.900117" lon="-4.009131">
        <ele>1175</ele>
        <time>2018-06-30T15:47:10.008Z</time>
      </trkpt>
      <trkpt lat="40.900111" lon="-4.009186">
        <ele>1175</ele>
        <time>2018-06-30T15:47:16.008Z</time>
      </trkpt>
      <trkpt lat="40.900095" lon="-4.009244">
        <ele>1175</ele>
        <time>2018-06-30T15:47:21.008Z</time>
      </trkpt>
      <trkpt lat="40.900064" lon="-4.009284">
        <ele>1175</ele>
        <time>2018-06-30T15:47:25.008Z</time>
      </trkpt>
      <trkpt lat="40.900033" lon="-4.009363">
        <ele>1175</ele>
        <time>2018-06-30T15:47:31.008Z</time>
      </trkpt>
      <trkpt lat="40.900008" lon="-4.009434">
        <ele>1175</ele>
        <time>2018-06-30T15:47:37.008Z</time>
      </trkpt>
      <trkpt lat="40.899967" lon="-4.009504">
        <ele>1175</ele>
        <time>2018-06-30T15:47:44.008Z</time>
      </trkpt>
      <trkpt lat="40.899921" lon="-4.009558">
        <ele>1175</ele>
        <time>2018-06-30T15:47:50.008Z</time>
      </trkpt>
      <trkpt lat="40.899897" lon="-4.009635">
        <ele>1173</ele>
        <time>2018-06-30T15:47:56.008Z</time>
      </trkpt>
      <trkpt lat="40.89986" lon="-4.009708">
        <ele>1171</ele>
        <time>2018-06-30T15:48:02.008Z</time>
      </trkpt>
      <trkpt lat="40.899831" lon="-4.009784">
        <ele>1171</ele>
        <time>2018-06-30T15:48:07.008Z</time>
      </trkpt>
      <trkpt lat="40.899818" lon="-4.009876">
        <ele>1171</ele>
        <time>2018-06-30T15:48:13.008Z</time>
      </trkpt>
      <trkpt lat="40.899792" lon="-4.009971">
        <ele>1171</ele>
        <time>2018-06-30T15:48:19.008Z</time>
      </trkpt>
      <trkpt lat="40.899768" lon="-4.010051">
        <ele>1170</ele>
        <time>2018-06-30T15:48:24.008Z</time>
      </trkpt>
      <trkpt lat="40.899755" lon="-4.010149">
        <ele>1170</ele>
        <time>2018-06-30T15:48:31.008Z</time>
      </trkpt>
      <trkpt lat="40.899773" lon="-4.010204">
        <ele>1170</ele>
        <time>2018-06-30T15:48:37.008Z</time>
      </trkpt>
      <trkpt lat="40.899802" lon="-4.010241">
        <ele>1169</ele>
        <time>2018-06-30T15:48:53.008Z</time>
      </trkpt>
      <trkpt lat="40.899827" lon="-4.010281">
        <ele>1169</ele>
        <time>2018-06-30T15:48:56.008Z</time>
      </trkpt>
      <trkpt lat="40.89984" lon="-4.010332">
        <ele>1169</ele>
        <time>2018-06-30T15:48:59.008Z</time>
      </trkpt>
      <trkpt lat="40.899837" lon="-4.01039">
        <ele>1169</ele>
        <time>2018-06-30T15:49:03.008Z</time>
      </trkpt>
      <trkpt lat="40.899823" lon="-4.010442">
        <ele>1168</ele>
        <time>2018-06-30T15:49:07.008Z</time>
      </trkpt>
      <trkpt lat="40.899827" lon="-4.010495">
        <ele>1168</ele>
        <time>2018-06-30T15:49:11.008Z</time>
      </trkpt>
      <trkpt lat="40.899811" lon="-4.010532">
        <ele>1168</ele>
        <time>2018-06-30T15:49:16.008Z</time>
      </trkpt>
      <trkpt lat="40.8998" lon="-4.010568">
        <ele>1167</ele>
        <time>2018-06-30T15:49:22.008Z</time>
      </trkpt>
      <trkpt lat="40.899782" lon="-4.010606">
        <ele>1167</ele>
        <time>2018-06-30T15:49:34.008Z</time>
      </trkpt>
      <trkpt lat="40.899755" lon="-4.010659">
        <ele>1167</ele>
        <time>2018-06-30T15:49:38.008Z</time>
      </trkpt>
      <trkpt lat="40.899725" lon="-4.010712">
        <ele>1167</ele>
        <time>2018-06-30T15:49:42.008Z</time>
      </trkpt>
      <trkpt lat="40.899703" lon="-4.01076">
        <ele>1167</ele>
        <time>2018-06-30T15:49:45.008Z</time>
      </trkpt>
      <trkpt lat="40.899673" lon="-4.01082">
        <ele>1167</ele>
        <time>2018-06-30T15:49:49.008Z</time>
      </trkpt>
      <trkpt lat="40.899647" lon="-4.010864">
        <ele>1166</ele>
        <time>2018-06-30T15:49:53.008Z</time>
      </trkpt>
      <trkpt lat="40.899631" lon="-4.010911">
        <ele>1166</ele>
        <time>2018-06-30T15:49:56.008Z</time>
      </trkpt>
      <trkpt lat="40.899615" lon="-4.010957">
        <ele>1166</ele>
        <time>2018-06-30T15:49:59.008Z</time>
      </trkpt>
      <trkpt lat="40.8996" lon="-4.011002">
        <ele>1165</ele>
        <time>2018-06-30T15:50:02.008Z</time>
      </trkpt>
      <trkpt lat="40.899582" lon="-4.011039">
        <ele>1165</ele>
        <time>2018-06-30T15:50:05.008Z</time>
      </trkpt>
      <trkpt lat="40.899563" lon="-4.011085">
        <ele>1165</ele>
        <time>2018-06-30T15:50:09.008Z</time>
      </trkpt>
      <trkpt lat="40.89954" lon="-4.011138">
        <ele>1165</ele>
        <time>2018-06-30T15:50:13.008Z</time>
      </trkpt>
      <trkpt lat="40.899518" lon="-4.011183">
        <ele>1165</ele>
        <time>2018-06-30T15:50:17.008Z</time>
      </trkpt>
      <trkpt lat="40.899506" lon="-4.011257">
        <ele>1165</ele>
        <time>2018-06-30T15:50:22.008Z</time>
      </trkpt>
      <trkpt lat="40.899486" lon="-4.011311">
        <ele>1165</ele>
        <time>2018-06-30T15:50:26.008Z</time>
      </trkpt>
      <trkpt lat="40.899471" lon="-4.011353">
        <ele>1165</ele>
        <time>2018-06-30T15:50:29.008Z</time>
      </trkpt>
      <trkpt lat="40.899458" lon="-4.011402">
        <ele>1164</ele>
        <time>2018-06-30T15:50:32.008Z</time>
      </trkpt>
      <trkpt lat="40.899447" lon="-4.011449">
        <ele>1164</ele>
        <time>2018-06-30T15:50:35.008Z</time>
      </trkpt>
      <trkpt lat="40.899428" lon="-4.011494">
        <ele>1164</ele>
        <time>2018-06-30T15:50:38.008Z</time>
      </trkpt>
      <trkpt lat="40.899402" lon="-4.011527">
        <ele>1164</ele>
        <time>2018-06-30T15:50:41.008Z</time>
      </trkpt>
      <trkpt lat="40.899375" lon="-4.011566">
        <ele>1164</ele>
        <time>2018-06-30T15:50:44.008Z</time>
      </trkpt>
      <trkpt lat="40.899351" lon="-4.0116">
        <ele>1164</ele>
        <time>2018-06-30T15:50:47.008Z</time>
      </trkpt>
      <trkpt lat="40.899325" lon="-4.011632">
        <ele>1164</ele>
        <time>2018-06-30T15:50:50.008Z</time>
      </trkpt>
      <trkpt lat="40.899302" lon="-4.011661">
        <ele>1164</ele>
        <time>2018-06-30T15:50:53.008Z</time>
      </trkpt>
      <trkpt lat="40.899276" lon="-4.011686">
        <ele>1164</ele>
        <time>2018-06-30T15:50:56.008Z</time>
      </trkpt>
      <trkpt lat="40.899252" lon="-4.011718">
        <ele>1164</ele>
        <time>2018-06-30T15:50:59.008Z</time>
      </trkpt>
      <trkpt lat="40.899229" lon="-4.011752">
        <ele>1164</ele>
        <time>2018-06-30T15:51:02.008Z</time>
      </trkpt>
      <trkpt lat="40.899208" lon="-4.011795">
        <ele>1164</ele>
        <time>2018-06-30T15:51:05.008Z</time>
      </trkpt>
      <trkpt lat="40.899185" lon="-4.011833">
        <ele>1164</ele>
        <time>2018-06-30T15:51:08.008Z</time>
      </trkpt>
      <trkpt lat="40.899152" lon="-4.011869">
        <ele>1163.41782097913</ele>
        <time>2018-06-30T15:51:11.008Z</time>
      </trkpt>
      <trkpt lat="40.899117" lon="-4.011904">
        <ele>1163</ele>
        <time>2018-06-30T15:51:15.008Z</time>
      </trkpt>
      <trkpt lat="40.899094" lon="-4.01194">
        <ele>1163</ele>
        <time>2018-06-30T15:51:18.008Z</time>
      </trkpt>
      <trkpt lat="40.899065" lon="-4.011975">
        <ele>1163</ele>
        <time>2018-06-30T15:51:21.008Z</time>
      </trkpt>
      <trkpt lat="40.899033" lon="-4.012007">
        <ele>1163</ele>
        <time>2018-06-30T15:51:24.008Z</time>
      </trkpt>
      <trkpt lat="40.899004" lon="-4.012044">
        <ele>1163</ele>
        <time>2018-06-30T15:51:27.008Z</time>
      </trkpt>
      <trkpt lat="40.898965" lon="-4.012086">
        <ele>1163</ele>
        <time>2018-06-30T15:51:31.008Z</time>
      </trkpt>
      <trkpt lat="40.89893" lon="-4.012121">
        <ele>1163</ele>
        <time>2018-06-30T15:51:34.008Z</time>
      </trkpt>
      <trkpt lat="40.898897" lon="-4.012143">
        <ele>1163</ele>
        <time>2018-06-30T15:51:37.008Z</time>
      </trkpt>
      <trkpt lat="40.898861" lon="-4.012165">
        <ele>1163</ele>
        <time>2018-06-30T15:51:40.008Z</time>
      </trkpt>
      <trkpt lat="40.898822" lon="-4.012179">
        <ele>1164</ele>
        <time>2018-06-30T15:51:44.008Z</time>
      </trkpt>
      <trkpt lat="40.89878" lon="-4.012199">
        <ele>1164</ele>
        <time>2018-06-30T15:51:48.008Z</time>
      </trkpt>
      <trkpt lat="40.898736" lon="-4.012208">
        <ele>1164</ele>
        <time>2018-06-30T15:51:52.008Z</time>
      </trkpt>
      <trkpt lat="40.898694" lon="-4.012215">
        <ele>1164</ele>
        <time>2018-06-30T15:51:56.008Z</time>
      </trkpt>
      <trkpt lat="40.898648" lon="-4.012221">
        <ele>1164</ele>
        <time>2018-06-30T15:52:00.008Z</time>
      </trkpt>
      <trkpt lat="40.89859" lon="-4.012232">
        <ele>1164</ele>
        <time>2018-06-30T15:52:06.008Z</time>
      </trkpt>
      <trkpt lat="40.89853" lon="-4.012248">
        <ele>1164</ele>
        <time>2018-06-30T15:52:11.008Z</time>
      </trkpt>
      <trkpt lat="40.898484" lon="-4.012265">
        <ele>1164</ele>
        <time>2018-06-30T15:52:15.008Z</time>
      </trkpt>
      <trkpt lat="40.898436" lon="-4.012285">
        <ele>1164</ele>
        <time>2018-06-30T15:52:19.008Z</time>
      </trkpt>
      <trkpt lat="40.898382" lon="-4.012307">
        <ele>1164</ele>
        <time>2018-06-30T15:52:23.008Z</time>
      </trkpt>
      <trkpt lat="40.898328" lon="-4.012325">
        <ele>1164</ele>
        <time>2018-06-30T15:52:27.008Z</time>
      </trkpt>
      <trkpt lat="40.898284" lon="-4.012335">
        <ele>1164.57647324566</ele>
        <time>2018-06-30T15:52:31.008Z</time>
      </trkpt>
      <trkpt lat="40.89825" lon="-4.012341">
        <ele>1165</ele>
        <time>2018-06-30T15:52:34.008Z</time>
      </trkpt>
      <trkpt lat="40.898208" lon="-4.012341">
        <ele>1165</ele>
        <time>2018-06-30T15:52:38.008Z</time>
      </trkpt>
      <trkpt lat="40.898134" lon="-4.012347">
        <ele>1165</ele>
        <time>2018-06-30T15:52:45.008Z</time>
      </trkpt>
      <trkpt lat="40.89807" lon="-4.012357">
        <ele>1165</ele>
        <time>2018-06-30T15:52:50.008Z</time>
      </trkpt>
      <trkpt lat="40.898012" lon="-4.012361">
        <ele>1166</ele>
        <time>2018-06-30T15:52:56.008Z</time>
      </trkpt>
      <trkpt lat="40.897957" lon="-4.012372">
        <ele>1166</ele>
        <time>2018-06-30T15:53:00.008Z</time>
      </trkpt>
      <trkpt lat="40.897905" lon="-4.012374">
        <ele>1166</ele>
        <time>2018-06-30T15:53:04.008Z</time>
      </trkpt>
      <trkpt lat="40.897852" lon="-4.012378">
        <ele>1166</ele>
        <time>2018-06-30T15:53:08.008Z</time>
      </trkpt>
      <trkpt lat="40.897799" lon="-4.012384">
        <ele>1166</ele>
        <time>2018-06-30T15:53:12.008Z</time>
      </trkpt>
      <trkpt lat="40.897756" lon="-4.012395">
        <ele>1166</ele>
        <time>2018-06-30T15:53:16.008Z</time>
      </trkpt>
      <trkpt lat="40.897702" lon="-4.012397">
        <ele>1166</ele>
        <time>2018-06-30T15:53:21.008Z</time>
      </trkpt>
      <trkpt lat="40.897647" lon="-4.012396">
        <ele>1166</ele>
        <time>2018-06-30T15:53:26.008Z</time>
      </trkpt>
      <trkpt lat="40.897593" lon="-4.01239">
        <ele>1166</ele>
        <time>2018-06-30T15:53:31.008Z</time>
      </trkpt>
      <trkpt lat="40.897544" lon="-4.012383">
        <ele>1166</ele>
        <time>2018-06-30T15:53:35.008Z</time>
      </trkpt>
      <trkpt lat="40.897494" lon="-4.012382">
        <ele>1166</ele>
        <time>2018-06-30T15:53:39.008Z</time>
      </trkpt>
      <trkpt lat="40.897433" lon="-4.012377">
        <ele>1167</ele>
        <time>2018-06-30T15:53:44.008Z</time>
      </trkpt>
      <trkpt lat="40.897382" lon="-4.012374">
        <ele>1167</ele>
        <time>2018-06-30T15:53:49.008Z</time>
      </trkpt>
      <trkpt lat="40.897336" lon="-4.012373">
        <ele>1167</ele>
        <time>2018-06-30T15:53:53.008Z</time>
      </trkpt>
      <trkpt lat="40.897286" lon="-4.012382">
        <ele>1167</ele>
        <time>2018-06-30T15:53:58.008Z</time>
      </trkpt>
      <trkpt lat="40.897227" lon="-4.012381">
        <ele>1167</ele>
        <time>2018-06-30T15:54:03.008Z</time>
      </trkpt>
      <trkpt lat="40.897168" lon="-4.01238">
        <ele>1167</ele>
        <time>2018-06-30T15:54:08.008Z</time>
      </trkpt>
      <trkpt lat="40.897119" lon="-4.012391">
        <ele>1167</ele>
        <time>2018-06-30T15:54:11.008Z</time>
      </trkpt>
      <trkpt lat="40.89707" lon="-4.012425">
        <ele>1167</ele>
        <time>2018-06-30T15:54:16.008Z</time>
      </trkpt>
      <trkpt lat="40.897014" lon="-4.012459">
        <ele>1167</ele>
        <time>2018-06-30T15:54:24.008Z</time>
      </trkpt>
      <trkpt lat="40.896963" lon="-4.012495">
        <ele>1167</ele>
        <time>2018-06-30T15:54:29.008Z</time>
      </trkpt>
      <trkpt lat="40.896899" lon="-4.012525">
        <ele>1166</ele>
        <time>2018-06-30T15:54:35.008Z</time>
      </trkpt>
      <trkpt lat="40.896848" lon="-4.012558">
        <ele>1166</ele>
        <time>2018-06-30T15:54:39.008Z</time>
      </trkpt>
      <trkpt lat="40.896806" lon="-4.012601">
        <ele>1164</ele>
        <time>2018-06-30T15:54:44.008Z</time>
      </trkpt>
      <trkpt lat="40.896756" lon="-4.012635">
        <ele>1164</ele>
        <time>2018-06-30T15:54:49.008Z</time>
      </trkpt>
      <trkpt lat="40.896715" lon="-4.012682">
        <ele>1163</ele>
        <time>2018-06-30T15:54:55.008Z</time>
      </trkpt>
      <trkpt lat="40.896676" lon="-4.012736">
        <ele>1162.42352675434</ele>
        <time>2018-06-30T15:55:01.008Z</time>
      </trkpt>
      <trkpt lat="40.896658" lon="-4.01281">
        <ele>1162</ele>
        <time>2018-06-30T15:55:11.008Z</time>
      </trkpt>
      <trkpt lat="40.8966" lon="-4.01287">
        <ele>1162</ele>
        <time>2018-06-30T15:55:49.008Z</time>
      </trkpt>
      <trkpt lat="40.89656" lon="-4.012942">
        <ele>1161.57647324566</ele>
        <time>2018-06-30T15:55:55.008Z</time>
      </trkpt>
      <trkpt lat="40.896563" lon="-4.013031">
        <ele>1162</ele>
        <time>2018-06-30T15:56:00.008Z</time>
      </trkpt>
      <trkpt lat="40.896577" lon="-4.013119">
        <ele>1159</ele>
        <time>2018-06-30T15:56:05.008Z</time>
      </trkpt>
      <trkpt lat="40.896606" lon="-4.013202">
        <ele>1159</ele>
        <time>2018-06-30T15:56:11.008Z</time>
      </trkpt>
      <trkpt lat="40.896668" lon="-4.01325">
        <ele>1159</ele>
        <time>2018-06-30T15:56:16.008Z</time>
      </trkpt>
      <trkpt lat="40.89671" lon="-4.013327">
        <ele>1159</ele>
        <time>2018-06-30T15:56:19.008Z</time>
      </trkpt>
      <trkpt lat="40.896762" lon="-4.013367">
        <ele>1157</ele>
        <time>2018-06-30T15:56:23.008Z</time>
      </trkpt>
      <trkpt lat="40.896814" lon="-4.01339">
        <ele>1157</ele>
        <time>2018-06-30T15:56:28.008Z</time>
      </trkpt>
      <trkpt lat="40.896856" lon="-4.013443">
        <ele>1156</ele>
        <time>2018-06-30T15:56:33.008Z</time>
      </trkpt>
      <trkpt lat="40.89689" lon="-4.013468">
        <ele>1156</ele>
        <time>2018-06-30T15:56:36.008Z</time>
      </trkpt>
      <trkpt lat="40.896937" lon="-4.013512">
        <ele>1155.41782097913</ele>
        <time>2018-06-30T15:56:41.008Z</time>
      </trkpt>
      <trkpt lat="40.896972" lon="-4.013567">
        <ele>1155</ele>
        <time>2018-06-30T15:56:45.008Z</time>
      </trkpt>
      <trkpt lat="40.897006" lon="-4.013632">
        <ele>1155</ele>
        <time>2018-06-30T15:56:50.008Z</time>
      </trkpt>
      <trkpt lat="40.89706" lon="-4.01368">
        <ele>1155</ele>
        <time>2018-06-30T15:56:56.008Z</time>
      </trkpt>
      <trkpt lat="40.897109" lon="-4.013731">
        <ele>1155</ele>
        <time>2018-06-30T15:57:01.008Z</time>
      </trkpt>
      <trkpt lat="40.897161" lon="-4.013778">
        <ele>1155</ele>
        <time>2018-06-30T15:57:06.008Z</time>
      </trkpt>
      <trkpt lat="40.897203" lon="-4.013838">
        <ele>1155</ele>
        <time>2018-06-30T15:57:10.008Z</time>
      </trkpt>
      <trkpt lat="40.897246" lon="-4.013891">
        <ele>1154</ele>
        <time>2018-06-30T15:57:15.008Z</time>
      </trkpt>
      <trkpt lat="40.897282" lon="-4.013948">
        <ele>1154</ele>
        <time>2018-06-30T15:57:19.008Z</time>
      </trkpt>
      <trkpt lat="40.897344" lon="-4.013982">
        <ele>1153</ele>
        <time>2018-06-30T15:57:25.008Z</time>
      </trkpt>
      <trkpt lat="40.897395" lon="-4.014022">
        <ele>1152.42352675434</ele>
        <time>2018-06-30T15:57:31.008Z</time>
      </trkpt>
      <trkpt lat="40.897451" lon="-4.014058">
        <ele>1152</ele>
        <time>2018-06-30T15:57:36.008Z</time>
      </trkpt>
      <trkpt lat="40.897511" lon="-4.014094">
        <ele>1152.57647324566</ele>
        <time>2018-06-30T15:57:41.008Z</time>
      </trkpt>
      <trkpt lat="40.897563" lon="-4.014127">
        <ele>1153</ele>
        <time>2018-06-30T15:57:45.008Z</time>
      </trkpt>
      <trkpt lat="40.897607" lon="-4.014176">
        <ele>1153</ele>
        <time>2018-06-30T15:57:49.008Z</time>
      </trkpt>
      <trkpt lat="40.897651" lon="-4.014232">
        <ele>1152</ele>
        <time>2018-06-30T15:57:54.008Z</time>
      </trkpt>
      <trkpt lat="40.897695" lon="-4.014297">
        <ele>1152</ele>
        <time>2018-06-30T15:57:59.008Z</time>
      </trkpt>
      <trkpt lat="40.897742" lon="-4.01435">
        <ele>1151</ele>
        <time>2018-06-30T15:58:04.008Z</time>
      </trkpt>
      <trkpt lat="40.897783" lon="-4.014407">
        <ele>1151</ele>
        <time>2018-06-30T15:58:09.008Z</time>
      </trkpt>
      <trkpt lat="40.897842" lon="-4.014453">
        <ele>1151</ele>
        <time>2018-06-30T15:58:14.008Z</time>
      </trkpt>
      <trkpt lat="40.897898" lon="-4.014496">
        <ele>1151</ele>
        <time>2018-06-30T15:58:19.008Z</time>
      </trkpt>
      <trkpt lat="40.897928" lon="-4.014542">
        <ele>1151</ele>
        <time>2018-06-30T15:58:22.008Z</time>
      </trkpt>
      <trkpt lat="40.897977" lon="-4.014602">
        <ele>1151</ele>
        <time>2018-06-30T15:58:26.008Z</time>
      </trkpt>
      <trkpt lat="40.898019" lon="-4.014652">
        <ele>1151</ele>
        <time>2018-06-30T15:58:30.008Z</time>
      </trkpt>
      <trkpt lat="40.898059" lon="-4.014702">
        <ele>1150</ele>
        <time>2018-06-30T15:58:34.008Z</time>
      </trkpt>
      <trkpt lat="40.898116" lon="-4.014754">
        <ele>1150</ele>
        <time>2018-06-30T15:58:39.008Z</time>
      </trkpt>
      <trkpt lat="40.898156" lon="-4.014788">
        <ele>1150</ele>
        <time>2018-06-30T15:58:42.008Z</time>
      </trkpt>
      <trkpt lat="40.898191" lon="-4.014819">
        <ele>1150</ele>
        <time>2018-06-30T15:58:45.008Z</time>
      </trkpt>
      <trkpt lat="40.898214" lon="-4.014841">
        <ele>1150</ele>
        <time>2018-06-30T15:58:47.008Z</time>
      </trkpt>
      <trkpt lat="40.898249" lon="-4.01489">
        <ele>1150</ele>
        <time>2018-06-30T15:58:51.008Z</time>
      </trkpt>
      <trkpt lat="40.898286" lon="-4.014944">
        <ele>1150</ele>
        <time>2018-06-30T15:58:55.008Z</time>
      </trkpt>
      <trkpt lat="40.898317" lon="-4.014985">
        <ele>1150</ele>
        <time>2018-06-30T15:58:58.008Z</time>
      </trkpt>
      <trkpt lat="40.898359" lon="-4.015014">
        <ele>1150</ele>
        <time>2018-06-30T15:59:03.008Z</time>
      </trkpt>
      <trkpt lat="40.898389" lon="-4.015064">
        <ele>1150</ele>
        <time>2018-06-30T15:59:07.008Z</time>
      </trkpt>
      <trkpt lat="40.898433" lon="-4.015109">
        <ele>1150</ele>
        <time>2018-06-30T15:59:11.008Z</time>
      </trkpt>
      <trkpt lat="40.898473" lon="-4.015151">
        <ele>1150</ele>
        <time>2018-06-30T15:59:15.008Z</time>
      </trkpt>
      <trkpt lat="40.898509" lon="-4.015189">
        <ele>1150</ele>
        <time>2018-06-30T15:59:19.008Z</time>
      </trkpt>
      <trkpt lat="40.89855" lon="-4.015236">
        <ele>1147</ele>
        <time>2018-06-30T15:59:25.008Z</time>
      </trkpt>
      <trkpt lat="40.898585" lon="-4.015293">
        <ele>1147</ele>
        <time>2018-06-30T15:59:29.008Z</time>
      </trkpt>
      <trkpt lat="40.898643" lon="-4.015329">
        <ele>1147</ele>
        <time>2018-06-30T15:59:35.008Z</time>
      </trkpt>
      <trkpt lat="40.898705" lon="-4.015379">
        <ele>1146.42352675434</ele>
        <time>2018-06-30T15:59:41.008Z</time>
      </trkpt>
      <trkpt lat="40.89875" lon="-4.015421">
        <ele>1146</ele>
        <time>2018-06-30T15:59:46.008Z</time>
      </trkpt>
      <trkpt lat="40.898799" lon="-4.015479">
        <ele>1145</ele>
        <time>2018-06-30T15:59:52.008Z</time>
      </trkpt>
      <trkpt lat="40.898836" lon="-4.015543">
        <ele>1145</ele>
        <time>2018-06-30T15:59:56.008Z</time>
      </trkpt>
      <trkpt lat="40.898883" lon="-4.015576">
        <ele>1145</ele>
        <time>2018-06-30T16:00:00.008Z</time>
      </trkpt>
      <trkpt lat="40.898925" lon="-4.015606">
        <ele>1146</ele>
        <time>2018-06-30T16:00:03.008Z</time>
      </trkpt>
      <trkpt lat="40.89897" lon="-4.015657">
        <ele>1146</ele>
        <time>2018-06-30T16:00:08.008Z</time>
      </trkpt>
      <trkpt lat="40.899018" lon="-4.01571">
        <ele>1146</ele>
        <time>2018-06-30T16:00:14.008Z</time>
      </trkpt>
      <trkpt lat="40.899053" lon="-4.015766">
        <ele>1146</ele>
        <time>2018-06-30T16:00:18.008Z</time>
      </trkpt>
      <trkpt lat="40.89909" lon="-4.015814">
        <ele>1146</ele>
        <time>2018-06-30T16:00:22.008Z</time>
      </trkpt>
      <trkpt lat="40.899138" lon="-4.015846">
        <ele>1146</ele>
        <time>2018-06-30T16:00:27.008Z</time>
      </trkpt>
      <trkpt lat="40.899187" lon="-4.015894">
        <ele>1146</ele>
        <time>2018-06-30T16:00:32.008Z</time>
      </trkpt>
      <trkpt lat="40.899244" lon="-4.015936">
        <ele>1146</ele>
        <time>2018-06-30T16:00:37.008Z</time>
      </trkpt>
      <trkpt lat="40.89929" lon="-4.015987">
        <ele>1146</ele>
        <time>2018-06-30T16:00:43.008Z</time>
      </trkpt>
      <trkpt lat="40.899346" lon="-4.016048">
        <ele>1146</ele>
        <time>2018-06-30T16:00:49.008Z</time>
      </trkpt>
      <trkpt lat="40.899398" lon="-4.016092">
        <ele>1145</ele>
        <time>2018-06-30T16:00:52.008Z</time>
      </trkpt>
      <trkpt lat="40.899442" lon="-4.016134">
        <ele>1145</ele>
        <time>2018-06-30T16:00:55.008Z</time>
      </trkpt>
      <trkpt lat="40.899483" lon="-4.016183">
        <ele>1145</ele>
        <time>2018-06-30T16:00:59.008Z</time>
      </trkpt>
      <trkpt lat="40.899529" lon="-4.016233">
        <ele>1142</ele>
        <time>2018-06-30T16:01:05.008Z</time>
      </trkpt>
      <trkpt lat="40.899569" lon="-4.01629">
        <ele>1142</ele>
        <time>2018-06-30T16:01:09.008Z</time>
      </trkpt>
      <trkpt lat="40.899613" lon="-4.016338">
        <ele>1142</ele>
        <time>2018-06-30T16:01:13.008Z</time>
      </trkpt>
      <trkpt lat="40.899666" lon="-4.016374">
        <ele>1142</ele>
        <time>2018-06-30T16:01:17.008Z</time>
      </trkpt>
      <trkpt lat="40.899708" lon="-4.016394">
        <ele>1142</ele>
        <time>2018-06-30T16:01:20.008Z</time>
      </trkpt>
      <trkpt lat="40.899748" lon="-4.016415">
        <ele>1142</ele>
        <time>2018-06-30T16:01:23.008Z</time>
      </trkpt>
      <trkpt lat="40.899797" lon="-4.01644">
        <ele>1142</ele>
        <time>2018-06-30T16:01:27.008Z</time>
      </trkpt>
      <trkpt lat="40.899846" lon="-4.016473">
        <ele>1142</ele>
        <time>2018-06-30T16:01:32.008Z</time>
      </trkpt>
      <trkpt lat="40.899901" lon="-4.01649">
        <ele>1142</ele>
        <time>2018-06-30T16:01:36.008Z</time>
      </trkpt>
      <trkpt lat="40.899951" lon="-4.016507">
        <ele>1142</ele>
        <time>2018-06-30T16:01:40.008Z</time>
      </trkpt>
      <trkpt lat="40.899994" lon="-4.016543">
        <ele>1142</ele>
        <time>2018-06-30T16:01:44.008Z</time>
      </trkpt>
      <trkpt lat="40.900035" lon="-4.016575">
        <ele>1142</ele>
        <time>2018-06-30T16:01:48.008Z</time>
      </trkpt>
      <trkpt lat="40.900081" lon="-4.016587">
        <ele>1141</ele>
        <time>2018-06-30T16:01:52.008Z</time>
      </trkpt>
      <trkpt lat="40.900056" lon="-4.016659">
        <ele>1140</ele>
        <time>2018-06-30T16:02:03.008Z</time>
      </trkpt>
      <trkpt lat="40.90001" lon="-4.016717">
        <ele>1140</ele>
        <time>2018-06-30T16:02:10.008Z</time>
      </trkpt>
      <trkpt lat="40.899974" lon="-4.016753">
        <ele>1140</ele>
        <time>2018-06-30T16:02:14.008Z</time>
      </trkpt>
      <trkpt lat="40.899943" lon="-4.016792">
        <ele>1140</ele>
        <time>2018-06-30T16:02:18.008Z</time>
      </trkpt>
      <trkpt lat="40.899914" lon="-4.016865">
        <ele>1139</ele>
        <time>2018-06-30T16:02:23.008Z</time>
      </trkpt>
      <trkpt lat="40.899891" lon="-4.016917">
        <ele>1139</ele>
        <time>2018-06-30T16:02:27.008Z</time>
      </trkpt>
      <trkpt lat="40.899858" lon="-4.016988">
        <ele>1138</ele>
        <time>2018-06-30T16:02:32.008Z</time>
      </trkpt>
      <trkpt lat="40.899822" lon="-4.017034">
        <ele>1138</ele>
        <time>2018-06-30T16:02:36.008Z</time>
      </trkpt>
      <trkpt lat="40.899796" lon="-4.017076">
        <ele>1138</ele>
        <time>2018-06-30T16:02:39.008Z</time>
      </trkpt>
      <trkpt lat="40.89977" lon="-4.017113">
        <ele>1138</ele>
        <time>2018-06-30T16:02:42.008Z</time>
      </trkpt>
      <trkpt lat="40.89974" lon="-4.017163">
        <ele>1138</ele>
        <time>2018-06-30T16:02:46.008Z</time>
      </trkpt>
      <trkpt lat="40.899712" lon="-4.017216">
        <ele>1138</ele>
        <time>2018-06-30T16:02:50.008Z</time>
      </trkpt>
      <trkpt lat="40.89969" lon="-4.017265">
        <ele>1138</ele>
        <time>2018-06-30T16:02:53.008Z</time>
      </trkpt>
      <trkpt lat="40.899665" lon="-4.017308">
        <ele>1138</ele>
        <time>2018-06-30T16:02:56.008Z</time>
      </trkpt>
      <trkpt lat="40.89963" lon="-4.017361">
        <ele>1138</ele>
        <time>2018-06-30T16:03:00.008Z</time>
      </trkpt>
      <trkpt lat="40.899593" lon="-4.017407">
        <ele>1138.45777392195</ele>
        <time>2018-06-30T16:03:04.008Z</time>
      </trkpt>
      <trkpt lat="40.899562" lon="-4.017426">
        <ele>1138</ele>
        <time>2018-06-30T16:03:07.008Z</time>
      </trkpt>
      <trkpt lat="40.89953" lon="-4.01744">
        <ele>1138</ele>
        <time>2018-06-30T16:03:10.008Z</time>
      </trkpt>
      <trkpt lat="40.899491" lon="-4.017453">
        <ele>1138</ele>
        <time>2018-06-30T16:03:14.008Z</time>
      </trkpt>
      <trkpt lat="40.899443" lon="-4.017469">
        <ele>1138</ele>
        <time>2018-06-30T16:03:19.008Z</time>
      </trkpt>
      <trkpt lat="40.899401" lon="-4.01748">
        <ele>1139</ele>
        <time>2018-06-30T16:03:23.008Z</time>
      </trkpt>
      <trkpt lat="40.899359" lon="-4.017505">
        <ele>1139</ele>
        <time>2018-06-30T16:03:27.008Z</time>
      </trkpt>
      <trkpt lat="40.899315" lon="-4.017527">
        <ele>1139.57647324566</ele>
        <time>2018-06-30T16:03:31.008Z</time>
      </trkpt>
      <trkpt lat="40.899259" lon="-4.017545">
        <ele>1140</ele>
        <time>2018-06-30T16:03:37.008Z</time>
      </trkpt>
      <trkpt lat="40.899196" lon="-4.01759">
        <ele>1140</ele>
        <time>2018-06-30T16:03:46.008Z</time>
      </trkpt>
      <trkpt lat="40.899144" lon="-4.017628">
        <ele>1140</ele>
        <time>2018-06-30T16:03:52.008Z</time>
      </trkpt>
      <trkpt lat="40.899089" lon="-4.017665">
        <ele>1140</ele>
        <time>2018-06-30T16:03:58.008Z</time>
      </trkpt>
      <trkpt lat="40.899041" lon="-4.017668">
        <ele>1140</ele>
        <time>2018-06-30T16:04:08.008Z</time>
      </trkpt>
      <trkpt lat="40.899" lon="-4.017691">
        <ele>1140</ele>
        <time>2018-06-30T16:04:14.008Z</time>
      </trkpt>
      <trkpt lat="40.898955" lon="-4.017717">
        <ele>1140</ele>
        <time>2018-06-30T16:04:18.008Z</time>
      </trkpt>
      <trkpt lat="40.898921" lon="-4.017731">
        <ele>1140.53454816263</ele>
        <time>2018-06-30T16:04:21.008Z</time>
      </trkpt>
      <trkpt lat="40.898879" lon="-4.017748">
        <ele>1140.45777392195</ele>
        <time>2018-06-30T16:04:28.008Z</time>
      </trkpt>
      <trkpt lat="40.898839" lon="-4.017768">
        <ele>1140</ele>
        <time>2018-06-30T16:04:32.008Z</time>
      </trkpt>
      <trkpt lat="40.898798" lon="-4.017781">
        <ele>1140</ele>
        <time>2018-06-30T16:04:36.008Z</time>
      </trkpt>
      <trkpt lat="40.898747" lon="-4.017803">
        <ele>1140</ele>
        <time>2018-06-30T16:04:41.008Z</time>
      </trkpt>
      <trkpt lat="40.898708" lon="-4.017819">
        <ele>1140</ele>
        <time>2018-06-30T16:04:45.008Z</time>
      </trkpt>
      <trkpt lat="40.898667" lon="-4.017833">
        <ele>1140</ele>
        <time>2018-06-30T16:04:49.008Z</time>
      </trkpt>
      <trkpt lat="40.898632" lon="-4.017845">
        <ele>1140</ele>
        <time>2018-06-30T16:04:52.008Z</time>
      </trkpt>
      <trkpt lat="40.898577" lon="-4.017865">
        <ele>1140</ele>
        <time>2018-06-30T16:04:57.008Z</time>
      </trkpt>
      <trkpt lat="40.898537" lon="-4.017887">
        <ele>1139.42352675434</ele>
        <time>2018-06-30T16:05:01.008Z</time>
      </trkpt>
      <trkpt lat="40.898488" lon="-4.017919">
        <ele>1139</ele>
        <time>2018-06-30T16:05:06.008Z</time>
      </trkpt>
      <trkpt lat="40.898439" lon="-4.01796">
        <ele>1139</ele>
        <time>2018-06-30T16:05:11.008Z</time>
      </trkpt>
      <trkpt lat="40.8984" lon="-4.017992">
        <ele>1139</ele>
        <time>2018-06-30T16:05:15.008Z</time>
      </trkpt>
      <trkpt lat="40.898356" lon="-4.018015">
        <ele>1139</ele>
        <time>2018-06-30T16:05:19.008Z</time>
      </trkpt>
      <trkpt lat="40.898311" lon="-4.018046">
        <ele>1139</ele>
        <time>2018-06-30T16:05:23.008Z</time>
      </trkpt>
      <trkpt lat="40.89827" lon="-4.018082">
        <ele>1139</ele>
        <time>2018-06-30T16:05:27.008Z</time>
      </trkpt>
      <trkpt lat="40.89823" lon="-4.018114">
        <ele>1139</ele>
        <time>2018-06-30T16:05:31.008Z</time>
      </trkpt>
      <trkpt lat="40.898188" lon="-4.018146">
        <ele>1139</ele>
        <time>2018-06-30T16:05:35.008Z</time>
      </trkpt>
      <trkpt lat="40.898147" lon="-4.018178">
        <ele>1139</ele>
        <time>2018-06-30T16:05:39.008Z</time>
      </trkpt>
      <trkpt lat="40.898115" lon="-4.018202">
        <ele>1139</ele>
        <time>2018-06-30T16:05:42.008Z</time>
      </trkpt>
      <trkpt lat="40.898074" lon="-4.018232">
        <ele>1139</ele>
        <time>2018-06-30T16:05:46.008Z</time>
      </trkpt>
      <trkpt lat="40.898033" lon="-4.018257">
        <ele>1139</ele>
        <time>2018-06-30T16:05:50.008Z</time>
      </trkpt>
      <trkpt lat="40.897992" lon="-4.018276">
        <ele>1139</ele>
        <time>2018-06-30T16:05:54.008Z</time>
      </trkpt>
      <trkpt lat="40.897943" lon="-4.0183">
        <ele>1139</ele>
        <time>2018-06-30T16:05:59.008Z</time>
      </trkpt>
      <trkpt lat="40.897891" lon="-4.018324">
        <ele>1138</ele>
        <time>2018-06-30T16:06:04.008Z</time>
      </trkpt>
      <trkpt lat="40.897826" lon="-4.018352">
        <ele>1138</ele>
        <time>2018-06-30T16:06:10.008Z</time>
      </trkpt>
      <trkpt lat="40.897775" lon="-4.01838">
        <ele>1138</ele>
        <time>2018-06-30T16:06:15.008Z</time>
      </trkpt>
      <trkpt lat="40.897731" lon="-4.018399">
        <ele>1138</ele>
        <time>2018-06-30T16:06:19.008Z</time>
      </trkpt>
      <trkpt lat="40.897685" lon="-4.018426">
        <ele>1137</ele>
        <time>2018-06-30T16:06:23.008Z</time>
      </trkpt>
      <trkpt lat="40.897634" lon="-4.018457">
        <ele>1137</ele>
        <time>2018-06-30T16:06:27.008Z</time>
      </trkpt>
      <trkpt lat="40.897596" lon="-4.018499">
        <ele>1137</ele>
        <time>2018-06-30T16:06:31.008Z</time>
      </trkpt>
      <trkpt lat="40.89756" lon="-4.018544">
        <ele>1137</ele>
        <time>2018-06-30T16:06:35.008Z</time>
      </trkpt>
      <trkpt lat="40.897517" lon="-4.0186">
        <ele>1137</ele>
        <time>2018-06-30T16:06:40.008Z</time>
      </trkpt>
      <trkpt lat="40.897475" lon="-4.01864">
        <ele>1137</ele>
        <time>2018-06-30T16:06:44.008Z</time>
      </trkpt>
      <trkpt lat="40.897431" lon="-4.018692">
        <ele>1137</ele>
        <time>2018-06-30T16:06:49.008Z</time>
      </trkpt>
      <trkpt lat="40.897392" lon="-4.01873">
        <ele>1137</ele>
        <time>2018-06-30T16:06:53.008Z</time>
      </trkpt>
      <trkpt lat="40.897353" lon="-4.018767">
        <ele>1137</ele>
        <time>2018-06-30T16:06:57.008Z</time>
      </trkpt>
      <trkpt lat="40.897315" lon="-4.018811">
        <ele>1136.42352675434</ele>
        <time>2018-06-30T16:07:01.008Z</time>
      </trkpt>
      <trkpt lat="40.897272" lon="-4.018844">
        <ele>1136</ele>
        <time>2018-06-30T16:07:05.008Z</time>
      </trkpt>
      <trkpt lat="40.897234" lon="-4.018877">
        <ele>1136</ele>
        <time>2018-06-30T16:07:09.008Z</time>
      </trkpt>
      <trkpt lat="40.897204" lon="-4.018928">
        <ele>1136</ele>
        <time>2018-06-30T16:07:13.008Z</time>
      </trkpt>
      <trkpt lat="40.897182" lon="-4.018981">
        <ele>1136</ele>
        <time>2018-06-30T16:07:17.008Z</time>
      </trkpt>
      <trkpt lat="40.897155" lon="-4.019046">
        <ele>1135</ele>
        <time>2018-06-30T16:07:22.008Z</time>
      </trkpt>
      <trkpt lat="40.897131" lon="-4.019104">
        <ele>1135</ele>
        <time>2018-06-30T16:07:26.008Z</time>
      </trkpt>
      <trkpt lat="40.897108" lon="-4.019157">
        <ele>1135</ele>
        <time>2018-06-30T16:07:30.008Z</time>
      </trkpt>
      <trkpt lat="40.897085" lon="-4.019212">
        <ele>1135</ele>
        <time>2018-06-30T16:07:34.008Z</time>
      </trkpt>
      <trkpt lat="40.897061" lon="-4.019266">
        <ele>1135</ele>
        <time>2018-06-30T16:07:38.008Z</time>
      </trkpt>
      <trkpt lat="40.89704" lon="-4.019311">
        <ele>1134.42352675434</ele>
        <time>2018-06-30T16:07:41.008Z</time>
      </trkpt>
      <trkpt lat="40.897017" lon="-4.019359">
        <ele>1134</ele>
        <time>2018-06-30T16:07:44.008Z</time>
      </trkpt>
      <trkpt lat="40.896995" lon="-4.019406">
        <ele>1134</ele>
        <time>2018-06-30T16:07:47.008Z</time>
      </trkpt>
      <trkpt lat="40.896971" lon="-4.019454">
        <ele>1133.46545183737</ele>
        <time>2018-06-30T16:07:51.008Z</time>
      </trkpt>
      <trkpt lat="40.896945" lon="-4.019504">
        <ele>1133</ele>
        <time>2018-06-30T16:07:55.008Z</time>
      </trkpt>
      <trkpt lat="40.896919" lon="-4.019556">
        <ele>1133</ele>
        <time>2018-06-30T16:07:59.008Z</time>
      </trkpt>
      <trkpt lat="40.896903" lon="-4.019604">
        <ele>1130</ele>
        <time>2018-06-30T16:08:02.008Z</time>
      </trkpt>
      <trkpt lat="40.896888" lon="-4.019654">
        <ele>1130</ele>
        <time>2018-06-30T16:08:05.008Z</time>
      </trkpt>
      <trkpt lat="40.89687" lon="-4.019699">
        <ele>1130</ele>
        <time>2018-06-30T16:08:08.008Z</time>
      </trkpt>
      <trkpt lat="40.896853" lon="-4.019737">
        <ele>1130</ele>
        <time>2018-06-30T16:08:11.008Z</time>
      </trkpt>
      <trkpt lat="40.896827" lon="-4.019778">
        <ele>1130</ele>
        <time>2018-06-30T16:08:15.008Z</time>
      </trkpt>
      <trkpt lat="40.896798" lon="-4.019821">
        <ele>1130</ele>
        <time>2018-06-30T16:08:19.008Z</time>
      </trkpt>
      <trkpt lat="40.896767" lon="-4.019859">
        <ele>1130</ele>
        <time>2018-06-30T16:08:23.008Z</time>
      </trkpt>
      <trkpt lat="40.896742" lon="-4.019904">
        <ele>1130</ele>
        <time>2018-06-30T16:08:27.008Z</time>
      </trkpt>
      <trkpt lat="40.896719" lon="-4.019961">
        <ele>1130</ele>
        <time>2018-06-30T16:08:31.008Z</time>
      </trkpt>
      <trkpt lat="40.896679" lon="-4.020027">
        <ele>1130</ele>
        <time>2018-06-30T16:08:40.008Z</time>
      </trkpt>
      <trkpt lat="40.896627" lon="-4.02006">
        <ele>1130</ele>
        <time>2018-06-30T16:08:46.008Z</time>
      </trkpt>
      <trkpt lat="40.896565" lon="-4.020072">
        <ele>1129</ele>
        <time>2018-06-30T16:08:53.008Z</time>
      </trkpt>
      <trkpt lat="40.896507" lon="-4.020081">
        <ele>1129</ele>
        <time>2018-06-30T16:08:58.008Z</time>
      </trkpt>
      <trkpt lat="40.896432" lon="-4.020098">
        <ele>1129</ele>
        <time>2018-06-30T16:09:05.008Z</time>
      </trkpt>
      <trkpt lat="40.896372" lon="-4.020116">
        <ele>1129</ele>
        <time>2018-06-30T16:09:09.008Z</time>
      </trkpt>
      <trkpt lat="40.896317" lon="-4.020139">
        <ele>1129</ele>
        <time>2018-06-30T16:09:14.008Z</time>
      </trkpt>
      <trkpt lat="40.896237" lon="-4.020169">
        <ele>1129</ele>
        <time>2018-06-30T16:09:19.008Z</time>
      </trkpt>
      <trkpt lat="40.89618" lon="-4.020191">
        <ele>1128</ele>
        <time>2018-06-30T16:09:23.008Z</time>
      </trkpt>
      <trkpt lat="40.896145" lon="-4.020214">
        <ele>1128.57959562185</ele>
        <time>2018-06-30T16:09:26.008Z</time>
      </trkpt>
      <trkpt lat="40.896102" lon="-4.020255">
        <ele>1129</ele>
        <time>2018-06-30T16:09:30.008Z</time>
      </trkpt>
      <trkpt lat="40.896072" lon="-4.020298">
        <ele>1129</ele>
        <time>2018-06-30T16:09:33.008Z</time>
      </trkpt>
      <trkpt lat="40.89604" lon="-4.020337">
        <ele>1129</ele>
        <time>2018-06-30T16:09:35.008Z</time>
      </trkpt>
      <trkpt lat="40.896006" lon="-4.020384">
        <ele>1129</ele>
        <time>2018-06-30T16:09:37.008Z</time>
      </trkpt>
      <trkpt lat="40.89597" lon="-4.020424">
        <ele>1129</ele>
        <time>2018-06-30T16:09:39.008Z</time>
      </trkpt>
      <trkpt lat="40.895924" lon="-4.020479">
        <ele>1128</ele>
        <time>2018-06-30T16:09:42.008Z</time>
      </trkpt>
      <trkpt lat="40.895882" lon="-4.020538">
        <ele>1128</ele>
        <time>2018-06-30T16:09:45.008Z</time>
      </trkpt>
      <trkpt lat="40.895835" lon="-4.020602">
        <ele>1128</ele>
        <time>2018-06-30T16:09:48.008Z</time>
      </trkpt>
      <trkpt lat="40.895793" lon="-4.020653">
        <ele>1128</ele>
        <time>2018-06-30T16:09:51.008Z</time>
      </trkpt>
      <trkpt lat="40.895748" lon="-4.020715">
        <ele>1128</ele>
        <time>2018-06-30T16:09:54.008Z</time>
      </trkpt>
      <trkpt lat="40.895702" lon="-4.020778">
        <ele>1128</ele>
        <time>2018-06-30T16:09:57.008Z</time>
      </trkpt>
      <trkpt lat="40.89565" lon="-4.020834">
        <ele>1128</ele>
        <time>2018-06-30T16:10:00.008Z</time>
      </trkpt>
      <trkpt lat="40.895597" lon="-4.020893">
        <ele>1127</ele>
        <time>2018-06-30T16:10:03.008Z</time>
      </trkpt>
      <trkpt lat="40.89555" lon="-4.020947">
        <ele>1127</ele>
        <time>2018-06-30T16:10:06.008Z</time>
      </trkpt>
      <trkpt lat="40.895507" lon="-4.020998">
        <ele>1127</ele>
        <time>2018-06-30T16:10:09.008Z</time>
      </trkpt>
      <trkpt lat="40.895475" lon="-4.021059">
        <ele>1126</ele>
        <time>2018-06-30T16:10:12.008Z</time>
      </trkpt>
      <trkpt lat="40.895439" lon="-4.021112">
        <ele>1126</ele>
        <time>2018-06-30T16:10:15.008Z</time>
      </trkpt>
      <trkpt lat="40.895404" lon="-4.021162">
        <ele>1126</ele>
        <time>2018-06-30T16:10:18.008Z</time>
      </trkpt>
      <trkpt lat="40.89537" lon="-4.021229">
        <ele>1124.39635551211</ele>
        <time>2018-06-30T16:10:21.008Z</time>
      </trkpt>
      <trkpt lat="40.895336" lon="-4.021291">
        <ele>1123</ele>
        <time>2018-06-30T16:10:24.008Z</time>
      </trkpt>
      <trkpt lat="40.895299" lon="-4.021361">
        <ele>1122</ele>
        <time>2018-06-30T16:10:27.008Z</time>
      </trkpt>
      <trkpt lat="40.895263" lon="-4.021431">
        <ele>1122</ele>
        <time>2018-06-30T16:10:30.008Z</time>
      </trkpt>
      <trkpt lat="40.895228" lon="-4.021501">
        <ele>1121</ele>
        <time>2018-06-30T16:10:33.008Z</time>
      </trkpt>
      <trkpt lat="40.895193" lon="-4.021587">
        <ele>1121</ele>
        <time>2018-06-30T16:10:36.008Z</time>
      </trkpt>
      <trkpt lat="40.895148" lon="-4.021658">
        <ele>1121</ele>
        <time>2018-06-30T16:10:39.008Z</time>
      </trkpt>
      <trkpt lat="40.895102" lon="-4.021726">
        <ele>1121</ele>
        <time>2018-06-30T16:10:42.008Z</time>
      </trkpt>
      <trkpt lat="40.895049" lon="-4.021801">
        <ele>1121</ele>
        <time>2018-06-30T16:10:46.008Z</time>
      </trkpt>
      <trkpt lat="40.895004" lon="-4.021858">
        <ele>1121</ele>
        <time>2018-06-30T16:10:49.008Z</time>
      </trkpt>
      <trkpt lat="40.894954" lon="-4.021915">
        <ele>1121</ele>
        <time>2018-06-30T16:10:52.008Z</time>
      </trkpt>
      <trkpt lat="40.894897" lon="-4.021969">
        <ele>1121</ele>
        <time>2018-06-30T16:10:55.008Z</time>
      </trkpt>
      <trkpt lat="40.894851" lon="-4.022034">
        <ele>1121</ele>
        <time>2018-06-30T16:10:58.008Z</time>
      </trkpt>
      <trkpt lat="40.894809" lon="-4.022104">
        <ele>1119.84705350868</ele>
        <time>2018-06-30T16:11:01.008Z</time>
      </trkpt>
      <trkpt lat="40.894764" lon="-4.02217">
        <ele>1119</ele>
        <time>2018-06-30T16:11:04.008Z</time>
      </trkpt>
      <trkpt lat="40.894724" lon="-4.022227">
        <ele>1119</ele>
        <time>2018-06-30T16:11:07.008Z</time>
      </trkpt>
      <trkpt lat="40.894668" lon="-4.022252">
        <ele>1119</ele>
        <time>2018-06-30T16:11:10.008Z</time>
      </trkpt>
      <trkpt lat="40.894608" lon="-4.022282">
        <ele>1119</ele>
        <time>2018-06-30T16:11:13.008Z</time>
      </trkpt>
      <trkpt lat="40.894543" lon="-4.022307">
        <ele>1119</ele>
        <time>2018-06-30T16:11:16.008Z</time>
      </trkpt>
      <trkpt lat="40.894477" lon="-4.022318">
        <ele>1119</ele>
        <time>2018-06-30T16:11:19.008Z</time>
      </trkpt>
      <trkpt lat="40.894402" lon="-4.022332">
        <ele>1119</ele>
        <time>2018-06-30T16:11:23.008Z</time>
      </trkpt>
      <trkpt lat="40.894313" lon="-4.022363">
        <ele>1119</ele>
        <time>2018-06-30T16:11:29.008Z</time>
      </trkpt>
      <trkpt lat="40.894242" lon="-4.022376">
        <ele>1119</ele>
        <time>2018-06-30T16:11:32.008Z</time>
      </trkpt>
      <trkpt lat="40.894176" lon="-4.022384">
        <ele>1119</ele>
        <time>2018-06-30T16:11:35.008Z</time>
      </trkpt>
      <trkpt lat="40.894107" lon="-4.022388">
        <ele>1119</ele>
        <time>2018-06-30T16:11:38.008Z</time>
      </trkpt>
      <trkpt lat="40.894041" lon="-4.022402">
        <ele>1119</ele>
        <time>2018-06-30T16:11:41.008Z</time>
      </trkpt>
      <trkpt lat="40.893966" lon="-4.022407">
        <ele>1119</ele>
        <time>2018-06-30T16:11:44.008Z</time>
      </trkpt>
      <trkpt lat="40.893888" lon="-4.022412">
        <ele>1119</ele>
        <time>2018-06-30T16:11:47.008Z</time>
      </trkpt>
      <trkpt lat="40.893823" lon="-4.02241">
        <ele>1119</ele>
        <time>2018-06-30T16:11:50.008Z</time>
      </trkpt>
      <trkpt lat="40.893744" lon="-4.022412">
        <ele>1119</ele>
        <time>2018-06-30T16:11:54.008Z</time>
      </trkpt>
      <trkpt lat="40.893654" lon="-4.022419">
        <ele>1119</ele>
        <time>2018-06-30T16:11:58.008Z</time>
      </trkpt>
      <trkpt lat="40.893574" lon="-4.022421">
        <ele>1119</ele>
        <time>2018-06-30T16:12:02.008Z</time>
      </trkpt>
      <trkpt lat="40.893494" lon="-4.022421">
        <ele>1119</ele>
        <time>2018-06-30T16:12:08.008Z</time>
      </trkpt>
      <trkpt lat="40.89342" lon="-4.022415">
        <ele>1119</ele>
        <time>2018-06-30T16:12:13.008Z</time>
      </trkpt>
      <trkpt lat="40.893358" lon="-4.022426">
        <ele>1119</ele>
        <time>2018-06-30T16:12:18.008Z</time>
      </trkpt>
      <trkpt lat="40.893299" lon="-4.022425">
        <ele>1119</ele>
        <time>2018-06-30T16:12:23.008Z</time>
      </trkpt>
      <trkpt lat="40.893242" lon="-4.022422">
        <ele>1119</ele>
        <time>2018-06-30T16:12:27.008Z</time>
      </trkpt>
      <trkpt lat="40.89317" lon="-4.022422">
        <ele>1120</ele>
        <time>2018-06-30T16:12:32.008Z</time>
      </trkpt>
      <trkpt lat="40.893118" lon="-4.022418">
        <ele>1120</ele>
        <time>2018-06-30T16:12:34.008Z</time>
      </trkpt>
      <trkpt lat="40.89307" lon="-4.022424">
        <ele>1120</ele>
        <time>2018-06-30T16:12:37.008Z</time>
      </trkpt>
      <trkpt lat="40.893018" lon="-4.022435">
        <ele>1120</ele>
        <time>2018-06-30T16:12:42.008Z</time>
      </trkpt>
      <trkpt lat="40.892958" lon="-4.02245">
        <ele>1120</ele>
        <time>2018-06-30T16:12:48.008Z</time>
      </trkpt>
      <trkpt lat="40.892908" lon="-4.022489">
        <ele>1120</ele>
        <time>2018-06-30T16:12:52.008Z</time>
      </trkpt>
      <trkpt lat="40.892874" lon="-4.022547">
        <ele>1120</ele>
        <time>2018-06-30T16:12:58.008Z</time>
      </trkpt>
      <trkpt lat="40.892824" lon="-4.022606">
        <ele>1118</ele>
        <time>2018-06-30T16:13:03.008Z</time>
      </trkpt>
      <trkpt lat="40.8928" lon="-4.022686">
        <ele>1118</ele>
        <time>2018-06-30T16:13:08.008Z</time>
      </trkpt>
      <trkpt lat="40.892767" lon="-4.022741">
        <ele>1118</ele>
        <time>2018-06-30T16:13:14.008Z</time>
      </trkpt>
      <trkpt lat="40.892716" lon="-4.022727">
        <ele>1118</ele>
        <time>2018-06-30T16:13:20.008Z</time>
      </trkpt>
      <trkpt lat="40.892658" lon="-4.022687">
        <ele>1119</ele>
        <time>2018-06-30T16:13:27.008Z</time>
      </trkpt>
      <trkpt lat="40.892596" lon="-4.022679">
        <ele>1119</ele>
        <time>2018-06-30T16:13:34.008Z</time>
      </trkpt>
      <trkpt lat="40.892532" lon="-4.022647">
        <ele>1119</ele>
        <time>2018-06-30T16:13:39.008Z</time>
      </trkpt>
      <trkpt lat="40.892464" lon="-4.022631">
        <ele>1120</ele>
        <time>2018-06-30T16:13:45.008Z</time>
      </trkpt>
      <trkpt lat="40.892396" lon="-4.022617">
        <ele>1120</ele>
        <time>2018-06-30T16:13:51.008Z</time>
      </trkpt>
      <trkpt lat="40.892325" lon="-4.022625">
        <ele>1120</ele>
        <time>2018-06-30T16:14:01.008Z</time>
      </trkpt>
      <trkpt lat="40.892251" lon="-4.022633">
        <ele>1120</ele>
        <time>2018-06-30T16:14:06.008Z</time>
      </trkpt>
      <trkpt lat="40.892184" lon="-4.022647">
        <ele>1120</ele>
        <time>2018-06-30T16:14:11.008Z</time>
      </trkpt>
      <trkpt lat="40.89211" lon="-4.02266">
        <ele>1120</ele>
        <time>2018-06-30T16:14:15.008Z</time>
      </trkpt>
      <trkpt lat="40.892042" lon="-4.022679">
        <ele>1120</ele>
        <time>2018-06-30T16:14:18.008Z</time>
      </trkpt>
      <trkpt lat="40.891991" lon="-4.022709">
        <ele>1120</ele>
        <time>2018-06-30T16:14:22.008Z</time>
      </trkpt>
      <trkpt lat="40.891941" lon="-4.022753">
        <ele>1120</ele>
        <time>2018-06-30T16:14:28.008Z</time>
      </trkpt>
      <trkpt lat="40.891898" lon="-4.0228">
        <ele>1121</ele>
        <time>2018-06-30T16:14:33.008Z</time>
      </trkpt>
      <trkpt lat="40.891879" lon="-4.022873">
        <ele>1121</ele>
        <time>2018-06-30T16:14:41.008Z</time>
      </trkpt>
      <trkpt lat="40.891835" lon="-4.022929">
        <ele>1121</ele>
        <time>2018-06-30T16:14:47.008Z</time>
      </trkpt>
      <trkpt lat="40.891784" lon="-4.022952">
        <ele>1121</ele>
        <time>2018-06-30T16:14:52.008Z</time>
      </trkpt>
      <trkpt lat="40.891735" lon="-4.022975">
        <ele>1121</ele>
        <time>2018-06-30T16:14:57.008Z</time>
      </trkpt>
      <trkpt lat="40.891676" lon="-4.023006">
        <ele>1121</ele>
        <time>2018-06-30T16:15:03.008Z</time>
      </trkpt>
      <trkpt lat="40.891618" lon="-4.023011">
        <ele>1121</ele>
        <time>2018-06-30T16:15:06.008Z</time>
      </trkpt>
      <trkpt lat="40.891557" lon="-4.023004">
        <ele>1121</ele>
        <time>2018-06-30T16:15:10.008Z</time>
      </trkpt>
      <trkpt lat="40.891512" lon="-4.022994">
        <ele>1121</ele>
        <time>2018-06-30T16:15:13.008Z</time>
      </trkpt>
      <trkpt lat="40.89146" lon="-4.022982">
        <ele>1121</ele>
        <time>2018-06-30T16:15:18.008Z</time>
      </trkpt>
      <trkpt lat="40.891401" lon="-4.022977">
        <ele>1121</ele>
        <time>2018-06-30T16:15:25.008Z</time>
      </trkpt>
      <trkpt lat="40.891342" lon="-4.022964">
        <ele>1121</ele>
        <time>2018-06-30T16:15:31.008Z</time>
      </trkpt>
      <trkpt lat="40.89129" lon="-4.022933">
        <ele>1121</ele>
        <time>2018-06-30T16:15:39.008Z</time>
      </trkpt>
      <trkpt lat="40.891225" lon="-4.022901">
        <ele>1121</ele>
        <time>2018-06-30T16:15:44.008Z</time>
      </trkpt>
      <trkpt lat="40.89116" lon="-4.022873">
        <ele>1121</ele>
        <time>2018-06-30T16:15:49.008Z</time>
      </trkpt>
      <trkpt lat="40.891094" lon="-4.022839">
        <ele>1121</ele>
        <time>2018-06-30T16:15:53.008Z</time>
      </trkpt>
      <trkpt lat="40.891042" lon="-4.022797">
        <ele>1121</ele>
        <time>2018-06-30T16:15:58.008Z</time>
      </trkpt>
      <trkpt lat="40.890991" lon="-4.022764">
        <ele>1121</ele>
        <time>2018-06-30T16:16:03.008Z</time>
      </trkpt>
      <trkpt lat="40.890931" lon="-4.02273">
        <ele>1121</ele>
        <time>2018-06-30T16:16:08.008Z</time>
      </trkpt>
      <trkpt lat="40.890879" lon="-4.022693">
        <ele>1121</ele>
        <time>2018-06-30T16:16:12.008Z</time>
      </trkpt>
      <trkpt lat="40.890824" lon="-4.02267">
        <ele>1121</ele>
        <time>2018-06-30T16:16:16.008Z</time>
      </trkpt>
      <trkpt lat="40.890764" lon="-4.02264">
        <ele>1121.53454816263</ele>
        <time>2018-06-30T16:16:21.008Z</time>
      </trkpt>
      <trkpt lat="40.89071" lon="-4.022607">
        <ele>1122</ele>
        <time>2018-06-30T16:16:26.008Z</time>
      </trkpt>
      <trkpt lat="40.89065" lon="-4.022572">
        <ele>1122</ele>
        <time>2018-06-30T16:16:32.008Z</time>
      </trkpt>
      <trkpt lat="40.890598" lon="-4.022529">
        <ele>1122</ele>
        <time>2018-06-30T16:16:38.008Z</time>
      </trkpt>
      <trkpt lat="40.890538" lon="-4.022498">
        <ele>1122</ele>
        <time>2018-06-30T16:16:42.008Z</time>
      </trkpt>
      <trkpt lat="40.890484" lon="-4.022487">
        <ele>1122</ele>
        <time>2018-06-30T16:16:48.008Z</time>
      </trkpt>
      <trkpt lat="40.890443" lon="-4.022447">
        <ele>1122</ele>
        <time>2018-06-30T16:16:53.008Z</time>
      </trkpt>
      <trkpt lat="40.890409" lon="-4.022407">
        <ele>1122</ele>
        <time>2018-06-30T16:16:57.008Z</time>
      </trkpt>
      <trkpt lat="40.89037" lon="-4.022363">
        <ele>1122.57647324566</ele>
        <time>2018-06-30T16:17:01.008Z</time>
      </trkpt>
      <trkpt lat="40.89034" lon="-4.022332">
        <ele>1123</ele>
        <time>2018-06-30T16:17:04.008Z</time>
      </trkpt>
      <trkpt lat="40.890304" lon="-4.022304">
        <ele>1123</ele>
        <time>2018-06-30T16:17:07.008Z</time>
      </trkpt>
      <trkpt lat="40.890269" lon="-4.022278">
        <ele>1123</ele>
        <time>2018-06-30T16:17:10.008Z</time>
      </trkpt>
      <trkpt lat="40.890236" lon="-4.022262">
        <ele>1123</ele>
        <time>2018-06-30T16:17:13.008Z</time>
      </trkpt>
      <trkpt lat="40.890199" lon="-4.022231">
        <ele>1123</ele>
        <time>2018-06-30T16:17:17.008Z</time>
      </trkpt>
      <trkpt lat="40.890158" lon="-4.022203">
        <ele>1123</ele>
        <time>2018-06-30T16:17:21.008Z</time>
      </trkpt>
      <trkpt lat="40.890099" lon="-4.022172">
        <ele>1123</ele>
        <time>2018-06-30T16:17:30.008Z</time>
      </trkpt>
      <trkpt lat="40.890039" lon="-4.022134">
        <ele>1124</ele>
        <time>2018-06-30T16:17:35.008Z</time>
      </trkpt>
      <trkpt lat="40.889976" lon="-4.022095">
        <ele>1124</ele>
        <time>2018-06-30T16:17:40.008Z</time>
      </trkpt>
      <trkpt lat="40.889912" lon="-4.02206">
        <ele>1124</ele>
        <time>2018-06-30T16:17:45.008Z</time>
      </trkpt>
      <trkpt lat="40.889869" lon="-4.022022">
        <ele>1124</ele>
        <time>2018-06-30T16:17:49.008Z</time>
      </trkpt>
      <trkpt lat="40.889822" lon="-4.021986">
        <ele>1124</ele>
        <time>2018-06-30T16:17:54.008Z</time>
      </trkpt>
      <trkpt lat="40.889775" lon="-4.021959">
        <ele>1124</ele>
        <time>2018-06-30T16:18:00.008Z</time>
      </trkpt>
      <trkpt lat="40.889733" lon="-4.021897">
        <ele>1123</ele>
        <time>2018-06-30T16:18:08.008Z</time>
      </trkpt>
      <trkpt lat="40.889677" lon="-4.021848">
        <ele>1124</ele>
        <time>2018-06-30T16:18:15.008Z</time>
      </trkpt>
      <trkpt lat="40.889614" lon="-4.021813">
        <ele>1124</ele>
        <time>2018-06-30T16:18:21.008Z</time>
      </trkpt>
      <trkpt lat="40.889545" lon="-4.021784">
        <ele>1124</ele>
        <time>2018-06-30T16:18:27.008Z</time>
      </trkpt>
      <trkpt lat="40.889465" lon="-4.021753">
        <ele>1124</ele>
        <time>2018-06-30T16:18:34.008Z</time>
      </trkpt>
      <trkpt lat="40.889401" lon="-4.021721">
        <ele>1124</ele>
        <time>2018-06-30T16:18:39.008Z</time>
      </trkpt>
      <trkpt lat="40.889342" lon="-4.021698">
        <ele>1124</ele>
        <time>2018-06-30T16:18:43.008Z</time>
      </trkpt>
      <trkpt lat="40.889292" lon="-4.021644">
        <ele>1125.06909632526</ele>
        <time>2018-06-30T16:18:51.008Z</time>
      </trkpt>
      <trkpt lat="40.889244" lon="-4.021599">
        <ele>1126</ele>
        <time>2018-06-30T16:19:01.008Z</time>
      </trkpt>
      <trkpt lat="40.889194" lon="-4.021561">
        <ele>1126</ele>
        <time>2018-06-30T16:19:07.008Z</time>
      </trkpt>
      <trkpt lat="40.889148" lon="-4.021538">
        <ele>1126</ele>
        <time>2018-06-30T16:19:12.008Z</time>
      </trkpt>
      <trkpt lat="40.889103" lon="-4.021535">
        <ele>1126</ele>
        <time>2018-06-30T16:19:16.008Z</time>
      </trkpt>
      <trkpt lat="40.889066" lon="-4.02151">
        <ele>1127.06909632526</ele>
        <time>2018-06-30T16:19:21.008Z</time>
      </trkpt>
      <trkpt lat="40.889028" lon="-4.021482">
        <ele>1128</ele>
        <time>2018-06-30T16:19:30.008Z</time>
      </trkpt>
      <trkpt lat="40.888982" lon="-4.021482">
        <ele>1129</ele>
        <time>2018-06-30T16:19:37.008Z</time>
      </trkpt>
      <trkpt lat="40.888936" lon="-4.021472">
        <ele>1131</ele>
        <time>2018-06-30T16:19:44.008Z</time>
      </trkpt>
      <trkpt lat="40.88889" lon="-4.021472">
        <ele>1131</ele>
        <time>2018-06-30T16:19:48.008Z</time>
      </trkpt>
      <trkpt lat="40.88884" lon="-4.021466">
        <ele>1131</ele>
        <time>2018-06-30T16:19:53.008Z</time>
      </trkpt>
      <trkpt lat="40.888779" lon="-4.021452">
        <ele>1131.57647324566</ele>
        <time>2018-06-30T16:20:01.008Z</time>
      </trkpt>
      <trkpt lat="40.888725" lon="-4.021438">
        <ele>1132</ele>
        <time>2018-06-30T16:20:08.008Z</time>
      </trkpt>
      <trkpt lat="40.888685" lon="-4.021442">
        <ele>1133</ele>
        <time>2018-06-30T16:20:13.008Z</time>
      </trkpt>
      <trkpt lat="40.888637" lon="-4.021439">
        <ele>1133</ele>
        <time>2018-06-30T16:20:17.008Z</time>
      </trkpt>
      <trkpt lat="40.888596" lon="-4.021429">
        <ele>1133</ele>
        <time>2018-06-30T16:20:21.008Z</time>
      </trkpt>
      <trkpt lat="40.888553" lon="-4.021411">
        <ele>1133</ele>
        <time>2018-06-30T16:20:25.008Z</time>
      </trkpt>
      <trkpt lat="40.888504" lon="-4.021391">
        <ele>1133</ele>
        <time>2018-06-30T16:20:29.008Z</time>
      </trkpt>
      <trkpt lat="40.888451" lon="-4.021379">
        <ele>1132</ele>
        <time>2018-06-30T16:20:33.008Z</time>
      </trkpt>
      <trkpt lat="40.888395" lon="-4.021375">
        <ele>1132</ele>
        <time>2018-06-30T16:20:38.008Z</time>
      </trkpt>
      <trkpt lat="40.888342" lon="-4.021357">
        <ele>1132</ele>
        <time>2018-06-30T16:20:45.008Z</time>
      </trkpt>
      <trkpt lat="40.888279" lon="-4.021342">
        <ele>1132</ele>
        <time>2018-06-30T16:20:53.008Z</time>
      </trkpt>
      <trkpt lat="40.88822" lon="-4.02132">
        <ele>1132</ele>
        <time>2018-06-30T16:21:02.008Z</time>
      </trkpt>
      <trkpt lat="40.88816" lon="-4.021301">
        <ele>1132</ele>
        <time>2018-06-30T16:21:09.008Z</time>
      </trkpt>
      <trkpt lat="40.8881" lon="-4.021265">
        <ele>1132</ele>
        <time>2018-06-30T16:21:16.008Z</time>
      </trkpt>
      <trkpt lat="40.888048" lon="-4.021233">
        <ele>1132.53454816263</ele>
        <time>2018-06-30T16:21:21.008Z</time>
      </trkpt>
      <trkpt lat="40.887992" lon="-4.021198">
        <ele>1133</ele>
        <time>2018-06-30T16:21:27.008Z</time>
      </trkpt>
      <trkpt lat="40.887934" lon="-4.021176">
        <ele>1135</ele>
        <time>2018-06-30T16:21:32.008Z</time>
      </trkpt>
      <trkpt lat="40.887874" lon="-4.021157">
        <ele>1135</ele>
        <time>2018-06-30T16:21:38.008Z</time>
      </trkpt>
      <trkpt lat="40.88783" lon="-4.021129">
        <ele>1135</ele>
        <time>2018-06-30T16:21:43.008Z</time>
      </trkpt>
      <trkpt lat="40.887776" lon="-4.021096">
        <ele>1135</ele>
        <time>2018-06-30T16:21:49.008Z</time>
      </trkpt>
      <trkpt lat="40.887742" lon="-4.021083">
        <ele>1136</ele>
        <time>2018-06-30T16:21:52.008Z</time>
      </trkpt>
      <trkpt lat="40.887682" lon="-4.021074">
        <ele>1136</ele>
        <time>2018-06-30T16:21:58.008Z</time>
      </trkpt>
      <trkpt lat="40.887628" lon="-4.021069">
        <ele>1137</ele>
        <time>2018-06-30T16:22:03.008Z</time>
      </trkpt>
      <trkpt lat="40.88759" lon="-4.02108">
        <ele>1137</ele>
        <time>2018-06-30T16:22:08.008Z</time>
      </trkpt>
      <trkpt lat="40.88753" lon="-4.021062">
        <ele>1138</ele>
        <time>2018-06-30T16:22:19.008Z</time>
      </trkpt>
      <trkpt lat="40.887483" lon="-4.021057">
        <ele>1138</ele>
        <time>2018-06-30T16:22:23.008Z</time>
      </trkpt>
      <trkpt lat="40.887425" lon="-4.021072">
        <ele>1138</ele>
        <time>2018-06-30T16:22:30.008Z</time>
      </trkpt>
      <trkpt lat="40.887357" lon="-4.021092">
        <ele>1139</ele>
        <time>2018-06-30T16:22:37.008Z</time>
      </trkpt>
      <trkpt lat="40.887291" lon="-4.021105">
        <ele>1139</ele>
        <time>2018-06-30T16:22:41.008Z</time>
      </trkpt>
      <trkpt lat="40.887245" lon="-4.021132">
        <ele>1139</ele>
        <time>2018-06-30T16:22:45.008Z</time>
      </trkpt>
      <trkpt lat="40.887211" lon="-4.021174">
        <ele>1139</ele>
        <time>2018-06-30T16:22:50.008Z</time>
      </trkpt>
      <trkpt lat="40.887166" lon="-4.021192">
        <ele>1139</ele>
        <time>2018-06-30T16:22:55.008Z</time>
      </trkpt>
      <trkpt lat="40.887115" lon="-4.021231">
        <ele>1140</ele>
        <time>2018-06-30T16:23:02.008Z</time>
      </trkpt>
      <trkpt lat="40.887085" lon="-4.02128">
        <ele>1140</ele>
        <time>2018-06-30T16:23:06.008Z</time>
      </trkpt>
      <trkpt lat="40.887049" lon="-4.021316">
        <ele>1140</ele>
        <time>2018-06-30T16:23:10.008Z</time>
      </trkpt>
      <trkpt lat="40.886998" lon="-4.021335">
        <ele>1141</ele>
        <time>2018-06-30T16:23:16.008Z</time>
      </trkpt>
      <trkpt lat="40.886946" lon="-4.021341">
        <ele>1141</ele>
        <time>2018-06-30T16:23:26.008Z</time>
      </trkpt>
      <trkpt lat="40.886895" lon="-4.021363">
        <ele>1141</ele>
        <time>2018-06-30T16:23:30.008Z</time>
      </trkpt>
      <trkpt lat="40.886855" lon="-4.021383">
        <ele>1142</ele>
        <time>2018-06-30T16:23:35.008Z</time>
      </trkpt>
      <trkpt lat="40.886812" lon="-4.021358">
        <ele>1144</ele>
        <time>2018-06-30T16:23:42.008Z</time>
      </trkpt>
      <trkpt lat="40.886756" lon="-4.021315">
        <ele>1144</ele>
        <time>2018-06-30T16:23:49.008Z</time>
      </trkpt>
      <trkpt lat="40.886698" lon="-4.021302">
        <ele>1144</ele>
        <time>2018-06-30T16:23:53.008Z</time>
      </trkpt>
      <trkpt lat="40.886644" lon="-4.021277">
        <ele>1144</ele>
        <time>2018-06-30T16:23:58.008Z</time>
      </trkpt>
      <trkpt lat="40.886589" lon="-4.021253">
        <ele>1143</ele>
        <time>2018-06-30T16:24:04.008Z</time>
      </trkpt>
      <trkpt lat="40.886544" lon="-4.021232">
        <ele>1143</ele>
        <time>2018-06-30T16:24:10.008Z</time>
      </trkpt>
      <trkpt lat="40.886501" lon="-4.021208">
        <ele>1144</ele>
        <time>2018-06-30T16:24:14.008Z</time>
      </trkpt>
      <trkpt lat="40.886463" lon="-4.021169">
        <ele>1144</ele>
        <time>2018-06-30T16:24:19.008Z</time>
      </trkpt>
      <trkpt lat="40.886433" lon="-4.021137">
        <ele>1145</ele>
        <time>2018-06-30T16:24:23.008Z</time>
      </trkpt>
      <trkpt lat="40.886401" lon="-4.021088">
        <ele>1145</ele>
        <time>2018-06-30T16:24:29.008Z</time>
      </trkpt>
      <trkpt lat="40.886366" lon="-4.021036">
        <ele>1145</ele>
        <time>2018-06-30T16:24:35.008Z</time>
      </trkpt>
      <trkpt lat="40.886329" lon="-4.021003">
        <ele>1145</ele>
        <time>2018-06-30T16:24:40.008Z</time>
      </trkpt>
      <trkpt lat="40.88629" lon="-4.020978">
        <ele>1145</ele>
        <time>2018-06-30T16:24:44.008Z</time>
      </trkpt>
      <trkpt lat="40.886256" lon="-4.020965">
        <ele>1145</ele>
        <time>2018-06-30T16:24:47.008Z</time>
      </trkpt>
      <trkpt lat="40.886216" lon="-4.020942">
        <ele>1145</ele>
        <time>2018-06-30T16:24:52.008Z</time>
      </trkpt>
      <trkpt lat="40.886174" lon="-4.020909">
        <ele>1145</ele>
        <time>2018-06-30T16:24:58.008Z</time>
      </trkpt>
      <trkpt lat="40.886136" lon="-4.020861">
        <ele>1146</ele>
        <time>2018-06-30T16:25:04.008Z</time>
      </trkpt>
      <trkpt lat="40.886096" lon="-4.020825">
        <ele>1146</ele>
        <time>2018-06-30T16:25:09.008Z</time>
      </trkpt>
      <trkpt lat="40.886056" lon="-4.020777">
        <ele>1146</ele>
        <time>2018-06-30T16:25:14.008Z</time>
      </trkpt>
      <trkpt lat="40.88602" lon="-4.020734">
        <ele>1146</ele>
        <time>2018-06-30T16:25:20.008Z</time>
      </trkpt>
      <trkpt lat="40.885984" lon="-4.020698">
        <ele>1147</ele>
        <time>2018-06-30T16:25:25.008Z</time>
      </trkpt>
      <trkpt lat="40.885944" lon="-4.020655">
        <ele>1147</ele>
        <time>2018-06-30T16:25:30.008Z</time>
      </trkpt>
      <trkpt lat="40.885906" lon="-4.020622">
        <ele>1147</ele>
        <time>2018-06-30T16:25:34.008Z</time>
      </trkpt>
      <trkpt lat="40.885857" lon="-4.020593">
        <ele>1147</ele>
        <time>2018-06-30T16:25:39.008Z</time>
      </trkpt>
      <trkpt lat="40.885817" lon="-4.020566">
        <ele>1147</ele>
        <time>2018-06-30T16:25:44.008Z</time>
      </trkpt>
      <trkpt lat="40.885765" lon="-4.020558">
        <ele>1147</ele>
        <time>2018-06-30T16:25:49.008Z</time>
      </trkpt>
      <trkpt lat="40.885709" lon="-4.02055">
        <ele>1147</ele>
        <time>2018-06-30T16:25:54.008Z</time>
      </trkpt>
      <trkpt lat="40.885656" lon="-4.020515">
        <ele>1147</ele>
        <time>2018-06-30T16:26:01.008Z</time>
      </trkpt>
      <trkpt lat="40.8856" lon="-4.020487">
        <ele>1147</ele>
        <time>2018-06-30T16:26:06.008Z</time>
      </trkpt>
      <trkpt lat="40.885537" lon="-4.020438">
        <ele>1147</ele>
        <time>2018-06-30T16:26:13.008Z</time>
      </trkpt>
      <trkpt lat="40.885467" lon="-4.020402">
        <ele>1147</ele>
        <time>2018-06-30T16:26:19.008Z</time>
      </trkpt>
      <trkpt lat="40.885381" lon="-4.020389">
        <ele>1148</ele>
        <time>2018-06-30T16:26:26.008Z</time>
      </trkpt>
      <trkpt lat="40.885308" lon="-4.020384">
        <ele>1148</ele>
        <time>2018-06-30T16:26:31.008Z</time>
      </trkpt>
      <trkpt lat="40.88523" lon="-4.020382">
        <ele>1148</ele>
        <time>2018-06-30T16:26:37.008Z</time>
      </trkpt>
      <trkpt lat="40.885175" lon="-4.020394">
        <ele>1148</ele>
        <time>2018-06-30T16:26:43.008Z</time>
      </trkpt>
      <trkpt lat="40.885137" lon="-4.020417">
        <ele>1148</ele>
        <time>2018-06-30T16:26:47.008Z</time>
      </trkpt>
      <trkpt lat="40.885097" lon="-4.02043">
        <ele>1150</ele>
        <time>2018-06-30T16:26:52.008Z</time>
      </trkpt>
      <trkpt lat="40.885056" lon="-4.020416">
        <ele>1150</ele>
        <time>2018-06-30T16:27:01.008Z</time>
      </trkpt>
      <trkpt lat="40.885015" lon="-4.0204">
        <ele>1150</ele>
        <time>2018-06-30T16:27:05.008Z</time>
      </trkpt>
      <trkpt lat="40.884967" lon="-4.020372">
        <ele>1150</ele>
        <time>2018-06-30T16:27:10.008Z</time>
      </trkpt>
      <trkpt lat="40.884893" lon="-4.020362">
        <ele>1150</ele>
        <time>2018-06-30T16:27:17.008Z</time>
      </trkpt>
      <trkpt lat="40.884833" lon="-4.020365">
        <ele>1150</ele>
        <time>2018-06-30T16:27:23.008Z</time>
      </trkpt>
      <trkpt lat="40.884779" lon="-4.020317">
        <ele>1150</ele>
        <time>2018-06-30T16:27:31.008Z</time>
      </trkpt>
      <trkpt lat="40.884757" lon="-4.020245">
        <ele>1150</ele>
        <time>2018-06-30T16:27:38.008Z</time>
      </trkpt>
      <trkpt lat="40.884712" lon="-4.020204">
        <ele>1151</ele>
        <time>2018-06-30T16:27:46.008Z</time>
      </trkpt>
      <trkpt lat="40.884649" lon="-4.020178">
        <ele>1152</ele>
        <time>2018-06-30T16:27:53.008Z</time>
      </trkpt>
      <trkpt lat="40.884565" lon="-4.020169">
        <ele>1152</ele>
        <time>2018-06-30T16:28:03.008Z</time>
      </trkpt>
      <trkpt lat="40.884496" lon="-4.020158">
        <ele>1152</ele>
        <time>2018-06-30T16:28:09.008Z</time>
      </trkpt>
      <trkpt lat="40.884445" lon="-4.020146">
        <ele>1153</ele>
        <time>2018-06-30T16:28:14.008Z</time>
      </trkpt>
      <trkpt lat="40.884386" lon="-4.020139">
        <ele>1153</ele>
        <time>2018-06-30T16:28:20.008Z</time>
      </trkpt>
      <trkpt lat="40.884322" lon="-4.020157">
        <ele>1154</ele>
        <time>2018-06-30T16:28:24.008Z</time>
      </trkpt>
      <trkpt lat="40.884247" lon="-4.020173">
        <ele>1154</ele>
        <time>2018-06-30T16:28:29.008Z</time>
      </trkpt>
      <trkpt lat="40.884187" lon="-4.02019">
        <ele>1154</ele>
        <time>2018-06-30T16:28:33.008Z</time>
      </trkpt>
      <trkpt lat="40.884131" lon="-4.020218">
        <ele>1154</ele>
        <time>2018-06-30T16:28:37.008Z</time>
      </trkpt>
      <trkpt lat="40.884087" lon="-4.020251">
        <ele>1154</ele>
        <time>2018-06-30T16:28:41.008Z</time>
      </trkpt>
      <trkpt lat="40.884044" lon="-4.020281">
        <ele>1154</ele>
        <time>2018-06-30T16:28:45.008Z</time>
      </trkpt>
      <trkpt lat="40.883987" lon="-4.020307">
        <ele>1154</ele>
        <time>2018-06-30T16:28:50.008Z</time>
      </trkpt>
      <trkpt lat="40.883932" lon="-4.020338">
        <ele>1154</ele>
        <time>2018-06-30T16:28:55.008Z</time>
      </trkpt>
      <trkpt lat="40.883895" lon="-4.020377">
        <ele>1154</ele>
        <time>2018-06-30T16:29:00.008Z</time>
      </trkpt>
      <trkpt lat="40.883875" lon="-4.020429">
        <ele>1156</ele>
        <time>2018-06-30T16:29:05.008Z</time>
      </trkpt>
      <trkpt lat="40.88384" lon="-4.020477">
        <ele>1156</ele>
        <time>2018-06-30T16:29:10.008Z</time>
      </trkpt>
      <trkpt lat="40.883815" lon="-4.020527">
        <ele>1156</ele>
        <time>2018-06-30T16:29:14.008Z</time>
      </trkpt>
      <trkpt lat="40.883787" lon="-4.020584">
        <ele>1156</ele>
        <time>2018-06-30T16:29:19.008Z</time>
      </trkpt>
      <trkpt lat="40.883739" lon="-4.020636">
        <ele>1156</ele>
        <time>2018-06-30T16:29:25.008Z</time>
      </trkpt>
      <trkpt lat="40.8837" lon="-4.020695">
        <ele>1156</ele>
        <time>2018-06-30T16:29:31.008Z</time>
      </trkpt>
      <trkpt lat="40.883646" lon="-4.020752">
        <ele>1156</ele>
        <time>2018-06-30T16:29:38.008Z</time>
      </trkpt>
      <trkpt lat="40.883582" lon="-4.020819">
        <ele>1156</ele>
        <time>2018-06-30T16:29:47.008Z</time>
      </trkpt>
      <trkpt lat="40.883509" lon="-4.020865">
        <ele>1156</ele>
        <time>2018-06-30T16:29:56.008Z</time>
      </trkpt>
      <trkpt lat="40.88343" lon="-4.020911">
        <ele>1156</ele>
        <time>2018-06-30T16:30:04.008Z</time>
      </trkpt>
      <trkpt lat="40.883374" lon="-4.020965">
        <ele>1156</ele>
        <time>2018-06-30T16:30:10.008Z</time>
      </trkpt>
      <trkpt lat="40.883306" lon="-4.020995">
        <ele>1156</ele>
        <time>2018-06-30T16:30:17.008Z</time>
      </trkpt>
      <trkpt lat="40.883227" lon="-4.020999">
        <ele>1156</ele>
        <time>2018-06-30T16:30:23.008Z</time>
      </trkpt>
      <trkpt lat="40.883151" lon="-4.021021">
        <ele>1156</ele>
        <time>2018-06-30T16:30:30.008Z</time>
      </trkpt>
      <trkpt lat="40.883076" lon="-4.021058">
        <ele>1157</ele>
        <time>2018-06-30T16:30:38.008Z</time>
      </trkpt>
      <trkpt lat="40.882996" lon="-4.021084">
        <ele>1157</ele>
        <time>2018-06-30T16:30:47.008Z</time>
      </trkpt>
      <trkpt lat="40.882924" lon="-4.021112">
        <ele>1157</ele>
        <time>2018-06-30T16:30:54.008Z</time>
      </trkpt>
      <trkpt lat="40.882844" lon="-4.021122">
        <ele>1157</ele>
        <time>2018-06-30T16:30:59.008Z</time>
      </trkpt>
      <trkpt lat="40.88279" lon="-4.021137">
        <ele>1158</ele>
        <time>2018-06-30T16:31:03.008Z</time>
      </trkpt>
      <trkpt lat="40.882753" lon="-4.02117">
        <ele>1158</ele>
        <time>2018-06-30T16:31:07.008Z</time>
      </trkpt>
      <trkpt lat="40.882719" lon="-4.021197">
        <ele>1158.58217902087</ele>
        <time>2018-06-30T16:31:11.008Z</time>
      </trkpt>
      <trkpt lat="40.882686" lon="-4.021223">
        <ele>1159</ele>
        <time>2018-06-30T16:31:16.008Z</time>
      </trkpt>
      <trkpt lat="40.882647" lon="-4.021245">
        <ele>1159</ele>
        <time>2018-06-30T16:31:20.008Z</time>
      </trkpt>
      <trkpt lat="40.882603" lon="-4.021282">
        <ele>1159</ele>
        <time>2018-06-30T16:31:25.008Z</time>
      </trkpt>
      <trkpt lat="40.882571" lon="-4.021317">
        <ele>1159</ele>
        <time>2018-06-30T16:31:29.008Z</time>
      </trkpt>
      <trkpt lat="40.882589" lon="-4.02136">
        <ele>1158</ele>
        <time>2018-06-30T16:31:41.008Z</time>
      </trkpt>
      <trkpt lat="40.882559" lon="-4.021389">
        <ele>1159</ele>
        <time>2018-06-30T16:32:21.008Z</time>
      </trkpt>
      <trkpt lat="40.882525" lon="-4.021408">
        <ele>1159</ele>
        <time>2018-06-30T16:32:24.008Z</time>
      </trkpt>
      <trkpt lat="40.882482" lon="-4.021432">
        <ele>1159</ele>
        <time>2018-06-30T16:32:28.008Z</time>
      </trkpt>
      <trkpt lat="40.88243" lon="-4.02148">
        <ele>1159</ele>
        <time>2018-06-30T16:32:34.008Z</time>
      </trkpt>
      <trkpt lat="40.882359" lon="-4.021513">
        <ele>1160</ele>
        <time>2018-06-30T16:32:42.008Z</time>
      </trkpt>
      <trkpt lat="40.8823" lon="-4.021534">
        <ele>1160</ele>
        <time>2018-06-30T16:32:50.008Z</time>
      </trkpt>
      <trkpt lat="40.882239" lon="-4.021551">
        <ele>1160</ele>
        <time>2018-06-30T16:32:55.008Z</time>
      </trkpt>
      <trkpt lat="40.882183" lon="-4.021555">
        <ele>1159.46545183737</ele>
        <time>2018-06-30T16:33:03.008Z</time>
      </trkpt>
      <trkpt lat="40.88212" lon="-4.021535">
        <ele>1159</ele>
        <time>2018-06-30T16:33:09.008Z</time>
      </trkpt>
      <trkpt lat="40.88206" lon="-4.021506">
        <ele>1159</ele>
        <time>2018-06-30T16:33:17.008Z</time>
      </trkpt>
      <trkpt lat="40.881996" lon="-4.021473">
        <ele>1159</ele>
        <time>2018-06-30T16:33:24.008Z</time>
      </trkpt>
      <trkpt lat="40.881927" lon="-4.021448">
        <ele>1159</ele>
        <time>2018-06-30T16:33:29.008Z</time>
      </trkpt>
      <trkpt lat="40.881862" lon="-4.021442">
        <ele>1160</ele>
        <time>2018-06-30T16:33:34.008Z</time>
      </trkpt>
      <trkpt lat="40.881787" lon="-4.021426">
        <ele>1160</ele>
        <time>2018-06-30T16:33:42.008Z</time>
      </trkpt>
      <trkpt lat="40.881724" lon="-4.021413">
        <ele>1160</ele>
        <time>2018-06-30T16:33:47.008Z</time>
      </trkpt>
      <trkpt lat="40.881671" lon="-4.021397">
        <ele>1160</ele>
        <time>2018-06-30T16:33:51.008Z</time>
      </trkpt>
      <trkpt lat="40.881618" lon="-4.02138">
        <ele>1160</ele>
        <time>2018-06-30T16:33:55.008Z</time>
      </trkpt>
      <trkpt lat="40.881578" lon="-4.02136">
        <ele>1160</ele>
        <time>2018-06-30T16:33:58.008Z</time>
      </trkpt>
      <trkpt lat="40.881523" lon="-4.021332">
        <ele>1160</ele>
        <time>2018-06-30T16:34:03.008Z</time>
      </trkpt>
      <trkpt lat="40.881477" lon="-4.021297">
        <ele>1160</ele>
        <time>2018-06-30T16:34:08.008Z</time>
      </trkpt>
      <trkpt lat="40.881445" lon="-4.021264">
        <ele>1160</ele>
        <time>2018-06-30T16:34:13.008Z</time>
      </trkpt>
      <trkpt lat="40.881402" lon="-4.021208">
        <ele>1160</ele>
        <time>2018-06-30T16:34:19.008Z</time>
      </trkpt>
      <trkpt lat="40.88136" lon="-4.02119">
        <ele>1161</ele>
        <time>2018-06-30T16:34:23.008Z</time>
      </trkpt>
      <trkpt lat="40.881313" lon="-4.02117">
        <ele>1161</ele>
        <time>2018-06-30T16:34:27.008Z</time>
      </trkpt>
      <trkpt lat="40.881269" lon="-4.021148">
        <ele>1161.57647324566</ele>
        <time>2018-06-30T16:34:31.008Z</time>
      </trkpt>
      <trkpt lat="40.881231" lon="-4.021127">
        <ele>1162</ele>
        <time>2018-06-30T16:34:34.008Z</time>
      </trkpt>
      <trkpt lat="40.881189" lon="-4.021096">
        <ele>1162</ele>
        <time>2018-06-30T16:34:38.008Z</time>
      </trkpt>
      <trkpt lat="40.881154" lon="-4.021076">
        <ele>1161.41782097913</ele>
        <time>2018-06-30T16:34:41.008Z</time>
      </trkpt>
      <trkpt lat="40.881107" lon="-4.021058">
        <ele>1161</ele>
        <time>2018-06-30T16:34:45.008Z</time>
      </trkpt>
      <trkpt lat="40.881062" lon="-4.021036">
        <ele>1161</ele>
        <time>2018-06-30T16:34:49.008Z</time>
      </trkpt>
      <trkpt lat="40.881021" lon="-4.021009">
        <ele>1160</ele>
        <time>2018-06-30T16:34:53.008Z</time>
      </trkpt>
      <trkpt lat="40.88098" lon="-4.020971">
        <ele>1160</ele>
        <time>2018-06-30T16:34:57.008Z</time>
      </trkpt>
      <trkpt lat="40.880937" lon="-4.020959">
        <ele>1160</ele>
        <time>2018-06-30T16:35:02.008Z</time>
      </trkpt>
      <trkpt lat="40.880898" lon="-4.02096">
        <ele>1160</ele>
        <time>2018-06-30T16:35:06.008Z</time>
      </trkpt>
      <trkpt lat="40.880857" lon="-4.020947">
        <ele>1160</ele>
        <time>2018-06-30T16:35:10.008Z</time>
      </trkpt>
      <trkpt lat="40.880817" lon="-4.02094">
        <ele>1162</ele>
        <time>2018-06-30T16:35:14.008Z</time>
      </trkpt>
      <trkpt lat="40.880767" lon="-4.020934">
        <ele>1162</ele>
        <time>2018-06-30T16:35:18.008Z</time>
      </trkpt>
      <trkpt lat="40.88073" lon="-4.020924">
        <ele>1162.53454816263</ele>
        <time>2018-06-30T16:35:21.008Z</time>
      </trkpt>
      <trkpt lat="40.880691" lon="-4.020916">
        <ele>1163</ele>
        <time>2018-06-30T16:35:24.008Z</time>
      </trkpt>
      <trkpt lat="40.880644" lon="-4.0209">
        <ele>1163</ele>
        <time>2018-06-30T16:35:28.008Z</time>
      </trkpt>
      <trkpt lat="40.880621" lon="-4.020886">
        <ele>1163</ele>
        <time>2018-06-30T16:35:30.008Z</time>
      </trkpt>
      <trkpt lat="40.880576" lon="-4.020868">
        <ele>1162</ele>
        <time>2018-06-30T16:35:34.008Z</time>
      </trkpt>
      <trkpt lat="40.88054" lon="-4.020854">
        <ele>1162</ele>
        <time>2018-06-30T16:35:38.008Z</time>
      </trkpt>
      <trkpt lat="40.8805" lon="-4.020836">
        <ele>1162</ele>
        <time>2018-06-30T16:35:43.008Z</time>
      </trkpt>
      <trkpt lat="40.88045" lon="-4.020821">
        <ele>1162</ele>
        <time>2018-06-30T16:35:48.008Z</time>
      </trkpt>
      <trkpt lat="40.880386" lon="-4.020821">
        <ele>1163</ele>
        <time>2018-06-30T16:35:57.008Z</time>
      </trkpt>
      <trkpt lat="40.880334" lon="-4.020842">
        <ele>1164</ele>
        <time>2018-06-30T16:36:03.008Z</time>
      </trkpt>
      <trkpt lat="40.880277" lon="-4.020845">
        <ele>1166</ele>
        <time>2018-06-30T16:36:12.008Z</time>
      </trkpt>
      <trkpt lat="40.88024" lon="-4.02085">
        <ele>1166</ele>
        <time>2018-06-30T16:36:17.008Z</time>
      </trkpt>
      <trkpt lat="40.880204" lon="-4.020865">
        <ele>1166.53454816263</ele>
        <time>2018-06-30T16:36:21.008Z</time>
      </trkpt>
      <trkpt lat="40.880168" lon="-4.020882">
        <ele>1167</ele>
        <time>2018-06-30T16:36:25.008Z</time>
      </trkpt>
      <trkpt lat="40.880128" lon="-4.020868">
        <ele>1167</ele>
        <time>2018-06-30T16:36:30.008Z</time>
      </trkpt>
      <trkpt lat="40.880082" lon="-4.020889">
        <ele>1167</ele>
        <time>2018-06-30T16:36:36.008Z</time>
      </trkpt>
      <trkpt lat="40.88004" lon="-4.020911">
        <ele>1168</ele>
        <time>2018-06-30T16:36:42.008Z</time>
      </trkpt>
      <trkpt lat="40.879993" lon="-4.02093">
        <ele>1168</ele>
        <time>2018-06-30T16:36:47.008Z</time>
      </trkpt>
      <trkpt lat="40.879949" lon="-4.020943">
        <ele>1170</ele>
        <time>2018-06-30T16:36:52.008Z</time>
      </trkpt>
      <trkpt lat="40.879894" lon="-4.020967">
        <ele>1170</ele>
        <time>2018-06-30T16:36:59.008Z</time>
      </trkpt>
      <trkpt lat="40.879855" lon="-4.020988">
        <ele>1170</ele>
        <time>2018-06-30T16:37:04.008Z</time>
      </trkpt>
      <trkpt lat="40.879809" lon="-4.021">
        <ele>1170.58217902087</ele>
        <time>2018-06-30T16:37:11.008Z</time>
      </trkpt>
      <trkpt lat="40.879818" lon="-4.021034">
        <ele>1171</ele>
        <time>2018-06-30T16:37:18.008Z</time>
      </trkpt>
      <trkpt lat="40.879823" lon="-4.021077">
        <ele>1173</ele>
        <time>2018-06-30T16:37:22.008Z</time>
      </trkpt>
      <trkpt lat="40.879821" lon="-4.021117">
        <ele>1173</ele>
        <time>2018-06-30T16:37:26.008Z</time>
      </trkpt>
      <trkpt lat="40.879818" lon="-4.021151">
        <ele>1173</ele>
        <time>2018-06-30T16:37:30.008Z</time>
      </trkpt>
      <trkpt lat="40.879791" lon="-4.021173">
        <ele>1175</ele>
        <time>2018-06-30T16:37:34.008Z</time>
      </trkpt>
      <trkpt lat="40.879765" lon="-4.021188">
        <ele>1175</ele>
        <time>2018-06-30T16:37:38.008Z</time>
      </trkpt>
      <trkpt lat="40.879741" lon="-4.021197">
        <ele>1175</ele>
        <time>2018-06-30T16:37:42.008Z</time>
      </trkpt>
      <trkpt lat="40.87971" lon="-4.02118">
        <ele>1175</ele>
        <time>2018-06-30T16:37:46.008Z</time>
      </trkpt>
      <trkpt lat="40.879678" lon="-4.021161">
        <ele>1175</ele>
        <time>2018-06-30T16:37:50.008Z</time>
      </trkpt>
      <trkpt lat="40.879645" lon="-4.021146">
        <ele>1175</ele>
        <time>2018-06-30T16:37:53.008Z</time>
      </trkpt>
      <trkpt lat="40.879603" lon="-4.021135">
        <ele>1175</ele>
        <time>2018-06-30T16:37:57.008Z</time>
      </trkpt>
      <trkpt lat="40.879559" lon="-4.021148">
        <ele>1175</ele>
        <time>2018-06-30T16:38:01.008Z</time>
      </trkpt>
      <trkpt lat="40.879524" lon="-4.021153">
        <ele>1175</ele>
        <time>2018-06-30T16:38:04.008Z</time>
      </trkpt>
      <trkpt lat="40.879503" lon="-4.021159">
        <ele>1175</ele>
        <time>2018-06-30T16:38:06.008Z</time>
      </trkpt>
      <trkpt lat="40.879457" lon="-4.021167">
        <ele>1175</ele>
        <time>2018-06-30T16:38:10.008Z</time>
      </trkpt>
      <trkpt lat="40.87942" lon="-4.021166">
        <ele>1176</ele>
        <time>2018-06-30T16:38:13.008Z</time>
      </trkpt>
      <trkpt lat="40.879381" lon="-4.021169">
        <ele>1176</ele>
        <time>2018-06-30T16:38:16.008Z</time>
      </trkpt>
      <trkpt lat="40.87935" lon="-4.021169">
        <ele>1176</ele>
        <time>2018-06-30T16:38:19.008Z</time>
      </trkpt>
      <trkpt lat="40.879314" lon="-4.02117">
        <ele>1176</ele>
        <time>2018-06-30T16:38:22.008Z</time>
      </trkpt>
      <trkpt lat="40.879278" lon="-4.021166">
        <ele>1176</ele>
        <time>2018-06-30T16:38:25.008Z</time>
      </trkpt>
      <trkpt lat="40.879256" lon="-4.021163">
        <ele>1176</ele>
        <time>2018-06-30T16:38:27.008Z</time>
      </trkpt>
      <trkpt lat="40.879209" lon="-4.021158">
        <ele>1176</ele>
        <time>2018-06-30T16:38:31.008Z</time>
      </trkpt>
      <trkpt lat="40.879165" lon="-4.02116">
        <ele>1176</ele>
        <time>2018-06-30T16:38:35.008Z</time>
      </trkpt>
      <trkpt lat="40.879135" lon="-4.02115">
        <ele>1176</ele>
        <time>2018-06-30T16:38:38.008Z</time>
      </trkpt>
      <trkpt lat="40.879096" lon="-4.021091">
        <ele>1176</ele>
        <time>2018-06-30T16:38:44.008Z</time>
      </trkpt>
      <trkpt lat="40.879052" lon="-4.021034">
        <ele>1176</ele>
        <time>2018-06-30T16:38:49.008Z</time>
      </trkpt>
      <trkpt lat="40.878992" lon="-4.021">
        <ele>1174</ele>
        <time>2018-06-30T16:38:55.008Z</time>
      </trkpt>
      <trkpt lat="40.878935" lon="-4.020969">
        <ele>1172.8582435472</ele>
        <time>2018-06-30T16:39:01.008Z</time>
      </trkpt>
      <trkpt lat="40.878864" lon="-4.020966">
        <ele>1172</ele>
        <time>2018-06-30T16:39:08.008Z</time>
      </trkpt>
      <trkpt lat="40.878816" lon="-4.020953">
        <ele>1172</ele>
        <time>2018-06-30T16:39:12.008Z</time>
      </trkpt>
      <trkpt lat="40.878742" lon="-4.020971">
        <ele>1172</ele>
        <time>2018-06-30T16:39:18.008Z</time>
      </trkpt>
      <trkpt lat="40.878692" lon="-4.020987">
        <ele>1173</ele>
        <time>2018-06-30T16:39:23.008Z</time>
      </trkpt>
      <trkpt lat="40.878636" lon="-4.020979">
        <ele>1173</ele>
        <time>2018-06-30T16:39:28.008Z</time>
      </trkpt>
      <trkpt lat="40.878571" lon="-4.020996">
        <ele>1174</ele>
        <time>2018-06-30T16:39:34.008Z</time>
      </trkpt>
      <trkpt lat="40.87853" lon="-4.02101">
        <ele>1174</ele>
        <time>2018-06-30T16:39:38.008Z</time>
      </trkpt>
      <trkpt lat="40.878483" lon="-4.021008">
        <ele>1174</ele>
        <time>2018-06-30T16:39:42.008Z</time>
      </trkpt>
      <trkpt lat="40.878426" lon="-4.021022">
        <ele>1174</ele>
        <time>2018-06-30T16:39:47.008Z</time>
      </trkpt>
      <trkpt lat="40.878367" lon="-4.021008">
        <ele>1174</ele>
        <time>2018-06-30T16:39:52.008Z</time>
      </trkpt>
      <trkpt lat="40.878299" lon="-4.021009">
        <ele>1174</ele>
        <time>2018-06-30T16:39:58.008Z</time>
      </trkpt>
      <trkpt lat="40.878242" lon="-4.021037">
        <ele>1173</ele>
        <time>2018-06-30T16:40:03.008Z</time>
      </trkpt>
      <trkpt lat="40.878198" lon="-4.02106">
        <ele>1173</ele>
        <time>2018-06-30T16:40:07.008Z</time>
      </trkpt>
      <trkpt lat="40.878148" lon="-4.021093">
        <ele>1175</ele>
        <time>2018-06-30T16:40:12.008Z</time>
      </trkpt>
      <trkpt lat="40.878116" lon="-4.021115">
        <ele>1175</ele>
        <time>2018-06-30T16:40:15.008Z</time>
      </trkpt>
      <trkpt lat="40.87808" lon="-4.021145">
        <ele>1175</ele>
        <time>2018-06-30T16:40:19.008Z</time>
      </trkpt>
      <trkpt lat="40.878038" lon="-4.021178">
        <ele>1175</ele>
        <time>2018-06-30T16:40:24.008Z</time>
      </trkpt>
      <trkpt lat="40.878003" lon="-4.021212">
        <ele>1175</ele>
        <time>2018-06-30T16:40:29.008Z</time>
      </trkpt>
      <trkpt lat="40.877966" lon="-4.02125">
        <ele>1175</ele>
        <time>2018-06-30T16:40:34.008Z</time>
      </trkpt>
      <trkpt lat="40.877924" lon="-4.021298">
        <ele>1175</ele>
        <time>2018-06-30T16:40:40.008Z</time>
      </trkpt>
      <trkpt lat="40.877884" lon="-4.02133">
        <ele>1177</ele>
        <time>2018-06-30T16:40:45.008Z</time>
      </trkpt>
      <trkpt lat="40.877848" lon="-4.02135">
        <ele>1177</ele>
        <time>2018-06-30T16:40:49.008Z</time>
      </trkpt>
      <trkpt lat="40.877814" lon="-4.021375">
        <ele>1178</ele>
        <time>2018-06-30T16:40:53.008Z</time>
      </trkpt>
      <trkpt lat="40.877782" lon="-4.021405">
        <ele>1178</ele>
        <time>2018-06-30T16:40:57.008Z</time>
      </trkpt>
      <trkpt lat="40.877747" lon="-4.021432">
        <ele>1178.57647324566</ele>
        <time>2018-06-30T16:41:01.008Z</time>
      </trkpt>
      <trkpt lat="40.877717" lon="-4.021482">
        <ele>1179</ele>
        <time>2018-06-30T16:41:06.008Z</time>
      </trkpt>
      <trkpt lat="40.877706" lon="-4.021537">
        <ele>1180.15294649132</ele>
        <time>2018-06-30T16:41:11.008Z</time>
      </trkpt>
      <trkpt lat="40.877682" lon="-4.021588">
        <ele>1181</ele>
        <time>2018-06-30T16:41:16.008Z</time>
      </trkpt>
      <trkpt lat="40.877669" lon="-4.021651">
        <ele>1182.06909632526</ele>
        <time>2018-06-30T16:41:21.008Z</time>
      </trkpt>
      <trkpt lat="40.877664" lon="-4.021716">
        <ele>1183</ele>
        <time>2018-06-30T16:41:26.008Z</time>
      </trkpt>
      <trkpt lat="40.877663" lon="-4.021782">
        <ele>1183.57647324566</ele>
        <time>2018-06-30T16:41:31.008Z</time>
      </trkpt>
      <trkpt lat="40.877663" lon="-4.021833">
        <ele>1184</ele>
        <time>2018-06-30T16:41:35.008Z</time>
      </trkpt>
      <trkpt lat="40.877663" lon="-4.021873">
        <ele>1184</ele>
        <time>2018-06-30T16:41:38.008Z</time>
      </trkpt>
      <trkpt lat="40.877656" lon="-4.021912">
        <ele>1184</ele>
        <time>2018-06-30T16:41:41.008Z</time>
      </trkpt>
      <trkpt lat="40.877647" lon="-4.021951">
        <ele>1184</ele>
        <time>2018-06-30T16:41:44.008Z</time>
      </trkpt>
      <trkpt lat="40.877627" lon="-4.021999">
        <ele>1184</ele>
        <time>2018-06-30T16:41:48.008Z</time>
      </trkpt>
      <trkpt lat="40.877596" lon="-4.022041">
        <ele>1184</ele>
        <time>2018-06-30T16:41:52.008Z</time>
      </trkpt>
      <trkpt lat="40.877579" lon="-4.022081">
        <ele>1184</ele>
        <time>2018-06-30T16:41:55.008Z</time>
      </trkpt>
      <trkpt lat="40.877561" lon="-4.022121">
        <ele>1184</ele>
        <time>2018-06-30T16:41:58.008Z</time>
      </trkpt>
      <trkpt lat="40.877546" lon="-4.022162">
        <ele>1182.27058026303</ele>
        <time>2018-06-30T16:42:01.008Z</time>
      </trkpt>
      <trkpt lat="40.877533" lon="-4.022226">
        <ele>1181</ele>
        <time>2018-06-30T16:42:05.008Z</time>
      </trkpt>
      <trkpt lat="40.877523" lon="-4.022274">
        <ele>1181</ele>
        <time>2018-06-30T16:42:08.008Z</time>
      </trkpt>
      <trkpt lat="40.877505" lon="-4.022319">
        <ele>1181</ele>
        <time>2018-06-30T16:42:11.008Z</time>
      </trkpt>
      <trkpt lat="40.877492" lon="-4.022365">
        <ele>1181</ele>
        <time>2018-06-30T16:42:14.008Z</time>
      </trkpt>
      <trkpt lat="40.877479" lon="-4.022409">
        <ele>1181</ele>
        <time>2018-06-30T16:42:17.008Z</time>
      </trkpt>
      <trkpt lat="40.877461" lon="-4.022446">
        <ele>1181</ele>
        <time>2018-06-30T16:42:20.008Z</time>
      </trkpt>
      <trkpt lat="40.87743" lon="-4.022513">
        <ele>1180</ele>
        <time>2018-06-30T16:42:25.008Z</time>
      </trkpt>
      <trkpt lat="40.877405" lon="-4.022567">
        <ele>1180</ele>
        <time>2018-06-30T16:42:29.008Z</time>
      </trkpt>
      <trkpt lat="40.877391" lon="-4.022627">
        <ele>1179</ele>
        <time>2018-06-30T16:42:33.008Z</time>
      </trkpt>
      <trkpt lat="40.877392" lon="-4.022696">
        <ele>1179</ele>
        <time>2018-06-30T16:42:37.008Z</time>
      </trkpt>
      <trkpt lat="40.877396" lon="-4.022763">
        <ele>1178.4220032</ele>
        <time>2018-06-30T16:42:41.008Z</time>
      </trkpt>
      <trkpt lat="40.877395" lon="-4.022823">
        <ele>1178</ele>
        <time>2018-06-30T16:42:45.008Z</time>
      </trkpt>
      <trkpt lat="40.877395" lon="-4.022881">
        <ele>1178</ele>
        <time>2018-06-30T16:42:49.008Z</time>
      </trkpt>
      <trkpt lat="40.877398" lon="-4.022927">
        <ele>1178</ele>
        <time>2018-06-30T16:42:52.008Z</time>
      </trkpt>
      <trkpt lat="40.877403" lon="-4.022973">
        <ele>1178</ele>
        <time>2018-06-30T16:42:55.008Z</time>
      </trkpt>
      <trkpt lat="40.877403" lon="-4.023004">
        <ele>1178</ele>
        <time>2018-06-30T16:42:57.008Z</time>
      </trkpt>
      <trkpt lat="40.877398" lon="-4.023061">
        <ele>1178.57647324566</ele>
        <time>2018-06-30T16:43:01.008Z</time>
      </trkpt>
      <trkpt lat="40.877392" lon="-4.023118">
        <ele>1179</ele>
        <time>2018-06-30T16:43:05.008Z</time>
      </trkpt>
      <trkpt lat="40.877388" lon="-4.023172">
        <ele>1179</ele>
        <time>2018-06-30T16:43:09.008Z</time>
      </trkpt>
      <trkpt lat="40.877382" lon="-4.023229">
        <ele>1180</ele>
        <time>2018-06-30T16:43:13.008Z</time>
      </trkpt>
      <trkpt lat="40.877374" lon="-4.023281">
        <ele>1180</ele>
        <time>2018-06-30T16:43:17.008Z</time>
      </trkpt>
      <trkpt lat="40.87737" lon="-4.023336">
        <ele>1180</ele>
        <time>2018-06-30T16:43:21.008Z</time>
      </trkpt>
      <trkpt lat="40.877368" lon="-4.02339">
        <ele>1180</ele>
        <time>2018-06-30T16:43:25.008Z</time>
      </trkpt>
      <trkpt lat="40.87736" lon="-4.023448">
        <ele>1180</ele>
        <time>2018-06-30T16:43:29.008Z</time>
      </trkpt>
      <trkpt lat="40.877354" lon="-4.023506">
        <ele>1181</ele>
        <time>2018-06-30T16:43:33.008Z</time>
      </trkpt>
      <trkpt lat="40.87735" lon="-4.023563">
        <ele>1181</ele>
        <time>2018-06-30T16:43:37.008Z</time>
      </trkpt>
      <trkpt lat="40.877344" lon="-4.023617">
        <ele>1181</ele>
        <time>2018-06-30T16:43:41.008Z</time>
      </trkpt>
      <trkpt lat="40.877334" lon="-4.023674">
        <ele>1181</ele>
        <time>2018-06-30T16:43:45.008Z</time>
      </trkpt>
      <trkpt lat="40.877342" lon="-4.023724">
        <ele>1181</ele>
        <time>2018-06-30T16:43:49.008Z</time>
      </trkpt>
      <trkpt lat="40.877332" lon="-4.02377">
        <ele>1182</ele>
        <time>2018-06-30T16:43:53.008Z</time>
      </trkpt>
      <trkpt lat="40.877307" lon="-4.023815">
        <ele>1182</ele>
        <time>2018-06-30T16:43:57.008Z</time>
      </trkpt>
      <trkpt lat="40.877287" lon="-4.023863">
        <ele>1182.57647324566</ele>
        <time>2018-06-30T16:44:01.008Z</time>
      </trkpt>
      <trkpt lat="40.877257" lon="-4.023882">
        <ele>1183</ele>
        <time>2018-06-30T16:44:05.008Z</time>
      </trkpt>
      <trkpt lat="40.87722" lon="-4.023873">
        <ele>1183</ele>
        <time>2018-06-30T16:44:09.008Z</time>
      </trkpt>
      <trkpt lat="40.877179" lon="-4.023859">
        <ele>1183</ele>
        <time>2018-06-30T16:44:13.008Z</time>
      </trkpt>
      <trkpt lat="40.877138" lon="-4.023843">
        <ele>1183</ele>
        <time>2018-06-30T16:44:17.008Z</time>
      </trkpt>
      <trkpt lat="40.877107" lon="-4.023829">
        <ele>1183</ele>
        <time>2018-06-30T16:44:20.008Z</time>
      </trkpt>
      <trkpt lat="40.877076" lon="-4.023816">
        <ele>1183</ele>
        <time>2018-06-30T16:44:23.008Z</time>
      </trkpt>
      <trkpt lat="40.877036" lon="-4.023806">
        <ele>1183</ele>
        <time>2018-06-30T16:44:27.008Z</time>
      </trkpt>
      <trkpt lat="40.876991" lon="-4.023794">
        <ele>1183.57647324566</ele>
        <time>2018-06-30T16:44:31.008Z</time>
      </trkpt>
      <trkpt lat="40.876948" lon="-4.02378">
        <ele>1184</ele>
        <time>2018-06-30T16:44:35.008Z</time>
      </trkpt>
      <trkpt lat="40.876904" lon="-4.023763">
        <ele>1184</ele>
        <time>2018-06-30T16:44:39.008Z</time>
      </trkpt>
      <trkpt lat="40.87686" lon="-4.023746">
        <ele>1184</ele>
        <time>2018-06-30T16:44:43.008Z</time>
      </trkpt>
      <trkpt lat="40.876824" lon="-4.023731">
        <ele>1184</ele>
        <time>2018-06-30T16:44:46.008Z</time>
      </trkpt>
      <trkpt lat="40.876784" lon="-4.023733">
        <ele>1184</ele>
        <time>2018-06-30T16:44:49.008Z</time>
      </trkpt>
      <trkpt lat="40.876741" lon="-4.023749">
        <ele>1184</ele>
        <time>2018-06-30T16:44:53.008Z</time>
      </trkpt>
      <trkpt lat="40.8767" lon="-4.023726">
        <ele>1184</ele>
        <time>2018-06-30T16:44:57.008Z</time>
      </trkpt>
      <trkpt lat="40.876658" lon="-4.023696">
        <ele>1183.42352675434</ele>
        <time>2018-06-30T16:45:01.008Z</time>
      </trkpt>
      <trkpt lat="40.876618" lon="-4.023666">
        <ele>1183</ele>
        <time>2018-06-30T16:45:05.008Z</time>
      </trkpt>
      <trkpt lat="40.876582" lon="-4.023634">
        <ele>1183</ele>
        <time>2018-06-30T16:45:09.008Z</time>
      </trkpt>
      <trkpt lat="40.876544" lon="-4.023601">
        <ele>1183</ele>
        <time>2018-06-30T16:45:13.008Z</time>
      </trkpt>
      <trkpt lat="40.876512" lon="-4.023556">
        <ele>1183</ele>
        <time>2018-06-30T16:45:17.008Z</time>
      </trkpt>
      <trkpt lat="40.876482" lon="-4.02351">
        <ele>1183</ele>
        <time>2018-06-30T16:45:21.008Z</time>
      </trkpt>
      <trkpt lat="40.876454" lon="-4.023464">
        <ele>1183</ele>
        <time>2018-06-30T16:45:25.008Z</time>
      </trkpt>
      <trkpt lat="40.876426" lon="-4.023418">
        <ele>1183</ele>
        <time>2018-06-30T16:45:29.008Z</time>
      </trkpt>
      <trkpt lat="40.876388" lon="-4.023345">
        <ele>1183</ele>
        <time>2018-06-30T16:45:35.008Z</time>
      </trkpt>
      <trkpt lat="40.876328" lon="-4.023285">
        <ele>1183</ele>
        <time>2018-06-30T16:45:42.008Z</time>
      </trkpt>
      <trkpt lat="40.87627" lon="-4.023248">
        <ele>1183</ele>
        <time>2018-06-30T16:45:48.008Z</time>
      </trkpt>
      <trkpt lat="40.876218" lon="-4.023221">
        <ele>1185</ele>
        <time>2018-06-30T16:45:53.008Z</time>
      </trkpt>
      <trkpt lat="40.87618" lon="-4.023192">
        <ele>1185</ele>
        <time>2018-06-30T16:45:57.008Z</time>
      </trkpt>
      <trkpt lat="40.876142" lon="-4.023163">
        <ele>1184.42352675434</ele>
        <time>2018-06-30T16:46:01.008Z</time>
      </trkpt>
      <trkpt lat="40.876091" lon="-4.023135">
        <ele>1184</ele>
        <time>2018-06-30T16:46:06.008Z</time>
      </trkpt>
      <trkpt lat="40.876049" lon="-4.023112">
        <ele>1184</ele>
        <time>2018-06-30T16:46:10.008Z</time>
      </trkpt>
      <trkpt lat="40.876009" lon="-4.023094">
        <ele>1184</ele>
        <time>2018-06-30T16:46:14.008Z</time>
      </trkpt>
      <trkpt lat="40.875966" lon="-4.023085">
        <ele>1184</ele>
        <time>2018-06-30T16:46:18.008Z</time>
      </trkpt>
      <trkpt lat="40.875919" lon="-4.023083">
        <ele>1185</ele>
        <time>2018-06-30T16:46:22.008Z</time>
      </trkpt>
      <trkpt lat="40.875871" lon="-4.023088">
        <ele>1185</ele>
        <time>2018-06-30T16:46:26.008Z</time>
      </trkpt>
      <trkpt lat="40.875815" lon="-4.023096">
        <ele>1185.57647324566</ele>
        <time>2018-06-30T16:46:31.008Z</time>
      </trkpt>
      <trkpt lat="40.875768" lon="-4.023105">
        <ele>1186</ele>
        <time>2018-06-30T16:46:35.008Z</time>
      </trkpt>
      <trkpt lat="40.875721" lon="-4.023121">
        <ele>1186</ele>
        <time>2018-06-30T16:46:39.008Z</time>
      </trkpt>
      <trkpt lat="40.875672" lon="-4.02313">
        <ele>1186</ele>
        <time>2018-06-30T16:46:43.008Z</time>
      </trkpt>
      <trkpt lat="40.875617" lon="-4.023149">
        <ele>1186</ele>
        <time>2018-06-30T16:46:48.008Z</time>
      </trkpt>
      <trkpt lat="40.875564" lon="-4.023169">
        <ele>1187</ele>
        <time>2018-06-30T16:46:53.008Z</time>
      </trkpt>
      <trkpt lat="40.875513" lon="-4.023199">
        <ele>1187</ele>
        <time>2018-06-30T16:46:58.008Z</time>
      </trkpt>
      <trkpt lat="40.875462" lon="-4.023225">
        <ele>1187</ele>
        <time>2018-06-30T16:47:03.008Z</time>
      </trkpt>
      <trkpt lat="40.875414" lon="-4.023245">
        <ele>1187</ele>
        <time>2018-06-30T16:47:07.008Z</time>
      </trkpt>
      <trkpt lat="40.875365" lon="-4.023254">
        <ele>1187.57647324566</ele>
        <time>2018-06-30T16:47:11.008Z</time>
      </trkpt>
      <trkpt lat="40.875322" lon="-4.023264">
        <ele>1188</ele>
        <time>2018-06-30T16:47:15.008Z</time>
      </trkpt>
      <trkpt lat="40.875262" lon="-4.02328">
        <ele>1188</ele>
        <time>2018-06-30T16:47:20.008Z</time>
      </trkpt>
      <trkpt lat="40.875216" lon="-4.023282">
        <ele>1189</ele>
        <time>2018-06-30T16:47:24.008Z</time>
      </trkpt>
      <trkpt lat="40.87518" lon="-4.023282">
        <ele>1189</ele>
        <time>2018-06-30T16:47:27.008Z</time>
      </trkpt>
      <trkpt lat="40.875135" lon="-4.023286">
        <ele>1189</ele>
        <time>2018-06-30T16:47:31.008Z</time>
      </trkpt>
      <trkpt lat="40.875088" lon="-4.023296">
        <ele>1189</ele>
        <time>2018-06-30T16:47:35.008Z</time>
      </trkpt>
      <trkpt lat="40.87504" lon="-4.023298">
        <ele>1189</ele>
        <time>2018-06-30T16:47:39.008Z</time>
      </trkpt>
      <trkpt lat="40.87498" lon="-4.023301">
        <ele>1189</ele>
        <time>2018-06-30T16:47:44.008Z</time>
      </trkpt>
      <trkpt lat="40.874921" lon="-4.023304">
        <ele>1189</ele>
        <time>2018-06-30T16:47:49.008Z</time>
      </trkpt>
      <trkpt lat="40.874875" lon="-4.023314">
        <ele>1188</ele>
        <time>2018-06-30T16:47:53.008Z</time>
      </trkpt>
      <trkpt lat="40.87482" lon="-4.023317">
        <ele>1188</ele>
        <time>2018-06-30T16:47:58.008Z</time>
      </trkpt>
      <trkpt lat="40.874764" lon="-4.023321">
        <ele>1189</ele>
        <time>2018-06-30T16:48:03.008Z</time>
      </trkpt>
      <trkpt lat="40.874714" lon="-4.023328">
        <ele>1189</ele>
        <time>2018-06-30T16:48:08.008Z</time>
      </trkpt>
      <trkpt lat="40.874667" lon="-4.023327">
        <ele>1189</ele>
        <time>2018-06-30T16:48:12.008Z</time>
      </trkpt>
      <trkpt lat="40.874619" lon="-4.023332">
        <ele>1189</ele>
        <time>2018-06-30T16:48:16.008Z</time>
      </trkpt>
      <trkpt lat="40.874552" lon="-4.023341">
        <ele>1189</ele>
        <time>2018-06-30T16:48:22.008Z</time>
      </trkpt>
      <trkpt lat="40.874498" lon="-4.023355">
        <ele>1189</ele>
        <time>2018-06-30T16:48:27.008Z</time>
      </trkpt>
      <trkpt lat="40.874446" lon="-4.023363">
        <ele>1190</ele>
        <time>2018-06-30T16:48:32.008Z</time>
      </trkpt>
      <trkpt lat="40.874401" lon="-4.023372">
        <ele>1190</ele>
        <time>2018-06-30T16:48:36.008Z</time>
      </trkpt>
      <trkpt lat="40.874351" lon="-4.023383">
        <ele>1190.58217902087</ele>
        <time>2018-06-30T16:48:41.008Z</time>
      </trkpt>
      <trkpt lat="40.874298" lon="-4.023389">
        <ele>1191</ele>
        <time>2018-06-30T16:48:46.008Z</time>
      </trkpt>
      <trkpt lat="40.874239" lon="-4.023397">
        <ele>1191</ele>
        <time>2018-06-30T16:48:51.008Z</time>
      </trkpt>
      <trkpt lat="40.874184" lon="-4.023397">
        <ele>1191</ele>
        <time>2018-06-30T16:48:56.008Z</time>
      </trkpt>
      <trkpt lat="40.874128" lon="-4.023396">
        <ele>1191.57647324566</ele>
        <time>2018-06-30T16:49:01.008Z</time>
      </trkpt>
      <trkpt lat="40.874095" lon="-4.023389">
        <ele>1192</ele>
        <time>2018-06-30T16:49:04.008Z</time>
      </trkpt>
      <trkpt lat="40.874064" lon="-4.023385">
        <ele>1192</ele>
        <time>2018-06-30T16:49:07.008Z</time>
      </trkpt>
      <trkpt lat="40.87404" lon="-4.023384">
        <ele>1192</ele>
        <time>2018-06-30T16:49:09.008Z</time>
      </trkpt>
      <trkpt lat="40.873996" lon="-4.02338">
        <ele>1193</ele>
        <time>2018-06-30T16:49:13.008Z</time>
      </trkpt>
      <trkpt lat="40.873962" lon="-4.023377">
        <ele>1193</ele>
        <time>2018-06-30T16:49:16.008Z</time>
      </trkpt>
      <trkpt lat="40.873917" lon="-4.023372">
        <ele>1193</ele>
        <time>2018-06-30T16:49:20.008Z</time>
      </trkpt>
      <trkpt lat="40.873873" lon="-4.023354">
        <ele>1193</ele>
        <time>2018-06-30T16:49:24.008Z</time>
      </trkpt>
      <trkpt lat="40.873808" lon="-4.023327">
        <ele>1193</ele>
        <time>2018-06-30T16:49:30.008Z</time>
      </trkpt>
      <trkpt lat="40.873764" lon="-4.023312">
        <ele>1194</ele>
        <time>2018-06-30T16:49:34.008Z</time>
      </trkpt>
      <trkpt lat="40.873707" lon="-4.023301">
        <ele>1194</ele>
        <time>2018-06-30T16:49:39.008Z</time>
      </trkpt>
      <trkpt lat="40.873665" lon="-4.023311">
        <ele>1195</ele>
        <time>2018-06-30T16:49:43.008Z</time>
      </trkpt>
      <trkpt lat="40.873611" lon="-4.023318">
        <ele>1195</ele>
        <time>2018-06-30T16:49:48.008Z</time>
      </trkpt>
      <trkpt lat="40.873567" lon="-4.023325">
        <ele>1195</ele>
        <time>2018-06-30T16:49:52.008Z</time>
      </trkpt>
      <trkpt lat="40.873509" lon="-4.023332">
        <ele>1195</ele>
        <time>2018-06-30T16:49:57.008Z</time>
      </trkpt>
      <trkpt lat="40.873455" lon="-4.023346">
        <ele>1195</ele>
        <time>2018-06-30T16:50:02.008Z</time>
      </trkpt>
      <trkpt lat="40.873409" lon="-4.023363">
        <ele>1195</ele>
        <time>2018-06-30T16:50:06.008Z</time>
      </trkpt>
      <trkpt lat="40.873362" lon="-4.023385">
        <ele>1195</ele>
        <time>2018-06-30T16:50:10.008Z</time>
      </trkpt>
      <trkpt lat="40.873319" lon="-4.023408">
        <ele>1195</ele>
        <time>2018-06-30T16:50:14.008Z</time>
      </trkpt>
      <trkpt lat="40.87328" lon="-4.02342">
        <ele>1195</ele>
        <time>2018-06-30T16:50:18.008Z</time>
      </trkpt>
      <trkpt lat="40.873243" lon="-4.023446">
        <ele>1196</ele>
        <time>2018-06-30T16:50:36.008Z</time>
      </trkpt>
      <trkpt lat="40.873211" lon="-4.023485">
        <ele>1196</ele>
        <time>2018-06-30T16:50:40.008Z</time>
      </trkpt>
      <trkpt lat="40.873159" lon="-4.023505">
        <ele>1196</ele>
        <time>2018-06-30T16:50:45.008Z</time>
      </trkpt>
      <trkpt lat="40.873096" lon="-4.023528">
        <ele>1196</ele>
        <time>2018-06-30T16:50:51.008Z</time>
      </trkpt>
      <trkpt lat="40.873045" lon="-4.023564">
        <ele>1196</ele>
        <time>2018-06-30T16:50:57.008Z</time>
      </trkpt>
      <trkpt lat="40.872996" lon="-4.023609">
        <ele>1195</ele>
        <time>2018-06-30T16:51:02.008Z</time>
      </trkpt>
      <trkpt lat="40.872922" lon="-4.02364">
        <ele>1195</ele>
        <time>2018-06-30T16:51:09.008Z</time>
      </trkpt>
      <trkpt lat="40.872869" lon="-4.023669">
        <ele>1195</ele>
        <time>2018-06-30T16:51:14.008Z</time>
      </trkpt>
      <trkpt lat="40.872804" lon="-4.023712">
        <ele>1195</ele>
        <time>2018-06-30T16:51:20.008Z</time>
      </trkpt>
      <trkpt lat="40.872758" lon="-4.023746">
        <ele>1194</ele>
        <time>2018-06-30T16:51:24.008Z</time>
      </trkpt>
      <trkpt lat="40.872704" lon="-4.023786">
        <ele>1194</ele>
        <time>2018-06-30T16:51:29.008Z</time>
      </trkpt>
      <trkpt lat="40.872642" lon="-4.02382">
        <ele>1194</ele>
        <time>2018-06-30T16:51:35.008Z</time>
      </trkpt>
      <trkpt lat="40.872589" lon="-4.023842">
        <ele>1194</ele>
        <time>2018-06-30T16:51:40.008Z</time>
      </trkpt>
      <trkpt lat="40.87254" lon="-4.023869">
        <ele>1194</ele>
        <time>2018-06-30T16:51:44.008Z</time>
      </trkpt>
      <trkpt lat="40.872486" lon="-4.023906">
        <ele>1194</ele>
        <time>2018-06-30T16:51:49.008Z</time>
      </trkpt>
      <trkpt lat="40.872434" lon="-4.02393">
        <ele>1194</ele>
        <time>2018-06-30T16:51:56.008Z</time>
      </trkpt>
      <trkpt lat="40.872378" lon="-4.023945">
        <ele>1194</ele>
        <time>2018-06-30T16:52:00.008Z</time>
      </trkpt>
      <trkpt lat="40.872311" lon="-4.023957">
        <ele>1193</ele>
        <time>2018-06-30T16:52:05.008Z</time>
      </trkpt>
      <trkpt lat="40.872248" lon="-4.023977">
        <ele>1193.58217902087</ele>
        <time>2018-06-30T16:52:11.008Z</time>
      </trkpt>
      <trkpt lat="40.872192" lon="-4.023992">
        <ele>1194</ele>
        <time>2018-06-30T16:52:15.008Z</time>
      </trkpt>
      <trkpt lat="40.872135" lon="-4.024015">
        <ele>1194</ele>
        <time>2018-06-30T16:52:20.008Z</time>
      </trkpt>
      <trkpt lat="40.87207" lon="-4.024041">
        <ele>1194</ele>
        <time>2018-06-30T16:52:27.008Z</time>
      </trkpt>
      <trkpt lat="40.871998" lon="-4.024093">
        <ele>1195</ele>
        <time>2018-06-30T16:52:35.008Z</time>
      </trkpt>
      <trkpt lat="40.871934" lon="-4.024124">
        <ele>1195</ele>
        <time>2018-06-30T16:52:41.008Z</time>
      </trkpt>
      <trkpt lat="40.871873" lon="-4.024152">
        <ele>1195</ele>
        <time>2018-06-30T16:52:47.008Z</time>
      </trkpt>
      <trkpt lat="40.871801" lon="-4.02419">
        <ele>1195</ele>
        <time>2018-06-30T16:52:53.008Z</time>
      </trkpt>
      <trkpt lat="40.87175" lon="-4.024213">
        <ele>1195</ele>
        <time>2018-06-30T16:52:56.008Z</time>
      </trkpt>
      <trkpt lat="40.871695" lon="-4.024242">
        <ele>1195</ele>
        <time>2018-06-30T16:53:00.008Z</time>
      </trkpt>
      <trkpt lat="40.871652" lon="-4.024277">
        <ele>1195</ele>
        <time>2018-06-30T16:53:05.008Z</time>
      </trkpt>
      <trkpt lat="40.871599" lon="-4.024308">
        <ele>1195</ele>
        <time>2018-06-30T16:53:10.008Z</time>
      </trkpt>
      <trkpt lat="40.871542" lon="-4.024349">
        <ele>1195</ele>
        <time>2018-06-30T16:53:15.008Z</time>
      </trkpt>
      <trkpt lat="40.871489" lon="-4.024396">
        <ele>1195</ele>
        <time>2018-06-30T16:53:20.008Z</time>
      </trkpt>
      <trkpt lat="40.87145" lon="-4.02444">
        <ele>1194</ele>
        <time>2018-06-30T16:53:25.008Z</time>
      </trkpt>
      <trkpt lat="40.871393" lon="-4.024489">
        <ele>1194</ele>
        <time>2018-06-30T16:53:30.008Z</time>
      </trkpt>
      <trkpt lat="40.871339" lon="-4.024521">
        <ele>1192</ele>
        <time>2018-06-30T16:53:35.008Z</time>
      </trkpt>
      <trkpt lat="40.871273" lon="-4.024555">
        <ele>1191.41782097913</ele>
        <time>2018-06-30T16:53:41.008Z</time>
      </trkpt>
      <trkpt lat="40.871203" lon="-4.024595">
        <ele>1191</ele>
        <time>2018-06-30T16:53:48.008Z</time>
      </trkpt>
      <trkpt lat="40.871131" lon="-4.024633">
        <ele>1191</ele>
        <time>2018-06-30T16:53:56.008Z</time>
      </trkpt>
      <trkpt lat="40.871068" lon="-4.024668">
        <ele>1189</ele>
        <time>2018-06-30T16:54:02.008Z</time>
      </trkpt>
      <trkpt lat="40.870997" lon="-4.024699">
        <ele>1189</ele>
        <time>2018-06-30T16:54:08.008Z</time>
      </trkpt>
      <trkpt lat="40.870936" lon="-4.024721">
        <ele>1189</ele>
        <time>2018-06-30T16:54:13.008Z</time>
      </trkpt>
      <trkpt lat="40.870877" lon="-4.024757">
        <ele>1189</ele>
        <time>2018-06-30T16:54:18.008Z</time>
      </trkpt>
      <trkpt lat="40.870815" lon="-4.024798">
        <ele>1190</ele>
        <time>2018-06-30T16:54:23.008Z</time>
      </trkpt>
      <trkpt lat="40.870771" lon="-4.024838">
        <ele>1190</ele>
        <time>2018-06-30T16:54:27.008Z</time>
      </trkpt>
      <trkpt lat="40.870716" lon="-4.024891">
        <ele>1190</ele>
        <time>2018-06-30T16:54:33.008Z</time>
      </trkpt>
      <trkpt lat="40.870659" lon="-4.024944">
        <ele>1190</ele>
        <time>2018-06-30T16:54:39.008Z</time>
      </trkpt>
      <trkpt lat="40.870614" lon="-4.024992">
        <ele>1190</ele>
        <time>2018-06-30T16:54:44.008Z</time>
      </trkpt>
      <trkpt lat="40.870571" lon="-4.02505">
        <ele>1190</ele>
        <time>2018-06-30T16:54:49.008Z</time>
      </trkpt>
      <trkpt lat="40.870537" lon="-4.025106">
        <ele>1192</ele>
        <time>2018-06-30T16:54:53.008Z</time>
      </trkpt>
      <trkpt lat="40.870495" lon="-4.025154">
        <ele>1192</ele>
        <time>2018-06-30T16:54:58.008Z</time>
      </trkpt>
      <trkpt lat="40.870448" lon="-4.025198">
        <ele>1193</ele>
        <time>2018-06-30T16:55:03.008Z</time>
      </trkpt>
      <trkpt lat="40.870412" lon="-4.025251">
        <ele>1194</ele>
        <time>2018-06-30T16:55:15.008Z</time>
      </trkpt>
      <trkpt lat="40.870365" lon="-4.025293">
        <ele>1194</ele>
        <time>2018-06-30T16:55:27.008Z</time>
      </trkpt>
      <trkpt lat="40.870292" lon="-4.025345">
        <ele>1194</ele>
        <time>2018-06-30T16:55:35.008Z</time>
      </trkpt>
      <trkpt lat="40.870231" lon="-4.02538">
        <ele>1194</ele>
        <time>2018-06-30T16:55:40.008Z</time>
      </trkpt>
      <trkpt lat="40.870166" lon="-4.025426">
        <ele>1194</ele>
        <time>2018-06-30T16:55:46.008Z</time>
      </trkpt>
      <trkpt lat="40.870099" lon="-4.025489">
        <ele>1194</ele>
        <time>2018-06-30T16:55:52.008Z</time>
      </trkpt>
      <trkpt lat="40.87004" lon="-4.02555">
        <ele>1194</ele>
        <time>2018-06-30T16:55:58.008Z</time>
      </trkpt>
      <trkpt lat="40.869978" lon="-4.025598">
        <ele>1195</ele>
        <time>2018-06-30T16:56:04.008Z</time>
      </trkpt>
      <trkpt lat="40.869923" lon="-4.025639">
        <ele>1195</ele>
        <time>2018-06-30T16:56:09.008Z</time>
      </trkpt>
      <trkpt lat="40.86985" lon="-4.025671">
        <ele>1197</ele>
        <time>2018-06-30T16:56:16.008Z</time>
      </trkpt>
      <trkpt lat="40.869795" lon="-4.025676">
        <ele>1197</ele>
        <time>2018-06-30T16:56:21.008Z</time>
      </trkpt>
      <trkpt lat="40.869738" lon="-4.025695">
        <ele>1197</ele>
        <time>2018-06-30T16:56:27.008Z</time>
      </trkpt>
      <trkpt lat="40.869682" lon="-4.025741">
        <ele>1197</ele>
        <time>2018-06-30T16:56:33.008Z</time>
      </trkpt>
      <trkpt lat="40.869635" lon="-4.025774">
        <ele>1197</ele>
        <time>2018-06-30T16:56:37.008Z</time>
      </trkpt>
      <trkpt lat="40.869589" lon="-4.025811">
        <ele>1196.41782097913</ele>
        <time>2018-06-30T16:56:41.008Z</time>
      </trkpt>
      <trkpt lat="40.869541" lon="-4.025848">
        <ele>1196</ele>
        <time>2018-06-30T16:56:45.008Z</time>
      </trkpt>
      <trkpt lat="40.869487" lon="-4.025878">
        <ele>1196</ele>
        <time>2018-06-30T16:56:50.008Z</time>
      </trkpt>
      <trkpt lat="40.869419" lon="-4.025907">
        <ele>1196</ele>
        <time>2018-06-30T16:56:56.008Z</time>
      </trkpt>
      <trkpt lat="40.869362" lon="-4.025919">
        <ele>1195.42352675434</ele>
        <time>2018-06-30T16:57:01.008Z</time>
      </trkpt>
      <trkpt lat="40.869302" lon="-4.025936">
        <ele>1195</ele>
        <time>2018-06-30T16:57:06.008Z</time>
      </trkpt>
      <trkpt lat="40.869248" lon="-4.025946">
        <ele>1195</ele>
        <time>2018-06-30T16:57:12.008Z</time>
      </trkpt>
      <trkpt lat="40.869204" lon="-4.025968">
        <ele>1195</ele>
        <time>2018-06-30T16:57:16.008Z</time>
      </trkpt>
      <trkpt lat="40.869158" lon="-4.02598">
        <ele>1195</ele>
        <time>2018-06-30T16:57:20.008Z</time>
      </trkpt>
      <trkpt lat="40.869107" lon="-4.025995">
        <ele>1195</ele>
        <time>2018-06-30T16:57:25.008Z</time>
      </trkpt>
      <trkpt lat="40.869027" lon="-4.026006">
        <ele>1195</ele>
        <time>2018-06-30T16:57:32.008Z</time>
      </trkpt>
      <trkpt lat="40.868958" lon="-4.026015">
        <ele>1195</ele>
        <time>2018-06-30T16:57:38.008Z</time>
      </trkpt>
      <trkpt lat="40.868905" lon="-4.026004">
        <ele>1195</ele>
        <time>2018-06-30T16:57:43.008Z</time>
      </trkpt>
      <trkpt lat="40.868844" lon="-4.02598">
        <ele>1195</ele>
        <time>2018-06-30T16:57:49.008Z</time>
      </trkpt>
      <trkpt lat="40.868787" lon="-4.025954">
        <ele>1195</ele>
        <time>2018-06-30T16:57:56.008Z</time>
      </trkpt>
      <trkpt lat="40.868728" lon="-4.025916">
        <ele>1195</ele>
        <time>2018-06-30T16:58:03.008Z</time>
      </trkpt>
      <trkpt lat="40.868677" lon="-4.02589">
        <ele>1195</ele>
        <time>2018-06-30T16:58:08.008Z</time>
      </trkpt>
      <trkpt lat="40.868614" lon="-4.025868">
        <ele>1194</ele>
        <time>2018-06-30T16:58:17.008Z</time>
      </trkpt>
      <trkpt lat="40.868547" lon="-4.025869">
        <ele>1193</ele>
        <time>2018-06-30T16:58:24.008Z</time>
      </trkpt>
      <trkpt lat="40.868493" lon="-4.025909">
        <ele>1193</ele>
        <time>2018-06-30T16:58:30.008Z</time>
      </trkpt>
      <trkpt lat="40.868418" lon="-4.02593">
        <ele>1192</ele>
        <time>2018-06-30T16:58:36.008Z</time>
      </trkpt>
      <trkpt lat="40.868352" lon="-4.025975">
        <ele>1192</ele>
        <time>2018-06-30T16:58:42.008Z</time>
      </trkpt>
      <trkpt lat="40.86829" lon="-4.026013">
        <ele>1192</ele>
        <time>2018-06-30T16:58:49.008Z</time>
      </trkpt>
      <trkpt lat="40.868228" lon="-4.0261">
        <ele>1192</ele>
        <time>2018-06-30T16:58:57.008Z</time>
      </trkpt>
      <trkpt lat="40.868171" lon="-4.026174">
        <ele>1192</ele>
        <time>2018-06-30T16:59:04.008Z</time>
      </trkpt>
      <trkpt lat="40.868114" lon="-4.026233">
        <ele>1192</ele>
        <time>2018-06-30T16:59:11.008Z</time>
      </trkpt>
      <trkpt lat="40.868066" lon="-4.026307">
        <ele>1192</ele>
        <time>2018-06-30T16:59:17.008Z</time>
      </trkpt>
      <trkpt lat="40.868008" lon="-4.026366">
        <ele>1192</ele>
        <time>2018-06-30T16:59:24.008Z</time>
      </trkpt>
      <trkpt lat="40.868012" lon="-4.026445">
        <ele>1192</ele>
        <time>2018-06-30T16:59:30.008Z</time>
      </trkpt>
      <trkpt lat="40.868018" lon="-4.026549">
        <ele>1191</ele>
        <time>2018-06-30T16:59:35.008Z</time>
      </trkpt>
      <trkpt lat="40.868028" lon="-4.026633">
        <ele>1191</ele>
        <time>2018-06-30T16:59:39.008Z</time>
      </trkpt>
      <trkpt lat="40.86805" lon="-4.026721">
        <ele>1192</ele>
        <time>2018-06-30T16:59:45.008Z</time>
      </trkpt>
      <trkpt lat="40.868073" lon="-4.026814">
        <ele>1193.06909632526</ele>
        <time>2018-06-30T16:59:51.008Z</time>
      </trkpt>
      <trkpt lat="40.86804" lon="-4.026887">
        <ele>1194</ele>
        <time>2018-06-30T16:59:58.008Z</time>
      </trkpt>
      <trkpt lat="40.86801" lon="-4.026958">
        <ele>1193</ele>
        <time>2018-06-30T17:00:03.008Z</time>
      </trkpt>
      <trkpt lat="40.867981" lon="-4.02702">
        <ele>1193</ele>
        <time>2018-06-30T17:00:08.008Z</time>
      </trkpt>
      <trkpt lat="40.867945" lon="-4.027069">
        <ele>1195</ele>
        <time>2018-06-30T17:00:13.008Z</time>
      </trkpt>
      <trkpt lat="40.867894" lon="-4.027125">
        <ele>1195</ele>
        <time>2018-06-30T17:00:23.008Z</time>
      </trkpt>
      <trkpt lat="40.867813" lon="-4.027154">
        <ele>1195</ele>
        <time>2018-06-30T17:00:30.008Z</time>
      </trkpt>
      <trkpt lat="40.867754" lon="-4.02722">
        <ele>1194</ele>
        <time>2018-06-30T17:00:36.008Z</time>
      </trkpt>
      <trkpt lat="40.86771" lon="-4.027299">
        <ele>1194</ele>
        <time>2018-06-30T17:00:42.008Z</time>
      </trkpt>
      <trkpt lat="40.867649" lon="-4.027362">
        <ele>1194</ele>
        <time>2018-06-30T17:00:49.008Z</time>
      </trkpt>
      <trkpt lat="40.867596" lon="-4.027432">
        <ele>1194</ele>
        <time>2018-06-30T17:00:55.008Z</time>
      </trkpt>
      <trkpt lat="40.867547" lon="-4.027506">
        <ele>1194</ele>
        <time>2018-06-30T17:01:01.008Z</time>
      </trkpt>
      <trkpt lat="40.8675" lon="-4.027556">
        <ele>1194</ele>
        <time>2018-06-30T17:01:07.008Z</time>
      </trkpt>
      <trkpt lat="40.867439" lon="-4.027605">
        <ele>1193</ele>
        <time>2018-06-30T17:01:14.008Z</time>
      </trkpt>
      <trkpt lat="40.867381" lon="-4.02764">
        <ele>1193</ele>
        <time>2018-06-30T17:01:20.008Z</time>
      </trkpt>
      <trkpt lat="40.86733" lon="-4.027674">
        <ele>1193</ele>
        <time>2018-06-30T17:01:25.008Z</time>
      </trkpt>
      <trkpt lat="40.86726" lon="-4.027704">
        <ele>1193</ele>
        <time>2018-06-30T17:01:35.008Z</time>
      </trkpt>
      <trkpt lat="40.867186" lon="-4.027707">
        <ele>1193</ele>
        <time>2018-06-30T17:01:41.008Z</time>
      </trkpt>
      <trkpt lat="40.867116" lon="-4.02771">
        <ele>1193</ele>
        <time>2018-06-30T17:01:48.008Z</time>
      </trkpt>
      <trkpt lat="40.867038" lon="-4.027728">
        <ele>1193</ele>
        <time>2018-06-30T17:01:57.008Z</time>
      </trkpt>
      <trkpt lat="40.866974" lon="-4.027753">
        <ele>1194</ele>
        <time>2018-06-30T17:02:02.008Z</time>
      </trkpt>
      <trkpt lat="40.866911" lon="-4.027833">
        <ele>1194</ele>
        <time>2018-06-30T17:02:11.008Z</time>
      </trkpt>
      <trkpt lat="40.866838" lon="-4.027858">
        <ele>1194</ele>
        <time>2018-06-30T17:02:19.008Z</time>
      </trkpt>
      <trkpt lat="40.866749" lon="-4.027902">
        <ele>1194</ele>
        <time>2018-06-30T17:02:28.008Z</time>
      </trkpt>
      <trkpt lat="40.866677" lon="-4.027947">
        <ele>1195</ele>
        <time>2018-06-30T17:02:34.008Z</time>
      </trkpt>
      <trkpt lat="40.866612" lon="-4.027998">
        <ele>1195</ele>
        <time>2018-06-30T17:02:39.008Z</time>
      </trkpt>
      <trkpt lat="40.866532" lon="-4.028013">
        <ele>1196</ele>
        <time>2018-06-30T17:02:46.008Z</time>
      </trkpt>
      <trkpt lat="40.866438" lon="-4.028038">
        <ele>1196</ele>
        <time>2018-06-30T17:02:55.008Z</time>
      </trkpt>
      <trkpt lat="40.866346" lon="-4.028075">
        <ele>1196</ele>
        <time>2018-06-30T17:03:03.008Z</time>
      </trkpt>
      <trkpt lat="40.866271" lon="-4.028112">
        <ele>1196</ele>
        <time>2018-06-30T17:03:10.008Z</time>
      </trkpt>
      <trkpt lat="40.866196" lon="-4.028173">
        <ele>1196</ele>
        <time>2018-06-30T17:03:16.008Z</time>
      </trkpt>
      <trkpt lat="40.866144" lon="-4.028252">
        <ele>1196</ele>
        <time>2018-06-30T17:03:23.008Z</time>
      </trkpt>
      <trkpt lat="40.866082" lon="-4.02832">
        <ele>1196</ele>
        <time>2018-06-30T17:03:30.008Z</time>
      </trkpt>
      <trkpt lat="40.865997" lon="-4.028386">
        <ele>1196</ele>
        <time>2018-06-30T17:03:37.008Z</time>
      </trkpt>
      <trkpt lat="40.865929" lon="-4.028468">
        <ele>1196</ele>
        <time>2018-06-30T17:03:46.008Z</time>
      </trkpt>
      <trkpt lat="40.865861" lon="-4.028543">
        <ele>1197</ele>
        <time>2018-06-30T17:03:53.008Z</time>
      </trkpt>
      <trkpt lat="40.865814" lon="-4.028639">
        <ele>1197</ele>
        <time>2018-06-30T17:03:59.008Z</time>
      </trkpt>
      <trkpt lat="40.865753" lon="-4.028712">
        <ele>1196</ele>
        <time>2018-06-30T17:04:05.008Z</time>
      </trkpt>
      <trkpt lat="40.865711" lon="-4.028785">
        <ele>1196</ele>
        <time>2018-06-30T17:04:12.008Z</time>
      </trkpt>
      <trkpt lat="40.865659" lon="-4.028842">
        <ele>1196</ele>
        <time>2018-06-30T17:04:16.008Z</time>
      </trkpt>
      <trkpt lat="40.865606" lon="-4.02888">
        <ele>1196</ele>
        <time>2018-06-30T17:04:21.008Z</time>
      </trkpt>
      <trkpt lat="40.865563" lon="-4.028958">
        <ele>1196</ele>
        <time>2018-06-30T17:04:27.008Z</time>
      </trkpt>
      <trkpt lat="40.865505" lon="-4.029015">
        <ele>1197</ele>
        <time>2018-06-30T17:04:33.008Z</time>
      </trkpt>
      <trkpt lat="40.865454" lon="-4.029096">
        <ele>1197</ele>
        <time>2018-06-30T17:04:41.008Z</time>
      </trkpt>
      <trkpt lat="40.865394" lon="-4.029153">
        <ele>1197</ele>
        <time>2018-06-30T17:04:47.008Z</time>
      </trkpt>
      <trkpt lat="40.865357" lon="-4.029224">
        <ele>1198</ele>
        <time>2018-06-30T17:04:53.008Z</time>
      </trkpt>
      <trkpt lat="40.865325" lon="-4.029312">
        <ele>1198</ele>
        <time>2018-06-30T17:05:00.008Z</time>
      </trkpt>
      <trkpt lat="40.865274" lon="-4.029388">
        <ele>1198</ele>
        <time>2018-06-30T17:05:06.008Z</time>
      </trkpt>
      <trkpt lat="40.865219" lon="-4.029482">
        <ele>1199</ele>
        <time>2018-06-30T17:05:14.008Z</time>
      </trkpt>
      <trkpt lat="40.865182" lon="-4.029568">
        <ele>1199</ele>
        <time>2018-06-30T17:05:19.008Z</time>
      </trkpt>
      <trkpt lat="40.865146" lon="-4.029649">
        <ele>1199</ele>
        <time>2018-06-30T17:05:24.008Z</time>
      </trkpt>
      <trkpt lat="40.865117" lon="-4.029723">
        <ele>1199</ele>
        <time>2018-06-30T17:05:30.008Z</time>
      </trkpt>
      <trkpt lat="40.865069" lon="-4.029782">
        <ele>1199</ele>
        <time>2018-06-30T17:05:35.008Z</time>
      </trkpt>
      <trkpt lat="40.865008" lon="-4.029828">
        <ele>1200</ele>
        <time>2018-06-30T17:05:43.008Z</time>
      </trkpt>
      <trkpt lat="40.864928" lon="-4.029878">
        <ele>1200</ele>
        <time>2018-06-30T17:05:52.008Z</time>
      </trkpt>
      <trkpt lat="40.864845" lon="-4.029927">
        <ele>1200</ele>
        <time>2018-06-30T17:05:59.008Z</time>
      </trkpt>
      <trkpt lat="40.864758" lon="-4.029945">
        <ele>1199</ele>
        <time>2018-06-30T17:06:06.008Z</time>
      </trkpt>
      <trkpt lat="40.86466" lon="-4.02996">
        <ele>1199</ele>
        <time>2018-06-30T17:06:16.008Z</time>
      </trkpt>
      <trkpt lat="40.864575" lon="-4.029958">
        <ele>1200</ele>
        <time>2018-06-30T17:06:22.008Z</time>
      </trkpt>
      <trkpt lat="40.864498" lon="-4.029956">
        <ele>1200</ele>
        <time>2018-06-30T17:06:28.008Z</time>
      </trkpt>
      <trkpt lat="40.864422" lon="-4.029945">
        <ele>1200</ele>
        <time>2018-06-30T17:06:34.008Z</time>
      </trkpt>
      <trkpt lat="40.864362" lon="-4.029959">
        <ele>1200</ele>
        <time>2018-06-30T17:06:40.008Z</time>
      </trkpt>
      <trkpt lat="40.864289" lon="-4.029953">
        <ele>1199</ele>
        <time>2018-06-30T17:06:47.008Z</time>
      </trkpt>
      <trkpt lat="40.864224" lon="-4.029948">
        <ele>1199</ele>
        <time>2018-06-30T17:06:52.008Z</time>
      </trkpt>
      <trkpt lat="40.86416" lon="-4.029928">
        <ele>1199</ele>
        <time>2018-06-30T17:06:57.008Z</time>
      </trkpt>
      <trkpt lat="40.864098" lon="-4.029888">
        <ele>1200</ele>
        <time>2018-06-30T17:07:10.008Z</time>
      </trkpt>
      <trkpt lat="40.864041" lon="-4.029857">
        <ele>1201</ele>
        <time>2018-06-30T17:07:14.008Z</time>
      </trkpt>
      <trkpt lat="40.863975" lon="-4.029818">
        <ele>1201</ele>
        <time>2018-06-30T17:07:20.008Z</time>
      </trkpt>
      <trkpt lat="40.863911" lon="-4.029792">
        <ele>1201</ele>
        <time>2018-06-30T17:07:25.008Z</time>
      </trkpt>
      <trkpt lat="40.863848" lon="-4.029808">
        <ele>1201</ele>
        <time>2018-06-30T17:07:30.008Z</time>
      </trkpt>
      <trkpt lat="40.863785" lon="-4.029798">
        <ele>1202</ele>
        <time>2018-06-30T17:07:35.008Z</time>
      </trkpt>
      <trkpt lat="40.863728" lon="-4.029766">
        <ele>1202</ele>
        <time>2018-06-30T17:07:41.008Z</time>
      </trkpt>
      <trkpt lat="40.863673" lon="-4.029738">
        <ele>1202</ele>
        <time>2018-06-30T17:07:48.008Z</time>
      </trkpt>
      <trkpt lat="40.863607" lon="-4.029723">
        <ele>1203</ele>
        <time>2018-06-30T17:07:55.008Z</time>
      </trkpt>
      <trkpt lat="40.863543" lon="-4.0297">
        <ele>1202</ele>
        <time>2018-06-30T17:08:02.008Z</time>
      </trkpt>
      <trkpt lat="40.863479" lon="-4.029675">
        <ele>1202</ele>
        <time>2018-06-30T17:08:06.008Z</time>
      </trkpt>
      <trkpt lat="40.863418" lon="-4.02965">
        <ele>1202</ele>
        <time>2018-06-30T17:08:10.008Z</time>
      </trkpt>
      <trkpt lat="40.86335" lon="-4.02962">
        <ele>1204</ele>
        <time>2018-06-30T17:08:15.008Z</time>
      </trkpt>
      <trkpt lat="40.863288" lon="-4.029605">
        <ele>1204</ele>
        <time>2018-06-30T17:08:20.008Z</time>
      </trkpt>
      <trkpt lat="40.863229" lon="-4.029594">
        <ele>1204</ele>
        <time>2018-06-30T17:08:24.008Z</time>
      </trkpt>
      <trkpt lat="40.863172" lon="-4.029581">
        <ele>1203.42352675434</ele>
        <time>2018-06-30T17:08:31.008Z</time>
      </trkpt>
      <trkpt lat="40.86312" lon="-4.02954">
        <ele>1203</ele>
        <time>2018-06-30T17:08:42.008Z</time>
      </trkpt>
      <trkpt lat="40.863051" lon="-4.02953">
        <ele>1204</ele>
        <time>2018-06-30T17:08:48.008Z</time>
      </trkpt>
      <trkpt lat="40.862976" lon="-4.029508">
        <ele>1204</ele>
        <time>2018-06-30T17:08:53.008Z</time>
      </trkpt>
      <trkpt lat="40.862902" lon="-4.029481">
        <ele>1204</ele>
        <time>2018-06-30T17:08:58.008Z</time>
      </trkpt>
      <trkpt lat="40.862827" lon="-4.029458">
        <ele>1205</ele>
        <time>2018-06-30T17:09:03.008Z</time>
      </trkpt>
      <trkpt lat="40.862757" lon="-4.02945">
        <ele>1205</ele>
        <time>2018-06-30T17:09:09.008Z</time>
      </trkpt>
      <trkpt lat="40.862686" lon="-4.029451">
        <ele>1205</ele>
        <time>2018-06-30T17:09:17.008Z</time>
      </trkpt>
      <trkpt lat="40.862617" lon="-4.029432">
        <ele>1205</ele>
        <time>2018-06-30T17:09:21.008Z</time>
      </trkpt>
      <trkpt lat="40.862559" lon="-4.02941">
        <ele>1205</ele>
        <time>2018-06-30T17:09:25.008Z</time>
      </trkpt>
      <trkpt lat="40.862499" lon="-4.029411">
        <ele>1205</ele>
        <time>2018-06-30T17:09:35.008Z</time>
      </trkpt>
      <trkpt lat="40.862415" lon="-4.029374">
        <ele>1205</ele>
        <time>2018-06-30T17:09:42.008Z</time>
      </trkpt>
      <trkpt lat="40.862352" lon="-4.029329">
        <ele>1205</ele>
        <time>2018-06-30T17:09:49.008Z</time>
      </trkpt>
      <trkpt lat="40.862299" lon="-4.0293">
        <ele>1206</ele>
        <time>2018-06-30T17:09:53.008Z</time>
      </trkpt>
      <trkpt lat="40.862223" lon="-4.029259">
        <ele>1206</ele>
        <time>2018-06-30T17:09:58.008Z</time>
      </trkpt>
      <trkpt lat="40.862165" lon="-4.029218">
        <ele>1206</ele>
        <time>2018-06-30T17:10:03.008Z</time>
      </trkpt>
      <trkpt lat="40.862105" lon="-4.029176">
        <ele>1206</ele>
        <time>2018-06-30T17:10:09.008Z</time>
      </trkpt>
      <trkpt lat="40.862051" lon="-4.029149">
        <ele>1206</ele>
        <time>2018-06-30T17:10:14.008Z</time>
      </trkpt>
      <trkpt lat="40.861989" lon="-4.029122">
        <ele>1206</ele>
        <time>2018-06-30T17:10:20.008Z</time>
      </trkpt>
      <trkpt lat="40.861935" lon="-4.029103">
        <ele>1206</ele>
        <time>2018-06-30T17:10:25.008Z</time>
      </trkpt>
      <trkpt lat="40.861859" lon="-4.029079">
        <ele>1205.42352675434</ele>
        <time>2018-06-30T17:10:31.008Z</time>
      </trkpt>
      <trkpt lat="40.861786" lon="-4.029056">
        <ele>1205</ele>
        <time>2018-06-30T17:10:37.008Z</time>
      </trkpt>
      <trkpt lat="40.861712" lon="-4.029037">
        <ele>1206</ele>
        <time>2018-06-30T17:10:43.008Z</time>
      </trkpt>
      <trkpt lat="40.861647" lon="-4.029004">
        <ele>1206</ele>
        <time>2018-06-30T17:10:51.008Z</time>
      </trkpt>
      <trkpt lat="40.86158" lon="-4.028969">
        <ele>1206</ele>
        <time>2018-06-30T17:10:56.008Z</time>
      </trkpt>
      <trkpt lat="40.861507" lon="-4.028947">
        <ele>1207</ele>
        <time>2018-06-30T17:11:03.008Z</time>
      </trkpt>
      <trkpt lat="40.861443" lon="-4.028906">
        <ele>1207</ele>
        <time>2018-06-30T17:11:11.008Z</time>
      </trkpt>
      <trkpt lat="40.861367" lon="-4.028887">
        <ele>1207</ele>
        <time>2018-06-30T17:11:18.008Z</time>
      </trkpt>
      <trkpt lat="40.8613" lon="-4.028856">
        <ele>1207</ele>
        <time>2018-06-30T17:11:23.008Z</time>
      </trkpt>
      <trkpt lat="40.861233" lon="-4.028826">
        <ele>1207</ele>
        <time>2018-06-30T17:11:29.008Z</time>
      </trkpt>
      <trkpt lat="40.861159" lon="-4.028824">
        <ele>1207</ele>
        <time>2018-06-30T17:11:35.008Z</time>
      </trkpt>
      <trkpt lat="40.861078" lon="-4.028789">
        <ele>1207</ele>
        <time>2018-06-30T17:11:39.008Z</time>
      </trkpt>
      <trkpt lat="40.861005" lon="-4.02876">
        <ele>1208</ele>
        <time>2018-06-30T17:11:43.008Z</time>
      </trkpt>
      <trkpt lat="40.860934" lon="-4.028745">
        <ele>1208</ele>
        <time>2018-06-30T17:11:47.008Z</time>
      </trkpt>
      <trkpt lat="40.86087" lon="-4.028743">
        <ele>1208</ele>
        <time>2018-06-30T17:11:51.008Z</time>
      </trkpt>
      <trkpt lat="40.860811" lon="-4.028732">
        <ele>1208</ele>
        <time>2018-06-30T17:11:55.008Z</time>
      </trkpt>
      <trkpt lat="40.860762" lon="-4.028733">
        <ele>1208</ele>
        <time>2018-06-30T17:12:00.008Z</time>
      </trkpt>
      <trkpt lat="40.860706" lon="-4.028724">
        <ele>1209</ele>
        <time>2018-06-30T17:12:05.008Z</time>
      </trkpt>
      <trkpt lat="40.860657" lon="-4.028711">
        <ele>1209</ele>
        <time>2018-06-30T17:12:09.008Z</time>
      </trkpt>
      <trkpt lat="40.860599" lon="-4.028699">
        <ele>1209</ele>
        <time>2018-06-30T17:12:16.008Z</time>
      </trkpt>
      <trkpt lat="40.860543" lon="-4.028706">
        <ele>1209</ele>
        <time>2018-06-30T17:12:23.008Z</time>
      </trkpt>
      <trkpt lat="40.860466" lon="-4.028705">
        <ele>1209</ele>
        <time>2018-06-30T17:12:28.008Z</time>
      </trkpt>
      <trkpt lat="40.860405" lon="-4.028722">
        <ele>1209</ele>
        <time>2018-06-30T17:12:33.008Z</time>
      </trkpt>
      <trkpt lat="40.860325" lon="-4.028738">
        <ele>1209</ele>
        <time>2018-06-30T17:12:40.008Z</time>
      </trkpt>
      <trkpt lat="40.860254" lon="-4.02874">
        <ele>1210</ele>
        <time>2018-06-30T17:12:44.008Z</time>
      </trkpt>
      <trkpt lat="40.860199" lon="-4.028735">
        <ele>1210</ele>
        <time>2018-06-30T17:12:48.008Z</time>
      </trkpt>
      <trkpt lat="40.860147" lon="-4.028738">
        <ele>1210</ele>
        <time>2018-06-30T17:12:53.008Z</time>
      </trkpt>
      <trkpt lat="40.860093" lon="-4.028733">
        <ele>1210</ele>
        <time>2018-06-30T17:12:58.008Z</time>
      </trkpt>
      <trkpt lat="40.860031" lon="-4.028737">
        <ele>1210</ele>
        <time>2018-06-30T17:13:05.008Z</time>
      </trkpt>
      <trkpt lat="40.859953" lon="-4.028753">
        <ele>1210</ele>
        <time>2018-06-30T17:13:12.008Z</time>
      </trkpt>
      <trkpt lat="40.859874" lon="-4.028772">
        <ele>1210</ele>
        <time>2018-06-30T17:13:18.008Z</time>
      </trkpt>
      <trkpt lat="40.859809" lon="-4.028797">
        <ele>1210</ele>
        <time>2018-06-30T17:13:25.008Z</time>
      </trkpt>
      <trkpt lat="40.859737" lon="-4.028809">
        <ele>1210</ele>
        <time>2018-06-30T17:13:30.008Z</time>
      </trkpt>
      <trkpt lat="40.859668" lon="-4.028829">
        <ele>1211</ele>
        <time>2018-06-30T17:13:35.008Z</time>
      </trkpt>
      <trkpt lat="40.859598" lon="-4.028854">
        <ele>1211</ele>
        <time>2018-06-30T17:13:43.008Z</time>
      </trkpt>
      <trkpt lat="40.859538" lon="-4.02887">
        <ele>1211</ele>
        <time>2018-06-30T17:13:48.008Z</time>
      </trkpt>
      <trkpt lat="40.859475" lon="-4.028871">
        <ele>1211</ele>
        <time>2018-06-30T17:13:54.008Z</time>
      </trkpt>
      <trkpt lat="40.859397" lon="-4.028873">
        <ele>1211</ele>
        <time>2018-06-30T17:14:00.008Z</time>
      </trkpt>
      <trkpt lat="40.859327" lon="-4.028855">
        <ele>1211</ele>
        <time>2018-06-30T17:14:05.008Z</time>
      </trkpt>
      <trkpt lat="40.859269" lon="-4.028847">
        <ele>1211</ele>
        <time>2018-06-30T17:14:10.008Z</time>
      </trkpt>
      <trkpt lat="40.859215" lon="-4.028806">
        <ele>1211</ele>
        <time>2018-06-30T17:14:16.008Z</time>
      </trkpt>
      <trkpt lat="40.859163" lon="-4.028791">
        <ele>1212</ele>
        <time>2018-06-30T17:14:23.008Z</time>
      </trkpt>
      <trkpt lat="40.859097" lon="-4.028772">
        <ele>1212</ele>
        <time>2018-06-30T17:14:28.008Z</time>
      </trkpt>
      <trkpt lat="40.85904" lon="-4.028762">
        <ele>1212</ele>
        <time>2018-06-30T17:14:32.008Z</time>
      </trkpt>
      <trkpt lat="40.858978" lon="-4.028727">
        <ele>1212</ele>
        <time>2018-06-30T17:14:39.008Z</time>
      </trkpt>
      <trkpt lat="40.858915" lon="-4.028698">
        <ele>1212</ele>
        <time>2018-06-30T17:14:44.008Z</time>
      </trkpt>
      <trkpt lat="40.858854" lon="-4.028681">
        <ele>1212</ele>
        <time>2018-06-30T17:14:48.008Z</time>
      </trkpt>
      <trkpt lat="40.858795" lon="-4.028662">
        <ele>1212</ele>
        <time>2018-06-30T17:14:52.008Z</time>
      </trkpt>
      <trkpt lat="40.858738" lon="-4.028652">
        <ele>1212</ele>
        <time>2018-06-30T17:14:56.008Z</time>
      </trkpt>
      <trkpt lat="40.858675" lon="-4.028627">
        <ele>1212</ele>
        <time>2018-06-30T17:15:04.008Z</time>
      </trkpt>
      <trkpt lat="40.858615" lon="-4.028609">
        <ele>1212</ele>
        <time>2018-06-30T17:15:11.008Z</time>
      </trkpt>
      <trkpt lat="40.858544" lon="-4.028603">
        <ele>1212</ele>
        <time>2018-06-30T17:15:15.008Z</time>
      </trkpt>
      <trkpt lat="40.858471" lon="-4.0286">
        <ele>1212</ele>
        <time>2018-06-30T17:15:19.008Z</time>
      </trkpt>
      <trkpt lat="40.8584" lon="-4.028588">
        <ele>1212</ele>
        <time>2018-06-30T17:15:26.008Z</time>
      </trkpt>
      <trkpt lat="40.858339" lon="-4.028597">
        <ele>1213</ele>
        <time>2018-06-30T17:15:31.008Z</time>
      </trkpt>
      <trkpt lat="40.858284" lon="-4.028568">
        <ele>1214</ele>
        <time>2018-06-30T17:15:39.008Z</time>
      </trkpt>
      <trkpt lat="40.858226" lon="-4.028523">
        <ele>1214</ele>
        <time>2018-06-30T17:15:46.008Z</time>
      </trkpt>
      <trkpt lat="40.858169" lon="-4.028466">
        <ele>1214</ele>
        <time>2018-06-30T17:15:56.008Z</time>
      </trkpt>
      <trkpt lat="40.858114" lon="-4.028413">
        <ele>1214</ele>
        <time>2018-06-30T17:16:02.008Z</time>
      </trkpt>
      <trkpt lat="40.858068" lon="-4.028361">
        <ele>1214</ele>
        <time>2018-06-30T17:16:07.008Z</time>
      </trkpt>
      <trkpt lat="40.858016" lon="-4.028322">
        <ele>1214</ele>
        <time>2018-06-30T17:16:11.008Z</time>
      </trkpt>
      <trkpt lat="40.857961" lon="-4.028271">
        <ele>1214</ele>
        <time>2018-06-30T17:16:16.008Z</time>
      </trkpt>
      <trkpt lat="40.857909" lon="-4.028223">
        <ele>1214</ele>
        <time>2018-06-30T17:16:21.008Z</time>
      </trkpt>
      <trkpt lat="40.85785" lon="-4.028174">
        <ele>1214</ele>
        <time>2018-06-30T17:16:27.008Z</time>
      </trkpt>
      <trkpt lat="40.857795" lon="-4.028142">
        <ele>1214</ele>
        <time>2018-06-30T17:16:32.008Z</time>
      </trkpt>
      <trkpt lat="40.857746" lon="-4.028088">
        <ele>1214</ele>
        <time>2018-06-30T17:16:37.008Z</time>
      </trkpt>
      <trkpt lat="40.857696" lon="-4.028052">
        <ele>1214</ele>
        <time>2018-06-30T17:16:41.008Z</time>
      </trkpt>
      <trkpt lat="40.857647" lon="-4.02801">
        <ele>1214</ele>
        <time>2018-06-30T17:16:46.008Z</time>
      </trkpt>
      <trkpt lat="40.857594" lon="-4.027968">
        <ele>1214.53454816263</ele>
        <time>2018-06-30T17:16:51.008Z</time>
      </trkpt>
      <trkpt lat="40.857533" lon="-4.027943">
        <ele>1215</ele>
        <time>2018-06-30T17:16:54.008Z</time>
      </trkpt>
      <trkpt lat="40.857471" lon="-4.027925">
        <ele>1214.416159187</ele>
        <time>2018-06-30T17:17:00.008Z</time>
      </trkpt>
      <trkpt lat="40.857406" lon="-4.027898">
        <ele>1214</ele>
        <time>2018-06-30T17:17:06.008Z</time>
      </trkpt>
      <trkpt lat="40.857342" lon="-4.027862">
        <ele>1214</ele>
        <time>2018-06-30T17:17:11.008Z</time>
      </trkpt>
      <trkpt lat="40.85728" lon="-4.027843">
        <ele>1214</ele>
        <time>2018-06-30T17:17:15.008Z</time>
      </trkpt>
      <trkpt lat="40.857217" lon="-4.027811">
        <ele>1214</ele>
        <time>2018-06-30T17:17:20.008Z</time>
      </trkpt>
      <trkpt lat="40.857164" lon="-4.027787">
        <ele>1214</ele>
        <time>2018-06-30T17:17:24.008Z</time>
      </trkpt>
      <trkpt lat="40.8571" lon="-4.027759">
        <ele>1214</ele>
        <time>2018-06-30T17:17:30.008Z</time>
      </trkpt>
      <trkpt lat="40.857038" lon="-4.027746">
        <ele>1214</ele>
        <time>2018-06-30T17:17:36.008Z</time>
      </trkpt>
      <trkpt lat="40.856984" lon="-4.027731">
        <ele>1214</ele>
        <time>2018-06-30T17:17:39.008Z</time>
      </trkpt>
      <trkpt lat="40.856914" lon="-4.027707">
        <ele>1214</ele>
        <time>2018-06-30T17:17:44.008Z</time>
      </trkpt>
      <trkpt lat="40.856862" lon="-4.027701">
        <ele>1214</ele>
        <time>2018-06-30T17:17:46.008Z</time>
      </trkpt>
      <trkpt lat="40.856794" lon="-4.027694">
        <ele>1214</ele>
        <time>2018-06-30T17:17:53.008Z</time>
      </trkpt>
      <trkpt lat="40.856738" lon="-4.027702">
        <ele>1214</ele>
        <time>2018-06-30T17:17:59.008Z</time>
      </trkpt>
      <trkpt lat="40.856673" lon="-4.027706">
        <ele>1214</ele>
        <time>2018-06-30T17:18:05.008Z</time>
      </trkpt>
      <trkpt lat="40.85661" lon="-4.027698">
        <ele>1214</ele>
        <time>2018-06-30T17:18:10.008Z</time>
      </trkpt>
      <trkpt lat="40.856547" lon="-4.027702">
        <ele>1215</ele>
        <time>2018-06-30T17:18:14.008Z</time>
      </trkpt>
      <trkpt lat="40.856479" lon="-4.027698">
        <ele>1215</ele>
        <time>2018-06-30T17:18:19.008Z</time>
      </trkpt>
      <trkpt lat="40.856411" lon="-4.027693">
        <ele>1215</ele>
        <time>2018-06-30T17:18:24.008Z</time>
      </trkpt>
      <trkpt lat="40.856364" lon="-4.027679">
        <ele>1215</ele>
        <time>2018-06-30T17:18:27.008Z</time>
      </trkpt>
      <trkpt lat="40.856308" lon="-4.027681">
        <ele>1215</ele>
        <time>2018-06-30T17:18:32.008Z</time>
      </trkpt>
      <trkpt lat="40.856259" lon="-4.027719">
        <ele>1215</ele>
        <time>2018-06-30T17:18:37.008Z</time>
      </trkpt>
      <trkpt lat="40.856216" lon="-4.027769">
        <ele>1216</ele>
        <time>2018-06-30T17:18:42.008Z</time>
      </trkpt>
      <trkpt lat="40.856179" lon="-4.027819">
        <ele>1216</ele>
        <time>2018-06-30T17:18:46.008Z</time>
      </trkpt>
      <trkpt lat="40.856165" lon="-4.027873">
        <ele>1216</ele>
        <time>2018-06-30T17:18:50.008Z</time>
      </trkpt>
      <trkpt lat="40.856148" lon="-4.027937">
        <ele>1216</ele>
        <time>2018-06-30T17:18:57.008Z</time>
      </trkpt>
      <trkpt lat="40.856121" lon="-4.028005">
        <ele>1216</ele>
        <time>2018-06-30T17:19:04.008Z</time>
      </trkpt>
      <trkpt lat="40.856089" lon="-4.028053">
        <ele>1216</ele>
        <time>2018-06-30T17:19:09.008Z</time>
      </trkpt>
      <trkpt lat="40.856049" lon="-4.02811">
        <ele>1216</ele>
        <time>2018-06-30T17:19:16.008Z</time>
      </trkpt>
      <trkpt lat="40.855997" lon="-4.028144">
        <ele>1217</ele>
        <time>2018-06-30T17:19:23.008Z</time>
      </trkpt>
      <trkpt lat="40.855942" lon="-4.028149">
        <ele>1217</ele>
        <time>2018-06-30T17:19:28.008Z</time>
      </trkpt>
      <trkpt lat="40.85588" lon="-4.028177">
        <ele>1217</ele>
        <time>2018-06-30T17:19:34.008Z</time>
      </trkpt>
      <trkpt lat="40.855826" lon="-4.028196">
        <ele>1217</ele>
        <time>2018-06-30T17:19:38.008Z</time>
      </trkpt>
      <trkpt lat="40.855768" lon="-4.028204">
        <ele>1216</ele>
        <time>2018-06-30T17:19:43.008Z</time>
      </trkpt>
      <trkpt lat="40.855718" lon="-4.028198">
        <ele>1216</ele>
        <time>2018-06-30T17:19:47.008Z</time>
      </trkpt>
      <trkpt lat="40.855664" lon="-4.028198">
        <ele>1216</ele>
        <time>2018-06-30T17:19:52.008Z</time>
      </trkpt>
      <trkpt lat="40.855611" lon="-4.028171">
        <ele>1216</ele>
        <time>2018-06-30T17:20:08.008Z</time>
      </trkpt>
      <trkpt lat="40.855562" lon="-4.028128">
        <ele>1217</ele>
        <time>2018-06-30T17:20:13.008Z</time>
      </trkpt>
      <trkpt lat="40.855512" lon="-4.02811">
        <ele>1217</ele>
        <time>2018-06-30T17:20:16.008Z</time>
      </trkpt>
      <trkpt lat="40.855469" lon="-4.028091">
        <ele>1217</ele>
        <time>2018-06-30T17:20:19.008Z</time>
      </trkpt>
      <trkpt lat="40.855423" lon="-4.028069">
        <ele>1217</ele>
        <time>2018-06-30T17:20:22.008Z</time>
      </trkpt>
      <trkpt lat="40.855378" lon="-4.028034">
        <ele>1217</ele>
        <time>2018-06-30T17:20:27.008Z</time>
      </trkpt>
      <trkpt lat="40.855324" lon="-4.028021">
        <ele>1217.57647324566</ele>
        <time>2018-06-30T17:20:31.008Z</time>
      </trkpt>
      <trkpt lat="40.855282" lon="-4.028015">
        <ele>1218</ele>
        <time>2018-06-30T17:20:34.008Z</time>
      </trkpt>
      <trkpt lat="40.855239" lon="-4.028001">
        <ele>1218</ele>
        <time>2018-06-30T17:20:39.008Z</time>
      </trkpt>
      <trkpt lat="40.855189" lon="-4.02798">
        <ele>1218</ele>
        <time>2018-06-30T17:20:46.008Z</time>
      </trkpt>
      <trkpt lat="40.855145" lon="-4.027957">
        <ele>1218</ele>
        <time>2018-06-30T17:20:50.008Z</time>
      </trkpt>
      <trkpt lat="40.855092" lon="-4.027948">
        <ele>1218</ele>
        <time>2018-06-30T17:20:54.008Z</time>
      </trkpt>
      <trkpt lat="40.855038" lon="-4.027935">
        <ele>1217</ele>
        <time>2018-06-30T17:20:57.008Z</time>
      </trkpt>
      <trkpt lat="40.85499" lon="-4.027925">
        <ele>1217</ele>
        <time>2018-06-30T17:21:00.008Z</time>
      </trkpt>
      <trkpt lat="40.854934" lon="-4.027914">
        <ele>1217</ele>
        <time>2018-06-30T17:21:04.008Z</time>
      </trkpt>
      <trkpt lat="40.854882" lon="-4.027909">
        <ele>1217</ele>
        <time>2018-06-30T17:21:08.008Z</time>
      </trkpt>
      <trkpt lat="40.854837" lon="-4.027911">
        <ele>1218</ele>
        <time>2018-06-30T17:21:12.008Z</time>
      </trkpt>
      <trkpt lat="40.854789" lon="-4.027905">
        <ele>1218</ele>
        <time>2018-06-30T17:21:17.008Z</time>
      </trkpt>
      <trkpt lat="40.854737" lon="-4.027906">
        <ele>1218</ele>
        <time>2018-06-30T17:21:21.008Z</time>
      </trkpt>
      <trkpt lat="40.854689" lon="-4.027909">
        <ele>1218</ele>
        <time>2018-06-30T17:21:25.008Z</time>
      </trkpt>
      <trkpt lat="40.854632" lon="-4.027908">
        <ele>1218</ele>
        <time>2018-06-30T17:21:30.008Z</time>
      </trkpt>
      <trkpt lat="40.854583" lon="-4.02792">
        <ele>1219</ele>
        <time>2018-06-30T17:21:34.008Z</time>
      </trkpt>
      <trkpt lat="40.854533" lon="-4.02794">
        <ele>1219</ele>
        <time>2018-06-30T17:21:38.008Z</time>
      </trkpt>
      <trkpt lat="40.854495" lon="-4.027952">
        <ele>1219</ele>
        <time>2018-06-30T17:21:41.008Z</time>
      </trkpt>
      <trkpt lat="40.854448" lon="-4.027968">
        <ele>1219</ele>
        <time>2018-06-30T17:21:45.008Z</time>
      </trkpt>
      <trkpt lat="40.854412" lon="-4.027986">
        <ele>1219</ele>
        <time>2018-06-30T17:21:48.008Z</time>
      </trkpt>
      <trkpt lat="40.85436" lon="-4.028003">
        <ele>1219</ele>
        <time>2018-06-30T17:21:53.008Z</time>
      </trkpt>
      <trkpt lat="40.854316" lon="-4.028019">
        <ele>1219</ele>
        <time>2018-06-30T17:21:57.008Z</time>
      </trkpt>
      <trkpt lat="40.854271" lon="-4.028042">
        <ele>1219</ele>
        <time>2018-06-30T17:22:01.008Z</time>
      </trkpt>
      <trkpt lat="40.854232" lon="-4.028078">
        <ele>1219</ele>
        <time>2018-06-30T17:22:05.008Z</time>
      </trkpt>
      <trkpt lat="40.854197" lon="-4.028109">
        <ele>1219</ele>
        <time>2018-06-30T17:22:09.008Z</time>
      </trkpt>
      <trkpt lat="40.854162" lon="-4.02814">
        <ele>1220</ele>
        <time>2018-06-30T17:22:13.008Z</time>
      </trkpt>
      <trkpt lat="40.85412" lon="-4.028181">
        <ele>1220</ele>
        <time>2018-06-30T17:22:18.008Z</time>
      </trkpt>
      <trkpt lat="40.854081" lon="-4.028207">
        <ele>1220</ele>
        <time>2018-06-30T17:22:22.008Z</time>
      </trkpt>
      <trkpt lat="40.854042" lon="-4.028241">
        <ele>1220</ele>
        <time>2018-06-30T17:22:26.008Z</time>
      </trkpt>
      <trkpt lat="40.854001" lon="-4.028278">
        <ele>1220</ele>
        <time>2018-06-30T17:22:30.008Z</time>
      </trkpt>
      <trkpt lat="40.853974" lon="-4.028335">
        <ele>1221</ele>
        <time>2018-06-30T17:22:34.008Z</time>
      </trkpt>
      <trkpt lat="40.853952" lon="-4.028388">
        <ele>1221</ele>
        <time>2018-06-30T17:22:37.008Z</time>
      </trkpt>
      <trkpt lat="40.853926" lon="-4.028437">
        <ele>1221</ele>
        <time>2018-06-30T17:22:41.008Z</time>
      </trkpt>
      <trkpt lat="40.853882" lon="-4.028476">
        <ele>1221</ele>
        <time>2018-06-30T17:22:46.008Z</time>
      </trkpt>
      <trkpt lat="40.853829" lon="-4.028533">
        <ele>1221</ele>
        <time>2018-06-30T17:22:53.008Z</time>
      </trkpt>
      <trkpt lat="40.85378" lon="-4.028565">
        <ele>1221</ele>
        <time>2018-06-30T17:22:58.008Z</time>
      </trkpt>
      <trkpt lat="40.853742" lon="-4.028605">
        <ele>1221</ele>
        <time>2018-06-30T17:23:02.008Z</time>
      </trkpt>
      <trkpt lat="40.853704" lon="-4.028641">
        <ele>1221</ele>
        <time>2018-06-30T17:23:06.008Z</time>
      </trkpt>
      <trkpt lat="40.853653" lon="-4.028666">
        <ele>1221</ele>
        <time>2018-06-30T17:23:12.008Z</time>
      </trkpt>
      <trkpt lat="40.853604" lon="-4.028688">
        <ele>1221</ele>
        <time>2018-06-30T17:23:18.008Z</time>
      </trkpt>
      <trkpt lat="40.853551" lon="-4.028702">
        <ele>1221</ele>
        <time>2018-06-30T17:23:21.008Z</time>
      </trkpt>
      <trkpt lat="40.853497" lon="-4.028728">
        <ele>1221</ele>
        <time>2018-06-30T17:23:26.008Z</time>
      </trkpt>
      <trkpt lat="40.853442" lon="-4.028743">
        <ele>1221</ele>
        <time>2018-06-30T17:23:30.008Z</time>
      </trkpt>
      <trkpt lat="40.853379" lon="-4.02876">
        <ele>1221</ele>
        <time>2018-06-30T17:23:36.008Z</time>
      </trkpt>
      <trkpt lat="40.853323" lon="-4.028777">
        <ele>1221</ele>
        <time>2018-06-30T17:23:41.008Z</time>
      </trkpt>
      <trkpt lat="40.853273" lon="-4.028804">
        <ele>1221</ele>
        <time>2018-06-30T17:23:45.008Z</time>
      </trkpt>
      <trkpt lat="40.853211" lon="-4.028838">
        <ele>1221</ele>
        <time>2018-06-30T17:23:51.008Z</time>
      </trkpt>
      <trkpt lat="40.853141" lon="-4.028859">
        <ele>1221</ele>
        <time>2018-06-30T17:24:00.008Z</time>
      </trkpt>
      <trkpt lat="40.853088" lon="-4.028899">
        <ele>1221</ele>
        <time>2018-06-30T17:24:04.008Z</time>
      </trkpt>
      <trkpt lat="40.853044" lon="-4.028923">
        <ele>1221</ele>
        <time>2018-06-30T17:24:08.008Z</time>
      </trkpt>
      <trkpt lat="40.852994" lon="-4.028972">
        <ele>1221</ele>
        <time>2018-06-30T17:24:15.008Z</time>
      </trkpt>
      <trkpt lat="40.852935" lon="-4.029007">
        <ele>1221</ele>
        <time>2018-06-30T17:24:19.008Z</time>
      </trkpt>
      <trkpt lat="40.852878" lon="-4.029028">
        <ele>1221</ele>
        <time>2018-06-30T17:24:28.008Z</time>
      </trkpt>
      <trkpt lat="40.852826" lon="-4.029058">
        <ele>1221</ele>
        <time>2018-06-30T17:24:32.008Z</time>
      </trkpt>
      <trkpt lat="40.852762" lon="-4.029081">
        <ele>1221</ele>
        <time>2018-06-30T17:24:37.008Z</time>
      </trkpt>
      <trkpt lat="40.852706" lon="-4.029105">
        <ele>1221</ele>
        <time>2018-06-30T17:24:41.008Z</time>
      </trkpt>
      <trkpt lat="40.852651" lon="-4.029143">
        <ele>1221</ele>
        <time>2018-06-30T17:24:46.008Z</time>
      </trkpt>
      <trkpt lat="40.852599" lon="-4.029198">
        <ele>1221</ele>
        <time>2018-06-30T17:24:51.008Z</time>
      </trkpt>
      <trkpt lat="40.852565" lon="-4.029265">
        <ele>1221</ele>
        <time>2018-06-30T17:24:55.008Z</time>
      </trkpt>
      <trkpt lat="40.852511" lon="-4.029292">
        <ele>1221</ele>
        <time>2018-06-30T17:25:00.008Z</time>
      </trkpt>
      <trkpt lat="40.852457" lon="-4.029337">
        <ele>1222</ele>
        <time>2018-06-30T17:25:06.008Z</time>
      </trkpt>
      <trkpt lat="40.852404" lon="-4.029392">
        <ele>1222</ele>
        <time>2018-06-30T17:25:11.008Z</time>
      </trkpt>
      <trkpt lat="40.852361" lon="-4.02942">
        <ele>1222</ele>
        <time>2018-06-30T17:25:15.008Z</time>
      </trkpt>
      <trkpt lat="40.852321" lon="-4.029456">
        <ele>1222</ele>
        <time>2018-06-30T17:25:19.008Z</time>
      </trkpt>
      <trkpt lat="40.852278" lon="-4.029501">
        <ele>1222</ele>
        <time>2018-06-30T17:25:23.008Z</time>
      </trkpt>
      <trkpt lat="40.852243" lon="-4.029551">
        <ele>1222</ele>
        <time>2018-06-30T17:25:26.008Z</time>
      </trkpt>
      <trkpt lat="40.852214" lon="-4.029617">
        <ele>1222.57647324566</ele>
        <time>2018-06-30T17:25:31.008Z</time>
      </trkpt>
      <trkpt lat="40.852183" lon="-4.02967">
        <ele>1223</ele>
        <time>2018-06-30T17:25:36.008Z</time>
      </trkpt>
      <trkpt lat="40.85214" lon="-4.029714">
        <ele>1223</ele>
        <time>2018-06-30T17:25:40.008Z</time>
      </trkpt>
      <trkpt lat="40.852102" lon="-4.029751">
        <ele>1224</ele>
        <time>2018-06-30T17:25:44.008Z</time>
      </trkpt>
      <trkpt lat="40.852055" lon="-4.029792">
        <ele>1224</ele>
        <time>2018-06-30T17:25:49.008Z</time>
      </trkpt>
      <trkpt lat="40.852006" lon="-4.029818">
        <ele>1224</ele>
        <time>2018-06-30T17:25:55.008Z</time>
      </trkpt>
      <trkpt lat="40.851953" lon="-4.029845">
        <ele>1223.42352675434</ele>
        <time>2018-06-30T17:26:01.008Z</time>
      </trkpt>
      <trkpt lat="40.851896" lon="-4.029852">
        <ele>1223</ele>
        <time>2018-06-30T17:26:06.008Z</time>
      </trkpt>
      <trkpt lat="40.851829" lon="-4.029861">
        <ele>1223</ele>
        <time>2018-06-30T17:26:11.008Z</time>
      </trkpt>
      <trkpt lat="40.851776" lon="-4.029876">
        <ele>1223</ele>
        <time>2018-06-30T17:26:17.008Z</time>
      </trkpt>
      <trkpt lat="40.851719" lon="-4.029886">
        <ele>1223</ele>
        <time>2018-06-30T17:26:24.008Z</time>
      </trkpt>
      <trkpt lat="40.851677" lon="-4.02988">
        <ele>1223</ele>
        <time>2018-06-30T17:26:28.008Z</time>
      </trkpt>
      <trkpt lat="40.851621" lon="-4.029848">
        <ele>1223</ele>
        <time>2018-06-30T17:26:34.008Z</time>
      </trkpt>
      <trkpt lat="40.851565" lon="-4.029834">
        <ele>1223</ele>
        <time>2018-06-30T17:26:40.008Z</time>
      </trkpt>
      <trkpt lat="40.851517" lon="-4.029807">
        <ele>1223</ele>
        <time>2018-06-30T17:26:46.008Z</time>
      </trkpt>
      <trkpt lat="40.851485" lon="-4.029753">
        <ele>1223</ele>
        <time>2018-06-30T17:26:52.008Z</time>
      </trkpt>
      <trkpt lat="40.851447" lon="-4.029714">
        <ele>1223</ele>
        <time>2018-06-30T17:26:57.008Z</time>
      </trkpt>
      <trkpt lat="40.851404" lon="-4.029678">
        <ele>1223</ele>
        <time>2018-06-30T17:27:02.008Z</time>
      </trkpt>
      <trkpt lat="40.851373" lon="-4.029619">
        <ele>1223</ele>
        <time>2018-06-30T17:27:07.008Z</time>
      </trkpt>
      <trkpt lat="40.851351" lon="-4.029543">
        <ele>1224.57647324566</ele>
        <time>2018-06-30T17:27:13.008Z</time>
      </trkpt>
      <trkpt lat="40.851344" lon="-4.029473">
        <ele>1225</ele>
        <time>2018-06-30T17:27:18.008Z</time>
      </trkpt>
      <trkpt lat="40.851325" lon="-4.0294">
        <ele>1225</ele>
        <time>2018-06-30T17:27:23.008Z</time>
      </trkpt>
      <trkpt lat="40.851301" lon="-4.029339">
        <ele>1225</ele>
        <time>2018-06-30T17:27:28.008Z</time>
      </trkpt>
      <trkpt lat="40.851279" lon="-4.029275">
        <ele>1224</ele>
        <time>2018-06-30T17:27:33.008Z</time>
      </trkpt>
      <trkpt lat="40.85124" lon="-4.029181">
        <ele>1224.58217902087</ele>
        <time>2018-06-30T17:27:41.008Z</time>
      </trkpt>
      <trkpt lat="40.851162" lon="-4.029128">
        <ele>1225</ele>
        <time>2018-06-30T17:27:46.008Z</time>
      </trkpt>
      <trkpt lat="40.851089" lon="-4.029076">
        <ele>1225</ele>
        <time>2018-06-30T17:27:52.008Z</time>
      </trkpt>
      <trkpt lat="40.851016" lon="-4.029024">
        <ele>1225</ele>
        <time>2018-06-30T17:27:59.008Z</time>
      </trkpt>
      <trkpt lat="40.85094" lon="-4.028957">
        <ele>1224</ele>
        <time>2018-06-30T17:28:06.008Z</time>
      </trkpt>
      <trkpt lat="40.85087" lon="-4.028926">
        <ele>1225</ele>
        <time>2018-06-30T17:28:12.008Z</time>
      </trkpt>
      <trkpt lat="40.850771" lon="-4.028871">
        <ele>1226</ele>
        <time>2018-06-30T17:28:22.008Z</time>
      </trkpt>
      <trkpt lat="40.850712" lon="-4.028829">
        <ele>1226</ele>
        <time>2018-06-30T17:28:29.008Z</time>
      </trkpt>
      <trkpt lat="40.850628" lon="-4.028767">
        <ele>1226</ele>
        <time>2018-06-30T17:28:39.008Z</time>
      </trkpt>
      <trkpt lat="40.850584" lon="-4.028677">
        <ele>1226</ele>
        <time>2018-06-30T17:28:48.008Z</time>
      </trkpt>
      <trkpt lat="40.850527" lon="-4.028583">
        <ele>1227</ele>
        <time>2018-06-30T17:28:57.008Z</time>
      </trkpt>
      <trkpt lat="40.850467" lon="-4.028539">
        <ele>1226</ele>
        <time>2018-06-30T17:29:03.008Z</time>
      </trkpt>
      <trkpt lat="40.850392" lon="-4.028479">
        <ele>1226</ele>
        <time>2018-06-30T17:29:11.008Z</time>
      </trkpt>
      <trkpt lat="40.850359" lon="-4.028371">
        <ele>1226</ele>
        <time>2018-06-30T17:29:19.008Z</time>
      </trkpt>
      <trkpt lat="40.850346" lon="-4.028271">
        <ele>1226</ele>
        <time>2018-06-30T17:29:25.008Z</time>
      </trkpt>
      <trkpt lat="40.850323" lon="-4.028198">
        <ele>1226</ele>
        <time>2018-06-30T17:29:31.008Z</time>
      </trkpt>
      <trkpt lat="40.850288" lon="-4.028122">
        <ele>1226</ele>
        <time>2018-06-30T17:29:38.008Z</time>
      </trkpt>
      <trkpt lat="40.850229" lon="-4.028059">
        <ele>1226</ele>
        <time>2018-06-30T17:29:44.008Z</time>
      </trkpt>
      <trkpt lat="40.850169" lon="-4.028017">
        <ele>1226</ele>
        <time>2018-06-30T17:29:48.008Z</time>
      </trkpt>
      <trkpt lat="40.850109" lon="-4.027968">
        <ele>1227</ele>
        <time>2018-06-30T17:29:55.008Z</time>
      </trkpt>
      <trkpt lat="40.850046" lon="-4.027922">
        <ele>1227</ele>
        <time>2018-06-30T17:30:00.008Z</time>
      </trkpt>
      <trkpt lat="40.849987" lon="-4.027882">
        <ele>1228</ele>
        <time>2018-06-30T17:30:04.008Z</time>
      </trkpt>
      <trkpt lat="40.849934" lon="-4.027838">
        <ele>1228</ele>
        <time>2018-06-30T17:30:09.008Z</time>
      </trkpt>
      <trkpt lat="40.849873" lon="-4.027816">
        <ele>1228</ele>
        <time>2018-06-30T17:30:15.008Z</time>
      </trkpt>
      <trkpt lat="40.84982" lon="-4.027793">
        <ele>1228</ele>
        <time>2018-06-30T17:30:20.008Z</time>
      </trkpt>
      <trkpt lat="40.849762" lon="-4.027778">
        <ele>1228</ele>
        <time>2018-06-30T17:30:24.008Z</time>
      </trkpt>
      <trkpt lat="40.849709" lon="-4.027777">
        <ele>1228</ele>
        <time>2018-06-30T17:30:26.008Z</time>
      </trkpt>
      <trkpt lat="40.849654" lon="-4.02778">
        <ele>1228</ele>
        <time>2018-06-30T17:30:29.008Z</time>
      </trkpt>
      <trkpt lat="40.849593" lon="-4.027781">
        <ele>1228</ele>
        <time>2018-06-30T17:30:34.008Z</time>
      </trkpt>
      <trkpt lat="40.849528" lon="-4.027772">
        <ele>1228</ele>
        <time>2018-06-30T17:30:39.008Z</time>
      </trkpt>
      <trkpt lat="40.84946" lon="-4.027768">
        <ele>1229</ele>
        <time>2018-06-30T17:30:45.008Z</time>
      </trkpt>
      <trkpt lat="40.849388" lon="-4.027771">
        <ele>1230</ele>
        <time>2018-06-30T17:30:52.008Z</time>
      </trkpt>
      <trkpt lat="40.849321" lon="-4.027777">
        <ele>1230</ele>
        <time>2018-06-30T17:30:56.008Z</time>
      </trkpt>
      <trkpt lat="40.849267" lon="-4.027818">
        <ele>1229</ele>
        <time>2018-06-30T17:31:08.008Z</time>
      </trkpt>
      <trkpt lat="40.849202" lon="-4.027865">
        <ele>1231</ele>
        <time>2018-06-30T17:31:15.008Z</time>
      </trkpt>
      <trkpt lat="40.849133" lon="-4.027917">
        <ele>1231</ele>
        <time>2018-06-30T17:31:20.008Z</time>
      </trkpt>
      <trkpt lat="40.849061" lon="-4.027962">
        <ele>1231</ele>
        <time>2018-06-30T17:31:25.008Z</time>
      </trkpt>
      <trkpt lat="40.848979" lon="-4.028004">
        <ele>1231</ele>
        <time>2018-06-30T17:31:32.008Z</time>
      </trkpt>
      <trkpt lat="40.848905" lon="-4.028044">
        <ele>1231</ele>
        <time>2018-06-30T17:31:38.008Z</time>
      </trkpt>
      <trkpt lat="40.848844" lon="-4.028067">
        <ele>1231</ele>
        <time>2018-06-30T17:31:47.008Z</time>
      </trkpt>
      <trkpt lat="40.848777" lon="-4.028056">
        <ele>1231.54222607805</ele>
        <time>2018-06-30T17:31:52.008Z</time>
      </trkpt>
      <trkpt lat="40.848703" lon="-4.028042">
        <ele>1232</ele>
        <time>2018-06-30T17:32:00.008Z</time>
      </trkpt>
      <trkpt lat="40.848624" lon="-4.028038">
        <ele>1231</ele>
        <time>2018-06-30T17:32:10.008Z</time>
      </trkpt>
      <trkpt lat="40.848544" lon="-4.028016">
        <ele>1232</ele>
        <time>2018-06-30T17:32:17.008Z</time>
      </trkpt>
      <trkpt lat="40.848468" lon="-4.027992">
        <ele>1232</ele>
        <time>2018-06-30T17:32:27.008Z</time>
      </trkpt>
      <trkpt lat="40.848389" lon="-4.027971">
        <ele>1232</ele>
        <time>2018-06-30T17:32:35.008Z</time>
      </trkpt>
      <trkpt lat="40.84834" lon="-4.02789">
        <ele>1232.57647324566</ele>
        <time>2018-06-30T17:32:43.008Z</time>
      </trkpt>
      <trkpt lat="40.84828" lon="-4.0278">
        <ele>1233</ele>
        <time>2018-06-30T17:32:51.008Z</time>
      </trkpt>
      <trkpt lat="40.848267" lon="-4.027706">
        <ele>1233</ele>
        <time>2018-06-30T17:32:56.008Z</time>
      </trkpt>
      <trkpt lat="40.848245" lon="-4.027626">
        <ele>1233</ele>
        <time>2018-06-30T17:33:01.008Z</time>
      </trkpt>
      <trkpt lat="40.848192" lon="-4.027537">
        <ele>1233</ele>
        <time>2018-06-30T17:33:09.008Z</time>
      </trkpt>
      <trkpt lat="40.848119" lon="-4.027491">
        <ele>1233</ele>
        <time>2018-06-30T17:33:14.008Z</time>
      </trkpt>
      <trkpt lat="40.848028" lon="-4.027462">
        <ele>1233</ele>
        <time>2018-06-30T17:33:20.008Z</time>
      </trkpt>
      <trkpt lat="40.847945" lon="-4.027442">
        <ele>1234</ele>
        <time>2018-06-30T17:33:25.008Z</time>
      </trkpt>
      <trkpt lat="40.847858" lon="-4.027439">
        <ele>1234</ele>
        <time>2018-06-30T17:33:31.008Z</time>
      </trkpt>
      <trkpt lat="40.847785" lon="-4.027425">
        <ele>1234</ele>
        <time>2018-06-30T17:33:36.008Z</time>
      </trkpt>
      <trkpt lat="40.847723" lon="-4.027457">
        <ele>1234.58217902087</ele>
        <time>2018-06-30T17:33:41.008Z</time>
      </trkpt>
      <trkpt lat="40.847667" lon="-4.02753">
        <ele>1235</ele>
        <time>2018-06-30T17:33:50.008Z</time>
      </trkpt>
      <trkpt lat="40.847622" lon="-4.02761">
        <ele>1235</ele>
        <time>2018-06-30T17:33:55.008Z</time>
      </trkpt>
      <trkpt lat="40.847568" lon="-4.02768">
        <ele>1235</ele>
        <time>2018-06-30T17:33:58.008Z</time>
      </trkpt>
      <trkpt lat="40.847539" lon="-4.027757">
        <ele>1235</ele>
        <time>2018-06-30T17:34:03.008Z</time>
      </trkpt>
      <trkpt lat="40.847504" lon="-4.027847">
        <ele>1235</ele>
        <time>2018-06-30T17:34:10.008Z</time>
      </trkpt>
      <trkpt lat="40.847461" lon="-4.027945">
        <ele>1235</ele>
        <time>2018-06-30T17:34:24.008Z</time>
      </trkpt>
      <trkpt lat="40.847383" lon="-4.027982">
        <ele>1236</ele>
        <time>2018-06-30T17:34:35.008Z</time>
      </trkpt>
      <trkpt lat="40.847326" lon="-4.028016">
        <ele>1237</ele>
        <time>2018-06-30T17:34:42.008Z</time>
      </trkpt>
      <trkpt lat="40.847252" lon="-4.028046">
        <ele>1237</ele>
        <time>2018-06-30T17:34:51.008Z</time>
      </trkpt>
      <trkpt lat="40.847165" lon="-4.028086">
        <ele>1237</ele>
        <time>2018-06-30T17:35:02.008Z</time>
      </trkpt>
      <trkpt lat="40.84707" lon="-4.028097">
        <ele>1237</ele>
        <time>2018-06-30T17:35:10.008Z</time>
      </trkpt>
      <trkpt lat="40.846994" lon="-4.028094">
        <ele>1237</ele>
        <time>2018-06-30T17:35:15.008Z</time>
      </trkpt>
      <trkpt lat="40.846911" lon="-4.028109">
        <ele>1237</ele>
        <time>2018-06-30T17:35:20.008Z</time>
      </trkpt>
      <trkpt lat="40.846896" lon="-4.028156">
        <ele>1238</ele>
        <time>2018-06-30T17:35:47.008Z</time>
      </trkpt>
      <trkpt lat="40.846818" lon="-4.028184">
        <ele>1238</ele>
        <time>2018-06-30T17:36:09.008Z</time>
      </trkpt>
      <trkpt lat="40.846737" lon="-4.028185">
        <ele>1239</ele>
        <time>2018-06-30T17:36:16.008Z</time>
      </trkpt>
      <trkpt lat="40.846662" lon="-4.028189">
        <ele>1239.53454816263</ele>
        <time>2018-06-30T17:36:21.008Z</time>
      </trkpt>
      <trkpt lat="40.846579" lon="-4.028197">
        <ele>1240</ele>
        <time>2018-06-30T17:36:29.008Z</time>
      </trkpt>
      <trkpt lat="40.846503" lon="-4.0282">
        <ele>1240</ele>
        <time>2018-06-30T17:36:36.008Z</time>
      </trkpt>
      <trkpt lat="40.846423" lon="-4.028213">
        <ele>1240</ele>
        <time>2018-06-30T17:36:46.008Z</time>
      </trkpt>
      <trkpt lat="40.84635" lon="-4.028194">
        <ele>1240</ele>
        <time>2018-06-30T17:36:52.008Z</time>
      </trkpt>
      <trkpt lat="40.846281" lon="-4.028193">
        <ele>1240</ele>
        <time>2018-06-30T17:36:58.008Z</time>
      </trkpt>
      <trkpt lat="40.846199" lon="-4.028197">
        <ele>1240</ele>
        <time>2018-06-30T17:37:04.008Z</time>
      </trkpt>
      <trkpt lat="40.846142" lon="-4.028237">
        <ele>1241.16435804175</ele>
        <time>2018-06-30T17:37:11.008Z</time>
      </trkpt>
      <trkpt lat="40.846088" lon="-4.028274">
        <ele>1242</ele>
        <time>2018-06-30T17:37:18.008Z</time>
      </trkpt>
      <trkpt lat="40.846034" lon="-4.028311">
        <ele>1244</ele>
        <time>2018-06-30T17:37:26.008Z</time>
      </trkpt>
      <trkpt lat="40.845995" lon="-4.028354">
        <ele>1245</ele>
        <time>2018-06-30T17:37:32.008Z</time>
      </trkpt>
      <trkpt lat="40.845952" lon="-4.028396">
        <ele>1245</ele>
        <time>2018-06-30T17:37:39.008Z</time>
      </trkpt>
      <trkpt lat="40.845916" lon="-4.02845">
        <ele>1247</ele>
        <time>2018-06-30T17:37:49.008Z</time>
      </trkpt>
      <trkpt lat="40.845857" lon="-4.028479">
        <ele>1249</ele>
        <time>2018-06-30T17:37:57.008Z</time>
      </trkpt>
      <trkpt lat="40.845797" lon="-4.028509">
        <ele>1251</ele>
        <time>2018-06-30T17:38:05.008Z</time>
      </trkpt>
      <trkpt lat="40.845736" lon="-4.028543">
        <ele>1252.58217902087</ele>
        <time>2018-06-30T17:38:11.008Z</time>
      </trkpt>
      <trkpt lat="40.845684" lon="-4.028567">
        <ele>1253</ele>
        <time>2018-06-30T17:38:15.008Z</time>
      </trkpt>
      <trkpt lat="40.845632" lon="-4.0286">
        <ele>1254.06909632526</ele>
        <time>2018-06-30T17:38:21.008Z</time>
      </trkpt>
      <trkpt lat="40.845575" lon="-4.028604">
        <ele>1255</ele>
        <time>2018-06-30T17:38:27.008Z</time>
      </trkpt>
      <trkpt lat="40.845514" lon="-4.028608">
        <ele>1256</ele>
        <time>2018-06-30T17:38:33.008Z</time>
      </trkpt>
      <trkpt lat="40.84546" lon="-4.028599">
        <ele>1256</ele>
        <time>2018-06-30T17:38:37.008Z</time>
      </trkpt>
      <trkpt lat="40.845406" lon="-4.028588">
        <ele>1257</ele>
        <time>2018-06-30T17:38:42.008Z</time>
      </trkpt>
      <trkpt lat="40.845359" lon="-4.028553">
        <ele>1257</ele>
        <time>2018-06-30T17:38:48.008Z</time>
      </trkpt>
      <trkpt lat="40.845308" lon="-4.028542">
        <ele>1257</ele>
        <time>2018-06-30T17:38:53.008Z</time>
      </trkpt>
      <trkpt lat="40.845242" lon="-4.028508">
        <ele>1257</ele>
        <time>2018-06-30T17:39:02.008Z</time>
      </trkpt>
      <trkpt lat="40.845205" lon="-4.028438">
        <ele>1258.16435804175</ele>
        <time>2018-06-30T17:39:11.008Z</time>
      </trkpt>
      <trkpt lat="40.845149" lon="-4.028414">
        <ele>1259</ele>
        <time>2018-06-30T17:39:17.008Z</time>
      </trkpt>
      <trkpt lat="40.845099" lon="-4.028397">
        <ele>1260.06909632526</ele>
        <time>2018-06-30T17:39:21.008Z</time>
      </trkpt>
      <trkpt lat="40.845061" lon="-4.028357">
        <ele>1261</ele>
        <time>2018-06-30T17:39:27.008Z</time>
      </trkpt>
      <trkpt lat="40.845017" lon="-4.028325">
        <ele>1261</ele>
        <time>2018-06-30T17:39:32.008Z</time>
      </trkpt>
      <trkpt lat="40.844966" lon="-4.028296">
        <ele>1261</ele>
        <time>2018-06-30T17:39:37.008Z</time>
      </trkpt>
      <trkpt lat="40.844939" lon="-4.028241">
        <ele>1261</ele>
        <time>2018-06-30T17:39:42.008Z</time>
      </trkpt>
      <trkpt lat="40.844909" lon="-4.028171">
        <ele>1261</ele>
        <time>2018-06-30T17:39:48.008Z</time>
      </trkpt>
      <trkpt lat="40.844872" lon="-4.028132">
        <ele>1261</ele>
        <time>2018-06-30T17:39:52.008Z</time>
      </trkpt>
      <trkpt lat="40.844839" lon="-4.02808">
        <ele>1261</ele>
        <time>2018-06-30T17:39:57.008Z</time>
      </trkpt>
      <trkpt lat="40.844829" lon="-4.028012">
        <ele>1259</ele>
        <time>2018-06-30T17:40:03.008Z</time>
      </trkpt>
      <trkpt lat="40.844808" lon="-4.027951">
        <ele>1259</ele>
        <time>2018-06-30T17:40:08.008Z</time>
      </trkpt>
      <trkpt lat="40.844764" lon="-4.027901">
        <ele>1259</ele>
        <time>2018-06-30T17:40:13.008Z</time>
      </trkpt>
      <trkpt lat="40.844734" lon="-4.027834">
        <ele>1259</ele>
        <time>2018-06-30T17:40:18.008Z</time>
      </trkpt>
      <trkpt lat="40.84469" lon="-4.02778">
        <ele>1258</ele>
        <time>2018-06-30T17:40:23.008Z</time>
      </trkpt>
      <trkpt lat="40.844635" lon="-4.02775">
        <ele>1258</ele>
        <time>2018-06-30T17:40:27.008Z</time>
      </trkpt>
      <trkpt lat="40.844585" lon="-4.027707">
        <ele>1255</ele>
        <time>2018-06-30T17:40:32.008Z</time>
      </trkpt>
      <trkpt lat="40.844574" lon="-4.027619">
        <ele>1251</ele>
        <time>2018-06-30T17:40:43.008Z</time>
      </trkpt>
      <trkpt lat="40.844529" lon="-4.027548">
        <ele>1250</ele>
        <time>2018-06-30T17:40:58.008Z</time>
      </trkpt>
      <trkpt lat="40.844468" lon="-4.027482">
        <ele>1249</ele>
        <time>2018-06-30T17:41:06.008Z</time>
      </trkpt>
      <trkpt lat="40.844412" lon="-4.027422">
        <ele>1250</ele>
        <time>2018-06-30T17:41:15.008Z</time>
      </trkpt>
      <trkpt lat="40.844363" lon="-4.027362">
        <ele>1252</ele>
        <time>2018-06-30T17:41:22.008Z</time>
      </trkpt>
      <trkpt lat="40.844297" lon="-4.027344">
        <ele>1252</ele>
        <time>2018-06-30T17:41:34.008Z</time>
      </trkpt>
      <trkpt lat="40.844237" lon="-4.027316">
        <ele>1252</ele>
        <time>2018-06-30T17:41:41.008Z</time>
      </trkpt>
      <trkpt lat="40.844174" lon="-4.027299">
        <ele>1252</ele>
        <time>2018-06-30T17:41:47.008Z</time>
      </trkpt>
      <trkpt lat="40.844126" lon="-4.027252">
        <ele>1252</ele>
        <time>2018-06-30T17:41:54.008Z</time>
      </trkpt>
      <trkpt lat="40.844046" lon="-4.027215">
        <ele>1253</ele>
        <time>2018-06-30T17:42:03.008Z</time>
      </trkpt>
      <trkpt lat="40.843965" lon="-4.027182">
        <ele>1253</ele>
        <time>2018-06-30T17:42:08.008Z</time>
      </trkpt>
      <trkpt lat="40.843894" lon="-4.027155">
        <ele>1253</ele>
        <time>2018-06-30T17:42:14.008Z</time>
      </trkpt>
      <trkpt lat="40.84382" lon="-4.027142">
        <ele>1253</ele>
        <time>2018-06-30T17:42:19.008Z</time>
      </trkpt>
      <trkpt lat="40.843744" lon="-4.027146">
        <ele>1252</ele>
        <time>2018-06-30T17:42:22.008Z</time>
      </trkpt>
      <trkpt lat="40.84367" lon="-4.027145">
        <ele>1252</ele>
        <time>2018-06-30T17:42:26.008Z</time>
      </trkpt>
      <trkpt lat="40.843608" lon="-4.02716">
        <ele>1251.42352675434</ele>
        <time>2018-06-30T17:42:31.008Z</time>
      </trkpt>
      <trkpt lat="40.843537" lon="-4.027174">
        <ele>1251</ele>
        <time>2018-06-30T17:42:36.008Z</time>
      </trkpt>
      <trkpt lat="40.843475" lon="-4.027188">
        <ele>1251</ele>
        <time>2018-06-30T17:42:41.008Z</time>
      </trkpt>
      <trkpt lat="40.84341" lon="-4.027232">
        <ele>1251</ele>
        <time>2018-06-30T17:42:48.008Z</time>
      </trkpt>
      <trkpt lat="40.843341" lon="-4.027276">
        <ele>1252</ele>
        <time>2018-06-30T17:42:55.008Z</time>
      </trkpt>
      <trkpt lat="40.843275" lon="-4.027331">
        <ele>1252</ele>
        <time>2018-06-30T17:43:02.008Z</time>
      </trkpt>
      <trkpt lat="40.843214" lon="-4.027389">
        <ele>1252</ele>
        <time>2018-06-30T17:43:09.008Z</time>
      </trkpt>
      <trkpt lat="40.843158" lon="-4.027449">
        <ele>1252</ele>
        <time>2018-06-30T17:43:15.008Z</time>
      </trkpt>
      <trkpt lat="40.843115" lon="-4.027504">
        <ele>1252</ele>
        <time>2018-06-30T17:43:20.008Z</time>
      </trkpt>
      <trkpt lat="40.843067" lon="-4.027568">
        <ele>1252</ele>
        <time>2018-06-30T17:43:26.008Z</time>
      </trkpt>
      <trkpt lat="40.843035" lon="-4.02764">
        <ele>1253</ele>
        <time>2018-06-30T17:43:33.008Z</time>
      </trkpt>
      <trkpt lat="40.842955" lon="-4.027672">
        <ele>1253</ele>
        <time>2018-06-30T17:43:44.008Z</time>
      </trkpt>
      <trkpt lat="40.842894" lon="-4.027732">
        <ele>1253.46545183737</ele>
        <time>2018-06-30T17:43:51.008Z</time>
      </trkpt>
      <trkpt lat="40.84282" lon="-4.027766">
        <ele>1253</ele>
        <time>2018-06-30T17:43:58.008Z</time>
      </trkpt>
      <trkpt lat="40.842746" lon="-4.027808">
        <ele>1254</ele>
        <time>2018-06-30T17:44:06.008Z</time>
      </trkpt>
      <trkpt lat="40.842672" lon="-4.027851">
        <ele>1254</ele>
        <time>2018-06-30T17:44:12.008Z</time>
      </trkpt>
      <trkpt lat="40.842596" lon="-4.027901">
        <ele>1254</ele>
        <time>2018-06-30T17:44:19.008Z</time>
      </trkpt>
      <trkpt lat="40.842539" lon="-4.027955">
        <ele>1254</ele>
        <time>2018-06-30T17:44:25.008Z</time>
      </trkpt>
      <trkpt lat="40.842466" lon="-4.027994">
        <ele>1254</ele>
        <time>2018-06-30T17:44:34.008Z</time>
      </trkpt>
      <trkpt lat="40.842378" lon="-4.028011">
        <ele>1255</ele>
        <time>2018-06-30T17:44:44.008Z</time>
      </trkpt>
      <trkpt lat="40.842283" lon="-4.028007">
        <ele>1255</ele>
        <time>2018-06-30T17:44:51.008Z</time>
      </trkpt>
      <trkpt lat="40.842204" lon="-4.028008">
        <ele>1255</ele>
        <time>2018-06-30T17:44:59.008Z</time>
      </trkpt>
      <trkpt lat="40.842125" lon="-4.027987">
        <ele>1256</ele>
        <time>2018-06-30T17:45:08.008Z</time>
      </trkpt>
      <trkpt lat="40.842045" lon="-4.028005">
        <ele>1256</ele>
        <time>2018-06-30T17:45:16.008Z</time>
      </trkpt>
      <trkpt lat="40.841958" lon="-4.027991">
        <ele>1256</ele>
        <time>2018-06-30T17:45:24.008Z</time>
      </trkpt>
      <trkpt lat="40.841863" lon="-4.027977">
        <ele>1257</ele>
        <time>2018-06-30T17:45:32.008Z</time>
      </trkpt>
      <trkpt lat="40.841782" lon="-4.027992">
        <ele>1256</ele>
        <time>2018-06-30T17:45:43.008Z</time>
      </trkpt>
      <trkpt lat="40.841701" lon="-4.027978">
        <ele>1256</ele>
        <time>2018-06-30T17:45:50.008Z</time>
      </trkpt>
      <trkpt lat="40.841607" lon="-4.027973">
        <ele>1256</ele>
        <time>2018-06-30T17:45:57.008Z</time>
      </trkpt>
      <trkpt lat="40.841529" lon="-4.027959">
        <ele>1256</ele>
        <time>2018-06-30T17:46:03.008Z</time>
      </trkpt>
      <trkpt lat="40.841455" lon="-4.027914">
        <ele>1257</ele>
        <time>2018-06-30T17:46:12.008Z</time>
      </trkpt>
      <trkpt lat="40.84137" lon="-4.02789">
        <ele>1257</ele>
        <time>2018-06-30T17:46:20.008Z</time>
      </trkpt>
      <trkpt lat="40.841291" lon="-4.027868">
        <ele>1257</ele>
        <time>2018-06-30T17:46:30.008Z</time>
      </trkpt>
      <trkpt lat="40.841246" lon="-4.027772">
        <ele>1257</ele>
        <time>2018-06-30T17:46:38.008Z</time>
      </trkpt>
      <trkpt lat="40.841199" lon="-4.027693">
        <ele>1257</ele>
        <time>2018-06-30T17:46:45.008Z</time>
      </trkpt>
      <trkpt lat="40.841132" lon="-4.02763">
        <ele>1258</ele>
        <time>2018-06-30T17:46:53.008Z</time>
      </trkpt>
      <trkpt lat="40.841083" lon="-4.02756">
        <ele>1258</ele>
        <time>2018-06-30T17:47:00.008Z</time>
      </trkpt>
      <trkpt lat="40.841015" lon="-4.027516">
        <ele>1258</ele>
        <time>2018-06-30T17:47:07.008Z</time>
      </trkpt>
      <trkpt lat="40.840943" lon="-4.027489">
        <ele>1258</ele>
        <time>2018-06-30T17:47:13.008Z</time>
      </trkpt>
      <trkpt lat="40.840878" lon="-4.027445">
        <ele>1258</ele>
        <time>2018-06-30T17:47:18.008Z</time>
      </trkpt>
      <trkpt lat="40.840803" lon="-4.027401">
        <ele>1258</ele>
        <time>2018-06-30T17:47:26.008Z</time>
      </trkpt>
      <trkpt lat="40.840735" lon="-4.027353">
        <ele>1259</ele>
        <time>2018-06-30T17:47:35.008Z</time>
      </trkpt>
      <trkpt lat="40.840648" lon="-4.027319">
        <ele>1259</ele>
        <time>2018-06-30T17:47:42.008Z</time>
      </trkpt>
      <trkpt lat="40.840558" lon="-4.027284">
        <ele>1259</ele>
        <time>2018-06-30T17:47:49.008Z</time>
      </trkpt>
      <trkpt lat="40.840476" lon="-4.027254">
        <ele>1259</ele>
        <time>2018-06-30T17:47:55.008Z</time>
      </trkpt>
      <trkpt lat="40.840387" lon="-4.027261">
        <ele>1258</ele>
        <time>2018-06-30T17:48:07.008Z</time>
      </trkpt>
      <trkpt lat="40.840286" lon="-4.027247">
        <ele>1259</ele>
        <time>2018-06-30T17:48:15.008Z</time>
      </trkpt>
      <trkpt lat="40.840196" lon="-4.027233">
        <ele>1259</ele>
        <time>2018-06-30T17:48:20.008Z</time>
      </trkpt>
      <trkpt lat="40.840091" lon="-4.027237">
        <ele>1259</ele>
        <time>2018-06-30T17:48:31.008Z</time>
      </trkpt>
      <trkpt lat="40.839991" lon="-4.027209">
        <ele>1259</ele>
        <time>2018-06-30T17:48:40.008Z</time>
      </trkpt>
      <trkpt lat="40.839897" lon="-4.027187">
        <ele>1260</ele>
        <time>2018-06-30T17:48:49.008Z</time>
      </trkpt>
      <trkpt lat="40.83981" lon="-4.027166">
        <ele>1260</ele>
        <time>2018-06-30T17:48:59.008Z</time>
      </trkpt>
      <trkpt lat="40.839718" lon="-4.027141">
        <ele>1260</ele>
        <time>2018-06-30T17:49:12.008Z</time>
      </trkpt>
      <trkpt lat="40.839652" lon="-4.027067">
        <ele>1260</ele>
        <time>2018-06-30T17:49:21.008Z</time>
      </trkpt>
      <trkpt lat="40.839567" lon="-4.027009">
        <ele>1260</ele>
        <time>2018-06-30T17:49:30.008Z</time>
      </trkpt>
      <trkpt lat="40.839487" lon="-4.026962">
        <ele>1261</ele>
        <time>2018-06-30T17:49:36.008Z</time>
      </trkpt>
      <trkpt lat="40.839401" lon="-4.026964">
        <ele>1261.58217902087</ele>
        <time>2018-06-30T17:49:41.008Z</time>
      </trkpt>
      <trkpt lat="40.839324" lon="-4.026878">
        <ele>1262</ele>
        <time>2018-06-30T17:49:51.008Z</time>
      </trkpt>
      <trkpt lat="40.839257" lon="-4.026816">
        <ele>1262</ele>
        <time>2018-06-30T17:50:00.008Z</time>
      </trkpt>
      <trkpt lat="40.839181" lon="-4.026735">
        <ele>1263</ele>
        <time>2018-06-30T17:50:15.008Z</time>
      </trkpt>
      <trkpt lat="40.839107" lon="-4.026678">
        <ele>1264</ele>
        <time>2018-06-30T17:50:24.008Z</time>
      </trkpt>
      <trkpt lat="40.839027" lon="-4.026642">
        <ele>1264</ele>
        <time>2018-06-30T17:50:32.008Z</time>
      </trkpt>
      <trkpt lat="40.838946" lon="-4.026586">
        <ele>1264</ele>
        <time>2018-06-30T17:50:40.008Z</time>
      </trkpt>
      <trkpt lat="40.838862" lon="-4.026582">
        <ele>1264</ele>
        <time>2018-06-30T17:50:48.008Z</time>
      </trkpt>
      <trkpt lat="40.838779" lon="-4.026548">
        <ele>1264</ele>
        <time>2018-06-30T17:50:56.008Z</time>
      </trkpt>
      <trkpt lat="40.838658" lon="-4.026522">
        <ele>1263.42352675434</ele>
        <time>2018-06-30T17:51:01.008Z</time>
      </trkpt>
      <trkpt lat="40.838578" lon="-4.026505">
        <ele>1263</ele>
        <time>2018-06-30T17:51:09.008Z</time>
      </trkpt>
      <trkpt lat="40.83849" lon="-4.026539">
        <ele>1263</ele>
        <time>2018-06-30T17:51:16.008Z</time>
      </trkpt>
      <trkpt lat="40.838412" lon="-4.026564">
        <ele>1263</ele>
        <time>2018-06-30T17:51:22.008Z</time>
      </trkpt>
      <trkpt lat="40.838324" lon="-4.026611">
        <ele>1263</ele>
        <time>2018-06-30T17:51:28.008Z</time>
      </trkpt>
      <trkpt lat="40.838252" lon="-4.026639">
        <ele>1263</ele>
        <time>2018-06-30T17:51:34.008Z</time>
      </trkpt>
      <trkpt lat="40.838176" lon="-4.026701">
        <ele>1263</ele>
        <time>2018-06-30T17:51:42.008Z</time>
      </trkpt>
      <trkpt lat="40.838114" lon="-4.026762">
        <ele>1263</ele>
        <time>2018-06-30T17:51:48.008Z</time>
      </trkpt>
      <trkpt lat="40.838048" lon="-4.026834">
        <ele>1265</ele>
        <time>2018-06-30T17:51:56.008Z</time>
      </trkpt>
      <trkpt lat="40.837974" lon="-4.026878">
        <ele>1264</ele>
        <time>2018-06-30T17:52:04.008Z</time>
      </trkpt>
      <trkpt lat="40.837886" lon="-4.026913">
        <ele>1264</ele>
        <time>2018-06-30T17:52:15.008Z</time>
      </trkpt>
      <trkpt lat="40.837793" lon="-4.026919">
        <ele>1264</ele>
        <time>2018-06-30T17:52:20.008Z</time>
      </trkpt>
      <trkpt lat="40.837685" lon="-4.026939">
        <ele>1264</ele>
        <time>2018-06-30T17:52:28.008Z</time>
      </trkpt>
      <trkpt lat="40.837601" lon="-4.027011">
        <ele>1265</ele>
        <time>2018-06-30T17:52:38.008Z</time>
      </trkpt>
      <trkpt lat="40.837518" lon="-4.027073">
        <ele>1265.583840813</ele>
        <time>2018-06-30T17:52:48.008Z</time>
      </trkpt>
      <trkpt lat="40.837443" lon="-4.027137">
        <ele>1267.583840813</ele>
        <time>2018-06-30T17:53:00.008Z</time>
      </trkpt>
      <trkpt lat="40.837387" lon="-4.027217">
        <ele>1268</ele>
        <time>2018-06-30T17:53:10.008Z</time>
      </trkpt>
      <trkpt lat="40.837319" lon="-4.027275">
        <ele>1270</ele>
        <time>2018-06-30T17:53:20.008Z</time>
      </trkpt>
      <trkpt lat="40.837251" lon="-4.027347">
        <ele>1268</ele>
        <time>2018-06-30T17:53:39.008Z</time>
      </trkpt>
      <trkpt lat="40.837162" lon="-4.027319">
        <ele>1268</ele>
        <time>2018-06-30T17:53:48.008Z</time>
      </trkpt>
      <trkpt lat="40.837069" lon="-4.027285">
        <ele>1268</ele>
        <time>2018-06-30T17:53:57.008Z</time>
      </trkpt>
      <trkpt lat="40.836976" lon="-4.027271">
        <ele>1268</ele>
        <time>2018-06-30T17:54:04.008Z</time>
      </trkpt>
      <trkpt lat="40.836891" lon="-4.027287">
        <ele>1268</ele>
        <time>2018-06-30T17:54:10.008Z</time>
      </trkpt>
      <trkpt lat="40.836796" lon="-4.02733">
        <ele>1269</ele>
        <time>2018-06-30T17:54:19.008Z</time>
      </trkpt>
      <trkpt lat="40.836721" lon="-4.027389">
        <ele>1269</ele>
        <time>2018-06-30T17:54:28.008Z</time>
      </trkpt>
      <trkpt lat="40.836646" lon="-4.027415">
        <ele>1269</ele>
        <time>2018-06-30T17:54:35.008Z</time>
      </trkpt>
      <trkpt lat="40.836571" lon="-4.027447">
        <ele>1269</ele>
        <time>2018-06-30T17:54:43.008Z</time>
      </trkpt>
      <trkpt lat="40.83649" lon="-4.027486">
        <ele>1270</ele>
        <time>2018-06-30T17:54:51.008Z</time>
      </trkpt>
      <trkpt lat="40.8364" lon="-4.027527">
        <ele>1271</ele>
        <time>2018-06-30T17:54:59.008Z</time>
      </trkpt>
      <trkpt lat="40.836314" lon="-4.027524">
        <ele>1271</ele>
        <time>2018-06-30T17:55:06.008Z</time>
      </trkpt>
      <trkpt lat="40.836218" lon="-4.027537">
        <ele>1271</ele>
        <time>2018-06-30T17:55:18.008Z</time>
      </trkpt>
      <trkpt lat="40.836126" lon="-4.027523">
        <ele>1271</ele>
        <time>2018-06-30T17:55:25.008Z</time>
      </trkpt>
      <trkpt lat="40.836024" lon="-4.027541">
        <ele>1272</ele>
        <time>2018-06-30T17:55:36.008Z</time>
      </trkpt>
      <trkpt lat="40.835936" lon="-4.027596">
        <ele>1272</ele>
        <time>2018-06-30T17:55:43.008Z</time>
      </trkpt>
      <trkpt lat="40.835856" lon="-4.027649">
        <ele>1272</ele>
        <time>2018-06-30T17:55:53.008Z</time>
      </trkpt>
      <trkpt lat="40.835789" lon="-4.027716">
        <ele>1272</ele>
        <time>2018-06-30T17:55:59.008Z</time>
      </trkpt>
      <trkpt lat="40.835725" lon="-4.027802">
        <ele>1272</ele>
        <time>2018-06-30T17:56:02.008Z</time>
      </trkpt>
      <trkpt lat="40.83567" lon="-4.027868">
        <ele>1272</ele>
        <time>2018-06-30T17:56:08.008Z</time>
      </trkpt>
      <trkpt lat="40.835653" lon="-4.027979">
        <ele>1273</ele>
        <time>2018-06-30T17:56:19.008Z</time>
      </trkpt>
      <trkpt lat="40.835596" lon="-4.02808">
        <ele>1274</ele>
        <time>2018-06-30T17:56:30.008Z</time>
      </trkpt>
      <trkpt lat="40.835519" lon="-4.028169">
        <ele>1274.58217902087</ele>
        <time>2018-06-30T17:56:41.008Z</time>
      </trkpt>
      <trkpt lat="40.835456" lon="-4.028258">
        <ele>1275</ele>
        <time>2018-06-30T17:56:48.008Z</time>
      </trkpt>
      <trkpt lat="40.835371" lon="-4.028361">
        <ele>1275</ele>
        <time>2018-06-30T17:56:58.008Z</time>
      </trkpt>
      <trkpt lat="40.835302" lon="-4.028417">
        <ele>1276</ele>
        <time>2018-06-30T17:57:04.008Z</time>
      </trkpt>
      <trkpt lat="40.835219" lon="-4.02845">
        <ele>1274</ele>
        <time>2018-06-30T17:57:17.008Z</time>
      </trkpt>
      <trkpt lat="40.835127" lon="-4.028491">
        <ele>1274</ele>
        <time>2018-06-30T17:57:24.008Z</time>
      </trkpt>
      <trkpt lat="40.835037" lon="-4.028531">
        <ele>1274</ele>
        <time>2018-06-30T17:57:31.008Z</time>
      </trkpt>
      <trkpt lat="40.834954" lon="-4.028567">
        <ele>1274</ele>
        <time>2018-06-30T17:57:40.008Z</time>
      </trkpt>
      <trkpt lat="40.834863" lon="-4.028594">
        <ele>1274</ele>
        <time>2018-06-30T17:57:48.008Z</time>
      </trkpt>
      <trkpt lat="40.834794" lon="-4.028625">
        <ele>1274</ele>
        <time>2018-06-30T17:57:54.008Z</time>
      </trkpt>
      <trkpt lat="40.834719" lon="-4.028665">
        <ele>1274</ele>
        <time>2018-06-30T17:58:01.008Z</time>
      </trkpt>
      <trkpt lat="40.834634" lon="-4.028719">
        <ele>1274</ele>
        <time>2018-06-30T17:58:10.008Z</time>
      </trkpt>
      <trkpt lat="40.834573" lon="-4.028796">
        <ele>1276</ele>
        <time>2018-06-30T17:58:19.008Z</time>
      </trkpt>
      <trkpt lat="40.834508" lon="-4.02886">
        <ele>1276</ele>
        <time>2018-06-30T17:58:30.008Z</time>
      </trkpt>
      <trkpt lat="40.834449" lon="-4.028931">
        <ele>1276</ele>
        <time>2018-06-30T17:58:39.008Z</time>
      </trkpt>
      <trkpt lat="40.834381" lon="-4.028963">
        <ele>1278</ele>
        <time>2018-06-30T17:58:50.008Z</time>
      </trkpt>
      <trkpt lat="40.834291" lon="-4.028977">
        <ele>1279</ele>
        <time>2018-06-30T17:59:00.008Z</time>
      </trkpt>
      <trkpt lat="40.834205" lon="-4.028954">
        <ele>1276</ele>
        <time>2018-06-30T17:59:06.008Z</time>
      </trkpt>
      <trkpt lat="40.83413" lon="-4.028894">
        <ele>1276</ele>
        <time>2018-06-30T17:59:24.008Z</time>
      </trkpt>
      <trkpt lat="40.834065" lon="-4.0288">
        <ele>1277</ele>
        <time>2018-06-30T17:59:39.008Z</time>
      </trkpt>
      <trkpt lat="40.833985" lon="-4.02872">
        <ele>1278</ele>
        <time>2018-06-30T17:59:48.008Z</time>
      </trkpt>
      <trkpt lat="40.833912" lon="-4.028654">
        <ele>1279</ele>
        <time>2018-06-30T17:59:56.008Z</time>
      </trkpt>
      <trkpt lat="40.833835" lon="-4.028595">
        <ele>1277</ele>
        <time>2018-06-30T18:00:06.008Z</time>
      </trkpt>
      <trkpt lat="40.83376" lon="-4.028534">
        <ele>1279</ele>
        <time>2018-06-30T18:00:16.008Z</time>
      </trkpt>
      <trkpt lat="40.833747" lon="-4.028429">
        <ele>1279</ele>
        <time>2018-06-30T18:00:24.008Z</time>
      </trkpt>
      <trkpt lat="40.833706" lon="-4.028324">
        <ele>1279</ele>
        <time>2018-06-30T18:00:32.008Z</time>
      </trkpt>
      <trkpt lat="40.833661" lon="-4.028231">
        <ele>1279.58217902087</ele>
        <time>2018-06-30T18:00:41.008Z</time>
      </trkpt>
      <trkpt lat="40.833612" lon="-4.028134">
        <ele>1280</ele>
        <time>2018-06-30T18:00:50.008Z</time>
      </trkpt>
      <trkpt lat="40.833562" lon="-4.028038">
        <ele>1280</ele>
        <time>2018-06-30T18:00:58.008Z</time>
      </trkpt>
      <trkpt lat="40.833527" lon="-4.027916">
        <ele>1279</ele>
        <time>2018-06-30T18:01:08.008Z</time>
      </trkpt>
      <trkpt lat="40.833526" lon="-4.027809">
        <ele>1279</ele>
        <time>2018-06-30T18:01:13.008Z</time>
      </trkpt>
      <trkpt lat="40.833516" lon="-4.027694">
        <ele>1280</ele>
        <time>2018-06-30T18:01:22.008Z</time>
      </trkpt>
      <trkpt lat="40.83347" lon="-4.027582">
        <ele>1280</ele>
        <time>2018-06-30T18:01:33.008Z</time>
      </trkpt>
      <trkpt lat="40.833445" lon="-4.02745">
        <ele>1280</ele>
        <time>2018-06-30T18:01:43.008Z</time>
      </trkpt>
      <trkpt lat="40.833409" lon="-4.027337">
        <ele>1280</ele>
        <time>2018-06-30T18:01:49.008Z</time>
      </trkpt>
      <trkpt lat="40.833397" lon="-4.027228">
        <ele>1280</ele>
        <time>2018-06-30T18:01:57.008Z</time>
      </trkpt>
      <trkpt lat="40.833372" lon="-4.027117">
        <ele>1281</ele>
        <time>2018-06-30T18:02:06.008Z</time>
      </trkpt>
      <trkpt lat="40.833308" lon="-4.02702">
        <ele>1282</ele>
        <time>2018-06-30T18:02:15.008Z</time>
      </trkpt>
      <trkpt lat="40.833285" lon="-4.026909">
        <ele>1282</ele>
        <time>2018-06-30T18:02:22.008Z</time>
      </trkpt>
      <trkpt lat="40.833213" lon="-4.026833">
        <ele>1282</ele>
        <time>2018-06-30T18:02:29.008Z</time>
      </trkpt>
      <trkpt lat="40.833164" lon="-4.026758">
        <ele>1282</ele>
        <time>2018-06-30T18:02:34.008Z</time>
      </trkpt>
      <trkpt lat="40.833092" lon="-4.026723">
        <ele>1282</ele>
        <time>2018-06-30T18:02:38.008Z</time>
      </trkpt>
      <trkpt lat="40.833069" lon="-4.026633">
        <ele>1284</ele>
        <time>2018-06-30T18:02:46.008Z</time>
      </trkpt>
      <trkpt lat="40.833059" lon="-4.026543">
        <ele>1285</ele>
        <time>2018-06-30T18:02:55.008Z</time>
      </trkpt>
      <trkpt lat="40.833027" lon="-4.02643">
        <ele>1284</ele>
        <time>2018-06-30T18:03:08.008Z</time>
      </trkpt>
      <trkpt lat="40.832991" lon="-4.026344">
        <ele>1283</ele>
        <time>2018-06-30T18:03:16.008Z</time>
      </trkpt>
      <trkpt lat="40.832986" lon="-4.026234">
        <ele>1282</ele>
        <time>2018-06-30T18:03:23.008Z</time>
      </trkpt>
      <trkpt lat="40.832963" lon="-4.026119">
        <ele>1283</ele>
        <time>2018-06-30T18:03:32.008Z</time>
      </trkpt>
      <trkpt lat="40.832941" lon="-4.026014">
        <ele>1283</ele>
        <time>2018-06-30T18:03:41.008Z</time>
      </trkpt>
      <trkpt lat="40.832934" lon="-4.025895">
        <ele>1283</ele>
        <time>2018-06-30T18:03:48.008Z</time>
      </trkpt>
      <trkpt lat="40.832918" lon="-4.02579">
        <ele>1284</ele>
        <time>2018-06-30T18:03:58.008Z</time>
      </trkpt>
      <trkpt lat="40.832898" lon="-4.025683">
        <ele>1284</ele>
        <time>2018-06-30T18:04:05.008Z</time>
      </trkpt>
      <trkpt lat="40.832853" lon="-4.025595">
        <ele>1284</ele>
        <time>2018-06-30T18:04:11.008Z</time>
      </trkpt>
      <trkpt lat="40.832778" lon="-4.025516">
        <ele>1284</ele>
        <time>2018-06-30T18:04:18.008Z</time>
      </trkpt>
      <trkpt lat="40.832696" lon="-4.025476">
        <ele>1284</ele>
        <time>2018-06-30T18:04:24.008Z</time>
      </trkpt>
      <trkpt lat="40.832633" lon="-4.025418">
        <ele>1283</ele>
        <time>2018-06-30T18:04:30.008Z</time>
      </trkpt>
      <trkpt lat="40.832559" lon="-4.025382">
        <ele>1283</ele>
        <time>2018-06-30T18:04:36.008Z</time>
      </trkpt>
      <trkpt lat="40.832494" lon="-4.025353">
        <ele>1283</ele>
        <time>2018-06-30T18:04:40.008Z</time>
      </trkpt>
      <trkpt lat="40.832417" lon="-4.025284">
        <ele>1284</ele>
        <time>2018-06-30T18:04:55.008Z</time>
      </trkpt>
      <trkpt lat="40.832351" lon="-4.02523">
        <ele>1285</ele>
        <time>2018-06-30T18:05:03.008Z</time>
      </trkpt>
      <trkpt lat="40.832291" lon="-4.025148">
        <ele>1285</ele>
        <time>2018-06-30T18:05:14.008Z</time>
      </trkpt>
      <trkpt lat="40.832245" lon="-4.025062">
        <ele>1285</ele>
        <time>2018-06-30T18:05:22.008Z</time>
      </trkpt>
      <trkpt lat="40.832189" lon="-4.024983">
        <ele>1285.57647324566</ele>
        <time>2018-06-30T18:05:31.008Z</time>
      </trkpt>
      <trkpt lat="40.832125" lon="-4.024906">
        <ele>1286</ele>
        <time>2018-06-30T18:05:38.008Z</time>
      </trkpt>
      <trkpt lat="40.83206" lon="-4.024834">
        <ele>1286</ele>
        <time>2018-06-30T18:05:47.008Z</time>
      </trkpt>
      <trkpt lat="40.832029" lon="-4.024713">
        <ele>1286</ele>
        <time>2018-06-30T18:05:57.008Z</time>
      </trkpt>
      <trkpt lat="40.831999" lon="-4.024594">
        <ele>1287</ele>
        <time>2018-06-30T18:06:03.008Z</time>
      </trkpt>
      <trkpt lat="40.831912" lon="-4.024552">
        <ele>1287</ele>
        <time>2018-06-30T18:06:09.008Z</time>
      </trkpt>
      <trkpt lat="40.831823" lon="-4.024528">
        <ele>1287</ele>
        <time>2018-06-30T18:06:15.008Z</time>
      </trkpt>
      <trkpt lat="40.831728" lon="-4.024499">
        <ele>1287</ele>
        <time>2018-06-30T18:06:22.008Z</time>
      </trkpt>
      <trkpt lat="40.831637" lon="-4.024454">
        <ele>1288</ele>
        <time>2018-06-30T18:06:32.008Z</time>
      </trkpt>
      <trkpt lat="40.831543" lon="-4.024413">
        <ele>1288</ele>
        <time>2018-06-30T18:06:40.008Z</time>
      </trkpt>
      <trkpt lat="40.831438" lon="-4.024409">
        <ele>1288</ele>
        <time>2018-06-30T18:06:46.008Z</time>
      </trkpt>
      <trkpt lat="40.831343" lon="-4.02442">
        <ele>1289</ele>
        <time>2018-06-30T18:06:56.008Z</time>
      </trkpt>
      <trkpt lat="40.831236" lon="-4.024418">
        <ele>1289</ele>
        <time>2018-06-30T18:07:04.008Z</time>
      </trkpt>
      <trkpt lat="40.831138" lon="-4.02441">
        <ele>1289</ele>
        <time>2018-06-30T18:07:10.008Z</time>
      </trkpt>
      <trkpt lat="40.831042" lon="-4.024428">
        <ele>1290</ele>
        <time>2018-06-30T18:07:16.008Z</time>
      </trkpt>
      <trkpt lat="40.830952" lon="-4.024453">
        <ele>1290</ele>
        <time>2018-06-30T18:07:22.008Z</time>
      </trkpt>
      <trkpt lat="40.830859" lon="-4.024492">
        <ele>1290</ele>
        <time>2018-06-30T18:07:30.008Z</time>
      </trkpt>
      <trkpt lat="40.830765" lon="-4.024518">
        <ele>1290</ele>
        <time>2018-06-30T18:07:39.008Z</time>
      </trkpt>
      <trkpt lat="40.830685" lon="-4.0246">
        <ele>1290</ele>
        <time>2018-06-30T18:07:48.008Z</time>
      </trkpt>
      <trkpt lat="40.830603" lon="-4.024661">
        <ele>1291</ele>
        <time>2018-06-30T18:07:55.008Z</time>
      </trkpt>
      <trkpt lat="40.830506" lon="-4.024711">
        <ele>1291</ele>
        <time>2018-06-30T18:08:06.008Z</time>
      </trkpt>
      <trkpt lat="40.830413" lon="-4.024774">
        <ele>1291</ele>
        <time>2018-06-30T18:08:16.008Z</time>
      </trkpt>
      <trkpt lat="40.830338" lon="-4.024862">
        <ele>1292</ele>
        <time>2018-06-30T18:08:26.008Z</time>
      </trkpt>
      <trkpt lat="40.830236" lon="-4.024912">
        <ele>1293</ele>
        <time>2018-06-30T18:08:34.008Z</time>
      </trkpt>
      <trkpt lat="40.830148" lon="-4.02498">
        <ele>1293</ele>
        <time>2018-06-30T18:08:42.008Z</time>
      </trkpt>
      <trkpt lat="40.830046" lon="-4.025012">
        <ele>1293</ele>
        <time>2018-06-30T18:08:53.008Z</time>
      </trkpt>
      <trkpt lat="40.829945" lon="-4.025035">
        <ele>1293</ele>
        <time>2018-06-30T18:09:02.008Z</time>
      </trkpt>
      <trkpt lat="40.829847" lon="-4.025074">
        <ele>1294</ele>
        <time>2018-06-30T18:09:15.008Z</time>
      </trkpt>
      <trkpt lat="40.829748" lon="-4.025107">
        <ele>1294</ele>
        <time>2018-06-30T18:09:25.008Z</time>
      </trkpt>
      <trkpt lat="40.829648" lon="-4.025136">
        <ele>1295</ele>
        <time>2018-06-30T18:09:33.008Z</time>
      </trkpt>
      <trkpt lat="40.829554" lon="-4.025154">
        <ele>1295</ele>
        <time>2018-06-30T18:09:40.008Z</time>
      </trkpt>
      <trkpt lat="40.829471" lon="-4.025193">
        <ele>1296</ele>
        <time>2018-06-30T18:09:51.008Z</time>
      </trkpt>
      <trkpt lat="40.829371" lon="-4.025188">
        <ele>1296</ele>
        <time>2018-06-30T18:09:58.008Z</time>
      </trkpt>
      <trkpt lat="40.829274" lon="-4.025217">
        <ele>1296</ele>
        <time>2018-06-30T18:10:06.008Z</time>
      </trkpt>
      <trkpt lat="40.829173" lon="-4.025238">
        <ele>1296</ele>
        <time>2018-06-30T18:10:14.008Z</time>
      </trkpt>
      <trkpt lat="40.829078" lon="-4.025271">
        <ele>1296</ele>
        <time>2018-06-30T18:10:23.008Z</time>
      </trkpt>
      <trkpt lat="40.828989" lon="-4.025295">
        <ele>1296</ele>
        <time>2018-06-30T18:10:30.008Z</time>
      </trkpt>
      <trkpt lat="40.82889" lon="-4.025279">
        <ele>1296</ele>
        <time>2018-06-30T18:10:44.008Z</time>
      </trkpt>
      <trkpt lat="40.828791" lon="-4.025279">
        <ele>1296</ele>
        <time>2018-06-30T18:10:51.008Z</time>
      </trkpt>
      <trkpt lat="40.828704" lon="-4.025243">
        <ele>1296</ele>
        <time>2018-06-30T18:10:58.008Z</time>
      </trkpt>
      <trkpt lat="40.828612" lon="-4.025226">
        <ele>1297</ele>
        <time>2018-06-30T18:11:06.008Z</time>
      </trkpt>
      <trkpt lat="40.828529" lon="-4.025229">
        <ele>1297</ele>
        <time>2018-06-30T18:11:13.008Z</time>
      </trkpt>
      <trkpt lat="40.828449" lon="-4.025228">
        <ele>1298</ele>
        <time>2018-06-30T18:11:22.008Z</time>
      </trkpt>
      <trkpt lat="40.828387" lon="-4.025136">
        <ele>1299</ele>
        <time>2018-06-30T18:11:36.008Z</time>
      </trkpt>
      <trkpt lat="40.82833" lon="-4.025111">
        <ele>1300</ele>
        <time>2018-06-30T18:11:55.008Z</time>
      </trkpt>
      <trkpt lat="40.828285" lon="-4.025022">
        <ele>1299</ele>
        <time>2018-06-30T18:12:28.008Z</time>
      </trkpt>
      <trkpt lat="40.828219" lon="-4.024935">
        <ele>1300</ele>
        <time>2018-06-30T18:12:37.008Z</time>
      </trkpt>
      <trkpt lat="40.828144" lon="-4.024863">
        <ele>1300</ele>
        <time>2018-06-30T18:12:45.008Z</time>
      </trkpt>
      <trkpt lat="40.828095" lon="-4.024763">
        <ele>1301</ele>
        <time>2018-06-30T18:12:53.008Z</time>
      </trkpt>
      <trkpt lat="40.828028" lon="-4.024693">
        <ele>1301</ele>
        <time>2018-06-30T18:12:59.008Z</time>
      </trkpt>
      <trkpt lat="40.82796" lon="-4.024627">
        <ele>1301</ele>
        <time>2018-06-30T18:13:04.008Z</time>
      </trkpt>
      <trkpt lat="40.827891" lon="-4.024577">
        <ele>1302</ele>
        <time>2018-06-30T18:13:12.008Z</time>
      </trkpt>
      <trkpt lat="40.827801" lon="-4.024552">
        <ele>1302</ele>
        <time>2018-06-30T18:13:17.008Z</time>
      </trkpt>
      <trkpt lat="40.827731" lon="-4.024534">
        <ele>1302</ele>
        <time>2018-06-30T18:13:22.008Z</time>
      </trkpt>
      <trkpt lat="40.82765" lon="-4.024537">
        <ele>1302</ele>
        <time>2018-06-30T18:13:26.008Z</time>
      </trkpt>
      <trkpt lat="40.827564" lon="-4.024545">
        <ele>1303</ele>
        <time>2018-06-30T18:13:32.008Z</time>
      </trkpt>
      <trkpt lat="40.82748" lon="-4.024568">
        <ele>1303</ele>
        <time>2018-06-30T18:13:37.008Z</time>
      </trkpt>
      <trkpt lat="40.827391" lon="-4.024605">
        <ele>1303</ele>
        <time>2018-06-30T18:13:42.008Z</time>
      </trkpt>
      <trkpt lat="40.827307" lon="-4.024629">
        <ele>1303</ele>
        <time>2018-06-30T18:13:51.008Z</time>
      </trkpt>
      <trkpt lat="40.82722" lon="-4.024642">
        <ele>1303</ele>
        <time>2018-06-30T18:13:59.008Z</time>
      </trkpt>
      <trkpt lat="40.827128" lon="-4.024647">
        <ele>1303</ele>
        <time>2018-06-30T18:14:08.008Z</time>
      </trkpt>
      <trkpt lat="40.827037" lon="-4.024628">
        <ele>1304</ele>
        <time>2018-06-30T18:14:16.008Z</time>
      </trkpt>
      <trkpt lat="40.826984" lon="-4.024524">
        <ele>1304</ele>
        <time>2018-06-30T18:14:25.008Z</time>
      </trkpt>
      <trkpt lat="40.826927" lon="-4.024435">
        <ele>1304</ele>
        <time>2018-06-30T18:14:32.008Z</time>
      </trkpt>
      <trkpt lat="40.826894" lon="-4.024331">
        <ele>1304</ele>
        <time>2018-06-30T18:14:41.008Z</time>
      </trkpt>
      <trkpt lat="40.826827" lon="-4.02427">
        <ele>1304</ele>
        <time>2018-06-30T18:14:50.008Z</time>
      </trkpt>
      <trkpt lat="40.826751" lon="-4.024195">
        <ele>1305.57647324566</ele>
        <time>2018-06-30T18:15:01.008Z</time>
      </trkpt>
      <trkpt lat="40.826693" lon="-4.024112">
        <ele>1306</ele>
        <time>2018-06-30T18:15:09.008Z</time>
      </trkpt>
      <trkpt lat="40.826626" lon="-4.024035">
        <ele>1306</ele>
        <time>2018-06-30T18:15:16.008Z</time>
      </trkpt>
      <trkpt lat="40.826563" lon="-4.023945">
        <ele>1306</ele>
        <time>2018-06-30T18:15:22.008Z</time>
      </trkpt>
      <trkpt lat="40.826508" lon="-4.023843">
        <ele>1306</ele>
        <time>2018-06-30T18:15:30.008Z</time>
      </trkpt>
      <trkpt lat="40.826462" lon="-4.023745">
        <ele>1306</ele>
        <time>2018-06-30T18:15:40.008Z</time>
      </trkpt>
      <trkpt lat="40.826394" lon="-4.023699">
        <ele>1306</ele>
        <time>2018-06-30T18:15:46.008Z</time>
      </trkpt>
      <trkpt lat="40.826301" lon="-4.023699">
        <ele>1306</ele>
        <time>2018-06-30T18:15:50.008Z</time>
      </trkpt>
      <trkpt lat="40.826227" lon="-4.023716">
        <ele>1306</ele>
        <time>2018-06-30T18:15:53.008Z</time>
      </trkpt>
      <trkpt lat="40.826161" lon="-4.023742">
        <ele>1306</ele>
        <time>2018-06-30T18:15:57.008Z</time>
      </trkpt>
      <trkpt lat="40.826089" lon="-4.023775">
        <ele>1306</ele>
        <time>2018-06-30T18:16:03.008Z</time>
      </trkpt>
      <trkpt lat="40.826018" lon="-4.023834">
        <ele>1306.58217902087</ele>
        <time>2018-06-30T18:16:11.008Z</time>
      </trkpt>
      <trkpt lat="40.825949" lon="-4.023894">
        <ele>1307</ele>
        <time>2018-06-30T18:16:18.008Z</time>
      </trkpt>
      <trkpt lat="40.82589" lon="-4.023964">
        <ele>1307</ele>
        <time>2018-06-30T18:16:23.008Z</time>
      </trkpt>
      <trkpt lat="40.825839" lon="-4.024032">
        <ele>1307</ele>
        <time>2018-06-30T18:16:29.008Z</time>
      </trkpt>
      <trkpt lat="40.82579" lon="-4.024104">
        <ele>1307</ele>
        <time>2018-06-30T18:16:38.008Z</time>
      </trkpt>
      <trkpt lat="40.825711" lon="-4.024147">
        <ele>1307</ele>
        <time>2018-06-30T18:16:47.008Z</time>
      </trkpt>
      <trkpt lat="40.825625" lon="-4.024184">
        <ele>1307</ele>
        <time>2018-06-30T18:16:59.008Z</time>
      </trkpt>
      <trkpt lat="40.825546" lon="-4.024187">
        <ele>1307</ele>
        <time>2018-06-30T18:17:15.008Z</time>
      </trkpt>
      <trkpt lat="40.825465" lon="-4.024151">
        <ele>1308</ele>
        <time>2018-06-30T18:17:27.008Z</time>
      </trkpt>
      <trkpt lat="40.825385" lon="-4.024113">
        <ele>1309</ele>
        <time>2018-06-30T18:17:35.008Z</time>
      </trkpt>
      <trkpt lat="40.825298" lon="-4.024078">
        <ele>1309</ele>
        <time>2018-06-30T18:17:40.008Z</time>
      </trkpt>
      <trkpt lat="40.825216" lon="-4.024066">
        <ele>1310</ele>
        <time>2018-06-30T18:17:49.008Z</time>
      </trkpt>
      <trkpt lat="40.825132" lon="-4.02409">
        <ele>1311</ele>
        <time>2018-06-30T18:17:56.008Z</time>
      </trkpt>
      <trkpt lat="40.825047" lon="-4.024069">
        <ele>1310</ele>
        <time>2018-06-30T18:18:04.008Z</time>
      </trkpt>
      <trkpt lat="40.824976" lon="-4.024024">
        <ele>1311</ele>
        <time>2018-06-30T18:18:13.008Z</time>
      </trkpt>
      <trkpt lat="40.824915" lon="-4.023946">
        <ele>1312</ele>
        <time>2018-06-30T18:18:26.008Z</time>
      </trkpt>
      <trkpt lat="40.82486" lon="-4.023871">
        <ele>1313</ele>
        <time>2018-06-30T18:18:34.008Z</time>
      </trkpt>
      <trkpt lat="40.824793" lon="-4.023829">
        <ele>1313.58217902087</ele>
        <time>2018-06-30T18:18:41.008Z</time>
      </trkpt>
      <trkpt lat="40.824715" lon="-4.023788">
        <ele>1314</ele>
        <time>2018-06-30T18:18:47.008Z</time>
      </trkpt>
      <trkpt lat="40.824622" lon="-4.023769">
        <ele>1314</ele>
        <time>2018-06-30T18:18:52.008Z</time>
      </trkpt>
      <trkpt lat="40.824544" lon="-4.023769">
        <ele>1314</ele>
        <time>2018-06-30T18:18:58.008Z</time>
      </trkpt>
      <trkpt lat="40.82448" lon="-4.023766">
        <ele>1314</ele>
        <time>2018-06-30T18:19:04.008Z</time>
      </trkpt>
      <trkpt lat="40.824419" lon="-4.023809">
        <ele>1314</ele>
        <time>2018-06-30T18:19:09.008Z</time>
      </trkpt>
      <trkpt lat="40.824338" lon="-4.02382">
        <ele>1315</ele>
        <time>2018-06-30T18:19:19.008Z</time>
      </trkpt>
      <trkpt lat="40.82426" lon="-4.023844">
        <ele>1315</ele>
        <time>2018-06-30T18:19:26.008Z</time>
      </trkpt>
      <trkpt lat="40.824188" lon="-4.023861">
        <ele>1315.57647324566</ele>
        <time>2018-06-30T18:19:31.008Z</time>
      </trkpt>
      <trkpt lat="40.82412" lon="-4.02388">
        <ele>1316</ele>
        <time>2018-06-30T18:19:37.008Z</time>
      </trkpt>
      <trkpt lat="40.824054" lon="-4.02394">
        <ele>1317</ele>
        <time>2018-06-30T18:19:42.008Z</time>
      </trkpt>
      <trkpt lat="40.823996" lon="-4.023984">
        <ele>1317</ele>
        <time>2018-06-30T18:19:46.008Z</time>
      </trkpt>
      <trkpt lat="40.823936" lon="-4.024022">
        <ele>1317</ele>
        <time>2018-06-30T18:19:52.008Z</time>
      </trkpt>
      <trkpt lat="40.82388" lon="-4.024076">
        <ele>1317</ele>
        <time>2018-06-30T18:19:57.008Z</time>
      </trkpt>
      <trkpt lat="40.823831" lon="-4.024136">
        <ele>1318</ele>
        <time>2018-06-30T18:20:03.008Z</time>
      </trkpt>
      <trkpt lat="40.82377" lon="-4.024209">
        <ele>1319</ele>
        <time>2018-06-30T18:20:10.008Z</time>
      </trkpt>
      <trkpt lat="40.82372" lon="-4.024286">
        <ele>1319</ele>
        <time>2018-06-30T18:20:16.008Z</time>
      </trkpt>
      <trkpt lat="40.823691" lon="-4.024373">
        <ele>1319.53454816263</ele>
        <time>2018-06-30T18:20:21.008Z</time>
      </trkpt>
      <trkpt lat="40.823667" lon="-4.024455">
        <ele>1320</ele>
        <time>2018-06-30T18:20:26.008Z</time>
      </trkpt>
      <trkpt lat="40.823654" lon="-4.024549">
        <ele>1320</ele>
        <time>2018-06-30T18:20:33.008Z</time>
      </trkpt>
      <trkpt lat="40.823619" lon="-4.024631">
        <ele>1320</ele>
        <time>2018-06-30T18:20:39.008Z</time>
      </trkpt>
      <trkpt lat="40.823587" lon="-4.024701">
        <ele>1321</ele>
        <time>2018-06-30T18:20:44.008Z</time>
      </trkpt>
      <trkpt lat="40.823533" lon="-4.024783">
        <ele>1321</ele>
        <time>2018-06-30T18:20:52.008Z</time>
      </trkpt>
      <trkpt lat="40.82349" lon="-4.02486">
        <ele>1321</ele>
        <time>2018-06-30T18:20:57.008Z</time>
      </trkpt>
      <trkpt lat="40.823477" lon="-4.024937">
        <ele>1321</ele>
        <time>2018-06-30T18:21:04.008Z</time>
      </trkpt>
      <trkpt lat="40.823444" lon="-4.024863">
        <ele>1322</ele>
        <time>2018-06-30T18:21:26.008Z</time>
      </trkpt>
      <trkpt lat="40.823381" lon="-4.024824">
        <ele>1321</ele>
        <time>2018-06-30T18:21:33.008Z</time>
      </trkpt>
      <trkpt lat="40.823279" lon="-4.024823">
        <ele>1323</ele>
        <time>2018-06-30T18:21:45.008Z</time>
      </trkpt>
      <trkpt lat="40.823176" lon="-4.024858">
        <ele>1323</ele>
        <time>2018-06-30T18:21:56.008Z</time>
      </trkpt>
      <trkpt lat="40.823078" lon="-4.02481">
        <ele>1324</ele>
        <time>2018-06-30T18:22:05.008Z</time>
      </trkpt>
      <trkpt lat="40.822987" lon="-4.024738">
        <ele>1324</ele>
        <time>2018-06-30T18:22:16.008Z</time>
      </trkpt>
      <trkpt lat="40.822885" lon="-4.024688">
        <ele>1324</ele>
        <time>2018-06-30T18:22:28.008Z</time>
      </trkpt>
      <trkpt lat="40.822785" lon="-4.024646">
        <ele>1326</ele>
        <time>2018-06-30T18:22:42.008Z</time>
      </trkpt>
      <trkpt lat="40.822694" lon="-4.024591">
        <ele>1326</ele>
        <time>2018-06-30T18:22:48.008Z</time>
      </trkpt>
      <trkpt lat="40.822585" lon="-4.024585">
        <ele>1326</ele>
        <time>2018-06-30T18:22:54.008Z</time>
      </trkpt>
      <trkpt lat="40.822491" lon="-4.02455">
        <ele>1326</ele>
        <time>2018-06-30T18:23:05.008Z</time>
      </trkpt>
      <trkpt lat="40.822377" lon="-4.024566">
        <ele>1326.58217902087</ele>
        <time>2018-06-30T18:23:11.008Z</time>
      </trkpt>
      <trkpt lat="40.822288" lon="-4.024623">
        <ele>1327</ele>
        <time>2018-06-30T18:23:16.008Z</time>
      </trkpt>
      <trkpt lat="40.822214" lon="-4.024717">
        <ele>1327</ele>
        <time>2018-06-30T18:23:22.008Z</time>
      </trkpt>
      <trkpt lat="40.822195" lon="-4.024848">
        <ele>1327</ele>
        <time>2018-06-30T18:23:29.008Z</time>
      </trkpt>
      <trkpt lat="40.822155" lon="-4.024981">
        <ele>1327</ele>
        <time>2018-06-30T18:23:42.008Z</time>
      </trkpt>
      <trkpt lat="40.822153" lon="-4.02512">
        <ele>1326</ele>
        <time>2018-06-30T18:23:50.008Z</time>
      </trkpt>
      <trkpt lat="40.822156" lon="-4.025254">
        <ele>1326</ele>
        <time>2018-06-30T18:24:03.008Z</time>
      </trkpt>
      <trkpt lat="40.82213" lon="-4.025366">
        <ele>1327</ele>
        <time>2018-06-30T18:24:15.008Z</time>
      </trkpt>
      <trkpt lat="40.822039" lon="-4.02542">
        <ele>1327</ele>
        <time>2018-06-30T18:24:26.008Z</time>
      </trkpt>
      <trkpt lat="40.821963" lon="-4.025492">
        <ele>1327</ele>
        <time>2018-06-30T18:24:36.008Z</time>
      </trkpt>
      <trkpt lat="40.821883" lon="-4.025569">
        <ele>1328</ele>
        <time>2018-06-30T18:24:44.008Z</time>
      </trkpt>
      <trkpt lat="40.821793" lon="-4.025591">
        <ele>1328</ele>
        <time>2018-06-30T18:24:53.008Z</time>
      </trkpt>
      <trkpt lat="40.821713" lon="-4.025663">
        <ele>1328</ele>
        <time>2018-06-30T18:25:00.008Z</time>
      </trkpt>
      <trkpt lat="40.821628" lon="-4.025726">
        <ele>1329</ele>
        <time>2018-06-30T18:25:09.008Z</time>
      </trkpt>
      <trkpt lat="40.821538" lon="-4.025774">
        <ele>1329</ele>
        <time>2018-06-30T18:25:19.008Z</time>
      </trkpt>
      <trkpt lat="40.821448" lon="-4.025829">
        <ele>1330</ele>
        <time>2018-06-30T18:25:27.008Z</time>
      </trkpt>
      <trkpt lat="40.82136" lon="-4.025907">
        <ele>1330</ele>
        <time>2018-06-30T18:25:38.008Z</time>
      </trkpt>
      <trkpt lat="40.82127" lon="-4.02598">
        <ele>1330</ele>
        <time>2018-06-30T18:25:48.008Z</time>
      </trkpt>
      <trkpt lat="40.821173" lon="-4.026032">
        <ele>1331</ele>
        <time>2018-06-30T18:25:55.008Z</time>
      </trkpt>
      <trkpt lat="40.821089" lon="-4.026106">
        <ele>1331</ele>
        <time>2018-06-30T18:26:01.008Z</time>
      </trkpt>
      <trkpt lat="40.82105" lon="-4.026234">
        <ele>1331</ele>
        <time>2018-06-30T18:26:09.008Z</time>
      </trkpt>
      <trkpt lat="40.82099" lon="-4.026345">
        <ele>1331</ele>
        <time>2018-06-30T18:26:17.008Z</time>
      </trkpt>
      <trkpt lat="40.820948" lon="-4.026462">
        <ele>1331</ele>
        <time>2018-06-30T18:26:26.008Z</time>
      </trkpt>
      <trkpt lat="40.820938" lon="-4.026605">
        <ele>1332</ele>
        <time>2018-06-30T18:26:34.008Z</time>
      </trkpt>
      <trkpt lat="40.820917" lon="-4.02674">
        <ele>1332</ele>
        <time>2018-06-30T18:26:45.008Z</time>
      </trkpt>
      <trkpt lat="40.820859" lon="-4.02685">
        <ele>1332</ele>
        <time>2018-06-30T18:26:53.008Z</time>
      </trkpt>
      <trkpt lat="40.820803" lon="-4.026956">
        <ele>1332</ele>
        <time>2018-06-30T18:27:05.008Z</time>
      </trkpt>
      <trkpt lat="40.820723" lon="-4.026895">
        <ele>1334</ele>
        <time>2018-06-30T18:27:26.008Z</time>
      </trkpt>
      <trkpt lat="40.820664" lon="-4.026827">
        <ele>1334</ele>
        <time>2018-06-30T18:27:39.008Z</time>
      </trkpt>
      <trkpt lat="40.82057" lon="-4.026855">
        <ele>1335</ele>
        <time>2018-06-30T18:27:45.008Z</time>
      </trkpt>
      <trkpt lat="40.820479" lon="-4.026868">
        <ele>1335.52973396833</ele>
        <time>2018-06-30T18:27:51.008Z</time>
      </trkpt>
      <trkpt lat="40.820391" lon="-4.026825">
        <ele>1335.45</ele>
        <time>2018-06-30T18:28:01.008Z</time>
      </trkpt>
      <trkpt lat="40.820314" lon="-4.026829">
        <ele>1335</ele>
        <time>2018-06-30T18:28:06.008Z</time>
      </trkpt>
      <trkpt lat="40.820234" lon="-4.026841">
        <ele>1335</ele>
        <time>2018-06-30T18:28:10.008Z</time>
      </trkpt>
      <trkpt lat="40.820145" lon="-4.026853">
        <ele>1337</ele>
        <time>2018-06-30T18:28:17.008Z</time>
      </trkpt>
      <trkpt lat="40.820071" lon="-4.026899">
        <ele>1337</ele>
        <time>2018-06-30T18:28:24.008Z</time>
      </trkpt>
      <trkpt lat="40.819994" lon="-4.026918">
        <ele>1338.15294649132</ele>
        <time>2018-06-30T18:28:31.008Z</time>
      </trkpt>
      <trkpt lat="40.81991" lon="-4.026979">
        <ele>1339</ele>
        <time>2018-06-30T18:28:38.008Z</time>
      </trkpt>
      <trkpt lat="40.819848" lon="-4.027035">
        <ele>1338</ele>
        <time>2018-06-30T18:28:44.008Z</time>
      </trkpt>
      <trkpt lat="40.819778" lon="-4.027079">
        <ele>1338</ele>
        <time>2018-06-30T18:28:51.008Z</time>
      </trkpt>
      <trkpt lat="40.819708" lon="-4.027121">
        <ele>1338</ele>
        <time>2018-06-30T18:28:58.008Z</time>
      </trkpt>
      <trkpt lat="40.819629" lon="-4.027139">
        <ele>1338</ele>
        <time>2018-06-30T18:29:05.008Z</time>
      </trkpt>
      <trkpt lat="40.819547" lon="-4.027181">
        <ele>1339</ele>
        <time>2018-06-30T18:29:13.008Z</time>
      </trkpt>
      <trkpt lat="40.819467" lon="-4.027215">
        <ele>1339</ele>
        <time>2018-06-30T18:29:20.008Z</time>
      </trkpt>
      <trkpt lat="40.819402" lon="-4.027247">
        <ele>1339</ele>
        <time>2018-06-30T18:29:25.008Z</time>
      </trkpt>
      <trkpt lat="40.819332" lon="-4.027284">
        <ele>1339.57647324566</ele>
        <time>2018-06-30T18:29:31.008Z</time>
      </trkpt>
      <trkpt lat="40.81927" lon="-4.027293">
        <ele>1340</ele>
        <time>2018-06-30T18:29:36.008Z</time>
      </trkpt>
      <trkpt lat="40.819199" lon="-4.027291">
        <ele>1341</ele>
        <time>2018-06-30T18:29:44.008Z</time>
      </trkpt>
      <trkpt lat="40.819158" lon="-4.027223">
        <ele>1342</ele>
        <time>2018-06-30T18:29:56.008Z</time>
      </trkpt>
      <trkpt lat="40.819108" lon="-4.027211">
        <ele>1344</ele>
        <time>2018-06-30T18:31:36.008Z</time>
      </trkpt>
      <trkpt lat="40.819094" lon="-4.027304">
        <ele>1343</ele>
        <time>2018-06-30T18:32:10.008Z</time>
      </trkpt>
      <trkpt lat="40.819087" lon="-4.027379">
        <ele>1343</ele>
        <time>2018-06-30T18:34:45.008Z</time>
      </trkpt>
      <trkpt lat="40.81908" lon="-4.027449">
        <ele>1342</ele>
        <time>2018-06-30T18:34:55.008Z</time>
      </trkpt>
      <trkpt lat="40.819049" lon="-4.027546">
        <ele>1342</ele>
        <time>2018-06-30T18:35:12.008Z</time>
      </trkpt>
      <trkpt lat="40.818992" lon="-4.027626">
        <ele>1342</ele>
        <time>2018-06-30T18:35:20.008Z</time>
      </trkpt>
      <trkpt lat="40.818944" lon="-4.027735">
        <ele>1342</ele>
        <time>2018-06-30T18:35:29.008Z</time>
      </trkpt>
      <trkpt lat="40.818922" lon="-4.027872">
        <ele>1342</ele>
        <time>2018-06-30T18:35:39.008Z</time>
      </trkpt>
      <trkpt lat="40.818897" lon="-4.027994">
        <ele>1343</ele>
        <time>2018-06-30T18:35:48.008Z</time>
      </trkpt>
      <trkpt lat="40.818888" lon="-4.028128">
        <ele>1343</ele>
        <time>2018-06-30T18:35:58.008Z</time>
      </trkpt>
      <trkpt lat="40.81889" lon="-4.028267">
        <ele>1345</ele>
        <time>2018-06-30T18:36:08.008Z</time>
      </trkpt>
      <trkpt lat="40.818855" lon="-4.028393">
        <ele>1346</ele>
        <time>2018-06-30T18:36:19.008Z</time>
      </trkpt>
      <trkpt lat="40.818802" lon="-4.028493">
        <ele>1347</ele>
        <time>2018-06-30T18:36:32.008Z</time>
      </trkpt>
      <trkpt lat="40.818733" lon="-4.028575">
        <ele>1349</ele>
        <time>2018-06-30T18:36:42.008Z</time>
      </trkpt>
      <trkpt lat="40.818646" lon="-4.028627">
        <ele>1349</ele>
        <time>2018-06-30T18:36:55.008Z</time>
      </trkpt>
      <trkpt lat="40.818567" lon="-4.02866">
        <ele>1350</ele>
        <time>2018-06-30T18:37:11.008Z</time>
      </trkpt>
      <trkpt lat="40.818481" lon="-4.028737">
        <ele>1350</ele>
        <time>2018-06-30T18:38:21.008Z</time>
      </trkpt>
      <trkpt lat="40.818388" lon="-4.028742">
        <ele>1350.57647324566</ele>
        <time>2018-06-30T18:38:31.008Z</time>
      </trkpt>
      <trkpt lat="40.818291" lon="-4.028731">
        <ele>1351.58217902087</ele>
        <time>2018-06-30T18:38:41.008Z</time>
      </trkpt>
      <trkpt lat="40.818199" lon="-4.028743">
        <ele>1352</ele>
        <time>2018-06-30T18:38:50.008Z</time>
      </trkpt>
      <trkpt lat="40.818088" lon="-4.028724">
        <ele>1352.41782097913</ele>
        <time>2018-06-30T18:38:59.008Z</time>
      </trkpt>
      <trkpt lat="40.817978" lon="-4.028704">
        <ele>1353</ele>
        <time>2018-06-30T18:39:06.008Z</time>
      </trkpt>
      <trkpt lat="40.817876" lon="-4.028697">
        <ele>1355</ele>
        <time>2018-06-30T18:39:15.008Z</time>
      </trkpt>
      <trkpt lat="40.817772" lon="-4.028682">
        <ele>1355</ele>
        <time>2018-06-30T18:39:24.008Z</time>
      </trkpt>
      <trkpt lat="40.817668" lon="-4.028691">
        <ele>1355</ele>
        <time>2018-06-30T18:39:29.008Z</time>
      </trkpt>
      <trkpt lat="40.817569" lon="-4.028702">
        <ele>1357</ele>
        <time>2018-06-30T18:39:36.008Z</time>
      </trkpt>
      <trkpt lat="40.817468" lon="-4.028738">
        <ele>1358</ele>
        <time>2018-06-30T18:39:43.008Z</time>
      </trkpt>
      <trkpt lat="40.817366" lon="-4.028767">
        <ele>1359.06909632526</ele>
        <time>2018-06-30T18:39:51.008Z</time>
      </trkpt>
      <trkpt lat="40.817264" lon="-4.028812">
        <ele>1359</ele>
        <time>2018-06-30T18:40:00.008Z</time>
      </trkpt>
      <trkpt lat="40.817162" lon="-4.028845">
        <ele>1360</ele>
        <time>2018-06-30T18:40:09.008Z</time>
      </trkpt>
      <trkpt lat="40.817068" lon="-4.028886">
        <ele>1361</ele>
        <time>2018-06-30T18:40:18.008Z</time>
      </trkpt>
      <trkpt lat="40.816958" lon="-4.028923">
        <ele>1362</ele>
        <time>2018-06-30T18:40:27.008Z</time>
      </trkpt>
      <trkpt lat="40.81686" lon="-4.028947">
        <ele>1363</ele>
        <time>2018-06-30T18:40:35.008Z</time>
      </trkpt>
      <trkpt lat="40.816758" lon="-4.028975">
        <ele>1363</ele>
        <time>2018-06-30T18:40:43.008Z</time>
      </trkpt>
      <trkpt lat="40.816661" lon="-4.029011">
        <ele>1364.06909632526</ele>
        <time>2018-06-30T18:40:51.008Z</time>
      </trkpt>
      <trkpt lat="40.816559" lon="-4.029044">
        <ele>1366</ele>
        <time>2018-06-30T18:41:02.008Z</time>
      </trkpt>
      <trkpt lat="40.816462" lon="-4.029084">
        <ele>1367</ele>
        <time>2018-06-30T18:41:12.008Z</time>
      </trkpt>
      <trkpt lat="40.816361" lon="-4.029106">
        <ele>1367</ele>
        <time>2018-06-30T18:41:21.008Z</time>
      </trkpt>
      <trkpt lat="40.81625" lon="-4.029103">
        <ele>1367</ele>
        <time>2018-06-30T18:41:31.008Z</time>
      </trkpt>
      <trkpt lat="40.816144" lon="-4.029083">
        <ele>1367</ele>
        <time>2018-06-30T18:41:39.008Z</time>
      </trkpt>
      <trkpt lat="40.816041" lon="-4.02907">
        <ele>1368</ele>
        <time>2018-06-30T18:41:50.008Z</time>
      </trkpt>
      <trkpt lat="40.815943" lon="-4.029032">
        <ele>1370</ele>
        <time>2018-06-30T18:41:59.008Z</time>
      </trkpt>
      <trkpt lat="40.81584" lon="-4.028972">
        <ele>1370</ele>
        <time>2018-06-30T18:42:08.008Z</time>
      </trkpt>
      <trkpt lat="40.815743" lon="-4.02891">
        <ele>1371</ele>
        <time>2018-06-30T18:42:16.008Z</time>
      </trkpt>
      <trkpt lat="40.815651" lon="-4.028858">
        <ele>1372</ele>
        <time>2018-06-30T18:42:23.008Z</time>
      </trkpt>
      <trkpt lat="40.815566" lon="-4.028842">
        <ele>1372.57647324566</ele>
        <time>2018-06-30T18:42:31.008Z</time>
      </trkpt>
      <trkpt lat="40.815483" lon="-4.028804">
        <ele>1373</ele>
        <time>2018-06-30T18:42:36.008Z</time>
      </trkpt>
      <trkpt lat="40.815395" lon="-4.028776">
        <ele>1373</ele>
        <time>2018-06-30T18:42:42.008Z</time>
      </trkpt>
      <trkpt lat="40.815296" lon="-4.02875">
        <ele>1374</ele>
        <time>2018-06-30T18:42:52.008Z</time>
      </trkpt>
      <trkpt lat="40.815198" lon="-4.028716">
        <ele>1374</ele>
        <time>2018-06-30T18:42:59.008Z</time>
      </trkpt>
      <trkpt lat="40.815095" lon="-4.028708">
        <ele>1375</ele>
        <time>2018-06-30T18:43:05.008Z</time>
      </trkpt>
      <trkpt lat="40.814991" lon="-4.028702">
        <ele>1375</ele>
        <time>2018-06-30T18:43:16.008Z</time>
      </trkpt>
      <trkpt lat="40.814879" lon="-4.028684">
        <ele>1376</ele>
        <time>2018-06-30T18:43:25.008Z</time>
      </trkpt>
      <trkpt lat="40.814768" lon="-4.028665">
        <ele>1377</ele>
        <time>2018-06-30T18:43:36.008Z</time>
      </trkpt>
      <trkpt lat="40.814659" lon="-4.028631">
        <ele>1377</ele>
        <time>2018-06-30T18:43:45.008Z</time>
      </trkpt>
      <trkpt lat="40.81456" lon="-4.028613">
        <ele>1378</ele>
        <time>2018-06-30T18:43:53.008Z</time>
      </trkpt>
      <trkpt lat="40.814454" lon="-4.028606">
        <ele>1378</ele>
        <time>2018-06-30T18:44:00.008Z</time>
      </trkpt>
      <trkpt lat="40.814355" lon="-4.028614">
        <ele>1379</ele>
        <time>2018-06-30T18:44:05.008Z</time>
      </trkpt>
      <trkpt lat="40.814252" lon="-4.028642">
        <ele>1381</ele>
        <time>2018-06-30T18:44:14.008Z</time>
      </trkpt>
      <trkpt lat="40.814157" lon="-4.028689">
        <ele>1381</ele>
        <time>2018-06-30T18:44:20.008Z</time>
      </trkpt>
      <trkpt lat="40.814057" lon="-4.028726">
        <ele>1381</ele>
        <time>2018-06-30T18:44:26.008Z</time>
      </trkpt>
      <trkpt lat="40.813963" lon="-4.028775">
        <ele>1383</ele>
        <time>2018-06-30T18:44:34.008Z</time>
      </trkpt>
      <trkpt lat="40.813879" lon="-4.02882">
        <ele>1383</ele>
        <time>2018-06-30T18:44:40.008Z</time>
      </trkpt>
      <trkpt lat="40.813802" lon="-4.028887">
        <ele>1383</ele>
        <time>2018-06-30T18:44:47.008Z</time>
      </trkpt>
      <trkpt lat="40.813726" lon="-4.028942">
        <ele>1384</ele>
        <time>2018-06-30T18:44:55.008Z</time>
      </trkpt>
      <trkpt lat="40.81367" lon="-4.029036">
        <ele>1384.57647324566</ele>
        <time>2018-06-30T18:45:01.008Z</time>
      </trkpt>
      <trkpt lat="40.813618" lon="-4.029137">
        <ele>1385</ele>
        <time>2018-06-30T18:45:08.008Z</time>
      </trkpt>
      <trkpt lat="40.813572" lon="-4.029226">
        <ele>1385</ele>
        <time>2018-06-30T18:45:15.008Z</time>
      </trkpt>
      <trkpt lat="40.81353" lon="-4.029321">
        <ele>1386</ele>
        <time>2018-06-30T18:45:22.008Z</time>
      </trkpt>
      <trkpt lat="40.813484" lon="-4.029405">
        <ele>1386</ele>
        <time>2018-06-30T18:45:28.008Z</time>
      </trkpt>
      <trkpt lat="40.813428" lon="-4.029479">
        <ele>1386</ele>
        <time>2018-06-30T18:45:34.008Z</time>
      </trkpt>
      <trkpt lat="40.813368" lon="-4.029591">
        <ele>1386</ele>
        <time>2018-06-30T18:45:45.008Z</time>
      </trkpt>
      <trkpt lat="40.813338" lon="-4.029709">
        <ele>1386</ele>
        <time>2018-06-30T18:45:51.008Z</time>
      </trkpt>
      <trkpt lat="40.813333" lon="-4.029809">
        <ele>1386</ele>
        <time>2018-06-30T18:46:22.008Z</time>
      </trkpt>
      <trkpt lat="40.813284" lon="-4.02994">
        <ele>1386</ele>
        <time>2018-06-30T18:46:36.008Z</time>
      </trkpt>
      <trkpt lat="40.813224" lon="-4.030045">
        <ele>1386</ele>
        <time>2018-06-30T18:46:44.008Z</time>
      </trkpt>
      <trkpt lat="40.813154" lon="-4.03015">
        <ele>1385</ele>
        <time>2018-06-30T18:46:53.008Z</time>
      </trkpt>
      <trkpt lat="40.813107" lon="-4.030271">
        <ele>1385</ele>
        <time>2018-06-30T18:47:00.008Z</time>
      </trkpt>
      <trkpt lat="40.813039" lon="-4.030375">
        <ele>1385</ele>
        <time>2018-06-30T18:47:08.008Z</time>
      </trkpt>
      <trkpt lat="40.812967" lon="-4.030488">
        <ele>1385</ele>
        <time>2018-06-30T18:47:17.008Z</time>
      </trkpt>
      <trkpt lat="40.812907" lon="-4.030605">
        <ele>1384</ele>
        <time>2018-06-30T18:47:26.008Z</time>
      </trkpt>
      <trkpt lat="40.812867" lon="-4.030685">
        <ele>1385</ele>
        <time>2018-06-30T18:47:32.008Z</time>
      </trkpt>
      <trkpt lat="40.812834" lon="-4.030784">
        <ele>1385</ele>
        <time>2018-06-30T18:47:38.008Z</time>
      </trkpt>
      <trkpt lat="40.812795" lon="-4.030879">
        <ele>1386</ele>
        <time>2018-06-30T18:47:44.008Z</time>
      </trkpt>
      <trkpt lat="40.812757" lon="-4.030973">
        <ele>1386</ele>
        <time>2018-06-30T18:47:50.008Z</time>
      </trkpt>
      <trkpt lat="40.812736" lon="-4.031071">
        <ele>1386</ele>
        <time>2018-06-30T18:47:57.008Z</time>
      </trkpt>
      <trkpt lat="40.812692" lon="-4.03117">
        <ele>1386</ele>
        <time>2018-06-30T18:48:05.008Z</time>
      </trkpt>
      <trkpt lat="40.812662" lon="-4.031269">
        <ele>1386</ele>
        <time>2018-06-30T18:48:10.008Z</time>
      </trkpt>
      <trkpt lat="40.812638" lon="-4.031378">
        <ele>1386</ele>
        <time>2018-06-30T18:48:16.008Z</time>
      </trkpt>
      <trkpt lat="40.812604" lon="-4.031466">
        <ele>1387</ele>
        <time>2018-06-30T18:48:22.008Z</time>
      </trkpt>
      <trkpt lat="40.812558" lon="-4.031557">
        <ele>1387</ele>
        <time>2018-06-30T18:48:29.008Z</time>
      </trkpt>
      <trkpt lat="40.812516" lon="-4.031649">
        <ele>1387</ele>
        <time>2018-06-30T18:48:36.008Z</time>
      </trkpt>
      <trkpt lat="40.812469" lon="-4.031723">
        <ele>1388</ele>
        <time>2018-06-30T18:48:42.008Z</time>
      </trkpt>
      <trkpt lat="40.812436" lon="-4.031811">
        <ele>1388</ele>
        <time>2018-06-30T18:48:47.008Z</time>
      </trkpt>
      <trkpt lat="40.812403" lon="-4.031892">
        <ele>1389</ele>
        <time>2018-06-30T18:48:52.008Z</time>
      </trkpt>
      <trkpt lat="40.812363" lon="-4.031979">
        <ele>1389</ele>
        <time>2018-06-30T18:48:58.008Z</time>
      </trkpt>
      <trkpt lat="40.812326" lon="-4.032063">
        <ele>1390</ele>
        <time>2018-06-30T18:49:04.008Z</time>
      </trkpt>
      <trkpt lat="40.81228" lon="-4.032136">
        <ele>1390</ele>
        <time>2018-06-30T18:49:10.008Z</time>
      </trkpt>
      <trkpt lat="40.812231" lon="-4.032191">
        <ele>1391</ele>
        <time>2018-06-30T18:49:16.008Z</time>
      </trkpt>
      <trkpt lat="40.812188" lon="-4.032267">
        <ele>1391</ele>
        <time>2018-06-30T18:49:22.008Z</time>
      </trkpt>
      <trkpt lat="40.812141" lon="-4.032328">
        <ele>1391</ele>
        <time>2018-06-30T18:49:27.008Z</time>
      </trkpt>
      <trkpt lat="40.812075" lon="-4.032396">
        <ele>1392</ele>
        <time>2018-06-30T18:49:34.008Z</time>
      </trkpt>
      <trkpt lat="40.812052" lon="-4.032426">
        <ele>1392</ele>
        <time>2018-06-30T18:49:36.008Z</time>
      </trkpt>
      <trkpt lat="40.811997" lon="-4.032488">
        <ele>1393</ele>
        <time>2018-06-30T18:49:42.008Z</time>
      </trkpt>
      <trkpt lat="40.811939" lon="-4.032528">
        <ele>1393</ele>
        <time>2018-06-30T18:49:48.008Z</time>
      </trkpt>
      <trkpt lat="40.811888" lon="-4.032567">
        <ele>1395</ele>
        <time>2018-06-30T18:49:53.008Z</time>
      </trkpt>
      <trkpt lat="40.811826" lon="-4.032611">
        <ele>1395</ele>
        <time>2018-06-30T18:49:59.008Z</time>
      </trkpt>
      <trkpt lat="40.811774" lon="-4.032658">
        <ele>1396</ele>
        <time>2018-06-30T18:50:04.008Z</time>
      </trkpt>
      <trkpt lat="40.811724" lon="-4.032716">
        <ele>1396</ele>
        <time>2018-06-30T18:50:10.008Z</time>
      </trkpt>
      <trkpt lat="40.811668" lon="-4.032764">
        <ele>1396</ele>
        <time>2018-06-30T18:50:15.008Z</time>
      </trkpt>
      <trkpt lat="40.811614" lon="-4.032824">
        <ele>1396</ele>
        <time>2018-06-30T18:50:21.008Z</time>
      </trkpt>
      <trkpt lat="40.811568" lon="-4.032859">
        <ele>1396</ele>
        <time>2018-06-30T18:50:25.008Z</time>
      </trkpt>
      <trkpt lat="40.811507" lon="-4.032894">
        <ele>1396</ele>
        <time>2018-06-30T18:50:30.008Z</time>
      </trkpt>
      <trkpt lat="40.81144" lon="-4.032946">
        <ele>1396</ele>
        <time>2018-06-30T18:50:36.008Z</time>
      </trkpt>
      <trkpt lat="40.811382" lon="-4.033005">
        <ele>1397</ele>
        <time>2018-06-30T18:50:42.008Z</time>
      </trkpt>
      <trkpt lat="40.811339" lon="-4.033062">
        <ele>1397</ele>
        <time>2018-06-30T18:50:47.008Z</time>
      </trkpt>
      <trkpt lat="40.811295" lon="-4.033129">
        <ele>1397</ele>
        <time>2018-06-30T18:50:52.008Z</time>
      </trkpt>
      <trkpt lat="40.811232" lon="-4.033232">
        <ele>1396</ele>
        <time>2018-06-30T18:51:02.008Z</time>
      </trkpt>
      <trkpt lat="40.81118" lon="-4.033353">
        <ele>1396</ele>
        <time>2018-06-30T18:51:09.008Z</time>
      </trkpt>
      <trkpt lat="40.811124" lon="-4.033471">
        <ele>1396</ele>
        <time>2018-06-30T18:51:17.008Z</time>
      </trkpt>
      <trkpt lat="40.811072" lon="-4.033584">
        <ele>1396</ele>
        <time>2018-06-30T18:51:25.008Z</time>
      </trkpt>
      <trkpt lat="40.811028" lon="-4.033706">
        <ele>1397</ele>
        <time>2018-06-30T18:51:34.008Z</time>
      </trkpt>
      <trkpt lat="40.810984" lon="-4.033833">
        <ele>1398</ele>
        <time>2018-06-30T18:51:42.008Z</time>
      </trkpt>
      <trkpt lat="40.810936" lon="-4.033958">
        <ele>1398</ele>
        <time>2018-06-30T18:51:50.008Z</time>
      </trkpt>
      <trkpt lat="40.810872" lon="-4.034072">
        <ele>1400</ele>
        <time>2018-06-30T18:51:58.008Z</time>
      </trkpt>
      <trkpt lat="40.810812" lon="-4.034171">
        <ele>1402</ele>
        <time>2018-06-30T18:52:05.008Z</time>
      </trkpt>
      <trkpt lat="40.810746" lon="-4.034288">
        <ele>1402</ele>
        <time>2018-06-30T18:52:14.008Z</time>
      </trkpt>
      <trkpt lat="40.810688" lon="-4.034399">
        <ele>1402</ele>
        <time>2018-06-30T18:52:22.008Z</time>
      </trkpt>
      <trkpt lat="40.810603" lon="-4.034485">
        <ele>1402</ele>
        <time>2018-06-30T18:52:31.008Z</time>
      </trkpt>
      <trkpt lat="40.810536" lon="-4.034595">
        <ele>1402</ele>
        <time>2018-06-30T18:52:39.008Z</time>
      </trkpt>
      <trkpt lat="40.81047" lon="-4.034711">
        <ele>1403</ele>
        <time>2018-06-30T18:52:48.008Z</time>
      </trkpt>
      <trkpt lat="40.810403" lon="-4.034812">
        <ele>1405</ele>
        <time>2018-06-30T18:52:57.008Z</time>
      </trkpt>
      <trkpt lat="40.810337" lon="-4.03492">
        <ele>1406</ele>
        <time>2018-06-30T18:53:05.008Z</time>
      </trkpt>
      <trkpt lat="40.810276" lon="-4.035024">
        <ele>1407</ele>
        <time>2018-06-30T18:53:13.008Z</time>
      </trkpt>
      <trkpt lat="40.810204" lon="-4.035123">
        <ele>1408</ele>
        <time>2018-06-30T18:53:22.008Z</time>
      </trkpt>
      <trkpt lat="40.810132" lon="-4.03522">
        <ele>1409</ele>
        <time>2018-06-30T18:53:32.008Z</time>
      </trkpt>
      <trkpt lat="40.810071" lon="-4.035324">
        <ele>1409</ele>
        <time>2018-06-30T18:53:40.008Z</time>
      </trkpt>
      <trkpt lat="40.810003" lon="-4.035431">
        <ele>1409</ele>
        <time>2018-06-30T18:53:50.008Z</time>
      </trkpt>
      <trkpt lat="40.809949" lon="-4.035552">
        <ele>1411</ele>
        <time>2018-06-30T18:53:58.008Z</time>
      </trkpt>
      <trkpt lat="40.8099" lon="-4.03568">
        <ele>1411</ele>
        <time>2018-06-30T18:54:06.008Z</time>
      </trkpt>
      <trkpt lat="40.809831" lon="-4.035774">
        <ele>1412</ele>
        <time>2018-06-30T18:54:13.008Z</time>
      </trkpt>
      <trkpt lat="40.80978" lon="-4.035901">
        <ele>1414</ele>
        <time>2018-06-30T18:54:22.008Z</time>
      </trkpt>
      <trkpt lat="40.809722" lon="-4.036011">
        <ele>1414.57647324566</ele>
        <time>2018-06-30T18:54:31.008Z</time>
      </trkpt>
      <trkpt lat="40.809668" lon="-4.03613">
        <ele>1415</ele>
        <time>2018-06-30T18:54:40.008Z</time>
      </trkpt>
      <trkpt lat="40.809602" lon="-4.036222">
        <ele>1416</ele>
        <time>2018-06-30T18:54:48.008Z</time>
      </trkpt>
      <trkpt lat="40.809549" lon="-4.036353">
        <ele>1417</ele>
        <time>2018-06-30T18:54:57.008Z</time>
      </trkpt>
      <trkpt lat="40.809483" lon="-4.036456">
        <ele>1417</ele>
        <time>2018-06-30T18:55:05.008Z</time>
      </trkpt>
      <trkpt lat="40.809418" lon="-4.036566">
        <ele>1418</ele>
        <time>2018-06-30T18:55:14.008Z</time>
      </trkpt>
      <trkpt lat="40.809351" lon="-4.036678">
        <ele>1419</ele>
        <time>2018-06-30T18:55:24.008Z</time>
      </trkpt>
      <trkpt lat="40.809302" lon="-4.036735">
        <ele>1419</ele>
        <time>2018-06-30T18:55:31.008Z</time>
      </trkpt>
      <trkpt lat="40.809257" lon="-4.036795">
        <ele>1419</ele>
        <time>2018-06-30T18:55:36.008Z</time>
      </trkpt>
      <trkpt lat="40.809235" lon="-4.036838">
        <ele>1419</ele>
        <time>2018-06-30T18:55:39.008Z</time>
      </trkpt>
      <trkpt lat="40.809214" lon="-4.036907">
        <ele>1421</ele>
        <time>2018-06-30T18:55:43.008Z</time>
      </trkpt>
      <trkpt lat="40.80919" lon="-4.036969">
        <ele>1421</ele>
        <time>2018-06-30T18:55:47.008Z</time>
      </trkpt>
      <trkpt lat="40.809154" lon="-4.037026">
        <ele>1421</ele>
        <time>2018-06-30T18:55:51.008Z</time>
      </trkpt>
      <trkpt lat="40.809126" lon="-4.037079">
        <ele>1421</ele>
        <time>2018-06-30T18:55:55.008Z</time>
      </trkpt>
      <trkpt lat="40.809097" lon="-4.037126">
        <ele>1421</ele>
        <time>2018-06-30T18:55:59.008Z</time>
      </trkpt>
      <trkpt lat="40.809061" lon="-4.037189">
        <ele>1422</ele>
        <time>2018-06-30T18:56:04.008Z</time>
      </trkpt>
      <trkpt lat="40.809034" lon="-4.037238">
        <ele>1422</ele>
        <time>2018-06-30T18:56:08.008Z</time>
      </trkpt>
      <trkpt lat="40.809004" lon="-4.037298">
        <ele>1422</ele>
        <time>2018-06-30T18:56:13.008Z</time>
      </trkpt>
      <trkpt lat="40.80897" lon="-4.037357">
        <ele>1422</ele>
        <time>2018-06-30T18:56:18.008Z</time>
      </trkpt>
      <trkpt lat="40.808942" lon="-4.037417">
        <ele>1422</ele>
        <time>2018-06-30T18:56:22.008Z</time>
      </trkpt>
      <trkpt lat="40.808919" lon="-4.037488">
        <ele>1422</ele>
        <time>2018-06-30T18:56:26.008Z</time>
      </trkpt>
      <trkpt lat="40.808905" lon="-4.037534">
        <ele>1422</ele>
        <time>2018-06-30T18:56:29.008Z</time>
      </trkpt>
      <trkpt lat="40.80889" lon="-4.03758">
        <ele>1423</ele>
        <time>2018-06-30T18:56:32.008Z</time>
      </trkpt>
      <trkpt lat="40.808859" lon="-4.037655">
        <ele>1423</ele>
        <time>2018-06-30T18:56:38.008Z</time>
      </trkpt>
      <trkpt lat="40.808829" lon="-4.03773">
        <ele>1423</ele>
        <time>2018-06-30T18:56:43.008Z</time>
      </trkpt>
      <trkpt lat="40.808801" lon="-4.037776">
        <ele>1423</ele>
        <time>2018-06-30T18:56:47.008Z</time>
      </trkpt>
      <trkpt lat="40.808783" lon="-4.037816">
        <ele>1423</ele>
        <time>2018-06-30T18:56:50.008Z</time>
      </trkpt>
      <trkpt lat="40.808765" lon="-4.037857">
        <ele>1425</ele>
        <time>2018-06-30T18:56:53.008Z</time>
      </trkpt>
      <trkpt lat="40.808693" lon="-4.037953">
        <ele>1427</ele>
        <time>2018-06-30T18:57:03.008Z</time>
      </trkpt>
      <trkpt lat="40.808627" lon="-4.038017">
        <ele>1427.58217902087</ele>
        <time>2018-06-30T18:57:11.008Z</time>
      </trkpt>
      <trkpt lat="40.808599" lon="-4.038068">
        <ele>1428</ele>
        <time>2018-06-30T18:57:15.008Z</time>
      </trkpt>
      <trkpt lat="40.808542" lon="-4.038188">
        <ele>1430</ele>
        <time>2018-06-30T18:57:24.008Z</time>
      </trkpt>
      <trkpt lat="40.808516" lon="-4.038249">
        <ele>1430</ele>
        <time>2018-06-30T18:57:28.008Z</time>
      </trkpt>
      <trkpt lat="40.808497" lon="-4.038289">
        <ele>1430.57647324566</ele>
        <time>2018-06-30T18:57:31.008Z</time>
      </trkpt>
      <trkpt lat="40.808484" lon="-4.038344">
        <ele>1431</ele>
        <time>2018-06-30T18:57:34.008Z</time>
      </trkpt>
      <trkpt lat="40.808466" lon="-4.038405">
        <ele>1431</ele>
        <time>2018-06-30T18:57:38.008Z</time>
      </trkpt>
      <trkpt lat="40.808449" lon="-4.038463">
        <ele>1433</ele>
        <time>2018-06-30T18:57:42.008Z</time>
      </trkpt>
      <trkpt lat="40.808421" lon="-4.038521">
        <ele>1433</ele>
        <time>2018-06-30T18:57:46.008Z</time>
      </trkpt>
      <trkpt lat="40.808414" lon="-4.038588">
        <ele>1433</ele>
        <time>2018-06-30T18:57:50.008Z</time>
      </trkpt>
      <trkpt lat="40.808394" lon="-4.038648">
        <ele>1434</ele>
        <time>2018-06-30T18:57:54.008Z</time>
      </trkpt>
      <trkpt lat="40.808379" lon="-4.038729">
        <ele>1434</ele>
        <time>2018-06-30T18:58:00.008Z</time>
      </trkpt>
      <trkpt lat="40.808361" lon="-4.038797">
        <ele>1437</ele>
        <time>2018-06-30T18:58:05.008Z</time>
      </trkpt>
      <trkpt lat="40.808368" lon="-4.038877">
        <ele>1437</ele>
        <time>2018-06-30T18:58:10.008Z</time>
      </trkpt>
      <trkpt lat="40.808359" lon="-4.038941">
        <ele>1438</ele>
        <time>2018-06-30T18:58:14.008Z</time>
      </trkpt>
      <trkpt lat="40.808353" lon="-4.039015">
        <ele>1438</ele>
        <time>2018-06-30T18:58:18.008Z</time>
      </trkpt>
      <trkpt lat="40.808346" lon="-4.039081">
        <ele>1439</ele>
        <time>2018-06-30T18:58:22.008Z</time>
      </trkpt>
      <trkpt lat="40.808323" lon="-4.039141">
        <ele>1439</ele>
        <time>2018-06-30T18:58:27.008Z</time>
      </trkpt>
      <trkpt lat="40.80831" lon="-4.039201">
        <ele>1440.15294649132</ele>
        <time>2018-06-30T18:58:31.008Z</time>
      </trkpt>
      <trkpt lat="40.808274" lon="-4.039244">
        <ele>1441</ele>
        <time>2018-06-30T18:58:36.008Z</time>
      </trkpt>
      <trkpt lat="40.808225" lon="-4.039256">
        <ele>1442.16435804175</ele>
        <time>2018-06-30T18:58:41.008Z</time>
      </trkpt>
      <trkpt lat="40.808178" lon="-4.039273">
        <ele>1443</ele>
        <time>2018-06-30T18:58:46.008Z</time>
      </trkpt>
      <trkpt lat="40.808128" lon="-4.039303">
        <ele>1444</ele>
        <time>2018-06-30T18:58:52.008Z</time>
      </trkpt>
      <trkpt lat="40.808084" lon="-4.039347">
        <ele>1444</ele>
        <time>2018-06-30T18:58:57.008Z</time>
      </trkpt>
      <trkpt lat="40.808039" lon="-4.039388">
        <ele>1445</ele>
        <time>2018-06-30T18:59:02.008Z</time>
      </trkpt>
      <trkpt lat="40.80799" lon="-4.039434">
        <ele>1445</ele>
        <time>2018-06-30T18:59:08.008Z</time>
      </trkpt>
      <trkpt lat="40.807937" lon="-4.039491">
        <ele>1447</ele>
        <time>2018-06-30T18:59:14.008Z</time>
      </trkpt>
      <trkpt lat="40.807884" lon="-4.039534">
        <ele>1447</ele>
        <time>2018-06-30T18:59:20.008Z</time>
      </trkpt>
      <trkpt lat="40.807831" lon="-4.039593">
        <ele>1447</ele>
        <time>2018-06-30T18:59:27.008Z</time>
      </trkpt>
      <trkpt lat="40.807777" lon="-4.03965">
        <ele>1448</ele>
        <time>2018-06-30T18:59:33.008Z</time>
      </trkpt>
      <trkpt lat="40.807737" lon="-4.039715">
        <ele>1448</ele>
        <time>2018-06-30T18:59:39.008Z</time>
      </trkpt>
      <trkpt lat="40.8077" lon="-4.039766">
        <ele>1449</ele>
        <time>2018-06-30T18:59:44.008Z</time>
      </trkpt>
      <trkpt lat="40.807661" lon="-4.039834">
        <ele>1449</ele>
        <time>2018-06-30T18:59:50.008Z</time>
      </trkpt>
      <trkpt lat="40.807607" lon="-4.039889">
        <ele>1449</ele>
        <time>2018-06-30T18:59:56.008Z</time>
      </trkpt>
      <trkpt lat="40.80757" lon="-4.039941">
        <ele>1449.55</ele>
        <time>2018-06-30T19:00:01.008Z</time>
      </trkpt>
      <trkpt lat="40.807528" lon="-4.040004">
        <ele>1450</ele>
        <time>2018-06-30T19:00:06.008Z</time>
      </trkpt>
      <trkpt lat="40.807484" lon="-4.040078">
        <ele>1452</ele>
        <time>2018-06-30T19:00:12.008Z</time>
      </trkpt>
      <trkpt lat="40.80744" lon="-4.040138">
        <ele>1452</ele>
        <time>2018-06-30T19:00:18.008Z</time>
      </trkpt>
      <trkpt lat="40.807386" lon="-4.040198">
        <ele>1454</ele>
        <time>2018-06-30T19:00:25.008Z</time>
      </trkpt>
      <trkpt lat="40.807338" lon="-4.040267">
        <ele>1455.15294649132</ele>
        <time>2018-06-30T19:00:31.008Z</time>
      </trkpt>
      <trkpt lat="40.807293" lon="-4.040324">
        <ele>1456</ele>
        <time>2018-06-30T19:00:37.008Z</time>
      </trkpt>
      <trkpt lat="40.807254" lon="-4.040402">
        <ele>1457</ele>
        <time>2018-06-30T19:00:43.008Z</time>
      </trkpt>
      <trkpt lat="40.807211" lon="-4.04047">
        <ele>1457</ele>
        <time>2018-06-30T19:00:50.008Z</time>
      </trkpt>
      <trkpt lat="40.807179" lon="-4.040546">
        <ele>1458</ele>
        <time>2018-06-30T19:00:56.008Z</time>
      </trkpt>
      <trkpt lat="40.80716" lon="-4.040629">
        <ele>1458.55918079465</ele>
        <time>2018-06-30T19:01:01.008Z</time>
      </trkpt>
      <trkpt lat="40.807148" lon="-4.040706">
        <ele>1459</ele>
        <time>2018-06-30T19:01:06.008Z</time>
      </trkpt>
      <trkpt lat="40.80713" lon="-4.040781">
        <ele>1460.16435804175</ele>
        <time>2018-06-30T19:01:11.008Z</time>
      </trkpt>
      <trkpt lat="40.807112" lon="-4.040863">
        <ele>1461</ele>
        <time>2018-06-30T19:01:16.008Z</time>
      </trkpt>
      <trkpt lat="40.807085" lon="-4.040943">
        <ele>1463</ele>
        <time>2018-06-30T19:01:22.008Z</time>
      </trkpt>
      <trkpt lat="40.807066" lon="-4.041023">
        <ele>1463</ele>
        <time>2018-06-30T19:01:28.008Z</time>
      </trkpt>
      <trkpt lat="40.807034" lon="-4.041105">
        <ele>1463</ele>
        <time>2018-06-30T19:01:38.008Z</time>
      </trkpt>
      <trkpt lat="40.807024" lon="-4.041199">
        <ele>1464</ele>
        <time>2018-06-30T19:01:44.008Z</time>
      </trkpt>
      <trkpt lat="40.807006" lon="-4.041285">
        <ele>1464</ele>
        <time>2018-06-30T19:01:49.008Z</time>
      </trkpt>
      <trkpt lat="40.806982" lon="-4.041385">
        <ele>1465</ele>
        <time>2018-06-30T19:01:56.008Z</time>
      </trkpt>
      <trkpt lat="40.806966" lon="-4.041478">
        <ele>1465.57647324566</ele>
        <time>2018-06-30T19:02:01.008Z</time>
      </trkpt>
      <trkpt lat="40.806952" lon="-4.04157">
        <ele>1466</ele>
        <time>2018-06-30T19:02:07.008Z</time>
      </trkpt>
      <trkpt lat="40.806928" lon="-4.041661">
        <ele>1468</ele>
        <time>2018-06-30T19:02:14.008Z</time>
      </trkpt>
      <trkpt lat="40.806901" lon="-4.041752">
        <ele>1469</ele>
        <time>2018-06-30T19:02:22.008Z</time>
      </trkpt>
      <trkpt lat="40.806872" lon="-4.041842">
        <ele>1470</ele>
        <time>2018-06-30T19:02:29.008Z</time>
      </trkpt>
      <trkpt lat="40.806866" lon="-4.041939">
        <ele>1471</ele>
        <time>2018-06-30T19:02:35.008Z</time>
      </trkpt>
      <trkpt lat="40.806846" lon="-4.042025">
        <ele>1471.58217902087</ele>
        <time>2018-06-30T19:02:41.008Z</time>
      </trkpt>
      <trkpt lat="40.806786" lon="-4.042067">
        <ele>1472</ele>
        <time>2018-06-30T19:02:48.008Z</time>
      </trkpt>
      <trkpt lat="40.806724" lon="-4.042115">
        <ele>1474</ele>
        <time>2018-06-30T19:02:57.008Z</time>
      </trkpt>
      <trkpt lat="40.806674" lon="-4.042185">
        <ele>1476</ele>
        <time>2018-06-30T19:03:03.008Z</time>
      </trkpt>
      <trkpt lat="40.806619" lon="-4.042231">
        <ele>1476</ele>
        <time>2018-06-30T19:03:09.008Z</time>
      </trkpt>
      <trkpt lat="40.806577" lon="-4.042294">
        <ele>1478</ele>
        <time>2018-06-30T19:03:15.008Z</time>
      </trkpt>
      <trkpt lat="40.806521" lon="-4.042337">
        <ele>1478</ele>
        <time>2018-06-30T19:03:20.008Z</time>
      </trkpt>
      <trkpt lat="40.806488" lon="-4.042426">
        <ele>1480</ele>
        <time>2018-06-30T19:03:26.008Z</time>
      </trkpt>
      <trkpt lat="40.806456" lon="-4.042511">
        <ele>1481</ele>
        <time>2018-06-30T19:03:32.008Z</time>
      </trkpt>
      <trkpt lat="40.806427" lon="-4.0426">
        <ele>1481</ele>
        <time>2018-06-30T19:03:39.008Z</time>
      </trkpt>
      <trkpt lat="40.806402" lon="-4.042689">
        <ele>1483</ele>
        <time>2018-06-30T19:03:46.008Z</time>
      </trkpt>
      <trkpt lat="40.806347" lon="-4.042749">
        <ele>1484</ele>
        <time>2018-06-30T19:03:54.008Z</time>
      </trkpt>
      <trkpt lat="40.806279" lon="-4.04281">
        <ele>1485</ele>
        <time>2018-06-30T19:04:02.008Z</time>
      </trkpt>
      <trkpt lat="40.806205" lon="-4.042865">
        <ele>1485</ele>
        <time>2018-06-30T19:04:10.008Z</time>
      </trkpt>
      <trkpt lat="40.806147" lon="-4.042923">
        <ele>1487</ele>
        <time>2018-06-30T19:04:17.008Z</time>
      </trkpt>
      <trkpt lat="40.806088" lon="-4.042996">
        <ele>1488</ele>
        <time>2018-06-30T19:04:26.008Z</time>
      </trkpt>
      <trkpt lat="40.806008" lon="-4.043034">
        <ele>1490</ele>
        <time>2018-06-30T19:04:35.008Z</time>
      </trkpt>
      <trkpt lat="40.805932" lon="-4.043066">
        <ele>1492</ele>
        <time>2018-06-30T19:04:42.008Z</time>
      </trkpt>
      <trkpt lat="40.80587" lon="-4.043102">
        <ele>1492.53454816263</ele>
        <time>2018-06-30T19:04:51.008Z</time>
      </trkpt>
      <trkpt lat="40.805793" lon="-4.04312">
        <ele>1493</ele>
        <time>2018-06-30T19:04:57.008Z</time>
      </trkpt>
      <trkpt lat="40.805729" lon="-4.043167">
        <ele>1495</ele>
        <time>2018-06-30T19:05:03.008Z</time>
      </trkpt>
      <trkpt lat="40.805663" lon="-4.043197">
        <ele>1495</ele>
        <time>2018-06-30T19:05:08.008Z</time>
      </trkpt>
      <trkpt lat="40.805607" lon="-4.043252">
        <ele>1497</ele>
        <time>2018-06-30T19:05:14.008Z</time>
      </trkpt>
      <trkpt lat="40.805551" lon="-4.043297">
        <ele>1497</ele>
        <time>2018-06-30T19:05:20.008Z</time>
      </trkpt>
      <trkpt lat="40.805497" lon="-4.043339">
        <ele>1498</ele>
        <time>2018-06-30T19:05:26.008Z</time>
      </trkpt>
      <trkpt lat="40.80542" lon="-4.043412">
        <ele>1499</ele>
        <time>2018-06-30T19:05:35.008Z</time>
      </trkpt>
      <trkpt lat="40.805357" lon="-4.04344">
        <ele>1501</ele>
        <time>2018-06-30T19:05:42.008Z</time>
      </trkpt>
      <trkpt lat="40.805287" lon="-4.043464">
        <ele>1501</ele>
        <time>2018-06-30T19:05:49.008Z</time>
      </trkpt>
      <trkpt lat="40.805219" lon="-4.043499">
        <ele>1502</ele>
        <time>2018-06-30T19:05:56.008Z</time>
      </trkpt>
      <trkpt lat="40.805156" lon="-4.043554">
        <ele>1502</ele>
        <time>2018-06-30T19:06:02.008Z</time>
      </trkpt>
      <trkpt lat="40.805097" lon="-4.043605">
        <ele>1502</ele>
        <time>2018-06-30T19:06:07.008Z</time>
      </trkpt>
      <trkpt lat="40.805039" lon="-4.043662">
        <ele>1502</ele>
        <time>2018-06-30T19:06:13.008Z</time>
      </trkpt>
      <trkpt lat="40.804976" lon="-4.043738">
        <ele>1502</ele>
        <time>2018-06-30T19:06:23.008Z</time>
      </trkpt>
      <trkpt lat="40.80488" lon="-4.043787">
        <ele>1502</ele>
        <time>2018-06-30T19:06:28.008Z</time>
      </trkpt>
      <trkpt lat="40.804779" lon="-4.043864">
        <ele>1500</ele>
        <time>2018-06-30T19:06:33.008Z</time>
      </trkpt>
      <trkpt lat="40.804694" lon="-4.043902">
        <ele>1500</ele>
        <time>2018-06-30T19:06:37.008Z</time>
      </trkpt>
      <trkpt lat="40.804604" lon="-4.043942">
        <ele>1499.41782097913</ele>
        <time>2018-06-30T19:06:41.008Z</time>
      </trkpt>
      <trkpt lat="40.804501" lon="-4.043969">
        <ele>1499</ele>
        <time>2018-06-30T19:06:45.008Z</time>
      </trkpt>
      <trkpt lat="40.804394" lon="-4.044032">
        <ele>1498.46545183737</ele>
        <time>2018-06-30T19:06:51.008Z</time>
      </trkpt>
      <trkpt lat="40.804295" lon="-4.044103">
        <ele>1498</ele>
        <time>2018-06-30T19:06:56.008Z</time>
      </trkpt>
      <trkpt lat="40.804203" lon="-4.044164">
        <ele>1496.84705350868</ele>
        <time>2018-06-30T19:07:01.008Z</time>
      </trkpt>
      <trkpt lat="40.804127" lon="-4.044196">
        <ele>1496</ele>
        <time>2018-06-30T19:07:05.008Z</time>
      </trkpt>
      <trkpt lat="40.80401" lon="-4.044247">
        <ele>1497</ele>
        <time>2018-06-30T19:07:10.008Z</time>
      </trkpt>
      <trkpt lat="40.803898" lon="-4.044267">
        <ele>1496</ele>
        <time>2018-06-30T19:07:14.008Z</time>
      </trkpt>
      <trkpt lat="40.803795" lon="-4.044297">
        <ele>1496</ele>
        <time>2018-06-30T19:07:18.008Z</time>
      </trkpt>
      <trkpt lat="40.803691" lon="-4.044337">
        <ele>1497</ele>
        <time>2018-06-30T19:07:25.008Z</time>
      </trkpt>
      <trkpt lat="40.803611" lon="-4.044416">
        <ele>1497</ele>
        <time>2018-06-30T19:07:35.008Z</time>
      </trkpt>
      <trkpt lat="40.803564" lon="-4.044452">
        <ele>1497</ele>
        <time>2018-06-30T19:07:39.008Z</time>
      </trkpt>
      <trkpt lat="40.803477" lon="-4.044533">
        <ele>1497</ele>
        <time>2018-06-30T19:07:48.008Z</time>
      </trkpt>
      <trkpt lat="40.803394" lon="-4.044622">
        <ele>1497</ele>
        <time>2018-06-30T19:07:57.008Z</time>
      </trkpt>
      <trkpt lat="40.803315" lon="-4.04471">
        <ele>1497</ele>
        <time>2018-06-30T19:08:06.008Z</time>
      </trkpt>
      <trkpt lat="40.803268" lon="-4.044827">
        <ele>1498</ele>
        <time>2018-06-30T19:08:14.008Z</time>
      </trkpt>
      <trkpt lat="40.803215" lon="-4.044939">
        <ele>1498</ele>
        <time>2018-06-30T19:08:22.008Z</time>
      </trkpt>
      <trkpt lat="40.803173" lon="-4.045067">
        <ele>1498</ele>
        <time>2018-06-30T19:08:30.008Z</time>
      </trkpt>
      <trkpt lat="40.803124" lon="-4.04519">
        <ele>1497</ele>
        <time>2018-06-30T19:08:38.008Z</time>
      </trkpt>
      <trkpt lat="40.803048" lon="-4.045286">
        <ele>1496</ele>
        <time>2018-06-30T19:08:48.008Z</time>
      </trkpt>
      <trkpt lat="40.802988" lon="-4.045348">
        <ele>1497</ele>
        <time>2018-06-30T19:08:58.008Z</time>
      </trkpt>
      <trkpt lat="40.802899" lon="-4.045409">
        <ele>1500</ele>
        <time>2018-06-30T19:09:12.008Z</time>
      </trkpt>
      <trkpt lat="40.802851" lon="-4.045529">
        <ele>1502</ele>
        <time>2018-06-30T19:09:24.008Z</time>
      </trkpt>
      <trkpt lat="40.802815" lon="-4.045649">
        <ele>1504</ele>
        <time>2018-06-30T19:09:33.008Z</time>
      </trkpt>
      <trkpt lat="40.802777" lon="-4.04574">
        <ele>1504</ele>
        <time>2018-06-30T19:09:42.008Z</time>
      </trkpt>
      <trkpt lat="40.802733" lon="-4.04584">
        <ele>1504</ele>
        <time>2018-06-30T19:09:51.008Z</time>
      </trkpt>
      <trkpt lat="40.802732" lon="-4.045884">
        <ele>1504</ele>
        <time>2018-06-30T19:09:54.008Z</time>
      </trkpt>
      <trkpt lat="40.802715" lon="-4.046015">
        <ele>1505</ele>
        <time>2018-06-30T19:10:04.008Z</time>
      </trkpt>
      <trkpt lat="40.802663" lon="-4.04614">
        <ele>1507</ele>
        <time>2018-06-30T19:10:15.008Z</time>
      </trkpt>
      <trkpt lat="40.802615" lon="-4.046272">
        <ele>1509</ele>
        <time>2018-06-30T19:10:26.008Z</time>
      </trkpt>
      <trkpt lat="40.802578" lon="-4.046403">
        <ele>1510</ele>
        <time>2018-06-30T19:10:39.008Z</time>
      </trkpt>
      <trkpt lat="40.802533" lon="-4.046524">
        <ele>1513.06909632526</ele>
        <time>2018-06-30T19:10:51.008Z</time>
      </trkpt>
      <trkpt lat="40.8025" lon="-4.046626">
        <ele>1514</ele>
        <time>2018-06-30T19:11:00.008Z</time>
      </trkpt>
      <trkpt lat="40.802459" lon="-4.046728">
        <ele>1517</ele>
        <time>2018-06-30T19:11:10.008Z</time>
      </trkpt>
      <trkpt lat="40.802418" lon="-4.046835">
        <ele>1517</ele>
        <time>2018-06-30T19:11:20.008Z</time>
      </trkpt>
      <trkpt lat="40.80239" lon="-4.046939">
        <ele>1519</ele>
        <time>2018-06-30T19:11:29.008Z</time>
      </trkpt>
      <trkpt lat="40.80238" lon="-4.047079">
        <ele>1521.16435804175</ele>
        <time>2018-06-30T19:11:41.008Z</time>
      </trkpt>
      <trkpt lat="40.802382" lon="-4.047213">
        <ele>1524</ele>
        <time>2018-06-30T19:11:53.008Z</time>
      </trkpt>
      <trkpt lat="40.80234" lon="-4.047278">
        <ele>1524</ele>
        <time>2018-06-30T19:12:00.008Z</time>
      </trkpt>
      <trkpt lat="40.802327" lon="-4.047344">
        <ele>1526</ele>
        <time>2018-06-30T19:12:06.008Z</time>
      </trkpt>
      <trkpt lat="40.802322" lon="-4.047376">
        <ele>1526</ele>
        <time>2018-06-30T19:12:09.008Z</time>
      </trkpt>
      <trkpt lat="40.802313" lon="-4.047421">
        <ele>1528</ele>
        <time>2018-06-30T19:12:13.008Z</time>
      </trkpt>
      <trkpt lat="40.802309" lon="-4.04745">
        <ele>1528</ele>
        <time>2018-06-30T19:12:15.008Z</time>
      </trkpt>
      <trkpt lat="40.802296" lon="-4.047502">
        <ele>1528</ele>
        <time>2018-06-30T19:12:20.008Z</time>
      </trkpt>
      <trkpt lat="40.802288" lon="-4.047543">
        <ele>1528</ele>
        <time>2018-06-30T19:12:23.008Z</time>
      </trkpt>
      <trkpt lat="40.802281" lon="-4.04761">
        <ele>1528</ele>
        <time>2018-06-30T19:12:28.008Z</time>
      </trkpt>
      <trkpt lat="40.802266" lon="-4.047678">
        <ele>1530</ele>
        <time>2018-06-30T19:12:34.008Z</time>
      </trkpt>
      <trkpt lat="40.80226" lon="-4.047734">
        <ele>1530</ele>
        <time>2018-06-30T19:12:38.008Z</time>
      </trkpt>
      <trkpt lat="40.802256" lon="-4.047771">
        <ele>1531.16435804175</ele>
        <time>2018-06-30T19:12:41.008Z</time>
      </trkpt>
      <trkpt lat="40.80225" lon="-4.047817">
        <ele>1532</ele>
        <time>2018-06-30T19:12:44.008Z</time>
      </trkpt>
      <trkpt lat="40.802226" lon="-4.047847">
        <ele>1532</ele>
        <time>2018-06-30T19:12:48.008Z</time>
      </trkpt>
      <trkpt lat="40.802211" lon="-4.04791">
        <ele>1534</ele>
        <time>2018-06-30T19:12:53.008Z</time>
      </trkpt>
      <trkpt lat="40.802186" lon="-4.047965">
        <ele>1534</ele>
        <time>2018-06-30T19:12:59.008Z</time>
      </trkpt>
      <trkpt lat="40.802165" lon="-4.048044">
        <ele>1536</ele>
        <time>2018-06-30T19:13:06.008Z</time>
      </trkpt>
      <trkpt lat="40.802152" lon="-4.048088">
        <ele>1536</ele>
        <time>2018-06-30T19:13:10.008Z</time>
      </trkpt>
      <trkpt lat="40.802135" lon="-4.048118">
        <ele>1537</ele>
        <time>2018-06-30T19:13:13.008Z</time>
      </trkpt>
      <trkpt lat="40.802131" lon="-4.048197">
        <ele>1537</ele>
        <time>2018-06-30T19:13:20.008Z</time>
      </trkpt>
      <trkpt lat="40.802112" lon="-4.048281">
        <ele>1538</ele>
        <time>2018-06-30T19:13:28.008Z</time>
      </trkpt>
      <trkpt lat="40.802112" lon="-4.048372">
        <ele>1540</ele>
        <time>2018-06-30T19:13:36.008Z</time>
      </trkpt>
      <trkpt lat="40.802098" lon="-4.048475">
        <ele>1542</ele>
        <time>2018-06-30T19:13:44.008Z</time>
      </trkpt>
      <trkpt lat="40.802089" lon="-4.04858">
        <ele>1543</ele>
        <time>2018-06-30T19:13:52.008Z</time>
      </trkpt>
      <trkpt lat="40.802056" lon="-4.048692">
        <ele>1544</ele>
        <time>2018-06-30T19:14:02.008Z</time>
      </trkpt>
      <trkpt lat="40.802058" lon="-4.048801">
        <ele>1544.58217902087</ele>
        <time>2018-06-30T19:14:11.008Z</time>
      </trkpt>
      <trkpt lat="40.802064" lon="-4.048881">
        <ele>1545</ele>
        <time>2018-06-30T19:14:17.008Z</time>
      </trkpt>
      <trkpt lat="40.802051" lon="-4.048972">
        <ele>1546</ele>
        <time>2018-06-30T19:14:23.008Z</time>
      </trkpt>
      <trkpt lat="40.802011" lon="-4.049087">
        <ele>1546</ele>
        <time>2018-06-30T19:14:33.008Z</time>
      </trkpt>
      <trkpt lat="40.802016" lon="-4.049205">
        <ele>1546</ele>
        <time>2018-06-30T19:14:40.008Z</time>
      </trkpt>
      <trkpt lat="40.802018" lon="-4.049318">
        <ele>1546</ele>
        <time>2018-06-30T19:14:48.008Z</time>
      </trkpt>
      <trkpt lat="40.801992" lon="-4.049414">
        <ele>1548</ele>
        <time>2018-06-30T19:14:55.008Z</time>
      </trkpt>
      <trkpt lat="40.801965" lon="-4.049508">
        <ele>1548</ele>
        <time>2018-06-30T19:15:02.008Z</time>
      </trkpt>
      <trkpt lat="40.801956" lon="-4.049634">
        <ele>1548</ele>
        <time>2018-06-30T19:15:11.008Z</time>
      </trkpt>
      <trkpt lat="40.801945" lon="-4.049745">
        <ele>1548</ele>
        <time>2018-06-30T19:15:19.008Z</time>
      </trkpt>
      <trkpt lat="40.801931" lon="-4.049858">
        <ele>1549</ele>
        <time>2018-06-30T19:15:27.008Z</time>
      </trkpt>
      <trkpt lat="40.801926" lon="-4.049963">
        <ele>1550</ele>
        <time>2018-06-30T19:15:34.008Z</time>
      </trkpt>
      <trkpt lat="40.801891" lon="-4.050062">
        <ele>1552</ele>
        <time>2018-06-30T19:15:43.008Z</time>
      </trkpt>
      <trkpt lat="40.801872" lon="-4.050166">
        <ele>1554</ele>
        <time>2018-06-30T19:15:54.008Z</time>
      </trkpt>
      <trkpt lat="40.801849" lon="-4.050269">
        <ele>1556</ele>
        <time>2018-06-30T19:16:02.008Z</time>
      </trkpt>
      <trkpt lat="40.801844" lon="-4.050365">
        <ele>1556</ele>
        <time>2018-06-30T19:16:08.008Z</time>
      </trkpt>
      <trkpt lat="40.801808" lon="-4.050468">
        <ele>1557</ele>
        <time>2018-06-30T19:16:16.008Z</time>
      </trkpt>
      <trkpt lat="40.801797" lon="-4.050583">
        <ele>1558</ele>
        <time>2018-06-30T19:16:24.008Z</time>
      </trkpt>
      <trkpt lat="40.801782" lon="-4.050695">
        <ele>1558</ele>
        <time>2018-06-30T19:16:32.008Z</time>
      </trkpt>
      <trkpt lat="40.801781" lon="-4.050795">
        <ele>1558</ele>
        <time>2018-06-30T19:16:39.008Z</time>
      </trkpt>
      <trkpt lat="40.801762" lon="-4.050883">
        <ele>1558</ele>
        <time>2018-06-30T19:16:46.008Z</time>
      </trkpt>
      <trkpt lat="40.801738" lon="-4.050987">
        <ele>1558</ele>
        <time>2018-06-30T19:16:54.008Z</time>
      </trkpt>
      <trkpt lat="40.801703" lon="-4.05108">
        <ele>1560</ele>
        <time>2018-06-30T19:17:02.008Z</time>
      </trkpt>
      <trkpt lat="40.801677" lon="-4.051158">
        <ele>1562</ele>
        <time>2018-06-30T19:17:25.008Z</time>
      </trkpt>
      <trkpt lat="40.801639" lon="-4.051207">
        <ele>1563</ele>
        <time>2018-06-30T19:17:36.008Z</time>
      </trkpt>
      <trkpt lat="40.801591" lon="-4.051229">
        <ele>1563</ele>
        <time>2018-06-30T19:17:44.008Z</time>
      </trkpt>
      <trkpt lat="40.801538" lon="-4.051249">
        <ele>1565</ele>
        <time>2018-06-30T19:17:52.008Z</time>
      </trkpt>
      <trkpt lat="40.801462" lon="-4.051276">
        <ele>1568</ele>
        <time>2018-06-30T19:18:03.008Z</time>
      </trkpt>
      <trkpt lat="40.80138" lon="-4.051286">
        <ele>1570</ele>
        <time>2018-06-30T19:18:19.008Z</time>
      </trkpt>
      <trkpt lat="40.801314" lon="-4.05131">
        <ele>1572</ele>
        <time>2018-06-30T19:18:30.008Z</time>
      </trkpt>
      <trkpt lat="40.801244" lon="-4.051344">
        <ele>1575</ele>
        <time>2018-06-30T19:18:42.008Z</time>
      </trkpt>
      <trkpt lat="40.801186" lon="-4.05137">
        <ele>1575</ele>
        <time>2018-06-30T19:18:50.008Z</time>
      </trkpt>
      <trkpt lat="40.801119" lon="-4.05143">
        <ele>1580</ele>
        <time>2018-06-30T19:19:05.008Z</time>
      </trkpt>
      <trkpt lat="40.801055" lon="-4.051489">
        <ele>1582</ele>
        <time>2018-06-30T19:19:17.008Z</time>
      </trkpt>
      <trkpt lat="40.800997" lon="-4.051547">
        <ele>1584</ele>
        <time>2018-06-30T19:19:29.008Z</time>
      </trkpt>
      <trkpt lat="40.800926" lon="-4.051593">
        <ele>1586</ele>
        <time>2018-06-30T19:19:40.008Z</time>
      </trkpt>
      <trkpt lat="40.800858" lon="-4.051655">
        <ele>1590</ele>
        <time>2018-06-30T19:19:53.008Z</time>
      </trkpt>
      <trkpt lat="40.800795" lon="-4.051732">
        <ele>1592</ele>
        <time>2018-06-30T19:20:05.008Z</time>
      </trkpt>
      <trkpt lat="40.800734" lon="-4.051808">
        <ele>1593</ele>
        <time>2018-06-30T19:20:16.008Z</time>
      </trkpt>
      <trkpt lat="40.800675" lon="-4.051906">
        <ele>1594</ele>
        <time>2018-06-30T19:20:29.008Z</time>
      </trkpt>
      <trkpt lat="40.800615" lon="-4.051981">
        <ele>1594</ele>
        <time>2018-06-30T19:20:38.008Z</time>
      </trkpt>
      <trkpt lat="40.800563" lon="-4.052094">
        <ele>1596</ele>
        <time>2018-06-30T19:20:49.008Z</time>
      </trkpt>
      <trkpt lat="40.800513" lon="-4.052184">
        <ele>1597</ele>
        <time>2018-06-30T19:20:58.008Z</time>
      </trkpt>
      <trkpt lat="40.80045" lon="-4.052276">
        <ele>1598</ele>
        <time>2018-06-30T19:21:10.008Z</time>
      </trkpt>
      <trkpt lat="40.800383" lon="-4.052379">
        <ele>1602</ele>
        <time>2018-06-30T19:21:27.008Z</time>
      </trkpt>
      <trkpt lat="40.800313" lon="-4.052444">
        <ele>1604.16435804175</ele>
        <time>2018-06-30T19:21:41.008Z</time>
      </trkpt>
      <trkpt lat="40.800228" lon="-4.052508">
        <ele>1608</ele>
        <time>2018-06-30T19:21:54.008Z</time>
      </trkpt>
      <trkpt lat="40.800158" lon="-4.052605">
        <ele>1609</ele>
        <time>2018-06-30T19:22:07.008Z</time>
      </trkpt>
      <trkpt lat="40.800086" lon="-4.052702">
        <ele>1611</ele>
        <time>2018-06-30T19:22:20.008Z</time>
      </trkpt>
      <trkpt lat="40.800002" lon="-4.052764">
        <ele>1612</ele>
        <time>2018-06-30T19:22:30.008Z</time>
      </trkpt>
      <trkpt lat="40.799944" lon="-4.052829">
        <ele>1613</ele>
        <time>2018-06-30T19:22:40.008Z</time>
      </trkpt>
      <trkpt lat="40.799886" lon="-4.052891">
        <ele>1614</ele>
        <time>2018-06-30T19:22:50.008Z</time>
      </trkpt>
      <trkpt lat="40.79982" lon="-4.052931">
        <ele>1616</ele>
        <time>2018-06-30T19:22:58.008Z</time>
      </trkpt>
      <trkpt lat="40.799769" lon="-4.053017">
        <ele>1620</ele>
        <time>2018-06-30T19:23:13.008Z</time>
      </trkpt>
      <trkpt lat="40.799684" lon="-4.053054">
        <ele>1622</ele>
        <time>2018-06-30T19:23:28.008Z</time>
      </trkpt>
      <trkpt lat="40.799594" lon="-4.053076">
        <ele>1627</ele>
        <time>2018-06-30T19:23:40.008Z</time>
      </trkpt>
      <trkpt lat="40.79953" lon="-4.053109">
        <ele>1628</ele>
        <time>2018-06-30T19:23:50.008Z</time>
      </trkpt>
      <trkpt lat="40.799436" lon="-4.053124">
        <ele>1632</ele>
        <time>2018-06-30T19:24:09.008Z</time>
      </trkpt>
      <trkpt lat="40.799343" lon="-4.053165">
        <ele>1636</ele>
        <time>2018-06-30T19:24:27.008Z</time>
      </trkpt>
      <trkpt lat="40.799261" lon="-4.053203">
        <ele>1638</ele>
        <time>2018-06-30T19:24:39.008Z</time>
      </trkpt>
      <trkpt lat="40.799175" lon="-4.053238">
        <ele>1641</ele>
        <time>2018-06-30T19:24:53.008Z</time>
      </trkpt>
      <trkpt lat="40.799097" lon="-4.053264">
        <ele>1645</ele>
        <time>2018-06-30T19:25:09.008Z</time>
      </trkpt>
      <trkpt lat="40.799004" lon="-4.053298">
        <ele>1648</ele>
        <time>2018-06-30T19:25:28.008Z</time>
      </trkpt>
      <trkpt lat="40.798918" lon="-4.053331">
        <ele>1649</ele>
        <time>2018-06-30T19:25:39.008Z</time>
      </trkpt>
      <trkpt lat="40.798837" lon="-4.053339">
        <ele>1653</ele>
        <time>2018-06-30T19:25:52.008Z</time>
      </trkpt>
      <trkpt lat="40.798742" lon="-4.053385">
        <ele>1657</ele>
        <time>2018-06-30T19:26:10.008Z</time>
      </trkpt>
      <trkpt lat="40.798665" lon="-4.053449">
        <ele>1659</ele>
        <time>2018-06-30T19:26:25.008Z</time>
      </trkpt>
      <trkpt lat="40.798608" lon="-4.053491">
        <ele>1661</ele>
        <time>2018-06-30T19:26:33.008Z</time>
      </trkpt>
      <trkpt lat="40.798544" lon="-4.053547">
        <ele>1664</ele>
        <time>2018-06-30T19:26:44.008Z</time>
      </trkpt>
      <trkpt lat="40.798486" lon="-4.053602">
        <ele>1664</ele>
        <time>2018-06-30T19:26:55.008Z</time>
      </trkpt>
      <trkpt lat="40.798422" lon="-4.053665">
        <ele>1667</ele>
        <time>2018-06-30T19:27:05.008Z</time>
      </trkpt>
      <trkpt lat="40.79836" lon="-4.053711">
        <ele>1669</ele>
        <time>2018-06-30T19:27:12.008Z</time>
      </trkpt>
      <trkpt lat="40.798289" lon="-4.053773">
        <ele>1671</ele>
        <time>2018-06-30T19:27:23.008Z</time>
      </trkpt>
      <trkpt lat="40.798233" lon="-4.053858">
        <ele>1673</ele>
        <time>2018-06-30T19:27:35.008Z</time>
      </trkpt>
      <trkpt lat="40.798159" lon="-4.053955">
        <ele>1674</ele>
        <time>2018-06-30T19:27:45.008Z</time>
      </trkpt>
      <trkpt lat="40.798109" lon="-4.05407">
        <ele>1674</ele>
        <time>2018-06-30T19:27:55.008Z</time>
      </trkpt>
      <trkpt lat="40.798061" lon="-4.054171">
        <ele>1674</ele>
        <time>2018-06-30T19:28:05.008Z</time>
      </trkpt>
      <trkpt lat="40.798004" lon="-4.054276">
        <ele>1675</ele>
        <time>2018-06-30T19:28:16.008Z</time>
      </trkpt>
      <trkpt lat="40.797962" lon="-4.054356">
        <ele>1676</ele>
        <time>2018-06-30T19:28:24.008Z</time>
      </trkpt>
      <trkpt lat="40.797884" lon="-4.054454">
        <ele>1676</ele>
        <time>2018-06-30T19:28:36.008Z</time>
      </trkpt>
      <trkpt lat="40.797817" lon="-4.05455">
        <ele>1678</ele>
        <time>2018-06-30T19:28:48.008Z</time>
      </trkpt>
      <trkpt lat="40.797753" lon="-4.054616">
        <ele>1679</ele>
        <time>2018-06-30T19:28:58.008Z</time>
      </trkpt>
      <trkpt lat="40.797679" lon="-4.05471">
        <ele>1681</ele>
        <time>2018-06-30T19:29:09.008Z</time>
      </trkpt>
      <trkpt lat="40.797623" lon="-4.054797">
        <ele>1683</ele>
        <time>2018-06-30T19:29:19.008Z</time>
      </trkpt>
      <trkpt lat="40.797544" lon="-4.054881">
        <ele>1684</ele>
        <time>2018-06-30T19:29:29.008Z</time>
      </trkpt>
      <trkpt lat="40.797481" lon="-4.054965">
        <ele>1685</ele>
        <time>2018-06-30T19:29:37.008Z</time>
      </trkpt>
      <trkpt lat="40.797406" lon="-4.055038">
        <ele>1687</ele>
        <time>2018-06-30T19:29:46.008Z</time>
      </trkpt>
      <trkpt lat="40.797327" lon="-4.055121">
        <ele>1688</ele>
        <time>2018-06-30T19:29:56.008Z</time>
      </trkpt>
      <trkpt lat="40.797252" lon="-4.055207">
        <ele>1690</ele>
        <time>2018-06-30T19:30:08.008Z</time>
      </trkpt>
      <trkpt lat="40.797212" lon="-4.055284">
        <ele>1691</ele>
        <time>2018-06-30T19:30:15.008Z</time>
      </trkpt>
      <trkpt lat="40.797162" lon="-4.05536">
        <ele>1692</ele>
        <time>2018-06-30T19:30:25.008Z</time>
      </trkpt>
      <trkpt lat="40.797088" lon="-4.055439">
        <ele>1694</ele>
        <time>2018-06-30T19:30:36.008Z</time>
      </trkpt>
      <trkpt lat="40.796999" lon="-4.05551">
        <ele>1695</ele>
        <time>2018-06-30T19:30:49.008Z</time>
      </trkpt>
      <trkpt lat="40.796946" lon="-4.055589">
        <ele>1697</ele>
        <time>2018-06-30T19:30:58.008Z</time>
      </trkpt>
      <trkpt lat="40.796873" lon="-4.055662">
        <ele>1699</ele>
        <time>2018-06-30T19:31:09.008Z</time>
      </trkpt>
      <trkpt lat="40.796802" lon="-4.055726">
        <ele>1701</ele>
        <time>2018-06-30T19:31:19.008Z</time>
      </trkpt>
      <trkpt lat="40.796749" lon="-4.055777">
        <ele>1702</ele>
        <time>2018-06-30T19:31:28.008Z</time>
      </trkpt>
      <trkpt lat="40.796675" lon="-4.055836">
        <ele>1704.58217902087</ele>
        <time>2018-06-30T19:31:41.008Z</time>
      </trkpt>
      <trkpt lat="40.796597" lon="-4.055917">
        <ele>1707</ele>
        <time>2018-06-30T19:31:54.008Z</time>
      </trkpt>
      <trkpt lat="40.796543" lon="-4.055957">
        <ele>1709</ele>
        <time>2018-06-30T19:32:04.008Z</time>
      </trkpt>
      <trkpt lat="40.796502" lon="-4.055982">
        <ele>1709</ele>
        <time>2018-06-30T19:32:10.008Z</time>
      </trkpt>
      <trkpt lat="40.796462" lon="-4.056008">
        <ele>1711</ele>
        <time>2018-06-30T19:32:16.008Z</time>
      </trkpt>
      <trkpt lat="40.796418" lon="-4.056052">
        <ele>1714</ele>
        <time>2018-06-30T19:32:24.008Z</time>
      </trkpt>
      <trkpt lat="40.796349" lon="-4.056128">
        <ele>1716</ele>
        <time>2018-06-30T19:32:35.008Z</time>
      </trkpt>
      <trkpt lat="40.796288" lon="-4.05622">
        <ele>1717</ele>
        <time>2018-06-30T19:32:47.008Z</time>
      </trkpt>
      <trkpt lat="40.796241" lon="-4.056315">
        <ele>1719</ele>
        <time>2018-06-30T19:32:57.008Z</time>
      </trkpt>
      <trkpt lat="40.796216" lon="-4.056372">
        <ele>1720</ele>
        <time>2018-06-30T19:33:03.008Z</time>
      </trkpt>
      <trkpt lat="40.796174" lon="-4.056423">
        <ele>1720</ele>
        <time>2018-06-30T19:33:10.008Z</time>
      </trkpt>
      <trkpt lat="40.796135" lon="-4.056481">
        <ele>1721</ele>
        <time>2018-06-30T19:33:16.008Z</time>
      </trkpt>
      <trkpt lat="40.796088" lon="-4.056508">
        <ele>1722.06909632526</ele>
        <time>2018-06-30T19:33:21.008Z</time>
      </trkpt>
      <trkpt lat="40.796044" lon="-4.056547">
        <ele>1723</ele>
        <time>2018-06-30T19:33:28.008Z</time>
      </trkpt>
      <trkpt lat="40.796007" lon="-4.056596">
        <ele>1724</ele>
        <time>2018-06-30T19:33:35.008Z</time>
      </trkpt>
      <trkpt lat="40.795975" lon="-4.056651">
        <ele>1725</ele>
        <time>2018-06-30T19:33:42.008Z</time>
      </trkpt>
      <trkpt lat="40.795923" lon="-4.056705">
        <ele>1725</ele>
        <time>2018-06-30T19:33:50.008Z</time>
      </trkpt>
      <trkpt lat="40.795889" lon="-4.056758">
        <ele>1726</ele>
        <time>2018-06-30T19:33:56.008Z</time>
      </trkpt>
      <trkpt lat="40.795832" lon="-4.05681">
        <ele>1728</ele>
        <time>2018-06-30T19:34:04.008Z</time>
      </trkpt>
      <trkpt lat="40.795792" lon="-4.056859">
        <ele>1728</ele>
        <time>2018-06-30T19:34:10.008Z</time>
      </trkpt>
      <trkpt lat="40.795748" lon="-4.056911">
        <ele>1729</ele>
        <time>2018-06-30T19:34:17.008Z</time>
      </trkpt>
      <trkpt lat="40.795697" lon="-4.056943">
        <ele>1731</ele>
        <time>2018-06-30T19:34:23.008Z</time>
      </trkpt>
      <trkpt lat="40.795649" lon="-4.056969">
        <ele>1731</ele>
        <time>2018-06-30T19:34:30.008Z</time>
      </trkpt>
      <trkpt lat="40.795603" lon="-4.057004">
        <ele>1733</ele>
        <time>2018-06-30T19:34:37.008Z</time>
      </trkpt>
      <trkpt lat="40.795551" lon="-4.057043">
        <ele>1735</ele>
        <time>2018-06-30T19:34:46.008Z</time>
      </trkpt>
      <trkpt lat="40.795499" lon="-4.057078">
        <ele>1736</ele>
        <time>2018-06-30T19:34:53.008Z</time>
      </trkpt>
      <trkpt lat="40.795454" lon="-4.05711">
        <ele>1737</ele>
        <time>2018-06-30T19:34:59.008Z</time>
      </trkpt>
      <trkpt lat="40.795404" lon="-4.057141">
        <ele>1738</ele>
        <time>2018-06-30T19:35:06.008Z</time>
      </trkpt>
      <trkpt lat="40.795362" lon="-4.05719">
        <ele>1739</ele>
        <time>2018-06-30T19:35:13.008Z</time>
      </trkpt>
      <trkpt lat="40.795322" lon="-4.057235">
        <ele>1739</ele>
        <time>2018-06-30T19:35:19.008Z</time>
      </trkpt>
      <trkpt lat="40.79527" lon="-4.057286">
        <ele>1741</ele>
        <time>2018-06-30T19:35:27.008Z</time>
      </trkpt>
      <trkpt lat="40.795232" lon="-4.057327">
        <ele>1743</ele>
        <time>2018-06-30T19:35:33.008Z</time>
      </trkpt>
      <trkpt lat="40.795198" lon="-4.057383">
        <ele>1745</ele>
        <time>2018-06-30T19:35:42.008Z</time>
      </trkpt>
      <trkpt lat="40.795152" lon="-4.057428">
        <ele>1745</ele>
        <time>2018-06-30T19:35:50.008Z</time>
      </trkpt>
      <trkpt lat="40.795112" lon="-4.05748">
        <ele>1747</ele>
        <time>2018-06-30T19:35:57.008Z</time>
      </trkpt>
      <trkpt lat="40.79506" lon="-4.057521">
        <ele>1748</ele>
        <time>2018-06-30T19:36:05.008Z</time>
      </trkpt>
      <trkpt lat="40.794992" lon="-4.057558">
        <ele>1750</ele>
        <time>2018-06-30T19:36:16.008Z</time>
      </trkpt>
      <trkpt lat="40.794936" lon="-4.057593">
        <ele>1752</ele>
        <time>2018-06-30T19:36:25.008Z</time>
      </trkpt>
      <trkpt lat="40.794883" lon="-4.057622">
        <ele>1752</ele>
        <time>2018-06-30T19:36:31.008Z</time>
      </trkpt>
      <trkpt lat="40.794834" lon="-4.057666">
        <ele>1752</ele>
        <time>2018-06-30T19:36:38.008Z</time>
      </trkpt>
      <trkpt lat="40.79479" lon="-4.0577">
        <ele>1754</ele>
        <time>2018-06-30T19:36:47.008Z</time>
      </trkpt>
      <trkpt lat="40.794726" lon="-4.057752">
        <ele>1755</ele>
        <time>2018-06-30T19:36:58.008Z</time>
      </trkpt>
      <trkpt lat="40.794674" lon="-4.057797">
        <ele>1757</ele>
        <time>2018-06-30T19:37:06.008Z</time>
      </trkpt>
      <trkpt lat="40.794627" lon="-4.057847">
        <ele>1759</ele>
        <time>2018-06-30T19:37:13.008Z</time>
      </trkpt>
      <trkpt lat="40.794583" lon="-4.05789">
        <ele>1759</ele>
        <time>2018-06-30T19:37:19.008Z</time>
      </trkpt>
      <trkpt lat="40.794539" lon="-4.057931">
        <ele>1761</ele>
        <time>2018-06-30T19:37:26.008Z</time>
      </trkpt>
      <trkpt lat="40.794499" lon="-4.05796">
        <ele>1761</ele>
        <time>2018-06-30T19:37:31.008Z</time>
      </trkpt>
      <trkpt lat="40.794451" lon="-4.057991">
        <ele>1761</ele>
        <time>2018-06-30T19:37:37.008Z</time>
      </trkpt>
      <trkpt lat="40.794399" lon="-4.058038">
        <ele>1763.53454816263</ele>
        <time>2018-06-30T19:37:45.008Z</time>
      </trkpt>
      <trkpt lat="40.794341" lon="-4.058091">
        <ele>1766</ele>
        <time>2018-06-30T19:37:54.008Z</time>
      </trkpt>
      <trkpt lat="40.794294" lon="-4.058138">
        <ele>1766.57647324566</ele>
        <time>2018-06-30T19:38:01.008Z</time>
      </trkpt>
      <trkpt lat="40.794247" lon="-4.058176">
        <ele>1767</ele>
        <time>2018-06-30T19:38:07.008Z</time>
      </trkpt>
      <trkpt lat="40.794192" lon="-4.058214">
        <ele>1768</ele>
        <time>2018-06-30T19:38:15.008Z</time>
      </trkpt>
      <trkpt lat="40.794142" lon="-4.058261">
        <ele>1769</ele>
        <time>2018-06-30T19:38:22.008Z</time>
      </trkpt>
      <trkpt lat="40.794086" lon="-4.058304">
        <ele>1769</ele>
        <time>2018-06-30T19:38:30.008Z</time>
      </trkpt>
      <trkpt lat="40.794025" lon="-4.058332">
        <ele>1771</ele>
        <time>2018-06-30T19:38:38.008Z</time>
      </trkpt>
      <trkpt lat="40.793983" lon="-4.058352">
        <ele>1773</ele>
        <time>2018-06-30T19:38:43.008Z</time>
      </trkpt>
      <trkpt lat="40.793925" lon="-4.058401">
        <ele>1773.53454816263</ele>
        <time>2018-06-30T19:38:51.008Z</time>
      </trkpt>
      <trkpt lat="40.793876" lon="-4.058449">
        <ele>1774</ele>
        <time>2018-06-30T19:38:58.008Z</time>
      </trkpt>
      <trkpt lat="40.793818" lon="-4.058484">
        <ele>1776</ele>
        <time>2018-06-30T19:39:06.008Z</time>
      </trkpt>
      <trkpt lat="40.793765" lon="-4.058516">
        <ele>1778</ele>
        <time>2018-06-30T19:39:13.008Z</time>
      </trkpt>
      <trkpt lat="40.793698" lon="-4.058539">
        <ele>1780</ele>
        <time>2018-06-30T19:39:43.008Z</time>
      </trkpt>
      <trkpt lat="40.793647" lon="-4.058579">
        <ele>1780</ele>
        <time>2018-06-30T19:39:49.008Z</time>
      </trkpt>
      <trkpt lat="40.793591" lon="-4.058616">
        <ele>1781</ele>
        <time>2018-06-30T19:39:57.008Z</time>
      </trkpt>
      <trkpt lat="40.79356" lon="-4.05865">
        <ele>1781</ele>
        <time>2018-06-30T19:40:07.008Z</time>
      </trkpt>
      <trkpt lat="40.793533" lon="-4.058674">
        <ele>1780</ele>
        <time>2018-06-30T19:41:48.008Z</time>
      </trkpt>
      <trkpt lat="40.793566" lon="-4.058613">
        <ele>1779</ele>
        <time>2018-06-30T19:43:05.008Z</time>
      </trkpt>
      <trkpt lat="40.793611" lon="-4.058565">
        <ele>1779</ele>
        <time>2018-06-30T19:43:13.008Z</time>
      </trkpt>
      <trkpt lat="40.793645" lon="-4.058494">
        <ele>1779</ele>
        <time>2018-06-30T19:43:21.008Z</time>
      </trkpt>
      <trkpt lat="40.793671" lon="-4.058416">
        <ele>1780.15294649132</ele>
        <time>2018-06-30T19:43:31.008Z</time>
      </trkpt>
      <trkpt lat="40.7937" lon="-4.058344">
        <ele>1781</ele>
        <time>2018-06-30T19:43:41.008Z</time>
      </trkpt>
      <trkpt lat="40.793741" lon="-4.058281">
        <ele>1781</ele>
        <time>2018-06-30T19:43:47.008Z</time>
      </trkpt>
      <trkpt lat="40.793783" lon="-4.058205">
        <ele>1781.53454816263</ele>
        <time>2018-06-30T19:43:57.008Z</time>
      </trkpt>
      <trkpt lat="40.793838" lon="-4.058138">
        <ele>1781</ele>
        <time>2018-06-30T19:44:03.008Z</time>
      </trkpt>
      <trkpt lat="40.793882" lon="-4.058075">
        <ele>1781</ele>
        <time>2018-06-30T19:44:08.008Z</time>
      </trkpt>
      <trkpt lat="40.793928" lon="-4.058001">
        <ele>1781</ele>
        <time>2018-06-30T19:44:15.008Z</time>
      </trkpt>
      <trkpt lat="40.793956" lon="-4.057914">
        <ele>1781</ele>
        <time>2018-06-30T19:44:20.008Z</time>
      </trkpt>
      <trkpt lat="40.793996" lon="-4.057832">
        <ele>1781</ele>
        <time>2018-06-30T19:44:25.008Z</time>
      </trkpt>
      <trkpt lat="40.794035" lon="-4.057761">
        <ele>1780.42352675434</ele>
        <time>2018-06-30T19:44:31.008Z</time>
      </trkpt>
      <trkpt lat="40.794072" lon="-4.057695">
        <ele>1780</ele>
        <time>2018-06-30T19:44:38.008Z</time>
      </trkpt>
      <trkpt lat="40.794122" lon="-4.057639">
        <ele>1780</ele>
        <time>2018-06-30T19:44:45.008Z</time>
      </trkpt>
      <trkpt lat="40.794159" lon="-4.057574">
        <ele>1779.46545183737</ele>
        <time>2018-06-30T19:44:51.008Z</time>
      </trkpt>
      <trkpt lat="40.794191" lon="-4.057505">
        <ele>1779</ele>
        <time>2018-06-30T19:44:57.008Z</time>
      </trkpt>
      <trkpt lat="40.794228" lon="-4.057445">
        <ele>1778</ele>
        <time>2018-06-30T19:45:04.008Z</time>
      </trkpt>
      <trkpt lat="40.794276" lon="-4.057378">
        <ele>1779</ele>
        <time>2018-06-30T19:45:12.008Z</time>
      </trkpt>
      <trkpt lat="40.794342" lon="-4.057353">
        <ele>1779</ele>
        <time>2018-06-30T19:45:18.008Z</time>
      </trkpt>
      <trkpt lat="40.794388" lon="-4.057288">
        <ele>1779</ele>
        <time>2018-06-30T19:45:25.008Z</time>
      </trkpt>
      <trkpt lat="40.794442" lon="-4.05723">
        <ele>1778.42352675434</ele>
        <time>2018-06-30T19:45:31.008Z</time>
      </trkpt>
      <trkpt lat="40.794486" lon="-4.057155">
        <ele>1778</ele>
        <time>2018-06-30T19:45:36.008Z</time>
      </trkpt>
      <trkpt lat="40.794534" lon="-4.057093">
        <ele>1777</ele>
        <time>2018-06-30T19:45:42.008Z</time>
      </trkpt>
      <trkpt lat="40.794558" lon="-4.057007">
        <ele>1777</ele>
        <time>2018-06-30T19:45:48.008Z</time>
      </trkpt>
      <trkpt lat="40.79458" lon="-4.056932">
        <ele>1779</ele>
        <time>2018-06-30T19:45:54.008Z</time>
      </trkpt>
      <trkpt lat="40.794596" lon="-4.056859">
        <ele>1779</ele>
        <time>2018-06-30T19:45:58.008Z</time>
      </trkpt>
      <trkpt lat="40.794625" lon="-4.056783">
        <ele>1780</ele>
        <time>2018-06-30T19:46:04.008Z</time>
      </trkpt>
      <trkpt lat="40.794643" lon="-4.056709">
        <ele>1780</ele>
        <time>2018-06-30T19:46:09.008Z</time>
      </trkpt>
      <trkpt lat="40.794642" lon="-4.056628">
        <ele>1782</ele>
        <time>2018-06-30T19:46:15.008Z</time>
      </trkpt>
      <trkpt lat="40.79467" lon="-4.056542">
        <ele>1782</ele>
        <time>2018-06-30T19:46:22.008Z</time>
      </trkpt>
      <trkpt lat="40.794716" lon="-4.056469">
        <ele>1783</ele>
        <time>2018-06-30T19:46:29.008Z</time>
      </trkpt>
      <trkpt lat="40.794744" lon="-4.056402">
        <ele>1784</ele>
        <time>2018-06-30T19:46:34.008Z</time>
      </trkpt>
      <trkpt lat="40.794758" lon="-4.056325">
        <ele>1784</ele>
        <time>2018-06-30T19:46:40.008Z</time>
      </trkpt>
      <trkpt lat="40.794781" lon="-4.056235">
        <ele>1785</ele>
        <time>2018-06-30T19:46:46.008Z</time>
      </trkpt>
      <trkpt lat="40.794801" lon="-4.056137">
        <ele>1785</ele>
        <time>2018-06-30T19:46:53.008Z</time>
      </trkpt>
      <trkpt lat="40.794823" lon="-4.056062">
        <ele>1785</ele>
        <time>2018-06-30T19:46:59.008Z</time>
      </trkpt>
      <trkpt lat="40.794853" lon="-4.055981">
        <ele>1786</ele>
        <time>2018-06-30T19:47:06.008Z</time>
      </trkpt>
      <trkpt lat="40.794889" lon="-4.055905">
        <ele>1787</ele>
        <time>2018-06-30T19:47:13.008Z</time>
      </trkpt>
      <trkpt lat="40.794912" lon="-4.055836">
        <ele>1787</ele>
        <time>2018-06-30T19:47:18.008Z</time>
      </trkpt>
      <trkpt lat="40.794953" lon="-4.055762">
        <ele>1787</ele>
        <time>2018-06-30T19:47:25.008Z</time>
      </trkpt>
      <trkpt lat="40.794989" lon="-4.05566">
        <ele>1787.57647324566</ele>
        <time>2018-06-30T19:47:31.008Z</time>
      </trkpt>
      <trkpt lat="40.795013" lon="-4.055579">
        <ele>1788</ele>
        <time>2018-06-30T19:47:35.008Z</time>
      </trkpt>
      <trkpt lat="40.795031" lon="-4.05551">
        <ele>1788</ele>
        <time>2018-06-30T19:47:40.008Z</time>
      </trkpt>
      <trkpt lat="40.795074" lon="-4.055418">
        <ele>1789</ele>
        <time>2018-06-30T19:47:49.008Z</time>
      </trkpt>
      <trkpt lat="40.795104" lon="-4.055352">
        <ele>1790</ele>
        <time>2018-06-30T19:47:57.008Z</time>
      </trkpt>
      <trkpt lat="40.795121" lon="-4.055273">
        <ele>1790</ele>
        <time>2018-06-30T19:48:02.008Z</time>
      </trkpt>
      <trkpt lat="40.795134" lon="-4.055227">
        <ele>1790</ele>
        <time>2018-06-30T19:48:05.008Z</time>
      </trkpt>
      <trkpt lat="40.795155" lon="-4.055139">
        <ele>1792</ele>
        <time>2018-06-30T19:48:12.008Z</time>
      </trkpt>
      <trkpt lat="40.795174" lon="-4.05507">
        <ele>1792</ele>
        <time>2018-06-30T19:48:17.008Z</time>
      </trkpt>
      <trkpt lat="40.795189" lon="-4.055018">
        <ele>1793.06909632526</ele>
        <time>2018-06-30T19:48:21.008Z</time>
      </trkpt>
      <trkpt lat="40.795202" lon="-4.054953">
        <ele>1794</ele>
        <time>2018-06-30T19:48:27.008Z</time>
      </trkpt>
      <trkpt lat="40.795229" lon="-4.054887">
        <ele>1795</ele>
        <time>2018-06-30T19:48:33.008Z</time>
      </trkpt>
      <trkpt lat="40.795253" lon="-4.054793">
        <ele>1796</ele>
        <time>2018-06-30T19:48:42.008Z</time>
      </trkpt>
      <trkpt lat="40.795278" lon="-4.054697">
        <ele>1796</ele>
        <time>2018-06-30T19:48:49.008Z</time>
      </trkpt>
      <trkpt lat="40.795296" lon="-4.054613">
        <ele>1797</ele>
        <time>2018-06-30T19:48:54.008Z</time>
      </trkpt>
      <trkpt lat="40.795295" lon="-4.054542">
        <ele>1797</ele>
        <time>2018-06-30T19:48:59.008Z</time>
      </trkpt>
      <trkpt lat="40.795309" lon="-4.054471">
        <ele>1798</ele>
        <time>2018-06-30T19:49:06.008Z</time>
      </trkpt>
      <trkpt lat="40.79533" lon="-4.054406">
        <ele>1798.58217902087</ele>
        <time>2018-06-30T19:49:11.008Z</time>
      </trkpt>
      <trkpt lat="40.795353" lon="-4.054327">
        <ele>1799</ele>
        <time>2018-06-30T19:49:17.008Z</time>
      </trkpt>
      <trkpt lat="40.795382" lon="-4.054245">
        <ele>1800</ele>
        <time>2018-06-30T19:49:23.008Z</time>
      </trkpt>
      <trkpt lat="40.795394" lon="-4.054157">
        <ele>1800</ele>
        <time>2018-06-30T19:49:30.008Z</time>
      </trkpt>
      <trkpt lat="40.795413" lon="-4.054073">
        <ele>1801</ele>
        <time>2018-06-30T19:49:36.008Z</time>
      </trkpt>
      <trkpt lat="40.795431" lon="-4.053998">
        <ele>1802</ele>
        <time>2018-06-30T19:49:43.008Z</time>
      </trkpt>
      <trkpt lat="40.795458" lon="-4.053925">
        <ele>1802</ele>
        <time>2018-06-30T19:49:49.008Z</time>
      </trkpt>
      <trkpt lat="40.795459" lon="-4.053845">
        <ele>1803</ele>
        <time>2018-06-30T19:49:54.008Z</time>
      </trkpt>
      <trkpt lat="40.795481" lon="-4.053775">
        <ele>1803</ele>
        <time>2018-06-30T19:50:00.008Z</time>
      </trkpt>
      <trkpt lat="40.795504" lon="-4.053679">
        <ele>1804</ele>
        <time>2018-06-30T19:50:08.008Z</time>
      </trkpt>
      <trkpt lat="40.795511" lon="-4.053593">
        <ele>1805</ele>
        <time>2018-06-30T19:50:13.008Z</time>
      </trkpt>
      <trkpt lat="40.795513" lon="-4.053531">
        <ele>1805.583840813</ele>
        <time>2018-06-30T19:50:18.008Z</time>
      </trkpt>
      <trkpt lat="40.795527" lon="-4.053473">
        <ele>1807</ele>
        <time>2018-06-30T19:50:22.008Z</time>
      </trkpt>
      <trkpt lat="40.795532" lon="-4.053389">
        <ele>1807</ele>
        <time>2018-06-30T19:50:28.008Z</time>
      </trkpt>
      <trkpt lat="40.795547" lon="-4.053321">
        <ele>1809</ele>
        <time>2018-06-30T19:50:33.008Z</time>
      </trkpt>
      <trkpt lat="40.795576" lon="-4.053244">
        <ele>1809</ele>
        <time>2018-06-30T19:50:40.008Z</time>
      </trkpt>
      <trkpt lat="40.795565" lon="-4.053163">
        <ele>1811</ele>
        <time>2018-06-30T19:50:46.008Z</time>
      </trkpt>
      <trkpt lat="40.795573" lon="-4.053088">
        <ele>1811</ele>
        <time>2018-06-30T19:50:51.008Z</time>
      </trkpt>
      <trkpt lat="40.79556" lon="-4.053015">
        <ele>1811</ele>
        <time>2018-06-30T19:50:57.008Z</time>
      </trkpt>
      <trkpt lat="40.795548" lon="-4.052946">
        <ele>1812.15294649132</ele>
        <time>2018-06-30T19:51:01.008Z</time>
      </trkpt>
      <trkpt lat="40.795528" lon="-4.05288">
        <ele>1813</ele>
        <time>2018-06-30T19:51:06.008Z</time>
      </trkpt>
      <trkpt lat="40.795518" lon="-4.052809">
        <ele>1814.16435804175</ele>
        <time>2018-06-30T19:51:11.008Z</time>
      </trkpt>
      <trkpt lat="40.795511" lon="-4.052734">
        <ele>1815</ele>
        <time>2018-06-30T19:51:17.008Z</time>
      </trkpt>
      <trkpt lat="40.795513" lon="-4.052649">
        <ele>1816</ele>
        <time>2018-06-30T19:51:24.008Z</time>
      </trkpt>
      <trkpt lat="40.795525" lon="-4.052582">
        <ele>1816</ele>
        <time>2018-06-30T19:51:30.008Z</time>
      </trkpt>
      <trkpt lat="40.795524" lon="-4.052515">
        <ele>1816</ele>
        <time>2018-06-30T19:51:34.008Z</time>
      </trkpt>
      <trkpt lat="40.795521" lon="-4.052439">
        <ele>1816</ele>
        <time>2018-06-30T19:51:38.008Z</time>
      </trkpt>
      <trkpt lat="40.795508" lon="-4.052377">
        <ele>1816</ele>
        <time>2018-06-30T19:51:42.008Z</time>
      </trkpt>
      <trkpt lat="40.795492" lon="-4.05231">
        <ele>1816</ele>
        <time>2018-06-30T19:51:46.008Z</time>
      </trkpt>
      <trkpt lat="40.795478" lon="-4.052235">
        <ele>1816.53454816263</ele>
        <time>2018-06-30T19:51:51.008Z</time>
      </trkpt>
      <trkpt lat="40.795439" lon="-4.052153">
        <ele>1817</ele>
        <time>2018-06-30T19:51:58.008Z</time>
      </trkpt>
      <trkpt lat="40.795421" lon="-4.052068">
        <ele>1817</ele>
        <time>2018-06-30T19:52:04.008Z</time>
      </trkpt>
      <trkpt lat="40.795409" lon="-4.05199">
        <ele>1817</ele>
        <time>2018-06-30T19:52:10.008Z</time>
      </trkpt>
      <trkpt lat="40.795403" lon="-4.051901">
        <ele>1817</ele>
        <time>2018-06-30T19:52:15.008Z</time>
      </trkpt>
      <trkpt lat="40.795381" lon="-4.051817">
        <ele>1816.46545183737</ele>
        <time>2018-06-30T19:52:21.008Z</time>
      </trkpt>
      <trkpt lat="40.795333" lon="-4.05173">
        <ele>1816</ele>
        <time>2018-06-30T19:52:28.008Z</time>
      </trkpt>
      <trkpt lat="40.795283" lon="-4.051684">
        <ele>1816</ele>
        <time>2018-06-30T19:52:34.008Z</time>
      </trkpt>
      <trkpt lat="40.795207" lon="-4.051638">
        <ele>1817</ele>
        <time>2018-06-30T19:52:40.008Z</time>
      </trkpt>
      <trkpt lat="40.795144" lon="-4.051603">
        <ele>1817</ele>
        <time>2018-06-30T19:52:46.008Z</time>
      </trkpt>
      <trkpt lat="40.795084" lon="-4.051568">
        <ele>1817</ele>
        <time>2018-06-30T19:52:53.008Z</time>
      </trkpt>
      <trkpt lat="40.795026" lon="-4.051545">
        <ele>1818</ele>
        <time>2018-06-30T19:52:59.008Z</time>
      </trkpt>
      <trkpt lat="40.794961" lon="-4.051522">
        <ele>1818</ele>
        <time>2018-06-30T19:53:05.008Z</time>
      </trkpt>
      <trkpt lat="40.794894" lon="-4.05148">
        <ele>1818</ele>
        <time>2018-06-30T19:53:11.008Z</time>
      </trkpt>
      <trkpt lat="40.794829" lon="-4.05145">
        <ele>1818</ele>
        <time>2018-06-30T19:53:16.008Z</time>
      </trkpt>
      <trkpt lat="40.79477" lon="-4.051432">
        <ele>1818</ele>
        <time>2018-06-30T19:53:22.008Z</time>
      </trkpt>
      <trkpt lat="40.79471" lon="-4.051411">
        <ele>1818</ele>
        <time>2018-06-30T19:53:27.008Z</time>
      </trkpt>
      <trkpt lat="40.794647" lon="-4.051406">
        <ele>1818</ele>
        <time>2018-06-30T19:53:32.008Z</time>
      </trkpt>
      <trkpt lat="40.794589" lon="-4.051381">
        <ele>1818</ele>
        <time>2018-06-30T19:53:37.008Z</time>
      </trkpt>
      <trkpt lat="40.794533" lon="-4.051344">
        <ele>1818</ele>
        <time>2018-06-30T19:53:42.008Z</time>
      </trkpt>
      <trkpt lat="40.794466" lon="-4.051313">
        <ele>1818</ele>
        <time>2018-06-30T19:53:48.008Z</time>
      </trkpt>
      <trkpt lat="40.794406" lon="-4.051294">
        <ele>1818</ele>
        <time>2018-06-30T19:53:53.008Z</time>
      </trkpt>
      <trkpt lat="40.794358" lon="-4.051261">
        <ele>1818</ele>
        <time>2018-06-30T19:53:58.008Z</time>
      </trkpt>
      <trkpt lat="40.794306" lon="-4.051213">
        <ele>1818</ele>
        <time>2018-06-30T19:54:04.008Z</time>
      </trkpt>
      <trkpt lat="40.794246" lon="-4.051196">
        <ele>1818</ele>
        <time>2018-06-30T19:54:09.008Z</time>
      </trkpt>
      <trkpt lat="40.794198" lon="-4.051145">
        <ele>1820</ele>
        <time>2018-06-30T19:54:15.008Z</time>
      </trkpt>
      <trkpt lat="40.794163" lon="-4.051083">
        <ele>1820</ele>
        <time>2018-06-30T19:54:21.008Z</time>
      </trkpt>
      <trkpt lat="40.794124" lon="-4.051026">
        <ele>1820</ele>
        <time>2018-06-30T19:54:27.008Z</time>
      </trkpt>
      <trkpt lat="40.794066" lon="-4.050991">
        <ele>1822</ele>
        <time>2018-06-30T19:54:33.008Z</time>
      </trkpt>
      <trkpt lat="40.794024" lon="-4.050947">
        <ele>1822</ele>
        <time>2018-06-30T19:54:38.008Z</time>
      </trkpt>
      <trkpt lat="40.793982" lon="-4.050891">
        <ele>1824</ele>
        <time>2018-06-30T19:54:43.008Z</time>
      </trkpt>
      <trkpt lat="40.793943" lon="-4.05083">
        <ele>1824</ele>
        <time>2018-06-30T19:54:49.008Z</time>
      </trkpt>
      <trkpt lat="40.793908" lon="-4.050779">
        <ele>1824</ele>
        <time>2018-06-30T19:54:54.008Z</time>
      </trkpt>
      <trkpt lat="40.793871" lon="-4.050716">
        <ele>1824</ele>
        <time>2018-06-30T19:55:00.008Z</time>
      </trkpt>
      <trkpt lat="40.793829" lon="-4.050657">
        <ele>1824</ele>
        <time>2018-06-30T19:55:06.008Z</time>
      </trkpt>
      <trkpt lat="40.793808" lon="-4.050568">
        <ele>1825</ele>
        <time>2018-06-30T19:55:13.008Z</time>
      </trkpt>
      <trkpt lat="40.793785" lon="-4.050504">
        <ele>1825</ele>
        <time>2018-06-30T19:55:18.008Z</time>
      </trkpt>
      <trkpt lat="40.793748" lon="-4.050433">
        <ele>1825</ele>
        <time>2018-06-30T19:55:25.008Z</time>
      </trkpt>
      <trkpt lat="40.793741" lon="-4.050338">
        <ele>1825</ele>
        <time>2018-06-30T19:55:33.008Z</time>
      </trkpt>
      <trkpt lat="40.793711" lon="-4.050252">
        <ele>1825</ele>
        <time>2018-06-30T19:55:38.008Z</time>
      </trkpt>
      <trkpt lat="40.79368" lon="-4.050187">
        <ele>1825</ele>
        <time>2018-06-30T19:55:42.008Z</time>
      </trkpt>
      <trkpt lat="40.793656" lon="-4.050117">
        <ele>1825</ele>
        <time>2018-06-30T19:55:47.008Z</time>
      </trkpt>
      <trkpt lat="40.79361" lon="-4.050057">
        <ele>1825</ele>
        <time>2018-06-30T19:55:53.008Z</time>
      </trkpt>
      <trkpt lat="40.793584" lon="-4.049986">
        <ele>1825</ele>
        <time>2018-06-30T19:55:59.008Z</time>
      </trkpt>
      <trkpt lat="40.793565" lon="-4.049914">
        <ele>1827</ele>
        <time>2018-06-30T19:56:04.008Z</time>
      </trkpt>
      <trkpt lat="40.793549" lon="-4.049821">
        <ele>1827</ele>
        <time>2018-06-30T19:56:14.008Z</time>
      </trkpt>
      <trkpt lat="40.793539" lon="-4.049714">
        <ele>1827</ele>
        <time>2018-06-30T19:56:23.008Z</time>
      </trkpt>
      <trkpt lat="40.793512" lon="-4.049605">
        <ele>1826.42352675434</ele>
        <time>2018-06-30T19:56:31.008Z</time>
      </trkpt>
      <trkpt lat="40.793499" lon="-4.049512">
        <ele>1826</ele>
        <time>2018-06-30T19:56:37.008Z</time>
      </trkpt>
      <trkpt lat="40.793484" lon="-4.049408">
        <ele>1825</ele>
        <time>2018-06-30T19:56:46.008Z</time>
      </trkpt>
      <trkpt lat="40.793498" lon="-4.049301">
        <ele>1824</ele>
        <time>2018-06-30T19:56:53.008Z</time>
      </trkpt>
      <trkpt lat="40.793515" lon="-4.04919">
        <ele>1824</ele>
        <time>2018-06-30T19:56:59.008Z</time>
      </trkpt>
      <trkpt lat="40.793501" lon="-4.04909">
        <ele>1823</ele>
        <time>2018-06-30T19:57:05.008Z</time>
      </trkpt>
      <trkpt lat="40.793499" lon="-4.048996">
        <ele>1822</ele>
        <time>2018-06-30T19:57:13.008Z</time>
      </trkpt>
      <trkpt lat="40.79351" lon="-4.048873">
        <ele>1822</ele>
        <time>2018-06-30T19:57:21.008Z</time>
      </trkpt>
      <trkpt lat="40.793463" lon="-4.048801">
        <ele>1822</ele>
        <time>2018-06-30T19:57:26.008Z</time>
      </trkpt>
      <trkpt lat="40.79347" lon="-4.048677">
        <ele>1822</ele>
        <time>2018-06-30T19:57:36.008Z</time>
      </trkpt>
      <trkpt lat="40.793451" lon="-4.04855">
        <ele>1821</ele>
        <time>2018-06-30T19:57:45.008Z</time>
      </trkpt>
      <trkpt lat="40.793431" lon="-4.048445">
        <ele>1821.53454816263</ele>
        <time>2018-06-30T19:57:51.008Z</time>
      </trkpt>
      <trkpt lat="40.79343" lon="-4.048344">
        <ele>1822</ele>
        <time>2018-06-30T19:57:59.008Z</time>
      </trkpt>
      <trkpt lat="40.79343" lon="-4.048227">
        <ele>1824</ele>
        <time>2018-06-30T19:58:11.008Z</time>
      </trkpt>
      <trkpt lat="40.793429" lon="-4.04812">
        <ele>1824</ele>
        <time>2018-06-30T19:58:16.008Z</time>
      </trkpt>
      <trkpt lat="40.793421" lon="-4.048021">
        <ele>1825</ele>
        <time>2018-06-30T19:58:22.008Z</time>
      </trkpt>
      <trkpt lat="40.793444" lon="-4.047923">
        <ele>1825</ele>
        <time>2018-06-30T19:58:30.008Z</time>
      </trkpt>
      <trkpt lat="40.793433" lon="-4.047833">
        <ele>1825</ele>
        <time>2018-06-30T19:58:36.008Z</time>
      </trkpt>
      <trkpt lat="40.793445" lon="-4.047734">
        <ele>1826</ele>
        <time>2018-06-30T19:58:42.008Z</time>
      </trkpt>
      <trkpt lat="40.793434" lon="-4.047634">
        <ele>1827</ele>
        <time>2018-06-30T19:58:49.008Z</time>
      </trkpt>
      <trkpt lat="40.793414" lon="-4.047555">
        <ele>1828</ele>
        <time>2018-06-30T19:58:54.008Z</time>
      </trkpt>
      <trkpt lat="40.793394" lon="-4.047466">
        <ele>1828.57647324566</ele>
        <time>2018-06-30T19:59:01.008Z</time>
      </trkpt>
      <trkpt lat="40.79339" lon="-4.047375">
        <ele>1829</ele>
        <time>2018-06-30T19:59:09.008Z</time>
      </trkpt>
      <trkpt lat="40.793388" lon="-4.047268">
        <ele>1829</ele>
        <time>2018-06-30T19:59:18.008Z</time>
      </trkpt>
      <trkpt lat="40.793374" lon="-4.047162">
        <ele>1830</ele>
        <time>2018-06-30T19:59:26.008Z</time>
      </trkpt>
      <trkpt lat="40.793363" lon="-4.047068">
        <ele>1830.57647324566</ele>
        <time>2018-06-30T19:59:31.008Z</time>
      </trkpt>
      <trkpt lat="40.79333" lon="-4.046992">
        <ele>1831</ele>
        <time>2018-06-30T19:59:37.008Z</time>
      </trkpt>
      <trkpt lat="40.79332" lon="-4.04688">
        <ele>1831</ele>
        <time>2018-06-30T19:59:44.008Z</time>
      </trkpt>
      <trkpt lat="40.793295" lon="-4.046746">
        <ele>1832</ele>
        <time>2018-06-30T19:59:54.008Z</time>
      </trkpt>
      <trkpt lat="40.793262" lon="-4.046656">
        <ele>1833</ele>
        <time>2018-06-30T20:00:02.008Z</time>
      </trkpt>
      <trkpt lat="40.793192" lon="-4.046584">
        <ele>1833</ele>
        <time>2018-06-30T20:00:10.008Z</time>
      </trkpt>
      <trkpt lat="40.793154" lon="-4.046508">
        <ele>1834</ele>
        <time>2018-06-30T20:00:17.008Z</time>
      </trkpt>
      <trkpt lat="40.793133" lon="-4.046405">
        <ele>1835</ele>
        <time>2018-06-30T20:00:25.008Z</time>
      </trkpt>
      <trkpt lat="40.793116" lon="-4.046282">
        <ele>1836</ele>
        <time>2018-06-30T20:00:34.008Z</time>
      </trkpt>
      <trkpt lat="40.793098" lon="-4.04618">
        <ele>1836</ele>
        <time>2018-06-30T20:00:41.008Z</time>
      </trkpt>
      <trkpt lat="40.793064" lon="-4.046079">
        <ele>1836</ele>
        <time>2018-06-30T20:00:48.008Z</time>
      </trkpt>
      <trkpt lat="40.793008" lon="-4.04602">
        <ele>1834</ele>
        <time>2018-06-30T20:00:53.008Z</time>
      </trkpt>
      <trkpt lat="40.792987" lon="-4.045924">
        <ele>1832.84705350868</ele>
        <time>2018-06-30T20:01:01.008Z</time>
      </trkpt>
      <trkpt lat="40.792963" lon="-4.04582">
        <ele>1832</ele>
        <time>2018-06-30T20:01:08.008Z</time>
      </trkpt>
      <trkpt lat="40.792944" lon="-4.045731">
        <ele>1832</ele>
        <time>2018-06-30T20:01:13.008Z</time>
      </trkpt>
      <trkpt lat="40.792929" lon="-4.045646">
        <ele>1832</ele>
        <time>2018-06-30T20:01:19.008Z</time>
      </trkpt>
      <trkpt lat="40.792902" lon="-4.045566">
        <ele>1831</ele>
        <time>2018-06-30T20:01:25.008Z</time>
      </trkpt>
      <trkpt lat="40.792874" lon="-4.045483">
        <ele>1831</ele>
        <time>2018-06-30T20:01:30.008Z</time>
      </trkpt>
      <trkpt lat="40.792814" lon="-4.045419">
        <ele>1832</ele>
        <time>2018-06-30T20:01:36.008Z</time>
      </trkpt>
      <trkpt lat="40.792759" lon="-4.045392">
        <ele>1832</ele>
        <time>2018-06-30T20:01:39.008Z</time>
      </trkpt>
      <trkpt lat="40.792716" lon="-4.045355">
        <ele>1833</ele>
        <time>2018-06-30T20:01:43.008Z</time>
      </trkpt>
      <trkpt lat="40.792674" lon="-4.045316">
        <ele>1833</ele>
        <time>2018-06-30T20:01:47.008Z</time>
      </trkpt>
      <trkpt lat="40.792635" lon="-4.045252">
        <ele>1835</ele>
        <time>2018-06-30T20:01:55.008Z</time>
      </trkpt>
      <trkpt lat="40.792604" lon="-4.045154">
        <ele>1836</ele>
        <time>2018-06-30T20:02:04.008Z</time>
      </trkpt>
      <trkpt lat="40.792555" lon="-4.045081">
        <ele>1836</ele>
        <time>2018-06-30T20:02:10.008Z</time>
      </trkpt>
      <trkpt lat="40.792515" lon="-4.045">
        <ele>1837.53454816263</ele>
        <time>2018-06-30T20:02:21.008Z</time>
      </trkpt>
      <trkpt lat="40.792489" lon="-4.044912">
        <ele>1838</ele>
        <time>2018-06-30T20:02:29.008Z</time>
      </trkpt>
      <trkpt lat="40.792438" lon="-4.044829">
        <ele>1839</ele>
        <time>2018-06-30T20:02:36.008Z</time>
      </trkpt>
      <trkpt lat="40.792384" lon="-4.044718">
        <ele>1839</ele>
        <time>2018-06-30T20:02:44.008Z</time>
      </trkpt>
      <trkpt lat="40.79236" lon="-4.044621">
        <ele>1840</ele>
        <time>2018-06-30T20:02:52.008Z</time>
      </trkpt>
      <trkpt lat="40.792348" lon="-4.044514">
        <ele>1840</ele>
        <time>2018-06-30T20:02:58.008Z</time>
      </trkpt>
      <trkpt lat="40.792359" lon="-4.044417">
        <ele>1839</ele>
        <time>2018-06-30T20:03:03.008Z</time>
      </trkpt>
      <trkpt lat="40.792331" lon="-4.044331">
        <ele>1839</ele>
        <time>2018-06-30T20:03:08.008Z</time>
      </trkpt>
      <trkpt lat="40.792302" lon="-4.044215">
        <ele>1840</ele>
        <time>2018-06-30T20:03:17.008Z</time>
      </trkpt>
      <trkpt lat="40.792281" lon="-4.044122">
        <ele>1839</ele>
        <time>2018-06-30T20:03:23.008Z</time>
      </trkpt>
      <trkpt lat="40.792274" lon="-4.04402">
        <ele>1839</ele>
        <time>2018-06-30T20:03:30.008Z</time>
      </trkpt>
      <trkpt lat="40.792236" lon="-4.043926">
        <ele>1839</ele>
        <time>2018-06-30T20:03:38.008Z</time>
      </trkpt>
      <trkpt lat="40.792216" lon="-4.043825">
        <ele>1838</ele>
        <time>2018-06-30T20:03:44.008Z</time>
      </trkpt>
      <trkpt lat="40.792208" lon="-4.043705">
        <ele>1837</ele>
        <time>2018-06-30T20:03:53.008Z</time>
      </trkpt>
      <trkpt lat="40.792185" lon="-4.043615">
        <ele>1837</ele>
        <time>2018-06-30T20:03:59.008Z</time>
      </trkpt>
      <trkpt lat="40.792164" lon="-4.04351">
        <ele>1836</ele>
        <time>2018-06-30T20:04:07.008Z</time>
      </trkpt>
      <trkpt lat="40.792156" lon="-4.043406">
        <ele>1836</ele>
        <time>2018-06-30T20:04:12.008Z</time>
      </trkpt>
      <trkpt lat="40.792128" lon="-4.043323">
        <ele>1836</ele>
        <time>2018-06-30T20:04:18.008Z</time>
      </trkpt>
      <trkpt lat="40.792128" lon="-4.043235">
        <ele>1837</ele>
        <time>2018-06-30T20:04:22.008Z</time>
      </trkpt>
      <trkpt lat="40.792108" lon="-4.043161">
        <ele>1837</ele>
        <time>2018-06-30T20:04:26.008Z</time>
      </trkpt>
      <trkpt lat="40.79209" lon="-4.04307">
        <ele>1838</ele>
        <time>2018-06-30T20:04:32.008Z</time>
      </trkpt>
      <trkpt lat="40.792085" lon="-4.042984">
        <ele>1838</ele>
        <time>2018-06-30T20:04:37.008Z</time>
      </trkpt>
      <trkpt lat="40.792041" lon="-4.042936">
        <ele>1838.58217902087</ele>
        <time>2018-06-30T20:04:41.008Z</time>
      </trkpt>
      <trkpt lat="40.792001" lon="-4.042867">
        <ele>1839</ele>
        <time>2018-06-30T20:04:48.008Z</time>
      </trkpt>
      <trkpt lat="40.791965" lon="-4.042783">
        <ele>1840</ele>
        <time>2018-06-30T20:04:55.008Z</time>
      </trkpt>
      <trkpt lat="40.791912" lon="-4.04273">
        <ele>1840</ele>
        <time>2018-06-30T20:04:59.008Z</time>
      </trkpt>
      <trkpt lat="40.791864" lon="-4.042702">
        <ele>1841</ele>
        <time>2018-06-30T20:05:02.008Z</time>
      </trkpt>
      <trkpt lat="40.791818" lon="-4.042644">
        <ele>1841</ele>
        <time>2018-06-30T20:05:07.008Z</time>
      </trkpt>
      <trkpt lat="40.791784" lon="-4.042582">
        <ele>1842</ele>
        <time>2018-06-30T20:05:13.008Z</time>
      </trkpt>
      <trkpt lat="40.791761" lon="-4.042523">
        <ele>1842</ele>
        <time>2018-06-30T20:05:17.008Z</time>
      </trkpt>
      <trkpt lat="40.791718" lon="-4.042492">
        <ele>1842</ele>
        <time>2018-06-30T20:05:20.008Z</time>
      </trkpt>
      <trkpt lat="40.791679" lon="-4.04245">
        <ele>1843</ele>
        <time>2018-06-30T20:05:24.008Z</time>
      </trkpt>
      <trkpt lat="40.791644" lon="-4.042404">
        <ele>1843</ele>
        <time>2018-06-30T20:05:28.008Z</time>
      </trkpt>
      <trkpt lat="40.791616" lon="-4.042334">
        <ele>1843</ele>
        <time>2018-06-30T20:05:34.008Z</time>
      </trkpt>
      <trkpt lat="40.791582" lon="-4.04227">
        <ele>1842.41782097913</ele>
        <time>2018-06-30T20:05:41.008Z</time>
      </trkpt>
      <trkpt lat="40.791565" lon="-4.042202">
        <ele>1842</ele>
        <time>2018-06-30T20:05:46.008Z</time>
      </trkpt>
      <trkpt lat="40.791527" lon="-4.042141">
        <ele>1840</ele>
        <time>2018-06-30T20:05:52.008Z</time>
      </trkpt>
      <trkpt lat="40.791477" lon="-4.042102">
        <ele>1840</ele>
        <time>2018-06-30T20:05:56.008Z</time>
      </trkpt>
      <trkpt lat="40.79142" lon="-4.042031">
        <ele>1839</ele>
        <time>2018-06-30T20:06:02.008Z</time>
      </trkpt>
      <trkpt lat="40.79134" lon="-4.042012">
        <ele>1839</ele>
        <time>2018-06-30T20:06:07.008Z</time>
      </trkpt>
      <trkpt lat="40.791267" lon="-4.042001">
        <ele>1838</ele>
        <time>2018-06-30T20:06:12.008Z</time>
      </trkpt>
      <trkpt lat="40.791191" lon="-4.042003">
        <ele>1838</ele>
        <time>2018-06-30T20:06:17.008Z</time>
      </trkpt>
      <trkpt lat="40.791131" lon="-4.042015">
        <ele>1837.46545183737</ele>
        <time>2018-06-30T20:06:21.008Z</time>
      </trkpt>
      <trkpt lat="40.791065" lon="-4.042011">
        <ele>1837</ele>
        <time>2018-06-30T20:06:26.008Z</time>
      </trkpt>
      <trkpt lat="40.791009" lon="-4.042007">
        <ele>1837</ele>
        <time>2018-06-30T20:06:30.008Z</time>
      </trkpt>
      <trkpt lat="40.790944" lon="-4.041986">
        <ele>1836</ele>
        <time>2018-06-30T20:06:35.008Z</time>
      </trkpt>
      <trkpt lat="40.79088" lon="-4.04198">
        <ele>1836</ele>
        <time>2018-06-30T20:06:40.008Z</time>
      </trkpt>
      <trkpt lat="40.790823" lon="-4.041972">
        <ele>1835</ele>
        <time>2018-06-30T20:06:45.008Z</time>
      </trkpt>
      <trkpt lat="40.790763" lon="-4.041948">
        <ele>1836.06909632526</ele>
        <time>2018-06-30T20:06:51.008Z</time>
      </trkpt>
      <trkpt lat="40.790706" lon="-4.041903">
        <ele>1837</ele>
        <time>2018-06-30T20:06:59.008Z</time>
      </trkpt>
      <trkpt lat="40.790652" lon="-4.04187">
        <ele>1836</ele>
        <time>2018-06-30T20:07:04.008Z</time>
      </trkpt>
      <trkpt lat="40.790608" lon="-4.041838">
        <ele>1836</ele>
        <time>2018-06-30T20:07:08.008Z</time>
      </trkpt>
      <trkpt lat="40.790578" lon="-4.041774">
        <ele>1838</ele>
        <time>2018-06-30T20:07:14.008Z</time>
      </trkpt>
      <trkpt lat="40.790533" lon="-4.041731">
        <ele>1838</ele>
        <time>2018-06-30T20:07:20.008Z</time>
      </trkpt>
      <trkpt lat="40.790488" lon="-4.041691">
        <ele>1839</ele>
        <time>2018-06-30T20:07:24.008Z</time>
      </trkpt>
      <trkpt lat="40.790441" lon="-4.041646">
        <ele>1839</ele>
        <time>2018-06-30T20:07:29.008Z</time>
      </trkpt>
      <trkpt lat="40.790412" lon="-4.041579">
        <ele>1840</ele>
        <time>2018-06-30T20:07:35.008Z</time>
      </trkpt>
      <trkpt lat="40.790397" lon="-4.041487">
        <ele>1840.53454816263</ele>
        <time>2018-06-30T20:07:51.008Z</time>
      </trkpt>
      <trkpt lat="40.790402" lon="-4.041392">
        <ele>1841</ele>
        <time>2018-06-30T20:07:57.008Z</time>
      </trkpt>
      <trkpt lat="40.790371" lon="-4.041314">
        <ele>1840</ele>
        <time>2018-06-30T20:08:03.008Z</time>
      </trkpt>
      <trkpt lat="40.79033" lon="-4.04124">
        <ele>1840</ele>
        <time>2018-06-30T20:08:09.008Z</time>
      </trkpt>
      <trkpt lat="40.790292" lon="-4.041178">
        <ele>1842</ele>
        <time>2018-06-30T20:08:14.008Z</time>
      </trkpt>
      <trkpt lat="40.790266" lon="-4.041097">
        <ele>1842</ele>
        <time>2018-06-30T20:08:21.008Z</time>
      </trkpt>
      <trkpt lat="40.790203" lon="-4.041029">
        <ele>1842</ele>
        <time>2018-06-30T20:08:27.008Z</time>
      </trkpt>
      <trkpt lat="40.790163" lon="-4.040951">
        <ele>1844</ele>
        <time>2018-06-30T20:08:34.008Z</time>
      </trkpt>
      <trkpt lat="40.790127" lon="-4.040879">
        <ele>1844</ele>
        <time>2018-06-30T20:08:41.008Z</time>
      </trkpt>
      <trkpt lat="40.790093" lon="-4.040795">
        <ele>1844</ele>
        <time>2018-06-30T20:08:47.008Z</time>
      </trkpt>
      <trkpt lat="40.790063" lon="-4.040706">
        <ele>1843</ele>
        <time>2018-06-30T20:08:53.008Z</time>
      </trkpt>
      <trkpt lat="40.790034" lon="-4.04063">
        <ele>1843</ele>
        <time>2018-06-30T20:08:58.008Z</time>
      </trkpt>
      <trkpt lat="40.789997" lon="-4.040539">
        <ele>1843</ele>
        <time>2018-06-30T20:09:06.008Z</time>
      </trkpt>
      <trkpt lat="40.789979" lon="-4.04044">
        <ele>1843</ele>
        <time>2018-06-30T20:09:14.008Z</time>
      </trkpt>
      <trkpt lat="40.789973" lon="-4.040336">
        <ele>1842.46545183737</ele>
        <time>2018-06-30T20:09:21.008Z</time>
      </trkpt>
      <trkpt lat="40.789946" lon="-4.040239">
        <ele>1842</ele>
        <time>2018-06-30T20:09:28.008Z</time>
      </trkpt>
      <trkpt lat="40.789924" lon="-4.040137">
        <ele>1841</ele>
        <time>2018-06-30T20:09:34.008Z</time>
      </trkpt>
      <trkpt lat="40.7899" lon="-4.040034">
        <ele>1840.41782097913</ele>
        <time>2018-06-30T20:09:41.008Z</time>
      </trkpt>
      <trkpt lat="40.789855" lon="-4.039927">
        <ele>1840</ele>
        <time>2018-06-30T20:09:49.008Z</time>
      </trkpt>
      <trkpt lat="40.789852" lon="-4.039815">
        <ele>1839</ele>
        <time>2018-06-30T20:09:55.008Z</time>
      </trkpt>
      <trkpt lat="40.789816" lon="-4.039701">
        <ele>1838</ele>
        <time>2018-06-30T20:10:03.008Z</time>
      </trkpt>
      <trkpt lat="40.789807" lon="-4.039573">
        <ele>1839</ele>
        <time>2018-06-30T20:10:11.008Z</time>
      </trkpt>
      <trkpt lat="40.789785" lon="-4.039461">
        <ele>1839</ele>
        <time>2018-06-30T20:10:18.008Z</time>
      </trkpt>
      <trkpt lat="40.789744" lon="-4.039365">
        <ele>1838</ele>
        <time>2018-06-30T20:10:25.008Z</time>
      </trkpt>
      <trkpt lat="40.789699" lon="-4.03925">
        <ele>1837</ele>
        <time>2018-06-30T20:10:33.008Z</time>
      </trkpt>
      <trkpt lat="40.789684" lon="-4.039132">
        <ele>1837</ele>
        <time>2018-06-30T20:10:40.008Z</time>
      </trkpt>
      <trkpt lat="40.789661" lon="-4.039042">
        <ele>1834</ele>
        <time>2018-06-30T20:10:46.008Z</time>
      </trkpt>
      <trkpt lat="40.789625" lon="-4.038957">
        <ele>1835</ele>
        <time>2018-06-30T20:10:52.008Z</time>
      </trkpt>
      <trkpt lat="40.789572" lon="-4.038856">
        <ele>1834.42352675434</ele>
        <time>2018-06-30T20:11:01.008Z</time>
      </trkpt>
      <trkpt lat="40.789521" lon="-4.038781">
        <ele>1834</ele>
        <time>2018-06-30T20:11:06.008Z</time>
      </trkpt>
      <trkpt lat="40.789494" lon="-4.038663">
        <ele>1834</ele>
        <time>2018-06-30T20:11:14.008Z</time>
      </trkpt>
      <trkpt lat="40.789458" lon="-4.038566">
        <ele>1833.46545183737</ele>
        <time>2018-06-30T20:11:21.008Z</time>
      </trkpt>
      <trkpt lat="40.789413" lon="-4.038481">
        <ele>1833</ele>
        <time>2018-06-30T20:11:28.008Z</time>
      </trkpt>
      <trkpt lat="40.789422" lon="-4.038386">
        <ele>1833</ele>
        <time>2018-06-30T20:11:39.008Z</time>
      </trkpt>
      <trkpt lat="40.78942" lon="-4.038276">
        <ele>1831</ele>
        <time>2018-06-30T20:11:49.008Z</time>
      </trkpt>
      <trkpt lat="40.789421" lon="-4.03817">
        <ele>1828.42040437815</ele>
        <time>2018-06-30T20:11:56.008Z</time>
      </trkpt>
      <trkpt lat="40.789407" lon="-4.03806">
        <ele>1827</ele>
        <time>2018-06-30T20:12:07.008Z</time>
      </trkpt>
      <trkpt lat="40.789427" lon="-4.037948">
        <ele>1825</ele>
        <time>2018-06-30T20:12:13.008Z</time>
      </trkpt>
      <trkpt lat="40.789438" lon="-4.037842">
        <ele>1823</ele>
        <time>2018-06-30T20:12:22.008Z</time>
      </trkpt>
      <trkpt lat="40.789427" lon="-4.037734">
        <ele>1823</ele>
        <time>2018-06-30T20:12:29.008Z</time>
      </trkpt>
      <trkpt lat="40.789409" lon="-4.037622">
        <ele>1822</ele>
        <time>2018-06-30T20:12:36.008Z</time>
      </trkpt>
      <trkpt lat="40.789389" lon="-4.037512">
        <ele>1821</ele>
        <time>2018-06-30T20:12:42.008Z</time>
      </trkpt>
      <trkpt lat="40.789325" lon="-4.037412">
        <ele>1821</ele>
        <time>2018-06-30T20:12:50.008Z</time>
      </trkpt>
      <trkpt lat="40.789328" lon="-4.037318">
        <ele>1820</ele>
        <time>2018-06-30T20:12:57.008Z</time>
      </trkpt>
      <trkpt lat="40.789307" lon="-4.037228">
        <ele>1820</ele>
        <time>2018-06-30T20:13:02.008Z</time>
      </trkpt>
      <trkpt lat="40.78928" lon="-4.03713">
        <ele>1820</ele>
        <time>2018-06-30T20:13:09.008Z</time>
      </trkpt>
      <trkpt lat="40.789253" lon="-4.03703">
        <ele>1820</ele>
        <time>2018-06-30T20:13:16.008Z</time>
      </trkpt>
      <trkpt lat="40.789217" lon="-4.036931">
        <ele>1820</ele>
        <time>2018-06-30T20:13:22.008Z</time>
      </trkpt>
      <trkpt lat="40.789212" lon="-4.03681">
        <ele>1820</ele>
        <time>2018-06-30T20:13:29.008Z</time>
      </trkpt>
      <trkpt lat="40.789195" lon="-4.036721">
        <ele>1820</ele>
        <time>2018-06-30T20:13:34.008Z</time>
      </trkpt>
      <trkpt lat="40.789171" lon="-4.036633">
        <ele>1820</ele>
        <time>2018-06-30T20:13:40.008Z</time>
      </trkpt>
      <trkpt lat="40.789149" lon="-4.03652">
        <ele>1821</ele>
        <time>2018-06-30T20:13:48.008Z</time>
      </trkpt>
      <trkpt lat="40.789146" lon="-4.0364">
        <ele>1821</ele>
        <time>2018-06-30T20:13:56.008Z</time>
      </trkpt>
      <trkpt lat="40.789129" lon="-4.036272">
        <ele>1820</ele>
        <time>2018-06-30T20:14:05.008Z</time>
      </trkpt>
      <trkpt lat="40.789114" lon="-4.036164">
        <ele>1820</ele>
        <time>2018-06-30T20:14:11.008Z</time>
      </trkpt>
      <trkpt lat="40.789124" lon="-4.036048">
        <ele>1820</ele>
        <time>2018-06-30T20:14:18.008Z</time>
      </trkpt>
      <trkpt lat="40.789098" lon="-4.035923">
        <ele>1820</ele>
        <time>2018-06-30T20:14:28.008Z</time>
      </trkpt>
      <trkpt lat="40.789098" lon="-4.035791">
        <ele>1820</ele>
        <time>2018-06-30T20:14:39.008Z</time>
      </trkpt>
      <trkpt lat="40.789099" lon="-4.035658">
        <ele>1819</ele>
        <time>2018-06-30T20:14:48.008Z</time>
      </trkpt>
      <trkpt lat="40.789093" lon="-4.035519">
        <ele>1818</ele>
        <time>2018-06-30T20:14:56.008Z</time>
      </trkpt>
      <trkpt lat="40.789084" lon="-4.035387">
        <ele>1817</ele>
        <time>2018-06-30T20:15:06.008Z</time>
      </trkpt>
      <trkpt lat="40.789108" lon="-4.035271">
        <ele>1816.41782097913</ele>
        <time>2018-06-30T20:15:11.008Z</time>
      </trkpt>
      <trkpt lat="40.789121" lon="-4.035147">
        <ele>1816</ele>
        <time>2018-06-30T20:15:20.008Z</time>
      </trkpt>
      <trkpt lat="40.789108" lon="-4.035042">
        <ele>1815</ele>
        <time>2018-06-30T20:15:26.008Z</time>
      </trkpt>
      <trkpt lat="40.789088" lon="-4.034953">
        <ele>1815</ele>
        <time>2018-06-30T20:15:31.008Z</time>
      </trkpt>
      <trkpt lat="40.789068" lon="-4.03485">
        <ele>1815</ele>
        <time>2018-06-30T20:15:37.008Z</time>
      </trkpt>
      <trkpt lat="40.789066" lon="-4.034727">
        <ele>1816</ele>
        <time>2018-06-30T20:15:46.008Z</time>
      </trkpt>
      <trkpt lat="40.789031" lon="-4.034626">
        <ele>1816</ele>
        <time>2018-06-30T20:15:51.008Z</time>
      </trkpt>
      <trkpt lat="40.789004" lon="-4.034532">
        <ele>1816</ele>
        <time>2018-06-30T20:15:58.008Z</time>
      </trkpt>
      <trkpt lat="40.788997" lon="-4.034409">
        <ele>1816</ele>
        <time>2018-06-30T20:16:08.008Z</time>
      </trkpt>
      <trkpt lat="40.788998" lon="-4.03429">
        <ele>1815</ele>
        <time>2018-06-30T20:16:15.008Z</time>
      </trkpt>
      <trkpt lat="40.788986" lon="-4.034166">
        <ele>1813</ele>
        <time>2018-06-30T20:16:24.008Z</time>
      </trkpt>
      <trkpt lat="40.78897" lon="-4.034056">
        <ele>1813</ele>
        <time>2018-06-30T20:16:30.008Z</time>
      </trkpt>
      <trkpt lat="40.788932" lon="-4.033957">
        <ele>1812</ele>
        <time>2018-06-30T20:16:36.008Z</time>
      </trkpt>
      <trkpt lat="40.7889" lon="-4.033866">
        <ele>1812</ele>
        <time>2018-06-30T20:16:42.008Z</time>
      </trkpt>
      <trkpt lat="40.788864" lon="-4.033757">
        <ele>1812</ele>
        <time>2018-06-30T20:16:51.008Z</time>
      </trkpt>
      <trkpt lat="40.788803" lon="-4.033666">
        <ele>1812</ele>
        <time>2018-06-30T20:16:57.008Z</time>
      </trkpt>
      <trkpt lat="40.788744" lon="-4.033577">
        <ele>1810</ele>
        <time>2018-06-30T20:17:04.008Z</time>
      </trkpt>
      <trkpt lat="40.78872" lon="-4.033456">
        <ele>1811</ele>
        <time>2018-06-30T20:17:12.008Z</time>
      </trkpt>
      <trkpt lat="40.788662" lon="-4.03336">
        <ele>1811</ele>
        <time>2018-06-30T20:17:20.008Z</time>
      </trkpt>
      <trkpt lat="40.788598" lon="-4.033295">
        <ele>1811</ele>
        <time>2018-06-30T20:17:26.008Z</time>
      </trkpt>
      <trkpt lat="40.78853" lon="-4.033237">
        <ele>1811</ele>
        <time>2018-06-30T20:17:31.008Z</time>
      </trkpt>
      <trkpt lat="40.788482" lon="-4.033129">
        <ele>1810</ele>
        <time>2018-06-30T20:17:44.008Z</time>
      </trkpt>
      <trkpt lat="40.788486" lon="-4.033019">
        <ele>1810</ele>
        <time>2018-06-30T20:17:50.008Z</time>
      </trkpt>
      <trkpt lat="40.788464" lon="-4.03295">
        <ele>1809</ele>
        <time>2018-06-30T20:17:53.008Z</time>
      </trkpt>
      <trkpt lat="40.788422" lon="-4.032897">
        <ele>1809</ele>
        <time>2018-06-30T20:17:57.008Z</time>
      </trkpt>
      <trkpt lat="40.78842" lon="-4.032813">
        <ele>1808</ele>
        <time>2018-06-30T20:18:03.008Z</time>
      </trkpt>
      <trkpt lat="40.788416" lon="-4.032723">
        <ele>1808</ele>
        <time>2018-06-30T20:18:09.008Z</time>
      </trkpt>
      <trkpt lat="40.78842" lon="-4.032608">
        <ele>1808</ele>
        <time>2018-06-30T20:18:18.008Z</time>
      </trkpt>
      <trkpt lat="40.788456" lon="-4.032509">
        <ele>1807</ele>
        <time>2018-06-30T20:18:28.008Z</time>
      </trkpt>
      <trkpt lat="40.788495" lon="-4.032406">
        <ele>1806</ele>
        <time>2018-06-30T20:18:34.008Z</time>
      </trkpt>
      <trkpt lat="40.788495" lon="-4.032306">
        <ele>1806</ele>
        <time>2018-06-30T20:18:39.008Z</time>
      </trkpt>
      <trkpt lat="40.788469" lon="-4.03222">
        <ele>1807</ele>
        <time>2018-06-30T20:18:45.008Z</time>
      </trkpt>
      <trkpt lat="40.788451" lon="-4.032121">
        <ele>1807</ele>
        <time>2018-06-30T20:18:51.008Z</time>
      </trkpt>
      <trkpt lat="40.788422" lon="-4.032021">
        <ele>1807</ele>
        <time>2018-06-30T20:18:59.008Z</time>
      </trkpt>
      <trkpt lat="40.788357" lon="-4.031956">
        <ele>1807</ele>
        <time>2018-06-30T20:19:04.008Z</time>
      </trkpt>
      <trkpt lat="40.788352" lon="-4.031827">
        <ele>1808</ele>
        <time>2018-06-30T20:19:16.008Z</time>
      </trkpt>
      <trkpt lat="40.788382" lon="-4.031714">
        <ele>1808</ele>
        <time>2018-06-30T20:19:22.008Z</time>
      </trkpt>
      <trkpt lat="40.788405" lon="-4.031596">
        <ele>1808</ele>
        <time>2018-06-30T20:19:29.008Z</time>
      </trkpt>
      <trkpt lat="40.78842" lon="-4.031472">
        <ele>1808</ele>
        <time>2018-06-30T20:19:38.008Z</time>
      </trkpt>
      <trkpt lat="40.788438" lon="-4.031374">
        <ele>1809</ele>
        <time>2018-06-30T20:19:44.008Z</time>
      </trkpt>
      <trkpt lat="40.788452" lon="-4.031251">
        <ele>1809</ele>
        <time>2018-06-30T20:19:52.008Z</time>
      </trkpt>
      <trkpt lat="40.788463" lon="-4.031122">
        <ele>1808.42352675434</ele>
        <time>2018-06-30T20:20:01.008Z</time>
      </trkpt>
      <trkpt lat="40.788505" lon="-4.031003">
        <ele>1808</ele>
        <time>2018-06-30T20:20:09.008Z</time>
      </trkpt>
      <trkpt lat="40.788541" lon="-4.03088">
        <ele>1808</ele>
        <time>2018-06-30T20:20:16.008Z</time>
      </trkpt>
      <trkpt lat="40.788573" lon="-4.030762">
        <ele>1808</ele>
        <time>2018-06-30T20:20:22.008Z</time>
      </trkpt>
      <trkpt lat="40.788601" lon="-4.03065">
        <ele>1808</ele>
        <time>2018-06-30T20:20:29.008Z</time>
      </trkpt>
      <trkpt lat="40.788599" lon="-4.030538">
        <ele>1807</ele>
        <time>2018-06-30T20:20:36.008Z</time>
      </trkpt>
      <trkpt lat="40.788592" lon="-4.030443">
        <ele>1807</ele>
        <time>2018-06-30T20:20:42.008Z</time>
      </trkpt>
      <trkpt lat="40.788602" lon="-4.030322">
        <ele>1808</ele>
        <time>2018-06-30T20:20:50.008Z</time>
      </trkpt>
      <trkpt lat="40.788623" lon="-4.030224">
        <ele>1808</ele>
        <time>2018-06-30T20:20:56.008Z</time>
      </trkpt>
      <trkpt lat="40.788631" lon="-4.030108">
        <ele>1806</ele>
        <time>2018-06-30T20:21:05.008Z</time>
      </trkpt>
      <trkpt lat="40.788641" lon="-4.029983">
        <ele>1805</ele>
        <time>2018-06-30T20:21:14.008Z</time>
      </trkpt>
      <trkpt lat="40.788671" lon="-4.029853">
        <ele>1805</ele>
        <time>2018-06-30T20:21:20.008Z</time>
      </trkpt>
      <trkpt lat="40.788682" lon="-4.029754">
        <ele>1804</ele>
        <time>2018-06-30T20:21:25.008Z</time>
      </trkpt>
      <trkpt lat="40.788668" lon="-4.029649">
        <ele>1804</ele>
        <time>2018-06-30T20:21:31.008Z</time>
      </trkpt>
      <trkpt lat="40.788678" lon="-4.029538">
        <ele>1804</ele>
        <time>2018-06-30T20:21:38.008Z</time>
      </trkpt>
      <trkpt lat="40.78866" lon="-4.029412">
        <ele>1804</ele>
        <time>2018-06-30T20:21:45.008Z</time>
      </trkpt>
      <trkpt lat="40.78864" lon="-4.029306">
        <ele>1804</ele>
        <time>2018-06-30T20:21:51.008Z</time>
      </trkpt>
      <trkpt lat="40.788639" lon="-4.029223">
        <ele>1804</ele>
        <time>2018-06-30T20:21:55.008Z</time>
      </trkpt>
      <trkpt lat="40.788627" lon="-4.029136">
        <ele>1804</ele>
        <time>2018-06-30T20:22:00.008Z</time>
      </trkpt>
      <trkpt lat="40.788617" lon="-4.029012">
        <ele>1803</ele>
        <time>2018-06-30T20:22:09.008Z</time>
      </trkpt>
      <trkpt lat="40.788592" lon="-4.028903">
        <ele>1803</ele>
        <time>2018-06-30T20:22:17.008Z</time>
      </trkpt>
      <trkpt lat="40.788574" lon="-4.028812">
        <ele>1802</ele>
        <time>2018-06-30T20:22:24.008Z</time>
      </trkpt>
      <trkpt lat="40.788573" lon="-4.028698">
        <ele>1800</ele>
        <time>2018-06-30T20:22:32.008Z</time>
      </trkpt>
      <trkpt lat="40.788583" lon="-4.028613">
        <ele>1800</ele>
        <time>2018-06-30T20:22:37.008Z</time>
      </trkpt>
      <trkpt lat="40.788579" lon="-4.028538">
        <ele>1799</ele>
        <time>2018-06-30T20:22:42.008Z</time>
      </trkpt>
      <trkpt lat="40.788577" lon="-4.028467">
        <ele>1799</ele>
        <time>2018-06-30T20:22:47.008Z</time>
      </trkpt>
      <trkpt lat="40.788589" lon="-4.028383">
        <ele>1799</ele>
        <time>2018-06-30T20:22:53.008Z</time>
      </trkpt>
      <trkpt lat="40.788603" lon="-4.028291">
        <ele>1799</ele>
        <time>2018-06-30T20:22:59.008Z</time>
      </trkpt>
      <trkpt lat="40.788618" lon="-4.028186">
        <ele>1799</ele>
        <time>2018-06-30T20:23:06.008Z</time>
      </trkpt>
      <trkpt lat="40.788589" lon="-4.028086">
        <ele>1799</ele>
        <time>2018-06-30T20:23:12.008Z</time>
      </trkpt>
      <trkpt lat="40.788573" lon="-4.027978">
        <ele>1799</ele>
        <time>2018-06-30T20:23:19.008Z</time>
      </trkpt>
      <trkpt lat="40.788575" lon="-4.027869">
        <ele>1798</ele>
        <time>2018-06-30T20:23:26.008Z</time>
      </trkpt>
      <trkpt lat="40.788568" lon="-4.027775">
        <ele>1798</ele>
        <time>2018-06-30T20:23:32.008Z</time>
      </trkpt>
      <trkpt lat="40.788557" lon="-4.027676">
        <ele>1798</ele>
        <time>2018-06-30T20:23:41.008Z</time>
      </trkpt>
      <trkpt lat="40.788581" lon="-4.027553">
        <ele>1798</ele>
        <time>2018-06-30T20:23:49.008Z</time>
      </trkpt>
      <trkpt lat="40.788578" lon="-4.027459">
        <ele>1797</ele>
        <time>2018-06-30T20:23:54.008Z</time>
      </trkpt>
      <trkpt lat="40.788561" lon="-4.02736">
        <ele>1797</ele>
        <time>2018-06-30T20:23:59.008Z</time>
      </trkpt>
      <trkpt lat="40.788545" lon="-4.027265">
        <ele>1796</ele>
        <time>2018-06-30T20:24:05.008Z</time>
      </trkpt>
      <trkpt lat="40.788528" lon="-4.027159">
        <ele>1796</ele>
        <time>2018-06-30T20:24:12.008Z</time>
      </trkpt>
      <trkpt lat="40.788524" lon="-4.027047">
        <ele>1796</ele>
        <time>2018-06-30T20:24:19.008Z</time>
      </trkpt>
      <trkpt lat="40.788501" lon="-4.026956">
        <ele>1796</ele>
        <time>2018-06-30T20:24:25.008Z</time>
      </trkpt>
      <trkpt lat="40.788483" lon="-4.026864">
        <ele>1796</ele>
        <time>2018-06-30T20:24:31.008Z</time>
      </trkpt>
      <trkpt lat="40.788463" lon="-4.026762">
        <ele>1796</ele>
        <time>2018-06-30T20:24:38.008Z</time>
      </trkpt>
      <trkpt lat="40.788429" lon="-4.026663">
        <ele>1796</ele>
        <time>2018-06-30T20:24:44.008Z</time>
      </trkpt>
      <trkpt lat="40.78842" lon="-4.02657">
        <ele>1796</ele>
        <time>2018-06-30T20:24:49.008Z</time>
      </trkpt>
      <trkpt lat="40.788436" lon="-4.026465">
        <ele>1795</ele>
        <time>2018-06-30T20:24:56.008Z</time>
      </trkpt>
      <trkpt lat="40.788439" lon="-4.026369">
        <ele>1794.42352675434</ele>
        <time>2018-06-30T20:25:01.008Z</time>
      </trkpt>
      <trkpt lat="40.788404" lon="-4.026286">
        <ele>1794</ele>
        <time>2018-06-30T20:25:07.008Z</time>
      </trkpt>
      <trkpt lat="40.788396" lon="-4.026202">
        <ele>1794</ele>
        <time>2018-06-30T20:25:11.008Z</time>
      </trkpt>
      <trkpt lat="40.788358" lon="-4.026145">
        <ele>1794</ele>
        <time>2018-06-30T20:25:14.008Z</time>
      </trkpt>
      <trkpt lat="40.788324" lon="-4.026086">
        <ele>1794</ele>
        <time>2018-06-30T20:25:19.008Z</time>
      </trkpt>
      <trkpt lat="40.788275" lon="-4.026037">
        <ele>1796</ele>
        <time>2018-06-30T20:25:25.008Z</time>
      </trkpt>
      <trkpt lat="40.78822" lon="-4.026008">
        <ele>1796</ele>
        <time>2018-06-30T20:25:28.008Z</time>
      </trkpt>
      <trkpt lat="40.788169" lon="-4.025953">
        <ele>1797</ele>
        <time>2018-06-30T20:25:32.008Z</time>
      </trkpt>
      <trkpt lat="40.788111" lon="-4.025899">
        <ele>1797</ele>
        <time>2018-06-30T20:25:37.008Z</time>
      </trkpt>
      <trkpt lat="40.788057" lon="-4.025863">
        <ele>1797.58217902087</ele>
        <time>2018-06-30T20:25:41.008Z</time>
      </trkpt>
      <trkpt lat="40.788038" lon="-4.025795">
        <ele>1798</ele>
        <time>2018-06-30T20:25:47.008Z</time>
      </trkpt>
      <trkpt lat="40.788026" lon="-4.0257">
        <ele>1799</ele>
        <time>2018-06-30T20:26:02.008Z</time>
      </trkpt>
      <trkpt lat="40.787982" lon="-4.025658">
        <ele>1799</ele>
        <time>2018-06-30T20:26:09.008Z</time>
      </trkpt>
      <trkpt lat="40.787946" lon="-4.025609">
        <ele>1799</ele>
        <time>2018-06-30T20:26:14.008Z</time>
      </trkpt>
      <trkpt lat="40.787936" lon="-4.025506">
        <ele>1799</ele>
        <time>2018-06-30T20:26:23.008Z</time>
      </trkpt>
      <trkpt lat="40.787904" lon="-4.025431">
        <ele>1799</ele>
        <time>2018-06-30T20:26:28.008Z</time>
      </trkpt>
      <trkpt lat="40.787874" lon="-4.025331">
        <ele>1799</ele>
        <time>2018-06-30T20:26:35.008Z</time>
      </trkpt>
      <trkpt lat="40.78784" lon="-4.025252">
        <ele>1799</ele>
        <time>2018-06-30T20:26:41.008Z</time>
      </trkpt>
      <trkpt lat="40.787824" lon="-4.025149">
        <ele>1799</ele>
        <time>2018-06-30T20:26:48.008Z</time>
      </trkpt>
      <trkpt lat="40.78779" lon="-4.025058">
        <ele>1798</ele>
        <time>2018-06-30T20:26:54.008Z</time>
      </trkpt>
      <trkpt lat="40.787734" lon="-4.025021">
        <ele>1798</ele>
        <time>2018-06-30T20:26:57.008Z</time>
      </trkpt>
      <trkpt lat="40.787666" lon="-4.024996">
        <ele>1798.57647324566</ele>
        <time>2018-06-30T20:27:01.008Z</time>
      </trkpt>
      <trkpt lat="40.787606" lon="-4.024965">
        <ele>1799</ele>
        <time>2018-06-30T20:27:06.008Z</time>
      </trkpt>
      <trkpt lat="40.787545" lon="-4.024938">
        <ele>1799</ele>
        <time>2018-06-30T20:27:10.008Z</time>
      </trkpt>
      <trkpt lat="40.787484" lon="-4.024921">
        <ele>1799</ele>
        <time>2018-06-30T20:27:14.008Z</time>
      </trkpt>
      <trkpt lat="40.787432" lon="-4.02489">
        <ele>1799</ele>
        <time>2018-06-30T20:27:19.008Z</time>
      </trkpt>
      <trkpt lat="40.787378" lon="-4.024865">
        <ele>1798</ele>
        <time>2018-06-30T20:27:23.008Z</time>
      </trkpt>
      <trkpt lat="40.787327" lon="-4.024858">
        <ele>1798</ele>
        <time>2018-06-30T20:27:26.008Z</time>
      </trkpt>
      <trkpt lat="40.787275" lon="-4.024845">
        <ele>1799.15294649132</ele>
        <time>2018-06-30T20:27:31.008Z</time>
      </trkpt>
      <trkpt lat="40.787225" lon="-4.024842">
        <ele>1800</ele>
        <time>2018-06-30T20:27:35.008Z</time>
      </trkpt>
      <trkpt lat="40.787171" lon="-4.024814">
        <ele>1800</ele>
        <time>2018-06-30T20:27:41.008Z</time>
      </trkpt>
      <trkpt lat="40.787109" lon="-4.024789">
        <ele>1800</ele>
        <time>2018-06-30T20:27:45.008Z</time>
      </trkpt>
      <trkpt lat="40.787067" lon="-4.024794">
        <ele>1800</ele>
        <time>2018-06-30T20:27:47.008Z</time>
      </trkpt>
      <trkpt lat="40.787029" lon="-4.024748">
        <ele>1800</ele>
        <time>2018-06-30T20:27:52.008Z</time>
      </trkpt>
      <trkpt lat="40.787011" lon="-4.024675">
        <ele>1800</ele>
        <time>2018-06-30T20:27:58.008Z</time>
      </trkpt>
      <trkpt lat="40.787008" lon="-4.024582">
        <ele>1800</ele>
        <time>2018-06-30T20:28:05.008Z</time>
      </trkpt>
      <trkpt lat="40.787009" lon="-4.024509">
        <ele>1800</ele>
        <time>2018-06-30T20:28:10.008Z</time>
      </trkpt>
      <trkpt lat="40.786972" lon="-4.024393">
        <ele>1800</ele>
        <time>2018-06-30T20:28:19.008Z</time>
      </trkpt>
      <trkpt lat="40.78696" lon="-4.024287">
        <ele>1800</ele>
        <time>2018-06-30T20:28:27.008Z</time>
      </trkpt>
      <trkpt lat="40.786951" lon="-4.024202">
        <ele>1800</ele>
        <time>2018-06-30T20:28:32.008Z</time>
      </trkpt>
      <trkpt lat="40.786925" lon="-4.024098">
        <ele>1800</ele>
        <time>2018-06-30T20:28:39.008Z</time>
      </trkpt>
      <trkpt lat="40.786902" lon="-4.024007">
        <ele>1799</ele>
        <time>2018-06-30T20:28:44.008Z</time>
      </trkpt>
      <trkpt lat="40.786893" lon="-4.023903">
        <ele>1798.46545183737</ele>
        <time>2018-06-30T20:28:51.008Z</time>
      </trkpt>
      <trkpt lat="40.786868" lon="-4.023808">
        <ele>1798</ele>
        <time>2018-06-30T20:28:57.008Z</time>
      </trkpt>
      <trkpt lat="40.786825" lon="-4.023734">
        <ele>1798</ele>
        <time>2018-06-30T20:29:02.008Z</time>
      </trkpt>
      <trkpt lat="40.786766" lon="-4.023655">
        <ele>1798</ele>
        <time>2018-06-30T20:29:08.008Z</time>
      </trkpt>
      <trkpt lat="40.786734" lon="-4.023588">
        <ele>1798</ele>
        <time>2018-06-30T20:29:12.008Z</time>
      </trkpt>
      <trkpt lat="40.786714" lon="-4.023519">
        <ele>1798</ele>
        <time>2018-06-30T20:29:17.008Z</time>
      </trkpt>
      <trkpt lat="40.786658" lon="-4.023484">
        <ele>1798</ele>
        <time>2018-06-30T20:29:20.008Z</time>
      </trkpt>
      <trkpt lat="40.786609" lon="-4.023467">
        <ele>1799</ele>
        <time>2018-06-30T20:29:22.008Z</time>
      </trkpt>
      <trkpt lat="40.786557" lon="-4.023448">
        <ele>1799</ele>
        <time>2018-06-30T20:29:25.008Z</time>
      </trkpt>
      <trkpt lat="40.78651" lon="-4.023437">
        <ele>1799</ele>
        <time>2018-06-30T20:29:28.008Z</time>
      </trkpt>
      <trkpt lat="40.786468" lon="-4.023429">
        <ele>1801</ele>
        <time>2018-06-30T20:29:32.008Z</time>
      </trkpt>
      <trkpt lat="40.786431" lon="-4.023379">
        <ele>1801</ele>
        <time>2018-06-30T20:29:38.008Z</time>
      </trkpt>
      <trkpt lat="40.786417" lon="-4.023308">
        <ele>1802</ele>
        <time>2018-06-30T20:29:44.008Z</time>
      </trkpt>
      <trkpt lat="40.786423" lon="-4.023236">
        <ele>1802</ele>
        <time>2018-06-30T20:29:51.008Z</time>
      </trkpt>
      <trkpt lat="40.786431" lon="-4.023157">
        <ele>1802</ele>
        <time>2018-06-30T20:29:56.008Z</time>
      </trkpt>
      <trkpt lat="40.786428" lon="-4.023068">
        <ele>1803</ele>
        <time>2018-06-30T20:30:05.008Z</time>
      </trkpt>
      <trkpt lat="40.786406" lon="-4.022981">
        <ele>1805</ele>
        <time>2018-06-30T20:30:12.008Z</time>
      </trkpt>
      <trkpt lat="40.786411" lon="-4.022915">
        <ele>1805</ele>
        <time>2018-06-30T20:30:17.008Z</time>
      </trkpt>
      <trkpt lat="40.786412" lon="-4.022825">
        <ele>1806</ele>
        <time>2018-06-30T20:30:24.008Z</time>
      </trkpt>
      <trkpt lat="40.786423" lon="-4.022743">
        <ele>1806</ele>
        <time>2018-06-30T20:30:30.008Z</time>
      </trkpt>
      <trkpt lat="40.786423" lon="-4.022642">
        <ele>1808</ele>
        <time>2018-06-30T20:30:38.008Z</time>
      </trkpt>
      <trkpt lat="40.786433" lon="-4.022556">
        <ele>1809</ele>
        <time>2018-06-30T20:30:43.008Z</time>
      </trkpt>
      <trkpt lat="40.786425" lon="-4.022453">
        <ele>1809</ele>
        <time>2018-06-30T20:30:50.008Z</time>
      </trkpt>
      <trkpt lat="40.786433" lon="-4.022348">
        <ele>1809.42352675434</ele>
        <time>2018-06-30T20:31:01.008Z</time>
      </trkpt>
      <trkpt lat="40.786456" lon="-4.022247">
        <ele>1809</ele>
        <time>2018-06-30T20:31:07.008Z</time>
      </trkpt>
      <trkpt lat="40.786472" lon="-4.022134">
        <ele>1809</ele>
        <time>2018-06-30T20:31:15.008Z</time>
      </trkpt>
      <trkpt lat="40.786471" lon="-4.02203">
        <ele>1809</ele>
        <time>2018-06-30T20:31:20.008Z</time>
      </trkpt>
      <trkpt lat="40.786477" lon="-4.021938">
        <ele>1808</ele>
        <time>2018-06-30T20:31:25.008Z</time>
      </trkpt>
      <trkpt lat="40.786434" lon="-4.021842">
        <ele>1808.57647324566</ele>
        <time>2018-06-30T20:31:31.008Z</time>
      </trkpt>
      <trkpt lat="40.78641" lon="-4.021744">
        <ele>1809</ele>
        <time>2018-06-30T20:31:38.008Z</time>
      </trkpt>
      <trkpt lat="40.786397" lon="-4.021655">
        <ele>1810</ele>
        <time>2018-06-30T20:31:44.008Z</time>
      </trkpt>
      <trkpt lat="40.786404" lon="-4.02156">
        <ele>1810</ele>
        <time>2018-06-30T20:31:50.008Z</time>
      </trkpt>
      <trkpt lat="40.786394" lon="-4.02146">
        <ele>1810</ele>
        <time>2018-06-30T20:31:57.008Z</time>
      </trkpt>
      <trkpt lat="40.786377" lon="-4.021357">
        <ele>1809</ele>
        <time>2018-06-30T20:32:05.008Z</time>
      </trkpt>
      <trkpt lat="40.786347" lon="-4.021258">
        <ele>1810.16435804175</ele>
        <time>2018-06-30T20:32:11.008Z</time>
      </trkpt>
      <trkpt lat="40.786358" lon="-4.021131">
        <ele>1811</ele>
        <time>2018-06-30T20:32:19.008Z</time>
      </trkpt>
      <trkpt lat="40.786355" lon="-4.021037">
        <ele>1810</ele>
        <time>2018-06-30T20:32:24.008Z</time>
      </trkpt>
      <trkpt lat="40.786318" lon="-4.020971">
        <ele>1810</ele>
        <time>2018-06-30T20:32:28.008Z</time>
      </trkpt>
      <trkpt lat="40.786292" lon="-4.020887">
        <ele>1810</ele>
        <time>2018-06-30T20:32:34.008Z</time>
      </trkpt>
      <trkpt lat="40.786252" lon="-4.020817">
        <ele>1810</ele>
        <time>2018-06-30T20:32:40.008Z</time>
      </trkpt>
      <trkpt lat="40.78621" lon="-4.020716">
        <ele>1810</ele>
        <time>2018-06-30T20:32:47.008Z</time>
      </trkpt>
      <trkpt lat="40.786184" lon="-4.020626">
        <ele>1809</ele>
        <time>2018-06-30T20:32:53.008Z</time>
      </trkpt>
      <trkpt lat="40.786152" lon="-4.020543">
        <ele>1809</ele>
        <time>2018-06-30T20:32:58.008Z</time>
      </trkpt>
      <trkpt lat="40.786139" lon="-4.020458">
        <ele>1811</ele>
        <time>2018-06-30T20:33:04.008Z</time>
      </trkpt>
      <trkpt lat="40.786123" lon="-4.020353">
        <ele>1810.41782097913</ele>
        <time>2018-06-30T20:33:11.008Z</time>
      </trkpt>
      <trkpt lat="40.786091" lon="-4.020284">
        <ele>1810</ele>
        <time>2018-06-30T20:33:15.008Z</time>
      </trkpt>
      <trkpt lat="40.786052" lon="-4.020229">
        <ele>1810</ele>
        <time>2018-06-30T20:33:19.008Z</time>
      </trkpt>
      <trkpt lat="40.785992" lon="-4.020187">
        <ele>1809</ele>
        <time>2018-06-30T20:33:23.008Z</time>
      </trkpt>
      <trkpt lat="40.785948" lon="-4.020144">
        <ele>1809</ele>
        <time>2018-06-30T20:33:27.008Z</time>
      </trkpt>
      <trkpt lat="40.785988" lon="-4.020073">
        <ele>1810</ele>
        <time>2018-06-30T20:33:42.008Z</time>
      </trkpt>
      <trkpt lat="40.786039" lon="-4.01999">
        <ele>1810</ele>
        <time>2018-06-30T20:33:48.008Z</time>
      </trkpt>
      <trkpt lat="40.786091" lon="-4.019927">
        <ele>1811</ele>
        <time>2018-06-30T20:33:54.008Z</time>
      </trkpt>
      <trkpt lat="40.786151" lon="-4.019864">
        <ele>1813</ele>
        <time>2018-06-30T20:34:03.008Z</time>
      </trkpt>
      <trkpt lat="40.786197" lon="-4.019804">
        <ele>1813</ele>
        <time>2018-06-30T20:34:10.008Z</time>
      </trkpt>
      <trkpt lat="40.786247" lon="-4.019758">
        <ele>1815</ele>
        <time>2018-06-30T20:34:15.008Z</time>
      </trkpt>
      <trkpt lat="40.786308" lon="-4.019712">
        <ele>1816</ele>
        <time>2018-06-30T20:34:22.008Z</time>
      </trkpt>
      <trkpt lat="40.786357" lon="-4.019692">
        <ele>1816</ele>
        <time>2018-06-30T20:34:27.008Z</time>
      </trkpt>
      <trkpt lat="40.786407" lon="-4.01969">
        <ele>1817</ele>
        <time>2018-06-30T20:34:33.008Z</time>
      </trkpt>
      <trkpt lat="40.786448" lon="-4.01967">
        <ele>1817</ele>
        <time>2018-06-30T20:34:37.008Z</time>
      </trkpt>
      <trkpt lat="40.786482" lon="-4.019644">
        <ele>1817</ele>
        <time>2018-06-30T20:34:40.008Z</time>
      </trkpt>
      <trkpt lat="40.786503" lon="-4.0196">
        <ele>1817</ele>
        <time>2018-06-30T20:34:43.008Z</time>
      </trkpt>
      <trkpt lat="40.786521" lon="-4.019554">
        <ele>1817</ele>
        <time>2018-06-30T20:34:46.008Z</time>
      </trkpt>
      <trkpt lat="40.786548" lon="-4.019496">
        <ele>1818.06909632526</ele>
        <time>2018-06-30T20:34:51.008Z</time>
      </trkpt>
      <trkpt lat="40.786586" lon="-4.019444">
        <ele>1819</ele>
        <time>2018-06-30T20:34:56.008Z</time>
      </trkpt>
      <trkpt lat="40.786604" lon="-4.019383">
        <ele>1819</ele>
        <time>2018-06-30T20:35:00.008Z</time>
      </trkpt>
      <trkpt lat="40.78663" lon="-4.019302">
        <ele>1820</ele>
        <time>2018-06-30T20:35:08.008Z</time>
      </trkpt>
      <trkpt lat="40.786665" lon="-4.019232">
        <ele>1821</ele>
        <time>2018-06-30T20:35:16.008Z</time>
      </trkpt>
      <trkpt lat="40.786695" lon="-4.019153">
        <ele>1821</ele>
        <time>2018-06-30T20:35:21.008Z</time>
      </trkpt>
      <trkpt lat="40.786698" lon="-4.019088">
        <ele>1821</ele>
        <time>2018-06-30T20:35:27.008Z</time>
      </trkpt>
      <trkpt lat="40.786723" lon="-4.019022">
        <ele>1822</ele>
        <time>2018-06-30T20:35:34.008Z</time>
      </trkpt>
      <trkpt lat="40.786747" lon="-4.018948">
        <ele>1822</ele>
        <time>2018-06-30T20:35:40.008Z</time>
      </trkpt>
      <trkpt lat="40.786759" lon="-4.018873">
        <ele>1823</ele>
        <time>2018-06-30T20:35:45.008Z</time>
      </trkpt>
      <trkpt lat="40.786769" lon="-4.018792">
        <ele>1823</ele>
        <time>2018-06-30T20:35:49.008Z</time>
      </trkpt>
      <trkpt lat="40.786767" lon="-4.018732">
        <ele>1825</ele>
        <time>2018-06-30T20:35:53.008Z</time>
      </trkpt>
      <trkpt lat="40.786772" lon="-4.01866">
        <ele>1825</ele>
        <time>2018-06-30T20:35:59.008Z</time>
      </trkpt>
      <trkpt lat="40.78677" lon="-4.018583">
        <ele>1827</ele>
        <time>2018-06-30T20:36:05.008Z</time>
      </trkpt>
      <trkpt lat="40.786779" lon="-4.018506">
        <ele>1829</ele>
        <time>2018-06-30T20:36:13.008Z</time>
      </trkpt>
      <trkpt lat="40.786779" lon="-4.018421">
        <ele>1830.06909632526</ele>
        <time>2018-06-30T20:36:21.008Z</time>
      </trkpt>
      <trkpt lat="40.786764" lon="-4.018321">
        <ele>1831</ele>
        <time>2018-06-30T20:36:28.008Z</time>
      </trkpt>
      <trkpt lat="40.786773" lon="-4.01823">
        <ele>1832</ele>
        <time>2018-06-30T20:36:36.008Z</time>
      </trkpt>
      <trkpt lat="40.786774" lon="-4.018151">
        <ele>1832.58217902087</ele>
        <time>2018-06-30T20:36:41.008Z</time>
      </trkpt>
      <trkpt lat="40.786772" lon="-4.018074">
        <ele>1833</ele>
        <time>2018-06-30T20:36:46.008Z</time>
      </trkpt>
      <trkpt lat="40.786771" lon="-4.018008">
        <ele>1833.53454816263</ele>
        <time>2018-06-30T20:36:51.008Z</time>
      </trkpt>
      <trkpt lat="40.786756" lon="-4.017928">
        <ele>1834</ele>
        <time>2018-06-30T20:36:57.008Z</time>
      </trkpt>
      <trkpt lat="40.786753" lon="-4.017849">
        <ele>1835</ele>
        <time>2018-06-30T20:37:03.008Z</time>
      </trkpt>
      <trkpt lat="40.786755" lon="-4.017754">
        <ele>1835</ele>
        <time>2018-06-30T20:37:10.008Z</time>
      </trkpt>
      <trkpt lat="40.786763" lon="-4.017663">
        <ele>1836</ele>
        <time>2018-06-30T20:37:17.008Z</time>
      </trkpt>
      <trkpt lat="40.786767" lon="-4.017582">
        <ele>1838</ele>
        <time>2018-06-30T20:37:23.008Z</time>
      </trkpt>
      <trkpt lat="40.786738" lon="-4.01751">
        <ele>1838</ele>
        <time>2018-06-30T20:37:28.008Z</time>
      </trkpt>
      <trkpt lat="40.786709" lon="-4.017443">
        <ele>1839</ele>
        <time>2018-06-30T20:37:32.008Z</time>
      </trkpt>
      <trkpt lat="40.786708" lon="-4.017371">
        <ele>1839</ele>
        <time>2018-06-30T20:37:37.008Z</time>
      </trkpt>
      <trkpt lat="40.786701" lon="-4.017292">
        <ele>1841</ele>
        <time>2018-06-30T20:37:43.008Z</time>
      </trkpt>
      <trkpt lat="40.786659" lon="-4.017208">
        <ele>1841</ele>
        <time>2018-06-30T20:37:50.008Z</time>
      </trkpt>
      <trkpt lat="40.786674" lon="-4.017136">
        <ele>1843</ele>
        <time>2018-06-30T20:37:57.008Z</time>
      </trkpt>
      <trkpt lat="40.786678" lon="-4.017055">
        <ele>1843</ele>
        <time>2018-06-30T20:38:04.008Z</time>
      </trkpt>
      <trkpt lat="40.786666" lon="-4.016962">
        <ele>1845</ele>
        <time>2018-06-30T20:38:12.008Z</time>
      </trkpt>
      <trkpt lat="40.786665" lon="-4.016869">
        <ele>1845</ele>
        <time>2018-06-30T20:38:19.008Z</time>
      </trkpt>
      <trkpt lat="40.786676" lon="-4.016772">
        <ele>1845</ele>
        <time>2018-06-30T20:38:25.008Z</time>
      </trkpt>
      <trkpt lat="40.786696" lon="-4.016679">
        <ele>1845</ele>
        <time>2018-06-30T20:38:32.008Z</time>
      </trkpt>
      <trkpt lat="40.786707" lon="-4.016563">
        <ele>1845</ele>
        <time>2018-06-30T20:38:39.008Z</time>
      </trkpt>
      <trkpt lat="40.786695" lon="-4.016484">
        <ele>1844.57647324566</ele>
        <time>2018-06-30T20:38:43.008Z</time>
      </trkpt>
      <trkpt lat="40.786712" lon="-4.016377">
        <ele>1846</ele>
        <time>2018-06-30T20:38:52.008Z</time>
      </trkpt>
      <trkpt lat="40.786732" lon="-4.016286">
        <ele>1846</ele>
        <time>2018-06-30T20:38:57.008Z</time>
      </trkpt>
      <trkpt lat="40.78673" lon="-4.016173">
        <ele>1846</ele>
        <time>2018-06-30T20:39:07.008Z</time>
      </trkpt>
      <trkpt lat="40.786743" lon="-4.016071">
        <ele>1846</ele>
        <time>2018-06-30T20:39:15.008Z</time>
      </trkpt>
      <trkpt lat="40.786787" lon="-4.015983">
        <ele>1846</ele>
        <time>2018-06-30T20:39:18.008Z</time>
      </trkpt>
      <trkpt lat="40.78682" lon="-4.015882">
        <ele>1846</ele>
        <time>2018-06-30T20:39:23.008Z</time>
      </trkpt>
      <trkpt lat="40.786846" lon="-4.015782">
        <ele>1846</ele>
        <time>2018-06-30T20:39:28.008Z</time>
      </trkpt>
      <trkpt lat="40.786856" lon="-4.015684">
        <ele>1846</ele>
        <time>2018-06-30T20:39:35.008Z</time>
      </trkpt>
      <trkpt lat="40.786826" lon="-4.01561">
        <ele>1847.16435804175</ele>
        <time>2018-06-30T20:39:41.008Z</time>
      </trkpt>
      <trkpt lat="40.786854" lon="-4.015538">
        <ele>1848</ele>
        <time>2018-06-30T20:39:47.008Z</time>
      </trkpt>
      <trkpt lat="40.78688" lon="-4.015458">
        <ele>1848</ele>
        <time>2018-06-30T20:39:52.008Z</time>
      </trkpt>
      <trkpt lat="40.7869" lon="-4.015363">
        <ele>1848</ele>
        <time>2018-06-30T20:39:57.008Z</time>
      </trkpt>
      <trkpt lat="40.786925" lon="-4.015272">
        <ele>1847</ele>
        <time>2018-06-30T20:40:02.008Z</time>
      </trkpt>
      <trkpt lat="40.786937" lon="-4.015181">
        <ele>1847</ele>
        <time>2018-06-30T20:40:08.008Z</time>
      </trkpt>
      <trkpt lat="40.786941" lon="-4.015062">
        <ele>1847</ele>
        <time>2018-06-30T20:40:17.008Z</time>
      </trkpt>
      <trkpt lat="40.786986" lon="-4.014967">
        <ele>1847</ele>
        <time>2018-06-30T20:40:22.008Z</time>
      </trkpt>
      <trkpt lat="40.787023" lon="-4.014873">
        <ele>1847</ele>
        <time>2018-06-30T20:40:28.008Z</time>
      </trkpt>
      <trkpt lat="40.787051" lon="-4.014778">
        <ele>1846</ele>
        <time>2018-06-30T20:40:33.008Z</time>
      </trkpt>
      <trkpt lat="40.787064" lon="-4.014678">
        <ele>1846</ele>
        <time>2018-06-30T20:40:39.008Z</time>
      </trkpt>
      <trkpt lat="40.787089" lon="-4.01457">
        <ele>1847</ele>
        <time>2018-06-30T20:40:45.008Z</time>
      </trkpt>
      <trkpt lat="40.787132" lon="-4.014478">
        <ele>1847</ele>
        <time>2018-06-30T20:40:54.008Z</time>
      </trkpt>
      <trkpt lat="40.787183" lon="-4.014386">
        <ele>1846</ele>
        <time>2018-06-30T20:41:02.008Z</time>
      </trkpt>
      <trkpt lat="40.787204" lon="-4.014286">
        <ele>1847</ele>
        <time>2018-06-30T20:41:09.008Z</time>
      </trkpt>
      <trkpt lat="40.78722" lon="-4.014189">
        <ele>1848</ele>
        <time>2018-06-30T20:41:18.008Z</time>
      </trkpt>
      <trkpt lat="40.787252" lon="-4.014108">
        <ele>1848</ele>
        <time>2018-06-30T20:41:23.008Z</time>
      </trkpt>
      <trkpt lat="40.78728" lon="-4.014031">
        <ele>1848</ele>
        <time>2018-06-30T20:41:27.008Z</time>
      </trkpt>
      <trkpt lat="40.787312" lon="-4.013968">
        <ele>1848</ele>
        <time>2018-06-30T20:41:31.008Z</time>
      </trkpt>
      <trkpt lat="40.787352" lon="-4.013906">
        <ele>1848</ele>
        <time>2018-06-30T20:41:36.008Z</time>
      </trkpt>
      <trkpt lat="40.7874" lon="-4.01382">
        <ele>1849</ele>
        <time>2018-06-30T20:41:42.008Z</time>
      </trkpt>
      <trkpt lat="40.787421" lon="-4.013742">
        <ele>1849</ele>
        <time>2018-06-30T20:41:47.008Z</time>
      </trkpt>
      <trkpt lat="40.787452" lon="-4.013662">
        <ele>1850</ele>
        <time>2018-06-30T20:41:54.008Z</time>
      </trkpt>
      <trkpt lat="40.787487" lon="-4.013589">
        <ele>1850</ele>
        <time>2018-06-30T20:42:00.008Z</time>
      </trkpt>
      <trkpt lat="40.787525" lon="-4.013504">
        <ele>1849</ele>
        <time>2018-06-30T20:42:07.008Z</time>
      </trkpt>
      <trkpt lat="40.787566" lon="-4.013425">
        <ele>1850</ele>
        <time>2018-06-30T20:42:12.008Z</time>
      </trkpt>
      <trkpt lat="40.787594" lon="-4.013351">
        <ele>1850</ele>
        <time>2018-06-30T20:42:17.008Z</time>
      </trkpt>
      <trkpt lat="40.787626" lon="-4.013275">
        <ele>1851</ele>
        <time>2018-06-30T20:42:22.008Z</time>
      </trkpt>
      <trkpt lat="40.787665" lon="-4.013191">
        <ele>1851</ele>
        <time>2018-06-30T20:42:28.008Z</time>
      </trkpt>
      <trkpt lat="40.787692" lon="-4.013116">
        <ele>1851</ele>
        <time>2018-06-30T20:42:34.008Z</time>
      </trkpt>
      <trkpt lat="40.787721" lon="-4.013044">
        <ele>1851</ele>
        <time>2018-06-30T20:42:39.008Z</time>
      </trkpt>
      <trkpt lat="40.78774" lon="-4.012968">
        <ele>1852</ele>
        <time>2018-06-30T20:42:45.008Z</time>
      </trkpt>
      <trkpt lat="40.787764" lon="-4.012885">
        <ele>1852.53454816263</ele>
        <time>2018-06-30T20:42:51.008Z</time>
      </trkpt>
      <trkpt lat="40.787789" lon="-4.01281">
        <ele>1853</ele>
        <time>2018-06-30T20:42:56.008Z</time>
      </trkpt>
      <trkpt lat="40.787807" lon="-4.012735">
        <ele>1854.15294649132</ele>
        <time>2018-06-30T20:43:01.008Z</time>
      </trkpt>
      <trkpt lat="40.787816" lon="-4.012661">
        <ele>1855</ele>
        <time>2018-06-30T20:43:06.008Z</time>
      </trkpt>
      <trkpt lat="40.787845" lon="-4.012597">
        <ele>1857.57647324566</ele>
        <time>2018-06-30T20:43:13.008Z</time>
      </trkpt>
      <trkpt lat="40.787876" lon="-4.012516">
        <ele>1858</ele>
        <time>2018-06-30T20:43:18.008Z</time>
      </trkpt>
      <trkpt lat="40.787893" lon="-4.012436">
        <ele>1859</ele>
        <time>2018-06-30T20:43:24.008Z</time>
      </trkpt>
      <trkpt lat="40.787922" lon="-4.012374">
        <ele>1859</ele>
        <time>2018-06-30T20:43:29.008Z</time>
      </trkpt>
      <trkpt lat="40.787945" lon="-4.012293">
        <ele>1861</ele>
        <time>2018-06-30T20:43:37.008Z</time>
      </trkpt>
      <trkpt lat="40.787962" lon="-4.012226">
        <ele>1862</ele>
        <time>2018-06-30T20:43:42.008Z</time>
      </trkpt>
      <trkpt lat="40.787987" lon="-4.012164">
        <ele>1862</ele>
        <time>2018-06-30T20:43:47.008Z</time>
      </trkpt>
      <trkpt lat="40.788025" lon="-4.012107">
        <ele>1863</ele>
        <time>2018-06-30T20:43:53.008Z</time>
      </trkpt>
      <trkpt lat="40.788063" lon="-4.012039">
        <ele>1863</ele>
        <time>2018-06-30T20:43:59.008Z</time>
      </trkpt>
      <trkpt lat="40.788101" lon="-4.011964">
        <ele>1863</ele>
        <time>2018-06-30T20:44:06.008Z</time>
      </trkpt>
      <trkpt lat="40.788134" lon="-4.011876">
        <ele>1865</ele>
        <time>2018-06-30T20:44:13.008Z</time>
      </trkpt>
      <trkpt lat="40.788171" lon="-4.011802">
        <ele>1865</ele>
        <time>2018-06-30T20:44:19.008Z</time>
      </trkpt>
      <trkpt lat="40.788205" lon="-4.011746">
        <ele>1865</ele>
        <time>2018-06-30T20:44:23.008Z</time>
      </trkpt>
      <trkpt lat="40.788232" lon="-4.011672">
        <ele>1865</ele>
        <time>2018-06-30T20:44:28.008Z</time>
      </trkpt>
      <trkpt lat="40.788267" lon="-4.011616">
        <ele>1866</ele>
        <time>2018-06-30T20:44:33.008Z</time>
      </trkpt>
      <trkpt lat="40.788298" lon="-4.011555">
        <ele>1866</ele>
        <time>2018-06-30T20:44:38.008Z</time>
      </trkpt>
      <trkpt lat="40.788341" lon="-4.011503">
        <ele>1867</ele>
        <time>2018-06-30T20:44:43.008Z</time>
      </trkpt>
      <trkpt lat="40.788386" lon="-4.011469">
        <ele>1867</ele>
        <time>2018-06-30T20:44:47.008Z</time>
      </trkpt>
      <trkpt lat="40.788423" lon="-4.011426">
        <ele>1867</ele>
        <time>2018-06-30T20:44:52.008Z</time>
      </trkpt>
      <trkpt lat="40.788459" lon="-4.011379">
        <ele>1867</ele>
        <time>2018-06-30T20:44:56.008Z</time>
      </trkpt>
      <trkpt lat="40.788483" lon="-4.011338">
        <ele>1867</ele>
        <time>2018-06-30T20:44:59.008Z</time>
      </trkpt>
      <trkpt lat="40.78851" lon="-4.011292">
        <ele>1868</ele>
        <time>2018-06-30T20:45:02.008Z</time>
      </trkpt>
      <trkpt lat="40.788538" lon="-4.011216">
        <ele>1868</ele>
        <time>2018-06-30T20:45:08.008Z</time>
      </trkpt>
      <trkpt lat="40.78857" lon="-4.011141">
        <ele>1870</ele>
        <time>2018-06-30T20:45:15.008Z</time>
      </trkpt>
      <trkpt lat="40.788596" lon="-4.011067">
        <ele>1870</ele>
        <time>2018-06-30T20:45:20.008Z</time>
      </trkpt>
      <trkpt lat="40.788619" lon="-4.011023">
        <ele>1870</ele>
        <time>2018-06-30T20:45:23.008Z</time>
      </trkpt>
      <trkpt lat="40.788661" lon="-4.01096">
        <ele>1870</ele>
        <time>2018-06-30T20:45:29.008Z</time>
      </trkpt>
      <trkpt lat="40.788696" lon="-4.010913">
        <ele>1871</ele>
        <time>2018-06-30T20:45:34.008Z</time>
      </trkpt>
      <trkpt lat="40.788735" lon="-4.010876">
        <ele>1871</ele>
        <time>2018-06-30T20:45:38.008Z</time>
      </trkpt>
      <trkpt lat="40.78877" lon="-4.010825">
        <ele>1872</ele>
        <time>2018-06-30T20:45:42.008Z</time>
      </trkpt>
      <trkpt lat="40.788805" lon="-4.010774">
        <ele>1872</ele>
        <time>2018-06-30T20:45:47.008Z</time>
      </trkpt>
      <trkpt lat="40.788843" lon="-4.010714">
        <ele>1872</ele>
        <time>2018-06-30T20:45:52.008Z</time>
      </trkpt>
      <trkpt lat="40.788876" lon="-4.010653">
        <ele>1872</ele>
        <time>2018-06-30T20:45:57.008Z</time>
      </trkpt>
      <trkpt lat="40.788901" lon="-4.010603">
        <ele>1873.72941973697</ele>
        <time>2018-06-30T20:46:01.008Z</time>
      </trkpt>
      <trkpt lat="40.788931" lon="-4.010551">
        <ele>1875</ele>
        <time>2018-06-30T20:46:05.008Z</time>
      </trkpt>
      <trkpt lat="40.788956" lon="-4.010517">
        <ele>1875</ele>
        <time>2018-06-30T20:46:08.008Z</time>
      </trkpt>
      <trkpt lat="40.788988" lon="-4.01048">
        <ele>1875</ele>
        <time>2018-06-30T20:46:12.008Z</time>
      </trkpt>
      <trkpt lat="40.78902" lon="-4.010446">
        <ele>1875</ele>
        <time>2018-06-30T20:46:16.008Z</time>
      </trkpt>
      <trkpt lat="40.789058" lon="-4.010408">
        <ele>1875</ele>
        <time>2018-06-30T20:46:20.008Z</time>
      </trkpt>
      <trkpt lat="40.789095" lon="-4.010363">
        <ele>1877</ele>
        <time>2018-06-30T20:46:24.008Z</time>
      </trkpt>
      <trkpt lat="40.789131" lon="-4.010333">
        <ele>1877</ele>
        <time>2018-06-30T20:46:28.008Z</time>
      </trkpt>
      <trkpt lat="40.789173" lon="-4.010281">
        <ele>1878</ele>
        <time>2018-06-30T20:46:33.008Z</time>
      </trkpt>
      <trkpt lat="40.789228" lon="-4.010237">
        <ele>1878</ele>
        <time>2018-06-30T20:46:41.008Z</time>
      </trkpt>
      <trkpt lat="40.789283" lon="-4.010199">
        <ele>1878</ele>
        <time>2018-06-30T20:46:46.008Z</time>
      </trkpt>
      <trkpt lat="40.789338" lon="-4.010163">
        <ele>1878.53454816263</ele>
        <time>2018-06-30T20:46:51.008Z</time>
      </trkpt>
      <trkpt lat="40.789402" lon="-4.010139">
        <ele>1879</ele>
        <time>2018-06-30T20:46:57.008Z</time>
      </trkpt>
      <trkpt lat="40.789448" lon="-4.010124">
        <ele>1879</ele>
        <time>2018-06-30T20:47:01.008Z</time>
      </trkpt>
      <trkpt lat="40.789506" lon="-4.0101">
        <ele>1879</ele>
        <time>2018-06-30T20:47:07.008Z</time>
      </trkpt>
      <trkpt lat="40.789552" lon="-4.010051">
        <ele>1880</ele>
        <time>2018-06-30T20:47:12.008Z</time>
      </trkpt>
      <trkpt lat="40.789605" lon="-4.009995">
        <ele>1880</ele>
        <time>2018-06-30T20:47:17.008Z</time>
      </trkpt>
      <trkpt lat="40.789651" lon="-4.009956">
        <ele>1881</ele>
        <time>2018-06-30T20:47:22.008Z</time>
      </trkpt>
      <trkpt lat="40.789699" lon="-4.009916">
        <ele>1881</ele>
        <time>2018-06-30T20:47:27.008Z</time>
      </trkpt>
      <trkpt lat="40.789746" lon="-4.0099">
        <ele>1883</ele>
        <time>2018-06-30T20:47:32.008Z</time>
      </trkpt>
      <trkpt lat="40.789786" lon="-4.009881">
        <ele>1883</ele>
        <time>2018-06-30T20:47:36.008Z</time>
      </trkpt>
      <trkpt lat="40.789829" lon="-4.009858">
        <ele>1883</ele>
        <time>2018-06-30T20:47:40.008Z</time>
      </trkpt>
      <trkpt lat="40.789875" lon="-4.009828">
        <ele>1883</ele>
        <time>2018-06-30T20:47:44.008Z</time>
      </trkpt>
      <trkpt lat="40.789912" lon="-4.009791">
        <ele>1883</ele>
        <time>2018-06-30T20:47:48.008Z</time>
      </trkpt>
      <trkpt lat="40.789953" lon="-4.00977">
        <ele>1884</ele>
        <time>2018-06-30T20:47:52.008Z</time>
      </trkpt>
      <trkpt lat="40.789995" lon="-4.00974">
        <ele>1884</ele>
        <time>2018-06-30T20:47:57.008Z</time>
      </trkpt>
      <trkpt lat="40.790029" lon="-4.009691">
        <ele>1886</ele>
        <time>2018-06-30T20:48:02.008Z</time>
      </trkpt>
      <trkpt lat="40.790072" lon="-4.009651">
        <ele>1886</ele>
        <time>2018-06-30T20:48:07.008Z</time>
      </trkpt>
      <trkpt lat="40.790105" lon="-4.009617">
        <ele>1886</ele>
        <time>2018-06-30T20:48:10.008Z</time>
      </trkpt>
      <trkpt lat="40.790144" lon="-4.009584">
        <ele>1888</ele>
        <time>2018-06-30T20:48:14.008Z</time>
      </trkpt>
      <trkpt lat="40.790185" lon="-4.009551">
        <ele>1888</ele>
        <time>2018-06-30T20:48:18.008Z</time>
      </trkpt>
      <trkpt lat="40.790224" lon="-4.009519">
        <ele>1889</ele>
        <time>2018-06-30T20:48:22.008Z</time>
      </trkpt>
      <trkpt lat="40.790265" lon="-4.009496">
        <ele>1889</ele>
        <time>2018-06-30T20:48:26.008Z</time>
      </trkpt>
      <trkpt lat="40.7903" lon="-4.009475">
        <ele>1889</ele>
        <time>2018-06-30T20:48:29.008Z</time>
      </trkpt>
      <trkpt lat="40.79034" lon="-4.009461">
        <ele>1889</ele>
        <time>2018-06-30T20:48:32.008Z</time>
      </trkpt>
      <trkpt lat="40.790378" lon="-4.009451">
        <ele>1889</ele>
        <time>2018-06-30T20:48:35.008Z</time>
      </trkpt>
      <trkpt lat="40.790422" lon="-4.00943">
        <ele>1889</ele>
        <time>2018-06-30T20:48:39.008Z</time>
      </trkpt>
      <trkpt lat="40.790463" lon="-4.009417">
        <ele>1890</ele>
        <time>2018-06-30T20:48:43.008Z</time>
      </trkpt>
      <trkpt lat="40.790495" lon="-4.0094">
        <ele>1890</ele>
        <time>2018-06-30T20:48:46.008Z</time>
      </trkpt>
      <trkpt lat="40.790528" lon="-4.009388">
        <ele>1890</ele>
        <time>2018-06-30T20:48:49.008Z</time>
      </trkpt>
      <trkpt lat="40.790564" lon="-4.009378">
        <ele>1890</ele>
        <time>2018-06-30T20:48:52.008Z</time>
      </trkpt>
      <trkpt lat="40.790596" lon="-4.009367">
        <ele>1889</ele>
        <time>2018-06-30T20:48:55.008Z</time>
      </trkpt>
      <trkpt lat="40.790629" lon="-4.009355">
        <ele>1889</ele>
        <time>2018-06-30T20:48:58.008Z</time>
      </trkpt>
      <trkpt lat="40.790673" lon="-4.009342">
        <ele>1890</ele>
        <time>2018-06-30T20:49:02.008Z</time>
      </trkpt>
      <trkpt lat="40.790716" lon="-4.009325">
        <ele>1890</ele>
        <time>2018-06-30T20:49:06.008Z</time>
      </trkpt>
      <trkpt lat="40.790748" lon="-4.009317">
        <ele>1890</ele>
        <time>2018-06-30T20:49:09.008Z</time>
      </trkpt>
      <trkpt lat="40.790782" lon="-4.009306">
        <ele>1891</ele>
        <time>2018-06-30T20:49:12.008Z</time>
      </trkpt>
      <trkpt lat="40.790817" lon="-4.009289">
        <ele>1891</ele>
        <time>2018-06-30T20:49:15.008Z</time>
      </trkpt>
      <trkpt lat="40.790846" lon="-4.009268">
        <ele>1891</ele>
        <time>2018-06-30T20:49:18.008Z</time>
      </trkpt>
      <trkpt lat="40.790872" lon="-4.009243">
        <ele>1892.06909632526</ele>
        <time>2018-06-30T20:49:21.008Z</time>
      </trkpt>
      <trkpt lat="40.790893" lon="-4.009208">
        <ele>1893</ele>
        <time>2018-06-30T20:49:24.008Z</time>
      </trkpt>
      <trkpt lat="40.790908" lon="-4.009171">
        <ele>1893</ele>
        <time>2018-06-30T20:49:27.008Z</time>
      </trkpt>
      <trkpt lat="40.790904" lon="-4.009132">
        <ele>1893</ele>
        <time>2018-06-30T20:49:30.008Z</time>
      </trkpt>
      <trkpt lat="40.790882" lon="-4.009103">
        <ele>1894</ele>
        <time>2018-06-30T20:49:33.008Z</time>
      </trkpt>
      <trkpt lat="40.790864" lon="-4.009072">
        <ele>1894</ele>
        <time>2018-06-30T20:49:36.008Z</time>
      </trkpt>
      <trkpt lat="40.79084" lon="-4.009041">
        <ele>1894</ele>
        <time>2018-06-30T20:49:39.008Z</time>
      </trkpt>
      <trkpt lat="40.790815" lon="-4.009014">
        <ele>1894</ele>
        <time>2018-06-30T20:49:42.008Z</time>
      </trkpt>
      <trkpt lat="40.790787" lon="-4.008987">
        <ele>1894</ele>
        <time>2018-06-30T20:49:45.008Z</time>
      </trkpt>
      <trkpt lat="40.790758" lon="-4.008961">
        <ele>1894</ele>
        <time>2018-06-30T20:49:48.008Z</time>
      </trkpt>
      <trkpt lat="40.79073" lon="-4.008935">
        <ele>1894</ele>
        <time>2018-06-30T20:49:51.008Z</time>
      </trkpt>
      <trkpt lat="40.79069" lon="-4.008905">
        <ele>1894</ele>
        <time>2018-06-30T20:49:55.008Z</time>
      </trkpt>
      <trkpt lat="40.790648" lon="-4.008874">
        <ele>1894</ele>
        <time>2018-06-30T20:49:59.008Z</time>
      </trkpt>
      <trkpt lat="40.790608" lon="-4.008838">
        <ele>1894</ele>
        <time>2018-06-30T20:50:03.008Z</time>
      </trkpt>
      <trkpt lat="40.790568" lon="-4.00881">
        <ele>1894</ele>
        <time>2018-06-30T20:50:07.008Z</time>
      </trkpt>
      <trkpt lat="40.79052" lon="-4.008769">
        <ele>1894</ele>
        <time>2018-06-30T20:50:12.008Z</time>
      </trkpt>
      <trkpt lat="40.790486" lon="-4.008737">
        <ele>1894</ele>
        <time>2018-06-30T20:50:16.008Z</time>
      </trkpt>
      <trkpt lat="40.79045" lon="-4.008724">
        <ele>1894</ele>
        <time>2018-06-30T20:50:19.008Z</time>
      </trkpt>
      <trkpt lat="40.79042" lon="-4.008715">
        <ele>1894</ele>
        <time>2018-06-30T20:50:22.008Z</time>
      </trkpt>
      <trkpt lat="40.790404" lon="-4.008671">
        <ele>1894</ele>
        <time>2018-06-30T20:50:26.008Z</time>
      </trkpt>
      <trkpt lat="40.79038" lon="-4.008624">
        <ele>1894</ele>
        <time>2018-06-30T20:50:30.008Z</time>
      </trkpt>
      <trkpt lat="40.790354" lon="-4.008571">
        <ele>1895</ele>
        <time>2018-06-30T20:50:34.008Z</time>
      </trkpt>
      <trkpt lat="40.790333" lon="-4.008518">
        <ele>1895</ele>
        <time>2018-06-30T20:50:37.008Z</time>
      </trkpt>
      <trkpt lat="40.790318" lon="-4.008466">
        <ele>1895</ele>
        <time>2018-06-30T20:50:39.008Z</time>
      </trkpt>
      <trkpt lat="40.7903" lon="-4.008412">
        <ele>1895</ele>
        <time>2018-06-30T20:50:41.008Z</time>
      </trkpt>
      <trkpt lat="40.790279" lon="-4.00836">
        <ele>1895</ele>
        <time>2018-06-30T20:50:43.008Z</time>
      </trkpt>
      <trkpt lat="40.790256" lon="-4.008309">
        <ele>1895</ele>
        <time>2018-06-30T20:50:45.008Z</time>
      </trkpt>
      <trkpt lat="40.790236" lon="-4.008262">
        <ele>1895</ele>
        <time>2018-06-30T20:50:47.008Z</time>
      </trkpt>
      <trkpt lat="40.790224" lon="-4.008182">
        <ele>1895</ele>
        <time>2018-06-30T20:50:50.008Z</time>
      </trkpt>
      <trkpt lat="40.790222" lon="-4.008128">
        <ele>1894</ele>
        <time>2018-06-30T20:50:52.008Z</time>
      </trkpt>
      <trkpt lat="40.790224" lon="-4.008056">
        <ele>1894</ele>
        <time>2018-06-30T20:50:55.008Z</time>
      </trkpt>
      <trkpt lat="40.790226" lon="-4.00799">
        <ele>1894</ele>
        <time>2018-06-30T20:50:58.008Z</time>
      </trkpt>
      <trkpt lat="40.790233" lon="-4.007901">
        <ele>1892.84705350868</ele>
        <time>2018-06-30T20:51:01.008Z</time>
      </trkpt>
      <trkpt lat="40.790241" lon="-4.00779">
        <ele>1892</ele>
        <time>2018-06-30T20:51:05.008Z</time>
      </trkpt>
      <trkpt lat="40.79024" lon="-4.007677">
        <ele>1892</ele>
        <time>2018-06-30T20:51:09.008Z</time>
      </trkpt>
      <trkpt lat="40.790227" lon="-4.007564">
        <ele>1891</ele>
        <time>2018-06-30T20:51:13.008Z</time>
      </trkpt>
      <trkpt lat="40.790208" lon="-4.00748">
        <ele>1891</ele>
        <time>2018-06-30T20:51:16.008Z</time>
      </trkpt>
      <trkpt lat="40.790187" lon="-4.007398">
        <ele>1891</ele>
        <time>2018-06-30T20:51:19.008Z</time>
      </trkpt>
      <trkpt lat="40.790152" lon="-4.007323">
        <ele>1890</ele>
        <time>2018-06-30T20:51:22.008Z</time>
      </trkpt>
      <trkpt lat="40.790114" lon="-4.007223">
        <ele>1890</ele>
        <time>2018-06-30T20:51:26.008Z</time>
      </trkpt>
      <trkpt lat="40.790082" lon="-4.007145">
        <ele>1890</ele>
        <time>2018-06-30T20:51:29.008Z</time>
      </trkpt>
      <trkpt lat="40.790045" lon="-4.007073">
        <ele>1890</ele>
        <time>2018-06-30T20:51:32.008Z</time>
      </trkpt>
      <trkpt lat="40.790012" lon="-4.006999">
        <ele>1890</ele>
        <time>2018-06-30T20:51:35.008Z</time>
      </trkpt>
      <trkpt lat="40.789984" lon="-4.006919">
        <ele>1890</ele>
        <time>2018-06-30T20:51:38.008Z</time>
      </trkpt>
      <trkpt lat="40.789951" lon="-4.006835">
        <ele>1888.83564195825</ele>
        <time>2018-06-30T20:51:41.008Z</time>
      </trkpt>
      <trkpt lat="40.789921" lon="-4.006755">
        <ele>1888</ele>
        <time>2018-06-30T20:51:44.008Z</time>
      </trkpt>
      <trkpt lat="40.78988" lon="-4.006674">
        <ele>1888</ele>
        <time>2018-06-30T20:51:47.008Z</time>
      </trkpt>
      <trkpt lat="40.789848" lon="-4.006593">
        <ele>1888</ele>
        <time>2018-06-30T20:51:50.008Z</time>
      </trkpt>
      <trkpt lat="40.789814" lon="-4.006513">
        <ele>1887</ele>
        <time>2018-06-30T20:51:53.008Z</time>
      </trkpt>
      <trkpt lat="40.789787" lon="-4.006428">
        <ele>1887</ele>
        <time>2018-06-30T20:51:56.008Z</time>
      </trkpt>
      <trkpt lat="40.78976" lon="-4.006346">
        <ele>1887</ele>
        <time>2018-06-30T20:51:59.008Z</time>
      </trkpt>
      <trkpt lat="40.789744" lon="-4.006263">
        <ele>1886</ele>
        <time>2018-06-30T20:52:02.008Z</time>
      </trkpt>
      <trkpt lat="40.789722" lon="-4.006183">
        <ele>1886</ele>
        <time>2018-06-30T20:52:05.008Z</time>
      </trkpt>
      <trkpt lat="40.789698" lon="-4.006104">
        <ele>1886</ele>
        <time>2018-06-30T20:52:08.008Z</time>
      </trkpt>
      <trkpt lat="40.789666" lon="-4.006027">
        <ele>1886.58217902087</ele>
        <time>2018-06-30T20:52:11.008Z</time>
      </trkpt>
      <trkpt lat="40.789636" lon="-4.005956">
        <ele>1887</ele>
        <time>2018-06-30T20:52:14.008Z</time>
      </trkpt>
      <trkpt lat="40.78959" lon="-4.005858">
        <ele>1887</ele>
        <time>2018-06-30T20:52:18.008Z</time>
      </trkpt>
      <trkpt lat="40.789562" lon="-4.00578">
        <ele>1886.46545183737</ele>
        <time>2018-06-30T20:52:21.008Z</time>
      </trkpt>
      <trkpt lat="40.789532" lon="-4.005705">
        <ele>1886</ele>
        <time>2018-06-30T20:52:24.008Z</time>
      </trkpt>
      <trkpt lat="40.78949" lon="-4.005611">
        <ele>1886</ele>
        <time>2018-06-30T20:52:28.008Z</time>
      </trkpt>
      <trkpt lat="40.78944" lon="-4.005518">
        <ele>1885</ele>
        <time>2018-06-30T20:52:32.008Z</time>
      </trkpt>
      <trkpt lat="40.789408" lon="-4.005446">
        <ele>1885</ele>
        <time>2018-06-30T20:52:35.008Z</time>
      </trkpt>
      <trkpt lat="40.789372" lon="-4.005377">
        <ele>1885</ele>
        <time>2018-06-30T20:52:38.008Z</time>
      </trkpt>
      <trkpt lat="40.789336" lon="-4.005305">
        <ele>1885</ele>
        <time>2018-06-30T20:52:41.008Z</time>
      </trkpt>
      <trkpt lat="40.7893" lon="-4.005236">
        <ele>1885</ele>
        <time>2018-06-30T20:52:44.008Z</time>
      </trkpt>
      <trkpt lat="40.789262" lon="-4.005164">
        <ele>1885</ele>
        <time>2018-06-30T20:52:47.008Z</time>
      </trkpt>
      <trkpt lat="40.789224" lon="-4.005067">
        <ele>1884.46545183737</ele>
        <time>2018-06-30T20:52:51.008Z</time>
      </trkpt>
      <trkpt lat="40.789198" lon="-4.004992">
        <ele>1884</ele>
        <time>2018-06-30T20:52:54.008Z</time>
      </trkpt>
      <trkpt lat="40.789174" lon="-4.004914">
        <ele>1884</ele>
        <time>2018-06-30T20:52:57.008Z</time>
      </trkpt>
      <trkpt lat="40.789143" lon="-4.004842">
        <ele>1884</ele>
        <time>2018-06-30T20:53:00.008Z</time>
      </trkpt>
      <trkpt lat="40.789109" lon="-4.004763">
        <ele>1882</ele>
        <time>2018-06-30T20:53:03.008Z</time>
      </trkpt>
      <trkpt lat="40.78908" lon="-4.004685">
        <ele>1882</ele>
        <time>2018-06-30T20:53:06.008Z</time>
      </trkpt>
      <trkpt lat="40.789053" lon="-4.004604">
        <ele>1882</ele>
        <time>2018-06-30T20:53:09.008Z</time>
      </trkpt>
      <trkpt lat="40.789022" lon="-4.004524">
        <ele>1882</ele>
        <time>2018-06-30T20:53:12.008Z</time>
      </trkpt>
      <trkpt lat="40.78899" lon="-4.004443">
        <ele>1882</ele>
        <time>2018-06-30T20:53:15.008Z</time>
      </trkpt>
      <trkpt lat="40.788961" lon="-4.004365">
        <ele>1882</ele>
        <time>2018-06-30T20:53:18.008Z</time>
      </trkpt>
      <trkpt lat="40.788923" lon="-4.004264">
        <ele>1879</ele>
        <time>2018-06-30T20:53:22.008Z</time>
      </trkpt>
      <trkpt lat="40.788886" lon="-4.004196">
        <ele>1879</ele>
        <time>2018-06-30T20:53:25.008Z</time>
      </trkpt>
      <trkpt lat="40.788835" lon="-4.004131">
        <ele>1878</ele>
        <time>2018-06-30T20:53:28.008Z</time>
      </trkpt>
      <trkpt lat="40.788807" lon="-4.004089">
        <ele>1878</ele>
        <time>2018-06-30T20:53:30.008Z</time>
      </trkpt>
      <trkpt lat="40.788778" lon="-4.004044">
        <ele>1878</ele>
        <time>2018-06-30T20:53:32.008Z</time>
      </trkpt>
      <trkpt lat="40.788755" lon="-4.003999">
        <ele>1878</ele>
        <time>2018-06-30T20:53:34.008Z</time>
      </trkpt>
      <trkpt lat="40.788727" lon="-4.003953">
        <ele>1878</ele>
        <time>2018-06-30T20:53:36.008Z</time>
      </trkpt>
      <trkpt lat="40.788689" lon="-4.003885">
        <ele>1878</ele>
        <time>2018-06-30T20:53:39.008Z</time>
      </trkpt>
      <trkpt lat="40.788655" lon="-4.003823">
        <ele>1876</ele>
        <time>2018-06-30T20:53:42.008Z</time>
      </trkpt>
      <trkpt lat="40.78862" lon="-4.00376">
        <ele>1876</ele>
        <time>2018-06-30T20:53:45.008Z</time>
      </trkpt>
      <trkpt lat="40.788593" lon="-4.003718">
        <ele>1876</ele>
        <time>2018-06-30T20:53:47.008Z</time>
      </trkpt>
      <trkpt lat="40.788576" lon="-4.003648">
        <ele>1876</ele>
        <time>2018-06-30T20:53:50.008Z</time>
      </trkpt>
      <trkpt lat="40.788562" lon="-4.003551">
        <ele>1873</ele>
        <time>2018-06-30T20:53:55.008Z</time>
      </trkpt>
      <trkpt lat="40.788541" lon="-4.00348">
        <ele>1869.84705350868</ele>
        <time>2018-06-30T20:54:01.008Z</time>
      </trkpt>
      <trkpt lat="40.788532" lon="-4.003397">
        <ele>1870</ele>
        <time>2018-06-30T20:54:35.008Z</time>
      </trkpt>
      <trkpt lat="40.788533" lon="-4.003324">
        <ele>1870</ele>
        <time>2018-06-30T20:54:40.008Z</time>
      </trkpt>
      <trkpt lat="40.788545" lon="-4.003273">
        <ele>1869</ele>
        <time>2018-06-30T20:54:43.008Z</time>
      </trkpt>
      <trkpt lat="40.788574" lon="-4.003222">
        <ele>1869</ele>
        <time>2018-06-30T20:54:47.008Z</time>
      </trkpt>
      <trkpt lat="40.788598" lon="-4.003163">
        <ele>1869.53454816263</ele>
        <time>2018-06-30T20:54:51.008Z</time>
      </trkpt>
      <trkpt lat="40.788623" lon="-4.003105">
        <ele>1870</ele>
        <time>2018-06-30T20:54:55.008Z</time>
      </trkpt>
      <trkpt lat="40.788641" lon="-4.003062">
        <ele>1870</ele>
        <time>2018-06-30T20:54:58.008Z</time>
      </trkpt>
      <trkpt lat="40.78866" lon="-4.003014">
        <ele>1870</ele>
        <time>2018-06-30T20:55:01.008Z</time>
      </trkpt>
      <trkpt lat="40.788685" lon="-4.002954">
        <ele>1870</ele>
        <time>2018-06-30T20:55:05.008Z</time>
      </trkpt>
      <trkpt lat="40.788703" lon="-4.002896">
        <ele>1870</ele>
        <time>2018-06-30T20:55:09.008Z</time>
      </trkpt>
      <trkpt lat="40.788703" lon="-4.002854">
        <ele>1871</ele>
        <time>2018-06-30T20:55:12.008Z</time>
      </trkpt>
      <trkpt lat="40.788683" lon="-4.002821">
        <ele>1871</ele>
        <time>2018-06-30T20:55:15.008Z</time>
      </trkpt>
      <trkpt lat="40.788657" lon="-4.002792">
        <ele>1871</ele>
        <time>2018-06-30T20:55:18.008Z</time>
      </trkpt>
      <trkpt lat="40.788631" lon="-4.002762">
        <ele>1871.53454816263</ele>
        <time>2018-06-30T20:55:21.008Z</time>
      </trkpt>
      <trkpt lat="40.788612" lon="-4.002743">
        <ele>1872</ele>
        <time>2018-06-30T20:55:23.008Z</time>
      </trkpt>
      <trkpt lat="40.788594" lon="-4.002725">
        <ele>1872</ele>
        <time>2018-06-30T20:55:25.008Z</time>
      </trkpt>
      <trkpt lat="40.788566" lon="-4.002697">
        <ele>1872</ele>
        <time>2018-06-30T20:55:28.008Z</time>
      </trkpt>
      <trkpt lat="40.788546" lon="-4.002667">
        <ele>1873.15294649132</ele>
        <time>2018-06-30T20:55:31.008Z</time>
      </trkpt>
      <trkpt lat="40.788521" lon="-4.002652">
        <ele>1874</ele>
        <time>2018-06-30T20:55:34.008Z</time>
      </trkpt>
      <trkpt lat="40.788492" lon="-4.002637">
        <ele>1874</ele>
        <time>2018-06-30T20:55:37.008Z</time>
      </trkpt>
      <trkpt lat="40.788463" lon="-4.002613">
        <ele>1874</ele>
        <time>2018-06-30T20:55:40.008Z</time>
      </trkpt>
      <trkpt lat="40.788437" lon="-4.002592">
        <ele>1875</ele>
        <time>2018-06-30T20:55:43.008Z</time>
      </trkpt>
      <trkpt lat="40.788407" lon="-4.002577">
        <ele>1875</ele>
        <time>2018-06-30T20:55:46.008Z</time>
      </trkpt>
      <trkpt lat="40.788373" lon="-4.002566">
        <ele>1874</ele>
        <time>2018-06-30T20:55:49.008Z</time>
      </trkpt>
      <trkpt lat="40.788352" lon="-4.002553">
        <ele>1874.53454816263</ele>
        <time>2018-06-30T20:55:51.008Z</time>
      </trkpt>
      <trkpt lat="40.788329" lon="-4.002541">
        <ele>1875</ele>
        <time>2018-06-30T20:55:53.008Z</time>
      </trkpt>
      <trkpt lat="40.788306" lon="-4.002531">
        <ele>1875</ele>
        <time>2018-06-30T20:55:55.008Z</time>
      </trkpt>
      <trkpt lat="40.788283" lon="-4.002522">
        <ele>1875</ele>
        <time>2018-06-30T20:55:57.008Z</time>
      </trkpt>
      <trkpt lat="40.78826" lon="-4.002515">
        <ele>1875</ele>
        <time>2018-06-30T20:55:59.008Z</time>
      </trkpt>
      <trkpt lat="40.788229" lon="-4.002501">
        <ele>1876</ele>
        <time>2018-06-30T20:56:02.008Z</time>
      </trkpt>
      <trkpt lat="40.788197" lon="-4.002484">
        <ele>1876</ele>
        <time>2018-06-30T20:56:05.008Z</time>
      </trkpt>
      <trkpt lat="40.788169" lon="-4.002456">
        <ele>1876</ele>
        <time>2018-06-30T20:56:08.008Z</time>
      </trkpt>
      <trkpt lat="40.788141" lon="-4.002426">
        <ele>1876.58217902087</ele>
        <time>2018-06-30T20:56:11.008Z</time>
      </trkpt>
      <trkpt lat="40.788113" lon="-4.002401">
        <ele>1877</ele>
        <time>2018-06-30T20:56:14.008Z</time>
      </trkpt>
      <trkpt lat="40.788087" lon="-4.002374">
        <ele>1877</ele>
        <time>2018-06-30T20:56:17.008Z</time>
      </trkpt>
      <trkpt lat="40.788061" lon="-4.002344">
        <ele>1877</ele>
        <time>2018-06-30T20:56:20.008Z</time>
      </trkpt>
      <trkpt lat="40.788045" lon="-4.002321">
        <ele>1878</ele>
        <time>2018-06-30T20:56:22.008Z</time>
      </trkpt>
      <trkpt lat="40.788029" lon="-4.002299">
        <ele>1878</ele>
        <time>2018-06-30T20:56:24.008Z</time>
      </trkpt>
      <trkpt lat="40.788009" lon="-4.002267">
        <ele>1878</ele>
        <time>2018-06-30T20:56:27.008Z</time>
      </trkpt>
      <trkpt lat="40.787989" lon="-4.002231">
        <ele>1878</ele>
        <time>2018-06-30T20:56:30.008Z</time>
      </trkpt>
      <trkpt lat="40.787973" lon="-4.002191">
        <ele>1877.46545183737</ele>
        <time>2018-06-30T20:56:33.008Z</time>
      </trkpt>
      <trkpt lat="40.787966" lon="-4.002151">
        <ele>1877</ele>
        <time>2018-06-30T20:56:36.008Z</time>
      </trkpt>
      <trkpt lat="40.787958" lon="-4.002127">
        <ele>1877</ele>
        <time>2018-06-30T20:56:38.008Z</time>
      </trkpt>
      <trkpt lat="40.78794" lon="-4.002092">
        <ele>1877</ele>
        <time>2018-06-30T20:56:41.008Z</time>
      </trkpt>
      <trkpt lat="40.78791" lon="-4.002045">
        <ele>1877</ele>
        <time>2018-06-30T20:56:45.008Z</time>
      </trkpt>
      <trkpt lat="40.787868" lon="-4.00199">
        <ele>1877</ele>
        <time>2018-06-30T20:56:50.008Z</time>
      </trkpt>
      <trkpt lat="40.787841" lon="-4.001953">
        <ele>1878</ele>
        <time>2018-06-30T20:56:53.008Z</time>
      </trkpt>
      <trkpt lat="40.787823" lon="-4.001928">
        <ele>1878</ele>
        <time>2018-06-30T20:56:55.008Z</time>
      </trkpt>
      <trkpt lat="40.787805" lon="-4.001903">
        <ele>1878</ele>
        <time>2018-06-30T20:56:57.008Z</time>
      </trkpt>
      <trkpt lat="40.787783" lon="-4.00187">
        <ele>1878</ele>
        <time>2018-06-30T20:57:00.008Z</time>
      </trkpt>
      <trkpt lat="40.787763" lon="-4.00184">
        <ele>1880</ele>
        <time>2018-06-30T20:57:03.008Z</time>
      </trkpt>
      <trkpt lat="40.787748" lon="-4.001819">
        <ele>1880</ele>
        <time>2018-06-30T20:57:07.008Z</time>
      </trkpt>
      <trkpt lat="40.787736" lon="-4.001782">
        <ele>1880</ele>
        <time>2018-06-30T20:57:10.008Z</time>
      </trkpt>
      <trkpt lat="40.787724" lon="-4.001757">
        <ele>1881</ele>
        <time>2018-06-30T20:57:12.008Z</time>
      </trkpt>
      <trkpt lat="40.787709" lon="-4.001734">
        <ele>1881</ele>
        <time>2018-06-30T20:57:14.008Z</time>
      </trkpt>
      <trkpt lat="40.787692" lon="-4.001711">
        <ele>1881</ele>
        <time>2018-06-30T20:57:16.008Z</time>
      </trkpt>
      <trkpt lat="40.787675" lon="-4.001687">
        <ele>1881</ele>
        <time>2018-06-30T20:57:18.008Z</time>
      </trkpt>
      <trkpt lat="40.787657" lon="-4.001662">
        <ele>1881</ele>
        <time>2018-06-30T20:57:20.008Z</time>
      </trkpt>
      <trkpt lat="40.78764" lon="-4.001639">
        <ele>1881</ele>
        <time>2018-06-30T20:57:22.008Z</time>
      </trkpt>
      <trkpt lat="40.787623" lon="-4.001615">
        <ele>1881</ele>
        <time>2018-06-30T20:57:24.008Z</time>
      </trkpt>
      <trkpt lat="40.787607" lon="-4.00159">
        <ele>1881</ele>
        <time>2018-06-30T20:57:26.008Z</time>
      </trkpt>
      <trkpt lat="40.787595" lon="-4.001566">
        <ele>1881</ele>
        <time>2018-06-30T20:57:28.008Z</time>
      </trkpt>
      <trkpt lat="40.787584" lon="-4.001543">
        <ele>1881</ele>
        <time>2018-06-30T20:57:30.008Z</time>
      </trkpt>
      <trkpt lat="40.787568" lon="-4.00152">
        <ele>1882</ele>
        <time>2018-06-30T20:57:32.008Z</time>
      </trkpt>
      <trkpt lat="40.787546" lon="-4.001483">
        <ele>1882</ele>
        <time>2018-06-30T20:57:35.008Z</time>
      </trkpt>
      <trkpt lat="40.787523" lon="-4.001453">
        <ele>1882</ele>
        <time>2018-06-30T20:57:38.008Z</time>
      </trkpt>
      <trkpt lat="40.787495" lon="-4.001424">
        <ele>1882.58217902087</ele>
        <time>2018-06-30T20:57:41.008Z</time>
      </trkpt>
      <trkpt lat="40.78747" lon="-4.001394">
        <ele>1883</ele>
        <time>2018-06-30T20:57:44.008Z</time>
      </trkpt>
      <trkpt lat="40.787456" lon="-4.00137">
        <ele>1883</ele>
        <time>2018-06-30T20:57:46.008Z</time>
      </trkpt>
      <trkpt lat="40.787435" lon="-4.001337">
        <ele>1883</ele>
        <time>2018-06-30T20:57:49.008Z</time>
      </trkpt>
      <trkpt lat="40.787413" lon="-4.001305">
        <ele>1884</ele>
        <time>2018-06-30T20:57:52.008Z</time>
      </trkpt>
      <trkpt lat="40.787393" lon="-4.001271">
        <ele>1884</ele>
        <time>2018-06-30T20:57:55.008Z</time>
      </trkpt>
      <trkpt lat="40.787375" lon="-4.001236">
        <ele>1884</ele>
        <time>2018-06-30T20:57:58.008Z</time>
      </trkpt>
      <trkpt lat="40.787359" lon="-4.001206">
        <ele>1884.57647324566</ele>
        <time>2018-06-30T20:58:01.008Z</time>
      </trkpt>
      <trkpt lat="40.787339" lon="-4.00117">
        <ele>1885</ele>
        <time>2018-06-30T20:58:04.008Z</time>
      </trkpt>
      <trkpt lat="40.787318" lon="-4.001145">
        <ele>1885</ele>
        <time>2018-06-30T20:58:07.008Z</time>
      </trkpt>
      <trkpt lat="40.787302" lon="-4.001113">
        <ele>1885</ele>
        <time>2018-06-30T20:58:10.008Z</time>
      </trkpt>
      <trkpt lat="40.787286" lon="-4.00108">
        <ele>1885</ele>
        <time>2018-06-30T20:58:13.008Z</time>
      </trkpt>
      <trkpt lat="40.787268" lon="-4.001048">
        <ele>1885</ele>
        <time>2018-06-30T20:58:16.008Z</time>
      </trkpt>
      <trkpt lat="40.787248" lon="-4.00102">
        <ele>1885</ele>
        <time>2018-06-30T20:58:19.008Z</time>
      </trkpt>
      <trkpt lat="40.787227" lon="-4.000989">
        <ele>1886</ele>
        <time>2018-06-30T20:58:22.008Z</time>
      </trkpt>
      <trkpt lat="40.787204" lon="-4.000955">
        <ele>1886</ele>
        <time>2018-06-30T20:58:25.008Z</time>
      </trkpt>
      <trkpt lat="40.787182" lon="-4.000921">
        <ele>1886</ele>
        <time>2018-06-30T20:58:28.008Z</time>
      </trkpt>
      <trkpt lat="40.787162" lon="-4.000886">
        <ele>1886</ele>
        <time>2018-06-30T20:58:31.008Z</time>
      </trkpt>
      <trkpt lat="40.787144" lon="-4.000851">
        <ele>1886</ele>
        <time>2018-06-30T20:58:34.008Z</time>
      </trkpt>
      <trkpt lat="40.787132" lon="-4.000811">
        <ele>1886</ele>
        <time>2018-06-30T20:58:37.008Z</time>
      </trkpt>
      <trkpt lat="40.787123" lon="-4.000774">
        <ele>1886</ele>
        <time>2018-06-30T20:58:40.008Z</time>
      </trkpt>
      <trkpt lat="40.787109" lon="-4.000737">
        <ele>1887</ele>
        <time>2018-06-30T20:58:43.008Z</time>
      </trkpt>
      <trkpt lat="40.7871" lon="-4.000696">
        <ele>1887</ele>
        <time>2018-06-30T20:58:46.008Z</time>
      </trkpt>
      <trkpt lat="40.787089" lon="-4.000658">
        <ele>1887</ele>
        <time>2018-06-30T20:58:49.008Z</time>
      </trkpt>
      <trkpt lat="40.787081" lon="-4.00062">
        <ele>1887</ele>
        <time>2018-06-30T20:58:52.008Z</time>
      </trkpt>
      <trkpt lat="40.787076" lon="-4.000576">
        <ele>1887</ele>
        <time>2018-06-30T20:58:55.008Z</time>
      </trkpt>
      <trkpt lat="40.787075" lon="-4.00053">
        <ele>1887</ele>
        <time>2018-06-30T20:58:58.008Z</time>
      </trkpt>
      <trkpt lat="40.787071" lon="-4.000462">
        <ele>1888</ele>
        <time>2018-06-30T20:59:03.008Z</time>
      </trkpt>
      <trkpt lat="40.787065" lon="-4.000394">
        <ele>1888</ele>
        <time>2018-06-30T20:59:08.008Z</time>
      </trkpt>
      <trkpt lat="40.787071" lon="-4.000322">
        <ele>1890</ele>
        <time>2018-06-30T20:59:13.008Z</time>
      </trkpt>
      <trkpt lat="40.787078" lon="-4.00025">
        <ele>1890</ele>
        <time>2018-06-30T20:59:18.008Z</time>
      </trkpt>
      <trkpt lat="40.787086" lon="-4.000174">
        <ele>1890</ele>
        <time>2018-06-30T20:59:23.008Z</time>
      </trkpt>
      <trkpt lat="40.787096" lon="-4.000094">
        <ele>1890</ele>
        <time>2018-06-30T20:59:28.008Z</time>
      </trkpt>
      <trkpt lat="40.787104" lon="-4.000013">
        <ele>1891</ele>
        <time>2018-06-30T20:59:33.008Z</time>
      </trkpt>
      <trkpt lat="40.787114" lon="-3.999936">
        <ele>1891</ele>
        <time>2018-06-30T20:59:38.008Z</time>
      </trkpt>
      <trkpt lat="40.787123" lon="-3.999856">
        <ele>1892</ele>
        <time>2018-06-30T20:59:43.008Z</time>
      </trkpt>
      <trkpt lat="40.787134" lon="-3.999781">
        <ele>1892</ele>
        <time>2018-06-30T20:59:48.008Z</time>
      </trkpt>
      <trkpt lat="40.787139" lon="-3.999706">
        <ele>1893</ele>
        <time>2018-06-30T20:59:53.008Z</time>
      </trkpt>
      <trkpt lat="40.787141" lon="-3.99963">
        <ele>1893</ele>
        <time>2018-06-30T20:59:58.008Z</time>
      </trkpt>
      <trkpt lat="40.787129" lon="-3.999554">
        <ele>1894</ele>
        <time>2018-06-30T21:00:03.008Z</time>
      </trkpt>
      <trkpt lat="40.787113" lon="-3.999502">
        <ele>1894</ele>
        <time>2018-06-30T21:00:07.008Z</time>
      </trkpt>
      <trkpt lat="40.787094" lon="-3.999455">
        <ele>1895.16435804175</ele>
        <time>2018-06-30T21:00:11.008Z</time>
      </trkpt>
      <trkpt lat="40.787074" lon="-3.999408">
        <ele>1896</ele>
        <time>2018-06-30T21:00:15.008Z</time>
      </trkpt>
      <trkpt lat="40.787049" lon="-3.999357">
        <ele>1896</ele>
        <time>2018-06-30T21:00:19.008Z</time>
      </trkpt>
      <trkpt lat="40.787018" lon="-3.999309">
        <ele>1897</ele>
        <time>2018-06-30T21:00:23.008Z</time>
      </trkpt>
      <trkpt lat="40.786975" lon="-3.999255">
        <ele>1897</ele>
        <time>2018-06-30T21:00:28.008Z</time>
      </trkpt>
      <trkpt lat="40.78693" lon="-3.999187">
        <ele>1896</ele>
        <time>2018-06-30T21:00:34.008Z</time>
      </trkpt>
      <trkpt lat="40.786896" lon="-3.999119">
        <ele>1896</ele>
        <time>2018-06-30T21:00:39.008Z</time>
      </trkpt>
      <trkpt lat="40.786867" lon="-3.999052">
        <ele>1897</ele>
        <time>2018-06-30T21:00:44.008Z</time>
      </trkpt>
      <trkpt lat="40.786845" lon="-3.999014">
        <ele>1897</ele>
        <time>2018-06-30T21:00:47.008Z</time>
      </trkpt>
      <trkpt lat="40.786827" lon="-3.998972">
        <ele>1897</ele>
        <time>2018-06-30T21:00:50.008Z</time>
      </trkpt>
      <trkpt lat="40.786794" lon="-3.998894">
        <ele>1899</ele>
        <time>2018-06-30T21:00:56.008Z</time>
      </trkpt>
      <trkpt lat="40.786754" lon="-3.998836">
        <ele>1899</ele>
        <time>2018-06-30T21:01:01.008Z</time>
      </trkpt>
      <trkpt lat="40.786711" lon="-3.998779">
        <ele>1899</ele>
        <time>2018-06-30T21:01:06.008Z</time>
      </trkpt>
      <trkpt lat="40.786673" lon="-3.998727">
        <ele>1899</ele>
        <time>2018-06-30T21:01:11.008Z</time>
      </trkpt>
      <trkpt lat="40.786639" lon="-3.99867">
        <ele>1899</ele>
        <time>2018-06-30T21:01:16.008Z</time>
      </trkpt>
      <trkpt lat="40.786609" lon="-3.998623">
        <ele>1899</ele>
        <time>2018-06-30T21:01:20.008Z</time>
      </trkpt>
      <trkpt lat="40.786574" lon="-3.99856">
        <ele>1900</ele>
        <time>2018-06-30T21:01:25.008Z</time>
      </trkpt>
      <trkpt lat="40.786545" lon="-3.99851">
        <ele>1900</ele>
        <time>2018-06-30T21:01:29.008Z</time>
      </trkpt>
      <trkpt lat="40.786497" lon="-3.998459">
        <ele>1900</ele>
        <time>2018-06-30T21:01:34.008Z</time>
      </trkpt>
      <trkpt lat="40.786456" lon="-3.998403">
        <ele>1900</ele>
        <time>2018-06-30T21:01:39.008Z</time>
      </trkpt>
      <trkpt lat="40.786419" lon="-3.998367">
        <ele>1901</ele>
        <time>2018-06-30T21:01:43.008Z</time>
      </trkpt>
      <trkpt lat="40.786382" lon="-3.998325">
        <ele>1901</ele>
        <time>2018-06-30T21:01:47.008Z</time>
      </trkpt>
      <trkpt lat="40.786344" lon="-3.998285">
        <ele>1901.53454816263</ele>
        <time>2018-06-30T21:01:51.008Z</time>
      </trkpt>
      <trkpt lat="40.786309" lon="-3.998246">
        <ele>1902</ele>
        <time>2018-06-30T21:01:55.008Z</time>
      </trkpt>
      <trkpt lat="40.78627" lon="-3.998214">
        <ele>1902</ele>
        <time>2018-06-30T21:01:59.008Z</time>
      </trkpt>
      <trkpt lat="40.786213" lon="-3.998188">
        <ele>1904</ele>
        <time>2018-06-30T21:02:04.008Z</time>
      </trkpt>
      <trkpt lat="40.786164" lon="-3.998173">
        <ele>1904</ele>
        <time>2018-06-30T21:02:08.008Z</time>
      </trkpt>
      <trkpt lat="40.786116" lon="-3.998152">
        <ele>1905</ele>
        <time>2018-06-30T21:02:12.008Z</time>
      </trkpt>
      <trkpt lat="40.786057" lon="-3.998137">
        <ele>1905</ele>
        <time>2018-06-30T21:02:17.008Z</time>
      </trkpt>
      <trkpt lat="40.786016" lon="-3.99811">
        <ele>1905</ele>
        <time>2018-06-30T21:02:21.008Z</time>
      </trkpt>
      <trkpt lat="40.785975" lon="-3.998082">
        <ele>1905</ele>
        <time>2018-06-30T21:02:25.008Z</time>
      </trkpt>
      <trkpt lat="40.785931" lon="-3.998067">
        <ele>1905</ele>
        <time>2018-06-30T21:02:29.008Z</time>
      </trkpt>
      <trkpt lat="40.785878" lon="-3.998047">
        <ele>1907</ele>
        <time>2018-06-30T21:02:34.008Z</time>
      </trkpt>
      <trkpt lat="40.785828" lon="-3.998024">
        <ele>1907</ele>
        <time>2018-06-30T21:02:39.008Z</time>
      </trkpt>
      <trkpt lat="40.785777" lon="-3.998003">
        <ele>1908</ele>
        <time>2018-06-30T21:02:44.008Z</time>
      </trkpt>
      <trkpt lat="40.785731" lon="-3.997987">
        <ele>1908</ele>
        <time>2018-06-30T21:02:49.008Z</time>
      </trkpt>
      <trkpt lat="40.785679" lon="-3.997978">
        <ele>1910</ele>
        <time>2018-06-30T21:02:54.008Z</time>
      </trkpt>
      <trkpt lat="40.785626" lon="-3.997967">
        <ele>1910</ele>
        <time>2018-06-30T21:02:59.008Z</time>
      </trkpt>
      <trkpt lat="40.785571" lon="-3.997964">
        <ele>1911</ele>
        <time>2018-06-30T21:03:04.008Z</time>
      </trkpt>
      <trkpt lat="40.785515" lon="-3.997956">
        <ele>1911</ele>
        <time>2018-06-30T21:03:09.008Z</time>
      </trkpt>
      <trkpt lat="40.785452" lon="-3.997953">
        <ele>1912</ele>
        <time>2018-06-30T21:03:14.008Z</time>
      </trkpt>
      <trkpt lat="40.785392" lon="-3.997951">
        <ele>1912</ele>
        <time>2018-06-30T21:03:19.008Z</time>
      </trkpt>
      <trkpt lat="40.78534" lon="-3.997948">
        <ele>1912</ele>
        <time>2018-06-30T21:03:23.008Z</time>
      </trkpt>
      <trkpt lat="40.785279" lon="-3.997945">
        <ele>1912</ele>
        <time>2018-06-30T21:03:28.008Z</time>
      </trkpt>
      <trkpt lat="40.785225" lon="-3.997927">
        <ele>1912</ele>
        <time>2018-06-30T21:03:33.008Z</time>
      </trkpt>
      <trkpt lat="40.785167" lon="-3.997912">
        <ele>1912</ele>
        <time>2018-06-30T21:03:38.008Z</time>
      </trkpt>
      <trkpt lat="40.785121" lon="-3.997904">
        <ele>1914</ele>
        <time>2018-06-30T21:03:42.008Z</time>
      </trkpt>
      <trkpt lat="40.785062" lon="-3.997899">
        <ele>1914</ele>
        <time>2018-06-30T21:03:47.008Z</time>
      </trkpt>
      <trkpt lat="40.785039" lon="-3.997899">
        <ele>1914</ele>
        <time>2018-06-30T21:03:49.008Z</time>
      </trkpt>
      <trkpt lat="40.785014" lon="-3.997896">
        <ele>1914</ele>
        <time>2018-06-30T21:03:51.008Z</time>
      </trkpt>
      <trkpt lat="40.784953" lon="-3.997888">
        <ele>1914</ele>
        <time>2018-06-30T21:03:56.008Z</time>
      </trkpt>
      <trkpt lat="40.784893" lon="-3.99787">
        <ele>1914</ele>
        <time>2018-06-30T21:04:01.008Z</time>
      </trkpt>
      <trkpt lat="40.784841" lon="-3.997843">
        <ele>1914</ele>
        <time>2018-06-30T21:04:06.008Z</time>
      </trkpt>
      <trkpt lat="40.784789" lon="-3.997817">
        <ele>1914.58217902087</ele>
        <time>2018-06-30T21:04:11.008Z</time>
      </trkpt>
      <trkpt lat="40.784745" lon="-3.997801">
        <ele>1915</ele>
        <time>2018-06-30T21:04:15.008Z</time>
      </trkpt>
      <trkpt lat="40.784697" lon="-3.997794">
        <ele>1915</ele>
        <time>2018-06-30T21:04:19.008Z</time>
      </trkpt>
      <trkpt lat="40.78465" lon="-3.997786">
        <ele>1916</ele>
        <time>2018-06-30T21:04:23.008Z</time>
      </trkpt>
      <trkpt lat="40.784594" lon="-3.997772">
        <ele>1916</ele>
        <time>2018-06-30T21:04:28.008Z</time>
      </trkpt>
      <trkpt lat="40.784537" lon="-3.997758">
        <ele>1917</ele>
        <time>2018-06-30T21:04:33.008Z</time>
      </trkpt>
      <trkpt lat="40.784478" lon="-3.99775">
        <ele>1917</ele>
        <time>2018-06-30T21:04:38.008Z</time>
      </trkpt>
      <trkpt lat="40.784424" lon="-3.997739">
        <ele>1918</ele>
        <time>2018-06-30T21:04:43.008Z</time>
      </trkpt>
      <trkpt lat="40.784367" lon="-3.997729">
        <ele>1918</ele>
        <time>2018-06-30T21:04:48.008Z</time>
      </trkpt>
      <trkpt lat="40.784322" lon="-3.997713">
        <ele>1919</ele>
        <time>2018-06-30T21:04:52.008Z</time>
      </trkpt>
      <trkpt lat="40.784275" lon="-3.997704">
        <ele>1919</ele>
        <time>2018-06-30T21:04:56.008Z</time>
      </trkpt>
      <trkpt lat="40.784231" lon="-3.997696">
        <ele>1919</ele>
        <time>2018-06-30T21:05:00.008Z</time>
      </trkpt>
      <trkpt lat="40.784186" lon="-3.997696">
        <ele>1920</ele>
        <time>2018-06-30T21:05:04.008Z</time>
      </trkpt>
      <trkpt lat="40.784142" lon="-3.997699">
        <ele>1920</ele>
        <time>2018-06-30T21:05:08.008Z</time>
      </trkpt>
      <trkpt lat="40.784095" lon="-3.997706">
        <ele>1920</ele>
        <time>2018-06-30T21:05:12.008Z</time>
      </trkpt>
      <trkpt lat="40.784064" lon="-3.997713">
        <ele>1920</ele>
        <time>2018-06-30T21:05:15.008Z</time>
      </trkpt>
      <trkpt lat="40.784031" lon="-3.997716">
        <ele>1920</ele>
        <time>2018-06-30T21:05:18.008Z</time>
      </trkpt>
      <trkpt lat="40.783995" lon="-3.997721">
        <ele>1920.53454816263</ele>
        <time>2018-06-30T21:05:21.008Z</time>
      </trkpt>
      <trkpt lat="40.783961" lon="-3.997732">
        <ele>1921</ele>
        <time>2018-06-30T21:05:24.008Z</time>
      </trkpt>
      <trkpt lat="40.783928" lon="-3.997745">
        <ele>1921</ele>
        <time>2018-06-30T21:05:27.008Z</time>
      </trkpt>
      <trkpt lat="40.783895" lon="-3.997755">
        <ele>1921</ele>
        <time>2018-06-30T21:05:30.008Z</time>
      </trkpt>
      <trkpt lat="40.783862" lon="-3.997764">
        <ele>1922</ele>
        <time>2018-06-30T21:05:33.008Z</time>
      </trkpt>
      <trkpt lat="40.78383" lon="-3.997775">
        <ele>1922</ele>
        <time>2018-06-30T21:05:36.008Z</time>
      </trkpt>
      <trkpt lat="40.783796" lon="-3.997786">
        <ele>1922</ele>
        <time>2018-06-30T21:05:39.008Z</time>
      </trkpt>
      <trkpt lat="40.783764" lon="-3.997791">
        <ele>1924</ele>
        <time>2018-06-30T21:05:42.008Z</time>
      </trkpt>
      <trkpt lat="40.783731" lon="-3.997801">
        <ele>1924</ele>
        <time>2018-06-30T21:05:45.008Z</time>
      </trkpt>
      <trkpt lat="40.783697" lon="-3.997808">
        <ele>1924</ele>
        <time>2018-06-30T21:05:48.008Z</time>
      </trkpt>
      <trkpt lat="40.783665" lon="-3.997817">
        <ele>1924</ele>
        <time>2018-06-30T21:05:51.008Z</time>
      </trkpt>
      <trkpt lat="40.783633" lon="-3.997827">
        <ele>1924</ele>
        <time>2018-06-30T21:05:54.008Z</time>
      </trkpt>
      <trkpt lat="40.783603" lon="-3.997841">
        <ele>1924</ele>
        <time>2018-06-30T21:05:57.008Z</time>
      </trkpt>
      <trkpt lat="40.78355" lon="-3.997861">
        <ele>1925</ele>
        <time>2018-06-30T21:06:02.008Z</time>
      </trkpt>
      <trkpt lat="40.783506" lon="-3.997876">
        <ele>1925</ele>
        <time>2018-06-30T21:06:06.008Z</time>
      </trkpt>
      <trkpt lat="40.783453" lon="-3.997894">
        <ele>1925.58217902087</ele>
        <time>2018-06-30T21:06:11.008Z</time>
      </trkpt>
      <trkpt lat="40.783399" lon="-3.997914">
        <ele>1926</ele>
        <time>2018-06-30T21:06:16.008Z</time>
      </trkpt>
      <trkpt lat="40.783352" lon="-3.997923">
        <ele>1926</ele>
        <time>2018-06-30T21:06:20.008Z</time>
      </trkpt>
      <trkpt lat="40.783304" lon="-3.997927">
        <ele>1926</ele>
        <time>2018-06-30T21:06:24.008Z</time>
      </trkpt>
      <trkpt lat="40.783247" lon="-3.997936">
        <ele>1926</ele>
        <time>2018-06-30T21:06:29.008Z</time>
      </trkpt>
      <trkpt lat="40.783194" lon="-3.997946">
        <ele>1927</ele>
        <time>2018-06-30T21:06:34.008Z</time>
      </trkpt>
      <trkpt lat="40.783137" lon="-3.997956">
        <ele>1927</ele>
        <time>2018-06-30T21:06:39.008Z</time>
      </trkpt>
      <trkpt lat="40.783079" lon="-3.997948">
        <ele>1928</ele>
        <time>2018-06-30T21:06:44.008Z</time>
      </trkpt>
      <trkpt lat="40.783034" lon="-3.997936">
        <ele>1928</ele>
        <time>2018-06-30T21:06:48.008Z</time>
      </trkpt>
      <trkpt lat="40.782983" lon="-3.997931">
        <ele>1928</ele>
        <time>2018-06-30T21:06:54.008Z</time>
      </trkpt>
      <trkpt lat="40.782927" lon="-3.997926">
        <ele>1928</ele>
        <time>2018-06-30T21:06:59.008Z</time>
      </trkpt>
      <trkpt lat="40.782872" lon="-3.997918">
        <ele>1929</ele>
        <time>2018-06-30T21:07:04.008Z</time>
      </trkpt>
      <trkpt lat="40.782816" lon="-3.997908">
        <ele>1929</ele>
        <time>2018-06-30T21:07:09.008Z</time>
      </trkpt>
      <trkpt lat="40.782761" lon="-3.997896">
        <ele>1929</ele>
        <time>2018-06-30T21:07:14.008Z</time>
      </trkpt>
      <trkpt lat="40.782709" lon="-3.997875">
        <ele>1929</ele>
        <time>2018-06-30T21:07:19.008Z</time>
      </trkpt>
      <trkpt lat="40.782657" lon="-3.997856">
        <ele>1930</ele>
        <time>2018-06-30T21:07:24.008Z</time>
      </trkpt>
      <trkpt lat="40.782607" lon="-3.997834">
        <ele>1931</ele>
        <time>2018-06-30T21:07:29.008Z</time>
      </trkpt>
      <trkpt lat="40.782573" lon="-3.997804">
        <ele>1931</ele>
        <time>2018-06-30T21:07:33.008Z</time>
      </trkpt>
      <trkpt lat="40.782529" lon="-3.997767">
        <ele>1931</ele>
        <time>2018-06-30T21:07:38.008Z</time>
      </trkpt>
      <trkpt lat="40.782482" lon="-3.997751">
        <ele>1933</ele>
        <time>2018-06-30T21:07:42.008Z</time>
      </trkpt>
      <trkpt lat="40.782424" lon="-3.997729">
        <ele>1933</ele>
        <time>2018-06-30T21:07:47.008Z</time>
      </trkpt>
      <trkpt lat="40.782372" lon="-3.997704">
        <ele>1934</ele>
        <time>2018-06-30T21:07:52.008Z</time>
      </trkpt>
      <trkpt lat="40.782318" lon="-3.99767">
        <ele>1934</ele>
        <time>2018-06-30T21:07:57.008Z</time>
      </trkpt>
      <trkpt lat="40.782274" lon="-3.997646">
        <ele>1934.57647324566</ele>
        <time>2018-06-30T21:08:01.008Z</time>
      </trkpt>
      <trkpt lat="40.782227" lon="-3.99763">
        <ele>1935</ele>
        <time>2018-06-30T21:08:05.008Z</time>
      </trkpt>
      <trkpt lat="40.782174" lon="-3.997602">
        <ele>1935</ele>
        <time>2018-06-30T21:08:10.008Z</time>
      </trkpt>
      <trkpt lat="40.782137" lon="-3.997565">
        <ele>1935</ele>
        <time>2018-06-30T21:08:14.008Z</time>
      </trkpt>
      <trkpt lat="40.782084" lon="-3.997543">
        <ele>1935</ele>
        <time>2018-06-30T21:08:19.008Z</time>
      </trkpt>
      <trkpt lat="40.78203" lon="-3.99752">
        <ele>1937</ele>
        <time>2018-06-30T21:08:24.008Z</time>
      </trkpt>
      <trkpt lat="40.781983" lon="-3.997492">
        <ele>1937</ele>
        <time>2018-06-30T21:08:29.008Z</time>
      </trkpt>
      <trkpt lat="40.781934" lon="-3.997457">
        <ele>1937</ele>
        <time>2018-06-30T21:08:34.008Z</time>
      </trkpt>
      <trkpt lat="40.78188" lon="-3.997429">
        <ele>1937</ele>
        <time>2018-06-30T21:08:39.008Z</time>
      </trkpt>
      <trkpt lat="40.781827" lon="-3.997406">
        <ele>1938</ele>
        <time>2018-06-30T21:08:44.008Z</time>
      </trkpt>
      <trkpt lat="40.781772" lon="-3.997382">
        <ele>1938</ele>
        <time>2018-06-30T21:08:49.008Z</time>
      </trkpt>
      <trkpt lat="40.781731" lon="-3.997357">
        <ele>1939</ele>
        <time>2018-06-30T21:08:53.008Z</time>
      </trkpt>
      <trkpt lat="40.78168" lon="-3.997331">
        <ele>1939</ele>
        <time>2018-06-30T21:08:58.008Z</time>
      </trkpt>
      <trkpt lat="40.781628" lon="-3.997302">
        <ele>1939</ele>
        <time>2018-06-30T21:09:03.008Z</time>
      </trkpt>
      <trkpt lat="40.781576" lon="-3.997273">
        <ele>1939</ele>
        <time>2018-06-30T21:09:08.008Z</time>
      </trkpt>
      <trkpt lat="40.781528" lon="-3.99724">
        <ele>1940</ele>
        <time>2018-06-30T21:09:13.008Z</time>
      </trkpt>
      <trkpt lat="40.781478" lon="-3.997219">
        <ele>1940</ele>
        <time>2018-06-30T21:09:18.008Z</time>
      </trkpt>
      <trkpt lat="40.781427" lon="-3.99719">
        <ele>1941</ele>
        <time>2018-06-30T21:09:23.008Z</time>
      </trkpt>
      <trkpt lat="40.781372" lon="-3.997162">
        <ele>1941</ele>
        <time>2018-06-30T21:09:28.008Z</time>
      </trkpt>
      <trkpt lat="40.781327" lon="-3.997141">
        <ele>1942</ele>
        <time>2018-06-30T21:09:32.008Z</time>
      </trkpt>
      <trkpt lat="40.781276" lon="-3.997119">
        <ele>1942</ele>
        <time>2018-06-30T21:09:37.008Z</time>
      </trkpt>
      <trkpt lat="40.78123" lon="-3.997109">
        <ele>1942</ele>
        <time>2018-06-30T21:09:41.008Z</time>
      </trkpt>
      <trkpt lat="40.781173" lon="-3.997096">
        <ele>1942</ele>
        <time>2018-06-30T21:09:46.008Z</time>
      </trkpt>
      <trkpt lat="40.781116" lon="-3.997088">
        <ele>1942</ele>
        <time>2018-06-30T21:09:51.008Z</time>
      </trkpt>
      <trkpt lat="40.781062" lon="-3.997068">
        <ele>1942</ele>
        <time>2018-06-30T21:09:56.008Z</time>
      </trkpt>
      <trkpt lat="40.78101" lon="-3.997049">
        <ele>1943.15294649132</ele>
        <time>2018-06-30T21:10:01.008Z</time>
      </trkpt>
      <trkpt lat="40.780954" lon="-3.997032">
        <ele>1944</ele>
        <time>2018-06-30T21:10:06.008Z</time>
      </trkpt>
      <trkpt lat="40.780898" lon="-3.997016">
        <ele>1944.58217902087</ele>
        <time>2018-06-30T21:10:11.008Z</time>
      </trkpt>
      <trkpt lat="40.780852" lon="-3.99701">
        <ele>1945</ele>
        <time>2018-06-30T21:10:15.008Z</time>
      </trkpt>
      <trkpt lat="40.780795" lon="-3.996987">
        <ele>1945</ele>
        <time>2018-06-30T21:10:20.008Z</time>
      </trkpt>
      <trkpt lat="40.780749" lon="-3.996971">
        <ele>1946</ele>
        <time>2018-06-30T21:10:24.008Z</time>
      </trkpt>
      <trkpt lat="40.780703" lon="-3.996956">
        <ele>1946</ele>
        <time>2018-06-30T21:10:28.008Z</time>
      </trkpt>
      <trkpt lat="40.780657" lon="-3.996941">
        <ele>1947</ele>
        <time>2018-06-30T21:10:32.008Z</time>
      </trkpt>
      <trkpt lat="40.780609" lon="-3.996937">
        <ele>1947</ele>
        <time>2018-06-30T21:10:36.008Z</time>
      </trkpt>
      <trkpt lat="40.780563" lon="-3.996933">
        <ele>1947</ele>
        <time>2018-06-30T21:10:40.008Z</time>
      </trkpt>
      <trkpt lat="40.780508" lon="-3.99692">
        <ele>1947</ele>
        <time>2018-06-30T21:10:45.008Z</time>
      </trkpt>
      <trkpt lat="40.780451" lon="-3.996908">
        <ele>1947</ele>
        <time>2018-06-30T21:10:50.008Z</time>
      </trkpt>
      <trkpt lat="40.780398" lon="-3.996884">
        <ele>1948</ele>
        <time>2018-06-30T21:10:55.008Z</time>
      </trkpt>
      <trkpt lat="40.780342" lon="-3.99687">
        <ele>1949</ele>
        <time>2018-06-30T21:11:00.008Z</time>
      </trkpt>
      <trkpt lat="40.780284" lon="-3.996862">
        <ele>1950</ele>
        <time>2018-06-30T21:11:05.008Z</time>
      </trkpt>
      <trkpt lat="40.780233" lon="-3.996835">
        <ele>1950</ele>
        <time>2018-06-30T21:11:10.008Z</time>
      </trkpt>
      <trkpt lat="40.780177" lon="-3.996817">
        <ele>1951</ele>
        <time>2018-06-30T21:11:15.008Z</time>
      </trkpt>
      <trkpt lat="40.780122" lon="-3.996808">
        <ele>1951</ele>
        <time>2018-06-30T21:11:20.008Z</time>
      </trkpt>
      <trkpt lat="40.780064" lon="-3.996801">
        <ele>1952</ele>
        <time>2018-06-30T21:11:25.008Z</time>
      </trkpt>
      <trkpt lat="40.780006" lon="-3.996793">
        <ele>1952</ele>
        <time>2018-06-30T21:11:30.008Z</time>
      </trkpt>
      <trkpt lat="40.779948" lon="-3.996786">
        <ele>1953</ele>
        <time>2018-06-30T21:11:35.008Z</time>
      </trkpt>
      <trkpt lat="40.77989" lon="-3.99678">
        <ele>1953</ele>
        <time>2018-06-30T21:11:40.008Z</time>
      </trkpt>
      <trkpt lat="40.779836" lon="-3.996771">
        <ele>1953</ele>
        <time>2018-06-30T21:11:45.008Z</time>
      </trkpt>
      <trkpt lat="40.779769" lon="-3.996767">
        <ele>1953.53454816263</ele>
        <time>2018-06-30T21:11:51.008Z</time>
      </trkpt>
      <trkpt lat="40.779714" lon="-3.996768">
        <ele>1954</ele>
        <time>2018-06-30T21:11:56.008Z</time>
      </trkpt>
      <trkpt lat="40.779658" lon="-3.996762">
        <ele>1954.57647324566</ele>
        <time>2018-06-30T21:12:01.008Z</time>
      </trkpt>
      <trkpt lat="40.7796" lon="-3.99676">
        <ele>1955</ele>
        <time>2018-06-30T21:12:06.008Z</time>
      </trkpt>
      <trkpt lat="40.779542" lon="-3.996757">
        <ele>1955</ele>
        <time>2018-06-30T21:12:11.008Z</time>
      </trkpt>
      <trkpt lat="40.779485" lon="-3.996769">
        <ele>1955</ele>
        <time>2018-06-30T21:12:16.008Z</time>
      </trkpt>
      <trkpt lat="40.779452" lon="-3.996777">
        <ele>1955</ele>
        <time>2018-06-30T21:12:19.008Z</time>
      </trkpt>
      <trkpt lat="40.779421" lon="-3.996783">
        <ele>1956</ele>
        <time>2018-06-30T21:12:22.008Z</time>
      </trkpt>
      <trkpt lat="40.779387" lon="-3.996781">
        <ele>1956</ele>
        <time>2018-06-30T21:12:25.008Z</time>
      </trkpt>
      <trkpt lat="40.779358" lon="-3.996771">
        <ele>1956</ele>
        <time>2018-06-30T21:12:28.008Z</time>
      </trkpt>
      <trkpt lat="40.779334" lon="-3.996769">
        <ele>1956</ele>
        <time>2018-06-30T21:12:30.008Z</time>
      </trkpt>
      <trkpt lat="40.779301" lon="-3.996765">
        <ele>1957</ele>
        <time>2018-06-30T21:12:33.008Z</time>
      </trkpt>
      <trkpt lat="40.779258" lon="-3.996761">
        <ele>1957</ele>
        <time>2018-06-30T21:12:37.008Z</time>
      </trkpt>
      <trkpt lat="40.779205" lon="-3.996738">
        <ele>1958</ele>
        <time>2018-06-30T21:17:09.008Z</time>
      </trkpt>
      <trkpt lat="40.779152" lon="-3.996694">
        <ele>1959</ele>
        <time>2018-06-30T21:17:15.008Z</time>
      </trkpt>
      <trkpt lat="40.779111" lon="-3.996668">
        <ele>1959</ele>
        <time>2018-06-30T21:17:20.008Z</time>
      </trkpt>
      <trkpt lat="40.779078" lon="-3.996636">
        <ele>1961</ele>
        <time>2018-06-30T21:17:32.008Z</time>
      </trkpt>
      <trkpt lat="40.779032" lon="-3.996603">
        <ele>1961</ele>
        <time>2018-06-30T21:17:38.008Z</time>
      </trkpt>
      <trkpt lat="40.779002" lon="-3.996565">
        <ele>1961</ele>
        <time>2018-06-30T21:17:42.008Z</time>
      </trkpt>
      <trkpt lat="40.778975" lon="-3.9965">
        <ele>1961</ele>
        <time>2018-06-30T21:17:47.008Z</time>
      </trkpt>
      <trkpt lat="40.778951" lon="-3.996458">
        <ele>1962.06909632526</ele>
        <time>2018-06-30T21:17:51.008Z</time>
      </trkpt>
      <trkpt lat="40.778927" lon="-3.996408">
        <ele>1963</ele>
        <time>2018-06-30T21:17:56.008Z</time>
      </trkpt>
      <trkpt lat="40.778884" lon="-3.996371">
        <ele>1961.84705350868</ele>
        <time>2018-06-30T21:18:01.008Z</time>
      </trkpt>
      <trkpt lat="40.778887" lon="-3.996277">
        <ele>1961</ele>
        <time>2018-06-30T21:18:07.008Z</time>
      </trkpt>
      <trkpt lat="40.778938" lon="-3.996202">
        <ele>1961</ele>
        <time>2018-06-30T21:18:14.008Z</time>
      </trkpt>
      <trkpt lat="40.778992" lon="-3.996123">
        <ele>1959</ele>
        <time>2018-06-30T21:18:22.008Z</time>
      </trkpt>
      <trkpt lat="40.779025" lon="-3.996036">
        <ele>1959</ele>
        <time>2018-06-30T21:18:29.008Z</time>
      </trkpt>
      <trkpt lat="40.779054" lon="-3.995932">
        <ele>1955.416159187</ele>
        <time>2018-06-30T21:18:36.008Z</time>
      </trkpt>
      <trkpt lat="40.77908" lon="-3.99584">
        <ele>1955</ele>
        <time>2018-06-30T21:18:43.008Z</time>
      </trkpt>
      <trkpt lat="40.779098" lon="-3.995734">
        <ele>1953.93090367474</ele>
        <time>2018-06-30T21:18:51.008Z</time>
      </trkpt>
      <trkpt lat="40.779117" lon="-3.995633">
        <ele>1953</ele>
        <time>2018-06-30T21:18:57.008Z</time>
      </trkpt>
      <trkpt lat="40.779142" lon="-3.995525">
        <ele>1950</ele>
        <time>2018-06-30T21:19:04.008Z</time>
      </trkpt>
      <trkpt lat="40.779156" lon="-3.995413">
        <ele>1949</ele>
        <time>2018-06-30T21:19:12.008Z</time>
      </trkpt>
      <trkpt lat="40.779168" lon="-3.995304">
        <ele>1949</ele>
        <time>2018-06-30T21:19:19.008Z</time>
      </trkpt>
      <trkpt lat="40.779183" lon="-3.995219">
        <ele>1947</ele>
        <time>2018-06-30T21:19:25.008Z</time>
      </trkpt>
      <trkpt lat="40.779205" lon="-3.995146">
        <ele>1945.84705350868</ele>
        <time>2018-06-30T21:19:31.008Z</time>
      </trkpt>
      <trkpt lat="40.779218" lon="-3.995071">
        <ele>1945</ele>
        <time>2018-06-30T21:19:37.008Z</time>
      </trkpt>
      <trkpt lat="40.779247" lon="-3.994998">
        <ele>1943</ele>
        <time>2018-06-30T21:19:42.008Z</time>
      </trkpt>
      <trkpt lat="40.779268" lon="-3.994918">
        <ele>1943</ele>
        <time>2018-06-30T21:19:47.008Z</time>
      </trkpt>
      <trkpt lat="40.77929" lon="-3.994829">
        <ele>1940</ele>
        <time>2018-06-30T21:19:53.008Z</time>
      </trkpt>
      <trkpt lat="40.77931" lon="-3.994706">
        <ele>1938.42352675434</ele>
        <time>2018-06-30T21:20:01.008Z</time>
      </trkpt>
      <trkpt lat="40.779345" lon="-3.994597">
        <ele>1937.41782097913</ele>
        <time>2018-06-30T21:20:11.008Z</time>
      </trkpt>
      <trkpt lat="40.77938" lon="-3.994496">
        <ele>1937</ele>
        <time>2018-06-30T21:20:18.008Z</time>
      </trkpt>
      <trkpt lat="40.779419" lon="-3.994414">
        <ele>1935</ele>
        <time>2018-06-30T21:20:25.008Z</time>
      </trkpt>
      <trkpt lat="40.779455" lon="-3.994347">
        <ele>1934</ele>
        <time>2018-06-30T21:20:32.008Z</time>
      </trkpt>
      <trkpt lat="40.779481" lon="-3.994283">
        <ele>1934</ele>
        <time>2018-06-30T21:20:38.008Z</time>
      </trkpt>
      <trkpt lat="40.779511" lon="-3.994236">
        <ele>1933</ele>
        <time>2018-06-30T21:20:42.008Z</time>
      </trkpt>
      <trkpt lat="40.779538" lon="-3.994178">
        <ele>1933</ele>
        <time>2018-06-30T21:20:47.008Z</time>
      </trkpt>
      <trkpt lat="40.779553" lon="-3.994121">
        <ele>1931.93090367474</ele>
        <time>2018-06-30T21:20:51.008Z</time>
      </trkpt>
      <trkpt lat="40.779577" lon="-3.994066">
        <ele>1931</ele>
        <time>2018-06-30T21:20:57.008Z</time>
      </trkpt>
      <trkpt lat="40.779586" lon="-3.994">
        <ele>1928</ele>
        <time>2018-06-30T21:21:02.008Z</time>
      </trkpt>
      <trkpt lat="40.779628" lon="-3.993893">
        <ele>1928</ele>
        <time>2018-06-30T21:21:10.008Z</time>
      </trkpt>
      <trkpt lat="40.779664" lon="-3.993767">
        <ele>1927</ele>
        <time>2018-06-30T21:21:19.008Z</time>
      </trkpt>
      <trkpt lat="40.779695" lon="-3.993671">
        <ele>1926</ele>
        <time>2018-06-30T21:21:26.008Z</time>
      </trkpt>
      <trkpt lat="40.779704" lon="-3.993616">
        <ele>1924.84705350868</ele>
        <time>2018-06-30T21:21:31.008Z</time>
      </trkpt>
      <trkpt lat="40.779717" lon="-3.993524">
        <ele>1924</ele>
        <time>2018-06-30T21:21:38.008Z</time>
      </trkpt>
      <trkpt lat="40.77974" lon="-3.993436">
        <ele>1923</ele>
        <time>2018-06-30T21:21:45.008Z</time>
      </trkpt>
      <trkpt lat="40.77966" lon="-3.993429">
        <ele>1918</ele>
        <time>2018-06-30T21:21:57.008Z</time>
      </trkpt>
      <trkpt lat="40.779605" lon="-3.993494">
        <ele>1917</ele>
        <time>2018-06-30T21:22:04.008Z</time>
      </trkpt>
      <trkpt lat="40.779563" lon="-3.993561">
        <ele>1917</ele>
        <time>2018-06-30T21:22:10.008Z</time>
      </trkpt>
      <trkpt lat="40.779508" lon="-3.993618">
        <ele>1917</ele>
        <time>2018-06-30T21:22:16.008Z</time>
      </trkpt>
      <trkpt lat="40.779455" lon="-3.993675">
        <ele>1916</ele>
        <time>2018-06-30T21:22:22.008Z</time>
      </trkpt>
      <trkpt lat="40.779414" lon="-3.993749">
        <ele>1916</ele>
        <time>2018-06-30T21:22:30.008Z</time>
      </trkpt>
      <trkpt lat="40.77936" lon="-3.99382">
        <ele>1914</ele>
        <time>2018-06-30T21:22:36.008Z</time>
      </trkpt>
      <trkpt lat="40.779309" lon="-3.993884">
        <ele>1913.41782097913</ele>
        <time>2018-06-30T21:22:41.008Z</time>
      </trkpt>
      <trkpt lat="40.779254" lon="-3.993944">
        <ele>1914</ele>
        <time>2018-06-30T21:22:46.008Z</time>
      </trkpt>
      <trkpt lat="40.779211" lon="-3.993998">
        <ele>1912.93090367474</ele>
        <time>2018-06-30T21:22:51.008Z</time>
      </trkpt>
      <trkpt lat="40.779159" lon="-3.994046">
        <ele>1912</ele>
        <time>2018-06-30T21:22:56.008Z</time>
      </trkpt>
      <trkpt lat="40.7791" lon="-3.994101">
        <ele>1910</ele>
        <time>2018-06-30T21:23:04.008Z</time>
      </trkpt>
      <trkpt lat="40.779032" lon="-3.994127">
        <ele>1909</ele>
        <time>2018-06-30T21:23:13.008Z</time>
      </trkpt>
      <trkpt lat="40.778954" lon="-3.994179">
        <ele>1907.93090367474</ele>
        <time>2018-06-30T21:23:21.008Z</time>
      </trkpt>
      <trkpt lat="40.778905" lon="-3.994228">
        <ele>1907</ele>
        <time>2018-06-30T21:23:26.008Z</time>
      </trkpt>
      <trkpt lat="40.778864" lon="-3.994284">
        <ele>1906.42352675434</ele>
        <time>2018-06-30T21:23:31.008Z</time>
      </trkpt>
      <trkpt lat="40.778819" lon="-3.994349">
        <ele>1906</ele>
        <time>2018-06-30T21:23:36.008Z</time>
      </trkpt>
      <trkpt lat="40.77877" lon="-3.994448">
        <ele>1905.41782097913</ele>
        <time>2018-06-30T21:23:41.008Z</time>
      </trkpt>
      <trkpt lat="40.778703" lon="-3.994498">
        <ele>1905</ele>
        <time>2018-06-30T21:23:46.008Z</time>
      </trkpt>
      <trkpt lat="40.778648" lon="-3.994538">
        <ele>1905</ele>
        <time>2018-06-30T21:23:52.008Z</time>
      </trkpt>
      <trkpt lat="40.778589" lon="-3.994581">
        <ele>1905</ele>
        <time>2018-06-30T21:23:57.008Z</time>
      </trkpt>
      <trkpt lat="40.778531" lon="-3.994628">
        <ele>1903.84705350868</ele>
        <time>2018-06-30T21:24:01.008Z</time>
      </trkpt>
      <trkpt lat="40.778454" lon="-3.994682">
        <ele>1903</ele>
        <time>2018-06-30T21:24:07.008Z</time>
      </trkpt>
      <trkpt lat="40.778387" lon="-3.994734">
        <ele>1903</ele>
        <time>2018-06-30T21:24:12.008Z</time>
      </trkpt>
      <trkpt lat="40.778331" lon="-3.99478">
        <ele>1903</ele>
        <time>2018-06-30T21:24:17.008Z</time>
      </trkpt>
      <trkpt lat="40.77827" lon="-3.994864">
        <ele>1903</ele>
        <time>2018-06-30T21:24:25.008Z</time>
      </trkpt>
      <trkpt lat="40.77821" lon="-3.994938">
        <ele>1902</ele>
        <time>2018-06-30T21:24:32.008Z</time>
      </trkpt>
      <trkpt lat="40.778167" lon="-3.995004">
        <ele>1902</ele>
        <time>2018-06-30T21:24:37.008Z</time>
      </trkpt>
      <trkpt lat="40.778167" lon="-3.99487">
        <ele>1900</ele>
        <time>2018-06-30T21:24:55.008Z</time>
      </trkpt>
      <trkpt lat="40.778208" lon="-3.994751">
        <ele>1897.69410701737</ele>
        <time>2018-06-30T21:25:01.008Z</time>
      </trkpt>
      <trkpt lat="40.778238" lon="-3.994644">
        <ele>1896</ele>
        <time>2018-06-30T21:25:10.008Z</time>
      </trkpt>
      <trkpt lat="40.778152" lon="-3.994656">
        <ele>1895</ele>
        <time>2018-06-30T21:25:19.008Z</time>
      </trkpt>
      <trkpt lat="40.778062" lon="-3.994709">
        <ele>1890</ele>
        <time>2018-06-30T21:25:28.008Z</time>
      </trkpt>
      <trkpt lat="40.777953" lon="-3.994737">
        <ele>1888</ele>
        <time>2018-06-30T21:25:38.008Z</time>
      </trkpt>
      <trkpt lat="40.777873" lon="-3.994763">
        <ele>1883</ele>
        <time>2018-06-30T21:25:47.008Z</time>
      </trkpt>
      <trkpt lat="40.777799" lon="-3.994806">
        <ele>1882</ele>
        <time>2018-06-30T21:25:55.008Z</time>
      </trkpt>
      <trkpt lat="40.777732" lon="-3.994862">
        <ele>1878</ele>
        <time>2018-06-30T21:26:05.008Z</time>
      </trkpt>
      <trkpt lat="40.777668" lon="-3.994936">
        <ele>1878</ele>
        <time>2018-06-30T21:26:13.008Z</time>
      </trkpt>
      <trkpt lat="40.777595" lon="-3.994991">
        <ele>1876.93090367474</ele>
        <time>2018-06-30T21:26:21.008Z</time>
      </trkpt>
      <trkpt lat="40.777502" lon="-3.99505">
        <ele>1876</ele>
        <time>2018-06-30T21:26:30.008Z</time>
      </trkpt>
      <trkpt lat="40.77742" lon="-3.995122">
        <ele>1871</ele>
        <time>2018-06-30T21:26:38.008Z</time>
      </trkpt>
      <trkpt lat="40.777329" lon="-3.99518">
        <ele>1868.45777392195</ele>
        <time>2018-06-30T21:26:46.008Z</time>
      </trkpt>
      <trkpt lat="40.777248" lon="-3.995224">
        <ele>1867</ele>
        <time>2018-06-30T21:26:55.008Z</time>
      </trkpt>
      <trkpt lat="40.777195" lon="-3.995284">
        <ele>1865</ele>
        <time>2018-06-30T21:27:03.008Z</time>
      </trkpt>
      <trkpt lat="40.777129" lon="-3.995321">
        <ele>1865</ele>
        <time>2018-06-30T21:27:10.008Z</time>
      </trkpt>
      <trkpt lat="40.77705" lon="-3.995398">
        <ele>1864</ele>
        <time>2018-06-30T21:27:18.008Z</time>
      </trkpt>
      <trkpt lat="40.776983" lon="-3.995448">
        <ele>1862</ele>
        <time>2018-06-30T21:27:23.008Z</time>
      </trkpt>
      <trkpt lat="40.776891" lon="-3.995527">
        <ele>1862</ele>
        <time>2018-06-30T21:27:30.008Z</time>
      </trkpt>
      <trkpt lat="40.776799" lon="-3.995536">
        <ele>1860</ele>
        <time>2018-06-30T21:27:39.008Z</time>
      </trkpt>
      <trkpt lat="40.776726" lon="-3.99557">
        <ele>1858</ele>
        <time>2018-06-30T21:27:48.008Z</time>
      </trkpt>
      <trkpt lat="40.776655" lon="-3.995602">
        <ele>1856</ele>
        <time>2018-06-30T21:27:54.008Z</time>
      </trkpt>
      <trkpt lat="40.776567" lon="-3.995634">
        <ele>1852</ele>
        <time>2018-06-30T21:28:03.008Z</time>
      </trkpt>
      <trkpt lat="40.776499" lon="-3.9957">
        <ele>1851</ele>
        <time>2018-06-30T21:28:13.008Z</time>
      </trkpt>
      <trkpt lat="40.77641" lon="-3.995766">
        <ele>1849.93090367474</ele>
        <time>2018-06-30T21:28:21.008Z</time>
      </trkpt>
      <trkpt lat="40.776336" lon="-3.995852">
        <ele>1849</ele>
        <time>2018-06-30T21:28:28.008Z</time>
      </trkpt>
      <trkpt lat="40.776258" lon="-3.99592">
        <ele>1848</ele>
        <time>2018-06-30T21:28:35.008Z</time>
      </trkpt>
      <trkpt lat="40.776184" lon="-3.99599">
        <ele>1845</ele>
        <time>2018-06-30T21:28:42.008Z</time>
      </trkpt>
      <trkpt lat="40.776111" lon="-3.996068">
        <ele>1843</ele>
        <time>2018-06-30T21:28:50.008Z</time>
      </trkpt>
      <trkpt lat="40.776032" lon="-3.996137">
        <ele>1839</ele>
        <time>2018-06-30T21:29:04.008Z</time>
      </trkpt>
      <trkpt lat="40.775949" lon="-3.996169">
        <ele>1837</ele>
        <time>2018-06-30T21:29:12.008Z</time>
      </trkpt>
      <trkpt lat="40.775856" lon="-3.996235">
        <ele>1835.93090367474</ele>
        <time>2018-06-30T21:29:21.008Z</time>
      </trkpt>
      <trkpt lat="40.77578" lon="-3.996315">
        <ele>1835</ele>
        <time>2018-06-30T21:29:28.008Z</time>
      </trkpt>
      <trkpt lat="40.77571" lon="-3.996389">
        <ele>1831.416159187</ele>
        <time>2018-06-30T21:29:36.008Z</time>
      </trkpt>
      <trkpt lat="40.775616" lon="-3.996449">
        <ele>1829</ele>
        <time>2018-06-30T21:29:45.008Z</time>
      </trkpt>
      <trkpt lat="40.775544" lon="-3.996522">
        <ele>1828</ele>
        <time>2018-06-30T21:29:52.008Z</time>
      </trkpt>
      <trkpt lat="40.775468" lon="-3.996563">
        <ele>1828</ele>
        <time>2018-06-30T21:29:59.008Z</time>
      </trkpt>
      <trkpt lat="40.775397" lon="-3.996626">
        <ele>1824</ele>
        <time>2018-06-30T21:30:08.008Z</time>
      </trkpt>
      <trkpt lat="40.775327" lon="-3.996659">
        <ele>1823</ele>
        <time>2018-06-30T21:30:15.008Z</time>
      </trkpt>
      <trkpt lat="40.775256" lon="-3.996672">
        <ele>1821</ele>
        <time>2018-06-30T21:30:22.008Z</time>
      </trkpt>
      <trkpt lat="40.775182" lon="-3.996697">
        <ele>1821</ele>
        <time>2018-06-30T21:30:29.008Z</time>
      </trkpt>
      <trkpt lat="40.775134" lon="-3.996756">
        <ele>1819</ele>
        <time>2018-06-30T21:30:36.008Z</time>
      </trkpt>
      <trkpt lat="40.775075" lon="-3.996837">
        <ele>1818</ele>
        <time>2018-06-30T21:30:43.008Z</time>
      </trkpt>
      <trkpt lat="40.775028" lon="-3.996887">
        <ele>1818</ele>
        <time>2018-06-30T21:30:47.008Z</time>
      </trkpt>
      <trkpt lat="40.774971" lon="-3.99693">
        <ele>1817</ele>
        <time>2018-06-30T21:30:53.008Z</time>
      </trkpt>
      <trkpt lat="40.774916" lon="-3.996971">
        <ele>1817</ele>
        <time>2018-06-30T21:30:59.008Z</time>
      </trkpt>
      <trkpt lat="40.774854" lon="-3.997008">
        <ele>1815</ele>
        <time>2018-06-30T21:31:05.008Z</time>
      </trkpt>
      <trkpt lat="40.774801" lon="-3.997057">
        <ele>1814</ele>
        <time>2018-06-30T21:31:40.008Z</time>
      </trkpt>
      <trkpt lat="40.77473" lon="-3.997088">
        <ele>1813</ele>
        <time>2018-06-30T21:31:47.008Z</time>
      </trkpt>
      <trkpt lat="40.774644" lon="-3.997131">
        <ele>1811</ele>
        <time>2018-06-30T21:31:53.008Z</time>
      </trkpt>
      <trkpt lat="40.774536" lon="-3.997168">
        <ele>1811</ele>
        <time>2018-06-30T21:32:00.008Z</time>
      </trkpt>
      <trkpt lat="40.774444" lon="-3.997224">
        <ele>1808</ele>
        <time>2018-06-30T21:32:07.008Z</time>
      </trkpt>
      <trkpt lat="40.774369" lon="-3.997313">
        <ele>1807</ele>
        <time>2018-06-30T21:32:14.008Z</time>
      </trkpt>
      <trkpt lat="40.774268" lon="-3.99737">
        <ele>1804</ele>
        <time>2018-06-30T21:32:24.008Z</time>
      </trkpt>
      <trkpt lat="40.774165" lon="-3.997329">
        <ele>1801</ele>
        <time>2018-06-30T21:32:33.008Z</time>
      </trkpt>
      <trkpt lat="40.774058" lon="-3.997334">
        <ele>1799</ele>
        <time>2018-06-30T21:32:42.008Z</time>
      </trkpt>
      <trkpt lat="40.773963" lon="-3.997361">
        <ele>1799</ele>
        <time>2018-06-30T21:32:48.008Z</time>
      </trkpt>
      <trkpt lat="40.773875" lon="-3.997365">
        <ele>1796</ele>
        <time>2018-06-30T21:32:53.008Z</time>
      </trkpt>
      <trkpt lat="40.773772" lon="-3.997373">
        <ele>1793.89056066077</ele>
        <time>2018-06-30T21:33:01.008Z</time>
      </trkpt>
      <trkpt lat="40.773666" lon="-3.997375">
        <ele>1791</ele>
        <time>2018-06-30T21:33:13.008Z</time>
      </trkpt>
      <trkpt lat="40.773562" lon="-3.997385">
        <ele>1788</ele>
        <time>2018-06-30T21:33:23.008Z</time>
      </trkpt>
      <trkpt lat="40.773465" lon="-3.997356">
        <ele>1784</ele>
        <time>2018-06-30T21:33:35.008Z</time>
      </trkpt>
      <trkpt lat="40.773366" lon="-3.997282">
        <ele>1781</ele>
        <time>2018-06-30T21:33:45.008Z</time>
      </trkpt>
      <trkpt lat="40.773265" lon="-3.997243">
        <ele>1778</ele>
        <time>2018-06-30T21:33:53.008Z</time>
      </trkpt>
      <trkpt lat="40.773162" lon="-3.997225">
        <ele>1775</ele>
        <time>2018-06-30T21:34:03.008Z</time>
      </trkpt>
      <trkpt lat="40.773057" lon="-3.997212">
        <ele>1772</ele>
        <time>2018-06-30T21:34:14.008Z</time>
      </trkpt>
      <trkpt lat="40.772948" lon="-3.997181">
        <ele>1770</ele>
        <time>2018-06-30T21:34:22.008Z</time>
      </trkpt>
      <trkpt lat="40.772844" lon="-3.997147">
        <ele>1770</ele>
        <time>2018-06-30T21:34:30.008Z</time>
      </trkpt>
      <trkpt lat="40.772742" lon="-3.997147">
        <ele>1768</ele>
        <time>2018-06-30T21:34:39.008Z</time>
      </trkpt>
      <trkpt lat="40.772643" lon="-3.997138">
        <ele>1766</ele>
        <time>2018-06-30T21:34:49.008Z</time>
      </trkpt>
      <trkpt lat="40.772542" lon="-3.9971">
        <ele>1761</ele>
        <time>2018-06-30T21:34:59.008Z</time>
      </trkpt>
      <trkpt lat="40.77244" lon="-3.997111">
        <ele>1759</ele>
        <time>2018-06-30T21:35:09.008Z</time>
      </trkpt>
      <trkpt lat="40.772337" lon="-3.997122">
        <ele>1758</ele>
        <time>2018-06-30T21:35:18.008Z</time>
      </trkpt>
      <trkpt lat="40.772234" lon="-3.997086">
        <ele>1754</ele>
        <time>2018-06-30T21:35:28.008Z</time>
      </trkpt>
      <trkpt lat="40.772139" lon="-3.997072">
        <ele>1752</ele>
        <time>2018-06-30T21:35:35.008Z</time>
      </trkpt>
      <trkpt lat="40.772041" lon="-3.997078">
        <ele>1749</ele>
        <time>2018-06-30T21:35:43.008Z</time>
      </trkpt>
      <trkpt lat="40.771923" lon="-3.997072">
        <ele>1748</ele>
        <time>2018-06-30T21:35:50.008Z</time>
      </trkpt>
      <trkpt lat="40.771819" lon="-3.997104">
        <ele>1747</ele>
        <time>2018-06-30T21:35:55.008Z</time>
      </trkpt>
      <trkpt lat="40.771717" lon="-3.997147">
        <ele>1744</ele>
        <time>2018-06-30T21:36:03.008Z</time>
      </trkpt>
      <trkpt lat="40.77161" lon="-3.997107">
        <ele>1743</ele>
        <time>2018-06-30T21:36:12.008Z</time>
      </trkpt>
      <trkpt lat="40.77151" lon="-3.997081">
        <ele>1741.93090367474</ele>
        <time>2018-06-30T21:36:21.008Z</time>
      </trkpt>
      <trkpt lat="40.771406" lon="-3.997116">
        <ele>1739.27058026303</ele>
        <time>2018-06-30T21:36:31.008Z</time>
      </trkpt>
      <trkpt lat="40.771314" lon="-3.997187">
        <ele>1737</ele>
        <time>2018-06-30T21:36:39.008Z</time>
      </trkpt>
      <trkpt lat="40.771219" lon="-3.997229">
        <ele>1736</ele>
        <time>2018-06-30T21:36:46.008Z</time>
      </trkpt>
      <trkpt lat="40.771112" lon="-3.997296">
        <ele>1734</ele>
        <time>2018-06-30T21:36:53.008Z</time>
      </trkpt>
      <trkpt lat="40.771017" lon="-3.997359">
        <ele>1732</ele>
        <time>2018-06-30T21:37:00.008Z</time>
      </trkpt>
      <trkpt lat="40.770899" lon="-3.997422">
        <ele>1730</ele>
        <time>2018-06-30T21:37:09.008Z</time>
      </trkpt>
      <trkpt lat="40.7708" lon="-3.997445">
        <ele>1729</ele>
        <time>2018-06-30T21:37:15.008Z</time>
      </trkpt>
      <trkpt lat="40.770692" lon="-3.997476">
        <ele>1726</ele>
        <time>2018-06-30T21:37:22.008Z</time>
      </trkpt>
      <trkpt lat="40.770612" lon="-3.997528">
        <ele>1725</ele>
        <time>2018-06-30T21:37:29.008Z</time>
      </trkpt>
      <trkpt lat="40.770522" lon="-3.997584">
        <ele>1724</ele>
        <time>2018-06-30T21:37:39.008Z</time>
      </trkpt>
      <trkpt lat="40.77044" lon="-3.99766">
        <ele>1722</ele>
        <time>2018-06-30T21:37:48.008Z</time>
      </trkpt>
      <trkpt lat="40.770328" lon="-3.997691">
        <ele>1718.47766814137</ele>
        <time>2018-06-30T21:37:56.008Z</time>
      </trkpt>
      <trkpt lat="40.770247" lon="-3.997751">
        <ele>1715</ele>
        <time>2018-06-30T21:38:02.008Z</time>
      </trkpt>
      <trkpt lat="40.770172" lon="-3.997812">
        <ele>1715</ele>
        <time>2018-06-30T21:38:10.008Z</time>
      </trkpt>
      <trkpt lat="40.770082" lon="-3.997878">
        <ele>1714</ele>
        <time>2018-06-30T21:38:19.008Z</time>
      </trkpt>
      <trkpt lat="40.76999" lon="-3.99796">
        <ele>1712</ele>
        <time>2018-06-30T21:38:27.008Z</time>
      </trkpt>
      <trkpt lat="40.76993" lon="-3.998073">
        <ele>1707.832318374</ele>
        <time>2018-06-30T21:38:36.008Z</time>
      </trkpt>
      <trkpt lat="40.769837" lon="-3.998169">
        <ele>1706</ele>
        <time>2018-06-30T21:38:43.008Z</time>
      </trkpt>
      <trkpt lat="40.769756" lon="-3.998249">
        <ele>1703</ele>
        <time>2018-06-30T21:38:54.008Z</time>
      </trkpt>
      <trkpt lat="40.769749" lon="-3.998116">
        <ele>1699</ele>
        <time>2018-06-30T21:39:05.008Z</time>
      </trkpt>
      <trkpt lat="40.769768" lon="-3.997973">
        <ele>1697</ele>
        <time>2018-06-30T21:39:12.008Z</time>
      </trkpt>
      <trkpt lat="40.769752" lon="-3.997839">
        <ele>1697</ele>
        <time>2018-06-30T21:39:18.008Z</time>
      </trkpt>
      <trkpt lat="40.769792" lon="-3.997691">
        <ele>1695</ele>
        <time>2018-06-30T21:39:25.008Z</time>
      </trkpt>
      <trkpt lat="40.769843" lon="-3.997571">
        <ele>1694</ele>
        <time>2018-06-30T21:39:32.008Z</time>
      </trkpt>
      <trkpt lat="40.769855" lon="-3.997434">
        <ele>1694</ele>
        <time>2018-06-30T21:39:38.008Z</time>
      </trkpt>
      <trkpt lat="40.769889" lon="-3.997297">
        <ele>1692</ele>
        <time>2018-06-30T21:39:44.008Z</time>
      </trkpt>
      <trkpt lat="40.769922" lon="-3.997165">
        <ele>1692</ele>
        <time>2018-06-30T21:39:50.008Z</time>
      </trkpt>
      <trkpt lat="40.769979" lon="-3.997038">
        <ele>1688</ele>
        <time>2018-06-30T21:39:57.008Z</time>
      </trkpt>
      <trkpt lat="40.770012" lon="-3.996906">
        <ele>1686</ele>
        <time>2018-06-30T21:40:03.008Z</time>
      </trkpt>
      <trkpt lat="40.770066" lon="-3.996791">
        <ele>1684</ele>
        <time>2018-06-30T21:40:12.008Z</time>
      </trkpt>
      <trkpt lat="40.770116" lon="-3.996694">
        <ele>1683</ele>
        <time>2018-06-30T21:40:18.008Z</time>
      </trkpt>
      <trkpt lat="40.770019" lon="-3.99671">
        <ele>1682</ele>
        <time>2018-06-30T21:40:28.008Z</time>
      </trkpt>
      <trkpt lat="40.76991" lon="-3.996745">
        <ele>1680</ele>
        <time>2018-06-30T21:40:35.008Z</time>
      </trkpt>
      <trkpt lat="40.769825" lon="-3.996794">
        <ele>1678.89056066077</ele>
        <time>2018-06-30T21:40:41.008Z</time>
      </trkpt>
      <trkpt lat="40.769724" lon="-3.996855">
        <ele>1678</ele>
        <time>2018-06-30T21:40:48.008Z</time>
      </trkpt>
      <trkpt lat="40.769619" lon="-3.996881">
        <ele>1674</ele>
        <time>2018-06-30T21:40:57.008Z</time>
      </trkpt>
      <trkpt lat="40.769511" lon="-3.996952">
        <ele>1671.28748</ele>
        <time>2018-06-30T21:41:06.008Z</time>
      </trkpt>
      <trkpt lat="40.76941" lon="-3.997036">
        <ele>1669</ele>
        <time>2018-06-30T21:41:15.008Z</time>
      </trkpt>
      <trkpt lat="40.769309" lon="-3.997126">
        <ele>1667</ele>
        <time>2018-06-30T21:41:22.008Z</time>
      </trkpt>
      <trkpt lat="40.76924" lon="-3.997231">
        <ele>1665</ele>
        <time>2018-06-30T21:41:30.008Z</time>
      </trkpt>
      <trkpt lat="40.769158" lon="-3.997313">
        <ele>1663.47766814137</ele>
        <time>2018-06-30T21:41:36.008Z</time>
      </trkpt>
      <trkpt lat="40.76907" lon="-3.997246">
        <ele>1657</ele>
        <time>2018-06-30T21:41:54.008Z</time>
      </trkpt>
      <trkpt lat="40.769071" lon="-3.997115">
        <ele>1654.89056066077</ele>
        <time>2018-06-30T21:42:01.008Z</time>
      </trkpt>
      <trkpt lat="40.769054" lon="-3.996975">
        <ele>1654</ele>
        <time>2018-06-30T21:42:09.008Z</time>
      </trkpt>
      <trkpt lat="40.769035" lon="-3.99684">
        <ele>1654</ele>
        <time>2018-06-30T21:42:15.008Z</time>
      </trkpt>
      <trkpt lat="40.769071" lon="-3.996709">
        <ele>1651</ele>
        <time>2018-06-30T21:42:20.008Z</time>
      </trkpt>
      <trkpt lat="40.769068" lon="-3.996587">
        <ele>1649</ele>
        <time>2018-06-30T21:42:27.008Z</time>
      </trkpt>
      <trkpt lat="40.769082" lon="-3.996475">
        <ele>1649</ele>
        <time>2018-06-30T21:42:34.008Z</time>
      </trkpt>
      <trkpt lat="40.769114" lon="-3.996363">
        <ele>1647</ele>
        <time>2018-06-30T21:42:40.008Z</time>
      </trkpt>
      <trkpt lat="40.769157" lon="-3.996249">
        <ele>1646</ele>
        <time>2018-06-30T21:42:48.008Z</time>
      </trkpt>
      <trkpt lat="40.769199" lon="-3.996179">
        <ele>1646</ele>
        <time>2018-06-30T21:42:55.008Z</time>
      </trkpt>
      <trkpt lat="40.769244" lon="-3.996072">
        <ele>1643</ele>
        <time>2018-06-30T21:43:03.008Z</time>
      </trkpt>
      <trkpt lat="40.769272" lon="-3.995978">
        <ele>1643</ele>
        <time>2018-06-30T21:43:10.008Z</time>
      </trkpt>
      <trkpt lat="40.769307" lon="-3.995884">
        <ele>1643</ele>
        <time>2018-06-30T21:43:19.008Z</time>
      </trkpt>
      <trkpt lat="40.769344" lon="-3.995772">
        <ele>1639</ele>
        <time>2018-06-30T21:43:28.008Z</time>
      </trkpt>
      <trkpt lat="40.7694" lon="-3.995704">
        <ele>1638</ele>
        <time>2018-06-30T21:43:35.008Z</time>
      </trkpt>
      <trkpt lat="40.769429" lon="-3.995613">
        <ele>1637.41782097913</ele>
        <time>2018-06-30T21:43:41.008Z</time>
      </trkpt>
      <trkpt lat="40.769451" lon="-3.995478">
        <ele>1637</ele>
        <time>2018-06-30T21:43:50.008Z</time>
      </trkpt>
      <trkpt lat="40.769502" lon="-3.99536">
        <ele>1635</ele>
        <time>2018-06-30T21:43:57.008Z</time>
      </trkpt>
      <trkpt lat="40.769568" lon="-3.995247">
        <ele>1634</ele>
        <time>2018-06-30T21:44:06.008Z</time>
      </trkpt>
      <trkpt lat="40.769609" lon="-3.995122">
        <ele>1632</ele>
        <time>2018-06-30T21:44:16.008Z</time>
      </trkpt>
      <trkpt lat="40.769553" lon="-3.995013">
        <ele>1629</ele>
        <time>2018-06-30T21:44:39.008Z</time>
      </trkpt>
      <trkpt lat="40.76945" lon="-3.995016">
        <ele>1626</ele>
        <time>2018-06-30T21:44:45.008Z</time>
      </trkpt>
      <trkpt lat="40.769346" lon="-3.995021">
        <ele>1622</ele>
        <time>2018-06-30T21:44:57.008Z</time>
      </trkpt>
      <trkpt lat="40.769235" lon="-3.995032">
        <ele>1620</ele>
        <time>2018-06-30T21:45:08.008Z</time>
      </trkpt>
      <trkpt lat="40.769134" lon="-3.995044">
        <ele>1619</ele>
        <time>2018-06-30T21:45:18.008Z</time>
      </trkpt>
      <trkpt lat="40.769033" lon="-3.995059">
        <ele>1616</ele>
        <time>2018-06-30T21:45:27.008Z</time>
      </trkpt>
      <trkpt lat="40.768927" lon="-3.995067">
        <ele>1615</ele>
        <time>2018-06-30T21:45:41.008Z</time>
      </trkpt>
      <trkpt lat="40.768827" lon="-3.99512">
        <ele>1614</ele>
        <time>2018-06-30T21:45:49.008Z</time>
      </trkpt>
      <trkpt lat="40.768719" lon="-3.995163">
        <ele>1612.26121313445</ele>
        <time>2018-06-30T21:45:56.008Z</time>
      </trkpt>
      <trkpt lat="40.768614" lon="-3.995188">
        <ele>1609</ele>
        <time>2018-06-30T21:46:04.008Z</time>
      </trkpt>
      <trkpt lat="40.768507" lon="-3.995185">
        <ele>1608</ele>
        <time>2018-06-30T21:46:11.008Z</time>
      </trkpt>
      <trkpt lat="40.768408" lon="-3.995169">
        <ele>1606</ele>
        <time>2018-06-30T21:46:20.008Z</time>
      </trkpt>
      <trkpt lat="40.768305" lon="-3.995191">
        <ele>1602</ele>
        <time>2018-06-30T21:46:32.008Z</time>
      </trkpt>
      <trkpt lat="40.768192" lon="-3.995276">
        <ele>1601</ele>
        <time>2018-06-30T21:46:40.008Z</time>
      </trkpt>
      <trkpt lat="40.768086" lon="-3.995314">
        <ele>1599</ele>
        <time>2018-06-30T21:46:47.008Z</time>
      </trkpt>
      <trkpt lat="40.767983" lon="-3.995358">
        <ele>1599</ele>
        <time>2018-06-30T21:46:55.008Z</time>
      </trkpt>
      <trkpt lat="40.767865" lon="-3.995279">
        <ele>1594</ele>
        <time>2018-06-30T21:47:11.008Z</time>
      </trkpt>
      <trkpt lat="40.767773" lon="-3.99523">
        <ele>1594</ele>
        <time>2018-06-30T21:47:14.008Z</time>
      </trkpt>
      <trkpt lat="40.76767" lon="-3.995222">
        <ele>1592</ele>
        <time>2018-06-30T21:47:19.008Z</time>
      </trkpt>
      <trkpt lat="40.767542" lon="-3.99517">
        <ele>1590.44314074892</ele>
        <time>2018-06-30T21:47:26.008Z</time>
      </trkpt>
      <trkpt lat="40.767454" lon="-3.99513">
        <ele>1589</ele>
        <time>2018-06-30T21:47:35.008Z</time>
      </trkpt>
      <trkpt lat="40.767358" lon="-3.995066">
        <ele>1587</ele>
        <time>2018-06-30T21:47:47.008Z</time>
      </trkpt>
      <trkpt lat="40.767263" lon="-3.995015">
        <ele>1585</ele>
        <time>2018-06-30T21:48:05.008Z</time>
      </trkpt>
      <trkpt lat="40.767232" lon="-3.994918">
        <ele>1583</ele>
        <time>2018-06-30T21:48:16.008Z</time>
      </trkpt>
      <trkpt lat="40.767135" lon="-3.99488">
        <ele>1582</ele>
        <time>2018-06-30T21:48:27.008Z</time>
      </trkpt>
      <trkpt lat="40.767052" lon="-3.994806">
        <ele>1581</ele>
        <time>2018-06-30T21:48:35.008Z</time>
      </trkpt>
      <trkpt lat="40.766963" lon="-3.994733">
        <ele>1580</ele>
        <time>2018-06-30T21:48:42.008Z</time>
      </trkpt>
      <trkpt lat="40.766887" lon="-3.994649">
        <ele>1579</ele>
        <time>2018-06-30T21:48:55.008Z</time>
      </trkpt>
      <trkpt lat="40.766799" lon="-3.994729">
        <ele>1576</ele>
        <time>2018-06-30T21:49:05.008Z</time>
      </trkpt>
      <trkpt lat="40.76672" lon="-3.994821">
        <ele>1576</ele>
        <time>2018-06-30T21:49:18.008Z</time>
      </trkpt>
      <trkpt lat="40.766602" lon="-3.99484">
        <ele>1575</ele>
        <time>2018-06-30T21:49:26.008Z</time>
      </trkpt>
      <trkpt lat="40.766503" lon="-3.994862">
        <ele>1575</ele>
        <time>2018-06-30T21:49:30.008Z</time>
      </trkpt>
      <trkpt lat="40.766404" lon="-3.994897">
        <ele>1573</ele>
        <time>2018-06-30T21:49:35.008Z</time>
      </trkpt>
      <trkpt lat="40.766299" lon="-3.994912">
        <ele>1571</ele>
        <time>2018-06-30T21:49:43.008Z</time>
      </trkpt>
      <trkpt lat="40.766197" lon="-3.994937">
        <ele>1569</ele>
        <time>2018-06-30T21:49:53.008Z</time>
      </trkpt>
      <trkpt lat="40.766093" lon="-3.994952">
        <ele>1566</ele>
        <time>2018-06-30T21:50:02.008Z</time>
      </trkpt>
      <trkpt lat="40.766002" lon="-3.99496">
        <ele>1566</ele>
        <time>2018-06-30T21:50:08.008Z</time>
      </trkpt>
      <trkpt lat="40.765922" lon="-3.994981">
        <ele>1565</ele>
        <time>2018-06-30T21:50:13.008Z</time>
      </trkpt>
      <trkpt lat="40.765817" lon="-3.994967">
        <ele>1563</ele>
        <time>2018-06-30T21:50:22.008Z</time>
      </trkpt>
      <trkpt lat="40.765726" lon="-3.994898">
        <ele>1561</ele>
        <time>2018-06-30T21:50:33.008Z</time>
      </trkpt>
      <trkpt lat="40.765644" lon="-3.994841">
        <ele>1560</ele>
        <time>2018-06-30T21:50:42.008Z</time>
      </trkpt>
      <trkpt lat="40.765551" lon="-3.994793">
        <ele>1559</ele>
        <time>2018-06-30T21:50:58.008Z</time>
      </trkpt>
      <trkpt lat="40.765443" lon="-3.99479">
        <ele>1556</ele>
        <time>2018-06-30T21:51:06.008Z</time>
      </trkpt>
      <trkpt lat="40.765329" lon="-3.994823">
        <ele>1556</ele>
        <time>2018-06-30T21:51:16.008Z</time>
      </trkpt>
      <trkpt lat="40.765241" lon="-3.994787">
        <ele>1553</ele>
        <time>2018-06-30T21:51:23.008Z</time>
      </trkpt>
      <trkpt lat="40.765154" lon="-3.994766">
        <ele>1552</ele>
        <time>2018-06-30T21:51:27.008Z</time>
      </trkpt>
      <trkpt lat="40.765065" lon="-3.994778">
        <ele>1551</ele>
        <time>2018-06-30T21:51:32.008Z</time>
      </trkpt>
      <trkpt lat="40.764991" lon="-3.994765">
        <ele>1551</ele>
        <time>2018-06-30T21:51:36.008Z</time>
      </trkpt>
      <trkpt lat="40.76491" lon="-3.99473">
        <ele>1549</ele>
        <time>2018-06-30T21:51:43.008Z</time>
      </trkpt>
      <trkpt lat="40.764825" lon="-3.994753">
        <ele>1547.51763491056</ele>
        <time>2018-06-30T21:51:51.008Z</time>
      </trkpt>
      <trkpt lat="40.764717" lon="-3.994781">
        <ele>1545</ele>
        <time>2018-06-30T21:52:00.008Z</time>
      </trkpt>
      <trkpt lat="40.764604" lon="-3.994789">
        <ele>1543</ele>
        <time>2018-06-30T21:52:08.008Z</time>
      </trkpt>
      <trkpt lat="40.764502" lon="-3.994824">
        <ele>1542</ele>
        <time>2018-06-30T21:52:14.008Z</time>
      </trkpt>
      <trkpt lat="40.76438" lon="-3.994836">
        <ele>1542</ele>
        <time>2018-06-30T21:52:20.008Z</time>
      </trkpt>
      <trkpt lat="40.764299" lon="-3.994797">
        <ele>1541</ele>
        <time>2018-06-30T21:52:24.008Z</time>
      </trkpt>
      <trkpt lat="40.76422" lon="-3.994802">
        <ele>1541</ele>
        <time>2018-06-30T21:52:28.008Z</time>
      </trkpt>
      <trkpt lat="40.764139" lon="-3.994833">
        <ele>1538</ele>
        <time>2018-06-30T21:52:33.008Z</time>
      </trkpt>
      <trkpt lat="40.76404" lon="-3.994892">
        <ele>1536</ele>
        <time>2018-06-30T21:52:42.008Z</time>
      </trkpt>
      <trkpt lat="40.763925" lon="-3.994915">
        <ele>1536</ele>
        <time>2018-06-30T21:52:50.008Z</time>
      </trkpt>
      <trkpt lat="40.76382" lon="-3.994894">
        <ele>1533</ele>
        <time>2018-06-30T21:53:02.008Z</time>
      </trkpt>
      <trkpt lat="40.763713" lon="-3.994931">
        <ele>1533</ele>
        <time>2018-06-30T21:53:08.008Z</time>
      </trkpt>
      <trkpt lat="40.763627" lon="-3.994945">
        <ele>1532</ele>
        <time>2018-06-30T21:53:14.008Z</time>
      </trkpt>
      <trkpt lat="40.763542" lon="-3.994917">
        <ele>1530.01386459838</ele>
        <time>2018-06-30T21:53:21.008Z</time>
      </trkpt>
      <trkpt lat="40.763443" lon="-3.994919">
        <ele>1529</ele>
        <time>2018-06-30T21:53:28.008Z</time>
      </trkpt>
      <trkpt lat="40.763341" lon="-3.994915">
        <ele>1528</ele>
        <time>2018-06-30T21:53:33.008Z</time>
      </trkpt>
      <trkpt lat="40.763241" lon="-3.994955">
        <ele>1527</ele>
        <time>2018-06-30T21:53:38.008Z</time>
      </trkpt>
      <trkpt lat="40.763138" lon="-3.995004">
        <ele>1527</ele>
        <time>2018-06-30T21:53:44.008Z</time>
      </trkpt>
      <trkpt lat="40.76305" lon="-3.995036">
        <ele>1527</ele>
        <time>2018-06-30T21:53:49.008Z</time>
      </trkpt>
      <trkpt lat="40.762954" lon="-3.995045">
        <ele>1525</ele>
        <time>2018-06-30T21:53:54.008Z</time>
      </trkpt>
      <trkpt lat="40.762869" lon="-3.99503">
        <ele>1525</ele>
        <time>2018-06-30T21:53:58.008Z</time>
      </trkpt>
      <trkpt lat="40.7628" lon="-3.994994">
        <ele>1523.32942224676</ele>
        <time>2018-06-30T21:54:02.008Z</time>
      </trkpt>
      <trkpt lat="40.762707" lon="-3.994996">
        <ele>1521</ele>
        <time>2018-06-30T21:54:08.008Z</time>
      </trkpt>
      <trkpt lat="40.762626" lon="-3.994982">
        <ele>1519.48234969317</ele>
        <time>2018-06-30T21:54:12.008Z</time>
      </trkpt>
      <trkpt lat="40.762533" lon="-3.994987">
        <ele>1519</ele>
        <time>2018-06-30T21:54:18.008Z</time>
      </trkpt>
      <trkpt lat="40.762457" lon="-3.995008">
        <ele>1519</ele>
        <time>2018-06-30T21:54:22.008Z</time>
      </trkpt>
      <trkpt lat="40.762387" lon="-3.994994">
        <ele>1519</ele>
        <time>2018-06-30T21:54:26.008Z</time>
      </trkpt>
      <trkpt lat="40.762342" lon="-3.994976">
        <ele>1519</ele>
        <time>2018-06-30T21:54:29.008Z</time>
      </trkpt>
      <trkpt lat="40.76227" lon="-3.994995">
        <ele>1517</ele>
        <time>2018-06-30T21:54:35.008Z</time>
      </trkpt>
      <trkpt lat="40.762191" lon="-3.995002">
        <ele>1515</ele>
        <time>2018-06-30T21:54:44.008Z</time>
      </trkpt>
      <trkpt lat="40.762105" lon="-3.994935">
        <ele>1514</ele>
        <time>2018-06-30T21:54:55.008Z</time>
      </trkpt>
      <trkpt lat="40.762017" lon="-3.994865">
        <ele>1511</ele>
        <time>2018-06-30T21:55:02.008Z</time>
      </trkpt>
      <trkpt lat="40.761914" lon="-3.994828">
        <ele>1511</ele>
        <time>2018-06-30T21:55:06.008Z</time>
      </trkpt>
      <trkpt lat="40.761826" lon="-3.994783">
        <ele>1511</ele>
        <time>2018-06-30T21:55:10.008Z</time>
      </trkpt>
      <trkpt lat="40.761754" lon="-3.994747">
        <ele>1509</ele>
        <time>2018-06-30T21:55:14.008Z</time>
      </trkpt>
      <trkpt lat="40.761672" lon="-3.994712">
        <ele>1508</ele>
        <time>2018-06-30T21:55:19.008Z</time>
      </trkpt>
      <trkpt lat="40.761572" lon="-3.994697">
        <ele>1506</ele>
        <time>2018-06-30T21:55:32.008Z</time>
      </trkpt>
      <trkpt lat="40.761455" lon="-3.994717">
        <ele>1506</ele>
        <time>2018-06-30T21:55:38.008Z</time>
      </trkpt>
      <trkpt lat="40.761355" lon="-3.994705">
        <ele>1504</ele>
        <time>2018-06-30T21:55:43.008Z</time>
      </trkpt>
      <trkpt lat="40.761259" lon="-3.994677">
        <ele>1504</ele>
        <time>2018-06-30T21:55:50.008Z</time>
      </trkpt>
      <trkpt lat="40.76115" lon="-3.994658">
        <ele>1503</ele>
        <time>2018-06-30T21:55:56.008Z</time>
      </trkpt>
      <trkpt lat="40.761058" lon="-3.994626">
        <ele>1503</ele>
        <time>2018-06-30T21:56:00.008Z</time>
      </trkpt>
      <trkpt lat="40.76095" lon="-3.994606">
        <ele>1499</ele>
        <time>2018-06-30T21:56:05.008Z</time>
      </trkpt>
      <trkpt lat="40.760844" lon="-3.994558">
        <ele>1497.45869913043</ele>
        <time>2018-06-30T21:56:11.008Z</time>
      </trkpt>
      <trkpt lat="40.76074" lon="-3.994524">
        <ele>1497</ele>
        <time>2018-06-30T21:56:16.008Z</time>
      </trkpt>
      <trkpt lat="40.760633" lon="-3.994454">
        <ele>1496</ele>
        <time>2018-06-30T21:56:22.008Z</time>
      </trkpt>
      <trkpt lat="40.760537" lon="-3.994413">
        <ele>1496</ele>
        <time>2018-06-30T21:56:27.008Z</time>
      </trkpt>
      <trkpt lat="40.760417" lon="-3.994402">
        <ele>1494</ele>
        <time>2018-06-30T21:56:33.008Z</time>
      </trkpt>
      <trkpt lat="40.760306" lon="-3.994399">
        <ele>1494</ele>
        <time>2018-06-30T21:56:37.008Z</time>
      </trkpt>
      <trkpt lat="40.760197" lon="-3.994425">
        <ele>1491</ele>
        <time>2018-06-30T21:56:42.008Z</time>
      </trkpt>
      <trkpt lat="40.760078" lon="-3.994487">
        <ele>1489</ele>
        <time>2018-06-30T21:56:48.008Z</time>
      </trkpt>
      <trkpt lat="40.759983" lon="-3.994546">
        <ele>1488</ele>
        <time>2018-06-30T21:56:53.008Z</time>
      </trkpt>
      <trkpt lat="40.759882" lon="-3.994544">
        <ele>1488</ele>
        <time>2018-06-30T21:56:58.008Z</time>
      </trkpt>
      <trkpt lat="40.759777" lon="-3.994538">
        <ele>1485</ele>
        <time>2018-06-30T21:57:03.008Z</time>
      </trkpt>
      <trkpt lat="40.75967" lon="-3.99455">
        <ele>1485</ele>
        <time>2018-06-30T21:57:09.008Z</time>
      </trkpt>
      <trkpt lat="40.759555" lon="-3.994511">
        <ele>1484</ele>
        <time>2018-06-30T21:57:15.008Z</time>
      </trkpt>
      <trkpt lat="40.759447" lon="-3.994496">
        <ele>1484</ele>
        <time>2018-06-30T21:57:20.008Z</time>
      </trkpt>
      <trkpt lat="40.75933" lon="-3.994485">
        <ele>1481</ele>
        <time>2018-06-30T21:57:25.008Z</time>
      </trkpt>
      <trkpt lat="40.759212" lon="-3.994488">
        <ele>1481</ele>
        <time>2018-06-30T21:57:30.008Z</time>
      </trkpt>
      <trkpt lat="40.759105" lon="-3.994486">
        <ele>1480</ele>
        <time>2018-06-30T21:57:35.008Z</time>
      </trkpt>
      <trkpt lat="40.758986" lon="-3.994477">
        <ele>1480</ele>
        <time>2018-06-30T21:57:40.008Z</time>
      </trkpt>
      <trkpt lat="40.758867" lon="-3.994428">
        <ele>1479</ele>
        <time>2018-06-30T21:57:46.008Z</time>
      </trkpt>
      <trkpt lat="40.758759" lon="-3.9944">
        <ele>1478.19068881348</ele>
        <time>2018-06-30T21:57:51.008Z</time>
      </trkpt>
      <trkpt lat="40.758655" lon="-3.99439">
        <ele>1477</ele>
        <time>2018-06-30T21:57:57.008Z</time>
      </trkpt>
      <trkpt lat="40.758548" lon="-3.994377">
        <ele>1475.32942224676</ele>
        <time>2018-06-30T21:58:02.008Z</time>
      </trkpt>
      <trkpt lat="40.758442" lon="-3.994354">
        <ele>1474</ele>
        <time>2018-06-30T21:58:07.008Z</time>
      </trkpt>
      <trkpt lat="40.758349" lon="-3.99434">
        <ele>1474</ele>
        <time>2018-06-30T21:58:11.008Z</time>
      </trkpt>
      <trkpt lat="40.758237" lon="-3.994326">
        <ele>1473</ele>
        <time>2018-06-30T21:58:17.008Z</time>
      </trkpt>
      <trkpt lat="40.758143" lon="-3.99431">
        <ele>1471.66470278207</ele>
        <time>2018-06-30T21:58:22.008Z</time>
      </trkpt>
      <trkpt lat="40.758058" lon="-3.994272">
        <ele>1470.46451772737</ele>
        <time>2018-06-30T21:58:25.008Z</time>
      </trkpt>
      <trkpt lat="40.757992" lon="-3.994217">
        <ele>1470</ele>
        <time>2018-06-30T21:58:28.008Z</time>
      </trkpt>
      <trkpt lat="40.757932" lon="-3.994136">
        <ele>1469.44314074892</ele>
        <time>2018-06-30T21:58:32.008Z</time>
      </trkpt>
      <trkpt lat="40.757894" lon="-3.994032">
        <ele>1469</ele>
        <time>2018-06-30T21:58:37.008Z</time>
      </trkpt>
      <trkpt lat="40.757868" lon="-3.993914">
        <ele>1467</ele>
        <time>2018-06-30T21:58:44.008Z</time>
      </trkpt>
      <trkpt lat="40.757841" lon="-3.993786">
        <ele>1466</ele>
        <time>2018-06-30T21:58:58.008Z</time>
      </trkpt>
      <trkpt lat="40.757822" lon="-3.993658">
        <ele>1461</ele>
        <time>2018-06-30T21:59:04.008Z</time>
      </trkpt>
      <trkpt lat="40.757773" lon="-3.993545">
        <ele>1461</ele>
        <time>2018-06-30T21:59:09.008Z</time>
      </trkpt>
      <trkpt lat="40.757714" lon="-3.993512">
        <ele>1459.43883980166</ele>
        <time>2018-06-30T21:59:12.008Z</time>
      </trkpt>
      <trkpt lat="40.757648" lon="-3.993487">
        <ele>1458.49306770081</ele>
        <time>2018-06-30T21:59:15.008Z</time>
      </trkpt>
      <trkpt lat="40.75759" lon="-3.993467">
        <ele>1457.48234969317</ele>
        <time>2018-06-30T21:59:18.008Z</time>
      </trkpt>
      <trkpt lat="40.757535" lon="-3.993443">
        <ele>1457</ele>
        <time>2018-06-30T21:59:21.008Z</time>
      </trkpt>
      <trkpt lat="40.757482" lon="-3.993412">
        <ele>1457</ele>
        <time>2018-06-30T21:59:24.008Z</time>
      </trkpt>
      <trkpt lat="40.757424" lon="-3.993391">
        <ele>1456</ele>
        <time>2018-06-30T21:59:27.008Z</time>
      </trkpt>
      <trkpt lat="40.757371" lon="-3.993375">
        <ele>1456</ele>
        <time>2018-06-30T21:59:30.008Z</time>
      </trkpt>
      <trkpt lat="40.75733" lon="-3.993339">
        <ele>1455</ele>
        <time>2018-06-30T21:59:34.008Z</time>
      </trkpt>
      <trkpt lat="40.757273" lon="-3.993323">
        <ele>1454.45869913043</ele>
        <time>2018-06-30T21:59:41.008Z</time>
      </trkpt>
      <trkpt lat="40.757152" lon="-3.993286">
        <ele>1453</ele>
        <time>2018-06-30T21:59:48.008Z</time>
      </trkpt>
      <trkpt lat="40.757045" lon="-3.993282">
        <ele>1451</ele>
        <time>2018-06-30T21:59:53.008Z</time>
      </trkpt>
      <trkpt lat="40.756924" lon="-3.993274">
        <ele>1451</ele>
        <time>2018-06-30T21:59:58.008Z</time>
      </trkpt>
      <trkpt lat="40.756814" lon="-3.993291">
        <ele>1448</ele>
        <time>2018-06-30T22:00:03.008Z</time>
      </trkpt>
      <trkpt lat="40.756729" lon="-3.993316">
        <ele>1448</ele>
        <time>2018-06-30T22:00:07.008Z</time>
      </trkpt>
      <trkpt lat="40.756642" lon="-3.993353">
        <ele>1447.44528033038</ele>
        <time>2018-06-30T22:00:11.008Z</time>
      </trkpt>
      <trkpt lat="40.756548" lon="-3.993406">
        <ele>1447</ele>
        <time>2018-06-30T22:00:16.008Z</time>
      </trkpt>
      <trkpt lat="40.756459" lon="-3.993481">
        <ele>1445</ele>
        <time>2018-06-30T22:00:22.008Z</time>
      </trkpt>
      <trkpt lat="40.756354" lon="-3.993549">
        <ele>1445</ele>
        <time>2018-06-30T22:00:28.008Z</time>
      </trkpt>
      <trkpt lat="40.756249" lon="-3.993602">
        <ele>1444</ele>
        <time>2018-06-30T22:00:33.008Z</time>
      </trkpt>
      <trkpt lat="40.756128" lon="-3.993656">
        <ele>1444</ele>
        <time>2018-06-30T22:00:38.008Z</time>
      </trkpt>
      <trkpt lat="40.756023" lon="-3.993703">
        <ele>1442</ele>
        <time>2018-06-30T22:00:43.008Z</time>
      </trkpt>
      <trkpt lat="40.755913" lon="-3.993756">
        <ele>1442</ele>
        <time>2018-06-30T22:00:49.008Z</time>
      </trkpt>
      <trkpt lat="40.755823" lon="-3.993815">
        <ele>1440</ele>
        <time>2018-06-30T22:00:55.008Z</time>
      </trkpt>
      <trkpt lat="40.755715" lon="-3.993876">
        <ele>1440</ele>
        <time>2018-06-30T22:01:00.008Z</time>
      </trkpt>
      <trkpt lat="40.755628" lon="-3.99395">
        <ele>1437</ele>
        <time>2018-06-30T22:01:06.008Z</time>
      </trkpt>
      <trkpt lat="40.755518" lon="-3.994004">
        <ele>1435</ele>
        <time>2018-06-30T22:01:13.008Z</time>
      </trkpt>
      <trkpt lat="40.75541" lon="-3.994034">
        <ele>1435</ele>
        <time>2018-06-30T22:01:17.008Z</time>
      </trkpt>
      <trkpt lat="40.755306" lon="-3.994094">
        <ele>1434.33778017977</ele>
        <time>2018-06-30T22:01:21.008Z</time>
      </trkpt>
      <trkpt lat="40.755226" lon="-3.994166">
        <ele>1433</ele>
        <time>2018-06-30T22:01:25.008Z</time>
      </trkpt>
      <trkpt lat="40.755138" lon="-3.994212">
        <ele>1433</ele>
        <time>2018-06-30T22:01:29.008Z</time>
      </trkpt>
      <trkpt lat="40.755057" lon="-3.994242">
        <ele>1431</ele>
        <time>2018-06-30T22:01:33.008Z</time>
      </trkpt>
      <trkpt lat="40.754956" lon="-3.994277">
        <ele>1429</ele>
        <time>2018-06-30T22:01:39.008Z</time>
      </trkpt>
      <trkpt lat="40.754853" lon="-3.994299">
        <ele>1428</ele>
        <time>2018-06-30T22:01:44.008Z</time>
      </trkpt>
      <trkpt lat="40.754752" lon="-3.994337">
        <ele>1426.48602337008</ele>
        <time>2018-06-30T22:01:52.008Z</time>
      </trkpt>
      <trkpt lat="40.754634" lon="-3.994328">
        <ele>1425</ele>
        <time>2018-06-30T22:01:59.008Z</time>
      </trkpt>
      <trkpt lat="40.754513" lon="-3.994321">
        <ele>1424</ele>
        <time>2018-06-30T22:02:04.008Z</time>
      </trkpt>
      <trkpt lat="40.754412" lon="-3.994334">
        <ele>1424</ele>
        <time>2018-06-30T22:02:08.008Z</time>
      </trkpt>
      <trkpt lat="40.754317" lon="-3.994335">
        <ele>1423</ele>
        <time>2018-06-30T22:02:13.008Z</time>
      </trkpt>
      <trkpt lat="40.754205" lon="-3.994326">
        <ele>1422</ele>
        <time>2018-06-30T22:02:19.008Z</time>
      </trkpt>
      <trkpt lat="40.754101" lon="-3.994302">
        <ele>1421</ele>
        <time>2018-06-30T22:02:24.008Z</time>
      </trkpt>
      <trkpt lat="40.75398" lon="-3.994265">
        <ele>1420</ele>
        <time>2018-06-30T22:02:30.008Z</time>
      </trkpt>
      <trkpt lat="40.753887" lon="-3.994238">
        <ele>1419</ele>
        <time>2018-06-30T22:02:34.008Z</time>
      </trkpt>
      <trkpt lat="40.753794" lon="-3.994187">
        <ele>1419</ele>
        <time>2018-06-30T22:02:41.008Z</time>
      </trkpt>
      <trkpt lat="40.753709" lon="-3.994115">
        <ele>1417.50707230037</ele>
        <time>2018-06-30T22:02:46.008Z</time>
      </trkpt>
      <trkpt lat="40.753622" lon="-3.994077">
        <ele>1417</ele>
        <time>2018-06-30T22:02:50.008Z</time>
      </trkpt>
      <trkpt lat="40.753559" lon="-3.994022">
        <ele>1417</ele>
        <time>2018-06-30T22:02:53.008Z</time>
      </trkpt>
      <trkpt lat="40.753506" lon="-3.993957">
        <ele>1416</ele>
        <time>2018-06-30T22:02:56.008Z</time>
      </trkpt>
      <trkpt lat="40.753457" lon="-3.993905">
        <ele>1415.48302178428</ele>
        <time>2018-06-30T22:02:59.008Z</time>
      </trkpt>
      <trkpt lat="40.753427" lon="-3.993871">
        <ele>1414.42352675434</ele>
        <time>2018-06-30T22:03:01.008Z</time>
      </trkpt>
      <trkpt lat="40.753387" lon="-3.993807">
        <ele>1414</ele>
        <time>2018-06-30T22:03:04.008Z</time>
      </trkpt>
      <trkpt lat="40.753346" lon="-3.993756">
        <ele>1414</ele>
        <time>2018-06-30T22:03:07.008Z</time>
      </trkpt>
      <trkpt lat="40.75326" lon="-3.99368">
        <ele>1412.43368185615</ele>
        <time>2018-06-30T22:03:12.008Z</time>
      </trkpt>
      <trkpt lat="40.753207" lon="-3.993638">
        <ele>1412</ele>
        <time>2018-06-30T22:03:15.008Z</time>
      </trkpt>
      <trkpt lat="40.753161" lon="-3.99359">
        <ele>1411</ele>
        <time>2018-06-30T22:03:18.008Z</time>
      </trkpt>
      <trkpt lat="40.753105" lon="-3.993552">
        <ele>1410</ele>
        <time>2018-06-30T22:03:21.008Z</time>
      </trkpt>
      <trkpt lat="40.753041" lon="-3.9935">
        <ele>1410</ele>
        <time>2018-06-30T22:03:25.008Z</time>
      </trkpt>
      <trkpt lat="40.752947" lon="-3.993446">
        <ele>1409</ele>
        <time>2018-06-30T22:03:30.008Z</time>
      </trkpt>
      <trkpt lat="40.752889" lon="-3.99338">
        <ele>1409</ele>
        <time>2018-06-30T22:03:34.008Z</time>
      </trkpt>
      <trkpt lat="40.752808" lon="-3.993322">
        <ele>1406</ele>
        <time>2018-06-30T22:03:39.008Z</time>
      </trkpt>
      <trkpt lat="40.752735" lon="-3.993296">
        <ele>1405</ele>
        <time>2018-06-30T22:03:42.008Z</time>
      </trkpt>
      <trkpt lat="40.752665" lon="-3.993261">
        <ele>1405</ele>
        <time>2018-06-30T22:03:45.008Z</time>
      </trkpt>
      <trkpt lat="40.752598" lon="-3.993233">
        <ele>1404</ele>
        <time>2018-06-30T22:03:48.008Z</time>
      </trkpt>
      <trkpt lat="40.752521" lon="-3.993206">
        <ele>1404</ele>
        <time>2018-06-30T22:03:52.008Z</time>
      </trkpt>
      <trkpt lat="40.752424" lon="-3.993199">
        <ele>1402</ele>
        <time>2018-06-30T22:03:57.008Z</time>
      </trkpt>
      <trkpt lat="40.752313" lon="-3.993202">
        <ele>1400</ele>
        <time>2018-06-30T22:04:02.008Z</time>
      </trkpt>
      <trkpt lat="40.752208" lon="-3.993201">
        <ele>1400</ele>
        <time>2018-06-30T22:04:07.008Z</time>
      </trkpt>
      <trkpt lat="40.7521" lon="-3.993204">
        <ele>1399</ele>
        <time>2018-06-30T22:04:12.008Z</time>
      </trkpt>
      <trkpt lat="40.752" lon="-3.993209">
        <ele>1397.9155478439</ele>
        <time>2018-06-30T22:04:16.008Z</time>
      </trkpt>
      <trkpt lat="40.75189" lon="-3.993236">
        <ele>1396.66154192396</ele>
        <time>2018-06-30T22:04:21.008Z</time>
      </trkpt>
      <trkpt lat="40.751796" lon="-3.993257">
        <ele>1396</ele>
        <time>2018-06-30T22:04:25.008Z</time>
      </trkpt>
      <trkpt lat="40.751693" lon="-3.993261">
        <ele>1396</ele>
        <time>2018-06-30T22:04:30.008Z</time>
      </trkpt>
      <trkpt lat="40.751601" lon="-3.993265">
        <ele>1394</ele>
        <time>2018-06-30T22:04:34.008Z</time>
      </trkpt>
      <trkpt lat="40.751517" lon="-3.993276">
        <ele>1394</ele>
        <time>2018-06-30T22:04:38.008Z</time>
      </trkpt>
      <trkpt lat="40.751417" lon="-3.993278">
        <ele>1393</ele>
        <time>2018-06-30T22:04:43.008Z</time>
      </trkpt>
      <trkpt lat="40.751331" lon="-3.9933">
        <ele>1393</ele>
        <time>2018-06-30T22:04:47.008Z</time>
      </trkpt>
      <trkpt lat="40.751254" lon="-3.993305">
        <ele>1393</ele>
        <time>2018-06-30T22:04:50.008Z</time>
      </trkpt>
      <trkpt lat="40.751163" lon="-3.9933">
        <ele>1391</ele>
        <time>2018-06-30T22:04:54.008Z</time>
      </trkpt>
      <trkpt lat="40.75108" lon="-3.9933">
        <ele>1391</ele>
        <time>2018-06-30T22:04:58.008Z</time>
      </trkpt>
      <trkpt lat="40.750995" lon="-3.993292">
        <ele>1387</ele>
        <time>2018-06-30T22:05:03.008Z</time>
      </trkpt>
      <trkpt lat="40.750913" lon="-3.993277">
        <ele>1387</ele>
        <time>2018-06-30T22:05:11.008Z</time>
      </trkpt>
      <trkpt lat="40.750866" lon="-3.993274">
        <ele>1385</ele>
        <time>2018-06-30T22:05:41.008Z</time>
      </trkpt>
      <trkpt lat="40.75082" lon="-3.993257">
        <ele>1385</ele>
        <time>2018-06-30T22:05:47.008Z</time>
      </trkpt>
      <trkpt lat="40.750783" lon="-3.993204">
        <ele>1384.48302178428</ele>
        <time>2018-06-30T22:05:51.008Z</time>
      </trkpt>
      <trkpt lat="40.750751" lon="-3.993164">
        <ele>1384</ele>
        <time>2018-06-30T22:05:53.008Z</time>
      </trkpt>
      <trkpt lat="40.750718" lon="-3.993129">
        <ele>1384</ele>
        <time>2018-06-30T22:05:55.008Z</time>
      </trkpt>
      <trkpt lat="40.750684" lon="-3.993105">
        <ele>1384</ele>
        <time>2018-06-30T22:05:57.008Z</time>
      </trkpt>
      <trkpt lat="40.750632" lon="-3.993081">
        <ele>1384</ele>
        <time>2018-06-30T22:06:00.008Z</time>
      </trkpt>
      <trkpt lat="40.750582" lon="-3.993057">
        <ele>1381</ele>
        <time>2018-06-30T22:06:03.008Z</time>
      </trkpt>
      <trkpt lat="40.750524" lon="-3.993039">
        <ele>1380.43368185615</ele>
        <time>2018-06-30T22:06:06.008Z</time>
      </trkpt>
      <trkpt lat="40.750454" lon="-3.993026">
        <ele>1380</ele>
        <time>2018-06-30T22:06:09.008Z</time>
      </trkpt>
      <trkpt lat="40.750383" lon="-3.993024">
        <ele>1379</ele>
        <time>2018-06-30T22:06:15.008Z</time>
      </trkpt>
      <trkpt lat="40.750328" lon="-3.993015">
        <ele>1379</ele>
        <time>2018-06-30T22:06:17.008Z</time>
      </trkpt>
      <trkpt lat="40.750277" lon="-3.993003">
        <ele>1379</ele>
        <time>2018-06-30T22:06:19.008Z</time>
      </trkpt>
      <trkpt lat="40.750229" lon="-3.992991">
        <ele>1378.03860232198</ele>
        <time>2018-06-30T22:06:21.008Z</time>
      </trkpt>
      <trkpt lat="40.750184" lon="-3.992976">
        <ele>1377</ele>
        <time>2018-06-30T22:06:23.008Z</time>
      </trkpt>
      <trkpt lat="40.75014" lon="-3.992965">
        <ele>1377</ele>
        <time>2018-06-30T22:06:25.008Z</time>
      </trkpt>
      <trkpt lat="40.750095" lon="-3.992956">
        <ele>1377</ele>
        <time>2018-06-30T22:06:27.008Z</time>
      </trkpt>
      <trkpt lat="40.750052" lon="-3.992947">
        <ele>1377</ele>
        <time>2018-06-30T22:06:29.008Z</time>
      </trkpt>
      <trkpt lat="40.75001" lon="-3.992935">
        <ele>1375.90092590377</ele>
        <time>2018-06-30T22:06:31.008Z</time>
      </trkpt>
      <trkpt lat="40.749965" lon="-3.992924">
        <ele>1375</ele>
        <time>2018-06-30T22:06:33.008Z</time>
      </trkpt>
      <trkpt lat="40.749921" lon="-3.992915">
        <ele>1375</ele>
        <time>2018-06-30T22:06:35.008Z</time>
      </trkpt>
      <trkpt lat="40.749878" lon="-3.992907">
        <ele>1375</ele>
        <time>2018-06-30T22:06:37.008Z</time>
      </trkpt>
      <trkpt lat="40.749815" lon="-3.992892">
        <ele>1374</ele>
        <time>2018-06-30T22:06:40.008Z</time>
      </trkpt>
      <trkpt lat="40.749756" lon="-3.992874">
        <ele>1372</ele>
        <time>2018-06-30T22:06:43.008Z</time>
      </trkpt>
      <trkpt lat="40.749691" lon="-3.992859">
        <ele>1372</ele>
        <time>2018-06-30T22:06:46.008Z</time>
      </trkpt>
      <trkpt lat="40.749629" lon="-3.992842">
        <ele>1372</ele>
        <time>2018-06-30T22:06:49.008Z</time>
      </trkpt>
      <trkpt lat="40.749587" lon="-3.992833">
        <ele>1370.39635551211</ele>
        <time>2018-06-30T22:06:51.008Z</time>
      </trkpt>
      <trkpt lat="40.749543" lon="-3.992822">
        <ele>1369</ele>
        <time>2018-06-30T22:06:53.008Z</time>
      </trkpt>
      <trkpt lat="40.749501" lon="-3.992808">
        <ele>1369</ele>
        <time>2018-06-30T22:06:55.008Z</time>
      </trkpt>
      <trkpt lat="40.749461" lon="-3.992792">
        <ele>1368</ele>
        <time>2018-06-30T22:06:57.008Z</time>
      </trkpt>
      <trkpt lat="40.749419" lon="-3.992778">
        <ele>1368</ele>
        <time>2018-06-30T22:06:59.008Z</time>
      </trkpt>
      <trkpt lat="40.749377" lon="-3.992762">
        <ele>1367.42352675434</ele>
        <time>2018-06-30T22:07:01.008Z</time>
      </trkpt>
      <trkpt lat="40.749335" lon="-3.992742">
        <ele>1367</ele>
        <time>2018-06-30T22:07:03.008Z</time>
      </trkpt>
      <trkpt lat="40.749296" lon="-3.992722">
        <ele>1367</ele>
        <time>2018-06-30T22:07:05.008Z</time>
      </trkpt>
      <trkpt lat="40.749257" lon="-3.992702">
        <ele>1367</ele>
        <time>2018-06-30T22:07:07.008Z</time>
      </trkpt>
      <trkpt lat="40.749217" lon="-3.992682">
        <ele>1367</ele>
        <time>2018-06-30T22:07:09.008Z</time>
      </trkpt>
      <trkpt lat="40.749177" lon="-3.992664">
        <ele>1367</ele>
        <time>2018-06-30T22:07:11.008Z</time>
      </trkpt>
      <trkpt lat="40.749137" lon="-3.992645">
        <ele>1365</ele>
        <time>2018-06-30T22:07:13.008Z</time>
      </trkpt>
      <trkpt lat="40.7491" lon="-3.992622">
        <ele>1365</ele>
        <time>2018-06-30T22:07:15.008Z</time>
      </trkpt>
      <trkpt lat="40.749061" lon="-3.992599">
        <ele>1365</ele>
        <time>2018-06-30T22:07:17.008Z</time>
      </trkpt>
      <trkpt lat="40.749021" lon="-3.99258">
        <ele>1364</ele>
        <time>2018-06-30T22:07:19.008Z</time>
      </trkpt>
      <trkpt lat="40.748982" lon="-3.992556">
        <ele>1363.38</ele>
        <time>2018-06-30T22:07:21.008Z</time>
      </trkpt>
      <trkpt lat="40.748924" lon="-3.992524">
        <ele>1362</ele>
        <time>2018-06-30T22:07:24.008Z</time>
      </trkpt>
      <trkpt lat="40.748883" lon="-3.992504">
        <ele>1362</ele>
        <time>2018-06-30T22:07:26.008Z</time>
      </trkpt>
      <trkpt lat="40.748844" lon="-3.992486">
        <ele>1362</ele>
        <time>2018-06-30T22:07:28.008Z</time>
      </trkpt>
      <trkpt lat="40.748804" lon="-3.992468">
        <ele>1362</ele>
        <time>2018-06-30T22:07:30.008Z</time>
      </trkpt>
      <trkpt lat="40.748765" lon="-3.99245">
        <ele>1361</ele>
        <time>2018-06-30T22:07:32.008Z</time>
      </trkpt>
      <trkpt lat="40.748726" lon="-3.992433">
        <ele>1361</ele>
        <time>2018-06-30T22:07:34.008Z</time>
      </trkpt>
      <trkpt lat="40.748688" lon="-3.992417">
        <ele>1359.92963555556</ele>
        <time>2018-06-30T22:07:36.008Z</time>
      </trkpt>
      <trkpt lat="40.748649" lon="-3.992402">
        <ele>1359</ele>
        <time>2018-06-30T22:07:38.008Z</time>
      </trkpt>
      <trkpt lat="40.748609" lon="-3.992388">
        <ele>1359</ele>
        <time>2018-06-30T22:07:40.008Z</time>
      </trkpt>
      <trkpt lat="40.748566" lon="-3.992374">
        <ele>1358</ele>
        <time>2018-06-30T22:07:42.008Z</time>
      </trkpt>
      <trkpt lat="40.748524" lon="-3.992362">
        <ele>1358</ele>
        <time>2018-06-30T22:07:44.008Z</time>
      </trkpt>
      <trkpt lat="40.748481" lon="-3.99235">
        <ele>1357.48085459844</ele>
        <time>2018-06-30T22:07:46.008Z</time>
      </trkpt>
      <trkpt lat="40.74844" lon="-3.992338">
        <ele>1357</ele>
        <time>2018-06-30T22:07:48.008Z</time>
      </trkpt>
      <trkpt lat="40.748398" lon="-3.992328">
        <ele>1357</ele>
        <time>2018-06-30T22:07:50.008Z</time>
      </trkpt>
      <trkpt lat="40.748356" lon="-3.992314">
        <ele>1356</ele>
        <time>2018-06-30T22:07:52.008Z</time>
      </trkpt>
      <trkpt lat="40.748315" lon="-3.9923">
        <ele>1356</ele>
        <time>2018-06-30T22:07:54.008Z</time>
      </trkpt>
      <trkpt lat="40.748271" lon="-3.992287">
        <ele>1355</ele>
        <time>2018-06-30T22:07:56.008Z</time>
      </trkpt>
      <trkpt lat="40.748231" lon="-3.992276">
        <ele>1355</ele>
        <time>2018-06-30T22:07:58.008Z</time>
      </trkpt>
      <trkpt lat="40.748189" lon="-3.992266">
        <ele>1355</ele>
        <time>2018-06-30T22:08:00.008Z</time>
      </trkpt>
      <trkpt lat="40.748146" lon="-3.992255">
        <ele>1352</ele>
        <time>2018-06-30T22:08:02.008Z</time>
      </trkpt>
      <trkpt lat="40.748105" lon="-3.992241">
        <ele>1352</ele>
        <time>2018-06-30T22:08:04.008Z</time>
      </trkpt>
      <trkpt lat="40.748044" lon="-3.992225">
        <ele>1352</ele>
        <time>2018-06-30T22:08:07.008Z</time>
      </trkpt>
      <trkpt lat="40.748002" lon="-3.992213">
        <ele>1352</ele>
        <time>2018-06-30T22:08:09.008Z</time>
      </trkpt>
      <trkpt lat="40.747957" lon="-3.992199">
        <ele>1351.44528033038</ele>
        <time>2018-06-30T22:08:11.008Z</time>
      </trkpt>
      <trkpt lat="40.747911" lon="-3.992185">
        <ele>1351</ele>
        <time>2018-06-30T22:08:13.008Z</time>
      </trkpt>
      <trkpt lat="40.747865" lon="-3.99217">
        <ele>1351</ele>
        <time>2018-06-30T22:08:15.008Z</time>
      </trkpt>
      <trkpt lat="40.7478" lon="-3.992147">
        <ele>1351</ele>
        <time>2018-06-30T22:08:18.008Z</time>
      </trkpt>
      <trkpt lat="40.747757" lon="-3.992135">
        <ele>1351</ele>
        <time>2018-06-30T22:08:20.008Z</time>
      </trkpt>
      <trkpt lat="40.747713" lon="-3.992121">
        <ele>1349</ele>
        <time>2018-06-30T22:08:22.008Z</time>
      </trkpt>
      <trkpt lat="40.74767" lon="-3.992106">
        <ele>1349</ele>
        <time>2018-06-30T22:08:24.008Z</time>
      </trkpt>
      <trkpt lat="40.747607" lon="-3.992085">
        <ele>1349</ele>
        <time>2018-06-30T22:08:27.008Z</time>
      </trkpt>
      <trkpt lat="40.747567" lon="-3.992069">
        <ele>1348</ele>
        <time>2018-06-30T22:08:29.008Z</time>
      </trkpt>
      <trkpt lat="40.747524" lon="-3.992052">
        <ele>1346.92903545475</ele>
        <time>2018-06-30T22:08:31.008Z</time>
      </trkpt>
      <trkpt lat="40.74748" lon="-3.992035">
        <ele>1346</ele>
        <time>2018-06-30T22:08:33.008Z</time>
      </trkpt>
      <trkpt lat="40.747436" lon="-3.992024">
        <ele>1346</ele>
        <time>2018-06-30T22:08:35.008Z</time>
      </trkpt>
      <trkpt lat="40.747392" lon="-3.992011">
        <ele>1346</ele>
        <time>2018-06-30T22:08:37.008Z</time>
      </trkpt>
      <trkpt lat="40.747344" lon="-3.992003">
        <ele>1346</ele>
        <time>2018-06-30T22:08:39.008Z</time>
      </trkpt>
      <trkpt lat="40.7473" lon="-3.991994">
        <ele>1344.3760973913</ele>
        <time>2018-06-30T22:08:41.008Z</time>
      </trkpt>
      <trkpt lat="40.747255" lon="-3.99199">
        <ele>1343</ele>
        <time>2018-06-30T22:08:43.008Z</time>
      </trkpt>
      <trkpt lat="40.747212" lon="-3.991991">
        <ele>1343</ele>
        <time>2018-06-30T22:08:45.008Z</time>
      </trkpt>
      <trkpt lat="40.747166" lon="-3.991996">
        <ele>1342</ele>
        <time>2018-06-30T22:08:47.008Z</time>
      </trkpt>
      <trkpt lat="40.747118" lon="-3.99201">
        <ele>1342</ele>
        <time>2018-06-30T22:08:49.008Z</time>
      </trkpt>
      <trkpt lat="40.747069" lon="-3.992027">
        <ele>1341.5257158879</ele>
        <time>2018-06-30T22:08:51.008Z</time>
      </trkpt>
      <trkpt lat="40.747023" lon="-3.992044">
        <ele>1341</ele>
        <time>2018-06-30T22:08:53.008Z</time>
      </trkpt>
      <trkpt lat="40.746975" lon="-3.992058">
        <ele>1341</ele>
        <time>2018-06-30T22:08:55.008Z</time>
      </trkpt>
      <trkpt lat="40.746929" lon="-3.992075">
        <ele>1341</ele>
        <time>2018-06-30T22:08:57.008Z</time>
      </trkpt>
      <trkpt lat="40.746883" lon="-3.992094">
        <ele>1341</ele>
        <time>2018-06-30T22:08:59.008Z</time>
      </trkpt>
      <trkpt lat="40.746838" lon="-3.992113">
        <ele>1339.3090866777</ele>
        <time>2018-06-30T22:09:01.008Z</time>
      </trkpt>
      <trkpt lat="40.746796" lon="-3.992127">
        <ele>1338</ele>
        <time>2018-06-30T22:09:03.008Z</time>
      </trkpt>
      <trkpt lat="40.746731" lon="-3.992154">
        <ele>1338</ele>
        <time>2018-06-30T22:09:06.008Z</time>
      </trkpt>
      <trkpt lat="40.746688" lon="-3.992172">
        <ele>1338</ele>
        <time>2018-06-30T22:09:08.008Z</time>
      </trkpt>
      <trkpt lat="40.746648" lon="-3.992192">
        <ele>1338</ele>
        <time>2018-06-30T22:09:10.008Z</time>
      </trkpt>
      <trkpt lat="40.746605" lon="-3.992211">
        <ele>1337</ele>
        <time>2018-06-30T22:09:12.008Z</time>
      </trkpt>
      <trkpt lat="40.746564" lon="-3.992227">
        <ele>1337</ele>
        <time>2018-06-30T22:09:14.008Z</time>
      </trkpt>
      <trkpt lat="40.746523" lon="-3.992247">
        <ele>1337</ele>
        <time>2018-06-30T22:09:16.008Z</time>
      </trkpt>
      <trkpt lat="40.746481" lon="-3.992264">
        <ele>1337</ele>
        <time>2018-06-30T22:09:18.008Z</time>
      </trkpt>
      <trkpt lat="40.74644" lon="-3.992282">
        <ele>1337</ele>
        <time>2018-06-30T22:09:20.008Z</time>
      </trkpt>
      <trkpt lat="40.746381" lon="-3.992313">
        <ele>1336</ele>
        <time>2018-06-30T22:09:23.008Z</time>
      </trkpt>
      <trkpt lat="40.746338" lon="-3.99233">
        <ele>1336</ele>
        <time>2018-06-30T22:09:25.008Z</time>
      </trkpt>
      <trkpt lat="40.746296" lon="-3.992344">
        <ele>1336</ele>
        <time>2018-06-30T22:09:27.008Z</time>
      </trkpt>
      <trkpt lat="40.746254" lon="-3.99236">
        <ele>1336</ele>
        <time>2018-06-30T22:09:29.008Z</time>
      </trkpt>
      <trkpt lat="40.746213" lon="-3.992376">
        <ele>1334.42352675434</ele>
        <time>2018-06-30T22:09:31.008Z</time>
      </trkpt>
      <trkpt lat="40.746169" lon="-3.992394">
        <ele>1334</ele>
        <time>2018-06-30T22:09:33.008Z</time>
      </trkpt>
      <trkpt lat="40.746125" lon="-3.992413">
        <ele>1334</ele>
        <time>2018-06-30T22:09:35.008Z</time>
      </trkpt>
      <trkpt lat="40.746081" lon="-3.992436">
        <ele>1333</ele>
        <time>2018-06-30T22:09:37.008Z</time>
      </trkpt>
      <trkpt lat="40.746038" lon="-3.992459">
        <ele>1333</ele>
        <time>2018-06-30T22:09:39.008Z</time>
      </trkpt>
      <trkpt lat="40.745997" lon="-3.99248">
        <ele>1332.45869913043</ele>
        <time>2018-06-30T22:09:41.008Z</time>
      </trkpt>
      <trkpt lat="40.745952" lon="-3.992501">
        <ele>1332</ele>
        <time>2018-06-30T22:09:43.008Z</time>
      </trkpt>
      <trkpt lat="40.745912" lon="-3.992526">
        <ele>1332</ele>
        <time>2018-06-30T22:09:45.008Z</time>
      </trkpt>
      <trkpt lat="40.745871" lon="-3.992544">
        <ele>1332</ele>
        <time>2018-06-30T22:09:47.008Z</time>
      </trkpt>
      <trkpt lat="40.745829" lon="-3.992557">
        <ele>1332</ele>
        <time>2018-06-30T22:09:49.008Z</time>
      </trkpt>
      <trkpt lat="40.745765" lon="-3.992584">
        <ele>1331</ele>
        <time>2018-06-30T22:09:52.008Z</time>
      </trkpt>
      <trkpt lat="40.745724" lon="-3.992603">
        <ele>1331</ele>
        <time>2018-06-30T22:09:54.008Z</time>
      </trkpt>
      <trkpt lat="40.745661" lon="-3.992629">
        <ele>1331</ele>
        <time>2018-06-30T22:09:57.008Z</time>
      </trkpt>
      <trkpt lat="40.745578" lon="-3.992665">
        <ele>1329.3090866777</ele>
        <time>2018-06-30T22:10:01.008Z</time>
      </trkpt>
      <trkpt lat="40.745535" lon="-3.992685">
        <ele>1328</ele>
        <time>2018-06-30T22:10:03.008Z</time>
      </trkpt>
      <trkpt lat="40.745491" lon="-3.992704">
        <ele>1328</ele>
        <time>2018-06-30T22:10:05.008Z</time>
      </trkpt>
      <trkpt lat="40.74543" lon="-3.992731">
        <ele>1328</ele>
        <time>2018-06-30T22:10:08.008Z</time>
      </trkpt>
      <trkpt lat="40.745368" lon="-3.992759">
        <ele>1327.41782097913</ele>
        <time>2018-06-30T22:10:11.008Z</time>
      </trkpt>
      <trkpt lat="40.745306" lon="-3.992789">
        <ele>1327</ele>
        <time>2018-06-30T22:10:14.008Z</time>
      </trkpt>
      <trkpt lat="40.745267" lon="-3.992814">
        <ele>1327</ele>
        <time>2018-06-30T22:10:16.008Z</time>
      </trkpt>
      <trkpt lat="40.745226" lon="-3.992838">
        <ele>1327</ele>
        <time>2018-06-30T22:10:18.008Z</time>
      </trkpt>
      <trkpt lat="40.745168" lon="-3.992875">
        <ele>1326.66154192396</ele>
        <time>2018-06-30T22:10:21.008Z</time>
      </trkpt>
      <trkpt lat="40.745116" lon="-3.99292">
        <ele>1326</ele>
        <time>2018-06-30T22:10:24.008Z</time>
      </trkpt>
      <trkpt lat="40.745064" lon="-3.992968">
        <ele>1326</ele>
        <time>2018-06-30T22:10:27.008Z</time>
      </trkpt>
      <trkpt lat="40.745011" lon="-3.993015">
        <ele>1326</ele>
        <time>2018-06-30T22:10:30.008Z</time>
      </trkpt>
      <trkpt lat="40.744961" lon="-3.993062">
        <ele>1324</ele>
        <time>2018-06-30T22:10:33.008Z</time>
      </trkpt>
      <trkpt lat="40.744911" lon="-3.993112">
        <ele>1324</ele>
        <time>2018-06-30T22:10:36.008Z</time>
      </trkpt>
      <trkpt lat="40.744879" lon="-3.993147">
        <ele>1324</ele>
        <time>2018-06-30T22:10:38.008Z</time>
      </trkpt>
      <trkpt lat="40.744845" lon="-3.993181">
        <ele>1324</ele>
        <time>2018-06-30T22:10:40.008Z</time>
      </trkpt>
      <trkpt lat="40.744809" lon="-3.993216">
        <ele>1323.416159187</ele>
        <time>2018-06-30T22:10:42.008Z</time>
      </trkpt>
      <trkpt lat="40.744757" lon="-3.993265">
        <ele>1323</ele>
        <time>2018-06-30T22:10:45.008Z</time>
      </trkpt>
      <trkpt lat="40.744704" lon="-3.993319">
        <ele>1323</ele>
        <time>2018-06-30T22:10:48.008Z</time>
      </trkpt>
      <trkpt lat="40.744641" lon="-3.993389">
        <ele>1321</ele>
        <time>2018-06-30T22:10:52.008Z</time>
      </trkpt>
      <trkpt lat="40.744587" lon="-3.993437">
        <ele>1321</ele>
        <time>2018-06-30T22:10:55.008Z</time>
      </trkpt>
      <trkpt lat="40.744517" lon="-3.993511">
        <ele>1321</ele>
        <time>2018-06-30T22:10:59.008Z</time>
      </trkpt>
      <trkpt lat="40.744465" lon="-3.993569">
        <ele>1319</ele>
        <time>2018-06-30T22:11:02.008Z</time>
      </trkpt>
      <trkpt lat="40.744409" lon="-3.99362">
        <ele>1319</ele>
        <time>2018-06-30T22:11:05.008Z</time>
      </trkpt>
      <trkpt lat="40.744351" lon="-3.993673">
        <ele>1319</ele>
        <time>2018-06-30T22:11:08.008Z</time>
      </trkpt>
      <trkpt lat="40.744278" lon="-3.993741">
        <ele>1317</ele>
        <time>2018-06-30T22:11:12.008Z</time>
      </trkpt>
      <trkpt lat="40.744199" lon="-3.993803">
        <ele>1317</ele>
        <time>2018-06-30T22:11:16.008Z</time>
      </trkpt>
      <trkpt lat="40.744122" lon="-3.993866">
        <ele>1317</ele>
        <time>2018-06-30T22:11:20.008Z</time>
      </trkpt>
      <trkpt lat="40.744028" lon="-3.993922">
        <ele>1315</ele>
        <time>2018-06-30T22:11:24.008Z</time>
      </trkpt>
      <trkpt lat="40.743961" lon="-3.993957">
        <ele>1315</ele>
        <time>2018-06-30T22:11:27.008Z</time>
      </trkpt>
      <trkpt lat="40.743892" lon="-3.993983">
        <ele>1315</ele>
        <time>2018-06-30T22:11:30.008Z</time>
      </trkpt>
      <trkpt lat="40.743845" lon="-3.993996">
        <ele>1314</ele>
        <time>2018-06-30T22:11:32.008Z</time>
      </trkpt>
      <trkpt lat="40.743777" lon="-3.994017">
        <ele>1314</ele>
        <time>2018-06-30T22:11:35.008Z</time>
      </trkpt>
      <trkpt lat="40.743727" lon="-3.994031">
        <ele>1314</ele>
        <time>2018-06-30T22:11:37.008Z</time>
      </trkpt>
      <trkpt lat="40.74368" lon="-3.994049">
        <ele>1314</ele>
        <time>2018-06-30T22:11:39.008Z</time>
      </trkpt>
      <trkpt lat="40.743632" lon="-3.994064">
        <ele>1312.8701125612</ele>
        <time>2018-06-30T22:11:41.008Z</time>
      </trkpt>
      <trkpt lat="40.743587" lon="-3.99408">
        <ele>1312</ele>
        <time>2018-06-30T22:11:43.008Z</time>
      </trkpt>
      <trkpt lat="40.743523" lon="-3.994101">
        <ele>1312</ele>
        <time>2018-06-30T22:11:46.008Z</time>
      </trkpt>
      <trkpt lat="40.74346" lon="-3.994126">
        <ele>1312</ele>
        <time>2018-06-30T22:11:49.008Z</time>
      </trkpt>
      <trkpt lat="40.743394" lon="-3.994155">
        <ele>1311</ele>
        <time>2018-06-30T22:11:52.008Z</time>
      </trkpt>
      <trkpt lat="40.743325" lon="-3.994185">
        <ele>1311</ele>
        <time>2018-06-30T22:11:55.008Z</time>
      </trkpt>
      <trkpt lat="40.743255" lon="-3.994209">
        <ele>1311</ele>
        <time>2018-06-30T22:11:58.008Z</time>
      </trkpt>
      <trkpt lat="40.743188" lon="-3.994234">
        <ele>1308.69410701737</ele>
        <time>2018-06-30T22:12:01.008Z</time>
      </trkpt>
      <trkpt lat="40.743125" lon="-3.994259">
        <ele>1307</ele>
        <time>2018-06-30T22:12:04.008Z</time>
      </trkpt>
      <trkpt lat="40.743061" lon="-3.994285">
        <ele>1306</ele>
        <time>2018-06-30T22:12:07.008Z</time>
      </trkpt>
      <trkpt lat="40.742994" lon="-3.99431">
        <ele>1306</ele>
        <time>2018-06-30T22:12:10.008Z</time>
      </trkpt>
      <trkpt lat="40.742946" lon="-3.99433">
        <ele>1305</ele>
        <time>2018-06-30T22:12:12.008Z</time>
      </trkpt>
      <trkpt lat="40.742865" lon="-3.994373">
        <ele>1305</ele>
        <time>2018-06-30T22:12:16.008Z</time>
      </trkpt>
      <trkpt lat="40.742754" lon="-3.994416">
        <ele>1304.46545183737</ele>
        <time>2018-06-30T22:12:21.008Z</time>
      </trkpt>
      <trkpt lat="40.742675" lon="-3.994454">
        <ele>1304</ele>
        <time>2018-06-30T22:12:25.008Z</time>
      </trkpt>
      <trkpt lat="40.742611" lon="-3.994486">
        <ele>1304</ele>
        <time>2018-06-30T22:12:28.008Z</time>
      </trkpt>
      <trkpt lat="40.742528" lon="-3.994531">
        <ele>1302</ele>
        <time>2018-06-30T22:12:32.008Z</time>
      </trkpt>
      <trkpt lat="40.742446" lon="-3.994573">
        <ele>1302</ele>
        <time>2018-06-30T22:12:36.008Z</time>
      </trkpt>
      <trkpt lat="40.742361" lon="-3.99462">
        <ele>1302</ele>
        <time>2018-06-30T22:12:40.008Z</time>
      </trkpt>
      <trkpt lat="40.742304" lon="-3.99465">
        <ele>1301</ele>
        <time>2018-06-30T22:12:43.008Z</time>
      </trkpt>
      <trkpt lat="40.742241" lon="-3.994678">
        <ele>1301</ele>
        <time>2018-06-30T22:12:46.008Z</time>
      </trkpt>
      <trkpt lat="40.742179" lon="-3.994706">
        <ele>1301</ele>
        <time>2018-06-30T22:12:49.008Z</time>
      </trkpt>
      <trkpt lat="40.742118" lon="-3.994728">
        <ele>1300</ele>
        <time>2018-06-30T22:12:52.008Z</time>
      </trkpt>
      <trkpt lat="40.742052" lon="-3.994751">
        <ele>1300</ele>
        <time>2018-06-30T22:12:55.008Z</time>
      </trkpt>
      <trkpt lat="40.741944" lon="-3.994776">
        <ele>1300</ele>
        <time>2018-06-30T22:13:00.008Z</time>
      </trkpt>
      <trkpt lat="40.741878" lon="-3.994776">
        <ele>1297</ele>
        <time>2018-06-30T22:13:03.008Z</time>
      </trkpt>
      <trkpt lat="40.741825" lon="-3.99478">
        <ele>1297</ele>
        <time>2018-06-30T22:13:07.008Z</time>
      </trkpt>
      <trkpt lat="40.741773" lon="-3.994791">
        <ele>1297</ele>
        <time>2018-06-30T22:13:10.008Z</time>
      </trkpt>
      <trkpt lat="40.741707" lon="-3.994812">
        <ele>1296</ele>
        <time>2018-06-30T22:13:13.008Z</time>
      </trkpt>
      <trkpt lat="40.741637" lon="-3.994827">
        <ele>1296</ele>
        <time>2018-06-30T22:13:16.008Z</time>
      </trkpt>
      <trkpt lat="40.741569" lon="-3.994827">
        <ele>1296</ele>
        <time>2018-06-30T22:13:19.008Z</time>
      </trkpt>
      <trkpt lat="40.741501" lon="-3.994831">
        <ele>1295</ele>
        <time>2018-06-30T22:13:22.008Z</time>
      </trkpt>
      <trkpt lat="40.741431" lon="-3.994838">
        <ele>1295</ele>
        <time>2018-06-30T22:13:25.008Z</time>
      </trkpt>
      <trkpt lat="40.74136" lon="-3.994847">
        <ele>1295</ele>
        <time>2018-06-30T22:13:28.008Z</time>
      </trkpt>
      <trkpt lat="40.741272" lon="-3.994859">
        <ele>1294</ele>
        <time>2018-06-30T22:13:32.008Z</time>
      </trkpt>
      <trkpt lat="40.741209" lon="-3.994867">
        <ele>1294</ele>
        <time>2018-06-30T22:13:35.008Z</time>
      </trkpt>
      <trkpt lat="40.741138" lon="-3.994874">
        <ele>1294</ele>
        <time>2018-06-30T22:13:38.008Z</time>
      </trkpt>
      <trkpt lat="40.741068" lon="-3.994887">
        <ele>1292.3760973913</ele>
        <time>2018-06-30T22:13:41.008Z</time>
      </trkpt>
      <trkpt lat="40.740997" lon="-3.9949">
        <ele>1291</ele>
        <time>2018-06-30T22:13:44.008Z</time>
      </trkpt>
      <trkpt lat="40.740928" lon="-3.994915">
        <ele>1290</ele>
        <time>2018-06-30T22:13:47.008Z</time>
      </trkpt>
      <trkpt lat="40.740857" lon="-3.994934">
        <ele>1290</ele>
        <time>2018-06-30T22:13:50.008Z</time>
      </trkpt>
      <trkpt lat="40.740766" lon="-3.994961">
        <ele>1290</ele>
        <time>2018-06-30T22:13:54.008Z</time>
      </trkpt>
      <trkpt lat="40.740699" lon="-3.994983">
        <ele>1290</ele>
        <time>2018-06-30T22:13:57.008Z</time>
      </trkpt>
      <trkpt lat="40.740632" lon="-3.995004">
        <ele>1290</ele>
        <time>2018-06-30T22:14:00.008Z</time>
      </trkpt>
      <trkpt lat="40.740565" lon="-3.995029">
        <ele>1286</ele>
        <time>2018-06-30T22:14:03.008Z</time>
      </trkpt>
      <trkpt lat="40.740506" lon="-3.995052">
        <ele>1286</ele>
        <time>2018-06-30T22:14:06.008Z</time>
      </trkpt>
      <trkpt lat="40.740442" lon="-3.99508">
        <ele>1286</ele>
        <time>2018-06-30T22:14:09.008Z</time>
      </trkpt>
      <trkpt lat="40.740373" lon="-3.995108">
        <ele>1285</ele>
        <time>2018-06-30T22:14:12.008Z</time>
      </trkpt>
      <trkpt lat="40.740308" lon="-3.99513">
        <ele>1285</ele>
        <time>2018-06-30T22:14:15.008Z</time>
      </trkpt>
      <trkpt lat="40.74024" lon="-3.995156">
        <ele>1285</ele>
        <time>2018-06-30T22:14:18.008Z</time>
      </trkpt>
      <trkpt lat="40.740182" lon="-3.995176">
        <ele>1283.93090367474</ele>
        <time>2018-06-30T22:14:21.008Z</time>
      </trkpt>
      <trkpt lat="40.7401" lon="-3.995213">
        <ele>1283</ele>
        <time>2018-06-30T22:14:25.008Z</time>
      </trkpt>
      <trkpt lat="40.740026" lon="-3.995268">
        <ele>1283</ele>
        <time>2018-06-30T22:14:29.008Z</time>
      </trkpt>
      <trkpt lat="40.739954" lon="-3.995324">
        <ele>1281</ele>
        <time>2018-06-30T22:14:33.008Z</time>
      </trkpt>
      <trkpt lat="40.739888" lon="-3.99539">
        <ele>1281</ele>
        <time>2018-06-30T22:14:37.008Z</time>
      </trkpt>
      <trkpt lat="40.739841" lon="-3.995446">
        <ele>1281</ele>
        <time>2018-06-30T22:14:40.008Z</time>
      </trkpt>
      <trkpt lat="40.739797" lon="-3.99551">
        <ele>1280</ele>
        <time>2018-06-30T22:14:43.008Z</time>
      </trkpt>
      <trkpt lat="40.739738" lon="-3.995586">
        <ele>1280</ele>
        <time>2018-06-30T22:14:47.008Z</time>
      </trkpt>
      <trkpt lat="40.739688" lon="-3.995638">
        <ele>1280</ele>
        <time>2018-06-30T22:14:50.008Z</time>
      </trkpt>
      <trkpt lat="40.739617" lon="-3.995714">
        <ele>1279</ele>
        <time>2018-06-30T22:14:54.008Z</time>
      </trkpt>
      <trkpt lat="40.739563" lon="-3.99577">
        <ele>1279</ele>
        <time>2018-06-30T22:14:57.008Z</time>
      </trkpt>
      <trkpt lat="40.739527" lon="-3.995808">
        <ele>1279</ele>
        <time>2018-06-30T22:14:59.008Z</time>
      </trkpt>
      <trkpt lat="40.739489" lon="-3.995844">
        <ele>1277.27058026303</ele>
        <time>2018-06-30T22:15:01.008Z</time>
      </trkpt>
      <trkpt lat="40.739431" lon="-3.995899">
        <ele>1276</ele>
        <time>2018-06-30T22:15:04.008Z</time>
      </trkpt>
      <trkpt lat="40.739369" lon="-3.995951">
        <ele>1276</ele>
        <time>2018-06-30T22:15:07.008Z</time>
      </trkpt>
      <trkpt lat="40.739311" lon="-3.996003">
        <ele>1276</ele>
        <time>2018-06-30T22:15:10.008Z</time>
      </trkpt>
      <trkpt lat="40.739253" lon="-3.996053">
        <ele>1275</ele>
        <time>2018-06-30T22:15:13.008Z</time>
      </trkpt>
      <trkpt lat="40.739195" lon="-3.996098">
        <ele>1275</ele>
        <time>2018-06-30T22:15:16.008Z</time>
      </trkpt>
      <trkpt lat="40.739135" lon="-3.996146">
        <ele>1275</ele>
        <time>2018-06-30T22:15:19.008Z</time>
      </trkpt>
      <trkpt lat="40.73908" lon="-3.996195">
        <ele>1274</ele>
        <time>2018-06-30T22:15:22.008Z</time>
      </trkpt>
      <trkpt lat="40.739024" lon="-3.996245">
        <ele>1274</ele>
        <time>2018-06-30T22:15:25.008Z</time>
      </trkpt>
      <trkpt lat="40.738968" lon="-3.996292">
        <ele>1274</ele>
        <time>2018-06-30T22:15:28.008Z</time>
      </trkpt>
      <trkpt lat="40.738931" lon="-3.996325">
        <ele>1274</ele>
        <time>2018-06-30T22:15:30.008Z</time>
      </trkpt>
      <trkpt lat="40.738891" lon="-3.99636">
        <ele>1272</ele>
        <time>2018-06-30T22:15:32.008Z</time>
      </trkpt>
      <trkpt lat="40.738851" lon="-3.996393">
        <ele>1272</ele>
        <time>2018-06-30T22:15:34.008Z</time>
      </trkpt>
      <trkpt lat="40.738792" lon="-3.996442">
        <ele>1272</ele>
        <time>2018-06-30T22:15:37.008Z</time>
      </trkpt>
      <trkpt lat="40.738755" lon="-3.996474">
        <ele>1272</ele>
        <time>2018-06-30T22:15:39.008Z</time>
      </trkpt>
      <trkpt lat="40.738716" lon="-3.996505">
        <ele>1272</ele>
        <time>2018-06-30T22:15:41.008Z</time>
      </trkpt>
      <trkpt lat="40.738678" lon="-3.996536">
        <ele>1271</ele>
        <time>2018-06-30T22:15:43.008Z</time>
      </trkpt>
      <trkpt lat="40.73864" lon="-3.996569">
        <ele>1271</ele>
        <time>2018-06-30T22:15:45.008Z</time>
      </trkpt>
      <trkpt lat="40.738585" lon="-3.996619">
        <ele>1271</ele>
        <time>2018-06-30T22:15:48.008Z</time>
      </trkpt>
      <trkpt lat="40.73853" lon="-3.996667">
        <ele>1270.50693229919</ele>
        <time>2018-06-30T22:15:51.008Z</time>
      </trkpt>
      <trkpt lat="40.738469" lon="-3.996712">
        <ele>1270</ele>
        <time>2018-06-30T22:15:54.008Z</time>
      </trkpt>
      <trkpt lat="40.738431" lon="-3.996745">
        <ele>1270</ele>
        <time>2018-06-30T22:15:56.008Z</time>
      </trkpt>
      <trkpt lat="40.738392" lon="-3.996782">
        <ele>1270</ele>
        <time>2018-06-30T22:15:58.008Z</time>
      </trkpt>
      <trkpt lat="40.738356" lon="-3.996817">
        <ele>1270</ele>
        <time>2018-06-30T22:16:00.008Z</time>
      </trkpt>
      <trkpt lat="40.738301" lon="-3.996866">
        <ele>1266</ele>
        <time>2018-06-30T22:16:03.008Z</time>
      </trkpt>
      <trkpt lat="40.738242" lon="-3.996907">
        <ele>1265.64374</ele>
        <time>2018-06-30T22:16:06.008Z</time>
      </trkpt>
      <trkpt lat="40.73818" lon="-3.996941">
        <ele>1265</ele>
        <time>2018-06-30T22:16:09.008Z</time>
      </trkpt>
      <trkpt lat="40.738124" lon="-3.996994">
        <ele>1265</ele>
        <time>2018-06-30T22:16:12.008Z</time>
      </trkpt>
      <trkpt lat="40.738068" lon="-3.997046">
        <ele>1265</ele>
        <time>2018-06-30T22:16:15.008Z</time>
      </trkpt>
      <trkpt lat="40.738003" lon="-3.997091">
        <ele>1265</ele>
        <time>2018-06-30T22:16:18.008Z</time>
      </trkpt>
      <trkpt lat="40.737958" lon="-3.997121">
        <ele>1265</ele>
        <time>2018-06-30T22:16:20.008Z</time>
      </trkpt>
      <trkpt lat="40.737874" lon="-3.99718">
        <ele>1263</ele>
        <time>2018-06-30T22:16:24.008Z</time>
      </trkpt>
      <trkpt lat="40.737811" lon="-3.997222">
        <ele>1263</ele>
        <time>2018-06-30T22:16:27.008Z</time>
      </trkpt>
      <trkpt lat="40.737745" lon="-3.997257">
        <ele>1263</ele>
        <time>2018-06-30T22:16:30.008Z</time>
      </trkpt>
      <trkpt lat="40.737687" lon="-3.997298">
        <ele>1262</ele>
        <time>2018-06-30T22:16:33.008Z</time>
      </trkpt>
      <trkpt lat="40.737627" lon="-3.997341">
        <ele>1262</ele>
        <time>2018-06-30T22:16:36.008Z</time>
      </trkpt>
      <trkpt lat="40.737564" lon="-3.997381">
        <ele>1262</ele>
        <time>2018-06-30T22:16:39.008Z</time>
      </trkpt>
      <trkpt lat="40.737503" lon="-3.997421">
        <ele>1260</ele>
        <time>2018-06-30T22:16:42.008Z</time>
      </trkpt>
      <trkpt lat="40.737444" lon="-3.997459">
        <ele>1260</ele>
        <time>2018-06-30T22:16:45.008Z</time>
      </trkpt>
      <trkpt lat="40.737383" lon="-3.997499">
        <ele>1260</ele>
        <time>2018-06-30T22:16:48.008Z</time>
      </trkpt>
      <trkpt lat="40.73731" lon="-3.997558">
        <ele>1259</ele>
        <time>2018-06-30T22:16:52.008Z</time>
      </trkpt>
      <trkpt lat="40.737249" lon="-3.997596">
        <ele>1259</ele>
        <time>2018-06-30T22:16:55.008Z</time>
      </trkpt>
      <trkpt lat="40.737183" lon="-3.997631">
        <ele>1259</ele>
        <time>2018-06-30T22:16:58.008Z</time>
      </trkpt>
      <trkpt lat="40.737123" lon="-3.997676">
        <ele>1257.91914267818</ele>
        <time>2018-06-30T22:17:01.008Z</time>
      </trkpt>
      <trkpt lat="40.737063" lon="-3.997715">
        <ele>1257</ele>
        <time>2018-06-30T22:17:04.008Z</time>
      </trkpt>
      <trkpt lat="40.737003" lon="-3.997753">
        <ele>1257</ele>
        <time>2018-06-30T22:17:07.008Z</time>
      </trkpt>
      <trkpt lat="40.736941" lon="-3.997788">
        <ele>1257</ele>
        <time>2018-06-30T22:17:10.008Z</time>
      </trkpt>
      <trkpt lat="40.736872" lon="-3.997804">
        <ele>1256</ele>
        <time>2018-06-30T22:17:13.008Z</time>
      </trkpt>
      <trkpt lat="40.736823" lon="-3.99781">
        <ele>1256</ele>
        <time>2018-06-30T22:17:15.008Z</time>
      </trkpt>
      <trkpt lat="40.73675" lon="-3.997816">
        <ele>1256</ele>
        <time>2018-06-30T22:17:18.008Z</time>
      </trkpt>
      <trkpt lat="40.736681" lon="-3.997823">
        <ele>1255.02956235252</ele>
        <time>2018-06-30T22:17:21.008Z</time>
      </trkpt>
      <trkpt lat="40.736614" lon="-3.997842">
        <ele>1254</ele>
        <time>2018-06-30T22:17:24.008Z</time>
      </trkpt>
      <trkpt lat="40.736544" lon="-3.99791">
        <ele>1254</ele>
        <time>2018-06-30T22:17:28.008Z</time>
      </trkpt>
      <trkpt lat="40.736487" lon="-3.997996">
        <ele>1253</ele>
        <time>2018-06-30T22:17:32.008Z</time>
      </trkpt>
      <trkpt lat="40.736434" lon="-3.998087">
        <ele>1253</ele>
        <time>2018-06-30T22:17:36.008Z</time>
      </trkpt>
      <trkpt lat="40.736392" lon="-3.998151">
        <ele>1253</ele>
        <time>2018-06-30T22:17:39.008Z</time>
      </trkpt>
      <trkpt lat="40.73635" lon="-3.998214">
        <ele>1250</ele>
        <time>2018-06-30T22:17:42.008Z</time>
      </trkpt>
      <trkpt lat="40.736308" lon="-3.998278">
        <ele>1250</ele>
        <time>2018-06-30T22:17:45.008Z</time>
      </trkpt>
      <trkpt lat="40.736259" lon="-3.998341">
        <ele>1250</ele>
        <time>2018-06-30T22:17:48.008Z</time>
      </trkpt>
      <trkpt lat="40.736209" lon="-3.998423">
        <ele>1249</ele>
        <time>2018-06-30T22:17:52.008Z</time>
      </trkpt>
      <trkpt lat="40.736157" lon="-3.998507">
        <ele>1249</ele>
        <time>2018-06-30T22:17:56.008Z</time>
      </trkpt>
      <trkpt lat="40.736101" lon="-3.998588">
        <ele>1249</ele>
        <time>2018-06-30T22:18:00.008Z</time>
      </trkpt>
      <trkpt lat="40.736044" lon="-3.998678">
        <ele>1246</ele>
        <time>2018-06-30T22:18:04.008Z</time>
      </trkpt>
      <trkpt lat="40.736004" lon="-3.998745">
        <ele>1246</ele>
        <time>2018-06-30T22:18:07.008Z</time>
      </trkpt>
      <trkpt lat="40.735962" lon="-3.998812">
        <ele>1246</ele>
        <time>2018-06-30T22:18:10.008Z</time>
      </trkpt>
      <trkpt lat="40.735922" lon="-3.998914">
        <ele>1245</ele>
        <time>2018-06-30T22:18:14.008Z</time>
      </trkpt>
      <trkpt lat="40.735873" lon="-3.999008">
        <ele>1245</ele>
        <time>2018-06-30T22:18:18.008Z</time>
      </trkpt>
      <trkpt lat="40.735829" lon="-3.999104">
        <ele>1244</ele>
        <time>2018-06-30T22:18:22.008Z</time>
      </trkpt>
      <trkpt lat="40.735793" lon="-3.999203">
        <ele>1244</ele>
        <time>2018-06-30T22:18:26.008Z</time>
      </trkpt>
      <trkpt lat="40.735773" lon="-3.999266">
        <ele>1244</ele>
        <time>2018-06-30T22:18:29.008Z</time>
      </trkpt>
      <trkpt lat="40.735761" lon="-3.999322">
        <ele>1243</ele>
        <time>2018-06-30T22:18:33.008Z</time>
      </trkpt>
      <trkpt lat="40.735746" lon="-3.999385">
        <ele>1243</ele>
        <time>2018-06-30T22:18:37.008Z</time>
      </trkpt>
      <trkpt lat="40.735728" lon="-3.99946">
        <ele>1242</ele>
        <time>2018-06-30T22:18:42.008Z</time>
      </trkpt>
      <trkpt lat="40.735719" lon="-3.999526">
        <ele>1242</ele>
        <time>2018-06-30T22:18:46.008Z</time>
      </trkpt>
      <trkpt lat="40.735718" lon="-3.999592">
        <ele>1242</ele>
        <time>2018-06-30T22:18:50.008Z</time>
      </trkpt>
      <trkpt lat="40.735717" lon="-3.999688">
        <ele>1241</ele>
        <time>2018-06-30T22:18:56.008Z</time>
      </trkpt>
      <trkpt lat="40.73572" lon="-3.999799">
        <ele>1240</ele>
        <time>2018-06-30T22:19:03.008Z</time>
      </trkpt>
      <trkpt lat="40.735726" lon="-3.999876">
        <ele>1240</ele>
        <time>2018-06-30T22:19:08.008Z</time>
      </trkpt>
      <trkpt lat="40.735735" lon="-3.999975">
        <ele>1240</ele>
        <time>2018-06-30T22:19:14.008Z</time>
      </trkpt>
      <trkpt lat="40.735757" lon="-4.000107">
        <ele>1240</ele>
        <time>2018-06-30T22:19:23.008Z</time>
      </trkpt>
      <trkpt lat="40.735766" lon="-4.000178">
        <ele>1240</ele>
        <time>2018-06-30T22:19:28.008Z</time>
      </trkpt>
      <trkpt lat="40.735773" lon="-4.00026">
        <ele>1240</ele>
        <time>2018-06-30T22:19:34.008Z</time>
      </trkpt>
      <trkpt lat="40.735783" lon="-4.000356">
        <ele>1240</ele>
        <time>2018-06-30T22:19:40.008Z</time>
      </trkpt>
      <trkpt lat="40.735791" lon="-4.000419">
        <ele>1239</ele>
        <time>2018-06-30T22:19:44.008Z</time>
      </trkpt>
      <trkpt lat="40.735801" lon="-4.000493">
        <ele>1239</ele>
        <time>2018-06-30T22:19:49.008Z</time>
      </trkpt>
      <trkpt lat="40.735821" lon="-4.00061">
        <ele>1239</ele>
        <time>2018-06-30T22:19:56.008Z</time>
      </trkpt>
      <trkpt lat="40.735821" lon="-4.000674">
        <ele>1239</ele>
        <time>2018-06-30T22:20:00.008Z</time>
      </trkpt>
      <trkpt lat="40.735818" lon="-4.000741">
        <ele>1238</ele>
        <time>2018-06-30T22:20:04.008Z</time>
      </trkpt>
      <trkpt lat="40.735824" lon="-4.000812">
        <ele>1238</ele>
        <time>2018-06-30T22:20:08.008Z</time>
      </trkpt>
      <trkpt lat="40.73583" lon="-4.000886">
        <ele>1238</ele>
        <time>2018-06-30T22:20:12.008Z</time>
      </trkpt>
      <trkpt lat="40.735831" lon="-4.000956">
        <ele>1238</ele>
        <time>2018-06-30T22:20:16.008Z</time>
      </trkpt>
      <trkpt lat="40.735823" lon="-4.001023">
        <ele>1238</ele>
        <time>2018-06-30T22:20:20.008Z</time>
      </trkpt>
      <trkpt lat="40.735812" lon="-4.001088">
        <ele>1238</ele>
        <time>2018-06-30T22:20:24.008Z</time>
      </trkpt>
      <trkpt lat="40.735798" lon="-4.001156">
        <ele>1238</ele>
        <time>2018-06-30T22:20:28.008Z</time>
      </trkpt>
      <trkpt lat="40.7358" lon="-4.001229">
        <ele>1237</ele>
        <time>2018-06-30T22:20:32.008Z</time>
      </trkpt>
      <trkpt lat="40.735788" lon="-4.001294">
        <ele>1237</ele>
        <time>2018-06-30T22:20:36.008Z</time>
      </trkpt>
      <trkpt lat="40.735771" lon="-4.001357">
        <ele>1237</ele>
        <time>2018-06-30T22:20:40.008Z</time>
      </trkpt>
      <trkpt lat="40.735751" lon="-4.00142">
        <ele>1237</ele>
        <time>2018-06-30T22:20:44.008Z</time>
      </trkpt>
      <trkpt lat="40.735736" lon="-4.001485">
        <ele>1237</ele>
        <time>2018-06-30T22:20:48.008Z</time>
      </trkpt>
      <trkpt lat="40.735716" lon="-4.001549">
        <ele>1236</ele>
        <time>2018-06-30T22:20:52.008Z</time>
      </trkpt>
      <trkpt lat="40.735697" lon="-4.001613">
        <ele>1236</ele>
        <time>2018-06-30T22:20:56.008Z</time>
      </trkpt>
      <trkpt lat="40.735682" lon="-4.001678">
        <ele>1236</ele>
        <time>2018-06-30T22:21:00.008Z</time>
      </trkpt>
      <trkpt lat="40.735667" lon="-4.001738">
        <ele>1236</ele>
        <time>2018-06-30T22:21:04.008Z</time>
      </trkpt>
      <trkpt lat="40.735648" lon="-4.001801">
        <ele>1236</ele>
        <time>2018-06-30T22:21:08.008Z</time>
      </trkpt>
      <trkpt lat="40.735636" lon="-4.00185">
        <ele>1236</ele>
        <time>2018-06-30T22:21:11.008Z</time>
      </trkpt>
      <trkpt lat="40.735621" lon="-4.001914">
        <ele>1236</ele>
        <time>2018-06-30T22:21:15.008Z</time>
      </trkpt>
      <trkpt lat="40.735599" lon="-4.001993">
        <ele>1235</ele>
        <time>2018-06-30T22:21:20.008Z</time>
      </trkpt>
      <trkpt lat="40.735578" lon="-4.00207">
        <ele>1236</ele>
        <time>2018-06-30T22:21:25.008Z</time>
      </trkpt>
      <trkpt lat="40.73557" lon="-4.002135">
        <ele>1236</ele>
        <time>2018-06-30T22:21:29.008Z</time>
      </trkpt>
      <trkpt lat="40.735553" lon="-4.002198">
        <ele>1236</ele>
        <time>2018-06-30T22:21:33.008Z</time>
      </trkpt>
      <trkpt lat="40.735535" lon="-4.002262">
        <ele>1236</ele>
        <time>2018-06-30T22:21:37.008Z</time>
      </trkpt>
      <trkpt lat="40.735518" lon="-4.002326">
        <ele>1236</ele>
        <time>2018-06-30T22:21:41.008Z</time>
      </trkpt>
      <trkpt lat="40.735503" lon="-4.00239">
        <ele>1236</ele>
        <time>2018-06-30T22:21:45.008Z</time>
      </trkpt>
      <trkpt lat="40.735489" lon="-4.00245">
        <ele>1236</ele>
        <time>2018-06-30T22:21:49.008Z</time>
      </trkpt>
      <trkpt lat="40.735461" lon="-4.002536">
        <ele>1236</ele>
        <time>2018-06-30T22:21:55.008Z</time>
      </trkpt>
      <trkpt lat="40.735442" lon="-4.00261">
        <ele>1236</ele>
        <time>2018-06-30T22:22:00.008Z</time>
      </trkpt>
      <trkpt lat="40.735428" lon="-4.002674">
        <ele>1236</ele>
        <time>2018-06-30T22:22:04.008Z</time>
      </trkpt>
      <trkpt lat="40.735414" lon="-4.002738">
        <ele>1236</ele>
        <time>2018-06-30T22:22:08.008Z</time>
      </trkpt>
      <trkpt lat="40.735398" lon="-4.002802">
        <ele>1237</ele>
        <time>2018-06-30T22:22:12.008Z</time>
      </trkpt>
      <trkpt lat="40.735385" lon="-4.002848">
        <ele>1237</ele>
        <time>2018-06-30T22:22:15.008Z</time>
      </trkpt>
      <trkpt lat="40.735373" lon="-4.002894">
        <ele>1237</ele>
        <time>2018-06-30T22:22:18.008Z</time>
      </trkpt>
      <trkpt lat="40.735364" lon="-4.00294">
        <ele>1237</ele>
        <time>2018-06-30T22:22:21.008Z</time>
      </trkpt>
      <trkpt lat="40.735352" lon="-4.003002">
        <ele>1237</ele>
        <time>2018-06-30T22:22:25.008Z</time>
      </trkpt>
      <trkpt lat="40.735343" lon="-4.003049">
        <ele>1237</ele>
        <time>2018-06-30T22:22:28.008Z</time>
      </trkpt>
      <trkpt lat="40.735331" lon="-4.003113">
        <ele>1238</ele>
        <time>2018-06-30T22:22:32.008Z</time>
      </trkpt>
      <trkpt lat="40.735316" lon="-4.003176">
        <ele>1238</ele>
        <time>2018-06-30T22:22:36.008Z</time>
      </trkpt>
      <trkpt lat="40.735306" lon="-4.003239">
        <ele>1237</ele>
        <time>2018-06-30T22:22:40.008Z</time>
      </trkpt>
      <trkpt lat="40.735295" lon="-4.0033">
        <ele>1238</ele>
        <time>2018-06-30T22:22:44.008Z</time>
      </trkpt>
      <trkpt lat="40.735291" lon="-4.003351">
        <ele>1238</ele>
        <time>2018-06-30T22:22:47.008Z</time>
      </trkpt>
      <trkpt lat="40.735288" lon="-4.0034">
        <ele>1238</ele>
        <time>2018-06-30T22:22:50.008Z</time>
      </trkpt>
      <trkpt lat="40.735283" lon="-4.003448">
        <ele>1239</ele>
        <time>2018-06-30T22:22:53.008Z</time>
      </trkpt>
      <trkpt lat="40.735282" lon="-4.003499">
        <ele>1239</ele>
        <time>2018-06-30T22:22:56.008Z</time>
      </trkpt>
      <trkpt lat="40.735282" lon="-4.003549">
        <ele>1239</ele>
        <time>2018-06-30T22:22:59.008Z</time>
      </trkpt>
      <trkpt lat="40.735277" lon="-4.003596">
        <ele>1240</ele>
        <time>2018-06-30T22:23:02.008Z</time>
      </trkpt>
      <trkpt lat="40.735275" lon="-4.003647">
        <ele>1240</ele>
        <time>2018-06-30T22:23:05.008Z</time>
      </trkpt>
      <trkpt lat="40.735268" lon="-4.003696">
        <ele>1240</ele>
        <time>2018-06-30T22:23:08.008Z</time>
      </trkpt>
      <trkpt lat="40.735262" lon="-4.003744">
        <ele>1240</ele>
        <time>2018-06-30T22:23:11.008Z</time>
      </trkpt>
      <trkpt lat="40.73526" lon="-4.003793">
        <ele>1240</ele>
        <time>2018-06-30T22:23:14.008Z</time>
      </trkpt>
      <trkpt lat="40.735255" lon="-4.00384">
        <ele>1240</ele>
        <time>2018-06-30T22:23:17.008Z</time>
      </trkpt>
      <trkpt lat="40.735249" lon="-4.003887">
        <ele>1240</ele>
        <time>2018-06-30T22:23:20.008Z</time>
      </trkpt>
      <trkpt lat="40.735241" lon="-4.003932">
        <ele>1241</ele>
        <time>2018-06-30T22:23:23.008Z</time>
      </trkpt>
      <trkpt lat="40.735236" lon="-4.003979">
        <ele>1241</ele>
        <time>2018-06-30T22:23:26.008Z</time>
      </trkpt>
      <trkpt lat="40.735231" lon="-4.004026">
        <ele>1241</ele>
        <time>2018-06-30T22:23:29.008Z</time>
      </trkpt>
      <trkpt lat="40.735229" lon="-4.004074">
        <ele>1242</ele>
        <time>2018-06-30T22:23:32.008Z</time>
      </trkpt>
      <trkpt lat="40.735226" lon="-4.004105">
        <ele>1242</ele>
        <time>2018-06-30T22:23:34.008Z</time>
      </trkpt>
      <trkpt lat="40.735222" lon="-4.004154">
        <ele>1242</ele>
        <time>2018-06-30T22:23:37.008Z</time>
      </trkpt>
      <trkpt lat="40.735215" lon="-4.004201">
        <ele>1242</ele>
        <time>2018-06-30T22:23:40.008Z</time>
      </trkpt>
      <trkpt lat="40.735207" lon="-4.004247">
        <ele>1242</ele>
        <time>2018-06-30T22:23:43.008Z</time>
      </trkpt>
      <trkpt lat="40.735198" lon="-4.004308">
        <ele>1242</ele>
        <time>2018-06-30T22:23:47.008Z</time>
      </trkpt>
      <trkpt lat="40.735186" lon="-4.004368">
        <ele>1241</ele>
        <time>2018-06-30T22:23:51.008Z</time>
      </trkpt>
      <trkpt lat="40.735176" lon="-4.004418">
        <ele>1241</ele>
        <time>2018-06-30T22:23:54.008Z</time>
      </trkpt>
      <trkpt lat="40.735162" lon="-4.004481">
        <ele>1241</ele>
        <time>2018-06-30T22:23:58.008Z</time>
      </trkpt>
      <trkpt lat="40.735145" lon="-4.004541">
        <ele>1240.42352675434</ele>
        <time>2018-06-30T22:24:01.008Z</time>
      </trkpt>
      <trkpt lat="40.735128" lon="-4.004591">
        <ele>1240</ele>
        <time>2018-06-30T22:24:03.008Z</time>
      </trkpt>
      <trkpt lat="40.735106" lon="-4.00464">
        <ele>1240</ele>
        <time>2018-06-30T22:24:05.008Z</time>
      </trkpt>
      <trkpt lat="40.735078" lon="-4.004717">
        <ele>1239.42626448076</ele>
        <time>2018-06-30T22:24:08.008Z</time>
      </trkpt>
      <trkpt lat="40.735046" lon="-4.004793">
        <ele>1239</ele>
        <time>2018-06-30T22:24:11.008Z</time>
      </trkpt>
      <trkpt lat="40.735017" lon="-4.004872">
        <ele>1239</ele>
        <time>2018-06-30T22:24:14.008Z</time>
      </trkpt>
      <trkpt lat="40.734983" lon="-4.004946">
        <ele>1239</ele>
        <time>2018-06-30T22:24:17.008Z</time>
      </trkpt>
      <trkpt lat="40.734946" lon="-4.005023">
        <ele>1239</ele>
        <time>2018-06-30T22:24:20.008Z</time>
      </trkpt>
      <trkpt lat="40.734896" lon="-4.005112">
        <ele>1237</ele>
        <time>2018-06-30T22:24:24.008Z</time>
      </trkpt>
      <trkpt lat="40.734834" lon="-4.005197">
        <ele>1236</ele>
        <time>2018-06-30T22:24:28.008Z</time>
      </trkpt>
      <trkpt lat="40.734793" lon="-4.005264">
        <ele>1236</ele>
        <time>2018-06-30T22:24:31.008Z</time>
      </trkpt>
      <trkpt lat="40.734746" lon="-4.005327">
        <ele>1236</ele>
        <time>2018-06-30T22:24:34.008Z</time>
      </trkpt>
      <trkpt lat="40.734695" lon="-4.005385">
        <ele>1236</ele>
        <time>2018-06-30T22:24:37.008Z</time>
      </trkpt>
      <trkpt lat="40.734643" lon="-4.005438">
        <ele>1236</ele>
        <time>2018-06-30T22:24:40.008Z</time>
      </trkpt>
      <trkpt lat="40.734585" lon="-4.005493">
        <ele>1235</ele>
        <time>2018-06-30T22:24:43.008Z</time>
      </trkpt>
      <trkpt lat="40.734529" lon="-4.005539">
        <ele>1235</ele>
        <time>2018-06-30T22:24:46.008Z</time>
      </trkpt>
      <trkpt lat="40.734473" lon="-4.005588">
        <ele>1235</ele>
        <time>2018-06-30T22:24:49.008Z</time>
      </trkpt>
      <trkpt lat="40.734411" lon="-4.005665">
        <ele>1234</ele>
        <time>2018-06-30T22:24:53.008Z</time>
      </trkpt>
      <trkpt lat="40.73436" lon="-4.005712">
        <ele>1234</ele>
        <time>2018-06-30T22:24:56.008Z</time>
      </trkpt>
      <trkpt lat="40.734306" lon="-4.00576">
        <ele>1234</ele>
        <time>2018-06-30T22:24:59.008Z</time>
      </trkpt>
      <trkpt lat="40.734252" lon="-4.005806">
        <ele>1231</ele>
        <time>2018-06-30T22:25:02.008Z</time>
      </trkpt>
      <trkpt lat="40.734216" lon="-4.00584">
        <ele>1231</ele>
        <time>2018-06-30T22:25:04.008Z</time>
      </trkpt>
      <trkpt lat="40.734164" lon="-4.005888">
        <ele>1231</ele>
        <time>2018-06-30T22:25:07.008Z</time>
      </trkpt>
      <trkpt lat="40.73413" lon="-4.005923">
        <ele>1231</ele>
        <time>2018-06-30T22:25:09.008Z</time>
      </trkpt>
      <trkpt lat="40.734094" lon="-4.005956">
        <ele>1230.45869913043</ele>
        <time>2018-06-30T22:25:11.008Z</time>
      </trkpt>
      <trkpt lat="40.73406" lon="-4.00599">
        <ele>1230</ele>
        <time>2018-06-30T22:25:13.008Z</time>
      </trkpt>
      <trkpt lat="40.734023" lon="-4.00602">
        <ele>1230</ele>
        <time>2018-06-30T22:25:15.008Z</time>
      </trkpt>
      <trkpt lat="40.733985" lon="-4.006048">
        <ele>1230</ele>
        <time>2018-06-30T22:25:17.008Z</time>
      </trkpt>
      <trkpt lat="40.733948" lon="-4.006073">
        <ele>1230</ele>
        <time>2018-06-30T22:25:19.008Z</time>
      </trkpt>
      <trkpt lat="40.73391" lon="-4.006098">
        <ele>1228.94053206333</ele>
        <time>2018-06-30T22:25:21.008Z</time>
      </trkpt>
      <trkpt lat="40.73387" lon="-4.006124">
        <ele>1228</ele>
        <time>2018-06-30T22:25:23.008Z</time>
      </trkpt>
      <trkpt lat="40.733831" lon="-4.006148">
        <ele>1228</ele>
        <time>2018-06-30T22:25:25.008Z</time>
      </trkpt>
      <trkpt lat="40.733791" lon="-4.006174">
        <ele>1228</ele>
        <time>2018-06-30T22:25:27.008Z</time>
      </trkpt>
      <trkpt lat="40.733751" lon="-4.0062">
        <ele>1228</ele>
        <time>2018-06-30T22:25:29.008Z</time>
      </trkpt>
      <trkpt lat="40.733714" lon="-4.006227">
        <ele>1227.46451772737</ele>
        <time>2018-06-30T22:25:31.008Z</time>
      </trkpt>
      <trkpt lat="40.733675" lon="-4.00625">
        <ele>1227</ele>
        <time>2018-06-30T22:25:33.008Z</time>
      </trkpt>
      <trkpt lat="40.733631" lon="-4.00626">
        <ele>1227</ele>
        <time>2018-06-30T22:25:35.008Z</time>
      </trkpt>
      <trkpt lat="40.733573" lon="-4.006232">
        <ele>1227</ele>
        <time>2018-06-30T22:25:38.008Z</time>
      </trkpt>
      <trkpt lat="40.733537" lon="-4.006196">
        <ele>1227</ele>
        <time>2018-06-30T22:25:40.008Z</time>
      </trkpt>
      <trkpt lat="40.733502" lon="-4.006157">
        <ele>1226</ele>
        <time>2018-06-30T22:25:42.008Z</time>
      </trkpt>
      <trkpt lat="40.73347" lon="-4.006114">
        <ele>1226</ele>
        <time>2018-06-30T22:25:44.008Z</time>
      </trkpt>
      <trkpt lat="40.733437" lon="-4.006076">
        <ele>1226</ele>
        <time>2018-06-30T22:25:46.008Z</time>
      </trkpt>
      <trkpt lat="40.73339" lon="-4.006016">
        <ele>1226</ele>
        <time>2018-06-30T22:25:49.008Z</time>
      </trkpt>
      <trkpt lat="40.733354" lon="-4.005974">
        <ele>1225.5257158879</ele>
        <time>2018-06-30T22:25:51.008Z</time>
      </trkpt>
      <trkpt lat="40.733297" lon="-4.005906">
        <ele>1225</ele>
        <time>2018-06-30T22:25:55.008Z</time>
      </trkpt>
      <trkpt lat="40.733236" lon="-4.005911">
        <ele>1225</ele>
        <time>2018-06-30T22:26:00.008Z</time>
      </trkpt>
      <trkpt lat="40.73319" lon="-4.005963">
        <ele>1223</ele>
        <time>2018-06-30T22:26:03.008Z</time>
      </trkpt>
      <trkpt lat="40.733143" lon="-4.006024">
        <ele>1223</ele>
        <time>2018-06-30T22:26:06.008Z</time>
      </trkpt>
      <trkpt lat="40.733104" lon="-4.006089">
        <ele>1223</ele>
        <time>2018-06-30T22:26:09.008Z</time>
      </trkpt>
      <trkpt lat="40.733068" lon="-4.006151">
        <ele>1223</ele>
        <time>2018-06-30T22:26:12.008Z</time>
      </trkpt>
      <trkpt lat="40.73303" lon="-4.006205">
        <ele>1223</ele>
        <time>2018-06-30T22:26:16.008Z</time>
      </trkpt>
      <trkpt lat="40.733065" lon="-4.006261">
        <ele>1223</ele>
        <time>2018-06-30T22:26:19.008Z</time>
      </trkpt>
      <trkpt lat="40.733109" lon="-4.006316">
        <ele>1223</ele>
        <time>2018-06-30T22:26:22.008Z</time>
      </trkpt>
      <trkpt lat="40.73315" lon="-4.006366">
        <ele>1223</ele>
        <time>2018-06-30T22:26:25.008Z</time>
      </trkpt>
      <trkpt lat="40.733185" lon="-4.006423">
        <ele>1223</ele>
        <time>2018-06-30T22:26:28.008Z</time>
      </trkpt>
      <trkpt lat="40.733214" lon="-4.00646">
        <ele>1223</ele>
        <time>2018-06-30T22:26:30.008Z</time>
      </trkpt>
      <trkpt lat="40.733242" lon="-4.0065">
        <ele>1224</ele>
        <time>2018-06-30T22:26:32.008Z</time>
      </trkpt>
      <trkpt lat="40.733267" lon="-4.006539">
        <ele>1224</ele>
        <time>2018-06-30T22:26:34.008Z</time>
      </trkpt>
      <trkpt lat="40.733296" lon="-4.006604">
        <ele>1224</ele>
        <time>2018-06-30T22:26:37.008Z</time>
      </trkpt>
      <trkpt lat="40.733302" lon="-4.006677">
        <ele>1224</ele>
        <time>2018-06-30T22:26:40.008Z</time>
      </trkpt>
      <trkpt lat="40.733285" lon="-4.006775">
        <ele>1224</ele>
        <time>2018-06-30T22:26:44.008Z</time>
      </trkpt>
      <trkpt lat="40.733254" lon="-4.006844">
        <ele>1224</ele>
        <time>2018-06-30T22:26:47.008Z</time>
      </trkpt>
      <trkpt lat="40.733216" lon="-4.006917">
        <ele>1224</ele>
        <time>2018-06-30T22:26:50.008Z</time>
      </trkpt>
      <trkpt lat="40.733171" lon="-4.00701">
        <ele>1223</ele>
        <time>2018-06-30T22:26:54.008Z</time>
      </trkpt>
      <trkpt lat="40.733125" lon="-4.00708">
        <ele>1223</ele>
        <time>2018-06-30T22:26:57.008Z</time>
      </trkpt>
      <trkpt lat="40.733091" lon="-4.007123">
        <ele>1223</ele>
        <time>2018-06-30T22:26:59.008Z</time>
      </trkpt>
      <trkpt lat="40.73306" lon="-4.007169">
        <ele>1223</ele>
        <time>2018-06-30T22:27:01.008Z</time>
      </trkpt>
      <trkpt lat="40.733028" lon="-4.007216">
        <ele>1223</ele>
        <time>2018-06-30T22:27:03.008Z</time>
      </trkpt>
      <trkpt lat="40.733" lon="-4.00726">
        <ele>1223</ele>
        <time>2018-06-30T22:27:05.008Z</time>
      </trkpt>
      <trkpt lat="40.732958" lon="-4.007325">
        <ele>1223</ele>
        <time>2018-06-30T22:27:08.008Z</time>
      </trkpt>
      <trkpt lat="40.7329" lon="-4.007386">
        <ele>1223.52973396833</ele>
        <time>2018-06-30T22:27:11.008Z</time>
      </trkpt>
      <trkpt lat="40.732841" lon="-4.007446">
        <ele>1224</ele>
        <time>2018-06-30T22:27:14.008Z</time>
      </trkpt>
      <trkpt lat="40.732802" lon="-4.007484">
        <ele>1224</ele>
        <time>2018-06-30T22:27:16.008Z</time>
      </trkpt>
      <trkpt lat="40.732751" lon="-4.007539">
        <ele>1224</ele>
        <time>2018-06-30T22:27:19.008Z</time>
      </trkpt>
      <trkpt lat="40.732701" lon="-4.007595">
        <ele>1224</ele>
        <time>2018-06-30T22:27:22.008Z</time>
      </trkpt>
      <trkpt lat="40.732657" lon="-4.007648">
        <ele>1224</ele>
        <time>2018-06-30T22:27:25.008Z</time>
      </trkpt>
      <trkpt lat="40.73263" lon="-4.007691">
        <ele>1224</ele>
        <time>2018-06-30T22:27:27.008Z</time>
      </trkpt>
      <trkpt lat="40.732591" lon="-4.007756">
        <ele>1224</ele>
        <time>2018-06-30T22:27:30.008Z</time>
      </trkpt>
      <trkpt lat="40.732555" lon="-4.007826">
        <ele>1224</ele>
        <time>2018-06-30T22:27:33.008Z</time>
      </trkpt>
      <trkpt lat="40.73253" lon="-4.007871">
        <ele>1224</ele>
        <time>2018-06-30T22:27:35.008Z</time>
      </trkpt>
      <trkpt lat="40.732503" lon="-4.007914">
        <ele>1224</ele>
        <time>2018-06-30T22:27:37.008Z</time>
      </trkpt>
      <trkpt lat="40.732473" lon="-4.007954">
        <ele>1224</ele>
        <time>2018-06-30T22:27:39.008Z</time>
      </trkpt>
      <trkpt lat="40.732427" lon="-4.008015">
        <ele>1222</ele>
        <time>2018-06-30T22:27:42.008Z</time>
      </trkpt>
      <trkpt lat="40.732378" lon="-4.00808">
        <ele>1222</ele>
        <time>2018-06-30T22:27:45.008Z</time>
      </trkpt>
      <trkpt lat="40.732339" lon="-4.008148">
        <ele>1222</ele>
        <time>2018-06-30T22:27:48.008Z</time>
      </trkpt>
      <trkpt lat="40.732295" lon="-4.008209">
        <ele>1221.01386459838</ele>
        <time>2018-06-30T22:27:51.008Z</time>
      </trkpt>
      <trkpt lat="40.732246" lon="-4.008272">
        <ele>1220</ele>
        <time>2018-06-30T22:27:54.008Z</time>
      </trkpt>
      <trkpt lat="40.732208" lon="-4.008337">
        <ele>1220</ele>
        <time>2018-06-30T22:27:57.008Z</time>
      </trkpt>
      <trkpt lat="40.732167" lon="-4.008399">
        <ele>1220</ele>
        <time>2018-06-30T22:28:00.008Z</time>
      </trkpt>
      <trkpt lat="40.732133" lon="-4.008441">
        <ele>1216</ele>
        <time>2018-06-30T22:28:02.008Z</time>
      </trkpt>
      <trkpt lat="40.732093" lon="-4.008484">
        <ele>1216</ele>
        <time>2018-06-30T22:28:04.008Z</time>
      </trkpt>
      <trkpt lat="40.732048" lon="-4.00855">
        <ele>1216</ele>
        <time>2018-06-30T22:28:07.008Z</time>
      </trkpt>
      <trkpt lat="40.732023" lon="-4.008595">
        <ele>1216</ele>
        <time>2018-06-30T22:28:09.008Z</time>
      </trkpt>
      <trkpt lat="40.731956" lon="-4.008677">
        <ele>1216</ele>
        <time>2018-06-30T22:28:13.008Z</time>
      </trkpt>
      <trkpt lat="40.731922" lon="-4.008718">
        <ele>1216</ele>
        <time>2018-06-30T22:28:15.008Z</time>
      </trkpt>
      <trkpt lat="40.731879" lon="-4.008787">
        <ele>1216</ele>
        <time>2018-06-30T22:28:18.008Z</time>
      </trkpt>
      <trkpt lat="40.731822" lon="-4.008856">
        <ele>1214.55790348297</ele>
        <time>2018-06-30T22:28:21.008Z</time>
      </trkpt>
      <trkpt lat="40.731772" lon="-4.00892">
        <ele>1213</ele>
        <time>2018-06-30T22:28:24.008Z</time>
      </trkpt>
      <trkpt lat="40.731744" lon="-4.008964">
        <ele>1212.46817454545</ele>
        <time>2018-06-30T22:28:26.008Z</time>
      </trkpt>
      <trkpt lat="40.731711" lon="-4.009011">
        <ele>1212</ele>
        <time>2018-06-30T22:28:28.008Z</time>
      </trkpt>
      <trkpt lat="40.731681" lon="-4.009057">
        <ele>1212</ele>
        <time>2018-06-30T22:28:30.008Z</time>
      </trkpt>
      <trkpt lat="40.731639" lon="-4.009125">
        <ele>1212</ele>
        <time>2018-06-30T22:28:33.008Z</time>
      </trkpt>
      <trkpt lat="40.731598" lon="-4.009186">
        <ele>1212</ele>
        <time>2018-06-30T22:28:36.008Z</time>
      </trkpt>
      <trkpt lat="40.731551" lon="-4.00925">
        <ele>1212</ele>
        <time>2018-06-30T22:28:39.008Z</time>
      </trkpt>
      <trkpt lat="40.731514" lon="-4.009324">
        <ele>1210</ele>
        <time>2018-06-30T22:28:42.008Z</time>
      </trkpt>
      <trkpt lat="40.73147" lon="-4.009389">
        <ele>1210</ele>
        <time>2018-06-30T22:28:45.008Z</time>
      </trkpt>
      <trkpt lat="40.731418" lon="-4.009464">
        <ele>1210</ele>
        <time>2018-06-30T22:28:48.008Z</time>
      </trkpt>
      <trkpt lat="40.731353" lon="-4.009547">
        <ele>1209</ele>
        <time>2018-06-30T22:28:52.008Z</time>
      </trkpt>
      <trkpt lat="40.731312" lon="-4.00961">
        <ele>1209</ele>
        <time>2018-06-30T22:28:55.008Z</time>
      </trkpt>
      <trkpt lat="40.731267" lon="-4.009676">
        <ele>1209</ele>
        <time>2018-06-30T22:28:58.008Z</time>
      </trkpt>
      <trkpt lat="40.731221" lon="-4.009745">
        <ele>1207.410798095</ele>
        <time>2018-06-30T22:29:01.008Z</time>
      </trkpt>
      <trkpt lat="40.731161" lon="-4.009816">
        <ele>1206</ele>
        <time>2018-06-30T22:29:04.008Z</time>
      </trkpt>
      <trkpt lat="40.731102" lon="-4.0099">
        <ele>1206</ele>
        <time>2018-06-30T22:29:08.008Z</time>
      </trkpt>
      <trkpt lat="40.731061" lon="-4.009961">
        <ele>1206</ele>
        <time>2018-06-30T22:29:11.008Z</time>
      </trkpt>
      <trkpt lat="40.731021" lon="-4.010028">
        <ele>1205</ele>
        <time>2018-06-30T22:29:14.008Z</time>
      </trkpt>
      <trkpt lat="40.730969" lon="-4.010082">
        <ele>1205</ele>
        <time>2018-06-30T22:29:17.008Z</time>
      </trkpt>
      <trkpt lat="40.730902" lon="-4.010166">
        <ele>1204.46545183737</ele>
        <time>2018-06-30T22:29:21.008Z</time>
      </trkpt>
      <trkpt lat="40.730849" lon="-4.010264">
        <ele>1204</ele>
        <time>2018-06-30T22:29:25.008Z</time>
      </trkpt>
      <trkpt lat="40.73082" lon="-4.010339">
        <ele>1204</ele>
        <time>2018-06-30T22:29:28.008Z</time>
      </trkpt>
      <trkpt lat="40.730778" lon="-4.010408">
        <ele>1204</ele>
        <time>2018-06-30T22:29:31.008Z</time>
      </trkpt>
      <trkpt lat="40.730735" lon="-4.01048">
        <ele>1204</ele>
        <time>2018-06-30T22:29:34.008Z</time>
      </trkpt>
      <trkpt lat="40.730702" lon="-4.010526">
        <ele>1204</ele>
        <time>2018-06-30T22:29:36.008Z</time>
      </trkpt>
      <trkpt lat="40.73067" lon="-4.010571">
        <ele>1204</ele>
        <time>2018-06-30T22:29:38.008Z</time>
      </trkpt>
      <trkpt lat="40.730638" lon="-4.010615">
        <ele>1204</ele>
        <time>2018-06-30T22:29:40.008Z</time>
      </trkpt>
      <trkpt lat="40.73059" lon="-4.010682">
        <ele>1203</ele>
        <time>2018-06-30T22:29:43.008Z</time>
      </trkpt>
      <trkpt lat="40.730538" lon="-4.010737">
        <ele>1203</ele>
        <time>2018-06-30T22:29:46.008Z</time>
      </trkpt>
      <trkpt lat="40.730476" lon="-4.010791">
        <ele>1203</ele>
        <time>2018-06-30T22:29:49.008Z</time>
      </trkpt>
      <trkpt lat="40.730414" lon="-4.010847">
        <ele>1203</ele>
        <time>2018-06-30T22:29:52.008Z</time>
      </trkpt>
      <trkpt lat="40.73037" lon="-4.010877">
        <ele>1203</ele>
        <time>2018-06-30T22:29:54.008Z</time>
      </trkpt>
      <trkpt lat="40.730328" lon="-4.010908">
        <ele>1203</ele>
        <time>2018-06-30T22:29:56.008Z</time>
      </trkpt>
      <trkpt lat="40.730291" lon="-4.010947">
        <ele>1203</ele>
        <time>2018-06-30T22:29:58.008Z</time>
      </trkpt>
      <trkpt lat="40.730258" lon="-4.010989">
        <ele>1203</ele>
        <time>2018-06-30T22:30:00.008Z</time>
      </trkpt>
      <trkpt lat="40.730233" lon="-4.011037">
        <ele>1201</ele>
        <time>2018-06-30T22:30:02.008Z</time>
      </trkpt>
      <trkpt lat="40.730209" lon="-4.011091">
        <ele>1201</ele>
        <time>2018-06-30T22:30:04.008Z</time>
      </trkpt>
      <trkpt lat="40.730182" lon="-4.011175">
        <ele>1201</ele>
        <time>2018-06-30T22:30:07.008Z</time>
      </trkpt>
      <trkpt lat="40.730162" lon="-4.01123">
        <ele>1201</ele>
        <time>2018-06-30T22:30:09.008Z</time>
      </trkpt>
      <trkpt lat="40.730144" lon="-4.011288">
        <ele>1201</ele>
        <time>2018-06-30T22:30:11.008Z</time>
      </trkpt>
      <trkpt lat="40.730126" lon="-4.011345">
        <ele>1201</ele>
        <time>2018-06-30T22:30:13.008Z</time>
      </trkpt>
      <trkpt lat="40.730096" lon="-4.011431">
        <ele>1201</ele>
        <time>2018-06-30T22:30:16.008Z</time>
      </trkpt>
      <trkpt lat="40.730068" lon="-4.011517">
        <ele>1201</ele>
        <time>2018-06-30T22:30:19.008Z</time>
      </trkpt>
      <trkpt lat="40.73004" lon="-4.011603">
        <ele>1201</ele>
        <time>2018-06-30T22:30:22.008Z</time>
      </trkpt>
      <trkpt lat="40.730005" lon="-4.011682">
        <ele>1201</ele>
        <time>2018-06-30T22:30:25.008Z</time>
      </trkpt>
      <trkpt lat="40.729973" lon="-4.011758">
        <ele>1201</ele>
        <time>2018-06-30T22:30:28.008Z</time>
      </trkpt>
      <trkpt lat="40.729924" lon="-4.011855">
        <ele>1201</ele>
        <time>2018-06-30T22:30:32.008Z</time>
      </trkpt>
      <trkpt lat="40.729912" lon="-4.011979">
        <ele>1201</ele>
        <time>2018-06-30T22:30:36.008Z</time>
      </trkpt>
      <trkpt lat="40.729889" lon="-4.012061">
        <ele>1201</ele>
        <time>2018-06-30T22:30:39.008Z</time>
      </trkpt>
      <trkpt lat="40.729833" lon="-4.012161">
        <ele>1201</ele>
        <time>2018-06-30T22:30:43.008Z</time>
      </trkpt>
      <trkpt lat="40.729783" lon="-4.012234">
        <ele>1201</ele>
        <time>2018-06-30T22:30:46.008Z</time>
      </trkpt>
      <trkpt lat="40.729755" lon="-4.012323">
        <ele>1201</ele>
        <time>2018-06-30T22:30:49.008Z</time>
      </trkpt>
      <trkpt lat="40.729731" lon="-4.012418">
        <ele>1202</ele>
        <time>2018-06-30T22:30:52.008Z</time>
      </trkpt>
      <trkpt lat="40.729712" lon="-4.01251">
        <ele>1202</ele>
        <time>2018-06-30T22:30:55.008Z</time>
      </trkpt>
      <trkpt lat="40.729696" lon="-4.012595">
        <ele>1202</ele>
        <time>2018-06-30T22:30:58.008Z</time>
      </trkpt>
      <trkpt lat="40.729675" lon="-4.012679">
        <ele>1201.42352675434</ele>
        <time>2018-06-30T22:31:01.008Z</time>
      </trkpt>
      <trkpt lat="40.72964" lon="-4.012756">
        <ele>1201</ele>
        <time>2018-06-30T22:31:04.008Z</time>
      </trkpt>
      <trkpt lat="40.729587" lon="-4.012875">
        <ele>1201</ele>
        <time>2018-06-30T22:31:09.008Z</time>
      </trkpt>
      <trkpt lat="40.729552" lon="-4.012951">
        <ele>1201</ele>
        <time>2018-06-30T22:31:12.008Z</time>
      </trkpt>
      <trkpt lat="40.729518" lon="-4.013031">
        <ele>1201</ele>
        <time>2018-06-30T22:31:15.008Z</time>
      </trkpt>
      <trkpt lat="40.729477" lon="-4.01311">
        <ele>1201</ele>
        <time>2018-06-30T22:31:18.008Z</time>
      </trkpt>
      <trkpt lat="40.729444" lon="-4.013183">
        <ele>1200.46545183737</ele>
        <time>2018-06-30T22:31:21.008Z</time>
      </trkpt>
      <trkpt lat="40.729402" lon="-4.013248">
        <ele>1200</ele>
        <time>2018-06-30T22:31:24.008Z</time>
      </trkpt>
      <trkpt lat="40.72938" lon="-4.013314">
        <ele>1200</ele>
        <time>2018-06-30T22:31:27.008Z</time>
      </trkpt>
      <trkpt lat="40.729313" lon="-4.013437">
        <ele>1200</ele>
        <time>2018-06-30T22:31:33.008Z</time>
      </trkpt>
      <trkpt lat="40.729248" lon="-4.013532">
        <ele>1200</ele>
        <time>2018-06-30T22:31:37.008Z</time>
      </trkpt>
      <trkpt lat="40.729204" lon="-4.013648">
        <ele>1198.94053206333</ele>
        <time>2018-06-30T22:31:41.008Z</time>
      </trkpt>
      <trkpt lat="40.729168" lon="-4.013732">
        <ele>1198</ele>
        <time>2018-06-30T22:31:44.008Z</time>
      </trkpt>
      <trkpt lat="40.729122" lon="-4.013838">
        <ele>1198</ele>
        <time>2018-06-30T22:31:48.008Z</time>
      </trkpt>
      <trkpt lat="40.729099" lon="-4.013952">
        <ele>1197</ele>
        <time>2018-06-30T22:31:52.008Z</time>
      </trkpt>
      <trkpt lat="40.729073" lon="-4.014036">
        <ele>1197</ele>
        <time>2018-06-30T22:31:55.008Z</time>
      </trkpt>
      <trkpt lat="40.729042" lon="-4.014093">
        <ele>1197</ele>
        <time>2018-06-30T22:31:57.008Z</time>
      </trkpt>
      <trkpt lat="40.729022" lon="-4.014152">
        <ele>1197</ele>
        <time>2018-06-30T22:31:59.008Z</time>
      </trkpt>
      <trkpt lat="40.729005" lon="-4.014212">
        <ele>1197.52149675814</ele>
        <time>2018-06-30T22:32:01.008Z</time>
      </trkpt>
      <trkpt lat="40.728974" lon="-4.014295">
        <ele>1198</ele>
        <time>2018-06-30T22:32:04.008Z</time>
      </trkpt>
      <trkpt lat="40.728951" lon="-4.01435">
        <ele>1198</ele>
        <time>2018-06-30T22:32:06.008Z</time>
      </trkpt>
      <trkpt lat="40.728927" lon="-4.014433">
        <ele>1198</ele>
        <time>2018-06-30T22:32:09.008Z</time>
      </trkpt>
      <trkpt lat="40.728905" lon="-4.014516">
        <ele>1198</ele>
        <time>2018-06-30T22:32:12.008Z</time>
      </trkpt>
      <trkpt lat="40.728881" lon="-4.014627">
        <ele>1198</ele>
        <time>2018-06-30T22:32:16.008Z</time>
      </trkpt>
      <trkpt lat="40.728854" lon="-4.01471">
        <ele>1198</ele>
        <time>2018-06-30T22:32:19.008Z</time>
      </trkpt>
      <trkpt lat="40.72883" lon="-4.014793">
        <ele>1199</ele>
        <time>2018-06-30T22:32:22.008Z</time>
      </trkpt>
      <trkpt lat="40.728826" lon="-4.014888">
        <ele>1199</ele>
        <time>2018-06-30T22:32:25.008Z</time>
      </trkpt>
      <trkpt lat="40.728827" lon="-4.014986">
        <ele>1199</ele>
        <time>2018-06-30T22:32:28.008Z</time>
      </trkpt>
      <trkpt lat="40.728824" lon="-4.015082">
        <ele>1199.52973396833</ele>
        <time>2018-06-30T22:32:31.008Z</time>
      </trkpt>
      <trkpt lat="40.728822" lon="-4.01517">
        <ele>1200</ele>
        <time>2018-06-30T22:32:34.008Z</time>
      </trkpt>
      <trkpt lat="40.728822" lon="-4.015301">
        <ele>1200</ele>
        <time>2018-06-30T22:32:38.008Z</time>
      </trkpt>
      <trkpt lat="40.728817" lon="-4.015432">
        <ele>1200</ele>
        <time>2018-06-30T22:32:42.008Z</time>
      </trkpt>
      <trkpt lat="40.728798" lon="-4.015522">
        <ele>1200</ele>
        <time>2018-06-30T22:32:45.008Z</time>
      </trkpt>
      <trkpt lat="40.728751" lon="-4.015651">
        <ele>1200</ele>
        <time>2018-06-30T22:32:50.008Z</time>
      </trkpt>
      <trkpt lat="40.728698" lon="-4.015708">
        <ele>1200</ele>
        <time>2018-06-30T22:32:54.008Z</time>
      </trkpt>
      <trkpt lat="40.728654" lon="-4.01573">
        <ele>1200</ele>
        <time>2018-06-30T22:33:38.008Z</time>
      </trkpt>
      <trkpt lat="40.728626" lon="-4.0157">
        <ele>1199</ele>
        <time>2018-06-30T22:34:17.008Z</time>
      </trkpt>
      <trkpt lat="40.728582" lon="-4.015712">
        <ele>1199</ele>
        <time>2018-06-30T22:36:17.008Z</time>
      </trkpt>
      <trkpt lat="40.728554" lon="-4.01575">
        <ele>1200</ele>
        <time>2018-06-30T22:37:50.008Z</time>
      </trkpt>
      <trkpt lat="40.7285" lon="-4.015834">
        <ele>1200</ele>
        <time>2018-06-30T22:51:07.008Z</time>
      </trkpt>
      <trkpt lat="40.728487" lon="-4.015939">
        <ele>1200</ele>
        <time>2018-06-30T22:51:16.008Z</time>
      </trkpt>
      <trkpt lat="40.728435" lon="-4.016009">
        <ele>1200</ele>
        <time>2018-06-30T22:51:27.008Z</time>
      </trkpt>
      <trkpt lat="40.728384" lon="-4.016081">
        <ele>1199</ele>
        <time>2018-06-30T22:51:39.008Z</time>
      </trkpt>
      <trkpt lat="40.728331" lon="-4.016149">
        <ele>1199</ele>
        <time>2018-06-30T22:51:50.008Z</time>
      </trkpt>
      <trkpt lat="40.728273" lon="-4.016231">
        <ele>1199</ele>
        <time>2018-06-30T22:52:01.008Z</time>
      </trkpt>
      <trkpt lat="40.728213" lon="-4.016295">
        <ele>1199</ele>
        <time>2018-06-30T22:52:08.008Z</time>
      </trkpt>
      <trkpt lat="40.728138" lon="-4.016373">
        <ele>1198</ele>
        <time>2018-06-30T22:52:18.008Z</time>
      </trkpt>
      <trkpt lat="40.728078" lon="-4.016452">
        <ele>1198</ele>
        <time>2018-06-30T22:52:28.008Z</time>
      </trkpt>
      <trkpt lat="40.728024" lon="-4.016542">
        <ele>1198</ele>
        <time>2018-06-30T22:52:36.008Z</time>
      </trkpt>
      <trkpt lat="40.727977" lon="-4.016636">
        <ele>1197</ele>
        <time>2018-06-30T22:52:45.008Z</time>
      </trkpt>
      <trkpt lat="40.727908" lon="-4.016707">
        <ele>1197</ele>
        <time>2018-06-30T22:52:54.008Z</time>
      </trkpt>
      <trkpt lat="40.727854" lon="-4.01679">
        <ele>1197</ele>
        <time>2018-06-30T22:53:03.008Z</time>
      </trkpt>
      <trkpt lat="40.727782" lon="-4.016852">
        <ele>1197</ele>
        <time>2018-06-30T22:53:12.008Z</time>
      </trkpt>
      <trkpt lat="40.727717" lon="-4.016954">
        <ele>1196.46545183737</ele>
        <time>2018-06-30T22:53:21.008Z</time>
      </trkpt>
      <trkpt lat="40.727681" lon="-4.01703">
        <ele>1196</ele>
        <time>2018-06-30T22:53:28.008Z</time>
      </trkpt>
      <trkpt lat="40.727639" lon="-4.017141">
        <ele>1197</ele>
        <time>2018-06-30T22:53:37.008Z</time>
      </trkpt>
      <trkpt lat="40.727631" lon="-4.017271">
        <ele>1197</ele>
        <time>2018-06-30T22:53:46.008Z</time>
      </trkpt>
      <trkpt lat="40.727585" lon="-4.017384">
        <ele>1197</ele>
        <time>2018-06-30T22:53:55.008Z</time>
      </trkpt>
      <trkpt lat="40.727551" lon="-4.017502">
        <ele>1197</ele>
        <time>2018-06-30T22:54:06.008Z</time>
      </trkpt>
      <trkpt lat="40.727502" lon="-4.017577">
        <ele>1197</ele>
        <time>2018-06-30T22:54:16.008Z</time>
      </trkpt>
      <trkpt lat="40.727444" lon="-4.017661">
        <ele>1197</ele>
        <time>2018-06-30T22:54:25.008Z</time>
      </trkpt>
      <trkpt lat="40.727368" lon="-4.017756">
        <ele>1197</ele>
        <time>2018-06-30T22:54:37.008Z</time>
      </trkpt>
      <trkpt lat="40.727305" lon="-4.01784">
        <ele>1196.53454816263</ele>
        <time>2018-06-30T22:54:51.008Z</time>
      </trkpt>
      <trkpt lat="40.727241" lon="-4.017925">
        <ele>1197</ele>
        <time>2018-06-30T22:55:00.008Z</time>
      </trkpt>
      <trkpt lat="40.72717" lon="-4.018014">
        <ele>1197</ele>
        <time>2018-06-30T22:55:10.008Z</time>
      </trkpt>
      <trkpt lat="40.727101" lon="-4.018116">
        <ele>1197</ele>
        <time>2018-06-30T22:55:22.008Z</time>
      </trkpt>
      <trkpt lat="40.727047" lon="-4.018196">
        <ele>1196.42352675434</ele>
        <time>2018-06-30T22:55:31.008Z</time>
      </trkpt>
      <trkpt lat="40.726998" lon="-4.018267">
        <ele>1196</ele>
        <time>2018-06-30T22:55:39.008Z</time>
      </trkpt>
      <trkpt lat="40.72692" lon="-4.018361">
        <ele>1196</ele>
        <time>2018-06-30T22:55:49.008Z</time>
      </trkpt>
      <trkpt lat="40.726856" lon="-4.018431">
        <ele>1196</ele>
        <time>2018-06-30T22:55:58.008Z</time>
      </trkpt>
      <trkpt lat="40.726772" lon="-4.018513">
        <ele>1195</ele>
        <time>2018-06-30T22:56:09.008Z</time>
      </trkpt>
      <trkpt lat="40.726685" lon="-4.018585">
        <ele>1195</ele>
        <time>2018-06-30T22:56:20.008Z</time>
      </trkpt>
      <trkpt lat="40.7266" lon="-4.018638">
        <ele>1194</ele>
        <time>2018-06-30T22:56:30.008Z</time>
      </trkpt>
      <trkpt lat="40.726524" lon="-4.018702">
        <ele>1194</ele>
        <time>2018-06-30T22:56:39.008Z</time>
      </trkpt>
      <trkpt lat="40.726438" lon="-4.018767">
        <ele>1195</ele>
        <time>2018-06-30T22:56:49.008Z</time>
      </trkpt>
      <trkpt lat="40.72636" lon="-4.018844">
        <ele>1195</ele>
        <time>2018-06-30T22:57:00.008Z</time>
      </trkpt>
      <trkpt lat="40.726275" lon="-4.01892">
        <ele>1195</ele>
        <time>2018-06-30T22:57:13.008Z</time>
      </trkpt>
      <trkpt lat="40.726184" lon="-4.018992">
        <ele>1196</ele>
        <time>2018-06-30T22:57:25.008Z</time>
      </trkpt>
      <trkpt lat="40.726115" lon="-4.019048">
        <ele>1196</ele>
        <time>2018-06-30T22:57:34.008Z</time>
      </trkpt>
      <trkpt lat="40.726046" lon="-4.019102">
        <ele>1196</ele>
        <time>2018-06-30T22:57:42.008Z</time>
      </trkpt>
      <trkpt lat="40.726013" lon="-4.019129">
        <ele>1196</ele>
        <time>2018-06-30T22:57:46.008Z</time>
      </trkpt>
      <trkpt lat="40.725935" lon="-4.019186">
        <ele>1196</ele>
        <time>2018-06-30T22:57:56.008Z</time>
      </trkpt>
      <trkpt lat="40.725847" lon="-4.019232">
        <ele>1196</ele>
        <time>2018-06-30T22:58:06.008Z</time>
      </trkpt>
      <trkpt lat="40.725788" lon="-4.019261">
        <ele>1196</ele>
        <time>2018-06-30T22:58:12.008Z</time>
      </trkpt>
      <trkpt lat="40.725726" lon="-4.019281">
        <ele>1196</ele>
        <time>2018-06-30T22:58:18.008Z</time>
      </trkpt>
      <trkpt lat="40.725656" lon="-4.019309">
        <ele>1196</ele>
        <time>2018-06-30T22:58:26.008Z</time>
      </trkpt>
      <trkpt lat="40.725587" lon="-4.019326">
        <ele>1197</ele>
        <time>2018-06-30T22:58:33.008Z</time>
      </trkpt>
      <trkpt lat="40.725518" lon="-4.019341">
        <ele>1197</ele>
        <time>2018-06-30T22:58:40.008Z</time>
      </trkpt>
      <trkpt lat="40.725455" lon="-4.019361">
        <ele>1197</ele>
        <time>2018-06-30T22:58:46.008Z</time>
      </trkpt>
      <trkpt lat="40.725378" lon="-4.019383">
        <ele>1197</ele>
        <time>2018-06-30T22:58:54.008Z</time>
      </trkpt>
      <trkpt lat="40.725301" lon="-4.019402">
        <ele>1196</ele>
        <time>2018-06-30T22:59:02.008Z</time>
      </trkpt>
      <trkpt lat="40.725228" lon="-4.019418">
        <ele>1196</ele>
        <time>2018-06-30T22:59:08.008Z</time>
      </trkpt>
      <trkpt lat="40.725162" lon="-4.019437">
        <ele>1196</ele>
        <time>2018-06-30T22:59:14.008Z</time>
      </trkpt>
      <trkpt lat="40.725093" lon="-4.019457">
        <ele>1196</ele>
        <time>2018-06-30T22:59:22.008Z</time>
      </trkpt>
      <trkpt lat="40.725016" lon="-4.019476">
        <ele>1196</ele>
        <time>2018-06-30T22:59:30.008Z</time>
      </trkpt>
      <trkpt lat="40.724944" lon="-4.019498">
        <ele>1194</ele>
        <time>2018-06-30T22:59:37.008Z</time>
      </trkpt>
      <trkpt lat="40.724853" lon="-4.01953">
        <ele>1193</ele>
        <time>2018-06-30T22:59:46.008Z</time>
      </trkpt>
      <trkpt lat="40.724783" lon="-4.019543">
        <ele>1193</ele>
        <time>2018-06-30T22:59:53.008Z</time>
      </trkpt>
      <trkpt lat="40.724721" lon="-4.019555">
        <ele>1192</ele>
        <time>2018-06-30T23:00:13.008Z</time>
      </trkpt>
      <trkpt lat="40.724653" lon="-4.019569">
        <ele>1192</ele>
        <time>2018-06-30T23:00:20.008Z</time>
      </trkpt>
      <trkpt lat="40.724574" lon="-4.019566">
        <ele>1192</ele>
        <time>2018-06-30T23:00:29.008Z</time>
      </trkpt>
      <trkpt lat="40.724536" lon="-4.019481">
        <ele>1192</ele>
        <time>2018-06-30T23:00:48.008Z</time>
      </trkpt>
      <trkpt lat="40.724491" lon="-4.01944">
        <ele>1192</ele>
        <time>2018-06-30T23:01:14.008Z</time>
      </trkpt>
      <trkpt lat="40.724483" lon="-4.019372">
        <ele>1192</ele>
        <time>2018-06-30T23:01:35.008Z</time>
      </trkpt>
      <trkpt lat="40.724476" lon="-4.019503">
        <ele>1191</ele>
        <time>2018-06-30T23:04:07.008Z</time>
      </trkpt>
      <trkpt lat="40.724502" lon="-4.01965">
        <ele>1192</ele>
        <time>2018-06-30T23:04:12.008Z</time>
      </trkpt>
      <trkpt lat="40.724515" lon="-4.019787">
        <ele>1192</ele>
        <time>2018-06-30T23:04:15.008Z</time>
      </trkpt>
      <trkpt lat="40.724487" lon="-4.01993">
        <ele>1192</ele>
        <time>2018-06-30T23:04:18.008Z</time>
      </trkpt>
      <trkpt lat="40.724433" lon="-4.020089">
        <ele>1192</ele>
        <time>2018-06-30T23:04:21.008Z</time>
      </trkpt>
      <trkpt lat="40.724385" lon="-4.020226">
        <ele>1192</ele>
        <time>2018-06-30T23:04:24.008Z</time>
      </trkpt>
      <trkpt lat="40.724335" lon="-4.020358">
        <ele>1192</ele>
        <time>2018-06-30T23:04:27.008Z</time>
      </trkpt>
      <trkpt lat="40.72427" lon="-4.020509">
        <ele>1192</ele>
        <time>2018-06-30T23:04:30.008Z</time>
      </trkpt>
      <trkpt lat="40.724222" lon="-4.020623">
        <ele>1192</ele>
        <time>2018-06-30T23:04:32.008Z</time>
      </trkpt>
      <trkpt lat="40.724169" lon="-4.020762">
        <ele>1192</ele>
        <time>2018-06-30T23:04:34.008Z</time>
      </trkpt>
      <trkpt lat="40.724112" lon="-4.020898">
        <ele>1192</ele>
        <time>2018-06-30T23:04:36.008Z</time>
      </trkpt>
      <trkpt lat="40.724054" lon="-4.021037">
        <ele>1192</ele>
        <time>2018-06-30T23:04:38.008Z</time>
      </trkpt>
      <trkpt lat="40.724004" lon="-4.021177">
        <ele>1192</ele>
        <time>2018-06-30T23:04:40.008Z</time>
      </trkpt>
      <trkpt lat="40.723957" lon="-4.021311">
        <ele>1192</ele>
        <time>2018-06-30T23:04:42.008Z</time>
      </trkpt>
      <trkpt lat="40.723915" lon="-4.021439">
        <ele>1192</ele>
        <time>2018-06-30T23:04:44.008Z</time>
      </trkpt>
      <trkpt lat="40.723855" lon="-4.021617">
        <ele>1192</ele>
        <time>2018-06-30T23:04:47.008Z</time>
      </trkpt>
      <trkpt lat="40.72381" lon="-4.021739">
        <ele>1192</ele>
        <time>2018-06-30T23:04:49.008Z</time>
      </trkpt>
      <trkpt lat="40.723755" lon="-4.021895">
        <ele>1192</ele>
        <time>2018-06-30T23:04:52.008Z</time>
      </trkpt>
      <trkpt lat="40.723704" lon="-4.022008">
        <ele>1192</ele>
        <time>2018-06-30T23:04:59.008Z</time>
      </trkpt>
      <trkpt lat="40.723716" lon="-4.021874">
        <ele>1192</ele>
        <time>2018-06-30T23:05:57.008Z</time>
      </trkpt>
      <trkpt lat="40.723713" lon="-4.021883">
        <ele>1194</ele>
        <time>2018-06-30T23:06:52.008Z</time>
      </trkpt>
    </trkseg>
  </trk>
</gpx>
